<?xml version="1.0" encoding="UTF-8" standalone="no" ?>
<gpx xmlns="http://www.topografix.com/GPX/1/1" xmlns:xsi="http://www.w3.org/2001/XMLSchema-instance" xsi:schemaLocation="http://www.topografix.com/GPX/1/1 http://www.topografix.com/GPX/1/1/gpx.xsd" version="1.1" creator="VisuGPX - https://www.visugpx.com">
  <metadata>
    <name>Pointe du Dzonfié en circuit par Roche de Janatan et Pointe du col</name>
    <desc><![CDATA[Rando à skis au départ de Plan villard avec le CAF de Chambéry.
Portage des skis jusqu'à 1500 m , combe de Cochant, vu un grand nombre de chamois sous Roche de Janatan, neige médiocre à la descente du Dzonfié , jour blanc, mais néanmoins skiabilité correcte.
]]></desc>
  </metadata>
  <trk>
    <name><![CDATA[TRK-2020-01-27]]></name>
    <trkseg>
      <trkpt lat="45.55839" lon="6.60486">
        <ele>1380.2722</ele>
        <time>2020-01-27 09:11:00</time>
      </trkpt>
      <trkpt lat="45.55839" lon="6.60486">
        <ele>1380.1572</ele>
        <time>2020-01-27 09:11:30</time>
      </trkpt>
      <trkpt lat="45.55839" lon="6.60487">
        <ele>1380.2915</ele>
        <time>2020-01-27 09:11:38</time>
      </trkpt>
      <trkpt lat="45.5584" lon="6.60488">
        <ele>1380.369</ele>
        <time>2020-01-27 09:11:39</time>
      </trkpt>
      <trkpt lat="45.5584" lon="6.60487">
        <ele>1378.9781</ele>
        <time>2020-01-27 09:11:50</time>
      </trkpt>
      <trkpt lat="45.5584" lon="6.60487">
        <ele>1377.7649</ele>
        <time>2020-01-27 09:11:51</time>
      </trkpt>
      <trkpt lat="45.55841" lon="6.60487">
        <ele>1376.0621</ele>
        <time>2020-01-27 09:12:21</time>
      </trkpt>
      <trkpt lat="45.55841" lon="6.60488">
        <ele>1375.9102</ele>
        <time>2020-01-27 09:12:44</time>
      </trkpt>
      <trkpt lat="45.55841" lon="6.60488">
        <ele>1375.415</ele>
        <time>2020-01-27 09:12:45</time>
      </trkpt>
      <trkpt lat="45.55842" lon="6.60486">
        <ele>1378.3036</ele>
        <time>2020-01-27 09:13:13</time>
      </trkpt>
      <trkpt lat="45.55842" lon="6.60487">
        <ele>1378.2699</ele>
        <time>2020-01-27 09:13:14</time>
      </trkpt>
      <trkpt lat="45.55842" lon="6.60488">
        <ele>1378.7623</ele>
        <time>2020-01-27 09:13:15</time>
      </trkpt>
      <trkpt lat="45.55842" lon="6.6049">
        <ele>1379.2849</ele>
        <time>2020-01-27 09:13:16</time>
      </trkpt>
      <trkpt lat="45.55842" lon="6.60491">
        <ele>1379.6986</ele>
        <time>2020-01-27 09:13:17</time>
      </trkpt>
      <trkpt lat="45.55843" lon="6.6049">
        <ele>1377.7535</ele>
        <time>2020-01-27 09:13:19</time>
      </trkpt>
      <trkpt lat="45.55843" lon="6.60489">
        <ele>1375.8215</ele>
        <time>2020-01-27 09:13:29</time>
      </trkpt>
      <trkpt lat="45.55843" lon="6.6049">
        <ele>1375.8942</ele>
        <time>2020-01-27 09:13:30</time>
      </trkpt>
      <trkpt lat="45.55842" lon="6.60491">
        <ele>1375.948</ele>
        <time>2020-01-27 09:13:31</time>
      </trkpt>
      <trkpt lat="45.55842" lon="6.60492">
        <ele>1376.0748</ele>
        <time>2020-01-27 09:13:33</time>
      </trkpt>
      <trkpt lat="45.55841" lon="6.60492">
        <ele>1376.4374</ele>
        <time>2020-01-27 09:13:45</time>
      </trkpt>
      <trkpt lat="45.55842" lon="6.60493">
        <ele>1376.4535</ele>
        <time>2020-01-27 09:13:46</time>
      </trkpt>
      <trkpt lat="45.55842" lon="6.60493">
        <ele>1375.9476</ele>
        <time>2020-01-27 09:13:47</time>
      </trkpt>
      <trkpt lat="45.55845" lon="6.60489">
        <ele>1375.6726</ele>
        <time>2020-01-27 09:14:19</time>
      </trkpt>
      <trkpt lat="45.55845" lon="6.60489">
        <ele>1375.6212</ele>
        <time>2020-01-27 09:14:52</time>
      </trkpt>
      <trkpt lat="45.55845" lon="6.60489">
        <ele>1375.65</ele>
        <time>2020-01-27 09:15:23</time>
      </trkpt>
      <trkpt lat="45.55845" lon="6.60489">
        <ele>1377.851</ele>
        <time>2020-01-27 09:15:50</time>
      </trkpt>
      <trkpt lat="45.55845" lon="6.60489">
        <ele>1378.4376</ele>
        <time>2020-01-27 09:15:51</time>
      </trkpt>
      <trkpt lat="45.55846" lon="6.60489">
        <ele>1378.9517</ele>
        <time>2020-01-27 09:15:56</time>
      </trkpt>
      <trkpt lat="45.55846" lon="6.60489">
        <ele>1378.4473</ele>
        <time>2020-01-27 09:15:57</time>
      </trkpt>
      <trkpt lat="45.55846" lon="6.6049">
        <ele>1378.4908</ele>
        <time>2020-01-27 09:15:59</time>
      </trkpt>
      <trkpt lat="45.55847" lon="6.60491">
        <ele>1378.5464</ele>
        <time>2020-01-27 09:16:00</time>
      </trkpt>
      <trkpt lat="45.55848" lon="6.60492">
        <ele>1378.5659</ele>
        <time>2020-01-27 09:16:20</time>
      </trkpt>
      <trkpt lat="45.55849" lon="6.60493">
        <ele>1379.0814</ele>
        <time>2020-01-27 09:16:23</time>
      </trkpt>
      <trkpt lat="45.5585" lon="6.60497">
        <ele>1381.7887</ele>
        <time>2020-01-27 09:16:29</time>
      </trkpt>
      <trkpt lat="45.5585" lon="6.60496">
        <ele>1381.3907</ele>
        <time>2020-01-27 09:16:30</time>
      </trkpt>
      <trkpt lat="45.55853" lon="6.60494">
        <ele>1382.2977</ele>
        <time>2020-01-27 09:16:57</time>
      </trkpt>
      <trkpt lat="45.55854" lon="6.60493">
        <ele>1381.6401</ele>
        <time>2020-01-27 09:16:58</time>
      </trkpt>
      <trkpt lat="45.55854" lon="6.60493">
        <ele>1382.3044</ele>
        <time>2020-01-27 09:17:05</time>
      </trkpt>
      <trkpt lat="45.55857" lon="6.60493">
        <ele>1382.9722</ele>
        <time>2020-01-27 09:17:07</time>
      </trkpt>
      <trkpt lat="45.55857" lon="6.60493">
        <ele>1382.5819</ele>
        <time>2020-01-27 09:17:08</time>
      </trkpt>
      <trkpt lat="45.55859" lon="6.60493">
        <ele>1381.9498</ele>
        <time>2020-01-27 09:17:09</time>
      </trkpt>
      <trkpt lat="45.55859" lon="6.60493">
        <ele>1381.1719</ele>
        <time>2020-01-27 09:17:10</time>
      </trkpt>
      <trkpt lat="45.5586" lon="6.60493">
        <ele>1381.4843</ele>
        <time>2020-01-27 09:17:11</time>
      </trkpt>
      <trkpt lat="45.5586" lon="6.60492">
        <ele>1381.6539</ele>
        <time>2020-01-27 09:17:12</time>
      </trkpt>
      <trkpt lat="45.55861" lon="6.60492">
        <ele>1381.7408</ele>
        <time>2020-01-27 09:17:15</time>
      </trkpt>
      <trkpt lat="45.55861" lon="6.60492">
        <ele>1382.6545</ele>
        <time>2020-01-27 09:17:16</time>
      </trkpt>
      <trkpt lat="45.55862" lon="6.60492">
        <ele>1382.4128</ele>
        <time>2020-01-27 09:17:17</time>
      </trkpt>
      <trkpt lat="45.55866" lon="6.60488">
        <ele>1376.5165</ele>
        <time>2020-01-27 09:17:22</time>
      </trkpt>
      <trkpt lat="45.55866" lon="6.60487">
        <ele>1378.0125</ele>
        <time>2020-01-27 09:17:25</time>
      </trkpt>
      <trkpt lat="45.55867" lon="6.60487">
        <ele>1378.2836</ele>
        <time>2020-01-27 09:17:26</time>
      </trkpt>
      <trkpt lat="45.55868" lon="6.60487">
        <ele>1378.9171</ele>
        <time>2020-01-27 09:17:27</time>
      </trkpt>
      <trkpt lat="45.55868" lon="6.60487">
        <ele>1379.4169</ele>
        <time>2020-01-27 09:17:28</time>
      </trkpt>
      <trkpt lat="45.55868" lon="6.60488">
        <ele>1380.4634</ele>
        <time>2020-01-27 09:17:30</time>
      </trkpt>
      <trkpt lat="45.55869" lon="6.60489">
        <ele>1380.5828</ele>
        <time>2020-01-27 09:17:31</time>
      </trkpt>
      <trkpt lat="45.5587" lon="6.6049">
        <ele>1381.1407</ele>
        <time>2020-01-27 09:17:38</time>
      </trkpt>
      <trkpt lat="45.55872" lon="6.6049">
        <ele>1381.1808</ele>
        <time>2020-01-27 09:17:40</time>
      </trkpt>
      <trkpt lat="45.55873" lon="6.60489">
        <ele>1381.038</ele>
        <time>2020-01-27 09:17:41</time>
      </trkpt>
      <trkpt lat="45.55873" lon="6.60489">
        <ele>1380.7836</ele>
        <time>2020-01-27 09:17:42</time>
      </trkpt>
      <trkpt lat="45.55874" lon="6.60489">
        <ele>1381.5354</ele>
        <time>2020-01-27 09:17:43</time>
      </trkpt>
      <trkpt lat="45.55875" lon="6.6049">
        <ele>1381.8766</ele>
        <time>2020-01-27 09:17:44</time>
      </trkpt>
      <trkpt lat="45.55877" lon="6.60489">
        <ele>1380.5458</ele>
        <time>2020-01-27 09:17:46</time>
      </trkpt>
      <trkpt lat="45.55879" lon="6.60489">
        <ele>1380.9742</ele>
        <time>2020-01-27 09:17:47</time>
      </trkpt>
      <trkpt lat="45.55881" lon="6.60488">
        <ele>1381.8899</ele>
        <time>2020-01-27 09:17:49</time>
      </trkpt>
      <trkpt lat="45.55882" lon="6.60489">
        <ele>1382.3555</ele>
        <time>2020-01-27 09:17:50</time>
      </trkpt>
      <trkpt lat="45.55883" lon="6.60489">
        <ele>1383.1853</ele>
        <time>2020-01-27 09:17:52</time>
      </trkpt>
      <trkpt lat="45.55886" lon="6.60487">
        <ele>1383.2238</ele>
        <time>2020-01-27 09:17:56</time>
      </trkpt>
      <trkpt lat="45.55888" lon="6.60487">
        <ele>1382.7969</ele>
        <time>2020-01-27 09:17:57</time>
      </trkpt>
      <trkpt lat="45.5589" lon="6.60487">
        <ele>1384.1776</ele>
        <time>2020-01-27 09:17:59</time>
      </trkpt>
      <trkpt lat="45.55891" lon="6.60487">
        <ele>1386.4598</ele>
        <time>2020-01-27 09:18:01</time>
      </trkpt>
      <trkpt lat="45.55892" lon="6.60487">
        <ele>1386.6119</ele>
        <time>2020-01-27 09:18:02</time>
      </trkpt>
      <trkpt lat="45.55893" lon="6.60487">
        <ele>1386.908</ele>
        <time>2020-01-27 09:18:04</time>
      </trkpt>
      <trkpt lat="45.55894" lon="6.60487">
        <ele>1387.1423</ele>
        <time>2020-01-27 09:18:05</time>
      </trkpt>
      <trkpt lat="45.55895" lon="6.60487">
        <ele>1387.0304</ele>
        <time>2020-01-27 09:18:06</time>
      </trkpt>
      <trkpt lat="45.55895" lon="6.60487">
        <ele>1387.1549</ele>
        <time>2020-01-27 09:18:07</time>
      </trkpt>
      <trkpt lat="45.55896" lon="6.60486">
        <ele>1387.5112</ele>
        <time>2020-01-27 09:18:10</time>
      </trkpt>
      <trkpt lat="45.55897" lon="6.60483">
        <ele>1389.1002</ele>
        <time>2020-01-27 09:18:12</time>
      </trkpt>
      <trkpt lat="45.55898" lon="6.60482">
        <ele>1389.6304</ele>
        <time>2020-01-27 09:18:13</time>
      </trkpt>
      <trkpt lat="45.55899" lon="6.60482">
        <ele>1389.6707</ele>
        <time>2020-01-27 09:18:15</time>
      </trkpt>
      <trkpt lat="45.55899" lon="6.60482">
        <ele>1390.0408</ele>
        <time>2020-01-27 09:18:16</time>
      </trkpt>
      <trkpt lat="45.559" lon="6.60481">
        <ele>1389.7095</ele>
        <time>2020-01-27 09:18:17</time>
      </trkpt>
      <trkpt lat="45.559" lon="6.6048">
        <ele>1388.958</ele>
        <time>2020-01-27 09:18:18</time>
      </trkpt>
      <trkpt lat="45.55901" lon="6.6048">
        <ele>1388.1971</ele>
        <time>2020-01-27 09:18:19</time>
      </trkpt>
      <trkpt lat="45.55902" lon="6.60479">
        <ele>1388.926</ele>
        <time>2020-01-27 09:18:20</time>
      </trkpt>
      <trkpt lat="45.55903" lon="6.60477">
        <ele>1387.1189</ele>
        <time>2020-01-27 09:18:24</time>
      </trkpt>
      <trkpt lat="45.55904" lon="6.60476">
        <ele>1387.415</ele>
        <time>2020-01-27 09:18:25</time>
      </trkpt>
      <trkpt lat="45.55904" lon="6.60475">
        <ele>1387.8502</ele>
        <time>2020-01-27 09:18:26</time>
      </trkpt>
      <trkpt lat="45.55905" lon="6.60474">
        <ele>1388.8201</ele>
        <time>2020-01-27 09:18:27</time>
      </trkpt>
      <trkpt lat="45.55904" lon="6.60474">
        <ele>1388.2695</ele>
        <time>2020-01-27 09:19:02</time>
      </trkpt>
      <trkpt lat="45.55904" lon="6.60473">
        <ele>1388.2498</ele>
        <time>2020-01-27 09:19:36</time>
      </trkpt>
      <trkpt lat="45.55904" lon="6.60472">
        <ele>1387.9828</ele>
        <time>2020-01-27 09:19:37</time>
      </trkpt>
      <trkpt lat="45.55904" lon="6.60472">
        <ele>1388.5359</ele>
        <time>2020-01-27 09:19:38</time>
      </trkpt>
      <trkpt lat="45.55903" lon="6.6047">
        <ele>1391.2355</ele>
        <time>2020-01-27 09:19:57</time>
      </trkpt>
      <trkpt lat="45.55903" lon="6.60469">
        <ele>1391.2792</ele>
        <time>2020-01-27 09:19:58</time>
      </trkpt>
      <trkpt lat="45.55903" lon="6.60468">
        <ele>1390.4552</ele>
        <time>2020-01-27 09:19:59</time>
      </trkpt>
      <trkpt lat="45.55904" lon="6.60467">
        <ele>1390.8584</ele>
        <time>2020-01-27 09:20:28</time>
      </trkpt>
      <trkpt lat="45.55904" lon="6.60465">
        <ele>1390.334</ele>
        <time>2020-01-27 09:20:31</time>
      </trkpt>
      <trkpt lat="45.55904" lon="6.60464">
        <ele>1391.7317</ele>
        <time>2020-01-27 09:20:32</time>
      </trkpt>
      <trkpt lat="45.55905" lon="6.60463">
        <ele>1391.5331</ele>
        <time>2020-01-27 09:20:33</time>
      </trkpt>
      <trkpt lat="45.55904" lon="6.60463">
        <ele>1390.8717</ele>
        <time>2020-01-27 09:21:13</time>
      </trkpt>
      <trkpt lat="45.55904" lon="6.60462">
        <ele>1390.3958</ele>
        <time>2020-01-27 09:21:39</time>
      </trkpt>
      <trkpt lat="45.55903" lon="6.60459">
        <ele>1389.5259</ele>
        <time>2020-01-27 09:21:42</time>
      </trkpt>
      <trkpt lat="45.55902" lon="6.60458">
        <ele>1388.5408</ele>
        <time>2020-01-27 09:21:43</time>
      </trkpt>
      <trkpt lat="45.55901" lon="6.60457">
        <ele>1389.9651</ele>
        <time>2020-01-27 09:21:44</time>
      </trkpt>
      <trkpt lat="45.55901" lon="6.60456">
        <ele>1389.953</ele>
        <time>2020-01-27 09:21:46</time>
      </trkpt>
      <trkpt lat="45.559" lon="6.60454">
        <ele>1389.437</ele>
        <time>2020-01-27 09:21:48</time>
      </trkpt>
      <trkpt lat="45.559" lon="6.60452">
        <ele>1389.0826</ele>
        <time>2020-01-27 09:21:49</time>
      </trkpt>
      <trkpt lat="45.559" lon="6.60451">
        <ele>1389.0558</ele>
        <time>2020-01-27 09:21:50</time>
      </trkpt>
      <trkpt lat="45.55899" lon="6.60446">
        <ele>1388.0609</ele>
        <time>2020-01-27 09:21:54</time>
      </trkpt>
      <trkpt lat="45.55899" lon="6.60443">
        <ele>1387.736</ele>
        <time>2020-01-27 09:21:56</time>
      </trkpt>
      <trkpt lat="45.55899" lon="6.60443">
        <ele>1385.07</ele>
        <time>2020-01-27 09:21:57</time>
      </trkpt>
      <trkpt lat="45.55899" lon="6.60443">
        <ele>1385.0353</ele>
        <time>2020-01-27 09:21:58</time>
      </trkpt>
      <trkpt lat="45.55898" lon="6.60442">
        <ele>1382.9623</ele>
        <time>2020-01-27 09:22:00</time>
      </trkpt>
      <trkpt lat="45.55899" lon="6.60441">
        <ele>1382.8744</ele>
        <time>2020-01-27 09:22:02</time>
      </trkpt>
      <trkpt lat="45.55899" lon="6.60441">
        <ele>1385.5798</ele>
        <time>2020-01-27 09:22:03</time>
      </trkpt>
      <trkpt lat="45.55899" lon="6.6044">
        <ele>1384.4838</ele>
        <time>2020-01-27 09:22:04</time>
      </trkpt>
      <trkpt lat="45.55899" lon="6.60434">
        <ele>1385.4873</ele>
        <time>2020-01-27 09:22:08</time>
      </trkpt>
      <trkpt lat="45.55899" lon="6.6043">
        <ele>1389.6377</ele>
        <time>2020-01-27 09:22:11</time>
      </trkpt>
      <trkpt lat="45.55898" lon="6.6043">
        <ele>1389.5168</ele>
        <time>2020-01-27 09:22:12</time>
      </trkpt>
      <trkpt lat="45.55896" lon="6.60429">
        <ele>1387.9926</ele>
        <time>2020-01-27 09:22:13</time>
      </trkpt>
      <trkpt lat="45.55895" lon="6.60429">
        <ele>1386.7184</ele>
        <time>2020-01-27 09:22:14</time>
      </trkpt>
      <trkpt lat="45.55894" lon="6.60429">
        <ele>1386.5575</ele>
        <time>2020-01-27 09:22:15</time>
      </trkpt>
      <trkpt lat="45.55893" lon="6.60427">
        <ele>1387.515</ele>
        <time>2020-01-27 09:22:17</time>
      </trkpt>
      <trkpt lat="45.55893" lon="6.60422">
        <ele>1387.7845</ele>
        <time>2020-01-27 09:22:20</time>
      </trkpt>
      <trkpt lat="45.55892" lon="6.60422">
        <ele>1387.8842</ele>
        <time>2020-01-27 09:22:21</time>
      </trkpt>
      <trkpt lat="45.55892" lon="6.60421">
        <ele>1386.4082</ele>
        <time>2020-01-27 09:22:22</time>
      </trkpt>
      <trkpt lat="45.55891" lon="6.6042">
        <ele>1384.874</ele>
        <time>2020-01-27 09:22:23</time>
      </trkpt>
      <trkpt lat="45.55891" lon="6.6042">
        <ele>1384.3551</ele>
        <time>2020-01-27 09:22:24</time>
      </trkpt>
      <trkpt lat="45.55891" lon="6.60418">
        <ele>1384.6442</ele>
        <time>2020-01-27 09:22:26</time>
      </trkpt>
      <trkpt lat="45.55891" lon="6.60418">
        <ele>1384.0607</ele>
        <time>2020-01-27 09:22:27</time>
      </trkpt>
      <trkpt lat="45.5589" lon="6.60416">
        <ele>1384.827</ele>
        <time>2020-01-27 09:22:29</time>
      </trkpt>
      <trkpt lat="45.55891" lon="6.60415">
        <ele>1383.6014</ele>
        <time>2020-01-27 09:22:30</time>
      </trkpt>
      <trkpt lat="45.5589" lon="6.60414">
        <ele>1385.5284</ele>
        <time>2020-01-27 09:22:31</time>
      </trkpt>
      <trkpt lat="45.55891" lon="6.60413">
        <ele>1386.4781</ele>
        <time>2020-01-27 09:22:32</time>
      </trkpt>
      <trkpt lat="45.55891" lon="6.60406">
        <ele>1393.4929</ele>
        <time>2020-01-27 09:22:37</time>
      </trkpt>
      <trkpt lat="45.55889" lon="6.60404">
        <ele>1395.7594</ele>
        <time>2020-01-27 09:22:42</time>
      </trkpt>
      <trkpt lat="45.55889" lon="6.60403">
        <ele>1396.2015</ele>
        <time>2020-01-27 09:22:43</time>
      </trkpt>
      <trkpt lat="45.55889" lon="6.60404">
        <ele>1396.3737</ele>
        <time>2020-01-27 09:22:44</time>
      </trkpt>
      <trkpt lat="45.55889" lon="6.60403">
        <ele>1396.9342</ele>
        <time>2020-01-27 09:22:45</time>
      </trkpt>
      <trkpt lat="45.55887" lon="6.60398">
        <ele>1395.9918</ele>
        <time>2020-01-27 09:22:48</time>
      </trkpt>
      <trkpt lat="45.55887" lon="6.60396">
        <ele>1394.1337</ele>
        <time>2020-01-27 09:22:49</time>
      </trkpt>
      <trkpt lat="45.55888" lon="6.60392">
        <ele>1392.4506</ele>
        <time>2020-01-27 09:22:50</time>
      </trkpt>
      <trkpt lat="45.55889" lon="6.60391">
        <ele>1393.3458</ele>
        <time>2020-01-27 09:22:51</time>
      </trkpt>
      <trkpt lat="45.55888" lon="6.60389">
        <ele>1393.4214</ele>
        <time>2020-01-27 09:22:52</time>
      </trkpt>
      <trkpt lat="45.55887" lon="6.60387">
        <ele>1393.8177</ele>
        <time>2020-01-27 09:22:53</time>
      </trkpt>
      <trkpt lat="45.55887" lon="6.60385">
        <ele>1395.2003</ele>
        <time>2020-01-27 09:22:55</time>
      </trkpt>
      <trkpt lat="45.55887" lon="6.60384">
        <ele>1394.992</ele>
        <time>2020-01-27 09:22:56</time>
      </trkpt>
      <trkpt lat="45.55886" lon="6.60383">
        <ele>1395.4283</ele>
        <time>2020-01-27 09:22:57</time>
      </trkpt>
      <trkpt lat="45.55886" lon="6.60382">
        <ele>1396.0646</ele>
        <time>2020-01-27 09:22:58</time>
      </trkpt>
      <trkpt lat="45.55886" lon="6.6038">
        <ele>1395.8508</ele>
        <time>2020-01-27 09:22:59</time>
      </trkpt>
      <trkpt lat="45.55886" lon="6.60378">
        <ele>1398.1299</ele>
        <time>2020-01-27 09:23:01</time>
      </trkpt>
      <trkpt lat="45.55886" lon="6.60377">
        <ele>1396.7119</ele>
        <time>2020-01-27 09:23:02</time>
      </trkpt>
      <trkpt lat="45.55886" lon="6.60377">
        <ele>1398.3612</ele>
        <time>2020-01-27 09:23:03</time>
      </trkpt>
      <trkpt lat="45.55885" lon="6.60377">
        <ele>1398.8906</ele>
        <time>2020-01-27 09:23:04</time>
      </trkpt>
      <trkpt lat="45.55884" lon="6.60375">
        <ele>1399.2583</ele>
        <time>2020-01-27 09:23:06</time>
      </trkpt>
      <trkpt lat="45.55883" lon="6.60374">
        <ele>1398.0604</ele>
        <time>2020-01-27 09:23:09</time>
      </trkpt>
      <trkpt lat="45.55883" lon="6.60373">
        <ele>1397.9142</ele>
        <time>2020-01-27 09:23:10</time>
      </trkpt>
      <trkpt lat="45.55883" lon="6.60372">
        <ele>1396.9463</ele>
        <time>2020-01-27 09:23:11</time>
      </trkpt>
      <trkpt lat="45.55884" lon="6.60369">
        <ele>1397.263</ele>
        <time>2020-01-27 09:23:14</time>
      </trkpt>
      <trkpt lat="45.55884" lon="6.60368">
        <ele>1396.9402</ele>
        <time>2020-01-27 09:23:15</time>
      </trkpt>
      <trkpt lat="45.55884" lon="6.60366">
        <ele>1397.8241</ele>
        <time>2020-01-27 09:23:16</time>
      </trkpt>
      <trkpt lat="45.55885" lon="6.60365">
        <ele>1397.6613</ele>
        <time>2020-01-27 09:23:17</time>
      </trkpt>
      <trkpt lat="45.55885" lon="6.60364">
        <ele>1397.861</ele>
        <time>2020-01-27 09:23:19</time>
      </trkpt>
      <trkpt lat="45.55885" lon="6.60363">
        <ele>1398.0038</ele>
        <time>2020-01-27 09:23:20</time>
      </trkpt>
      <trkpt lat="45.55885" lon="6.60361">
        <ele>1396.8372</ele>
        <time>2020-01-27 09:23:21</time>
      </trkpt>
      <trkpt lat="45.55884" lon="6.60361">
        <ele>1395.9258</ele>
        <time>2020-01-27 09:23:23</time>
      </trkpt>
      <trkpt lat="45.55884" lon="6.60356">
        <ele>1394.2833</ele>
        <time>2020-01-27 09:23:26</time>
      </trkpt>
      <trkpt lat="45.55884" lon="6.60354">
        <ele>1394.902</ele>
        <time>2020-01-27 09:23:27</time>
      </trkpt>
      <trkpt lat="45.55883" lon="6.60352">
        <ele>1398.2299</ele>
        <time>2020-01-27 09:23:29</time>
      </trkpt>
      <trkpt lat="45.55883" lon="6.6035">
        <ele>1396.2677</ele>
        <time>2020-01-27 09:23:30</time>
      </trkpt>
      <trkpt lat="45.55883" lon="6.60347">
        <ele>1395.5092</ele>
        <time>2020-01-27 09:23:31</time>
      </trkpt>
      <trkpt lat="45.55885" lon="6.60341">
        <ele>1399.8041</ele>
        <time>2020-01-27 09:23:37</time>
      </trkpt>
      <trkpt lat="45.55884" lon="6.60341">
        <ele>1400.6292</ele>
        <time>2020-01-27 09:23:38</time>
      </trkpt>
      <trkpt lat="45.55884" lon="6.60339">
        <ele>1401.0015</ele>
        <time>2020-01-27 09:23:39</time>
      </trkpt>
      <trkpt lat="45.55884" lon="6.60339">
        <ele>1400.1969</ele>
        <time>2020-01-27 09:23:40</time>
      </trkpt>
      <trkpt lat="45.55885" lon="6.60337">
        <ele>1401.8579</ele>
        <time>2020-01-27 09:23:42</time>
      </trkpt>
      <trkpt lat="45.55885" lon="6.60335">
        <ele>1404.817</ele>
        <time>2020-01-27 09:23:44</time>
      </trkpt>
      <trkpt lat="45.55884" lon="6.60335">
        <ele>1405.5115</ele>
        <time>2020-01-27 09:23:45</time>
      </trkpt>
      <trkpt lat="45.55884" lon="6.60333">
        <ele>1407.9856</ele>
        <time>2020-01-27 09:23:46</time>
      </trkpt>
      <trkpt lat="45.55884" lon="6.60332">
        <ele>1408.1903</ele>
        <time>2020-01-27 09:23:47</time>
      </trkpt>
      <trkpt lat="45.55885" lon="6.60331">
        <ele>1409.7587</ele>
        <time>2020-01-27 09:23:48</time>
      </trkpt>
      <trkpt lat="45.55885" lon="6.60329">
        <ele>1406.043</ele>
        <time>2020-01-27 09:23:50</time>
      </trkpt>
      <trkpt lat="45.55886" lon="6.60326">
        <ele>1403.3868</ele>
        <time>2020-01-27 09:23:51</time>
      </trkpt>
      <trkpt lat="45.55887" lon="6.60324">
        <ele>1403.059</ele>
        <time>2020-01-27 09:23:52</time>
      </trkpt>
      <trkpt lat="45.55887" lon="6.60322">
        <ele>1402.5117</ele>
        <time>2020-01-27 09:23:53</time>
      </trkpt>
      <trkpt lat="45.55888" lon="6.6032">
        <ele>1403.7993</ele>
        <time>2020-01-27 09:23:54</time>
      </trkpt>
      <trkpt lat="45.55888" lon="6.60319">
        <ele>1404.3463</ele>
        <time>2020-01-27 09:23:55</time>
      </trkpt>
      <trkpt lat="45.55887" lon="6.60317">
        <ele>1405.7587</ele>
        <time>2020-01-27 09:23:57</time>
      </trkpt>
      <trkpt lat="45.55886" lon="6.60317">
        <ele>1406.8499</ele>
        <time>2020-01-27 09:23:58</time>
      </trkpt>
      <trkpt lat="45.55883" lon="6.60314">
        <ele>1409.0812</ele>
        <time>2020-01-27 09:24:01</time>
      </trkpt>
      <trkpt lat="45.55878" lon="6.60308">
        <ele>1411.2372</ele>
        <time>2020-01-27 09:24:07</time>
      </trkpt>
      <trkpt lat="45.55877" lon="6.60306">
        <ele>1409.5121</ele>
        <time>2020-01-27 09:24:08</time>
      </trkpt>
      <trkpt lat="45.55875" lon="6.60306">
        <ele>1409.1953</ele>
        <time>2020-01-27 09:24:09</time>
      </trkpt>
      <trkpt lat="45.55875" lon="6.60304">
        <ele>1407.7811</ele>
        <time>2020-01-27 09:24:10</time>
      </trkpt>
      <trkpt lat="45.55873" lon="6.60301">
        <ele>1409.4213</ele>
        <time>2020-01-27 09:24:13</time>
      </trkpt>
      <trkpt lat="45.55871" lon="6.60298">
        <ele>1411.8275</ele>
        <time>2020-01-27 09:24:15</time>
      </trkpt>
      <trkpt lat="45.55871" lon="6.60296">
        <ele>1410.54</ele>
        <time>2020-01-27 09:24:16</time>
      </trkpt>
      <trkpt lat="45.55869" lon="6.60294">
        <ele>1408.9615</ele>
        <time>2020-01-27 09:24:19</time>
      </trkpt>
      <trkpt lat="45.55868" lon="6.60292">
        <ele>1409.0918</ele>
        <time>2020-01-27 09:24:20</time>
      </trkpt>
      <trkpt lat="45.55867" lon="6.6029">
        <ele>1407.8834</ele>
        <time>2020-01-27 09:24:21</time>
      </trkpt>
      <trkpt lat="45.55866" lon="6.6029">
        <ele>1408.5641</ele>
        <time>2020-01-27 09:24:22</time>
      </trkpt>
      <trkpt lat="45.55865" lon="6.60289">
        <ele>1408.6664</ele>
        <time>2020-01-27 09:24:24</time>
      </trkpt>
      <trkpt lat="45.55862" lon="6.60286">
        <ele>1410.6338</ele>
        <time>2020-01-27 09:24:27</time>
      </trkpt>
      <trkpt lat="45.55861" lon="6.60281">
        <ele>1410.0028</ele>
        <time>2020-01-27 09:24:29</time>
      </trkpt>
      <trkpt lat="45.55861" lon="6.6028">
        <ele>1409.2999</ele>
        <time>2020-01-27 09:24:30</time>
      </trkpt>
      <trkpt lat="45.5586" lon="6.6028">
        <ele>1410.1135</ele>
        <time>2020-01-27 09:24:32</time>
      </trkpt>
      <trkpt lat="45.55859" lon="6.6028">
        <ele>1409.9065</ele>
        <time>2020-01-27 09:24:33</time>
      </trkpt>
      <trkpt lat="45.55858" lon="6.60279">
        <ele>1411.7147</ele>
        <time>2020-01-27 09:24:35</time>
      </trkpt>
      <trkpt lat="45.55858" lon="6.60279">
        <ele>1412.9386</ele>
        <time>2020-01-27 09:24:36</time>
      </trkpt>
      <trkpt lat="45.55857" lon="6.60277">
        <ele>1411.0612</ele>
        <time>2020-01-27 09:24:37</time>
      </trkpt>
      <trkpt lat="45.55856" lon="6.60276">
        <ele>1409.6686</ele>
        <time>2020-01-27 09:24:39</time>
      </trkpt>
      <trkpt lat="45.55856" lon="6.60274">
        <ele>1408.7787</ele>
        <time>2020-01-27 09:24:40</time>
      </trkpt>
      <trkpt lat="45.55854" lon="6.60274">
        <ele>1409.2816</ele>
        <time>2020-01-27 09:24:42</time>
      </trkpt>
      <trkpt lat="45.55853" lon="6.60274">
        <ele>1407.7751</ele>
        <time>2020-01-27 09:24:43</time>
      </trkpt>
      <trkpt lat="45.55849" lon="6.60269">
        <ele>1408.6315</ele>
        <time>2020-01-27 09:24:49</time>
      </trkpt>
      <trkpt lat="45.55847" lon="6.60269">
        <ele>1409.3628</ele>
        <time>2020-01-27 09:24:53</time>
      </trkpt>
      <trkpt lat="45.55846" lon="6.60268">
        <ele>1409.6517</ele>
        <time>2020-01-27 09:24:54</time>
      </trkpt>
      <trkpt lat="45.55846" lon="6.60267">
        <ele>1409.1714</ele>
        <time>2020-01-27 09:24:55</time>
      </trkpt>
      <trkpt lat="45.55847" lon="6.60266">
        <ele>1407.0792</ele>
        <time>2020-01-27 09:24:57</time>
      </trkpt>
      <trkpt lat="45.55847" lon="6.60265">
        <ele>1406.089</ele>
        <time>2020-01-27 09:24:58</time>
      </trkpt>
      <trkpt lat="45.55847" lon="6.60264">
        <ele>1409.2246</ele>
        <time>2020-01-27 09:25:00</time>
      </trkpt>
      <trkpt lat="45.55845" lon="6.60263">
        <ele>1410.3021</ele>
        <time>2020-01-27 09:25:04</time>
      </trkpt>
      <trkpt lat="45.55845" lon="6.60261">
        <ele>1410.8065</ele>
        <time>2020-01-27 09:25:06</time>
      </trkpt>
      <trkpt lat="45.55844" lon="6.6026">
        <ele>1410.6482</ele>
        <time>2020-01-27 09:25:08</time>
      </trkpt>
      <trkpt lat="45.55842" lon="6.60258">
        <ele>1407.3701</ele>
        <time>2020-01-27 09:25:11</time>
      </trkpt>
      <trkpt lat="45.55842" lon="6.60257">
        <ele>1406.9442</ele>
        <time>2020-01-27 09:25:12</time>
      </trkpt>
      <trkpt lat="45.55841" lon="6.60256">
        <ele>1406.3578</ele>
        <time>2020-01-27 09:25:13</time>
      </trkpt>
      <trkpt lat="45.55839" lon="6.60254">
        <ele>1406.6951</ele>
        <time>2020-01-27 09:25:15</time>
      </trkpt>
      <trkpt lat="45.55836" lon="6.60252">
        <ele>1407.9083</ele>
        <time>2020-01-27 09:25:18</time>
      </trkpt>
      <trkpt lat="45.55836" lon="6.6025">
        <ele>1408.5771</ele>
        <time>2020-01-27 09:25:19</time>
      </trkpt>
      <trkpt lat="45.55835" lon="6.60249">
        <ele>1406.676</ele>
        <time>2020-01-27 09:25:20</time>
      </trkpt>
      <trkpt lat="45.55836" lon="6.60248">
        <ele>1407.724</ele>
        <time>2020-01-27 09:25:21</time>
      </trkpt>
      <trkpt lat="45.55836" lon="6.60247">
        <ele>1408.6962</ele>
        <time>2020-01-27 09:25:22</time>
      </trkpt>
      <trkpt lat="45.55836" lon="6.60245">
        <ele>1410.2515</ele>
        <time>2020-01-27 09:25:24</time>
      </trkpt>
      <trkpt lat="45.55834" lon="6.60243">
        <ele>1412.0537</ele>
        <time>2020-01-27 09:25:26</time>
      </trkpt>
      <trkpt lat="45.55831" lon="6.60242">
        <ele>1412.7134</ele>
        <time>2020-01-27 09:25:29</time>
      </trkpt>
      <trkpt lat="45.55829" lon="6.60237">
        <ele>1417.1902</ele>
        <time>2020-01-27 09:25:35</time>
      </trkpt>
      <trkpt lat="45.55829" lon="6.60221">
        <ele>1422.9565</ele>
        <time>2020-01-27 09:25:45</time>
      </trkpt>
      <trkpt lat="45.55828" lon="6.60219">
        <ele>1421.6334</ele>
        <time>2020-01-27 09:25:46</time>
      </trkpt>
      <trkpt lat="45.55828" lon="6.60217">
        <ele>1420.9073</ele>
        <time>2020-01-27 09:25:48</time>
      </trkpt>
      <trkpt lat="45.55827" lon="6.60215">
        <ele>1420.6156</ele>
        <time>2020-01-27 09:25:49</time>
      </trkpt>
      <trkpt lat="45.55826" lon="6.60215">
        <ele>1420.9514</ele>
        <time>2020-01-27 09:25:50</time>
      </trkpt>
      <trkpt lat="45.55826" lon="6.60214">
        <ele>1420.3401</ele>
        <time>2020-01-27 09:25:51</time>
      </trkpt>
      <trkpt lat="45.55826" lon="6.60212">
        <ele>1419.0284</ele>
        <time>2020-01-27 09:25:52</time>
      </trkpt>
      <trkpt lat="45.55827" lon="6.60207">
        <ele>1419.5895</ele>
        <time>2020-01-27 09:25:59</time>
      </trkpt>
      <trkpt lat="45.55828" lon="6.60207">
        <ele>1420.5066</ele>
        <time>2020-01-27 09:26:00</time>
      </trkpt>
      <trkpt lat="45.55828" lon="6.60206">
        <ele>1423.2888</ele>
        <time>2020-01-27 09:26:01</time>
      </trkpt>
      <trkpt lat="45.55829" lon="6.60202">
        <ele>1423.284</ele>
        <time>2020-01-27 09:26:04</time>
      </trkpt>
      <trkpt lat="45.5583" lon="6.60202">
        <ele>1421.0841</ele>
        <time>2020-01-27 09:26:06</time>
      </trkpt>
      <trkpt lat="45.5583" lon="6.60201">
        <ele>1422.1566</ele>
        <time>2020-01-27 09:26:09</time>
      </trkpt>
      <trkpt lat="45.5583" lon="6.60198">
        <ele>1421.0193</ele>
        <time>2020-01-27 09:26:12</time>
      </trkpt>
      <trkpt lat="45.55829" lon="6.60196">
        <ele>1418.9917</ele>
        <time>2020-01-27 09:26:13</time>
      </trkpt>
      <trkpt lat="45.55827" lon="6.60196">
        <ele>1421.0458</ele>
        <time>2020-01-27 09:26:14</time>
      </trkpt>
      <trkpt lat="45.55824" lon="6.60193">
        <ele>1420.3973</ele>
        <time>2020-01-27 09:26:21</time>
      </trkpt>
      <trkpt lat="45.55824" lon="6.60192">
        <ele>1421.8087</ele>
        <time>2020-01-27 09:26:22</time>
      </trkpt>
      <trkpt lat="45.55822" lon="6.60193">
        <ele>1423.119</ele>
        <time>2020-01-27 09:26:23</time>
      </trkpt>
      <trkpt lat="45.55821" lon="6.60193">
        <ele>1424.0367</ele>
        <time>2020-01-27 09:26:24</time>
      </trkpt>
      <trkpt lat="45.55821" lon="6.60192">
        <ele>1422.2339</ele>
        <time>2020-01-27 09:26:25</time>
      </trkpt>
      <trkpt lat="45.55819" lon="6.60189">
        <ele>1422.843</ele>
        <time>2020-01-27 09:26:31</time>
      </trkpt>
      <trkpt lat="45.55819" lon="6.60189">
        <ele>1428.7246</ele>
        <time>2020-01-27 09:26:32</time>
      </trkpt>
      <trkpt lat="45.55817" lon="6.60186">
        <ele>1427.2349</ele>
        <time>2020-01-27 09:26:39</time>
      </trkpt>
      <trkpt lat="45.55818" lon="6.60184">
        <ele>1424.9535</ele>
        <time>2020-01-27 09:26:40</time>
      </trkpt>
      <trkpt lat="45.55818" lon="6.60182">
        <ele>1424.6688</ele>
        <time>2020-01-27 09:26:42</time>
      </trkpt>
      <trkpt lat="45.55818" lon="6.6018">
        <ele>1424.4371</ele>
        <time>2020-01-27 09:26:43</time>
      </trkpt>
      <trkpt lat="45.55818" lon="6.6018">
        <ele>1423.3368</ele>
        <time>2020-01-27 09:26:44</time>
      </trkpt>
      <trkpt lat="45.55818" lon="6.60178">
        <ele>1425.103</ele>
        <time>2020-01-27 09:26:45</time>
      </trkpt>
      <trkpt lat="45.55818" lon="6.60171">
        <ele>1424.3676</ele>
        <time>2020-01-27 09:26:49</time>
      </trkpt>
      <trkpt lat="45.55818" lon="6.60169">
        <ele>1424.755</ele>
        <time>2020-01-27 09:26:50</time>
      </trkpt>
      <trkpt lat="45.55818" lon="6.60165">
        <ele>1422.934</ele>
        <time>2020-01-27 09:26:55</time>
      </trkpt>
      <trkpt lat="45.55818" lon="6.60164">
        <ele>1422.6028</ele>
        <time>2020-01-27 09:26:56</time>
      </trkpt>
      <trkpt lat="45.55817" lon="6.60162">
        <ele>1422.8105</ele>
        <time>2020-01-27 09:26:59</time>
      </trkpt>
      <trkpt lat="45.55817" lon="6.60159">
        <ele>1422.5636</ele>
        <time>2020-01-27 09:27:01</time>
      </trkpt>
      <trkpt lat="45.55818" lon="6.60153">
        <ele>1423.1781</ele>
        <time>2020-01-27 09:27:03</time>
      </trkpt>
      <trkpt lat="45.55818" lon="6.6015">
        <ele>1424.0327</ele>
        <time>2020-01-27 09:27:04</time>
      </trkpt>
      <trkpt lat="45.55817" lon="6.60144">
        <ele>1427.1685</ele>
        <time>2020-01-27 09:27:07</time>
      </trkpt>
      <trkpt lat="45.55818" lon="6.60143">
        <ele>1427.4353</ele>
        <time>2020-01-27 09:27:08</time>
      </trkpt>
      <trkpt lat="45.55818" lon="6.60142">
        <ele>1427.9158</ele>
        <time>2020-01-27 09:27:09</time>
      </trkpt>
      <trkpt lat="45.55818" lon="6.6014">
        <ele>1427.8203</ele>
        <time>2020-01-27 09:27:11</time>
      </trkpt>
      <trkpt lat="45.55817" lon="6.60138">
        <ele>1427.1138</ele>
        <time>2020-01-27 09:27:12</time>
      </trkpt>
      <trkpt lat="45.55817" lon="6.60135">
        <ele>1427.8601</ele>
        <time>2020-01-27 09:27:13</time>
      </trkpt>
      <trkpt lat="45.55817" lon="6.60133">
        <ele>1428.1566</ele>
        <time>2020-01-27 09:27:14</time>
      </trkpt>
      <trkpt lat="45.55816" lon="6.60132">
        <ele>1428.0651</ele>
        <time>2020-01-27 09:27:16</time>
      </trkpt>
      <trkpt lat="45.55816" lon="6.60129">
        <ele>1431.2964</ele>
        <time>2020-01-27 09:27:19</time>
      </trkpt>
      <trkpt lat="45.55815" lon="6.60128">
        <ele>1431.378</ele>
        <time>2020-01-27 09:27:20</time>
      </trkpt>
      <trkpt lat="45.5581" lon="6.60127">
        <ele>1432.9631</ele>
        <time>2020-01-27 09:27:25</time>
      </trkpt>
      <trkpt lat="45.55808" lon="6.60127">
        <ele>1433.5502</ele>
        <time>2020-01-27 09:27:28</time>
      </trkpt>
      <trkpt lat="45.55807" lon="6.60127">
        <ele>1434.1866</ele>
        <time>2020-01-27 09:27:29</time>
      </trkpt>
      <trkpt lat="45.55806" lon="6.60126">
        <ele>1435.4142</ele>
        <time>2020-01-27 09:27:32</time>
      </trkpt>
      <trkpt lat="45.55805" lon="6.60123">
        <ele>1435.496</ele>
        <time>2020-01-27 09:27:34</time>
      </trkpt>
      <trkpt lat="45.55805" lon="6.60119">
        <ele>1435.6035</ele>
        <time>2020-01-27 09:27:39</time>
      </trkpt>
      <trkpt lat="45.55805" lon="6.60117">
        <ele>1435.3981</ele>
        <time>2020-01-27 09:27:40</time>
      </trkpt>
      <trkpt lat="45.55805" lon="6.60116">
        <ele>1434.3074</ele>
        <time>2020-01-27 09:27:41</time>
      </trkpt>
      <trkpt lat="45.55804" lon="6.60115">
        <ele>1433.3876</ele>
        <time>2020-01-27 09:27:42</time>
      </trkpt>
      <trkpt lat="45.55803" lon="6.60114">
        <ele>1432.7151</ele>
        <time>2020-01-27 09:27:43</time>
      </trkpt>
      <trkpt lat="45.55802" lon="6.60114">
        <ele>1433.4049</ele>
        <time>2020-01-27 09:27:44</time>
      </trkpt>
      <trkpt lat="45.55801" lon="6.60115">
        <ele>1433.0276</ele>
        <time>2020-01-27 09:27:45</time>
      </trkpt>
      <trkpt lat="45.55795" lon="6.60116">
        <ele>1430.3711</ele>
        <time>2020-01-27 09:27:55</time>
      </trkpt>
      <trkpt lat="45.55794" lon="6.60116">
        <ele>1430.3297</ele>
        <time>2020-01-27 09:27:56</time>
      </trkpt>
      <trkpt lat="45.55791" lon="6.60111">
        <ele>1429.0477</ele>
        <time>2020-01-27 09:28:03</time>
      </trkpt>
      <trkpt lat="45.5579" lon="6.60108">
        <ele>1424.9603</ele>
        <time>2020-01-27 09:28:04</time>
      </trkpt>
      <trkpt lat="45.55787" lon="6.60103">
        <ele>1427.4507</ele>
        <time>2020-01-27 09:28:08</time>
      </trkpt>
      <trkpt lat="45.55785" lon="6.601">
        <ele>1428.3346</ele>
        <time>2020-01-27 09:28:11</time>
      </trkpt>
      <trkpt lat="45.55782" lon="6.60096">
        <ele>1427.4683</ele>
        <time>2020-01-27 09:28:15</time>
      </trkpt>
      <trkpt lat="45.55782" lon="6.60094">
        <ele>1427.8983</ele>
        <time>2020-01-27 09:28:17</time>
      </trkpt>
      <trkpt lat="45.5578" lon="6.6009">
        <ele>1426.8973</ele>
        <time>2020-01-27 09:28:19</time>
      </trkpt>
      <trkpt lat="45.5578" lon="6.60089">
        <ele>1428.2125</ele>
        <time>2020-01-27 09:28:20</time>
      </trkpt>
      <trkpt lat="45.55779" lon="6.60088">
        <ele>1427.3599</ele>
        <time>2020-01-27 09:28:21</time>
      </trkpt>
      <trkpt lat="45.55778" lon="6.60087">
        <ele>1427.0929</ele>
        <time>2020-01-27 09:28:22</time>
      </trkpt>
      <trkpt lat="45.55778" lon="6.60087">
        <ele>1428.0118</ele>
        <time>2020-01-27 09:28:23</time>
      </trkpt>
      <trkpt lat="45.55777" lon="6.60086">
        <ele>1425.4049</ele>
        <time>2020-01-27 09:28:24</time>
      </trkpt>
      <trkpt lat="45.55777" lon="6.60085">
        <ele>1425.7656</ele>
        <time>2020-01-27 09:28:25</time>
      </trkpt>
      <trkpt lat="45.55776" lon="6.60084">
        <ele>1425.4816</ele>
        <time>2020-01-27 09:28:26</time>
      </trkpt>
      <trkpt lat="45.55774" lon="6.60081">
        <ele>1426.1062</ele>
        <time>2020-01-27 09:28:29</time>
      </trkpt>
      <trkpt lat="45.55773" lon="6.60078">
        <ele>1427.4913</ele>
        <time>2020-01-27 09:28:33</time>
      </trkpt>
      <trkpt lat="45.55773" lon="6.60077">
        <ele>1428.5862</ele>
        <time>2020-01-27 09:28:34</time>
      </trkpt>
      <trkpt lat="45.55772" lon="6.60075">
        <ele>1427.7994</ele>
        <time>2020-01-27 09:28:36</time>
      </trkpt>
      <trkpt lat="45.55772" lon="6.60074">
        <ele>1427.7806</ele>
        <time>2020-01-27 09:28:37</time>
      </trkpt>
      <trkpt lat="45.55771" lon="6.60072">
        <ele>1429.3064</ele>
        <time>2020-01-27 09:28:38</time>
      </trkpt>
      <trkpt lat="45.5577" lon="6.6007">
        <ele>1429.1797</ele>
        <time>2020-01-27 09:28:40</time>
      </trkpt>
      <trkpt lat="45.55768" lon="6.60069">
        <ele>1430.6685</ele>
        <time>2020-01-27 09:28:41</time>
      </trkpt>
      <trkpt lat="45.55766" lon="6.60068">
        <ele>1432.0521</ele>
        <time>2020-01-27 09:28:48</time>
      </trkpt>
      <trkpt lat="45.55766" lon="6.60066">
        <ele>1431.5461</ele>
        <time>2020-01-27 09:28:49</time>
      </trkpt>
      <trkpt lat="45.55766" lon="6.60063">
        <ele>1432.1433</ele>
        <time>2020-01-27 09:28:51</time>
      </trkpt>
      <trkpt lat="45.55767" lon="6.60058">
        <ele>1433.6812</ele>
        <time>2020-01-27 09:28:53</time>
      </trkpt>
      <trkpt lat="45.55766" lon="6.60056">
        <ele>1435.6069</ele>
        <time>2020-01-27 09:28:56</time>
      </trkpt>
      <trkpt lat="45.55765" lon="6.60055">
        <ele>1435.9706</ele>
        <time>2020-01-27 09:28:57</time>
      </trkpt>
      <trkpt lat="45.55766" lon="6.60054">
        <ele>1436.0529</ele>
        <time>2020-01-27 09:28:58</time>
      </trkpt>
      <trkpt lat="45.55765" lon="6.60053">
        <ele>1436.2009</ele>
        <time>2020-01-27 09:28:59</time>
      </trkpt>
      <trkpt lat="45.55764" lon="6.60053">
        <ele>1437.137</ele>
        <time>2020-01-27 09:29:01</time>
      </trkpt>
      <trkpt lat="45.55763" lon="6.60052">
        <ele>1438.0242</ele>
        <time>2020-01-27 09:29:02</time>
      </trkpt>
      <trkpt lat="45.55763" lon="6.60052">
        <ele>1438.8502</ele>
        <time>2020-01-27 09:29:03</time>
      </trkpt>
      <trkpt lat="45.55762" lon="6.60048">
        <ele>1440.2413</ele>
        <time>2020-01-27 09:29:07</time>
      </trkpt>
      <trkpt lat="45.55762" lon="6.60048">
        <ele>1440.9001</ele>
        <time>2020-01-27 09:29:08</time>
      </trkpt>
      <trkpt lat="45.55762" lon="6.60046">
        <ele>1441.4304</ele>
        <time>2020-01-27 09:29:09</time>
      </trkpt>
      <trkpt lat="45.5576" lon="6.60046">
        <ele>1441.3237</ele>
        <time>2020-01-27 09:29:10</time>
      </trkpt>
      <trkpt lat="45.55759" lon="6.60044">
        <ele>1440.7798</ele>
        <time>2020-01-27 09:29:20</time>
      </trkpt>
      <trkpt lat="45.55758" lon="6.60042">
        <ele>1439.8584</ele>
        <time>2020-01-27 09:29:21</time>
      </trkpt>
      <trkpt lat="45.55758" lon="6.6004">
        <ele>1439.2567</ele>
        <time>2020-01-27 09:29:22</time>
      </trkpt>
      <trkpt lat="45.55758" lon="6.60038">
        <ele>1440.5643</ele>
        <time>2020-01-27 09:29:26</time>
      </trkpt>
      <trkpt lat="45.55757" lon="6.60037">
        <ele>1442.0222</ele>
        <time>2020-01-27 09:29:27</time>
      </trkpt>
      <trkpt lat="45.55756" lon="6.60036">
        <ele>1442.7566</ele>
        <time>2020-01-27 09:29:28</time>
      </trkpt>
      <trkpt lat="45.55756" lon="6.60031">
        <ele>1441.6727</ele>
        <time>2020-01-27 09:29:32</time>
      </trkpt>
      <trkpt lat="45.55753" lon="6.60027">
        <ele>1440.0938</ele>
        <time>2020-01-27 09:29:35</time>
      </trkpt>
      <trkpt lat="45.55753" lon="6.60025">
        <ele>1438.9202</ele>
        <time>2020-01-27 09:29:37</time>
      </trkpt>
      <trkpt lat="45.55753" lon="6.60024">
        <ele>1443.4344</ele>
        <time>2020-01-27 09:29:38</time>
      </trkpt>
      <trkpt lat="45.55754" lon="6.60022">
        <ele>1443.3027</ele>
        <time>2020-01-27 09:29:39</time>
      </trkpt>
      <trkpt lat="45.55754" lon="6.60021">
        <ele>1442.6517</ele>
        <time>2020-01-27 09:29:40</time>
      </trkpt>
      <trkpt lat="45.55754" lon="6.6002">
        <ele>1442.7075</ele>
        <time>2020-01-27 09:29:41</time>
      </trkpt>
      <trkpt lat="45.55754" lon="6.60018">
        <ele>1445.0664</ele>
        <time>2020-01-27 09:29:43</time>
      </trkpt>
      <trkpt lat="45.55753" lon="6.60018">
        <ele>1444.4481</ele>
        <time>2020-01-27 09:29:44</time>
      </trkpt>
      <trkpt lat="45.55751" lon="6.60018">
        <ele>1445.412</ele>
        <time>2020-01-27 09:29:46</time>
      </trkpt>
      <trkpt lat="45.55751" lon="6.60017">
        <ele>1444.6489</ele>
        <time>2020-01-27 09:29:48</time>
      </trkpt>
      <trkpt lat="45.55751" lon="6.60015">
        <ele>1443.4294</ele>
        <time>2020-01-27 09:29:49</time>
      </trkpt>
      <trkpt lat="45.55751" lon="6.60014">
        <ele>1444.3944</ele>
        <time>2020-01-27 09:29:50</time>
      </trkpt>
      <trkpt lat="45.5575" lon="6.60011">
        <ele>1447.8245</ele>
        <time>2020-01-27 09:29:53</time>
      </trkpt>
      <trkpt lat="45.55749" lon="6.60009">
        <ele>1449.943</ele>
        <time>2020-01-27 09:29:57</time>
      </trkpt>
      <trkpt lat="45.55749" lon="6.60009">
        <ele>1450.9521</ele>
        <time>2020-01-27 09:29:58</time>
      </trkpt>
      <trkpt lat="45.5575" lon="6.60005">
        <ele>1450.1084</ele>
        <time>2020-01-27 09:30:10</time>
      </trkpt>
      <trkpt lat="45.5575" lon="6.60003">
        <ele>1449.8193</ele>
        <time>2020-01-27 09:30:11</time>
      </trkpt>
      <trkpt lat="45.55749" lon="6.60002">
        <ele>1450.1888</ele>
        <time>2020-01-27 09:30:12</time>
      </trkpt>
      <trkpt lat="45.55749" lon="6.59999">
        <ele>1448.909</ele>
        <time>2020-01-27 09:30:15</time>
      </trkpt>
      <trkpt lat="45.55749" lon="6.59997">
        <ele>1443.6343</ele>
        <time>2020-01-27 09:30:16</time>
      </trkpt>
      <trkpt lat="45.5575" lon="6.59994">
        <ele>1444.4722</ele>
        <time>2020-01-27 09:30:18</time>
      </trkpt>
      <trkpt lat="45.5575" lon="6.59992">
        <ele>1444.5404</ele>
        <time>2020-01-27 09:30:19</time>
      </trkpt>
      <trkpt lat="45.55749" lon="6.5999">
        <ele>1446.4435</ele>
        <time>2020-01-27 09:30:21</time>
      </trkpt>
      <trkpt lat="45.55747" lon="6.59988">
        <ele>1447.6083</ele>
        <time>2020-01-27 09:30:22</time>
      </trkpt>
      <trkpt lat="45.55746" lon="6.59986">
        <ele>1448.3296</ele>
        <time>2020-01-27 09:30:23</time>
      </trkpt>
      <trkpt lat="45.55744" lon="6.59983">
        <ele>1452.3939</ele>
        <time>2020-01-27 09:30:26</time>
      </trkpt>
      <trkpt lat="45.55744" lon="6.59982">
        <ele>1453.0547</ele>
        <time>2020-01-27 09:30:28</time>
      </trkpt>
      <trkpt lat="45.55744" lon="6.59981">
        <ele>1452.4607</ele>
        <time>2020-01-27 09:30:29</time>
      </trkpt>
      <trkpt lat="45.55744" lon="6.59978">
        <ele>1453.5704</ele>
        <time>2020-01-27 09:30:36</time>
      </trkpt>
      <trkpt lat="45.55744" lon="6.59977">
        <ele>1453.3411</ele>
        <time>2020-01-27 09:30:37</time>
      </trkpt>
      <trkpt lat="45.55743" lon="6.59976">
        <ele>1453.2642</ele>
        <time>2020-01-27 09:30:41</time>
      </trkpt>
      <trkpt lat="45.55742" lon="6.59974">
        <ele>1452.1232</ele>
        <time>2020-01-27 09:30:43</time>
      </trkpt>
      <trkpt lat="45.55742" lon="6.59973">
        <ele>1451.3102</ele>
        <time>2020-01-27 09:30:44</time>
      </trkpt>
      <trkpt lat="45.5574" lon="6.59972">
        <ele>1452.7778</ele>
        <time>2020-01-27 09:30:46</time>
      </trkpt>
      <trkpt lat="45.5574" lon="6.59971">
        <ele>1453.4556</ele>
        <time>2020-01-27 09:30:47</time>
      </trkpt>
      <trkpt lat="45.55738" lon="6.59969">
        <ele>1454.3513</ele>
        <time>2020-01-27 09:30:49</time>
      </trkpt>
      <trkpt lat="45.55737" lon="6.59967">
        <ele>1455.1873</ele>
        <time>2020-01-27 09:30:50</time>
      </trkpt>
      <trkpt lat="45.55737" lon="6.59963">
        <ele>1455.2234</ele>
        <time>2020-01-27 09:30:51</time>
      </trkpt>
      <trkpt lat="45.55735" lon="6.59961">
        <ele>1455.7391</ele>
        <time>2020-01-27 09:30:53</time>
      </trkpt>
      <trkpt lat="45.55734" lon="6.5996">
        <ele>1456.8379</ele>
        <time>2020-01-27 09:30:54</time>
      </trkpt>
      <trkpt lat="45.55733" lon="6.59959">
        <ele>1456.5394</ele>
        <time>2020-01-27 09:30:57</time>
      </trkpt>
      <trkpt lat="45.55732" lon="6.59958">
        <ele>1457.109</ele>
        <time>2020-01-27 09:30:58</time>
      </trkpt>
      <trkpt lat="45.55732" lon="6.59957">
        <ele>1457.4448</ele>
        <time>2020-01-27 09:30:59</time>
      </trkpt>
      <trkpt lat="45.5573" lon="6.59954">
        <ele>1456.3375</ele>
        <time>2020-01-27 09:31:02</time>
      </trkpt>
      <trkpt lat="45.55729" lon="6.59953">
        <ele>1458.497</ele>
        <time>2020-01-27 09:31:03</time>
      </trkpt>
      <trkpt lat="45.55728" lon="6.59953">
        <ele>1459.0115</ele>
        <time>2020-01-27 09:31:04</time>
      </trkpt>
      <trkpt lat="45.55728" lon="6.59952">
        <ele>1459.3108</ele>
        <time>2020-01-27 09:31:05</time>
      </trkpt>
      <trkpt lat="45.55727" lon="6.59951">
        <ele>1463.225</ele>
        <time>2020-01-27 09:31:06</time>
      </trkpt>
      <trkpt lat="45.55727" lon="6.59948">
        <ele>1460.0153</ele>
        <time>2020-01-27 09:31:09</time>
      </trkpt>
      <trkpt lat="45.55727" lon="6.59947">
        <ele>1460.7295</ele>
        <time>2020-01-27 09:31:11</time>
      </trkpt>
      <trkpt lat="45.55726" lon="6.59947">
        <ele>1461.4741</ele>
        <time>2020-01-27 09:31:12</time>
      </trkpt>
      <trkpt lat="45.55726" lon="6.59945">
        <ele>1459.7115</ele>
        <time>2020-01-27 09:31:18</time>
      </trkpt>
      <trkpt lat="45.55725" lon="6.59944">
        <ele>1459.905</ele>
        <time>2020-01-27 09:31:20</time>
      </trkpt>
      <trkpt lat="45.55726" lon="6.5994">
        <ele>1458.3679</ele>
        <time>2020-01-27 09:31:24</time>
      </trkpt>
      <trkpt lat="45.55726" lon="6.59938">
        <ele>1458.4899</ele>
        <time>2020-01-27 09:31:25</time>
      </trkpt>
      <trkpt lat="45.55727" lon="6.59934">
        <ele>1459.6699</ele>
        <time>2020-01-27 09:31:27</time>
      </trkpt>
      <trkpt lat="45.55728" lon="6.59927">
        <ele>1452.7346</ele>
        <time>2020-01-27 09:31:31</time>
      </trkpt>
      <trkpt lat="45.55727" lon="6.59924">
        <ele>1450.2509</ele>
        <time>2020-01-27 09:31:38</time>
      </trkpt>
      <trkpt lat="45.55727" lon="6.59923">
        <ele>1449.83</ele>
        <time>2020-01-27 09:31:39</time>
      </trkpt>
      <trkpt lat="45.55727" lon="6.59922">
        <ele>1450.4578</ele>
        <time>2020-01-27 09:31:40</time>
      </trkpt>
      <trkpt lat="45.55727" lon="6.59921">
        <ele>1452.3733</ele>
        <time>2020-01-27 09:31:41</time>
      </trkpt>
      <trkpt lat="45.55727" lon="6.59919">
        <ele>1452.8656</ele>
        <time>2020-01-27 09:31:43</time>
      </trkpt>
      <trkpt lat="45.55726" lon="6.59917">
        <ele>1452.8601</ele>
        <time>2020-01-27 09:31:44</time>
      </trkpt>
      <trkpt lat="45.55725" lon="6.59911">
        <ele>1449.5685</ele>
        <time>2020-01-27 09:31:49</time>
      </trkpt>
      <trkpt lat="45.55725" lon="6.5991">
        <ele>1446.9808</ele>
        <time>2020-01-27 09:31:50</time>
      </trkpt>
      <trkpt lat="45.55724" lon="6.59909">
        <ele>1447.4763</ele>
        <time>2020-01-27 09:31:51</time>
      </trkpt>
      <trkpt lat="45.55723" lon="6.59908">
        <ele>1450.1451</ele>
        <time>2020-01-27 09:31:53</time>
      </trkpt>
      <trkpt lat="45.5572" lon="6.59905">
        <ele>1454.1571</ele>
        <time>2020-01-27 09:31:56</time>
      </trkpt>
      <trkpt lat="45.55719" lon="6.59904">
        <ele>1453.0159</ele>
        <time>2020-01-27 09:31:58</time>
      </trkpt>
      <trkpt lat="45.55717" lon="6.59903">
        <ele>1455.6526</ele>
        <time>2020-01-27 09:32:01</time>
      </trkpt>
      <trkpt lat="45.55717" lon="6.599">
        <ele>1456.5944</ele>
        <time>2020-01-27 09:32:12</time>
      </trkpt>
      <trkpt lat="45.55717" lon="6.59899">
        <ele>1457.1117</ele>
        <time>2020-01-27 09:32:13</time>
      </trkpt>
      <trkpt lat="45.55717" lon="6.59898">
        <ele>1456.8038</ele>
        <time>2020-01-27 09:32:14</time>
      </trkpt>
      <trkpt lat="45.55718" lon="6.59895">
        <ele>1458.6044</ele>
        <time>2020-01-27 09:32:16</time>
      </trkpt>
      <trkpt lat="45.55718" lon="6.59895">
        <ele>1459.1472</ele>
        <time>2020-01-27 09:32:17</time>
      </trkpt>
      <trkpt lat="45.55718" lon="6.59894">
        <ele>1460.0273</ele>
        <time>2020-01-27 09:32:18</time>
      </trkpt>
      <trkpt lat="45.55718" lon="6.59893">
        <ele>1461.1727</ele>
        <time>2020-01-27 09:32:19</time>
      </trkpt>
      <trkpt lat="45.55718" lon="6.59892">
        <ele>1464.2687</ele>
        <time>2020-01-27 09:32:22</time>
      </trkpt>
      <trkpt lat="45.55719" lon="6.59891">
        <ele>1465.9432</ele>
        <time>2020-01-27 09:32:23</time>
      </trkpt>
      <trkpt lat="45.55719" lon="6.59891">
        <ele>1466.7504</ele>
        <time>2020-01-27 09:32:24</time>
      </trkpt>
      <trkpt lat="45.55719" lon="6.59889">
        <ele>1466.0026</ele>
        <time>2020-01-27 09:32:28</time>
      </trkpt>
      <trkpt lat="45.55719" lon="6.59888">
        <ele>1466.2855</ele>
        <time>2020-01-27 09:32:29</time>
      </trkpt>
      <trkpt lat="45.55719" lon="6.59887">
        <ele>1467.164</ele>
        <time>2020-01-27 09:32:30</time>
      </trkpt>
      <trkpt lat="45.5572" lon="6.59886">
        <ele>1468.41</ele>
        <time>2020-01-27 09:32:31</time>
      </trkpt>
      <trkpt lat="45.5572" lon="6.59885">
        <ele>1468.9271</ele>
        <time>2020-01-27 09:32:32</time>
      </trkpt>
      <trkpt lat="45.5572" lon="6.59885">
        <ele>1469.336</ele>
        <time>2020-01-27 09:32:36</time>
      </trkpt>
      <trkpt lat="45.5572" lon="6.59884">
        <ele>1469.87</ele>
        <time>2020-01-27 09:32:37</time>
      </trkpt>
      <trkpt lat="45.5572" lon="6.59884">
        <ele>1469.8087</ele>
        <time>2020-01-27 09:32:38</time>
      </trkpt>
      <trkpt lat="45.5572" lon="6.59884">
        <ele>1469.9504</ele>
        <time>2020-01-27 09:32:39</time>
      </trkpt>
      <trkpt lat="45.5572" lon="6.59884">
        <ele>1471.039</ele>
        <time>2020-01-27 09:32:40</time>
      </trkpt>
      <trkpt lat="45.55721" lon="6.59879">
        <ele>1469.621</ele>
        <time>2020-01-27 09:32:53</time>
      </trkpt>
      <trkpt lat="45.55722" lon="6.59879">
        <ele>1471.1576</ele>
        <time>2020-01-27 09:32:54</time>
      </trkpt>
      <trkpt lat="45.55723" lon="6.59876">
        <ele>1469.9044</ele>
        <time>2020-01-27 09:32:59</time>
      </trkpt>
      <trkpt lat="45.55724" lon="6.59875">
        <ele>1469.5133</ele>
        <time>2020-01-27 09:33:00</time>
      </trkpt>
      <trkpt lat="45.55724" lon="6.59872">
        <ele>1468.3839</ele>
        <time>2020-01-27 09:33:03</time>
      </trkpt>
      <trkpt lat="45.55724" lon="6.5987">
        <ele>1468.208</ele>
        <time>2020-01-27 09:33:04</time>
      </trkpt>
      <trkpt lat="45.55726" lon="6.59865">
        <ele>1468.729</ele>
        <time>2020-01-27 09:33:10</time>
      </trkpt>
      <trkpt lat="45.55727" lon="6.59861">
        <ele>1468.284</ele>
        <time>2020-01-27 09:33:13</time>
      </trkpt>
      <trkpt lat="45.55728" lon="6.59858">
        <ele>1468.6656</ele>
        <time>2020-01-27 09:33:14</time>
      </trkpt>
      <trkpt lat="45.55729" lon="6.59856">
        <ele>1469.0004</ele>
        <time>2020-01-27 09:33:16</time>
      </trkpt>
      <trkpt lat="45.55729" lon="6.59855">
        <ele>1468.9987</ele>
        <time>2020-01-27 09:33:17</time>
      </trkpt>
      <trkpt lat="45.5573" lon="6.59853">
        <ele>1470.151</ele>
        <time>2020-01-27 09:33:20</time>
      </trkpt>
      <trkpt lat="45.5573" lon="6.59852">
        <ele>1468.8617</ele>
        <time>2020-01-27 09:33:21</time>
      </trkpt>
      <trkpt lat="45.5573" lon="6.59846">
        <ele>1474.3448</ele>
        <time>2020-01-27 09:33:35</time>
      </trkpt>
      <trkpt lat="45.55732" lon="6.59842">
        <ele>1478.5697</ele>
        <time>2020-01-27 09:33:37</time>
      </trkpt>
      <trkpt lat="45.55733" lon="6.59838">
        <ele>1480.3726</ele>
        <time>2020-01-27 09:33:39</time>
      </trkpt>
      <trkpt lat="45.55735" lon="6.59832">
        <ele>1477.9897</ele>
        <time>2020-01-27 09:33:43</time>
      </trkpt>
      <trkpt lat="45.55735" lon="6.5983">
        <ele>1476.8806</ele>
        <time>2020-01-27 09:33:46</time>
      </trkpt>
      <trkpt lat="45.55734" lon="6.5983">
        <ele>1478.6367</ele>
        <time>2020-01-27 09:33:47</time>
      </trkpt>
      <trkpt lat="45.55734" lon="6.5983">
        <ele>1475.381</ele>
        <time>2020-01-27 09:34:18</time>
      </trkpt>
      <trkpt lat="45.55734" lon="6.59827">
        <ele>1475.8906</ele>
        <time>2020-01-27 09:34:36</time>
      </trkpt>
      <trkpt lat="45.55735" lon="6.59824">
        <ele>1473.8848</ele>
        <time>2020-01-27 09:34:37</time>
      </trkpt>
      <trkpt lat="45.55737" lon="6.59817">
        <ele>1477.6599</ele>
        <time>2020-01-27 09:34:44</time>
      </trkpt>
      <trkpt lat="45.55737" lon="6.59816">
        <ele>1476.6277</ele>
        <time>2020-01-27 09:34:45</time>
      </trkpt>
      <trkpt lat="45.55736" lon="6.59815">
        <ele>1474.4983</ele>
        <time>2020-01-27 09:34:46</time>
      </trkpt>
      <trkpt lat="45.55736" lon="6.59814">
        <ele>1475.5809</ele>
        <time>2020-01-27 09:34:47</time>
      </trkpt>
      <trkpt lat="45.55736" lon="6.59812">
        <ele>1474.6605</ele>
        <time>2020-01-27 09:34:48</time>
      </trkpt>
      <trkpt lat="45.55736" lon="6.59812">
        <ele>1474.1072</ele>
        <time>2020-01-27 09:34:49</time>
      </trkpt>
      <trkpt lat="45.55738" lon="6.59805">
        <ele>1475.0562</ele>
        <time>2020-01-27 09:34:52</time>
      </trkpt>
      <trkpt lat="45.55738" lon="6.59803">
        <ele>1474.5176</ele>
        <time>2020-01-27 09:34:53</time>
      </trkpt>
      <trkpt lat="45.55738" lon="6.598">
        <ele>1473.3802</ele>
        <time>2020-01-27 09:34:56</time>
      </trkpt>
      <trkpt lat="45.55738" lon="6.59799">
        <ele>1473.3237</ele>
        <time>2020-01-27 09:34:57</time>
      </trkpt>
      <trkpt lat="45.55739" lon="6.59797">
        <ele>1473.7502</ele>
        <time>2020-01-27 09:34:58</time>
      </trkpt>
      <trkpt lat="45.55741" lon="6.59789">
        <ele>1475.6436</ele>
        <time>2020-01-27 09:35:02</time>
      </trkpt>
      <trkpt lat="45.55742" lon="6.59783">
        <ele>1476.907</ele>
        <time>2020-01-27 09:35:06</time>
      </trkpt>
      <trkpt lat="45.55742" lon="6.59783">
        <ele>1476.8938</ele>
        <time>2020-01-27 09:35:07</time>
      </trkpt>
      <trkpt lat="45.55742" lon="6.59781">
        <ele>1479.098</ele>
        <time>2020-01-27 09:35:09</time>
      </trkpt>
      <trkpt lat="45.55743" lon="6.5978">
        <ele>1480.8041</ele>
        <time>2020-01-27 09:35:13</time>
      </trkpt>
      <trkpt lat="45.55744" lon="6.59778">
        <ele>1480.3474</ele>
        <time>2020-01-27 09:35:14</time>
      </trkpt>
      <trkpt lat="45.55744" lon="6.59776">
        <ele>1481.2494</ele>
        <time>2020-01-27 09:35:16</time>
      </trkpt>
      <trkpt lat="45.55745" lon="6.59774">
        <ele>1483.7238</ele>
        <time>2020-01-27 09:35:23</time>
      </trkpt>
      <trkpt lat="45.55744" lon="6.59773">
        <ele>1480.9558</ele>
        <time>2020-01-27 09:35:25</time>
      </trkpt>
      <trkpt lat="45.55744" lon="6.59766">
        <ele>1483.5857</ele>
        <time>2020-01-27 09:35:38</time>
      </trkpt>
      <trkpt lat="45.55744" lon="6.59765">
        <ele>1482.4772</ele>
        <time>2020-01-27 09:35:39</time>
      </trkpt>
      <trkpt lat="45.55743" lon="6.59764">
        <ele>1481.9448</ele>
        <time>2020-01-27 09:35:40</time>
      </trkpt>
      <trkpt lat="45.55743" lon="6.59762">
        <ele>1482.7164</ele>
        <time>2020-01-27 09:35:41</time>
      </trkpt>
      <trkpt lat="45.55743" lon="6.5976">
        <ele>1482.2521</ele>
        <time>2020-01-27 09:35:42</time>
      </trkpt>
      <trkpt lat="45.55743" lon="6.59758">
        <ele>1482.611</ele>
        <time>2020-01-27 09:35:43</time>
      </trkpt>
      <trkpt lat="45.5574" lon="6.59752">
        <ele>1483.6453</ele>
        <time>2020-01-27 09:36:04</time>
      </trkpt>
      <trkpt lat="45.5574" lon="6.59751">
        <ele>1480.6753</ele>
        <time>2020-01-27 09:36:05</time>
      </trkpt>
      <trkpt lat="45.55739" lon="6.59746">
        <ele>1480.158</ele>
        <time>2020-01-27 09:36:07</time>
      </trkpt>
      <trkpt lat="45.55739" lon="6.59741">
        <ele>1480.2781</ele>
        <time>2020-01-27 09:36:12</time>
      </trkpt>
      <trkpt lat="45.55739" lon="6.5974">
        <ele>1482.1863</ele>
        <time>2020-01-27 09:36:13</time>
      </trkpt>
      <trkpt lat="45.5574" lon="6.59739">
        <ele>1481.8219</ele>
        <time>2020-01-27 09:36:14</time>
      </trkpt>
      <trkpt lat="45.5574" lon="6.59737">
        <ele>1484.9924</ele>
        <time>2020-01-27 09:36:20</time>
      </trkpt>
      <trkpt lat="45.5574" lon="6.59738">
        <ele>1483.3123</ele>
        <time>2020-01-27 09:36:22</time>
      </trkpt>
      <trkpt lat="45.55739" lon="6.59737">
        <ele>1485.3685</ele>
        <time>2020-01-27 09:36:23</time>
      </trkpt>
      <trkpt lat="45.55739" lon="6.59737">
        <ele>1485.9127</ele>
        <time>2020-01-27 09:36:24</time>
      </trkpt>
      <trkpt lat="45.55739" lon="6.59736">
        <ele>1487.5371</ele>
        <time>2020-01-27 09:36:25</time>
      </trkpt>
      <trkpt lat="45.55739" lon="6.59733">
        <ele>1487.1442</ele>
        <time>2020-01-27 09:36:27</time>
      </trkpt>
      <trkpt lat="45.5574" lon="6.59731">
        <ele>1491.1171</ele>
        <time>2020-01-27 09:36:30</time>
      </trkpt>
      <trkpt lat="45.5574" lon="6.5973">
        <ele>1490.7681</ele>
        <time>2020-01-27 09:36:31</time>
      </trkpt>
      <trkpt lat="45.5574" lon="6.59729">
        <ele>1490.6848</ele>
        <time>2020-01-27 09:36:32</time>
      </trkpt>
      <trkpt lat="45.5574" lon="6.59727">
        <ele>1491.559</ele>
        <time>2020-01-27 09:36:33</time>
      </trkpt>
      <trkpt lat="45.5574" lon="6.59725">
        <ele>1493.1239</ele>
        <time>2020-01-27 09:36:34</time>
      </trkpt>
      <trkpt lat="45.55742" lon="6.59724">
        <ele>1493.1047</ele>
        <time>2020-01-27 09:36:35</time>
      </trkpt>
      <trkpt lat="45.55743" lon="6.59722">
        <ele>1494.5106</ele>
        <time>2020-01-27 09:36:37</time>
      </trkpt>
      <trkpt lat="45.55743" lon="6.5972">
        <ele>1494.1298</ele>
        <time>2020-01-27 09:36:38</time>
      </trkpt>
      <trkpt lat="45.55744" lon="6.5972">
        <ele>1492.0688</ele>
        <time>2020-01-27 09:36:39</time>
      </trkpt>
      <trkpt lat="45.55746" lon="6.59715">
        <ele>1492.0651</ele>
        <time>2020-01-27 09:36:43</time>
      </trkpt>
      <trkpt lat="45.55746" lon="6.59714">
        <ele>1492.8662</ele>
        <time>2020-01-27 09:36:44</time>
      </trkpt>
      <trkpt lat="45.55746" lon="6.59712">
        <ele>1492.403</ele>
        <time>2020-01-27 09:36:45</time>
      </trkpt>
      <trkpt lat="45.55747" lon="6.59707">
        <ele>1496.3383</ele>
        <time>2020-01-27 09:36:58</time>
      </trkpt>
      <trkpt lat="45.55747" lon="6.59706">
        <ele>1496.5367</ele>
        <time>2020-01-27 09:36:59</time>
      </trkpt>
      <trkpt lat="45.55747" lon="6.59704">
        <ele>1497.1477</ele>
        <time>2020-01-27 09:37:00</time>
      </trkpt>
      <trkpt lat="45.55746" lon="6.59703">
        <ele>1497.7466</ele>
        <time>2020-01-27 09:37:01</time>
      </trkpt>
      <trkpt lat="45.55745" lon="6.59701">
        <ele>1496.0476</ele>
        <time>2020-01-27 09:37:03</time>
      </trkpt>
      <trkpt lat="45.55745" lon="6.597">
        <ele>1496.5817</ele>
        <time>2020-01-27 09:37:04</time>
      </trkpt>
      <trkpt lat="45.55744" lon="6.59699">
        <ele>1496.7676</ele>
        <time>2020-01-27 09:37:06</time>
      </trkpt>
      <trkpt lat="45.55744" lon="6.59698">
        <ele>1496.638</ele>
        <time>2020-01-27 09:37:07</time>
      </trkpt>
      <trkpt lat="45.55743" lon="6.59697">
        <ele>1494.2532</ele>
        <time>2020-01-27 09:37:09</time>
      </trkpt>
      <trkpt lat="45.55743" lon="6.59696">
        <ele>1494.205</ele>
        <time>2020-01-27 09:37:10</time>
      </trkpt>
      <trkpt lat="45.55742" lon="6.59695">
        <ele>1494.202</ele>
        <time>2020-01-27 09:37:11</time>
      </trkpt>
      <trkpt lat="45.55741" lon="6.59694">
        <ele>1493.2805</ele>
        <time>2020-01-27 09:37:12</time>
      </trkpt>
      <trkpt lat="45.55739" lon="6.59692">
        <ele>1494.0334</ele>
        <time>2020-01-27 09:37:14</time>
      </trkpt>
      <trkpt lat="45.5574" lon="6.59689">
        <ele>1493.7566</ele>
        <time>2020-01-27 09:37:15</time>
      </trkpt>
      <trkpt lat="45.5574" lon="6.59686">
        <ele>1495.156</ele>
        <time>2020-01-27 09:37:19</time>
      </trkpt>
      <trkpt lat="45.5574" lon="6.59686">
        <ele>1494.787</ele>
        <time>2020-01-27 09:37:20</time>
      </trkpt>
      <trkpt lat="45.55741" lon="6.59684">
        <ele>1497.6096</ele>
        <time>2020-01-27 09:37:26</time>
      </trkpt>
      <trkpt lat="45.55741" lon="6.59683">
        <ele>1498.2478</ele>
        <time>2020-01-27 09:37:27</time>
      </trkpt>
      <trkpt lat="45.5574" lon="6.59681">
        <ele>1499.3945</ele>
        <time>2020-01-27 09:37:28</time>
      </trkpt>
      <trkpt lat="45.5574" lon="6.5968">
        <ele>1500.8105</ele>
        <time>2020-01-27 09:37:30</time>
      </trkpt>
      <trkpt lat="45.55741" lon="6.59679">
        <ele>1500.2831</ele>
        <time>2020-01-27 09:37:31</time>
      </trkpt>
      <trkpt lat="45.55742" lon="6.59676">
        <ele>1500.8934</ele>
        <time>2020-01-27 09:37:32</time>
      </trkpt>
      <trkpt lat="45.55742" lon="6.59673">
        <ele>1503.7697</ele>
        <time>2020-01-27 09:37:35</time>
      </trkpt>
      <trkpt lat="45.55742" lon="6.59672">
        <ele>1504.2354</ele>
        <time>2020-01-27 09:37:36</time>
      </trkpt>
      <trkpt lat="45.55741" lon="6.59669">
        <ele>1503.454</ele>
        <time>2020-01-27 09:38:06</time>
      </trkpt>
      <trkpt lat="45.5574" lon="6.59669">
        <ele>1502.2158</ele>
        <time>2020-01-27 09:38:09</time>
      </trkpt>
      <trkpt lat="45.5574" lon="6.59668">
        <ele>1500.7902</ele>
        <time>2020-01-27 09:38:10</time>
      </trkpt>
      <trkpt lat="45.5574" lon="6.59665">
        <ele>1503.8934</ele>
        <time>2020-01-27 09:38:23</time>
      </trkpt>
      <trkpt lat="45.5574" lon="6.59665">
        <ele>1503.0531</ele>
        <time>2020-01-27 09:38:24</time>
      </trkpt>
      <trkpt lat="45.55739" lon="6.59666">
        <ele>1501.9053</ele>
        <time>2020-01-27 09:38:55</time>
      </trkpt>
      <trkpt lat="45.55739" lon="6.59665">
        <ele>1500.7426</ele>
        <time>2020-01-27 09:39:03</time>
      </trkpt>
      <trkpt lat="45.55739" lon="6.59663">
        <ele>1499.5587</ele>
        <time>2020-01-27 09:39:04</time>
      </trkpt>
      <trkpt lat="45.55739" lon="6.59661">
        <ele>1498.6035</ele>
        <time>2020-01-27 09:39:06</time>
      </trkpt>
      <trkpt lat="45.55739" lon="6.59659">
        <ele>1497.7401</ele>
        <time>2020-01-27 09:39:07</time>
      </trkpt>
      <trkpt lat="45.55738" lon="6.59658">
        <ele>1495.886</ele>
        <time>2020-01-27 09:39:09</time>
      </trkpt>
      <trkpt lat="45.55738" lon="6.59657">
        <ele>1497.626</ele>
        <time>2020-01-27 09:39:10</time>
      </trkpt>
      <trkpt lat="45.55737" lon="6.59657">
        <ele>1497.7117</ele>
        <time>2020-01-27 09:39:13</time>
      </trkpt>
      <trkpt lat="45.55736" lon="6.59656">
        <ele>1497.4203</ele>
        <time>2020-01-27 09:39:15</time>
      </trkpt>
      <trkpt lat="45.55735" lon="6.59653">
        <ele>1499.3175</ele>
        <time>2020-01-27 09:40:06</time>
      </trkpt>
      <trkpt lat="45.55735" lon="6.59653">
        <ele>1500.272</ele>
        <time>2020-01-27 09:40:13</time>
      </trkpt>
      <trkpt lat="45.55735" lon="6.59653">
        <ele>1499.2905</ele>
        <time>2020-01-27 09:40:14</time>
      </trkpt>
      <trkpt lat="45.55736" lon="6.59653">
        <ele>1497.5619</ele>
        <time>2020-01-27 09:40:19</time>
      </trkpt>
      <trkpt lat="45.55736" lon="6.59653">
        <ele>1496.0256</ele>
        <time>2020-01-27 09:40:20</time>
      </trkpt>
      <trkpt lat="45.55738" lon="6.59651">
        <ele>1499.6061</ele>
        <time>2020-01-27 09:40:22</time>
      </trkpt>
      <trkpt lat="45.55741" lon="6.59649">
        <ele>1501.902</ele>
        <time>2020-01-27 09:40:25</time>
      </trkpt>
      <trkpt lat="45.55742" lon="6.59648">
        <ele>1502.3606</ele>
        <time>2020-01-27 09:40:26</time>
      </trkpt>
      <trkpt lat="45.55743" lon="6.59647">
        <ele>1504.2505</ele>
        <time>2020-01-27 09:40:30</time>
      </trkpt>
      <trkpt lat="45.55743" lon="6.59646">
        <ele>1502.6411</ele>
        <time>2020-01-27 09:40:31</time>
      </trkpt>
      <trkpt lat="45.55743" lon="6.59638">
        <ele>1501.7909</ele>
        <time>2020-01-27 09:40:37</time>
      </trkpt>
      <trkpt lat="45.55743" lon="6.59637">
        <ele>1502.1998</ele>
        <time>2020-01-27 09:40:40</time>
      </trkpt>
      <trkpt lat="45.55743" lon="6.59635">
        <ele>1501.1378</ele>
        <time>2020-01-27 09:40:41</time>
      </trkpt>
      <trkpt lat="45.55743" lon="6.59631">
        <ele>1501.9551</ele>
        <time>2020-01-27 09:40:44</time>
      </trkpt>
      <trkpt lat="45.55743" lon="6.59629">
        <ele>1502.4257</ele>
        <time>2020-01-27 09:40:46</time>
      </trkpt>
      <trkpt lat="45.55744" lon="6.59628">
        <ele>1502.5616</ele>
        <time>2020-01-27 09:40:47</time>
      </trkpt>
      <trkpt lat="45.55744" lon="6.59626">
        <ele>1503.3744</ele>
        <time>2020-01-27 09:40:50</time>
      </trkpt>
      <trkpt lat="45.55744" lon="6.59624">
        <ele>1505.4784</ele>
        <time>2020-01-27 09:40:51</time>
      </trkpt>
      <trkpt lat="45.55744" lon="6.59622">
        <ele>1505.0736</ele>
        <time>2020-01-27 09:40:54</time>
      </trkpt>
      <trkpt lat="45.55746" lon="6.59614">
        <ele>1504.9075</ele>
        <time>2020-01-27 09:40:57</time>
      </trkpt>
      <trkpt lat="45.55747" lon="6.5961">
        <ele>1505.1809</ele>
        <time>2020-01-27 09:40:59</time>
      </trkpt>
      <trkpt lat="45.55747" lon="6.59608">
        <ele>1505.502</ele>
        <time>2020-01-27 09:41:01</time>
      </trkpt>
      <trkpt lat="45.55747" lon="6.59607">
        <ele>1505.7483</ele>
        <time>2020-01-27 09:41:02</time>
      </trkpt>
      <trkpt lat="45.55747" lon="6.59607">
        <ele>1503.9844</ele>
        <time>2020-01-27 09:41:03</time>
      </trkpt>
      <trkpt lat="45.55747" lon="6.59606">
        <ele>1504.2501</ele>
        <time>2020-01-27 09:41:04</time>
      </trkpt>
      <trkpt lat="45.55747" lon="6.59604">
        <ele>1505.3457</ele>
        <time>2020-01-27 09:41:07</time>
      </trkpt>
      <trkpt lat="45.55747" lon="6.59602">
        <ele>1504.8649</ele>
        <time>2020-01-27 09:41:08</time>
      </trkpt>
      <trkpt lat="45.55747" lon="6.596">
        <ele>1503.6316</ele>
        <time>2020-01-27 09:41:10</time>
      </trkpt>
      <trkpt lat="45.55748" lon="6.59597">
        <ele>1502.7437</ele>
        <time>2020-01-27 09:41:12</time>
      </trkpt>
      <trkpt lat="45.55748" lon="6.59596">
        <ele>1502.9553</ele>
        <time>2020-01-27 09:41:13</time>
      </trkpt>
      <trkpt lat="45.55749" lon="6.59594">
        <ele>1499.7477</ele>
        <time>2020-01-27 09:41:14</time>
      </trkpt>
      <trkpt lat="45.5575" lon="6.59592">
        <ele>1499.6755</ele>
        <time>2020-01-27 09:41:16</time>
      </trkpt>
      <trkpt lat="45.5575" lon="6.59591">
        <ele>1499.215</ele>
        <time>2020-01-27 09:41:22</time>
      </trkpt>
      <trkpt lat="45.5575" lon="6.5959">
        <ele>1498.431</ele>
        <time>2020-01-27 09:41:23</time>
      </trkpt>
      <trkpt lat="45.5575" lon="6.59586">
        <ele>1500.0359</ele>
        <time>2020-01-27 09:41:38</time>
      </trkpt>
      <trkpt lat="45.55751" lon="6.59584">
        <ele>1501.5935</ele>
        <time>2020-01-27 09:41:39</time>
      </trkpt>
      <trkpt lat="45.55754" lon="6.59574">
        <ele>1501.9095</ele>
        <time>2020-01-27 09:41:44</time>
      </trkpt>
      <trkpt lat="45.55755" lon="6.59572">
        <ele>1500.9243</ele>
        <time>2020-01-27 09:41:47</time>
      </trkpt>
      <trkpt lat="45.55755" lon="6.59571">
        <ele>1500.5505</ele>
        <time>2020-01-27 09:41:48</time>
      </trkpt>
      <trkpt lat="45.55756" lon="6.59569">
        <ele>1500.2726</ele>
        <time>2020-01-27 09:41:55</time>
      </trkpt>
      <trkpt lat="45.55756" lon="6.59567">
        <ele>1499.1569</ele>
        <time>2020-01-27 09:41:56</time>
      </trkpt>
      <trkpt lat="45.55757" lon="6.59561">
        <ele>1502.5209</ele>
        <time>2020-01-27 09:42:04</time>
      </trkpt>
      <trkpt lat="45.55757" lon="6.59559">
        <ele>1502.8073</ele>
        <time>2020-01-27 09:42:05</time>
      </trkpt>
      <trkpt lat="45.55759" lon="6.59554">
        <ele>1504.1073</ele>
        <time>2020-01-27 09:42:08</time>
      </trkpt>
      <trkpt lat="45.55758" lon="6.59554">
        <ele>1502.5635</ele>
        <time>2020-01-27 09:42:09</time>
      </trkpt>
      <trkpt lat="45.55758" lon="6.59551">
        <ele>1503.5656</ele>
        <time>2020-01-27 09:42:41</time>
      </trkpt>
      <trkpt lat="45.55758" lon="6.59551">
        <ele>1504.7426</ele>
        <time>2020-01-27 09:42:47</time>
      </trkpt>
      <trkpt lat="45.55758" lon="6.5955">
        <ele>1507.343</ele>
        <time>2020-01-27 09:42:48</time>
      </trkpt>
      <trkpt lat="45.55758" lon="6.59549">
        <ele>1506.0724</ele>
        <time>2020-01-27 09:42:49</time>
      </trkpt>
      <trkpt lat="45.55757" lon="6.59549">
        <ele>1505.0121</ele>
        <time>2020-01-27 09:42:50</time>
      </trkpt>
      <trkpt lat="45.55757" lon="6.59544">
        <ele>1509.7751</ele>
        <time>2020-01-27 09:43:07</time>
      </trkpt>
      <trkpt lat="45.55757" lon="6.59542">
        <ele>1509.018</ele>
        <time>2020-01-27 09:43:09</time>
      </trkpt>
      <trkpt lat="45.55756" lon="6.59542">
        <ele>1509.3442</ele>
        <time>2020-01-27 09:43:10</time>
      </trkpt>
      <trkpt lat="45.55756" lon="6.59541">
        <ele>1511.0044</ele>
        <time>2020-01-27 09:43:11</time>
      </trkpt>
      <trkpt lat="45.55756" lon="6.5954">
        <ele>1512.9852</ele>
        <time>2020-01-27 09:43:12</time>
      </trkpt>
      <trkpt lat="45.55757" lon="6.59538">
        <ele>1512.1691</ele>
        <time>2020-01-27 09:43:13</time>
      </trkpt>
      <trkpt lat="45.55758" lon="6.59536">
        <ele>1514.8035</ele>
        <time>2020-01-27 09:43:14</time>
      </trkpt>
      <trkpt lat="45.5576" lon="6.5953">
        <ele>1510.9238</ele>
        <time>2020-01-27 09:43:16</time>
      </trkpt>
      <trkpt lat="45.55761" lon="6.59528">
        <ele>1510.8646</ele>
        <time>2020-01-27 09:43:17</time>
      </trkpt>
      <trkpt lat="45.55763" lon="6.59525">
        <ele>1508.8467</ele>
        <time>2020-01-27 09:43:18</time>
      </trkpt>
      <trkpt lat="45.55764" lon="6.5952">
        <ele>1509.1968</ele>
        <time>2020-01-27 09:43:24</time>
      </trkpt>
      <trkpt lat="45.55763" lon="6.59519">
        <ele>1509.7191</ele>
        <time>2020-01-27 09:43:25</time>
      </trkpt>
      <trkpt lat="45.55764" lon="6.59518">
        <ele>1511.3732</ele>
        <time>2020-01-27 09:43:26</time>
      </trkpt>
      <trkpt lat="45.55766" lon="6.59515">
        <ele>1516.84</ele>
        <time>2020-01-27 09:43:37</time>
      </trkpt>
      <trkpt lat="45.55767" lon="6.59514">
        <ele>1518.7079</ele>
        <time>2020-01-27 09:43:38</time>
      </trkpt>
      <trkpt lat="45.55768" lon="6.59506">
        <ele>1520.733</ele>
        <time>2020-01-27 09:44:03</time>
      </trkpt>
      <trkpt lat="45.55767" lon="6.59505">
        <ele>1519.6138</ele>
        <time>2020-01-27 09:44:05</time>
      </trkpt>
      <trkpt lat="45.55769" lon="6.59495">
        <ele>1523.9581</ele>
        <time>2020-01-27 09:44:21</time>
      </trkpt>
      <trkpt lat="45.5577" lon="6.59494">
        <ele>1525.0695</ele>
        <time>2020-01-27 09:44:22</time>
      </trkpt>
      <trkpt lat="45.55768" lon="6.59493">
        <ele>1525.7898</ele>
        <time>2020-01-27 09:44:53</time>
      </trkpt>
      <trkpt lat="45.55767" lon="6.59492">
        <ele>1525.0099</ele>
        <time>2020-01-27 09:44:54</time>
      </trkpt>
      <trkpt lat="45.55769" lon="6.59487">
        <ele>1521.8547</ele>
        <time>2020-01-27 09:44:56</time>
      </trkpt>
      <trkpt lat="45.55769" lon="6.59485">
        <ele>1521.5955</ele>
        <time>2020-01-27 09:44:57</time>
      </trkpt>
      <trkpt lat="45.5577" lon="6.59483">
        <ele>1519.512</ele>
        <time>2020-01-27 09:44:58</time>
      </trkpt>
      <trkpt lat="45.5577" lon="6.59477">
        <ele>1520.1161</ele>
        <time>2020-01-27 09:45:04</time>
      </trkpt>
      <trkpt lat="45.5577" lon="6.59474">
        <ele>1520.3469</ele>
        <time>2020-01-27 09:45:06</time>
      </trkpt>
      <trkpt lat="45.55771" lon="6.59469">
        <ele>1523.2129</ele>
        <time>2020-01-27 09:45:08</time>
      </trkpt>
      <trkpt lat="45.55771" lon="6.59467">
        <ele>1523.4056</ele>
        <time>2020-01-27 09:45:09</time>
      </trkpt>
      <trkpt lat="45.55771" lon="6.59461">
        <ele>1523.6969</ele>
        <time>2020-01-27 09:45:11</time>
      </trkpt>
      <trkpt lat="45.55771" lon="6.5946">
        <ele>1524.2418</ele>
        <time>2020-01-27 09:45:12</time>
      </trkpt>
      <trkpt lat="45.55772" lon="6.59457">
        <ele>1524.6515</ele>
        <time>2020-01-27 09:45:13</time>
      </trkpt>
      <trkpt lat="45.55773" lon="6.59455">
        <ele>1524.3679</ele>
        <time>2020-01-27 09:45:14</time>
      </trkpt>
      <trkpt lat="45.55775" lon="6.59449">
        <ele>1527.8484</ele>
        <time>2020-01-27 09:45:18</time>
      </trkpt>
      <trkpt lat="45.55776" lon="6.59446">
        <ele>1527.8386</ele>
        <time>2020-01-27 09:45:20</time>
      </trkpt>
      <trkpt lat="45.55775" lon="6.59443">
        <ele>1525.4786</ele>
        <time>2020-01-27 09:45:23</time>
      </trkpt>
      <trkpt lat="45.55775" lon="6.59443">
        <ele>1524.2606</ele>
        <time>2020-01-27 09:45:24</time>
      </trkpt>
      <trkpt lat="45.55775" lon="6.59441">
        <ele>1527.4194</ele>
        <time>2020-01-27 09:45:34</time>
      </trkpt>
      <trkpt lat="45.55774" lon="6.5944">
        <ele>1526.1199</ele>
        <time>2020-01-27 09:45:35</time>
      </trkpt>
      <trkpt lat="45.55774" lon="6.59439">
        <ele>1525.0876</ele>
        <time>2020-01-27 09:45:36</time>
      </trkpt>
      <trkpt lat="45.55774" lon="6.59438">
        <ele>1525.7263</ele>
        <time>2020-01-27 09:45:37</time>
      </trkpt>
      <trkpt lat="45.55776" lon="6.59437">
        <ele>1528.7023</ele>
        <time>2020-01-27 09:46:04</time>
      </trkpt>
      <trkpt lat="45.55776" lon="6.59436">
        <ele>1530.2595</ele>
        <time>2020-01-27 09:46:05</time>
      </trkpt>
      <trkpt lat="45.55777" lon="6.5943">
        <ele>1531.5856</ele>
        <time>2020-01-27 09:46:14</time>
      </trkpt>
      <trkpt lat="45.55776" lon="6.59428">
        <ele>1530.557</ele>
        <time>2020-01-27 09:46:15</time>
      </trkpt>
      <trkpt lat="45.55776" lon="6.59427">
        <ele>1530.4567</ele>
        <time>2020-01-27 09:46:16</time>
      </trkpt>
      <trkpt lat="45.55776" lon="6.59426">
        <ele>1528.5785</ele>
        <time>2020-01-27 09:46:17</time>
      </trkpt>
      <trkpt lat="45.55777" lon="6.59423">
        <ele>1528.3401</ele>
        <time>2020-01-27 09:46:21</time>
      </trkpt>
      <trkpt lat="45.55778" lon="6.59422">
        <ele>1529.852</ele>
        <time>2020-01-27 09:46:22</time>
      </trkpt>
      <trkpt lat="45.55779" lon="6.59421">
        <ele>1531.027</ele>
        <time>2020-01-27 09:46:23</time>
      </trkpt>
      <trkpt lat="45.55779" lon="6.5942">
        <ele>1531.7325</ele>
        <time>2020-01-27 09:46:24</time>
      </trkpt>
      <trkpt lat="45.5578" lon="6.5942">
        <ele>1531.5905</ele>
        <time>2020-01-27 09:46:25</time>
      </trkpt>
      <trkpt lat="45.55781" lon="6.5942">
        <ele>1531.2704</ele>
        <time>2020-01-27 09:46:27</time>
      </trkpt>
      <trkpt lat="45.55781" lon="6.5942">
        <ele>1528.7488</ele>
        <time>2020-01-27 09:46:28</time>
      </trkpt>
      <trkpt lat="45.55783" lon="6.59417">
        <ele>1530.0542</ele>
        <time>2020-01-27 09:46:35</time>
      </trkpt>
      <trkpt lat="45.55783" lon="6.59416">
        <ele>1530.6582</ele>
        <time>2020-01-27 09:46:36</time>
      </trkpt>
      <trkpt lat="45.55783" lon="6.59415">
        <ele>1530.4294</ele>
        <time>2020-01-27 09:46:37</time>
      </trkpt>
      <trkpt lat="45.55783" lon="6.59413">
        <ele>1534.1489</ele>
        <time>2020-01-27 09:46:39</time>
      </trkpt>
      <trkpt lat="45.55784" lon="6.59412">
        <ele>1534.8085</ele>
        <time>2020-01-27 09:46:40</time>
      </trkpt>
      <trkpt lat="45.55786" lon="6.59409">
        <ele>1536.4487</ele>
        <time>2020-01-27 09:46:46</time>
      </trkpt>
      <trkpt lat="45.55787" lon="6.59409">
        <ele>1537.597</ele>
        <time>2020-01-27 09:46:47</time>
      </trkpt>
      <trkpt lat="45.55787" lon="6.59408">
        <ele>1536.0986</ele>
        <time>2020-01-27 09:46:48</time>
      </trkpt>
      <trkpt lat="45.55787" lon="6.59407">
        <ele>1535.2078</ele>
        <time>2020-01-27 09:46:49</time>
      </trkpt>
      <trkpt lat="45.55785" lon="6.59405">
        <ele>1537.1803</ele>
        <time>2020-01-27 09:46:57</time>
      </trkpt>
      <trkpt lat="45.55786" lon="6.59404">
        <ele>1536.2035</ele>
        <time>2020-01-27 09:46:58</time>
      </trkpt>
      <trkpt lat="45.55787" lon="6.59402">
        <ele>1538.1029</ele>
        <time>2020-01-27 09:47:02</time>
      </trkpt>
      <trkpt lat="45.55788" lon="6.59398">
        <ele>1534.0857</ele>
        <time>2020-01-27 09:47:04</time>
      </trkpt>
      <trkpt lat="45.55789" lon="6.59394">
        <ele>1533.9625</ele>
        <time>2020-01-27 09:47:18</time>
      </trkpt>
      <trkpt lat="45.55789" lon="6.59391">
        <ele>1532.5177</ele>
        <time>2020-01-27 09:47:20</time>
      </trkpt>
      <trkpt lat="45.5579" lon="6.59378">
        <ele>1534.7999</ele>
        <time>2020-01-27 09:47:45</time>
      </trkpt>
      <trkpt lat="45.55791" lon="6.59377">
        <ele>1536.5507</ele>
        <time>2020-01-27 09:47:46</time>
      </trkpt>
      <trkpt lat="45.55791" lon="6.59376">
        <ele>1535.8265</ele>
        <time>2020-01-27 09:47:47</time>
      </trkpt>
      <trkpt lat="45.55793" lon="6.59372">
        <ele>1539.4315</ele>
        <time>2020-01-27 09:47:51</time>
      </trkpt>
      <trkpt lat="45.55794" lon="6.59371">
        <ele>1540.1964</ele>
        <time>2020-01-27 09:47:52</time>
      </trkpt>
      <trkpt lat="45.55795" lon="6.59369">
        <ele>1539.7216</ele>
        <time>2020-01-27 09:47:54</time>
      </trkpt>
      <trkpt lat="45.55795" lon="6.59367">
        <ele>1540.3574</ele>
        <time>2020-01-27 09:47:55</time>
      </trkpt>
      <trkpt lat="45.55797" lon="6.59362">
        <ele>1541.0087</ele>
        <time>2020-01-27 09:48:02</time>
      </trkpt>
      <trkpt lat="45.55798" lon="6.59361">
        <ele>1540.6692</ele>
        <time>2020-01-27 09:48:03</time>
      </trkpt>
      <trkpt lat="45.55798" lon="6.5936">
        <ele>1541.6414</ele>
        <time>2020-01-27 09:48:04</time>
      </trkpt>
      <trkpt lat="45.55797" lon="6.59359">
        <ele>1541.6046</ele>
        <time>2020-01-27 09:48:05</time>
      </trkpt>
      <trkpt lat="45.55798" lon="6.59357">
        <ele>1539.969</ele>
        <time>2020-01-27 09:48:06</time>
      </trkpt>
      <trkpt lat="45.55799" lon="6.59354">
        <ele>1540.0233</ele>
        <time>2020-01-27 09:48:07</time>
      </trkpt>
      <trkpt lat="45.55799" lon="6.59352">
        <ele>1542.0814</ele>
        <time>2020-01-27 09:48:10</time>
      </trkpt>
      <trkpt lat="45.55798" lon="6.59351">
        <ele>1542.5913</ele>
        <time>2020-01-27 09:48:11</time>
      </trkpt>
      <trkpt lat="45.55798" lon="6.59351">
        <ele>1544.3862</ele>
        <time>2020-01-27 09:48:16</time>
      </trkpt>
      <trkpt lat="45.55797" lon="6.5935">
        <ele>1545.426</ele>
        <time>2020-01-27 09:48:17</time>
      </trkpt>
      <trkpt lat="45.55795" lon="6.5934">
        <ele>1539.4772</ele>
        <time>2020-01-27 09:48:40</time>
      </trkpt>
      <trkpt lat="45.55794" lon="6.5934">
        <ele>1540.3141</ele>
        <time>2020-01-27 09:48:41</time>
      </trkpt>
      <trkpt lat="45.55793" lon="6.59341">
        <ele>1542.3462</ele>
        <time>2020-01-27 09:48:57</time>
      </trkpt>
      <trkpt lat="45.55793" lon="6.59341">
        <ele>1543.4329</ele>
        <time>2020-01-27 09:48:58</time>
      </trkpt>
      <trkpt lat="45.55793" lon="6.59339">
        <ele>1541.9231</ele>
        <time>2020-01-27 09:49:14</time>
      </trkpt>
      <trkpt lat="45.55793" lon="6.59336">
        <ele>1542.6143</ele>
        <time>2020-01-27 09:49:19</time>
      </trkpt>
      <trkpt lat="45.55792" lon="6.59336">
        <ele>1542.6075</ele>
        <time>2020-01-27 09:49:20</time>
      </trkpt>
      <trkpt lat="45.55792" lon="6.59334">
        <ele>1541.8109</ele>
        <time>2020-01-27 09:49:23</time>
      </trkpt>
      <trkpt lat="45.55795" lon="6.59332">
        <ele>1543.0585</ele>
        <time>2020-01-27 09:49:38</time>
      </trkpt>
      <trkpt lat="45.55795" lon="6.59325">
        <ele>1542.5088</ele>
        <time>2020-01-27 09:49:46</time>
      </trkpt>
      <trkpt lat="45.55795" lon="6.59324">
        <ele>1542.3911</ele>
        <time>2020-01-27 09:49:47</time>
      </trkpt>
      <trkpt lat="45.55796" lon="6.59323">
        <ele>1542.5684</ele>
        <time>2020-01-27 09:49:53</time>
      </trkpt>
      <trkpt lat="45.55796" lon="6.59321">
        <ele>1544.1079</ele>
        <time>2020-01-27 09:49:54</time>
      </trkpt>
      <trkpt lat="45.55796" lon="6.5932">
        <ele>1545.6003</ele>
        <time>2020-01-27 09:49:55</time>
      </trkpt>
      <trkpt lat="45.55797" lon="6.5932">
        <ele>1546.6544</ele>
        <time>2020-01-27 09:49:56</time>
      </trkpt>
      <trkpt lat="45.55798" lon="6.59318">
        <ele>1548.0286</ele>
        <time>2020-01-27 09:49:58</time>
      </trkpt>
      <trkpt lat="45.55798" lon="6.59316">
        <ele>1548.0513</ele>
        <time>2020-01-27 09:49:59</time>
      </trkpt>
      <trkpt lat="45.55798" lon="6.59314">
        <ele>1549.8818</ele>
        <time>2020-01-27 09:50:01</time>
      </trkpt>
      <trkpt lat="45.55799" lon="6.59314">
        <ele>1550.2039</ele>
        <time>2020-01-27 09:50:03</time>
      </trkpt>
      <trkpt lat="45.55799" lon="6.59313">
        <ele>1550.2124</ele>
        <time>2020-01-27 09:50:04</time>
      </trkpt>
      <trkpt lat="45.55799" lon="6.59312">
        <ele>1549.3647</ele>
        <time>2020-01-27 09:50:05</time>
      </trkpt>
      <trkpt lat="45.55797" lon="6.59309">
        <ele>1549.009</ele>
        <time>2020-01-27 09:50:09</time>
      </trkpt>
      <trkpt lat="45.55796" lon="6.59307">
        <ele>1551.093</ele>
        <time>2020-01-27 09:50:15</time>
      </trkpt>
      <trkpt lat="45.55802" lon="6.59297">
        <ele>1548.8196</ele>
        <time>2020-01-27 09:50:22</time>
      </trkpt>
      <trkpt lat="45.55805" lon="6.59294">
        <ele>1548.3757</ele>
        <time>2020-01-27 09:50:26</time>
      </trkpt>
      <trkpt lat="45.55805" lon="6.59292">
        <ele>1547.6792</ele>
        <time>2020-01-27 09:50:27</time>
      </trkpt>
      <trkpt lat="45.55805" lon="6.59289">
        <ele>1547.8741</ele>
        <time>2020-01-27 09:50:32</time>
      </trkpt>
      <trkpt lat="45.55806" lon="6.59288">
        <ele>1548.8496</ele>
        <time>2020-01-27 09:50:33</time>
      </trkpt>
      <trkpt lat="45.55806" lon="6.59287">
        <ele>1547.9219</ele>
        <time>2020-01-27 09:50:34</time>
      </trkpt>
      <trkpt lat="45.55807" lon="6.59286">
        <ele>1546.3262</ele>
        <time>2020-01-27 09:50:35</time>
      </trkpt>
      <trkpt lat="45.55807" lon="6.59284">
        <ele>1547.6147</ele>
        <time>2020-01-27 09:50:37</time>
      </trkpt>
      <trkpt lat="45.55807" lon="6.59282">
        <ele>1547.9357</ele>
        <time>2020-01-27 09:50:38</time>
      </trkpt>
      <trkpt lat="45.55807" lon="6.5928">
        <ele>1545.757</ele>
        <time>2020-01-27 09:50:39</time>
      </trkpt>
      <trkpt lat="45.55806" lon="6.59278">
        <ele>1545.879</ele>
        <time>2020-01-27 09:50:40</time>
      </trkpt>
      <trkpt lat="45.55807" lon="6.59275">
        <ele>1549.3132</ele>
        <time>2020-01-27 09:50:42</time>
      </trkpt>
      <trkpt lat="45.55807" lon="6.59273">
        <ele>1549.8757</ele>
        <time>2020-01-27 09:50:43</time>
      </trkpt>
      <trkpt lat="45.55809" lon="6.59267">
        <ele>1552.0278</ele>
        <time>2020-01-27 09:50:55</time>
      </trkpt>
      <trkpt lat="45.55809" lon="6.59265">
        <ele>1551.23</ele>
        <time>2020-01-27 09:50:56</time>
      </trkpt>
      <trkpt lat="45.5581" lon="6.59262">
        <ele>1552.6401</ele>
        <time>2020-01-27 09:51:01</time>
      </trkpt>
      <trkpt lat="45.5581" lon="6.5926">
        <ele>1552.3057</ele>
        <time>2020-01-27 09:51:02</time>
      </trkpt>
      <trkpt lat="45.5581" lon="6.59259">
        <ele>1553.7661</ele>
        <time>2020-01-27 09:51:03</time>
      </trkpt>
      <trkpt lat="45.5581" lon="6.59258">
        <ele>1553.7595</ele>
        <time>2020-01-27 09:51:04</time>
      </trkpt>
      <trkpt lat="45.5581" lon="6.59257">
        <ele>1554.313</ele>
        <time>2020-01-27 09:51:05</time>
      </trkpt>
      <trkpt lat="45.5581" lon="6.59255">
        <ele>1554.1228</ele>
        <time>2020-01-27 09:51:06</time>
      </trkpt>
      <trkpt lat="45.5581" lon="6.59254">
        <ele>1554.1536</ele>
        <time>2020-01-27 09:51:07</time>
      </trkpt>
      <trkpt lat="45.5581" lon="6.59252">
        <ele>1554.1436</ele>
        <time>2020-01-27 09:51:08</time>
      </trkpt>
      <trkpt lat="45.55811" lon="6.59251">
        <ele>1554.3672</ele>
        <time>2020-01-27 09:51:09</time>
      </trkpt>
      <trkpt lat="45.55811" lon="6.59249">
        <ele>1553.8738</ele>
        <time>2020-01-27 09:51:11</time>
      </trkpt>
      <trkpt lat="45.55811" lon="6.59249">
        <ele>1555.477</ele>
        <time>2020-01-27 09:51:12</time>
      </trkpt>
      <trkpt lat="45.55811" lon="6.59247">
        <ele>1554.7915</ele>
        <time>2020-01-27 09:51:13</time>
      </trkpt>
      <trkpt lat="45.55812" lon="6.59243">
        <ele>1556.1443</ele>
        <time>2020-01-27 09:51:15</time>
      </trkpt>
      <trkpt lat="45.55812" lon="6.59242">
        <ele>1555.4551</ele>
        <time>2020-01-27 09:51:16</time>
      </trkpt>
      <trkpt lat="45.55813" lon="6.59242">
        <ele>1552.8086</ele>
        <time>2020-01-27 09:51:17</time>
      </trkpt>
      <trkpt lat="45.55813" lon="6.59241">
        <ele>1553.5762</ele>
        <time>2020-01-27 09:51:18</time>
      </trkpt>
      <trkpt lat="45.55814" lon="6.59239">
        <ele>1552.3271</ele>
        <time>2020-01-27 09:51:20</time>
      </trkpt>
      <trkpt lat="45.55814" lon="6.59238">
        <ele>1550.5332</ele>
        <time>2020-01-27 09:51:21</time>
      </trkpt>
      <trkpt lat="45.55814" lon="6.59237">
        <ele>1548.998</ele>
        <time>2020-01-27 09:51:23</time>
      </trkpt>
      <trkpt lat="45.55814" lon="6.59236">
        <ele>1548.8467</ele>
        <time>2020-01-27 09:51:24</time>
      </trkpt>
      <trkpt lat="45.55813" lon="6.59235">
        <ele>1547.9735</ele>
        <time>2020-01-27 09:51:25</time>
      </trkpt>
      <trkpt lat="45.55813" lon="6.59234">
        <ele>1547.4218</ele>
        <time>2020-01-27 09:51:26</time>
      </trkpt>
      <trkpt lat="45.55813" lon="6.59232">
        <ele>1548.092</ele>
        <time>2020-01-27 09:51:30</time>
      </trkpt>
      <trkpt lat="45.55813" lon="6.5923">
        <ele>1551.3755</ele>
        <time>2020-01-27 09:51:31</time>
      </trkpt>
      <trkpt lat="45.55813" lon="6.59229">
        <ele>1552.5146</ele>
        <time>2020-01-27 09:51:32</time>
      </trkpt>
      <trkpt lat="45.55813" lon="6.59227">
        <ele>1553.9158</ele>
        <time>2020-01-27 09:51:33</time>
      </trkpt>
      <trkpt lat="45.55813" lon="6.59226">
        <ele>1553.9497</ele>
        <time>2020-01-27 09:51:34</time>
      </trkpt>
      <trkpt lat="45.55813" lon="6.59225">
        <ele>1555.3301</ele>
        <time>2020-01-27 09:51:35</time>
      </trkpt>
      <trkpt lat="45.55813" lon="6.59224">
        <ele>1556.8103</ele>
        <time>2020-01-27 09:51:36</time>
      </trkpt>
      <trkpt lat="45.55814" lon="6.59222">
        <ele>1557.8623</ele>
        <time>2020-01-27 09:51:37</time>
      </trkpt>
      <trkpt lat="45.55813" lon="6.59221">
        <ele>1554.0674</ele>
        <time>2020-01-27 09:51:38</time>
      </trkpt>
      <trkpt lat="45.55813" lon="6.5922">
        <ele>1555.3035</ele>
        <time>2020-01-27 09:51:39</time>
      </trkpt>
      <trkpt lat="45.55813" lon="6.59219">
        <ele>1556.8252</ele>
        <time>2020-01-27 09:51:40</time>
      </trkpt>
      <trkpt lat="45.55814" lon="6.59216">
        <ele>1556.8242</ele>
        <time>2020-01-27 09:51:44</time>
      </trkpt>
      <trkpt lat="45.55815" lon="6.59215">
        <ele>1556.4907</ele>
        <time>2020-01-27 09:51:45</time>
      </trkpt>
      <trkpt lat="45.55816" lon="6.59211">
        <ele>1559.1897</ele>
        <time>2020-01-27 09:51:53</time>
      </trkpt>
      <trkpt lat="45.55815" lon="6.59209">
        <ele>1560.2363</ele>
        <time>2020-01-27 09:51:54</time>
      </trkpt>
      <trkpt lat="45.55815" lon="6.59208">
        <ele>1561.5247</ele>
        <time>2020-01-27 09:51:55</time>
      </trkpt>
      <trkpt lat="45.55815" lon="6.59206">
        <ele>1562.5137</ele>
        <time>2020-01-27 09:51:56</time>
      </trkpt>
      <trkpt lat="45.55815" lon="6.59205">
        <ele>1562.5017</ele>
        <time>2020-01-27 09:51:57</time>
      </trkpt>
      <trkpt lat="45.55813" lon="6.59199">
        <ele>1565.4517</ele>
        <time>2020-01-27 09:52:01</time>
      </trkpt>
      <trkpt lat="45.55813" lon="6.59198">
        <ele>1564.7549</ele>
        <time>2020-01-27 09:52:02</time>
      </trkpt>
      <trkpt lat="45.55813" lon="6.59196">
        <ele>1564.707</ele>
        <time>2020-01-27 09:52:04</time>
      </trkpt>
      <trkpt lat="45.55813" lon="6.59195">
        <ele>1565.4841</ele>
        <time>2020-01-27 09:52:05</time>
      </trkpt>
      <trkpt lat="45.55817" lon="6.59192">
        <ele>1564.5122</ele>
        <time>2020-01-27 09:52:10</time>
      </trkpt>
      <trkpt lat="45.55816" lon="6.59186">
        <ele>1560.7251</ele>
        <time>2020-01-27 09:52:18</time>
      </trkpt>
      <trkpt lat="45.55815" lon="6.59184">
        <ele>1559.5884</ele>
        <time>2020-01-27 09:52:20</time>
      </trkpt>
      <trkpt lat="45.55815" lon="6.5918">
        <ele>1560.581</ele>
        <time>2020-01-27 09:52:23</time>
      </trkpt>
      <trkpt lat="45.55815" lon="6.59178">
        <ele>1562.459</ele>
        <time>2020-01-27 09:52:25</time>
      </trkpt>
      <trkpt lat="45.55815" lon="6.59176">
        <ele>1562.3877</ele>
        <time>2020-01-27 09:52:27</time>
      </trkpt>
      <trkpt lat="45.55816" lon="6.59175">
        <ele>1562.3066</ele>
        <time>2020-01-27 09:52:28</time>
      </trkpt>
      <trkpt lat="45.55816" lon="6.59174">
        <ele>1563.7483</ele>
        <time>2020-01-27 09:52:29</time>
      </trkpt>
      <trkpt lat="45.55817" lon="6.59171">
        <ele>1564.6948</ele>
        <time>2020-01-27 09:52:31</time>
      </trkpt>
      <trkpt lat="45.55818" lon="6.59169">
        <ele>1566.7427</ele>
        <time>2020-01-27 09:52:33</time>
      </trkpt>
      <trkpt lat="45.55819" lon="6.59168">
        <ele>1566.2109</ele>
        <time>2020-01-27 09:52:34</time>
      </trkpt>
      <trkpt lat="45.55818" lon="6.59163">
        <ele>1565.5647</ele>
        <time>2020-01-27 09:52:42</time>
      </trkpt>
      <trkpt lat="45.55818" lon="6.59162">
        <ele>1565.4875</ele>
        <time>2020-01-27 09:52:43</time>
      </trkpt>
      <trkpt lat="45.55817" lon="6.59161">
        <ele>1566.2932</ele>
        <time>2020-01-27 09:52:44</time>
      </trkpt>
      <trkpt lat="45.55816" lon="6.59158">
        <ele>1565.477</ele>
        <time>2020-01-27 09:52:46</time>
      </trkpt>
      <trkpt lat="45.55816" lon="6.59157">
        <ele>1566.5024</ele>
        <time>2020-01-27 09:52:47</time>
      </trkpt>
      <trkpt lat="45.55816" lon="6.59154">
        <ele>1570.5042</ele>
        <time>2020-01-27 09:52:49</time>
      </trkpt>
      <trkpt lat="45.55816" lon="6.59153">
        <ele>1569.1741</ele>
        <time>2020-01-27 09:52:50</time>
      </trkpt>
      <trkpt lat="45.55816" lon="6.59151">
        <ele>1564.2607</ele>
        <time>2020-01-27 09:52:51</time>
      </trkpt>
      <trkpt lat="45.55813" lon="6.59149">
        <ele>1564.7578</ele>
        <time>2020-01-27 09:52:58</time>
      </trkpt>
      <trkpt lat="45.55814" lon="6.59149">
        <ele>1563.8042</ele>
        <time>2020-01-27 09:52:59</time>
      </trkpt>
      <trkpt lat="45.55815" lon="6.59148">
        <ele>1564.0015</ele>
        <time>2020-01-27 09:53:00</time>
      </trkpt>
      <trkpt lat="45.55815" lon="6.59148">
        <ele>1563.7002</ele>
        <time>2020-01-27 09:53:01</time>
      </trkpt>
      <trkpt lat="45.55816" lon="6.59149">
        <ele>1563.7573</ele>
        <time>2020-01-27 09:53:02</time>
      </trkpt>
      <trkpt lat="45.55817" lon="6.59148">
        <ele>1562.1301</ele>
        <time>2020-01-27 09:53:03</time>
      </trkpt>
      <trkpt lat="45.55819" lon="6.59147">
        <ele>1563.1299</ele>
        <time>2020-01-27 09:53:04</time>
      </trkpt>
      <trkpt lat="45.55819" lon="6.59148">
        <ele>1560.8936</ele>
        <time>2020-01-27 09:53:05</time>
      </trkpt>
      <trkpt lat="45.55819" lon="6.59149">
        <ele>1560.3174</ele>
        <time>2020-01-27 09:53:06</time>
      </trkpt>
      <trkpt lat="45.55817" lon="6.59151">
        <ele>1560.5161</ele>
        <time>2020-01-27 09:53:08</time>
      </trkpt>
      <trkpt lat="45.55815" lon="6.59152">
        <ele>1559.9409</ele>
        <time>2020-01-27 09:53:09</time>
      </trkpt>
      <trkpt lat="45.55815" lon="6.59152">
        <ele>1560.2056</ele>
        <time>2020-01-27 09:53:10</time>
      </trkpt>
      <trkpt lat="45.55814" lon="6.59153">
        <ele>1561.1863</ele>
        <time>2020-01-27 09:53:11</time>
      </trkpt>
      <trkpt lat="45.55813" lon="6.59153">
        <ele>1562.1514</ele>
        <time>2020-01-27 09:53:12</time>
      </trkpt>
      <trkpt lat="45.55814" lon="6.59154">
        <ele>1561.6816</ele>
        <time>2020-01-27 09:53:14</time>
      </trkpt>
      <trkpt lat="45.55814" lon="6.59154">
        <ele>1562.3682</ele>
        <time>2020-01-27 09:53:15</time>
      </trkpt>
      <trkpt lat="45.55815" lon="6.59155">
        <ele>1563.2134</ele>
        <time>2020-01-27 09:53:16</time>
      </trkpt>
      <trkpt lat="45.55814" lon="6.59158">
        <ele>1564.1682</ele>
        <time>2020-01-27 09:53:19</time>
      </trkpt>
      <trkpt lat="45.55812" lon="6.59158">
        <ele>1565.8577</ele>
        <time>2020-01-27 09:53:23</time>
      </trkpt>
      <trkpt lat="45.55813" lon="6.59158">
        <ele>1565.0903</ele>
        <time>2020-01-27 09:53:24</time>
      </trkpt>
      <trkpt lat="45.55813" lon="6.59159">
        <ele>1565.9736</ele>
        <time>2020-01-27 09:53:26</time>
      </trkpt>
      <trkpt lat="45.55813" lon="6.59159">
        <ele>1565.5039</ele>
        <time>2020-01-27 09:53:27</time>
      </trkpt>
      <trkpt lat="45.55813" lon="6.5916">
        <ele>1565.6646</ele>
        <time>2020-01-27 09:53:28</time>
      </trkpt>
      <trkpt lat="45.55814" lon="6.5916">
        <ele>1566.4822</ele>
        <time>2020-01-27 09:53:29</time>
      </trkpt>
      <trkpt lat="45.55815" lon="6.59162">
        <ele>1566.815</ele>
        <time>2020-01-27 09:53:34</time>
      </trkpt>
      <trkpt lat="45.55816" lon="6.59163">
        <ele>1567.0718</ele>
        <time>2020-01-27 09:53:36</time>
      </trkpt>
      <trkpt lat="45.55817" lon="6.59164">
        <ele>1566.7292</ele>
        <time>2020-01-27 09:53:37</time>
      </trkpt>
      <trkpt lat="45.55818" lon="6.59164">
        <ele>1566.3555</ele>
        <time>2020-01-27 09:53:38</time>
      </trkpt>
      <trkpt lat="45.5582" lon="6.59166">
        <ele>1566.4727</ele>
        <time>2020-01-27 09:53:40</time>
      </trkpt>
      <trkpt lat="45.5582" lon="6.59167">
        <ele>1566.3887</ele>
        <time>2020-01-27 09:53:41</time>
      </trkpt>
      <trkpt lat="45.55821" lon="6.59169">
        <ele>1566.3423</ele>
        <time>2020-01-27 09:53:45</time>
      </trkpt>
      <trkpt lat="45.55822" lon="6.59172">
        <ele>1567.1392</ele>
        <time>2020-01-27 09:53:47</time>
      </trkpt>
      <trkpt lat="45.55822" lon="6.59173">
        <ele>1568.1511</ele>
        <time>2020-01-27 09:53:48</time>
      </trkpt>
      <trkpt lat="45.55823" lon="6.59176">
        <ele>1569.154</ele>
        <time>2020-01-27 09:53:50</time>
      </trkpt>
      <trkpt lat="45.55822" lon="6.59179">
        <ele>1568.2644</ele>
        <time>2020-01-27 09:53:51</time>
      </trkpt>
      <trkpt lat="45.55823" lon="6.5918">
        <ele>1568.2039</ele>
        <time>2020-01-27 09:53:52</time>
      </trkpt>
      <trkpt lat="45.55824" lon="6.59181">
        <ele>1567.5225</ele>
        <time>2020-01-27 09:53:53</time>
      </trkpt>
      <trkpt lat="45.55824" lon="6.59182">
        <ele>1568.042</ele>
        <time>2020-01-27 09:53:54</time>
      </trkpt>
      <trkpt lat="45.55825" lon="6.59182">
        <ele>1568.2861</ele>
        <time>2020-01-27 09:53:55</time>
      </trkpt>
      <trkpt lat="45.55826" lon="6.59183">
        <ele>1569.2314</ele>
        <time>2020-01-27 09:53:57</time>
      </trkpt>
      <trkpt lat="45.55827" lon="6.59184">
        <ele>1572.0137</ele>
        <time>2020-01-27 09:53:59</time>
      </trkpt>
      <trkpt lat="45.55827" lon="6.59185">
        <ele>1572.085</ele>
        <time>2020-01-27 09:54:00</time>
      </trkpt>
      <trkpt lat="45.55827" lon="6.59186">
        <ele>1573.1912</ele>
        <time>2020-01-27 09:54:01</time>
      </trkpt>
      <trkpt lat="45.55827" lon="6.59187">
        <ele>1574.4326</ele>
        <time>2020-01-27 09:54:03</time>
      </trkpt>
      <trkpt lat="45.55826" lon="6.59188">
        <ele>1575.1865</ele>
        <time>2020-01-27 09:54:04</time>
      </trkpt>
      <trkpt lat="45.55826" lon="6.59189">
        <ele>1575.8142</ele>
        <time>2020-01-27 09:54:05</time>
      </trkpt>
      <trkpt lat="45.55827" lon="6.5919">
        <ele>1574.3845</ele>
        <time>2020-01-27 09:54:06</time>
      </trkpt>
      <trkpt lat="45.55828" lon="6.59191">
        <ele>1574.0088</ele>
        <time>2020-01-27 09:54:07</time>
      </trkpt>
      <trkpt lat="45.55829" lon="6.59193">
        <ele>1574.5742</ele>
        <time>2020-01-27 09:54:09</time>
      </trkpt>
      <trkpt lat="45.55829" lon="6.59194">
        <ele>1573.394</ele>
        <time>2020-01-27 09:54:11</time>
      </trkpt>
      <trkpt lat="45.55829" lon="6.59194">
        <ele>1573.7734</ele>
        <time>2020-01-27 09:54:12</time>
      </trkpt>
      <trkpt lat="45.55829" lon="6.59195">
        <ele>1573.6509</ele>
        <time>2020-01-27 09:54:14</time>
      </trkpt>
      <trkpt lat="45.55829" lon="6.59197">
        <ele>1574.3264</ele>
        <time>2020-01-27 09:54:15</time>
      </trkpt>
      <trkpt lat="45.5583" lon="6.59199">
        <ele>1575.0085</ele>
        <time>2020-01-27 09:54:17</time>
      </trkpt>
      <trkpt lat="45.55831" lon="6.59199">
        <ele>1574.5913</ele>
        <time>2020-01-27 09:54:18</time>
      </trkpt>
      <trkpt lat="45.55831" lon="6.592">
        <ele>1575.6223</ele>
        <time>2020-01-27 09:54:19</time>
      </trkpt>
      <trkpt lat="45.55832" lon="6.59201">
        <ele>1574.669</ele>
        <time>2020-01-27 09:54:20</time>
      </trkpt>
      <trkpt lat="45.55831" lon="6.59202">
        <ele>1574.4883</ele>
        <time>2020-01-27 09:54:21</time>
      </trkpt>
      <trkpt lat="45.55832" lon="6.59203">
        <ele>1573.1858</ele>
        <time>2020-01-27 09:54:22</time>
      </trkpt>
      <trkpt lat="45.55832" lon="6.59205">
        <ele>1572.2236</ele>
        <time>2020-01-27 09:54:23</time>
      </trkpt>
      <trkpt lat="45.55833" lon="6.59205">
        <ele>1573.7349</ele>
        <time>2020-01-27 09:54:24</time>
      </trkpt>
      <trkpt lat="45.55832" lon="6.59208">
        <ele>1575.5491</ele>
        <time>2020-01-27 09:54:28</time>
      </trkpt>
      <trkpt lat="45.55832" lon="6.59209">
        <ele>1576.5708</ele>
        <time>2020-01-27 09:54:29</time>
      </trkpt>
      <trkpt lat="45.55832" lon="6.5921">
        <ele>1578.2505</ele>
        <time>2020-01-27 09:54:31</time>
      </trkpt>
      <trkpt lat="45.55832" lon="6.59211">
        <ele>1577.8511</ele>
        <time>2020-01-27 09:54:32</time>
      </trkpt>
      <trkpt lat="45.55832" lon="6.59212">
        <ele>1579.1648</ele>
        <time>2020-01-27 09:54:35</time>
      </trkpt>
      <trkpt lat="45.55832" lon="6.59213">
        <ele>1580.4307</ele>
        <time>2020-01-27 09:54:38</time>
      </trkpt>
      <trkpt lat="45.55832" lon="6.59214">
        <ele>1578.5908</ele>
        <time>2020-01-27 09:54:39</time>
      </trkpt>
      <trkpt lat="45.55831" lon="6.59218">
        <ele>1580.0337</ele>
        <time>2020-01-27 09:54:44</time>
      </trkpt>
      <trkpt lat="45.55831" lon="6.59219">
        <ele>1581.4243</ele>
        <time>2020-01-27 09:54:46</time>
      </trkpt>
      <trkpt lat="45.55831" lon="6.59222">
        <ele>1582.8267</ele>
        <time>2020-01-27 09:54:48</time>
      </trkpt>
      <trkpt lat="45.55831" lon="6.59224">
        <ele>1583.3711</ele>
        <time>2020-01-27 09:54:49</time>
      </trkpt>
      <trkpt lat="45.5583" lon="6.59227">
        <ele>1582.0581</ele>
        <time>2020-01-27 09:54:51</time>
      </trkpt>
      <trkpt lat="45.55829" lon="6.59231">
        <ele>1581.1799</ele>
        <time>2020-01-27 09:54:54</time>
      </trkpt>
      <trkpt lat="45.55828" lon="6.59232">
        <ele>1580.6338</ele>
        <time>2020-01-27 09:54:55</time>
      </trkpt>
      <trkpt lat="45.55828" lon="6.59234">
        <ele>1580.5986</ele>
        <time>2020-01-27 09:54:56</time>
      </trkpt>
      <trkpt lat="45.55829" lon="6.59234">
        <ele>1580.0737</ele>
        <time>2020-01-27 09:54:57</time>
      </trkpt>
      <trkpt lat="45.55829" lon="6.59235">
        <ele>1580.2671</ele>
        <time>2020-01-27 09:54:59</time>
      </trkpt>
      <trkpt lat="45.55829" lon="6.59237">
        <ele>1581.6963</ele>
        <time>2020-01-27 09:55:00</time>
      </trkpt>
      <trkpt lat="45.55828" lon="6.59238">
        <ele>1582.3823</ele>
        <time>2020-01-27 09:55:01</time>
      </trkpt>
      <trkpt lat="45.55828" lon="6.5924">
        <ele>1582.4346</ele>
        <time>2020-01-27 09:55:03</time>
      </trkpt>
      <trkpt lat="45.55828" lon="6.5924">
        <ele>1583.0137</ele>
        <time>2020-01-27 09:55:05</time>
      </trkpt>
      <trkpt lat="45.55828" lon="6.59241">
        <ele>1583.5327</ele>
        <time>2020-01-27 09:55:07</time>
      </trkpt>
      <trkpt lat="45.55828" lon="6.59241">
        <ele>1584.9524</ele>
        <time>2020-01-27 09:55:08</time>
      </trkpt>
      <trkpt lat="45.55828" lon="6.59242">
        <ele>1584.8374</ele>
        <time>2020-01-27 09:55:09</time>
      </trkpt>
      <trkpt lat="45.55828" lon="6.59243">
        <ele>1585.1353</ele>
        <time>2020-01-27 09:55:10</time>
      </trkpt>
      <trkpt lat="45.55829" lon="6.59245">
        <ele>1585.1895</ele>
        <time>2020-01-27 09:55:12</time>
      </trkpt>
      <trkpt lat="45.55829" lon="6.59247">
        <ele>1584.8865</ele>
        <time>2020-01-27 09:55:13</time>
      </trkpt>
      <trkpt lat="45.55832" lon="6.59248">
        <ele>1584.1228</ele>
        <time>2020-01-27 09:55:16</time>
      </trkpt>
      <trkpt lat="45.55833" lon="6.59249">
        <ele>1584.5186</ele>
        <time>2020-01-27 09:55:18</time>
      </trkpt>
      <trkpt lat="45.55833" lon="6.59251">
        <ele>1584.367</ele>
        <time>2020-01-27 09:55:19</time>
      </trkpt>
      <trkpt lat="45.55833" lon="6.59252">
        <ele>1582.0044</ele>
        <time>2020-01-27 09:55:20</time>
      </trkpt>
      <trkpt lat="45.55833" lon="6.59253">
        <ele>1581.1323</ele>
        <time>2020-01-27 09:55:22</time>
      </trkpt>
      <trkpt lat="45.55833" lon="6.59253">
        <ele>1581.6206</ele>
        <time>2020-01-27 09:55:23</time>
      </trkpt>
      <trkpt lat="45.55833" lon="6.59254">
        <ele>1581.4546</ele>
        <time>2020-01-27 09:55:24</time>
      </trkpt>
      <trkpt lat="45.55834" lon="6.59256">
        <ele>1581.7334</ele>
        <time>2020-01-27 09:55:29</time>
      </trkpt>
      <trkpt lat="45.55835" lon="6.59259">
        <ele>1583.5122</ele>
        <time>2020-01-27 09:55:32</time>
      </trkpt>
      <trkpt lat="45.55834" lon="6.59261">
        <ele>1583.8511</ele>
        <time>2020-01-27 09:55:33</time>
      </trkpt>
      <trkpt lat="45.55833" lon="6.59263">
        <ele>1584.783</ele>
        <time>2020-01-27 09:55:35</time>
      </trkpt>
      <trkpt lat="45.55833" lon="6.59264">
        <ele>1585.8162</ele>
        <time>2020-01-27 09:55:36</time>
      </trkpt>
      <trkpt lat="45.55833" lon="6.59265">
        <ele>1584.237</ele>
        <time>2020-01-27 09:55:38</time>
      </trkpt>
      <trkpt lat="45.55834" lon="6.59267">
        <ele>1583.5444</ele>
        <time>2020-01-27 09:55:39</time>
      </trkpt>
      <trkpt lat="45.55835" lon="6.5927">
        <ele>1582.2441</ele>
        <time>2020-01-27 09:55:44</time>
      </trkpt>
      <trkpt lat="45.55836" lon="6.59272">
        <ele>1581.9797</ele>
        <time>2020-01-27 09:55:45</time>
      </trkpt>
      <trkpt lat="45.55836" lon="6.59273">
        <ele>1582.0789</ele>
        <time>2020-01-27 09:55:46</time>
      </trkpt>
      <trkpt lat="45.55836" lon="6.59273">
        <ele>1581.3491</ele>
        <time>2020-01-27 09:55:47</time>
      </trkpt>
      <trkpt lat="45.55835" lon="6.59276">
        <ele>1581.1763</ele>
        <time>2020-01-27 09:55:49</time>
      </trkpt>
      <trkpt lat="45.55835" lon="6.59278">
        <ele>1579.6108</ele>
        <time>2020-01-27 09:55:53</time>
      </trkpt>
      <trkpt lat="45.55836" lon="6.59283">
        <ele>1582.0781</ele>
        <time>2020-01-27 09:55:56</time>
      </trkpt>
      <trkpt lat="45.55837" lon="6.59284">
        <ele>1583.0962</ele>
        <time>2020-01-27 09:55:57</time>
      </trkpt>
      <trkpt lat="45.55837" lon="6.59284">
        <ele>1583.6501</ele>
        <time>2020-01-27 09:55:58</time>
      </trkpt>
      <trkpt lat="45.55838" lon="6.59285">
        <ele>1584.1274</ele>
        <time>2020-01-27 09:55:59</time>
      </trkpt>
      <trkpt lat="45.55841" lon="6.5929">
        <ele>1583.8215</ele>
        <time>2020-01-27 09:56:03</time>
      </trkpt>
      <trkpt lat="45.55841" lon="6.59291">
        <ele>1585.0698</ele>
        <time>2020-01-27 09:56:04</time>
      </trkpt>
      <trkpt lat="45.55841" lon="6.59292">
        <ele>1585.1868</ele>
        <time>2020-01-27 09:56:05</time>
      </trkpt>
      <trkpt lat="45.55841" lon="6.59294">
        <ele>1584.0527</ele>
        <time>2020-01-27 09:56:09</time>
      </trkpt>
      <trkpt lat="45.55842" lon="6.59294">
        <ele>1584.356</ele>
        <time>2020-01-27 09:56:10</time>
      </trkpt>
      <trkpt lat="45.55844" lon="6.59294">
        <ele>1584.6416</ele>
        <time>2020-01-27 09:56:13</time>
      </trkpt>
      <trkpt lat="45.55845" lon="6.59295">
        <ele>1584.197</ele>
        <time>2020-01-27 09:56:14</time>
      </trkpt>
      <trkpt lat="45.55846" lon="6.59298">
        <ele>1584.7476</ele>
        <time>2020-01-27 09:56:17</time>
      </trkpt>
      <trkpt lat="45.55847" lon="6.59299">
        <ele>1585.1685</ele>
        <time>2020-01-27 09:56:18</time>
      </trkpt>
      <trkpt lat="45.55846" lon="6.593">
        <ele>1585.529</ele>
        <time>2020-01-27 09:56:19</time>
      </trkpt>
      <trkpt lat="45.55847" lon="6.59301">
        <ele>1585.4668</ele>
        <time>2020-01-27 09:56:20</time>
      </trkpt>
      <trkpt lat="45.55851" lon="6.59304">
        <ele>1585.5801</ele>
        <time>2020-01-27 09:56:26</time>
      </trkpt>
      <trkpt lat="45.5585" lon="6.59307">
        <ele>1585.7632</ele>
        <time>2020-01-27 09:56:30</time>
      </trkpt>
      <trkpt lat="45.5585" lon="6.59312">
        <ele>1587.4275</ele>
        <time>2020-01-27 09:56:35</time>
      </trkpt>
      <trkpt lat="45.5585" lon="6.59313">
        <ele>1586.471</ele>
        <time>2020-01-27 09:56:36</time>
      </trkpt>
      <trkpt lat="45.55849" lon="6.59317">
        <ele>1586.4695</ele>
        <time>2020-01-27 09:56:39</time>
      </trkpt>
      <trkpt lat="45.55849" lon="6.59319">
        <ele>1585.6321</ele>
        <time>2020-01-27 09:56:40</time>
      </trkpt>
      <trkpt lat="45.55849" lon="6.59322">
        <ele>1583.6279</ele>
        <time>2020-01-27 09:56:43</time>
      </trkpt>
      <trkpt lat="45.55849" lon="6.59323">
        <ele>1583.6475</ele>
        <time>2020-01-27 09:56:44</time>
      </trkpt>
      <trkpt lat="45.55849" lon="6.59325">
        <ele>1583.8667</ele>
        <time>2020-01-27 09:56:45</time>
      </trkpt>
      <trkpt lat="45.5585" lon="6.59327">
        <ele>1583.814</ele>
        <time>2020-01-27 09:56:47</time>
      </trkpt>
      <trkpt lat="45.5585" lon="6.59328">
        <ele>1582.898</ele>
        <time>2020-01-27 09:56:48</time>
      </trkpt>
      <trkpt lat="45.5585" lon="6.59328">
        <ele>1585.0112</ele>
        <time>2020-01-27 09:56:50</time>
      </trkpt>
      <trkpt lat="45.55851" lon="6.59328">
        <ele>1585.4922</ele>
        <time>2020-01-27 09:56:51</time>
      </trkpt>
      <trkpt lat="45.55852" lon="6.59328">
        <ele>1585.1858</ele>
        <time>2020-01-27 09:56:52</time>
      </trkpt>
      <trkpt lat="45.55853" lon="6.5933">
        <ele>1584.3506</ele>
        <time>2020-01-27 09:56:54</time>
      </trkpt>
      <trkpt lat="45.55853" lon="6.59331">
        <ele>1584.8718</ele>
        <time>2020-01-27 09:56:55</time>
      </trkpt>
      <trkpt lat="45.55853" lon="6.59332">
        <ele>1586.4294</ele>
        <time>2020-01-27 09:56:56</time>
      </trkpt>
      <trkpt lat="45.55855" lon="6.59335">
        <ele>1589.0522</ele>
        <time>2020-01-27 09:56:59</time>
      </trkpt>
      <trkpt lat="45.55857" lon="6.59337">
        <ele>1590.0112</ele>
        <time>2020-01-27 09:57:01</time>
      </trkpt>
      <trkpt lat="45.55858" lon="6.59339">
        <ele>1589.7188</ele>
        <time>2020-01-27 09:57:02</time>
      </trkpt>
      <trkpt lat="45.55858" lon="6.5934">
        <ele>1590.4846</ele>
        <time>2020-01-27 09:57:03</time>
      </trkpt>
      <trkpt lat="45.55859" lon="6.59342">
        <ele>1590.1177</ele>
        <time>2020-01-27 09:57:05</time>
      </trkpt>
      <trkpt lat="45.5586" lon="6.59345">
        <ele>1589.3171</ele>
        <time>2020-01-27 09:57:08</time>
      </trkpt>
      <trkpt lat="45.55862" lon="6.59347">
        <ele>1589.2573</ele>
        <time>2020-01-27 09:57:10</time>
      </trkpt>
      <trkpt lat="45.55863" lon="6.5935">
        <ele>1588.7144</ele>
        <time>2020-01-27 09:57:12</time>
      </trkpt>
      <trkpt lat="45.55863" lon="6.59352">
        <ele>1588.6343</ele>
        <time>2020-01-27 09:57:13</time>
      </trkpt>
      <trkpt lat="45.55863" lon="6.59354">
        <ele>1587.96</ele>
        <time>2020-01-27 09:57:14</time>
      </trkpt>
      <trkpt lat="45.55862" lon="6.59355">
        <ele>1588.3652</ele>
        <time>2020-01-27 09:57:15</time>
      </trkpt>
      <trkpt lat="45.55862" lon="6.59357">
        <ele>1589.737</ele>
        <time>2020-01-27 09:57:16</time>
      </trkpt>
      <trkpt lat="45.55862" lon="6.59359">
        <ele>1589.2378</ele>
        <time>2020-01-27 09:57:17</time>
      </trkpt>
      <trkpt lat="45.55861" lon="6.5936">
        <ele>1590.4619</ele>
        <time>2020-01-27 09:57:19</time>
      </trkpt>
      <trkpt lat="45.55862" lon="6.59364">
        <ele>1589.4849</ele>
        <time>2020-01-27 09:57:21</time>
      </trkpt>
      <trkpt lat="45.55861" lon="6.59365">
        <ele>1589.8623</ele>
        <time>2020-01-27 09:57:22</time>
      </trkpt>
      <trkpt lat="45.55861" lon="6.59366">
        <ele>1589.4326</ele>
        <time>2020-01-27 09:57:23</time>
      </trkpt>
      <trkpt lat="45.55862" lon="6.59369">
        <ele>1588.9221</ele>
        <time>2020-01-27 09:57:24</time>
      </trkpt>
      <trkpt lat="45.55864" lon="6.59375">
        <ele>1588.9285</ele>
        <time>2020-01-27 09:57:29</time>
      </trkpt>
      <trkpt lat="45.55864" lon="6.59376">
        <ele>1588.2495</ele>
        <time>2020-01-27 09:57:30</time>
      </trkpt>
      <trkpt lat="45.55865" lon="6.59377">
        <ele>1589.8682</ele>
        <time>2020-01-27 09:57:31</time>
      </trkpt>
      <trkpt lat="45.55866" lon="6.59379">
        <ele>1589.573</ele>
        <time>2020-01-27 09:57:33</time>
      </trkpt>
      <trkpt lat="45.55866" lon="6.59379">
        <ele>1589.8613</ele>
        <time>2020-01-27 09:57:34</time>
      </trkpt>
      <trkpt lat="45.55867" lon="6.59382">
        <ele>1589.8071</ele>
        <time>2020-01-27 09:57:36</time>
      </trkpt>
      <trkpt lat="45.55865" lon="6.59384">
        <ele>1590.1919</ele>
        <time>2020-01-27 09:57:39</time>
      </trkpt>
      <trkpt lat="45.55865" lon="6.59386">
        <ele>1590.8389</ele>
        <time>2020-01-27 09:57:40</time>
      </trkpt>
      <trkpt lat="45.55865" lon="6.59387">
        <ele>1591.354</ele>
        <time>2020-01-27 09:57:41</time>
      </trkpt>
      <trkpt lat="45.55865" lon="6.59387">
        <ele>1592.06</ele>
        <time>2020-01-27 09:57:43</time>
      </trkpt>
      <trkpt lat="45.55865" lon="6.59387">
        <ele>1592.8469</ele>
        <time>2020-01-27 09:57:44</time>
      </trkpt>
      <trkpt lat="45.55866" lon="6.59388">
        <ele>1593.2976</ele>
        <time>2020-01-27 09:57:45</time>
      </trkpt>
      <trkpt lat="45.55865" lon="6.59389">
        <ele>1592.4099</ele>
        <time>2020-01-27 09:57:46</time>
      </trkpt>
      <trkpt lat="45.55865" lon="6.5939">
        <ele>1593.3083</ele>
        <time>2020-01-27 09:57:47</time>
      </trkpt>
      <trkpt lat="45.55866" lon="6.59391">
        <ele>1593.5632</ele>
        <time>2020-01-27 09:57:48</time>
      </trkpt>
      <trkpt lat="45.55867" lon="6.59394">
        <ele>1592.4873</ele>
        <time>2020-01-27 09:57:50</time>
      </trkpt>
      <trkpt lat="45.55868" lon="6.59396">
        <ele>1591.3022</ele>
        <time>2020-01-27 09:57:52</time>
      </trkpt>
      <trkpt lat="45.55868" lon="6.59397">
        <ele>1591.0137</ele>
        <time>2020-01-27 09:57:53</time>
      </trkpt>
      <trkpt lat="45.55868" lon="6.59398">
        <ele>1592.4421</ele>
        <time>2020-01-27 09:57:59</time>
      </trkpt>
      <trkpt lat="45.55868" lon="6.59397">
        <ele>1591.7188</ele>
        <time>2020-01-27 09:58:00</time>
      </trkpt>
      <trkpt lat="45.5587" lon="6.59397">
        <ele>1590.9316</ele>
        <time>2020-01-27 09:58:02</time>
      </trkpt>
      <trkpt lat="45.55871" lon="6.59396">
        <ele>1590.8628</ele>
        <time>2020-01-27 09:58:03</time>
      </trkpt>
      <trkpt lat="45.55872" lon="6.59396">
        <ele>1590.1963</ele>
        <time>2020-01-27 09:58:04</time>
      </trkpt>
      <trkpt lat="45.55874" lon="6.59394">
        <ele>1591.9929</ele>
        <time>2020-01-27 09:58:06</time>
      </trkpt>
      <trkpt lat="45.55874" lon="6.59394">
        <ele>1592.2437</ele>
        <time>2020-01-27 09:58:07</time>
      </trkpt>
      <trkpt lat="45.55875" lon="6.59393">
        <ele>1591.3833</ele>
        <time>2020-01-27 09:58:08</time>
      </trkpt>
      <trkpt lat="45.55875" lon="6.5939">
        <ele>1589.9749</ele>
        <time>2020-01-27 09:58:10</time>
      </trkpt>
      <trkpt lat="45.55875" lon="6.59389">
        <ele>1589.7505</ele>
        <time>2020-01-27 09:58:12</time>
      </trkpt>
      <trkpt lat="45.55874" lon="6.59388">
        <ele>1589.6816</ele>
        <time>2020-01-27 09:58:14</time>
      </trkpt>
      <trkpt lat="45.55874" lon="6.59388">
        <ele>1590.3174</ele>
        <time>2020-01-27 09:58:17</time>
      </trkpt>
      <trkpt lat="45.55874" lon="6.59387">
        <ele>1589.4336</ele>
        <time>2020-01-27 09:58:18</time>
      </trkpt>
      <trkpt lat="45.55874" lon="6.59387">
        <ele>1589.6562</ele>
        <time>2020-01-27 09:58:19</time>
      </trkpt>
      <trkpt lat="45.55874" lon="6.59386">
        <ele>1589.333</ele>
        <time>2020-01-27 09:58:20</time>
      </trkpt>
      <trkpt lat="45.55874" lon="6.59386">
        <ele>1589.771</ele>
        <time>2020-01-27 09:58:22</time>
      </trkpt>
      <trkpt lat="45.55874" lon="6.59384">
        <ele>1589.9907</ele>
        <time>2020-01-27 09:58:24</time>
      </trkpt>
      <trkpt lat="45.55874" lon="6.59383">
        <ele>1589.6853</ele>
        <time>2020-01-27 09:58:25</time>
      </trkpt>
      <trkpt lat="45.55875" lon="6.5938">
        <ele>1590.324</ele>
        <time>2020-01-27 09:58:27</time>
      </trkpt>
      <trkpt lat="45.55876" lon="6.59378">
        <ele>1589.9766</ele>
        <time>2020-01-27 09:58:28</time>
      </trkpt>
      <trkpt lat="45.55877" lon="6.59376">
        <ele>1591.0938</ele>
        <time>2020-01-27 09:58:29</time>
      </trkpt>
      <trkpt lat="45.55877" lon="6.59374">
        <ele>1591.9202</ele>
        <time>2020-01-27 09:58:30</time>
      </trkpt>
      <trkpt lat="45.55879" lon="6.59372">
        <ele>1593.6445</ele>
        <time>2020-01-27 09:58:32</time>
      </trkpt>
      <trkpt lat="45.55879" lon="6.59372">
        <ele>1594.5173</ele>
        <time>2020-01-27 09:58:33</time>
      </trkpt>
      <trkpt lat="45.55879" lon="6.59371">
        <ele>1594.7368</ele>
        <time>2020-01-27 09:58:34</time>
      </trkpt>
      <trkpt lat="45.55879" lon="6.5937">
        <ele>1595.3008</ele>
        <time>2020-01-27 09:58:35</time>
      </trkpt>
      <trkpt lat="45.5588" lon="6.59369">
        <ele>1596.313</ele>
        <time>2020-01-27 09:58:36</time>
      </trkpt>
      <trkpt lat="45.55881" lon="6.59367">
        <ele>1595.3394</ele>
        <time>2020-01-27 09:58:38</time>
      </trkpt>
      <trkpt lat="45.55884" lon="6.59362">
        <ele>1597.5046</ele>
        <time>2020-01-27 09:58:42</time>
      </trkpt>
      <trkpt lat="45.55884" lon="6.5936">
        <ele>1597.8699</ele>
        <time>2020-01-27 09:58:43</time>
      </trkpt>
      <trkpt lat="45.55884" lon="6.5936">
        <ele>1594.9343</ele>
        <time>2020-01-27 09:58:44</time>
      </trkpt>
      <trkpt lat="45.55883" lon="6.5936">
        <ele>1596.8882</ele>
        <time>2020-01-27 09:58:46</time>
      </trkpt>
      <trkpt lat="45.55883" lon="6.59359">
        <ele>1596.5725</ele>
        <time>2020-01-27 09:58:47</time>
      </trkpt>
      <trkpt lat="45.55884" lon="6.59359">
        <ele>1596.4407</ele>
        <time>2020-01-27 09:58:48</time>
      </trkpt>
      <trkpt lat="45.55884" lon="6.59358">
        <ele>1595.9592</ele>
        <time>2020-01-27 09:58:50</time>
      </trkpt>
      <trkpt lat="45.55884" lon="6.59356">
        <ele>1596.1772</ele>
        <time>2020-01-27 09:58:51</time>
      </trkpt>
      <trkpt lat="45.55884" lon="6.59356">
        <ele>1595.5273</ele>
        <time>2020-01-27 09:58:52</time>
      </trkpt>
      <trkpt lat="45.55884" lon="6.59354">
        <ele>1595.8787</ele>
        <time>2020-01-27 09:58:55</time>
      </trkpt>
      <trkpt lat="45.55884" lon="6.59353">
        <ele>1596.4453</ele>
        <time>2020-01-27 09:58:56</time>
      </trkpt>
      <trkpt lat="45.55885" lon="6.59352">
        <ele>1596.0454</ele>
        <time>2020-01-27 09:58:57</time>
      </trkpt>
      <trkpt lat="45.55887" lon="6.59346">
        <ele>1597.4099</ele>
        <time>2020-01-27 09:59:01</time>
      </trkpt>
      <trkpt lat="45.55888" lon="6.59342">
        <ele>1595.6587</ele>
        <time>2020-01-27 09:59:04</time>
      </trkpt>
      <trkpt lat="45.55889" lon="6.5934">
        <ele>1595.0913</ele>
        <time>2020-01-27 09:59:07</time>
      </trkpt>
      <trkpt lat="45.55889" lon="6.59339">
        <ele>1596.646</ele>
        <time>2020-01-27 09:59:09</time>
      </trkpt>
      <trkpt lat="45.55889" lon="6.59339">
        <ele>1595.1943</ele>
        <time>2020-01-27 09:59:10</time>
      </trkpt>
      <trkpt lat="45.55889" lon="6.59338">
        <ele>1596.3916</ele>
        <time>2020-01-27 09:59:11</time>
      </trkpt>
      <trkpt lat="45.55888" lon="6.59337">
        <ele>1597.5166</ele>
        <time>2020-01-27 09:59:12</time>
      </trkpt>
      <trkpt lat="45.55887" lon="6.59334">
        <ele>1595.4868</ele>
        <time>2020-01-27 09:59:27</time>
      </trkpt>
      <trkpt lat="45.55887" lon="6.59333">
        <ele>1595.7666</ele>
        <time>2020-01-27 09:59:28</time>
      </trkpt>
      <trkpt lat="45.55888" lon="6.59332">
        <ele>1595.2197</ele>
        <time>2020-01-27 09:59:29</time>
      </trkpt>
      <trkpt lat="45.55888" lon="6.59331">
        <ele>1594.7224</ele>
        <time>2020-01-27 09:59:30</time>
      </trkpt>
      <trkpt lat="45.55889" lon="6.59329">
        <ele>1597.2256</ele>
        <time>2020-01-27 09:59:31</time>
      </trkpt>
      <trkpt lat="45.5589" lon="6.59323">
        <ele>1598.377</ele>
        <time>2020-01-27 09:59:35</time>
      </trkpt>
      <trkpt lat="45.5589" lon="6.59322">
        <ele>1599.4033</ele>
        <time>2020-01-27 09:59:36</time>
      </trkpt>
      <trkpt lat="45.5589" lon="6.59321">
        <ele>1600.6833</ele>
        <time>2020-01-27 09:59:37</time>
      </trkpt>
      <trkpt lat="45.55889" lon="6.59318">
        <ele>1601.9092</ele>
        <time>2020-01-27 09:59:39</time>
      </trkpt>
      <trkpt lat="45.55889" lon="6.59317">
        <ele>1603.1948</ele>
        <time>2020-01-27 09:59:42</time>
      </trkpt>
      <trkpt lat="45.55889" lon="6.59315">
        <ele>1605.7158</ele>
        <time>2020-01-27 09:59:44</time>
      </trkpt>
      <trkpt lat="45.5589" lon="6.5931">
        <ele>1609.8652</ele>
        <time>2020-01-27 09:59:56</time>
      </trkpt>
      <trkpt lat="45.5589" lon="6.5931">
        <ele>1610.9204</ele>
        <time>2020-01-27 09:59:57</time>
      </trkpt>
      <trkpt lat="45.5589" lon="6.59308">
        <ele>1612.3154</ele>
        <time>2020-01-27 09:59:59</time>
      </trkpt>
      <trkpt lat="45.5589" lon="6.59306">
        <ele>1610.9087</ele>
        <time>2020-01-27 10:00:01</time>
      </trkpt>
      <trkpt lat="45.55889" lon="6.59302">
        <ele>1610.5918</ele>
        <time>2020-01-27 10:00:07</time>
      </trkpt>
      <trkpt lat="45.55889" lon="6.59301">
        <ele>1611.1777</ele>
        <time>2020-01-27 10:00:08</time>
      </trkpt>
      <trkpt lat="45.55888" lon="6.59294">
        <ele>1605.9307</ele>
        <time>2020-01-27 10:00:14</time>
      </trkpt>
      <trkpt lat="45.55889" lon="6.59293">
        <ele>1606.6941</ele>
        <time>2020-01-27 10:00:15</time>
      </trkpt>
      <trkpt lat="45.55889" lon="6.59293">
        <ele>1606.772</ele>
        <time>2020-01-27 10:00:16</time>
      </trkpt>
      <trkpt lat="45.55889" lon="6.59292">
        <ele>1608.0281</ele>
        <time>2020-01-27 10:00:17</time>
      </trkpt>
      <trkpt lat="45.55889" lon="6.5929">
        <ele>1607.5464</ele>
        <time>2020-01-27 10:00:18</time>
      </trkpt>
      <trkpt lat="45.55888" lon="6.59289">
        <ele>1606.9734</ele>
        <time>2020-01-27 10:00:19</time>
      </trkpt>
      <trkpt lat="45.55886" lon="6.59284">
        <ele>1607.3447</ele>
        <time>2020-01-27 10:00:23</time>
      </trkpt>
      <trkpt lat="45.55886" lon="6.5928">
        <ele>1606.3354</ele>
        <time>2020-01-27 10:00:25</time>
      </trkpt>
      <trkpt lat="45.55885" lon="6.59279">
        <ele>1606.8574</ele>
        <time>2020-01-27 10:00:26</time>
      </trkpt>
      <trkpt lat="45.55884" lon="6.59277">
        <ele>1607.8169</ele>
        <time>2020-01-27 10:00:28</time>
      </trkpt>
      <trkpt lat="45.55883" lon="6.59276">
        <ele>1607.1277</ele>
        <time>2020-01-27 10:00:29</time>
      </trkpt>
      <trkpt lat="45.55882" lon="6.59276">
        <ele>1607.5308</ele>
        <time>2020-01-27 10:00:30</time>
      </trkpt>
      <trkpt lat="45.55881" lon="6.59274">
        <ele>1606.5005</ele>
        <time>2020-01-27 10:00:31</time>
      </trkpt>
      <trkpt lat="45.55881" lon="6.59271">
        <ele>1606.3018</ele>
        <time>2020-01-27 10:00:33</time>
      </trkpt>
      <trkpt lat="45.55881" lon="6.5927">
        <ele>1605.4548</ele>
        <time>2020-01-27 10:00:34</time>
      </trkpt>
      <trkpt lat="45.55882" lon="6.59267">
        <ele>1606.2546</ele>
        <time>2020-01-27 10:00:37</time>
      </trkpt>
      <trkpt lat="45.55883" lon="6.59265">
        <ele>1606.4521</ele>
        <time>2020-01-27 10:00:38</time>
      </trkpt>
      <trkpt lat="45.55884" lon="6.59264">
        <ele>1603.9141</ele>
        <time>2020-01-27 10:00:40</time>
      </trkpt>
      <trkpt lat="45.55884" lon="6.59263">
        <ele>1603.679</ele>
        <time>2020-01-27 10:00:41</time>
      </trkpt>
      <trkpt lat="45.55885" lon="6.59261">
        <ele>1604.2869</ele>
        <time>2020-01-27 10:00:44</time>
      </trkpt>
      <trkpt lat="45.55886" lon="6.59258">
        <ele>1603.4109</ele>
        <time>2020-01-27 10:00:46</time>
      </trkpt>
      <trkpt lat="45.55887" lon="6.59256">
        <ele>1602.9116</ele>
        <time>2020-01-27 10:00:47</time>
      </trkpt>
      <trkpt lat="45.55887" lon="6.59255">
        <ele>1606.013</ele>
        <time>2020-01-27 10:00:48</time>
      </trkpt>
      <trkpt lat="45.55887" lon="6.59255">
        <ele>1605.6487</ele>
        <time>2020-01-27 10:00:49</time>
      </trkpt>
      <trkpt lat="45.55886" lon="6.59254">
        <ele>1605.5728</ele>
        <time>2020-01-27 10:00:50</time>
      </trkpt>
      <trkpt lat="45.55886" lon="6.59253">
        <ele>1606.6846</ele>
        <time>2020-01-27 10:00:51</time>
      </trkpt>
      <trkpt lat="45.55886" lon="6.59251">
        <ele>1605.3081</ele>
        <time>2020-01-27 10:00:53</time>
      </trkpt>
      <trkpt lat="45.55886" lon="6.59249">
        <ele>1605.1606</ele>
        <time>2020-01-27 10:00:54</time>
      </trkpt>
      <trkpt lat="45.55888" lon="6.59245">
        <ele>1605.8567</ele>
        <time>2020-01-27 10:00:57</time>
      </trkpt>
      <trkpt lat="45.55888" lon="6.59243">
        <ele>1606.0261</ele>
        <time>2020-01-27 10:00:58</time>
      </trkpt>
      <trkpt lat="45.55888" lon="6.59242">
        <ele>1606.0034</ele>
        <time>2020-01-27 10:00:59</time>
      </trkpt>
      <trkpt lat="45.55889" lon="6.5924">
        <ele>1608.123</ele>
        <time>2020-01-27 10:01:04</time>
      </trkpt>
      <trkpt lat="45.55889" lon="6.59239">
        <ele>1609.1284</ele>
        <time>2020-01-27 10:01:05</time>
      </trkpt>
      <trkpt lat="45.55888" lon="6.59238">
        <ele>1608.4761</ele>
        <time>2020-01-27 10:01:06</time>
      </trkpt>
      <trkpt lat="45.55888" lon="6.59238">
        <ele>1609.3208</ele>
        <time>2020-01-27 10:01:07</time>
      </trkpt>
      <trkpt lat="45.55888" lon="6.59237">
        <ele>1609.582</ele>
        <time>2020-01-27 10:01:08</time>
      </trkpt>
      <trkpt lat="45.55889" lon="6.59235">
        <ele>1610.2866</ele>
        <time>2020-01-27 10:01:11</time>
      </trkpt>
      <trkpt lat="45.55888" lon="6.59234">
        <ele>1610.706</ele>
        <time>2020-01-27 10:01:13</time>
      </trkpt>
      <trkpt lat="45.55888" lon="6.59232">
        <ele>1610.8657</ele>
        <time>2020-01-27 10:01:16</time>
      </trkpt>
      <trkpt lat="45.55888" lon="6.59228">
        <ele>1609.7368</ele>
        <time>2020-01-27 10:01:19</time>
      </trkpt>
      <trkpt lat="45.55888" lon="6.59227">
        <ele>1610.419</ele>
        <time>2020-01-27 10:01:20</time>
      </trkpt>
      <trkpt lat="45.55889" lon="6.59224">
        <ele>1611.9331</ele>
        <time>2020-01-27 10:01:23</time>
      </trkpt>
      <trkpt lat="45.55889" lon="6.59222">
        <ele>1611.8975</ele>
        <time>2020-01-27 10:01:24</time>
      </trkpt>
      <trkpt lat="45.55889" lon="6.5922">
        <ele>1611.5696</ele>
        <time>2020-01-27 10:01:25</time>
      </trkpt>
      <trkpt lat="45.55889" lon="6.5922">
        <ele>1611.6719</ele>
        <time>2020-01-27 10:01:26</time>
      </trkpt>
      <trkpt lat="45.55889" lon="6.59219">
        <ele>1613.4893</ele>
        <time>2020-01-27 10:01:27</time>
      </trkpt>
      <trkpt lat="45.55885" lon="6.59214">
        <ele>1619.8643</ele>
        <time>2020-01-27 10:01:33</time>
      </trkpt>
      <trkpt lat="45.55885" lon="6.59215">
        <ele>1617.0688</ele>
        <time>2020-01-27 10:01:34</time>
      </trkpt>
      <trkpt lat="45.55886" lon="6.59214">
        <ele>1618.1206</ele>
        <time>2020-01-27 10:01:37</time>
      </trkpt>
      <trkpt lat="45.55885" lon="6.59213">
        <ele>1618.0415</ele>
        <time>2020-01-27 10:01:38</time>
      </trkpt>
      <trkpt lat="45.55886" lon="6.59213">
        <ele>1618.8843</ele>
        <time>2020-01-27 10:01:39</time>
      </trkpt>
      <trkpt lat="45.55887" lon="6.59211">
        <ele>1617.1382</ele>
        <time>2020-01-27 10:01:43</time>
      </trkpt>
      <trkpt lat="45.55887" lon="6.59211">
        <ele>1618.0037</ele>
        <time>2020-01-27 10:01:44</time>
      </trkpt>
      <trkpt lat="45.55888" lon="6.5921">
        <ele>1617.782</ele>
        <time>2020-01-27 10:01:45</time>
      </trkpt>
      <trkpt lat="45.55889" lon="6.59209">
        <ele>1617.9707</ele>
        <time>2020-01-27 10:01:46</time>
      </trkpt>
      <trkpt lat="45.5589" lon="6.59208">
        <ele>1618.4146</ele>
        <time>2020-01-27 10:01:47</time>
      </trkpt>
      <trkpt lat="45.55892" lon="6.59206">
        <ele>1619.1157</ele>
        <time>2020-01-27 10:01:48</time>
      </trkpt>
      <trkpt lat="45.55893" lon="6.59205">
        <ele>1618.7573</ele>
        <time>2020-01-27 10:01:50</time>
      </trkpt>
      <trkpt lat="45.55894" lon="6.592">
        <ele>1621.3701</ele>
        <time>2020-01-27 10:01:53</time>
      </trkpt>
      <trkpt lat="45.55895" lon="6.59199">
        <ele>1621.2087</ele>
        <time>2020-01-27 10:01:54</time>
      </trkpt>
      <trkpt lat="45.55895" lon="6.59197">
        <ele>1617.7305</ele>
        <time>2020-01-27 10:01:57</time>
      </trkpt>
      <trkpt lat="45.55896" lon="6.59192">
        <ele>1618.0632</ele>
        <time>2020-01-27 10:02:00</time>
      </trkpt>
      <trkpt lat="45.55896" lon="6.59191">
        <ele>1619.0825</ele>
        <time>2020-01-27 10:02:05</time>
      </trkpt>
      <trkpt lat="45.55896" lon="6.5919">
        <ele>1619.2949</ele>
        <time>2020-01-27 10:02:06</time>
      </trkpt>
      <trkpt lat="45.55897" lon="6.59189">
        <ele>1620.4348</ele>
        <time>2020-01-27 10:02:11</time>
      </trkpt>
      <trkpt lat="45.55896" lon="6.59188">
        <ele>1621.5376</ele>
        <time>2020-01-27 10:02:12</time>
      </trkpt>
      <trkpt lat="45.55897" lon="6.59186">
        <ele>1621.6599</ele>
        <time>2020-01-27 10:02:18</time>
      </trkpt>
      <trkpt lat="45.55897" lon="6.59186">
        <ele>1621.3013</ele>
        <time>2020-01-27 10:02:19</time>
      </trkpt>
      <trkpt lat="45.55896" lon="6.59181">
        <ele>1618.522</ele>
        <time>2020-01-27 10:02:36</time>
      </trkpt>
      <trkpt lat="45.55896" lon="6.59179">
        <ele>1618.9375</ele>
        <time>2020-01-27 10:02:37</time>
      </trkpt>
      <trkpt lat="45.55895" lon="6.59179">
        <ele>1620.1265</ele>
        <time>2020-01-27 10:02:38</time>
      </trkpt>
      <trkpt lat="45.55895" lon="6.59177">
        <ele>1621.0688</ele>
        <time>2020-01-27 10:02:39</time>
      </trkpt>
      <trkpt lat="45.55894" lon="6.59175">
        <ele>1618.5459</ele>
        <time>2020-01-27 10:02:41</time>
      </trkpt>
      <trkpt lat="45.55894" lon="6.59169">
        <ele>1621.7161</ele>
        <time>2020-01-27 10:02:48</time>
      </trkpt>
      <trkpt lat="45.55893" lon="6.59167">
        <ele>1622.4194</ele>
        <time>2020-01-27 10:02:50</time>
      </trkpt>
      <trkpt lat="45.55892" lon="6.59163">
        <ele>1622.875</ele>
        <time>2020-01-27 10:02:56</time>
      </trkpt>
      <trkpt lat="45.55892" lon="6.59162">
        <ele>1624.4604</ele>
        <time>2020-01-27 10:02:57</time>
      </trkpt>
      <trkpt lat="45.55892" lon="6.59157">
        <ele>1624.6238</ele>
        <time>2020-01-27 10:03:01</time>
      </trkpt>
      <trkpt lat="45.55891" lon="6.59156">
        <ele>1626.3335</ele>
        <time>2020-01-27 10:03:02</time>
      </trkpt>
      <trkpt lat="45.55891" lon="6.59155">
        <ele>1626.9297</ele>
        <time>2020-01-27 10:03:03</time>
      </trkpt>
      <trkpt lat="45.55891" lon="6.59154">
        <ele>1625.6633</ele>
        <time>2020-01-27 10:03:04</time>
      </trkpt>
      <trkpt lat="45.55891" lon="6.59152">
        <ele>1624.4648</ele>
        <time>2020-01-27 10:03:06</time>
      </trkpt>
      <trkpt lat="45.55892" lon="6.59149">
        <ele>1624.6191</ele>
        <time>2020-01-27 10:03:07</time>
      </trkpt>
      <trkpt lat="45.55894" lon="6.59145">
        <ele>1625.0786</ele>
        <time>2020-01-27 10:03:11</time>
      </trkpt>
      <trkpt lat="45.55894" lon="6.59143">
        <ele>1624.7366</ele>
        <time>2020-01-27 10:03:12</time>
      </trkpt>
      <trkpt lat="45.55893" lon="6.59141">
        <ele>1623.7195</ele>
        <time>2020-01-27 10:03:14</time>
      </trkpt>
      <trkpt lat="45.55894" lon="6.59139">
        <ele>1624.6875</ele>
        <time>2020-01-27 10:03:16</time>
      </trkpt>
      <trkpt lat="45.55894" lon="6.59138">
        <ele>1625.0393</ele>
        <time>2020-01-27 10:03:17</time>
      </trkpt>
      <trkpt lat="45.55894" lon="6.59138">
        <ele>1626.0303</ele>
        <time>2020-01-27 10:03:18</time>
      </trkpt>
      <trkpt lat="45.55894" lon="6.59136">
        <ele>1623.0608</ele>
        <time>2020-01-27 10:03:19</time>
      </trkpt>
      <trkpt lat="45.55894" lon="6.59135">
        <ele>1623.3967</ele>
        <time>2020-01-27 10:03:20</time>
      </trkpt>
      <trkpt lat="45.55893" lon="6.59133">
        <ele>1624.1506</ele>
        <time>2020-01-27 10:03:22</time>
      </trkpt>
      <trkpt lat="45.55893" lon="6.59131">
        <ele>1624.7354</ele>
        <time>2020-01-27 10:03:23</time>
      </trkpt>
      <trkpt lat="45.55893" lon="6.5913">
        <ele>1624.4775</ele>
        <time>2020-01-27 10:03:24</time>
      </trkpt>
      <trkpt lat="45.55894" lon="6.59129">
        <ele>1625.1497</ele>
        <time>2020-01-27 10:03:25</time>
      </trkpt>
      <trkpt lat="45.55894" lon="6.59128">
        <ele>1625.9487</ele>
        <time>2020-01-27 10:03:26</time>
      </trkpt>
      <trkpt lat="45.55894" lon="6.59127">
        <ele>1625.5225</ele>
        <time>2020-01-27 10:03:27</time>
      </trkpt>
      <trkpt lat="45.55893" lon="6.59126">
        <ele>1624.574</ele>
        <time>2020-01-27 10:03:28</time>
      </trkpt>
      <trkpt lat="45.55892" lon="6.59125">
        <ele>1623.7314</ele>
        <time>2020-01-27 10:03:29</time>
      </trkpt>
      <trkpt lat="45.55892" lon="6.59122">
        <ele>1622.8401</ele>
        <time>2020-01-27 10:03:31</time>
      </trkpt>
      <trkpt lat="45.55893" lon="6.59119">
        <ele>1622.9673</ele>
        <time>2020-01-27 10:03:32</time>
      </trkpt>
      <trkpt lat="45.55894" lon="6.59118">
        <ele>1622.6162</ele>
        <time>2020-01-27 10:03:33</time>
      </trkpt>
      <trkpt lat="45.55895" lon="6.59114">
        <ele>1626.7881</ele>
        <time>2020-01-27 10:03:35</time>
      </trkpt>
      <trkpt lat="45.55894" lon="6.59113">
        <ele>1627.8325</ele>
        <time>2020-01-27 10:03:36</time>
      </trkpt>
      <trkpt lat="45.55894" lon="6.59112">
        <ele>1626.8613</ele>
        <time>2020-01-27 10:03:37</time>
      </trkpt>
      <trkpt lat="45.55894" lon="6.59111">
        <ele>1626.2817</ele>
        <time>2020-01-27 10:03:38</time>
      </trkpt>
      <trkpt lat="45.55894" lon="6.5911">
        <ele>1625.8228</ele>
        <time>2020-01-27 10:03:39</time>
      </trkpt>
      <trkpt lat="45.55893" lon="6.59109">
        <ele>1625.136</ele>
        <time>2020-01-27 10:03:40</time>
      </trkpt>
      <trkpt lat="45.55893" lon="6.59108">
        <ele>1624.6147</ele>
        <time>2020-01-27 10:03:41</time>
      </trkpt>
      <trkpt lat="45.55892" lon="6.59107">
        <ele>1626.7842</ele>
        <time>2020-01-27 10:03:42</time>
      </trkpt>
      <trkpt lat="45.55889" lon="6.59104">
        <ele>1626.5176</ele>
        <time>2020-01-27 10:03:46</time>
      </trkpt>
      <trkpt lat="45.55889" lon="6.59103">
        <ele>1627.0688</ele>
        <time>2020-01-27 10:03:47</time>
      </trkpt>
      <trkpt lat="45.55887" lon="6.59096">
        <ele>1624.2007</ele>
        <time>2020-01-27 10:03:56</time>
      </trkpt>
      <trkpt lat="45.55888" lon="6.59093">
        <ele>1624.9126</ele>
        <time>2020-01-27 10:03:59</time>
      </trkpt>
      <trkpt lat="45.55889" lon="6.59091">
        <ele>1624.3081</ele>
        <time>2020-01-27 10:04:01</time>
      </trkpt>
      <trkpt lat="45.5589" lon="6.59089">
        <ele>1623.4585</ele>
        <time>2020-01-27 10:04:03</time>
      </trkpt>
      <trkpt lat="45.5589" lon="6.59088">
        <ele>1621.6943</ele>
        <time>2020-01-27 10:04:04</time>
      </trkpt>
      <trkpt lat="45.5589" lon="6.59086">
        <ele>1621.9565</ele>
        <time>2020-01-27 10:04:07</time>
      </trkpt>
      <trkpt lat="45.55889" lon="6.59086">
        <ele>1620.8921</ele>
        <time>2020-01-27 10:04:08</time>
      </trkpt>
      <trkpt lat="45.55889" lon="6.59085">
        <ele>1621.4648</ele>
        <time>2020-01-27 10:04:09</time>
      </trkpt>
      <trkpt lat="45.55889" lon="6.59084">
        <ele>1622.4575</ele>
        <time>2020-01-27 10:04:10</time>
      </trkpt>
      <trkpt lat="45.55888" lon="6.59083">
        <ele>1622.5342</ele>
        <time>2020-01-27 10:04:12</time>
      </trkpt>
      <trkpt lat="45.55888" lon="6.59083">
        <ele>1622.6318</ele>
        <time>2020-01-27 10:04:13</time>
      </trkpt>
      <trkpt lat="45.55889" lon="6.5908">
        <ele>1623.6377</ele>
        <time>2020-01-27 10:04:14</time>
      </trkpt>
      <trkpt lat="45.55889" lon="6.59078">
        <ele>1624.06</ele>
        <time>2020-01-27 10:04:15</time>
      </trkpt>
      <trkpt lat="45.55888" lon="6.59078">
        <ele>1624.3306</ele>
        <time>2020-01-27 10:04:16</time>
      </trkpt>
      <trkpt lat="45.55888" lon="6.59075">
        <ele>1625.4272</ele>
        <time>2020-01-27 10:04:18</time>
      </trkpt>
      <trkpt lat="45.55888" lon="6.59075">
        <ele>1625.7715</ele>
        <time>2020-01-27 10:04:19</time>
      </trkpt>
      <trkpt lat="45.55888" lon="6.59075">
        <ele>1625.3721</ele>
        <time>2020-01-27 10:04:20</time>
      </trkpt>
      <trkpt lat="45.55888" lon="6.59074">
        <ele>1624.6567</ele>
        <time>2020-01-27 10:04:21</time>
      </trkpt>
      <trkpt lat="45.55888" lon="6.59073">
        <ele>1625.1697</ele>
        <time>2020-01-27 10:04:22</time>
      </trkpt>
      <trkpt lat="45.55888" lon="6.59071">
        <ele>1625.1282</ele>
        <time>2020-01-27 10:04:23</time>
      </trkpt>
      <trkpt lat="45.55889" lon="6.59067">
        <ele>1625.8027</ele>
        <time>2020-01-27 10:04:27</time>
      </trkpt>
      <trkpt lat="45.55888" lon="6.59066">
        <ele>1621.3809</ele>
        <time>2020-01-27 10:04:29</time>
      </trkpt>
      <trkpt lat="45.55888" lon="6.59065">
        <ele>1620.6926</ele>
        <time>2020-01-27 10:04:30</time>
      </trkpt>
      <trkpt lat="45.55888" lon="6.59065">
        <ele>1621.0566</ele>
        <time>2020-01-27 10:04:31</time>
      </trkpt>
      <trkpt lat="45.55887" lon="6.59064">
        <ele>1622.6282</ele>
        <time>2020-01-27 10:04:33</time>
      </trkpt>
      <trkpt lat="45.55887" lon="6.59063">
        <ele>1622.6221</ele>
        <time>2020-01-27 10:04:34</time>
      </trkpt>
      <trkpt lat="45.55887" lon="6.59062">
        <ele>1621.0452</ele>
        <time>2020-01-27 10:04:36</time>
      </trkpt>
      <trkpt lat="45.55887" lon="6.5906">
        <ele>1621.0972</ele>
        <time>2020-01-27 10:04:37</time>
      </trkpt>
      <trkpt lat="45.55886" lon="6.5906">
        <ele>1620.7261</ele>
        <time>2020-01-27 10:04:38</time>
      </trkpt>
      <trkpt lat="45.55886" lon="6.59059">
        <ele>1621.0017</ele>
        <time>2020-01-27 10:04:39</time>
      </trkpt>
      <trkpt lat="45.55886" lon="6.59059">
        <ele>1620.0383</ele>
        <time>2020-01-27 10:04:40</time>
      </trkpt>
      <trkpt lat="45.55886" lon="6.59057">
        <ele>1619.4702</ele>
        <time>2020-01-27 10:04:42</time>
      </trkpt>
      <trkpt lat="45.55886" lon="6.59056">
        <ele>1620.7832</ele>
        <time>2020-01-27 10:04:43</time>
      </trkpt>
      <trkpt lat="45.55885" lon="6.59054">
        <ele>1623.7761</ele>
        <time>2020-01-27 10:04:51</time>
      </trkpt>
      <trkpt lat="45.55885" lon="6.59052">
        <ele>1625.1738</ele>
        <time>2020-01-27 10:04:53</time>
      </trkpt>
      <trkpt lat="45.55885" lon="6.59051">
        <ele>1625.2808</ele>
        <time>2020-01-27 10:04:55</time>
      </trkpt>
      <trkpt lat="45.55884" lon="6.5905">
        <ele>1624.073</ele>
        <time>2020-01-27 10:04:56</time>
      </trkpt>
      <trkpt lat="45.55883" lon="6.59049">
        <ele>1623.8193</ele>
        <time>2020-01-27 10:04:57</time>
      </trkpt>
      <trkpt lat="45.55882" lon="6.59048">
        <ele>1624.7803</ele>
        <time>2020-01-27 10:04:58</time>
      </trkpt>
      <trkpt lat="45.55882" lon="6.59048">
        <ele>1626.6187</ele>
        <time>2020-01-27 10:05:00</time>
      </trkpt>
      <trkpt lat="45.55882" lon="6.59047">
        <ele>1627.3054</ele>
        <time>2020-01-27 10:05:01</time>
      </trkpt>
      <trkpt lat="45.55882" lon="6.59046">
        <ele>1627.6406</ele>
        <time>2020-01-27 10:05:02</time>
      </trkpt>
      <trkpt lat="45.55882" lon="6.59044">
        <ele>1627.4048</ele>
        <time>2020-01-27 10:05:03</time>
      </trkpt>
      <trkpt lat="45.55882" lon="6.59043">
        <ele>1627.563</ele>
        <time>2020-01-27 10:05:05</time>
      </trkpt>
      <trkpt lat="45.55881" lon="6.59043">
        <ele>1629.9209</ele>
        <time>2020-01-27 10:05:06</time>
      </trkpt>
      <trkpt lat="45.55881" lon="6.59042">
        <ele>1630.8223</ele>
        <time>2020-01-27 10:05:07</time>
      </trkpt>
      <trkpt lat="45.55881" lon="6.59041">
        <ele>1631.9021</ele>
        <time>2020-01-27 10:05:08</time>
      </trkpt>
      <trkpt lat="45.55878" lon="6.59039">
        <ele>1627.1565</ele>
        <time>2020-01-27 10:05:19</time>
      </trkpt>
      <trkpt lat="45.55878" lon="6.59038">
        <ele>1628.3442</ele>
        <time>2020-01-27 10:05:20</time>
      </trkpt>
      <trkpt lat="45.55877" lon="6.59036">
        <ele>1628.1904</ele>
        <time>2020-01-27 10:05:21</time>
      </trkpt>
      <trkpt lat="45.55877" lon="6.59034">
        <ele>1627.7031</ele>
        <time>2020-01-27 10:05:23</time>
      </trkpt>
      <trkpt lat="45.55876" lon="6.59033">
        <ele>1628.4827</ele>
        <time>2020-01-27 10:05:24</time>
      </trkpt>
      <trkpt lat="45.55873" lon="6.59027">
        <ele>1631.249</ele>
        <time>2020-01-27 10:05:28</time>
      </trkpt>
      <trkpt lat="45.55872" lon="6.59026">
        <ele>1632.0791</ele>
        <time>2020-01-27 10:05:29</time>
      </trkpt>
      <trkpt lat="45.55872" lon="6.59024">
        <ele>1632.3545</ele>
        <time>2020-01-27 10:05:32</time>
      </trkpt>
      <trkpt lat="45.55871" lon="6.59023">
        <ele>1632.9653</ele>
        <time>2020-01-27 10:05:36</time>
      </trkpt>
      <trkpt lat="45.5587" lon="6.59021">
        <ele>1631.0535</ele>
        <time>2020-01-27 10:05:39</time>
      </trkpt>
      <trkpt lat="45.55867" lon="6.5902">
        <ele>1630.1792</ele>
        <time>2020-01-27 10:05:47</time>
      </trkpt>
      <trkpt lat="45.55865" lon="6.59017">
        <ele>1626.0911</ele>
        <time>2020-01-27 10:05:49</time>
      </trkpt>
      <trkpt lat="45.55863" lon="6.59015">
        <ele>1626.3274</ele>
        <time>2020-01-27 10:05:51</time>
      </trkpt>
      <trkpt lat="45.55862" lon="6.59015">
        <ele>1627.4658</ele>
        <time>2020-01-27 10:05:52</time>
      </trkpt>
      <trkpt lat="45.55861" lon="6.59014">
        <ele>1627.4155</ele>
        <time>2020-01-27 10:05:53</time>
      </trkpt>
      <trkpt lat="45.5586" lon="6.59012">
        <ele>1628.2668</ele>
        <time>2020-01-27 10:05:54</time>
      </trkpt>
      <trkpt lat="45.5586" lon="6.5901">
        <ele>1629.1763</ele>
        <time>2020-01-27 10:05:55</time>
      </trkpt>
      <trkpt lat="45.55858" lon="6.59009">
        <ele>1629.602</ele>
        <time>2020-01-27 10:05:57</time>
      </trkpt>
      <trkpt lat="45.55857" lon="6.59005">
        <ele>1633.3374</ele>
        <time>2020-01-27 10:06:00</time>
      </trkpt>
      <trkpt lat="45.55857" lon="6.59004">
        <ele>1631.749</ele>
        <time>2020-01-27 10:06:02</time>
      </trkpt>
      <trkpt lat="45.55856" lon="6.59003">
        <ele>1631.6411</ele>
        <time>2020-01-27 10:06:03</time>
      </trkpt>
      <trkpt lat="45.55854" lon="6.59003">
        <ele>1633.4651</ele>
        <time>2020-01-27 10:06:05</time>
      </trkpt>
      <trkpt lat="45.55846" lon="6.59005">
        <ele>1636.1587</ele>
        <time>2020-01-27 10:06:12</time>
      </trkpt>
      <trkpt lat="45.55844" lon="6.59005">
        <ele>1638.408</ele>
        <time>2020-01-27 10:06:14</time>
      </trkpt>
      <trkpt lat="45.55843" lon="6.59006">
        <ele>1638.5762</ele>
        <time>2020-01-27 10:06:15</time>
      </trkpt>
      <trkpt lat="45.55841" lon="6.59006">
        <ele>1637.4756</ele>
        <time>2020-01-27 10:06:17</time>
      </trkpt>
      <trkpt lat="45.55841" lon="6.59005">
        <ele>1637.0493</ele>
        <time>2020-01-27 10:06:18</time>
      </trkpt>
      <trkpt lat="45.55843" lon="6.58999">
        <ele>1636.146</ele>
        <time>2020-01-27 10:06:24</time>
      </trkpt>
      <trkpt lat="45.55844" lon="6.58998">
        <ele>1637.779</ele>
        <time>2020-01-27 10:06:25</time>
      </trkpt>
      <trkpt lat="45.55843" lon="6.58992">
        <ele>1635.4854</ele>
        <time>2020-01-27 10:06:40</time>
      </trkpt>
      <trkpt lat="45.55842" lon="6.58988">
        <ele>1631.2949</ele>
        <time>2020-01-27 10:06:42</time>
      </trkpt>
      <trkpt lat="45.55841" lon="6.58986">
        <ele>1630.417</ele>
        <time>2020-01-27 10:06:43</time>
      </trkpt>
      <trkpt lat="45.55839" lon="6.58984">
        <ele>1630.5859</ele>
        <time>2020-01-27 10:06:44</time>
      </trkpt>
      <trkpt lat="45.55833" lon="6.58979">
        <ele>1630.6069</ele>
        <time>2020-01-27 10:06:50</time>
      </trkpt>
      <trkpt lat="45.55831" lon="6.58976">
        <ele>1629.7878</ele>
        <time>2020-01-27 10:06:57</time>
      </trkpt>
      <trkpt lat="45.55831" lon="6.58975">
        <ele>1630.6465</ele>
        <time>2020-01-27 10:06:58</time>
      </trkpt>
      <trkpt lat="45.55831" lon="6.58974">
        <ele>1631.0674</ele>
        <time>2020-01-27 10:07:02</time>
      </trkpt>
      <trkpt lat="45.55832" lon="6.58974">
        <ele>1630.1025</ele>
        <time>2020-01-27 10:07:03</time>
      </trkpt>
      <trkpt lat="45.55831" lon="6.58971">
        <ele>1630.5808</ele>
        <time>2020-01-27 10:07:08</time>
      </trkpt>
      <trkpt lat="45.55831" lon="6.5897">
        <ele>1630.3706</ele>
        <time>2020-01-27 10:07:09</time>
      </trkpt>
      <trkpt lat="45.5583" lon="6.58968">
        <ele>1634.1016</ele>
        <time>2020-01-27 10:07:13</time>
      </trkpt>
      <trkpt lat="45.55831" lon="6.58967">
        <ele>1634.0942</ele>
        <time>2020-01-27 10:07:17</time>
      </trkpt>
      <trkpt lat="45.55831" lon="6.58966">
        <ele>1634.3284</ele>
        <time>2020-01-27 10:07:18</time>
      </trkpt>
      <trkpt lat="45.55829" lon="6.58964">
        <ele>1634.1338</ele>
        <time>2020-01-27 10:07:22</time>
      </trkpt>
      <trkpt lat="45.55829" lon="6.58963">
        <ele>1632.8828</ele>
        <time>2020-01-27 10:07:23</time>
      </trkpt>
      <trkpt lat="45.55828" lon="6.58962">
        <ele>1632.8518</ele>
        <time>2020-01-27 10:07:24</time>
      </trkpt>
      <trkpt lat="45.55828" lon="6.58961">
        <ele>1632.1748</ele>
        <time>2020-01-27 10:07:25</time>
      </trkpt>
      <trkpt lat="45.55827" lon="6.5896">
        <ele>1631.8047</ele>
        <time>2020-01-27 10:07:26</time>
      </trkpt>
      <trkpt lat="45.55827" lon="6.58959">
        <ele>1632.8457</ele>
        <time>2020-01-27 10:07:27</time>
      </trkpt>
      <trkpt lat="45.55827" lon="6.58957">
        <ele>1632.0161</ele>
        <time>2020-01-27 10:07:28</time>
      </trkpt>
      <trkpt lat="45.55827" lon="6.58956">
        <ele>1632.0491</ele>
        <time>2020-01-27 10:07:29</time>
      </trkpt>
      <trkpt lat="45.55828" lon="6.58955">
        <ele>1633.083</ele>
        <time>2020-01-27 10:07:30</time>
      </trkpt>
      <trkpt lat="45.55829" lon="6.58953">
        <ele>1634.3833</ele>
        <time>2020-01-27 10:07:31</time>
      </trkpt>
      <trkpt lat="45.5583" lon="6.58952">
        <ele>1635.1646</ele>
        <time>2020-01-27 10:07:32</time>
      </trkpt>
      <trkpt lat="45.55829" lon="6.5895">
        <ele>1635.3015</ele>
        <time>2020-01-27 10:07:37</time>
      </trkpt>
      <trkpt lat="45.55828" lon="6.58949">
        <ele>1635.8257</ele>
        <time>2020-01-27 10:07:38</time>
      </trkpt>
      <trkpt lat="45.55828" lon="6.58949">
        <ele>1639.1914</ele>
        <time>2020-01-27 10:08:08</time>
      </trkpt>
      <trkpt lat="45.55828" lon="6.58949">
        <ele>1639.1006</ele>
        <time>2020-01-27 10:08:39</time>
      </trkpt>
      <trkpt lat="45.55828" lon="6.58949">
        <ele>1639.1455</ele>
        <time>2020-01-27 10:09:09</time>
      </trkpt>
      <trkpt lat="45.55828" lon="6.58949">
        <ele>1639.169</ele>
        <time>2020-01-27 10:09:42</time>
      </trkpt>
      <trkpt lat="45.55828" lon="6.58949">
        <ele>1639.106</ele>
        <time>2020-01-27 10:10:15</time>
      </trkpt>
      <trkpt lat="45.55828" lon="6.58949">
        <ele>1639.0847</ele>
        <time>2020-01-27 10:10:47</time>
      </trkpt>
      <trkpt lat="45.55828" lon="6.58949">
        <ele>1639.0532</ele>
        <time>2020-01-27 10:11:21</time>
      </trkpt>
      <trkpt lat="45.55828" lon="6.58949">
        <ele>1638.9795</ele>
        <time>2020-01-27 10:11:51</time>
      </trkpt>
      <trkpt lat="45.55828" lon="6.58949">
        <ele>1638.9819</ele>
        <time>2020-01-27 10:12:22</time>
      </trkpt>
      <trkpt lat="45.55828" lon="6.58949">
        <ele>1638.9248</ele>
        <time>2020-01-27 10:12:56</time>
      </trkpt>
      <trkpt lat="45.55828" lon="6.58949">
        <ele>1638.9258</ele>
        <time>2020-01-27 10:13:29</time>
      </trkpt>
      <trkpt lat="45.55828" lon="6.58949">
        <ele>1638.9138</ele>
        <time>2020-01-27 10:14:03</time>
      </trkpt>
      <trkpt lat="45.55828" lon="6.58949">
        <ele>1638.8315</ele>
        <time>2020-01-27 10:14:36</time>
      </trkpt>
      <trkpt lat="45.55828" lon="6.58949">
        <ele>1638.749</ele>
        <time>2020-01-27 10:15:11</time>
      </trkpt>
      <trkpt lat="45.55827" lon="6.58949">
        <ele>1638.3186</ele>
        <time>2020-01-27 10:15:40</time>
      </trkpt>
      <trkpt lat="45.55827" lon="6.5895">
        <ele>1639.1104</ele>
        <time>2020-01-27 10:15:41</time>
      </trkpt>
      <trkpt lat="45.55826" lon="6.58951">
        <ele>1638.0908</ele>
        <time>2020-01-27 10:16:13</time>
      </trkpt>
      <trkpt lat="45.55826" lon="6.58951">
        <ele>1638.1152</ele>
        <time>2020-01-27 10:16:43</time>
      </trkpt>
      <trkpt lat="45.55826" lon="6.58951">
        <ele>1638.4978</ele>
        <time>2020-01-27 10:17:02</time>
      </trkpt>
      <trkpt lat="45.55826" lon="6.5895">
        <ele>1638.2417</ele>
        <time>2020-01-27 10:17:03</time>
      </trkpt>
      <trkpt lat="45.55827" lon="6.58948">
        <ele>1637.5435</ele>
        <time>2020-01-27 10:17:05</time>
      </trkpt>
      <trkpt lat="45.55827" lon="6.58947">
        <ele>1636.9507</ele>
        <time>2020-01-27 10:17:06</time>
      </trkpt>
      <trkpt lat="45.55825" lon="6.58944">
        <ele>1638.563</ele>
        <time>2020-01-27 10:17:10</time>
      </trkpt>
      <trkpt lat="45.55825" lon="6.58943">
        <ele>1638.5205</ele>
        <time>2020-01-27 10:17:11</time>
      </trkpt>
      <trkpt lat="45.55825" lon="6.58942">
        <ele>1638.6724</ele>
        <time>2020-01-27 10:17:12</time>
      </trkpt>
      <trkpt lat="45.55825" lon="6.58941">
        <ele>1638.5322</ele>
        <time>2020-01-27 10:17:13</time>
      </trkpt>
      <trkpt lat="45.55825" lon="6.58941">
        <ele>1638.6089</ele>
        <time>2020-01-27 10:17:14</time>
      </trkpt>
      <trkpt lat="45.55828" lon="6.5894">
        <ele>1636.6743</ele>
        <time>2020-01-27 10:17:18</time>
      </trkpt>
      <trkpt lat="45.55828" lon="6.58939">
        <ele>1634.937</ele>
        <time>2020-01-27 10:17:49</time>
      </trkpt>
      <trkpt lat="45.55828" lon="6.58938">
        <ele>1634.9551</ele>
        <time>2020-01-27 10:18:00</time>
      </trkpt>
      <trkpt lat="45.55829" lon="6.58937">
        <ele>1634.6094</ele>
        <time>2020-01-27 10:18:01</time>
      </trkpt>
      <trkpt lat="45.5583" lon="6.58936">
        <ele>1634.6943</ele>
        <time>2020-01-27 10:18:02</time>
      </trkpt>
      <trkpt lat="45.5583" lon="6.58935">
        <ele>1635.054</ele>
        <time>2020-01-27 10:18:03</time>
      </trkpt>
      <trkpt lat="45.55832" lon="6.58933">
        <ele>1635.1514</ele>
        <time>2020-01-27 10:18:05</time>
      </trkpt>
      <trkpt lat="45.55837" lon="6.58931">
        <ele>1633.4978</ele>
        <time>2020-01-27 10:18:09</time>
      </trkpt>
      <trkpt lat="45.55838" lon="6.5893">
        <ele>1633.8389</ele>
        <time>2020-01-27 10:18:10</time>
      </trkpt>
      <trkpt lat="45.5584" lon="6.5893">
        <ele>1634.6953</ele>
        <time>2020-01-27 10:18:12</time>
      </trkpt>
      <trkpt lat="45.55841" lon="6.58929">
        <ele>1634.4863</ele>
        <time>2020-01-27 10:18:13</time>
      </trkpt>
      <trkpt lat="45.55841" lon="6.58929">
        <ele>1633.6843</ele>
        <time>2020-01-27 10:18:14</time>
      </trkpt>
      <trkpt lat="45.55844" lon="6.58928">
        <ele>1632.1941</ele>
        <time>2020-01-27 10:18:18</time>
      </trkpt>
      <trkpt lat="45.5585" lon="6.58924">
        <ele>1634.0171</ele>
        <time>2020-01-27 10:18:27</time>
      </trkpt>
      <trkpt lat="45.55853" lon="6.58921">
        <ele>1635.4253</ele>
        <time>2020-01-27 10:18:42</time>
      </trkpt>
      <trkpt lat="45.55854" lon="6.58921">
        <ele>1636.4927</ele>
        <time>2020-01-27 10:18:43</time>
      </trkpt>
      <trkpt lat="45.55854" lon="6.58921">
        <ele>1635.8081</ele>
        <time>2020-01-27 10:18:44</time>
      </trkpt>
      <trkpt lat="45.55855" lon="6.58921">
        <ele>1636.3848</ele>
        <time>2020-01-27 10:18:45</time>
      </trkpt>
      <trkpt lat="45.55857" lon="6.5892">
        <ele>1641.627</ele>
        <time>2020-01-27 10:18:47</time>
      </trkpt>
      <trkpt lat="45.55858" lon="6.58918">
        <ele>1641.5776</ele>
        <time>2020-01-27 10:18:50</time>
      </trkpt>
      <trkpt lat="45.5586" lon="6.58918">
        <ele>1639.5674</ele>
        <time>2020-01-27 10:18:52</time>
      </trkpt>
      <trkpt lat="45.5586" lon="6.58916">
        <ele>1639.3357</ele>
        <time>2020-01-27 10:18:53</time>
      </trkpt>
      <trkpt lat="45.55861" lon="6.58916">
        <ele>1637.4102</ele>
        <time>2020-01-27 10:18:54</time>
      </trkpt>
      <trkpt lat="45.55862" lon="6.58914">
        <ele>1638.9956</ele>
        <time>2020-01-27 10:18:55</time>
      </trkpt>
      <trkpt lat="45.55862" lon="6.58914">
        <ele>1638.977</ele>
        <time>2020-01-27 10:18:56</time>
      </trkpt>
      <trkpt lat="45.55862" lon="6.58914">
        <ele>1637.002</ele>
        <time>2020-01-27 10:18:57</time>
      </trkpt>
      <trkpt lat="45.55862" lon="6.58914">
        <ele>1638.8687</ele>
        <time>2020-01-27 10:19:01</time>
      </trkpt>
      <trkpt lat="45.55864" lon="6.58913">
        <ele>1637.915</ele>
        <time>2020-01-27 10:19:03</time>
      </trkpt>
      <trkpt lat="45.55867" lon="6.5891">
        <ele>1636.9312</ele>
        <time>2020-01-27 10:19:06</time>
      </trkpt>
      <trkpt lat="45.55867" lon="6.58908">
        <ele>1637.4741</ele>
        <time>2020-01-27 10:19:09</time>
      </trkpt>
      <trkpt lat="45.55868" lon="6.58908">
        <ele>1636.8335</ele>
        <time>2020-01-27 10:19:10</time>
      </trkpt>
      <trkpt lat="45.55868" lon="6.58906">
        <ele>1637.2595</ele>
        <time>2020-01-27 10:19:11</time>
      </trkpt>
      <trkpt lat="45.55868" lon="6.58904">
        <ele>1636.3901</ele>
        <time>2020-01-27 10:19:12</time>
      </trkpt>
      <trkpt lat="45.5587" lon="6.58902">
        <ele>1637.7329</ele>
        <time>2020-01-27 10:19:14</time>
      </trkpt>
      <trkpt lat="45.55873" lon="6.589">
        <ele>1638.4443</ele>
        <time>2020-01-27 10:19:16</time>
      </trkpt>
      <trkpt lat="45.55875" lon="6.58895">
        <ele>1637.0708</ele>
        <time>2020-01-27 10:19:19</time>
      </trkpt>
      <trkpt lat="45.55875" lon="6.58894">
        <ele>1638.4854</ele>
        <time>2020-01-27 10:19:20</time>
      </trkpt>
      <trkpt lat="45.55876" lon="6.58892">
        <ele>1639.7915</ele>
        <time>2020-01-27 10:19:21</time>
      </trkpt>
      <trkpt lat="45.55876" lon="6.58885">
        <ele>1641.0442</ele>
        <time>2020-01-27 10:19:25</time>
      </trkpt>
      <trkpt lat="45.5588" lon="6.58877">
        <ele>1639.7563</ele>
        <time>2020-01-27 10:19:30</time>
      </trkpt>
      <trkpt lat="45.55881" lon="6.58874">
        <ele>1640.3467</ele>
        <time>2020-01-27 10:19:32</time>
      </trkpt>
      <trkpt lat="45.55882" lon="6.58874">
        <ele>1638.206</ele>
        <time>2020-01-27 10:19:33</time>
      </trkpt>
      <trkpt lat="45.55883" lon="6.58872">
        <ele>1637.1978</ele>
        <time>2020-01-27 10:19:34</time>
      </trkpt>
      <trkpt lat="45.55883" lon="6.58871">
        <ele>1636.7949</ele>
        <time>2020-01-27 10:19:35</time>
      </trkpt>
      <trkpt lat="45.55884" lon="6.5887">
        <ele>1638.3511</ele>
        <time>2020-01-27 10:19:36</time>
      </trkpt>
      <trkpt lat="45.55886" lon="6.58869">
        <ele>1638.0708</ele>
        <time>2020-01-27 10:19:40</time>
      </trkpt>
      <trkpt lat="45.55887" lon="6.58868">
        <ele>1638.0713</ele>
        <time>2020-01-27 10:19:41</time>
      </trkpt>
      <trkpt lat="45.55888" lon="6.58867">
        <ele>1637.8701</ele>
        <time>2020-01-27 10:19:43</time>
      </trkpt>
      <trkpt lat="45.55889" lon="6.58867">
        <ele>1637.2134</ele>
        <time>2020-01-27 10:19:44</time>
      </trkpt>
      <trkpt lat="45.55889" lon="6.58866">
        <ele>1639.5771</ele>
        <time>2020-01-27 10:19:45</time>
      </trkpt>
      <trkpt lat="45.55891" lon="6.58865">
        <ele>1641.3413</ele>
        <time>2020-01-27 10:19:47</time>
      </trkpt>
      <trkpt lat="45.55892" lon="6.58865">
        <ele>1640.606</ele>
        <time>2020-01-27 10:19:52</time>
      </trkpt>
      <trkpt lat="45.55894" lon="6.58863">
        <ele>1639.4238</ele>
        <time>2020-01-27 10:19:53</time>
      </trkpt>
      <trkpt lat="45.55895" lon="6.58862">
        <ele>1640.0728</ele>
        <time>2020-01-27 10:19:54</time>
      </trkpt>
      <trkpt lat="45.55896" lon="6.58861">
        <ele>1641.1646</ele>
        <time>2020-01-27 10:19:58</time>
      </trkpt>
      <trkpt lat="45.55897" lon="6.5886">
        <ele>1641.2817</ele>
        <time>2020-01-27 10:19:59</time>
      </trkpt>
      <trkpt lat="45.55898" lon="6.58859">
        <ele>1640.0039</ele>
        <time>2020-01-27 10:20:00</time>
      </trkpt>
      <trkpt lat="45.55904" lon="6.58854">
        <ele>1639.1392</ele>
        <time>2020-01-27 10:20:04</time>
      </trkpt>
      <trkpt lat="45.55908" lon="6.58847">
        <ele>1638.2703</ele>
        <time>2020-01-27 10:20:09</time>
      </trkpt>
      <trkpt lat="45.55909" lon="6.58843">
        <ele>1637.9468</ele>
        <time>2020-01-27 10:20:12</time>
      </trkpt>
      <trkpt lat="45.55909" lon="6.58843">
        <ele>1637.3062</ele>
        <time>2020-01-27 10:20:13</time>
      </trkpt>
      <trkpt lat="45.5591" lon="6.58842">
        <ele>1636.7344</ele>
        <time>2020-01-27 10:20:15</time>
      </trkpt>
      <trkpt lat="45.55911" lon="6.58842">
        <ele>1637.4761</ele>
        <time>2020-01-27 10:20:16</time>
      </trkpt>
      <trkpt lat="45.55912" lon="6.58841">
        <ele>1636.981</ele>
        <time>2020-01-27 10:20:17</time>
      </trkpt>
      <trkpt lat="45.55913" lon="6.5884">
        <ele>1637.1694</ele>
        <time>2020-01-27 10:20:18</time>
      </trkpt>
      <trkpt lat="45.55914" lon="6.58839">
        <ele>1638.8408</ele>
        <time>2020-01-27 10:20:20</time>
      </trkpt>
      <trkpt lat="45.55917" lon="6.58838">
        <ele>1638.8657</ele>
        <time>2020-01-27 10:20:22</time>
      </trkpt>
      <trkpt lat="45.55918" lon="6.58837">
        <ele>1639.4492</ele>
        <time>2020-01-27 10:20:23</time>
      </trkpt>
      <trkpt lat="45.55919" lon="6.58836">
        <ele>1639.1965</ele>
        <time>2020-01-27 10:20:24</time>
      </trkpt>
      <trkpt lat="45.55919" lon="6.58835">
        <ele>1639.938</ele>
        <time>2020-01-27 10:20:25</time>
      </trkpt>
      <trkpt lat="45.55927" lon="6.58832">
        <ele>1638.1855</ele>
        <time>2020-01-27 10:20:33</time>
      </trkpt>
      <trkpt lat="45.55928" lon="6.58832">
        <ele>1637.2227</ele>
        <time>2020-01-27 10:20:34</time>
      </trkpt>
      <trkpt lat="45.55931" lon="6.5883">
        <ele>1638.5779</ele>
        <time>2020-01-27 10:20:37</time>
      </trkpt>
      <trkpt lat="45.55932" lon="6.58829">
        <ele>1639.7192</ele>
        <time>2020-01-27 10:20:38</time>
      </trkpt>
      <trkpt lat="45.55933" lon="6.58828">
        <ele>1640.5312</ele>
        <time>2020-01-27 10:20:39</time>
      </trkpt>
      <trkpt lat="45.55937" lon="6.58824">
        <ele>1639.5791</ele>
        <time>2020-01-27 10:20:43</time>
      </trkpt>
      <trkpt lat="45.5594" lon="6.58823">
        <ele>1639.5574</ele>
        <time>2020-01-27 10:20:45</time>
      </trkpt>
      <trkpt lat="45.55942" lon="6.58821">
        <ele>1640.4365</ele>
        <time>2020-01-27 10:20:47</time>
      </trkpt>
      <trkpt lat="45.55942" lon="6.58822">
        <ele>1640.835</ele>
        <time>2020-01-27 10:20:49</time>
      </trkpt>
      <trkpt lat="45.55943" lon="6.58821">
        <ele>1641.23</ele>
        <time>2020-01-27 10:20:50</time>
      </trkpt>
      <trkpt lat="45.55944" lon="6.58821">
        <ele>1640.7043</ele>
        <time>2020-01-27 10:20:52</time>
      </trkpt>
      <trkpt lat="45.55944" lon="6.58821">
        <ele>1640.8245</ele>
        <time>2020-01-27 10:20:53</time>
      </trkpt>
      <trkpt lat="45.55945" lon="6.5882">
        <ele>1640.946</ele>
        <time>2020-01-27 10:20:55</time>
      </trkpt>
      <trkpt lat="45.55948" lon="6.58818">
        <ele>1638.7563</ele>
        <time>2020-01-27 10:20:58</time>
      </trkpt>
      <trkpt lat="45.55948" lon="6.58817">
        <ele>1640.6069</ele>
        <time>2020-01-27 10:20:59</time>
      </trkpt>
      <trkpt lat="45.55949" lon="6.58816">
        <ele>1643.44</ele>
        <time>2020-01-27 10:21:01</time>
      </trkpt>
      <trkpt lat="45.55949" lon="6.58815">
        <ele>1642.9976</ele>
        <time>2020-01-27 10:21:02</time>
      </trkpt>
      <trkpt lat="45.5595" lon="6.58814">
        <ele>1643.9033</ele>
        <time>2020-01-27 10:21:03</time>
      </trkpt>
      <trkpt lat="45.55951" lon="6.58813">
        <ele>1644.479</ele>
        <time>2020-01-27 10:21:05</time>
      </trkpt>
      <trkpt lat="45.55953" lon="6.58809">
        <ele>1648.1216</ele>
        <time>2020-01-27 10:21:09</time>
      </trkpt>
      <trkpt lat="45.55953" lon="6.58808">
        <ele>1647.7319</ele>
        <time>2020-01-27 10:21:12</time>
      </trkpt>
      <trkpt lat="45.5596" lon="6.58803">
        <ele>1648.4038</ele>
        <time>2020-01-27 10:21:19</time>
      </trkpt>
      <trkpt lat="45.55961" lon="6.58803">
        <ele>1649.7864</ele>
        <time>2020-01-27 10:21:20</time>
      </trkpt>
      <trkpt lat="45.55962" lon="6.58802">
        <ele>1649.773</ele>
        <time>2020-01-27 10:21:22</time>
      </trkpt>
      <trkpt lat="45.55964" lon="6.58802">
        <ele>1650.2981</ele>
        <time>2020-01-27 10:21:23</time>
      </trkpt>
      <trkpt lat="45.55964" lon="6.58801">
        <ele>1650.4983</ele>
        <time>2020-01-27 10:21:24</time>
      </trkpt>
      <trkpt lat="45.55971" lon="6.58796">
        <ele>1650.1077</ele>
        <time>2020-01-27 10:21:30</time>
      </trkpt>
      <trkpt lat="45.55973" lon="6.58794">
        <ele>1650.0244</ele>
        <time>2020-01-27 10:21:32</time>
      </trkpt>
      <trkpt lat="45.55973" lon="6.58793">
        <ele>1651.3237</ele>
        <time>2020-01-27 10:21:33</time>
      </trkpt>
      <trkpt lat="45.55975" lon="6.5879">
        <ele>1651.9082</ele>
        <time>2020-01-27 10:21:35</time>
      </trkpt>
      <trkpt lat="45.55975" lon="6.58789">
        <ele>1651.1279</ele>
        <time>2020-01-27 10:21:36</time>
      </trkpt>
      <trkpt lat="45.55976" lon="6.58789">
        <ele>1650.8083</ele>
        <time>2020-01-27 10:21:37</time>
      </trkpt>
      <trkpt lat="45.55978" lon="6.58788">
        <ele>1652.0664</ele>
        <time>2020-01-27 10:21:39</time>
      </trkpt>
      <trkpt lat="45.55978" lon="6.58787">
        <ele>1650.1094</ele>
        <time>2020-01-27 10:21:40</time>
      </trkpt>
      <trkpt lat="45.55981" lon="6.58786">
        <ele>1651.1064</ele>
        <time>2020-01-27 10:21:43</time>
      </trkpt>
      <trkpt lat="45.55983" lon="6.58783">
        <ele>1650.054</ele>
        <time>2020-01-27 10:21:46</time>
      </trkpt>
      <trkpt lat="45.55985" lon="6.58782">
        <ele>1650.6011</ele>
        <time>2020-01-27 10:21:47</time>
      </trkpt>
      <trkpt lat="45.55986" lon="6.58781">
        <ele>1647.7861</ele>
        <time>2020-01-27 10:21:48</time>
      </trkpt>
      <trkpt lat="45.55986" lon="6.58779">
        <ele>1648.6028</ele>
        <time>2020-01-27 10:21:49</time>
      </trkpt>
      <trkpt lat="45.55987" lon="6.58778">
        <ele>1648.2334</ele>
        <time>2020-01-27 10:21:50</time>
      </trkpt>
      <trkpt lat="45.55988" lon="6.58776">
        <ele>1647.1729</ele>
        <time>2020-01-27 10:21:51</time>
      </trkpt>
      <trkpt lat="45.55988" lon="6.58775">
        <ele>1646.8237</ele>
        <time>2020-01-27 10:21:52</time>
      </trkpt>
      <trkpt lat="45.55989" lon="6.58773">
        <ele>1647.6714</ele>
        <time>2020-01-27 10:21:54</time>
      </trkpt>
      <trkpt lat="45.5599" lon="6.5877">
        <ele>1646.9299</ele>
        <time>2020-01-27 10:21:56</time>
      </trkpt>
      <trkpt lat="45.55991" lon="6.5877">
        <ele>1649.6707</ele>
        <time>2020-01-27 10:21:57</time>
      </trkpt>
      <trkpt lat="45.55992" lon="6.5877">
        <ele>1649.2363</ele>
        <time>2020-01-27 10:21:58</time>
      </trkpt>
      <trkpt lat="45.55996" lon="6.5877">
        <ele>1650.7109</ele>
        <time>2020-01-27 10:22:05</time>
      </trkpt>
      <trkpt lat="45.55998" lon="6.5877">
        <ele>1651.6436</ele>
        <time>2020-01-27 10:22:11</time>
      </trkpt>
      <trkpt lat="45.55998" lon="6.58769">
        <ele>1651.9033</ele>
        <time>2020-01-27 10:22:12</time>
      </trkpt>
      <trkpt lat="45.55999" lon="6.58767">
        <ele>1653.1191</ele>
        <time>2020-01-27 10:22:14</time>
      </trkpt>
      <trkpt lat="45.56007" lon="6.5876">
        <ele>1654.3894</ele>
        <time>2020-01-27 10:22:20</time>
      </trkpt>
      <trkpt lat="45.56008" lon="6.58759">
        <ele>1653.4893</ele>
        <time>2020-01-27 10:22:21</time>
      </trkpt>
      <trkpt lat="45.5601" lon="6.58758">
        <ele>1653.5642</ele>
        <time>2020-01-27 10:22:22</time>
      </trkpt>
      <trkpt lat="45.56011" lon="6.58757">
        <ele>1653.7002</ele>
        <time>2020-01-27 10:22:26</time>
      </trkpt>
      <trkpt lat="45.56012" lon="6.58757">
        <ele>1653.0085</ele>
        <time>2020-01-27 10:22:27</time>
      </trkpt>
      <trkpt lat="45.56013" lon="6.58756">
        <ele>1656.5083</ele>
        <time>2020-01-27 10:22:28</time>
      </trkpt>
      <trkpt lat="45.56014" lon="6.58754">
        <ele>1656.1589</ele>
        <time>2020-01-27 10:22:29</time>
      </trkpt>
      <trkpt lat="45.56014" lon="6.58752">
        <ele>1656.3723</ele>
        <time>2020-01-27 10:22:30</time>
      </trkpt>
      <trkpt lat="45.56018" lon="6.58748">
        <ele>1665.0242</ele>
        <time>2020-01-27 10:22:33</time>
      </trkpt>
      <trkpt lat="45.5602" lon="6.58747">
        <ele>1665.7795</ele>
        <time>2020-01-27 10:22:34</time>
      </trkpt>
      <trkpt lat="45.5602" lon="6.58745">
        <ele>1666.5632</ele>
        <time>2020-01-27 10:22:36</time>
      </trkpt>
      <trkpt lat="45.56021" lon="6.58744">
        <ele>1665.9741</ele>
        <time>2020-01-27 10:22:37</time>
      </trkpt>
      <trkpt lat="45.56022" lon="6.58744">
        <ele>1664.8887</ele>
        <time>2020-01-27 10:22:38</time>
      </trkpt>
      <trkpt lat="45.56023" lon="6.58742">
        <ele>1664.8511</ele>
        <time>2020-01-27 10:22:39</time>
      </trkpt>
      <trkpt lat="45.56024" lon="6.58742">
        <ele>1664.1782</ele>
        <time>2020-01-27 10:22:40</time>
      </trkpt>
      <trkpt lat="45.56024" lon="6.58742">
        <ele>1664.5178</ele>
        <time>2020-01-27 10:22:41</time>
      </trkpt>
      <trkpt lat="45.56025" lon="6.58741">
        <ele>1665.7715</ele>
        <time>2020-01-27 10:22:42</time>
      </trkpt>
      <trkpt lat="45.56025" lon="6.5874">
        <ele>1667.2024</ele>
        <time>2020-01-27 10:22:43</time>
      </trkpt>
      <trkpt lat="45.56029" lon="6.58735">
        <ele>1662.8501</ele>
        <time>2020-01-27 10:22:47</time>
      </trkpt>
      <trkpt lat="45.56031" lon="6.58734">
        <ele>1663.0342</ele>
        <time>2020-01-27 10:22:48</time>
      </trkpt>
      <trkpt lat="45.56033" lon="6.58733">
        <ele>1664.315</ele>
        <time>2020-01-27 10:22:50</time>
      </trkpt>
      <trkpt lat="45.56035" lon="6.58725">
        <ele>1668.0015</ele>
        <time>2020-01-27 10:22:58</time>
      </trkpt>
      <trkpt lat="45.56039" lon="6.58721">
        <ele>1672.7407</ele>
        <time>2020-01-27 10:23:02</time>
      </trkpt>
      <trkpt lat="45.5604" lon="6.58719">
        <ele>1673.7266</ele>
        <time>2020-01-27 10:23:03</time>
      </trkpt>
      <trkpt lat="45.5604" lon="6.58716">
        <ele>1670.9053</ele>
        <time>2020-01-27 10:23:05</time>
      </trkpt>
      <trkpt lat="45.5604" lon="6.58716">
        <ele>1667.728</ele>
        <time>2020-01-27 10:23:06</time>
      </trkpt>
      <trkpt lat="45.56041" lon="6.58715">
        <ele>1666.1958</ele>
        <time>2020-01-27 10:23:07</time>
      </trkpt>
      <trkpt lat="45.56043" lon="6.58714">
        <ele>1666.0393</ele>
        <time>2020-01-27 10:23:08</time>
      </trkpt>
      <trkpt lat="45.56043" lon="6.58714">
        <ele>1666.0654</ele>
        <time>2020-01-27 10:23:09</time>
      </trkpt>
      <trkpt lat="45.56045" lon="6.58712">
        <ele>1668.1982</ele>
        <time>2020-01-27 10:23:16</time>
      </trkpt>
      <trkpt lat="45.56047" lon="6.5871">
        <ele>1667.04</ele>
        <time>2020-01-27 10:23:18</time>
      </trkpt>
      <trkpt lat="45.56048" lon="6.58707">
        <ele>1665.2095</ele>
        <time>2020-01-27 10:23:20</time>
      </trkpt>
      <trkpt lat="45.56049" lon="6.58705">
        <ele>1665.2358</ele>
        <time>2020-01-27 10:23:22</time>
      </trkpt>
      <trkpt lat="45.56049" lon="6.58704">
        <ele>1666.5388</ele>
        <time>2020-01-27 10:23:23</time>
      </trkpt>
      <trkpt lat="45.5605" lon="6.58703">
        <ele>1665.3523</ele>
        <time>2020-01-27 10:23:24</time>
      </trkpt>
      <trkpt lat="45.5605" lon="6.58701">
        <ele>1664.7695</ele>
        <time>2020-01-27 10:23:25</time>
      </trkpt>
      <trkpt lat="45.56051" lon="6.58699">
        <ele>1665.252</ele>
        <time>2020-01-27 10:23:27</time>
      </trkpt>
      <trkpt lat="45.56053" lon="6.58695">
        <ele>1665.439</ele>
        <time>2020-01-27 10:23:30</time>
      </trkpt>
      <trkpt lat="45.56055" lon="6.58694">
        <ele>1666.2793</ele>
        <time>2020-01-27 10:23:32</time>
      </trkpt>
      <trkpt lat="45.56055" lon="6.58694">
        <ele>1665.1958</ele>
        <time>2020-01-27 10:23:33</time>
      </trkpt>
      <trkpt lat="45.56055" lon="6.58694">
        <ele>1665.8501</ele>
        <time>2020-01-27 10:23:34</time>
      </trkpt>
      <trkpt lat="45.56056" lon="6.58694">
        <ele>1666.8916</ele>
        <time>2020-01-27 10:23:35</time>
      </trkpt>
      <trkpt lat="45.56057" lon="6.58691">
        <ele>1668.2954</ele>
        <time>2020-01-27 10:23:38</time>
      </trkpt>
      <trkpt lat="45.56057" lon="6.5869">
        <ele>1669.69</ele>
        <time>2020-01-27 10:23:39</time>
      </trkpt>
      <trkpt lat="45.56058" lon="6.58688">
        <ele>1668.0261</ele>
        <time>2020-01-27 10:23:43</time>
      </trkpt>
      <trkpt lat="45.56059" lon="6.58687">
        <ele>1669.772</ele>
        <time>2020-01-27 10:23:44</time>
      </trkpt>
      <trkpt lat="45.56061" lon="6.58685">
        <ele>1668.5391</ele>
        <time>2020-01-27 10:23:47</time>
      </trkpt>
      <trkpt lat="45.56063" lon="6.58683">
        <ele>1668.1802</ele>
        <time>2020-01-27 10:23:48</time>
      </trkpt>
      <trkpt lat="45.56064" lon="6.58682">
        <ele>1669.0869</ele>
        <time>2020-01-27 10:23:49</time>
      </trkpt>
      <trkpt lat="45.56065" lon="6.58681">
        <ele>1668.8999</ele>
        <time>2020-01-27 10:23:50</time>
      </trkpt>
      <trkpt lat="45.56064" lon="6.5868">
        <ele>1670.188</ele>
        <time>2020-01-27 10:23:51</time>
      </trkpt>
      <trkpt lat="45.56065" lon="6.58676">
        <ele>1673.543</ele>
        <time>2020-01-27 10:23:56</time>
      </trkpt>
      <trkpt lat="45.56069" lon="6.58674">
        <ele>1668.2625</ele>
        <time>2020-01-27 10:24:00</time>
      </trkpt>
      <trkpt lat="45.5607" lon="6.58674">
        <ele>1668.0637</ele>
        <time>2020-01-27 10:24:01</time>
      </trkpt>
      <trkpt lat="45.56071" lon="6.58674">
        <ele>1668.0781</ele>
        <time>2020-01-27 10:24:02</time>
      </trkpt>
      <trkpt lat="45.56072" lon="6.58673">
        <ele>1667.1819</ele>
        <time>2020-01-27 10:24:03</time>
      </trkpt>
      <trkpt lat="45.56073" lon="6.58673">
        <ele>1666.4119</ele>
        <time>2020-01-27 10:24:04</time>
      </trkpt>
      <trkpt lat="45.56074" lon="6.58673">
        <ele>1665.4292</ele>
        <time>2020-01-27 10:24:05</time>
      </trkpt>
      <trkpt lat="45.56074" lon="6.58672">
        <ele>1667.2764</ele>
        <time>2020-01-27 10:24:06</time>
      </trkpt>
      <trkpt lat="45.56075" lon="6.58669">
        <ele>1665.8809</ele>
        <time>2020-01-27 10:24:10</time>
      </trkpt>
      <trkpt lat="45.56077" lon="6.58667">
        <ele>1666.7954</ele>
        <time>2020-01-27 10:24:13</time>
      </trkpt>
      <trkpt lat="45.56079" lon="6.58664">
        <ele>1666.6299</ele>
        <time>2020-01-27 10:24:16</time>
      </trkpt>
      <trkpt lat="45.56081" lon="6.58662">
        <ele>1666.731</ele>
        <time>2020-01-27 10:24:18</time>
      </trkpt>
      <trkpt lat="45.56082" lon="6.5866">
        <ele>1667.4336</ele>
        <time>2020-01-27 10:24:19</time>
      </trkpt>
      <trkpt lat="45.56082" lon="6.58659">
        <ele>1666.9849</ele>
        <time>2020-01-27 10:24:20</time>
      </trkpt>
      <trkpt lat="45.56084" lon="6.58657">
        <ele>1665.8706</ele>
        <time>2020-01-27 10:24:24</time>
      </trkpt>
      <trkpt lat="45.56085" lon="6.58656">
        <ele>1666.5835</ele>
        <time>2020-01-27 10:24:26</time>
      </trkpt>
      <trkpt lat="45.56087" lon="6.58654">
        <ele>1665.0352</ele>
        <time>2020-01-27 10:24:28</time>
      </trkpt>
      <trkpt lat="45.56087" lon="6.58653">
        <ele>1665.3635</ele>
        <time>2020-01-27 10:24:29</time>
      </trkpt>
      <trkpt lat="45.56088" lon="6.58652">
        <ele>1665.7319</ele>
        <time>2020-01-27 10:24:30</time>
      </trkpt>
      <trkpt lat="45.56089" lon="6.58651">
        <ele>1665.4243</ele>
        <time>2020-01-27 10:24:31</time>
      </trkpt>
      <trkpt lat="45.56092" lon="6.58648">
        <ele>1667.0112</ele>
        <time>2020-01-27 10:24:35</time>
      </trkpt>
      <trkpt lat="45.56093" lon="6.58647">
        <ele>1665.81</ele>
        <time>2020-01-27 10:24:36</time>
      </trkpt>
      <trkpt lat="45.56096" lon="6.58645">
        <ele>1665.6338</ele>
        <time>2020-01-27 10:24:39</time>
      </trkpt>
      <trkpt lat="45.56096" lon="6.58645">
        <ele>1665.5166</ele>
        <time>2020-01-27 10:24:40</time>
      </trkpt>
      <trkpt lat="45.56097" lon="6.58645">
        <ele>1666.8926</ele>
        <time>2020-01-27 10:24:41</time>
      </trkpt>
      <trkpt lat="45.56099" lon="6.58644">
        <ele>1667.5906</ele>
        <time>2020-01-27 10:24:43</time>
      </trkpt>
      <trkpt lat="45.561" lon="6.58644">
        <ele>1667.9407</ele>
        <time>2020-01-27 10:24:45</time>
      </trkpt>
      <trkpt lat="45.56101" lon="6.58644">
        <ele>1667.8428</ele>
        <time>2020-01-27 10:24:46</time>
      </trkpt>
      <trkpt lat="45.56105" lon="6.58642">
        <ele>1665.7185</ele>
        <time>2020-01-27 10:24:50</time>
      </trkpt>
      <trkpt lat="45.56105" lon="6.58642">
        <ele>1665.9565</ele>
        <time>2020-01-27 10:24:52</time>
      </trkpt>
      <trkpt lat="45.56107" lon="6.58641">
        <ele>1667.1841</ele>
        <time>2020-01-27 10:24:56</time>
      </trkpt>
      <trkpt lat="45.56108" lon="6.58641">
        <ele>1666.626</ele>
        <time>2020-01-27 10:24:57</time>
      </trkpt>
      <trkpt lat="45.56109" lon="6.58641">
        <ele>1666.9658</ele>
        <time>2020-01-27 10:24:58</time>
      </trkpt>
      <trkpt lat="45.5611" lon="6.58641">
        <ele>1666.5149</ele>
        <time>2020-01-27 10:24:59</time>
      </trkpt>
      <trkpt lat="45.5611" lon="6.58641">
        <ele>1666.7451</ele>
        <time>2020-01-27 10:25:00</time>
      </trkpt>
      <trkpt lat="45.56111" lon="6.5864">
        <ele>1667.1113</ele>
        <time>2020-01-27 10:25:01</time>
      </trkpt>
      <trkpt lat="45.56111" lon="6.5864">
        <ele>1666.8235</ele>
        <time>2020-01-27 10:25:02</time>
      </trkpt>
      <trkpt lat="45.56112" lon="6.58641">
        <ele>1668.3169</ele>
        <time>2020-01-27 10:25:03</time>
      </trkpt>
      <trkpt lat="45.56113" lon="6.5864">
        <ele>1668.1904</ele>
        <time>2020-01-27 10:25:08</time>
      </trkpt>
      <trkpt lat="45.56114" lon="6.58638">
        <ele>1668.9927</ele>
        <time>2020-01-27 10:25:10</time>
      </trkpt>
      <trkpt lat="45.56114" lon="6.58637">
        <ele>1670.188</ele>
        <time>2020-01-27 10:25:11</time>
      </trkpt>
      <trkpt lat="45.56114" lon="6.58637">
        <ele>1670.7202</ele>
        <time>2020-01-27 10:25:13</time>
      </trkpt>
      <trkpt lat="45.56118" lon="6.58635">
        <ele>1669.7051</ele>
        <time>2020-01-27 10:25:44</time>
      </trkpt>
      <trkpt lat="45.56119" lon="6.58632">
        <ele>1676.2861</ele>
        <time>2020-01-27 10:26:13</time>
      </trkpt>
      <trkpt lat="45.56119" lon="6.58632">
        <ele>1675.7847</ele>
        <time>2020-01-27 10:26:14</time>
      </trkpt>
      <trkpt lat="45.56121" lon="6.58634">
        <ele>1672.1179</ele>
        <time>2020-01-27 10:26:22</time>
      </trkpt>
      <trkpt lat="45.56122" lon="6.58634">
        <ele>1669.6665</ele>
        <time>2020-01-27 10:26:24</time>
      </trkpt>
      <trkpt lat="45.56122" lon="6.58634">
        <ele>1670.355</ele>
        <time>2020-01-27 10:26:25</time>
      </trkpt>
      <trkpt lat="45.56123" lon="6.58633">
        <ele>1671.1348</ele>
        <time>2020-01-27 10:26:27</time>
      </trkpt>
      <trkpt lat="45.56123" lon="6.58632">
        <ele>1669.627</ele>
        <time>2020-01-27 10:26:28</time>
      </trkpt>
      <trkpt lat="45.56125" lon="6.58631">
        <ele>1669.9382</ele>
        <time>2020-01-27 10:26:30</time>
      </trkpt>
      <trkpt lat="45.56129" lon="6.58622">
        <ele>1670.644</ele>
        <time>2020-01-27 10:26:40</time>
      </trkpt>
      <trkpt lat="45.56131" lon="6.5862">
        <ele>1668.6316</ele>
        <time>2020-01-27 10:26:42</time>
      </trkpt>
      <trkpt lat="45.56132" lon="6.58619">
        <ele>1669.0771</ele>
        <time>2020-01-27 10:26:43</time>
      </trkpt>
      <trkpt lat="45.56133" lon="6.58618">
        <ele>1668.0508</ele>
        <time>2020-01-27 10:26:44</time>
      </trkpt>
      <trkpt lat="45.56134" lon="6.58617">
        <ele>1670.2295</ele>
        <time>2020-01-27 10:26:47</time>
      </trkpt>
      <trkpt lat="45.56135" lon="6.58615">
        <ele>1673.0798</ele>
        <time>2020-01-27 10:26:49</time>
      </trkpt>
      <trkpt lat="45.56134" lon="6.58614">
        <ele>1674.4507</ele>
        <time>2020-01-27 10:26:50</time>
      </trkpt>
      <trkpt lat="45.56134" lon="6.58614">
        <ele>1674.2085</ele>
        <time>2020-01-27 10:26:52</time>
      </trkpt>
      <trkpt lat="45.56137" lon="6.5861">
        <ele>1676.062</ele>
        <time>2020-01-27 10:26:59</time>
      </trkpt>
      <trkpt lat="45.56137" lon="6.58609">
        <ele>1676.6074</ele>
        <time>2020-01-27 10:27:00</time>
      </trkpt>
      <trkpt lat="45.56139" lon="6.58609">
        <ele>1676.6445</ele>
        <time>2020-01-27 10:27:03</time>
      </trkpt>
      <trkpt lat="45.56138" lon="6.58609">
        <ele>1678.0327</ele>
        <time>2020-01-27 10:27:04</time>
      </trkpt>
      <trkpt lat="45.56138" lon="6.58609">
        <ele>1678.3247</ele>
        <time>2020-01-27 10:27:06</time>
      </trkpt>
      <trkpt lat="45.56138" lon="6.58609">
        <ele>1678.9658</ele>
        <time>2020-01-27 10:27:07</time>
      </trkpt>
      <trkpt lat="45.56139" lon="6.58611">
        <ele>1679.4678</ele>
        <time>2020-01-27 10:27:09</time>
      </trkpt>
      <trkpt lat="45.56141" lon="6.58613">
        <ele>1678.7097</ele>
        <time>2020-01-27 10:27:12</time>
      </trkpt>
      <trkpt lat="45.56141" lon="6.58614">
        <ele>1678.3682</ele>
        <time>2020-01-27 10:27:13</time>
      </trkpt>
      <trkpt lat="45.56143" lon="6.58617">
        <ele>1677.3542</ele>
        <time>2020-01-27 10:27:16</time>
      </trkpt>
      <trkpt lat="45.56145" lon="6.58623">
        <ele>1678.1448</ele>
        <time>2020-01-27 10:27:26</time>
      </trkpt>
      <trkpt lat="45.56145" lon="6.5863">
        <ele>1677.0969</ele>
        <time>2020-01-27 10:27:34</time>
      </trkpt>
      <trkpt lat="45.56146" lon="6.58631">
        <ele>1676.4048</ele>
        <time>2020-01-27 10:27:35</time>
      </trkpt>
      <trkpt lat="45.56146" lon="6.58633">
        <ele>1676.802</ele>
        <time>2020-01-27 10:27:37</time>
      </trkpt>
      <trkpt lat="45.56147" lon="6.58634">
        <ele>1676.6914</ele>
        <time>2020-01-27 10:27:38</time>
      </trkpt>
      <trkpt lat="45.56147" lon="6.58634">
        <ele>1676.7737</ele>
        <time>2020-01-27 10:27:39</time>
      </trkpt>
      <trkpt lat="45.56146" lon="6.58636">
        <ele>1679.3276</ele>
        <time>2020-01-27 10:27:45</time>
      </trkpt>
      <trkpt lat="45.56147" lon="6.58638">
        <ele>1677.3975</ele>
        <time>2020-01-27 10:27:46</time>
      </trkpt>
      <trkpt lat="45.56147" lon="6.58641">
        <ele>1676.6243</ele>
        <time>2020-01-27 10:27:47</time>
      </trkpt>
      <trkpt lat="45.56147" lon="6.58642">
        <ele>1677.8613</ele>
        <time>2020-01-27 10:27:48</time>
      </trkpt>
      <trkpt lat="45.56147" lon="6.58643">
        <ele>1676.1519</ele>
        <time>2020-01-27 10:27:49</time>
      </trkpt>
      <trkpt lat="45.56147" lon="6.58646">
        <ele>1676.3267</ele>
        <time>2020-01-27 10:27:51</time>
      </trkpt>
      <trkpt lat="45.56148" lon="6.58646">
        <ele>1676.0969</ele>
        <time>2020-01-27 10:27:52</time>
      </trkpt>
      <trkpt lat="45.56149" lon="6.58647">
        <ele>1675.2686</ele>
        <time>2020-01-27 10:27:53</time>
      </trkpt>
      <trkpt lat="45.56149" lon="6.58647">
        <ele>1676.69</ele>
        <time>2020-01-27 10:27:54</time>
      </trkpt>
      <trkpt lat="45.5615" lon="6.58647">
        <ele>1676.9912</ele>
        <time>2020-01-27 10:27:56</time>
      </trkpt>
      <trkpt lat="45.56152" lon="6.58644">
        <ele>1676.3235</ele>
        <time>2020-01-27 10:28:00</time>
      </trkpt>
      <trkpt lat="45.56152" lon="6.58644">
        <ele>1677.1558</ele>
        <time>2020-01-27 10:28:01</time>
      </trkpt>
      <trkpt lat="45.56152" lon="6.58643">
        <ele>1675.6719</ele>
        <time>2020-01-27 10:28:02</time>
      </trkpt>
      <trkpt lat="45.56153" lon="6.58641">
        <ele>1676.897</ele>
        <time>2020-01-27 10:28:03</time>
      </trkpt>
      <trkpt lat="45.56155" lon="6.58637">
        <ele>1673.0215</ele>
        <time>2020-01-27 10:28:06</time>
      </trkpt>
      <trkpt lat="45.56155" lon="6.58637">
        <ele>1674.1709</ele>
        <time>2020-01-27 10:28:07</time>
      </trkpt>
      <trkpt lat="45.56157" lon="6.58636">
        <ele>1673.9626</ele>
        <time>2020-01-27 10:28:08</time>
      </trkpt>
      <trkpt lat="45.56158" lon="6.58635">
        <ele>1675.0989</ele>
        <time>2020-01-27 10:28:09</time>
      </trkpt>
      <trkpt lat="45.56159" lon="6.58634">
        <ele>1675.5923</ele>
        <time>2020-01-27 10:28:10</time>
      </trkpt>
      <trkpt lat="45.5616" lon="6.58634">
        <ele>1676.6685</ele>
        <time>2020-01-27 10:28:11</time>
      </trkpt>
      <trkpt lat="45.5616" lon="6.58634">
        <ele>1679.4429</ele>
        <time>2020-01-27 10:28:12</time>
      </trkpt>
      <trkpt lat="45.5616" lon="6.58634">
        <ele>1679.8687</ele>
        <time>2020-01-27 10:28:13</time>
      </trkpt>
      <trkpt lat="45.56161" lon="6.58634">
        <ele>1680.2915</ele>
        <time>2020-01-27 10:28:14</time>
      </trkpt>
      <trkpt lat="45.56162" lon="6.58635">
        <ele>1683.2031</ele>
        <time>2020-01-27 10:28:15</time>
      </trkpt>
      <trkpt lat="45.56162" lon="6.58636">
        <ele>1682.199</ele>
        <time>2020-01-27 10:28:17</time>
      </trkpt>
      <trkpt lat="45.56162" lon="6.58637">
        <ele>1683.7461</ele>
        <time>2020-01-27 10:28:18</time>
      </trkpt>
      <trkpt lat="45.56162" lon="6.58638">
        <ele>1685.4216</ele>
        <time>2020-01-27 10:28:19</time>
      </trkpt>
      <trkpt lat="45.56162" lon="6.58638">
        <ele>1685.1167</ele>
        <time>2020-01-27 10:28:20</time>
      </trkpt>
      <trkpt lat="45.56168" lon="6.58649">
        <ele>1683.665</ele>
        <time>2020-01-27 10:28:29</time>
      </trkpt>
      <trkpt lat="45.56168" lon="6.5865">
        <ele>1683.4336</ele>
        <time>2020-01-27 10:28:30</time>
      </trkpt>
      <trkpt lat="45.56169" lon="6.58651">
        <ele>1683.7661</ele>
        <time>2020-01-27 10:28:32</time>
      </trkpt>
      <trkpt lat="45.5617" lon="6.58651">
        <ele>1684.397</ele>
        <time>2020-01-27 10:28:33</time>
      </trkpt>
      <trkpt lat="45.56171" lon="6.58651">
        <ele>1684.1528</ele>
        <time>2020-01-27 10:28:36</time>
      </trkpt>
      <trkpt lat="45.56173" lon="6.58652">
        <ele>1685.564</ele>
        <time>2020-01-27 10:28:38</time>
      </trkpt>
      <trkpt lat="45.56174" lon="6.58651">
        <ele>1686.803</ele>
        <time>2020-01-27 10:28:39</time>
      </trkpt>
      <trkpt lat="45.56183" lon="6.58646">
        <ele>1681.8364</ele>
        <time>2020-01-27 10:28:48</time>
      </trkpt>
      <trkpt lat="45.56184" lon="6.58646">
        <ele>1682.3564</ele>
        <time>2020-01-27 10:28:49</time>
      </trkpt>
      <trkpt lat="45.56184" lon="6.58644">
        <ele>1684.1802</ele>
        <time>2020-01-27 10:28:54</time>
      </trkpt>
      <trkpt lat="45.56184" lon="6.58643">
        <ele>1683.8525</ele>
        <time>2020-01-27 10:28:55</time>
      </trkpt>
      <trkpt lat="45.56185" lon="6.58643">
        <ele>1684.1755</ele>
        <time>2020-01-27 10:28:58</time>
      </trkpt>
      <trkpt lat="45.56186" lon="6.58642">
        <ele>1684.0239</ele>
        <time>2020-01-27 10:29:01</time>
      </trkpt>
      <trkpt lat="45.56186" lon="6.58641">
        <ele>1684.0806</ele>
        <time>2020-01-27 10:29:02</time>
      </trkpt>
      <trkpt lat="45.56186" lon="6.5864">
        <ele>1684.0525</ele>
        <time>2020-01-27 10:29:03</time>
      </trkpt>
      <trkpt lat="45.56186" lon="6.5864">
        <ele>1684.7085</ele>
        <time>2020-01-27 10:29:10</time>
      </trkpt>
      <trkpt lat="45.56186" lon="6.5864">
        <ele>1684.2222</ele>
        <time>2020-01-27 10:29:11</time>
      </trkpt>
      <trkpt lat="45.56187" lon="6.58641">
        <ele>1682.5488</ele>
        <time>2020-01-27 10:29:12</time>
      </trkpt>
      <trkpt lat="45.56192" lon="6.58649">
        <ele>1695.544</ele>
        <time>2020-01-27 10:29:23</time>
      </trkpt>
      <trkpt lat="45.56191" lon="6.58652">
        <ele>1698.5532</ele>
        <time>2020-01-27 10:29:29</time>
      </trkpt>
      <trkpt lat="45.56191" lon="6.58652">
        <ele>1697.4727</ele>
        <time>2020-01-27 10:29:34</time>
      </trkpt>
      <trkpt lat="45.56192" lon="6.58654">
        <ele>1697.1968</ele>
        <time>2020-01-27 10:29:35</time>
      </trkpt>
      <trkpt lat="45.56192" lon="6.58655">
        <ele>1697.9741</ele>
        <time>2020-01-27 10:29:36</time>
      </trkpt>
      <trkpt lat="45.56192" lon="6.58656">
        <ele>1696.7898</ele>
        <time>2020-01-27 10:29:37</time>
      </trkpt>
      <trkpt lat="45.56192" lon="6.58657">
        <ele>1698.5054</ele>
        <time>2020-01-27 10:29:38</time>
      </trkpt>
      <trkpt lat="45.56192" lon="6.58658">
        <ele>1699.5557</ele>
        <time>2020-01-27 10:29:39</time>
      </trkpt>
      <trkpt lat="45.56192" lon="6.58659">
        <ele>1701.5327</ele>
        <time>2020-01-27 10:29:40</time>
      </trkpt>
      <trkpt lat="45.56193" lon="6.58663">
        <ele>1699.8672</ele>
        <time>2020-01-27 10:29:43</time>
      </trkpt>
      <trkpt lat="45.56194" lon="6.58665">
        <ele>1698.9048</ele>
        <time>2020-01-27 10:29:44</time>
      </trkpt>
      <trkpt lat="45.56197" lon="6.58667">
        <ele>1701.1992</ele>
        <time>2020-01-27 10:29:48</time>
      </trkpt>
      <trkpt lat="45.56198" lon="6.58667">
        <ele>1701.1597</ele>
        <time>2020-01-27 10:29:49</time>
      </trkpt>
      <trkpt lat="45.56198" lon="6.58667">
        <ele>1701.6084</ele>
        <time>2020-01-27 10:29:50</time>
      </trkpt>
      <trkpt lat="45.56199" lon="6.58667">
        <ele>1702.5029</ele>
        <time>2020-01-27 10:29:52</time>
      </trkpt>
      <trkpt lat="45.562" lon="6.58667">
        <ele>1701.5317</ele>
        <time>2020-01-27 10:29:53</time>
      </trkpt>
      <trkpt lat="45.56201" lon="6.58667">
        <ele>1700.959</ele>
        <time>2020-01-27 10:29:54</time>
      </trkpt>
      <trkpt lat="45.56203" lon="6.58666">
        <ele>1699.8999</ele>
        <time>2020-01-27 10:29:55</time>
      </trkpt>
      <trkpt lat="45.56206" lon="6.58666">
        <ele>1698.1599</ele>
        <time>2020-01-27 10:29:58</time>
      </trkpt>
      <trkpt lat="45.56208" lon="6.58665">
        <ele>1697.5571</ele>
        <time>2020-01-27 10:30:06</time>
      </trkpt>
      <trkpt lat="45.56209" lon="6.58665">
        <ele>1697.7095</ele>
        <time>2020-01-27 10:30:07</time>
      </trkpt>
      <trkpt lat="45.56211" lon="6.58664">
        <ele>1699.261</ele>
        <time>2020-01-27 10:30:13</time>
      </trkpt>
      <trkpt lat="45.56211" lon="6.58663">
        <ele>1699.8479</ele>
        <time>2020-01-27 10:30:14</time>
      </trkpt>
      <trkpt lat="45.56211" lon="6.58664">
        <ele>1699.2104</ele>
        <time>2020-01-27 10:30:15</time>
      </trkpt>
      <trkpt lat="45.56212" lon="6.58663">
        <ele>1698.6497</ele>
        <time>2020-01-27 10:30:17</time>
      </trkpt>
      <trkpt lat="45.56216" lon="6.58657">
        <ele>1697.6218</ele>
        <time>2020-01-27 10:30:21</time>
      </trkpt>
      <trkpt lat="45.56218" lon="6.58655">
        <ele>1697.6079</ele>
        <time>2020-01-27 10:30:22</time>
      </trkpt>
      <trkpt lat="45.56219" lon="6.58653">
        <ele>1697.6216</ele>
        <time>2020-01-27 10:30:23</time>
      </trkpt>
      <trkpt lat="45.56221" lon="6.58651">
        <ele>1697.5708</ele>
        <time>2020-01-27 10:30:26</time>
      </trkpt>
      <trkpt lat="45.5623" lon="6.5864">
        <ele>1695.408</ele>
        <time>2020-01-27 10:30:36</time>
      </trkpt>
      <trkpt lat="45.56232" lon="6.5864">
        <ele>1695.7393</ele>
        <time>2020-01-27 10:30:39</time>
      </trkpt>
      <trkpt lat="45.56233" lon="6.58638">
        <ele>1697.4136</ele>
        <time>2020-01-27 10:30:41</time>
      </trkpt>
      <trkpt lat="45.56234" lon="6.58638">
        <ele>1696.7515</ele>
        <time>2020-01-27 10:30:42</time>
      </trkpt>
      <trkpt lat="45.56237" lon="6.58636">
        <ele>1697.7903</ele>
        <time>2020-01-27 10:30:46</time>
      </trkpt>
      <trkpt lat="45.56237" lon="6.58636">
        <ele>1697.9368</ele>
        <time>2020-01-27 10:30:47</time>
      </trkpt>
      <trkpt lat="45.56238" lon="6.58636">
        <ele>1698.8369</ele>
        <time>2020-01-27 10:30:48</time>
      </trkpt>
      <trkpt lat="45.56239" lon="6.58637">
        <ele>1695.2134</ele>
        <time>2020-01-27 10:30:51</time>
      </trkpt>
      <trkpt lat="45.56239" lon="6.58637">
        <ele>1696.9785</ele>
        <time>2020-01-27 10:30:52</time>
      </trkpt>
      <trkpt lat="45.56236" lon="6.58637">
        <ele>1700.669</ele>
        <time>2020-01-27 10:30:59</time>
      </trkpt>
      <trkpt lat="45.56236" lon="6.58638">
        <ele>1700.9155</ele>
        <time>2020-01-27 10:31:00</time>
      </trkpt>
      <trkpt lat="45.56237" lon="6.58638">
        <ele>1701.1714</ele>
        <time>2020-01-27 10:31:01</time>
      </trkpt>
      <trkpt lat="45.56238" lon="6.58638">
        <ele>1699.9995</ele>
        <time>2020-01-27 10:31:02</time>
      </trkpt>
      <trkpt lat="45.56238" lon="6.58639">
        <ele>1701.3167</ele>
        <time>2020-01-27 10:31:03</time>
      </trkpt>
      <trkpt lat="45.56239" lon="6.5864">
        <ele>1701.9587</ele>
        <time>2020-01-27 10:31:09</time>
      </trkpt>
      <trkpt lat="45.56239" lon="6.58641">
        <ele>1703.7664</ele>
        <time>2020-01-27 10:31:10</time>
      </trkpt>
      <trkpt lat="45.5624" lon="6.58641">
        <ele>1703.292</ele>
        <time>2020-01-27 10:31:11</time>
      </trkpt>
      <trkpt lat="45.5624" lon="6.58641">
        <ele>1705.7583</ele>
        <time>2020-01-27 10:31:12</time>
      </trkpt>
      <trkpt lat="45.5624" lon="6.58641">
        <ele>1705.907</ele>
        <time>2020-01-27 10:31:14</time>
      </trkpt>
      <trkpt lat="45.56241" lon="6.58642">
        <ele>1707.5205</ele>
        <time>2020-01-27 10:31:16</time>
      </trkpt>
      <trkpt lat="45.56241" lon="6.58642">
        <ele>1710.179</ele>
        <time>2020-01-27 10:31:17</time>
      </trkpt>
      <trkpt lat="45.56241" lon="6.58643">
        <ele>1709.355</ele>
        <time>2020-01-27 10:31:18</time>
      </trkpt>
      <trkpt lat="45.5624" lon="6.58644">
        <ele>1712.4624</ele>
        <time>2020-01-27 10:31:20</time>
      </trkpt>
      <trkpt lat="45.5624" lon="6.58644">
        <ele>1712.7358</ele>
        <time>2020-01-27 10:31:21</time>
      </trkpt>
      <trkpt lat="45.56242" lon="6.58646">
        <ele>1711.3267</ele>
        <time>2020-01-27 10:31:22</time>
      </trkpt>
      <trkpt lat="45.56243" lon="6.58647">
        <ele>1710.8066</ele>
        <time>2020-01-27 10:31:24</time>
      </trkpt>
      <trkpt lat="45.56243" lon="6.58647">
        <ele>1712.3071</ele>
        <time>2020-01-27 10:31:25</time>
      </trkpt>
      <trkpt lat="45.56243" lon="6.58647">
        <ele>1713.6323</ele>
        <time>2020-01-27 10:31:26</time>
      </trkpt>
      <trkpt lat="45.56243" lon="6.58647">
        <ele>1716.0869</ele>
        <time>2020-01-27 10:31:27</time>
      </trkpt>
      <trkpt lat="45.56243" lon="6.58647">
        <ele>1716.2432</ele>
        <time>2020-01-27 10:31:28</time>
      </trkpt>
      <trkpt lat="45.56247" lon="6.58645">
        <ele>1714.3726</ele>
        <time>2020-01-27 10:31:33</time>
      </trkpt>
      <trkpt lat="45.56247" lon="6.58644">
        <ele>1714.5366</ele>
        <time>2020-01-27 10:31:34</time>
      </trkpt>
      <trkpt lat="45.56248" lon="6.58643">
        <ele>1714.6904</ele>
        <time>2020-01-27 10:31:35</time>
      </trkpt>
      <trkpt lat="45.56249" lon="6.58642">
        <ele>1713.9668</ele>
        <time>2020-01-27 10:31:38</time>
      </trkpt>
      <trkpt lat="45.5625" lon="6.5864">
        <ele>1714.998</ele>
        <time>2020-01-27 10:31:39</time>
      </trkpt>
      <trkpt lat="45.56252" lon="6.58641">
        <ele>1712.3218</ele>
        <time>2020-01-27 10:31:43</time>
      </trkpt>
      <trkpt lat="45.56254" lon="6.58643">
        <ele>1713.7415</ele>
        <time>2020-01-27 10:31:44</time>
      </trkpt>
      <trkpt lat="45.56256" lon="6.58645">
        <ele>1714.6108</ele>
        <time>2020-01-27 10:31:47</time>
      </trkpt>
      <trkpt lat="45.56259" lon="6.58649">
        <ele>1715.7798</ele>
        <time>2020-01-27 10:31:50</time>
      </trkpt>
      <trkpt lat="45.5626" lon="6.58651">
        <ele>1715.3726</ele>
        <time>2020-01-27 10:31:51</time>
      </trkpt>
      <trkpt lat="45.5626" lon="6.58651">
        <ele>1716.2488</ele>
        <time>2020-01-27 10:31:52</time>
      </trkpt>
      <trkpt lat="45.56267" lon="6.58658">
        <ele>1716.7026</ele>
        <time>2020-01-27 10:32:01</time>
      </trkpt>
      <trkpt lat="45.56267" lon="6.5866">
        <ele>1716.2778</ele>
        <time>2020-01-27 10:32:02</time>
      </trkpt>
      <trkpt lat="45.56267" lon="6.58661">
        <ele>1715.4287</ele>
        <time>2020-01-27 10:32:04</time>
      </trkpt>
      <trkpt lat="45.56268" lon="6.58662">
        <ele>1714.9312</ele>
        <time>2020-01-27 10:32:05</time>
      </trkpt>
      <trkpt lat="45.56268" lon="6.58664">
        <ele>1714.2649</ele>
        <time>2020-01-27 10:32:07</time>
      </trkpt>
      <trkpt lat="45.56269" lon="6.58665">
        <ele>1714.0518</ele>
        <time>2020-01-27 10:32:08</time>
      </trkpt>
      <trkpt lat="45.56274" lon="6.58674">
        <ele>1713.6675</ele>
        <time>2020-01-27 10:32:18</time>
      </trkpt>
      <trkpt lat="45.56274" lon="6.58675">
        <ele>1715.2012</ele>
        <time>2020-01-27 10:32:19</time>
      </trkpt>
      <trkpt lat="45.56274" lon="6.58675">
        <ele>1714.8962</ele>
        <time>2020-01-27 10:32:20</time>
      </trkpt>
      <trkpt lat="45.56274" lon="6.58676">
        <ele>1715.2808</ele>
        <time>2020-01-27 10:32:21</time>
      </trkpt>
      <trkpt lat="45.56274" lon="6.58677">
        <ele>1714.4893</ele>
        <time>2020-01-27 10:32:22</time>
      </trkpt>
      <trkpt lat="45.56275" lon="6.58678">
        <ele>1714.5964</ele>
        <time>2020-01-27 10:32:24</time>
      </trkpt>
      <trkpt lat="45.56275" lon="6.58678">
        <ele>1714.6138</ele>
        <time>2020-01-27 10:32:25</time>
      </trkpt>
      <trkpt lat="45.56276" lon="6.58679">
        <ele>1714.3921</ele>
        <time>2020-01-27 10:32:27</time>
      </trkpt>
      <trkpt lat="45.56276" lon="6.58679">
        <ele>1714.2764</ele>
        <time>2020-01-27 10:32:28</time>
      </trkpt>
      <trkpt lat="45.56276" lon="6.58681">
        <ele>1715.4673</ele>
        <time>2020-01-27 10:32:30</time>
      </trkpt>
      <trkpt lat="45.56276" lon="6.58681">
        <ele>1716.3267</ele>
        <time>2020-01-27 10:32:31</time>
      </trkpt>
      <trkpt lat="45.56276" lon="6.58682">
        <ele>1716.8184</ele>
        <time>2020-01-27 10:32:32</time>
      </trkpt>
      <trkpt lat="45.56276" lon="6.58683">
        <ele>1717.1997</ele>
        <time>2020-01-27 10:32:33</time>
      </trkpt>
      <trkpt lat="45.56276" lon="6.58684">
        <ele>1717.8452</ele>
        <time>2020-01-27 10:32:34</time>
      </trkpt>
      <trkpt lat="45.56276" lon="6.58684">
        <ele>1717.4458</ele>
        <time>2020-01-27 10:32:35</time>
      </trkpt>
      <trkpt lat="45.56276" lon="6.58685">
        <ele>1717.0046</ele>
        <time>2020-01-27 10:32:36</time>
      </trkpt>
      <trkpt lat="45.56276" lon="6.58686">
        <ele>1716.3298</ele>
        <time>2020-01-27 10:32:37</time>
      </trkpt>
      <trkpt lat="45.56277" lon="6.58688">
        <ele>1717.0249</ele>
        <time>2020-01-27 10:32:41</time>
      </trkpt>
      <trkpt lat="45.56279" lon="6.58691">
        <ele>1718.689</ele>
        <time>2020-01-27 10:32:46</time>
      </trkpt>
      <trkpt lat="45.56279" lon="6.58692">
        <ele>1718.6064</ele>
        <time>2020-01-27 10:32:47</time>
      </trkpt>
      <trkpt lat="45.5628" lon="6.58693">
        <ele>1719.9775</ele>
        <time>2020-01-27 10:32:48</time>
      </trkpt>
      <trkpt lat="45.56282" lon="6.58693">
        <ele>1718.6431</ele>
        <time>2020-01-27 10:32:54</time>
      </trkpt>
      <trkpt lat="45.56282" lon="6.58692">
        <ele>1718.4819</ele>
        <time>2020-01-27 10:32:55</time>
      </trkpt>
      <trkpt lat="45.56284" lon="6.58689">
        <ele>1716.8362</ele>
        <time>2020-01-27 10:32:58</time>
      </trkpt>
      <trkpt lat="45.56285" lon="6.58689">
        <ele>1716.2</ele>
        <time>2020-01-27 10:32:59</time>
      </trkpt>
      <trkpt lat="45.56286" lon="6.58688">
        <ele>1715.408</ele>
        <time>2020-01-27 10:33:00</time>
      </trkpt>
      <trkpt lat="45.56288" lon="6.58688">
        <ele>1713.5493</ele>
        <time>2020-01-27 10:33:03</time>
      </trkpt>
      <trkpt lat="45.56289" lon="6.5869">
        <ele>1715.0669</ele>
        <time>2020-01-27 10:33:05</time>
      </trkpt>
      <trkpt lat="45.5629" lon="6.58691">
        <ele>1716.1516</ele>
        <time>2020-01-27 10:33:06</time>
      </trkpt>
      <trkpt lat="45.5629" lon="6.58692">
        <ele>1716.7717</ele>
        <time>2020-01-27 10:33:07</time>
      </trkpt>
      <trkpt lat="45.56291" lon="6.58692">
        <ele>1716.5569</ele>
        <time>2020-01-27 10:33:08</time>
      </trkpt>
      <trkpt lat="45.56292" lon="6.58692">
        <ele>1719.0752</ele>
        <time>2020-01-27 10:33:09</time>
      </trkpt>
      <trkpt lat="45.56294" lon="6.58694">
        <ele>1715.7617</ele>
        <time>2020-01-27 10:33:12</time>
      </trkpt>
      <trkpt lat="45.56295" lon="6.58695">
        <ele>1715.2739</ele>
        <time>2020-01-27 10:33:15</time>
      </trkpt>
      <trkpt lat="45.56296" lon="6.58693">
        <ele>1716.98</ele>
        <time>2020-01-27 10:33:18</time>
      </trkpt>
      <trkpt lat="45.56296" lon="6.58692">
        <ele>1715.4941</ele>
        <time>2020-01-27 10:33:19</time>
      </trkpt>
      <trkpt lat="45.56298" lon="6.58691">
        <ele>1715.2041</ele>
        <time>2020-01-27 10:33:22</time>
      </trkpt>
      <trkpt lat="45.56298" lon="6.58691">
        <ele>1715.7646</ele>
        <time>2020-01-27 10:33:23</time>
      </trkpt>
      <trkpt lat="45.56297" lon="6.58691">
        <ele>1717.2734</ele>
        <time>2020-01-27 10:33:24</time>
      </trkpt>
      <trkpt lat="45.56298" lon="6.5869">
        <ele>1715.3496</ele>
        <time>2020-01-27 10:33:27</time>
      </trkpt>
      <trkpt lat="45.56299" lon="6.58689">
        <ele>1716.5239</ele>
        <time>2020-01-27 10:33:28</time>
      </trkpt>
      <trkpt lat="45.56299" lon="6.58686">
        <ele>1715.1567</ele>
        <time>2020-01-27 10:33:34</time>
      </trkpt>
      <trkpt lat="45.563" lon="6.58684">
        <ele>1715.8457</ele>
        <time>2020-01-27 10:33:36</time>
      </trkpt>
      <trkpt lat="45.56302" lon="6.58684">
        <ele>1715.0615</ele>
        <time>2020-01-27 10:33:37</time>
      </trkpt>
      <trkpt lat="45.56303" lon="6.58682">
        <ele>1717.0801</ele>
        <time>2020-01-27 10:33:38</time>
      </trkpt>
      <trkpt lat="45.56303" lon="6.58681">
        <ele>1718.1606</ele>
        <time>2020-01-27 10:33:39</time>
      </trkpt>
      <trkpt lat="45.56303" lon="6.5868">
        <ele>1719.043</ele>
        <time>2020-01-27 10:33:40</time>
      </trkpt>
      <trkpt lat="45.56304" lon="6.58678">
        <ele>1718.9053</ele>
        <time>2020-01-27 10:33:41</time>
      </trkpt>
      <trkpt lat="45.56304" lon="6.58678">
        <ele>1719.8059</ele>
        <time>2020-01-27 10:33:42</time>
      </trkpt>
      <trkpt lat="45.56306" lon="6.58673">
        <ele>1719.9658</ele>
        <time>2020-01-27 10:33:47</time>
      </trkpt>
      <trkpt lat="45.56307" lon="6.58673">
        <ele>1717.9624</ele>
        <time>2020-01-27 10:33:48</time>
      </trkpt>
      <trkpt lat="45.56308" lon="6.58672">
        <ele>1718.6353</ele>
        <time>2020-01-27 10:33:49</time>
      </trkpt>
      <trkpt lat="45.56311" lon="6.5867">
        <ele>1716.103</ele>
        <time>2020-01-27 10:33:52</time>
      </trkpt>
      <trkpt lat="45.56312" lon="6.58668">
        <ele>1714.1311</ele>
        <time>2020-01-27 10:33:56</time>
      </trkpt>
      <trkpt lat="45.56312" lon="6.58667">
        <ele>1714.7153</ele>
        <time>2020-01-27 10:33:57</time>
      </trkpt>
      <trkpt lat="45.5631" lon="6.58664">
        <ele>1719.9546</ele>
        <time>2020-01-27 10:34:03</time>
      </trkpt>
      <trkpt lat="45.5631" lon="6.58664">
        <ele>1721.1187</ele>
        <time>2020-01-27 10:34:05</time>
      </trkpt>
      <trkpt lat="45.56311" lon="6.58664">
        <ele>1720.7546</ele>
        <time>2020-01-27 10:34:08</time>
      </trkpt>
      <trkpt lat="45.56311" lon="6.58664">
        <ele>1722.0063</ele>
        <time>2020-01-27 10:34:09</time>
      </trkpt>
      <trkpt lat="45.56312" lon="6.58665">
        <ele>1723.3516</ele>
        <time>2020-01-27 10:34:10</time>
      </trkpt>
      <trkpt lat="45.56312" lon="6.58665">
        <ele>1724.1963</ele>
        <time>2020-01-27 10:34:11</time>
      </trkpt>
      <trkpt lat="45.56312" lon="6.58666">
        <ele>1726.104</ele>
        <time>2020-01-27 10:34:12</time>
      </trkpt>
      <trkpt lat="45.56312" lon="6.58666">
        <ele>1727.1924</ele>
        <time>2020-01-27 10:34:13</time>
      </trkpt>
      <trkpt lat="45.56312" lon="6.58667">
        <ele>1727.4409</ele>
        <time>2020-01-27 10:34:14</time>
      </trkpt>
      <trkpt lat="45.56312" lon="6.58667">
        <ele>1726.7444</ele>
        <time>2020-01-27 10:34:15</time>
      </trkpt>
      <trkpt lat="45.56311" lon="6.58668">
        <ele>1730.1582</ele>
        <time>2020-01-27 10:34:22</time>
      </trkpt>
      <trkpt lat="45.56311" lon="6.58669">
        <ele>1730.5776</ele>
        <time>2020-01-27 10:34:23</time>
      </trkpt>
      <trkpt lat="45.56311" lon="6.58669">
        <ele>1731.2383</ele>
        <time>2020-01-27 10:34:24</time>
      </trkpt>
      <trkpt lat="45.56312" lon="6.58669">
        <ele>1730.0408</ele>
        <time>2020-01-27 10:34:25</time>
      </trkpt>
      <trkpt lat="45.56314" lon="6.58668">
        <ele>1728.1245</ele>
        <time>2020-01-27 10:34:55</time>
      </trkpt>
      <trkpt lat="45.56314" lon="6.58668">
        <ele>1728.343</ele>
        <time>2020-01-27 10:35:28</time>
      </trkpt>
      <trkpt lat="45.56314" lon="6.58669">
        <ele>1728.6133</ele>
        <time>2020-01-27 10:36:33</time>
      </trkpt>
      <trkpt lat="45.56315" lon="6.58669">
        <ele>1728.4988</ele>
        <time>2020-01-27 10:36:34</time>
      </trkpt>
      <trkpt lat="45.56314" lon="6.58667">
        <ele>1737.4292</ele>
        <time>2020-01-27 10:37:09</time>
      </trkpt>
      <trkpt lat="45.56315" lon="6.58667">
        <ele>1737.3428</ele>
        <time>2020-01-27 10:37:39</time>
      </trkpt>
      <trkpt lat="45.56315" lon="6.58667">
        <ele>1737.4146</ele>
        <time>2020-01-27 10:38:03</time>
      </trkpt>
      <trkpt lat="45.56315" lon="6.58668">
        <ele>1737.9668</ele>
        <time>2020-01-27 10:38:04</time>
      </trkpt>
      <trkpt lat="45.56315" lon="6.58669">
        <ele>1738.0505</ele>
        <time>2020-01-27 10:38:05</time>
      </trkpt>
      <trkpt lat="45.56317" lon="6.5867">
        <ele>1736.1436</ele>
        <time>2020-01-27 10:38:06</time>
      </trkpt>
      <trkpt lat="45.56317" lon="6.58671">
        <ele>1735.9116</ele>
        <time>2020-01-27 10:38:07</time>
      </trkpt>
      <trkpt lat="45.56319" lon="6.58672">
        <ele>1734.877</ele>
        <time>2020-01-27 10:38:08</time>
      </trkpt>
      <trkpt lat="45.56319" lon="6.58673">
        <ele>1733.7427</ele>
        <time>2020-01-27 10:38:09</time>
      </trkpt>
      <trkpt lat="45.56321" lon="6.58675">
        <ele>1735.6807</ele>
        <time>2020-01-27 10:38:12</time>
      </trkpt>
      <trkpt lat="45.56321" lon="6.58676">
        <ele>1734.9321</ele>
        <time>2020-01-27 10:38:13</time>
      </trkpt>
      <trkpt lat="45.56322" lon="6.58676">
        <ele>1733.7996</ele>
        <time>2020-01-27 10:38:14</time>
      </trkpt>
      <trkpt lat="45.56322" lon="6.58677">
        <ele>1733.3635</ele>
        <time>2020-01-27 10:38:15</time>
      </trkpt>
      <trkpt lat="45.56323" lon="6.58678">
        <ele>1732.9541</ele>
        <time>2020-01-27 10:38:16</time>
      </trkpt>
      <trkpt lat="45.56323" lon="6.58679">
        <ele>1733.5774</ele>
        <time>2020-01-27 10:38:17</time>
      </trkpt>
      <trkpt lat="45.56323" lon="6.5868">
        <ele>1732.3408</ele>
        <time>2020-01-27 10:38:18</time>
      </trkpt>
      <trkpt lat="45.56323" lon="6.58681">
        <ele>1732.6455</ele>
        <time>2020-01-27 10:38:19</time>
      </trkpt>
      <trkpt lat="45.56323" lon="6.58681">
        <ele>1732.8943</ele>
        <time>2020-01-27 10:38:20</time>
      </trkpt>
      <trkpt lat="45.56323" lon="6.58682">
        <ele>1733.7434</ele>
        <time>2020-01-27 10:38:23</time>
      </trkpt>
      <trkpt lat="45.56323" lon="6.58683">
        <ele>1734.1013</ele>
        <time>2020-01-27 10:38:24</time>
      </trkpt>
      <trkpt lat="45.56323" lon="6.58683">
        <ele>1735.676</ele>
        <time>2020-01-27 10:38:25</time>
      </trkpt>
      <trkpt lat="45.56323" lon="6.58684">
        <ele>1736.1436</ele>
        <time>2020-01-27 10:38:26</time>
      </trkpt>
      <trkpt lat="45.56323" lon="6.58684">
        <ele>1737.1782</ele>
        <time>2020-01-27 10:38:27</time>
      </trkpt>
      <trkpt lat="45.56323" lon="6.58684">
        <ele>1736.3599</ele>
        <time>2020-01-27 10:38:28</time>
      </trkpt>
      <trkpt lat="45.56323" lon="6.58686">
        <ele>1735.1887</ele>
        <time>2020-01-27 10:38:30</time>
      </trkpt>
      <trkpt lat="45.56324" lon="6.58687">
        <ele>1734.6167</ele>
        <time>2020-01-27 10:38:31</time>
      </trkpt>
      <trkpt lat="45.56324" lon="6.58688">
        <ele>1733.6963</ele>
        <time>2020-01-27 10:38:32</time>
      </trkpt>
      <trkpt lat="45.56324" lon="6.58688">
        <ele>1733.8726</ele>
        <time>2020-01-27 10:38:33</time>
      </trkpt>
      <trkpt lat="45.56325" lon="6.58692">
        <ele>1734.7236</ele>
        <time>2020-01-27 10:38:37</time>
      </trkpt>
      <trkpt lat="45.56326" lon="6.58692">
        <ele>1734.6528</ele>
        <time>2020-01-27 10:38:38</time>
      </trkpt>
      <trkpt lat="45.56327" lon="6.58692">
        <ele>1735.5371</ele>
        <time>2020-01-27 10:38:39</time>
      </trkpt>
      <trkpt lat="45.56328" lon="6.58692">
        <ele>1736.0039</ele>
        <time>2020-01-27 10:38:40</time>
      </trkpt>
      <trkpt lat="45.56328" lon="6.58691">
        <ele>1737.4644</ele>
        <time>2020-01-27 10:38:41</time>
      </trkpt>
      <trkpt lat="45.56328" lon="6.58691">
        <ele>1737.3516</ele>
        <time>2020-01-27 10:38:42</time>
      </trkpt>
      <trkpt lat="45.56328" lon="6.58691">
        <ele>1737.5793</ele>
        <time>2020-01-27 10:38:43</time>
      </trkpt>
      <trkpt lat="45.56329" lon="6.5869">
        <ele>1736.2275</ele>
        <time>2020-01-27 10:38:44</time>
      </trkpt>
      <trkpt lat="45.5633" lon="6.5869">
        <ele>1735.898</ele>
        <time>2020-01-27 10:38:45</time>
      </trkpt>
      <trkpt lat="45.5633" lon="6.58689">
        <ele>1737.0669</ele>
        <time>2020-01-27 10:38:46</time>
      </trkpt>
      <trkpt lat="45.5633" lon="6.58689">
        <ele>1738.7007</ele>
        <time>2020-01-27 10:38:47</time>
      </trkpt>
      <trkpt lat="45.56329" lon="6.58689">
        <ele>1739.2769</ele>
        <time>2020-01-27 10:38:48</time>
      </trkpt>
      <trkpt lat="45.56329" lon="6.58689">
        <ele>1740.5034</ele>
        <time>2020-01-27 10:38:52</time>
      </trkpt>
      <trkpt lat="45.56331" lon="6.58685">
        <ele>1738.7095</ele>
        <time>2020-01-27 10:38:55</time>
      </trkpt>
      <trkpt lat="45.56332" lon="6.58684">
        <ele>1739.7495</ele>
        <time>2020-01-27 10:38:57</time>
      </trkpt>
      <trkpt lat="45.56332" lon="6.58684">
        <ele>1739.2104</ele>
        <time>2020-01-27 10:38:58</time>
      </trkpt>
      <trkpt lat="45.56333" lon="6.58685">
        <ele>1739.0854</ele>
        <time>2020-01-27 10:38:59</time>
      </trkpt>
      <trkpt lat="45.56333" lon="6.58684">
        <ele>1737.706</ele>
        <time>2020-01-27 10:39:01</time>
      </trkpt>
      <trkpt lat="45.56334" lon="6.58684">
        <ele>1738.5801</ele>
        <time>2020-01-27 10:39:02</time>
      </trkpt>
      <trkpt lat="45.56334" lon="6.58685">
        <ele>1738.4067</ele>
        <time>2020-01-27 10:39:03</time>
      </trkpt>
      <trkpt lat="45.56334" lon="6.58685">
        <ele>1738.2317</ele>
        <time>2020-01-27 10:39:04</time>
      </trkpt>
      <trkpt lat="45.56334" lon="6.58686">
        <ele>1738.4695</ele>
        <time>2020-01-27 10:39:05</time>
      </trkpt>
      <trkpt lat="45.56335" lon="6.58689">
        <ele>1741.8169</ele>
        <time>2020-01-27 10:39:08</time>
      </trkpt>
      <trkpt lat="45.56335" lon="6.5869">
        <ele>1741.7996</ele>
        <time>2020-01-27 10:39:09</time>
      </trkpt>
      <trkpt lat="45.56335" lon="6.5869">
        <ele>1742.7256</ele>
        <time>2020-01-27 10:39:10</time>
      </trkpt>
      <trkpt lat="45.56335" lon="6.5869">
        <ele>1742.585</ele>
        <time>2020-01-27 10:39:11</time>
      </trkpt>
      <trkpt lat="45.56336" lon="6.58691">
        <ele>1742.2173</ele>
        <time>2020-01-27 10:39:12</time>
      </trkpt>
      <trkpt lat="45.56336" lon="6.58692">
        <ele>1743.2441</ele>
        <time>2020-01-27 10:39:13</time>
      </trkpt>
      <trkpt lat="45.56336" lon="6.58693">
        <ele>1743.4956</ele>
        <time>2020-01-27 10:39:14</time>
      </trkpt>
      <trkpt lat="45.56336" lon="6.58694">
        <ele>1743.2915</ele>
        <time>2020-01-27 10:39:15</time>
      </trkpt>
      <trkpt lat="45.56336" lon="6.58695">
        <ele>1742.4966</ele>
        <time>2020-01-27 10:39:17</time>
      </trkpt>
      <trkpt lat="45.56336" lon="6.58695">
        <ele>1741.803</ele>
        <time>2020-01-27 10:39:18</time>
      </trkpt>
      <trkpt lat="45.56336" lon="6.58696">
        <ele>1743.6167</ele>
        <time>2020-01-27 10:39:19</time>
      </trkpt>
      <trkpt lat="45.56337" lon="6.58696">
        <ele>1743.6299</ele>
        <time>2020-01-27 10:39:20</time>
      </trkpt>
      <trkpt lat="45.56337" lon="6.58697">
        <ele>1742.834</ele>
        <time>2020-01-27 10:39:21</time>
      </trkpt>
      <trkpt lat="45.56339" lon="6.58701">
        <ele>1744.2944</ele>
        <time>2020-01-27 10:39:25</time>
      </trkpt>
      <trkpt lat="45.56339" lon="6.58701">
        <ele>1745.1521</ele>
        <time>2020-01-27 10:39:26</time>
      </trkpt>
      <trkpt lat="45.56339" lon="6.58703">
        <ele>1744.8008</ele>
        <time>2020-01-27 10:39:27</time>
      </trkpt>
      <trkpt lat="45.5634" lon="6.58703">
        <ele>1743.1812</ele>
        <time>2020-01-27 10:39:30</time>
      </trkpt>
      <trkpt lat="45.56341" lon="6.58703">
        <ele>1743.491</ele>
        <time>2020-01-27 10:39:31</time>
      </trkpt>
      <trkpt lat="45.56342" lon="6.58701">
        <ele>1745.3794</ele>
        <time>2020-01-27 10:39:41</time>
      </trkpt>
      <trkpt lat="45.56342" lon="6.587">
        <ele>1745.2664</ele>
        <time>2020-01-27 10:39:42</time>
      </trkpt>
      <trkpt lat="45.56346" lon="6.58697">
        <ele>1746.1797</ele>
        <time>2020-01-27 10:39:50</time>
      </trkpt>
      <trkpt lat="45.56348" lon="6.58696">
        <ele>1746.0068</ele>
        <time>2020-01-27 10:39:52</time>
      </trkpt>
      <trkpt lat="45.56349" lon="6.58696">
        <ele>1747.5605</ele>
        <time>2020-01-27 10:39:53</time>
      </trkpt>
      <trkpt lat="45.56349" lon="6.58697">
        <ele>1746.4814</ele>
        <time>2020-01-27 10:39:54</time>
      </trkpt>
      <trkpt lat="45.56353" lon="6.58701">
        <ele>1747.4756</ele>
        <time>2020-01-27 10:39:59</time>
      </trkpt>
      <trkpt lat="45.56353" lon="6.58703">
        <ele>1747.8496</ele>
        <time>2020-01-27 10:40:02</time>
      </trkpt>
      <trkpt lat="45.56355" lon="6.58705">
        <ele>1745.3569</ele>
        <time>2020-01-27 10:40:04</time>
      </trkpt>
      <trkpt lat="45.56356" lon="6.58706">
        <ele>1745.9424</ele>
        <time>2020-01-27 10:40:05</time>
      </trkpt>
      <trkpt lat="45.56358" lon="6.58707">
        <ele>1742.1812</ele>
        <time>2020-01-27 10:40:08</time>
      </trkpt>
      <trkpt lat="45.56359" lon="6.58707">
        <ele>1743.7312</ele>
        <time>2020-01-27 10:40:09</time>
      </trkpt>
      <trkpt lat="45.56359" lon="6.58711">
        <ele>1746.2251</ele>
        <time>2020-01-27 10:40:12</time>
      </trkpt>
      <trkpt lat="45.56359" lon="6.5871">
        <ele>1746.946</ele>
        <time>2020-01-27 10:40:14</time>
      </trkpt>
      <trkpt lat="45.56359" lon="6.58712">
        <ele>1749.0054</ele>
        <time>2020-01-27 10:40:17</time>
      </trkpt>
      <trkpt lat="45.56358" lon="6.58713">
        <ele>1751.9048</ele>
        <time>2020-01-27 10:40:19</time>
      </trkpt>
      <trkpt lat="45.56358" lon="6.58714">
        <ele>1752.8315</ele>
        <time>2020-01-27 10:40:20</time>
      </trkpt>
      <trkpt lat="45.56358" lon="6.58715">
        <ele>1752.8511</ele>
        <time>2020-01-27 10:40:21</time>
      </trkpt>
      <trkpt lat="45.56358" lon="6.58716">
        <ele>1752.9084</ele>
        <time>2020-01-27 10:40:22</time>
      </trkpt>
      <trkpt lat="45.56358" lon="6.58719">
        <ele>1751.147</ele>
        <time>2020-01-27 10:40:25</time>
      </trkpt>
      <trkpt lat="45.56359" lon="6.58718">
        <ele>1752.9304</ele>
        <time>2020-01-27 10:40:33</time>
      </trkpt>
      <trkpt lat="45.5636" lon="6.58718">
        <ele>1752.7927</ele>
        <time>2020-01-27 10:40:34</time>
      </trkpt>
      <trkpt lat="45.5636" lon="6.58718">
        <ele>1753.6675</ele>
        <time>2020-01-27 10:40:37</time>
      </trkpt>
      <trkpt lat="45.56359" lon="6.5872">
        <ele>1754.8984</ele>
        <time>2020-01-27 10:40:39</time>
      </trkpt>
      <trkpt lat="45.56359" lon="6.58721">
        <ele>1755.1006</ele>
        <time>2020-01-27 10:40:40</time>
      </trkpt>
      <trkpt lat="45.56358" lon="6.58722">
        <ele>1755.456</ele>
        <time>2020-01-27 10:40:41</time>
      </trkpt>
      <trkpt lat="45.56358" lon="6.58722">
        <ele>1754.8735</ele>
        <time>2020-01-27 10:40:42</time>
      </trkpt>
      <trkpt lat="45.56357" lon="6.58723">
        <ele>1756.0398</ele>
        <time>2020-01-27 10:40:43</time>
      </trkpt>
      <trkpt lat="45.56357" lon="6.58724">
        <ele>1756.1533</ele>
        <time>2020-01-27 10:40:44</time>
      </trkpt>
      <trkpt lat="45.56356" lon="6.58725">
        <ele>1755.9839</ele>
        <time>2020-01-27 10:40:45</time>
      </trkpt>
      <trkpt lat="45.56356" lon="6.58726">
        <ele>1756.5396</ele>
        <time>2020-01-27 10:40:46</time>
      </trkpt>
      <trkpt lat="45.56356" lon="6.58727">
        <ele>1757.2637</ele>
        <time>2020-01-27 10:40:47</time>
      </trkpt>
      <trkpt lat="45.56356" lon="6.58726">
        <ele>1758.5854</ele>
        <time>2020-01-27 10:40:48</time>
      </trkpt>
      <trkpt lat="45.56355" lon="6.58726">
        <ele>1762.9326</ele>
        <time>2020-01-27 10:40:51</time>
      </trkpt>
      <trkpt lat="45.56354" lon="6.58727">
        <ele>1762.0059</ele>
        <time>2020-01-27 10:40:52</time>
      </trkpt>
      <trkpt lat="45.56354" lon="6.58728">
        <ele>1762.7217</ele>
        <time>2020-01-27 10:40:53</time>
      </trkpt>
      <trkpt lat="45.56354" lon="6.58731">
        <ele>1759.2549</ele>
        <time>2020-01-27 10:40:54</time>
      </trkpt>
      <trkpt lat="45.56354" lon="6.58732">
        <ele>1759.1428</ele>
        <time>2020-01-27 10:40:55</time>
      </trkpt>
      <trkpt lat="45.56354" lon="6.58733">
        <ele>1759.5688</ele>
        <time>2020-01-27 10:40:56</time>
      </trkpt>
      <trkpt lat="45.56354" lon="6.58734">
        <ele>1758.8911</ele>
        <time>2020-01-27 10:40:57</time>
      </trkpt>
      <trkpt lat="45.56354" lon="6.58735">
        <ele>1758.6672</ele>
        <time>2020-01-27 10:40:58</time>
      </trkpt>
      <trkpt lat="45.56355" lon="6.58738">
        <ele>1755.4509</ele>
        <time>2020-01-27 10:41:13</time>
      </trkpt>
      <trkpt lat="45.56356" lon="6.58739">
        <ele>1756.9565</ele>
        <time>2020-01-27 10:41:14</time>
      </trkpt>
      <trkpt lat="45.56356" lon="6.5874">
        <ele>1758.4297</ele>
        <time>2020-01-27 10:41:15</time>
      </trkpt>
      <trkpt lat="45.56355" lon="6.58741">
        <ele>1759.365</ele>
        <time>2020-01-27 10:41:22</time>
      </trkpt>
      <trkpt lat="45.56355" lon="6.58741">
        <ele>1760.7561</ele>
        <time>2020-01-27 10:41:23</time>
      </trkpt>
      <trkpt lat="45.56355" lon="6.58741">
        <ele>1760.249</ele>
        <time>2020-01-27 10:41:24</time>
      </trkpt>
      <trkpt lat="45.56355" lon="6.58741">
        <ele>1760.1335</ele>
        <time>2020-01-27 10:41:25</time>
      </trkpt>
      <trkpt lat="45.56355" lon="6.58742">
        <ele>1759.6484</ele>
        <time>2020-01-27 10:41:26</time>
      </trkpt>
      <trkpt lat="45.56355" lon="6.58743">
        <ele>1758.3477</ele>
        <time>2020-01-27 10:41:27</time>
      </trkpt>
      <trkpt lat="45.56354" lon="6.58744">
        <ele>1761.0444</ele>
        <time>2020-01-27 10:41:32</time>
      </trkpt>
      <trkpt lat="45.56354" lon="6.58745">
        <ele>1760.5015</ele>
        <time>2020-01-27 10:41:33</time>
      </trkpt>
      <trkpt lat="45.56354" lon="6.58747">
        <ele>1759.602</ele>
        <time>2020-01-27 10:41:38</time>
      </trkpt>
      <trkpt lat="45.56354" lon="6.58748">
        <ele>1758.9702</ele>
        <time>2020-01-27 10:41:39</time>
      </trkpt>
      <trkpt lat="45.56354" lon="6.58749">
        <ele>1758.4441</ele>
        <time>2020-01-27 10:41:42</time>
      </trkpt>
      <trkpt lat="45.56354" lon="6.5875">
        <ele>1758.2263</ele>
        <time>2020-01-27 10:41:43</time>
      </trkpt>
      <trkpt lat="45.56355" lon="6.58751">
        <ele>1757.9307</ele>
        <time>2020-01-27 10:41:44</time>
      </trkpt>
      <trkpt lat="45.56355" lon="6.58751">
        <ele>1756.3242</ele>
        <time>2020-01-27 10:41:45</time>
      </trkpt>
      <trkpt lat="45.56355" lon="6.58751">
        <ele>1757.2102</ele>
        <time>2020-01-27 10:41:46</time>
      </trkpt>
      <trkpt lat="45.56355" lon="6.58752">
        <ele>1758.0603</ele>
        <time>2020-01-27 10:42:00</time>
      </trkpt>
      <trkpt lat="45.56356" lon="6.58752">
        <ele>1761.5552</ele>
        <time>2020-01-27 10:42:01</time>
      </trkpt>
      <trkpt lat="45.56365" lon="6.58752">
        <ele>1759.9424</ele>
        <time>2020-01-27 10:42:10</time>
      </trkpt>
      <trkpt lat="45.56366" lon="6.58752">
        <ele>1759.5698</ele>
        <time>2020-01-27 10:42:11</time>
      </trkpt>
      <trkpt lat="45.56367" lon="6.58752">
        <ele>1761.3545</ele>
        <time>2020-01-27 10:42:12</time>
      </trkpt>
      <trkpt lat="45.56368" lon="6.58752">
        <ele>1760.9077</ele>
        <time>2020-01-27 10:42:13</time>
      </trkpt>
      <trkpt lat="45.56368" lon="6.58751">
        <ele>1758.9739</ele>
        <time>2020-01-27 10:42:14</time>
      </trkpt>
      <trkpt lat="45.56369" lon="6.58751">
        <ele>1755.3457</ele>
        <time>2020-01-27 10:42:15</time>
      </trkpt>
      <trkpt lat="45.5637" lon="6.58751">
        <ele>1756.127</ele>
        <time>2020-01-27 10:42:18</time>
      </trkpt>
      <trkpt lat="45.5637" lon="6.58751">
        <ele>1757.9778</ele>
        <time>2020-01-27 10:42:19</time>
      </trkpt>
      <trkpt lat="45.5637" lon="6.58751">
        <ele>1758.0977</ele>
        <time>2020-01-27 10:42:20</time>
      </trkpt>
      <trkpt lat="45.5637" lon="6.58751">
        <ele>1757.5645</ele>
        <time>2020-01-27 10:42:21</time>
      </trkpt>
      <trkpt lat="45.5637" lon="6.58752">
        <ele>1757.5371</ele>
        <time>2020-01-27 10:42:22</time>
      </trkpt>
      <trkpt lat="45.5637" lon="6.58752">
        <ele>1759.8105</ele>
        <time>2020-01-27 10:42:23</time>
      </trkpt>
      <trkpt lat="45.5637" lon="6.58752">
        <ele>1761.0867</ele>
        <time>2020-01-27 10:42:24</time>
      </trkpt>
      <trkpt lat="45.5637" lon="6.58756">
        <ele>1760.0879</ele>
        <time>2020-01-27 10:42:27</time>
      </trkpt>
      <trkpt lat="45.5637" lon="6.58757">
        <ele>1759.5383</ele>
        <time>2020-01-27 10:42:28</time>
      </trkpt>
      <trkpt lat="45.5637" lon="6.58757">
        <ele>1759.4038</ele>
        <time>2020-01-27 10:42:29</time>
      </trkpt>
      <trkpt lat="45.5637" lon="6.58758">
        <ele>1758.7544</ele>
        <time>2020-01-27 10:42:30</time>
      </trkpt>
      <trkpt lat="45.56369" lon="6.58757">
        <ele>1761.1089</ele>
        <time>2020-01-27 10:42:32</time>
      </trkpt>
      <trkpt lat="45.56369" lon="6.58758">
        <ele>1761.2085</ele>
        <time>2020-01-27 10:42:33</time>
      </trkpt>
      <trkpt lat="45.56368" lon="6.58759">
        <ele>1763.8953</ele>
        <time>2020-01-27 10:42:35</time>
      </trkpt>
      <trkpt lat="45.56367" lon="6.58759">
        <ele>1765.5845</ele>
        <time>2020-01-27 10:42:39</time>
      </trkpt>
      <trkpt lat="45.56367" lon="6.58761">
        <ele>1765.8267</ele>
        <time>2020-01-27 10:42:41</time>
      </trkpt>
      <trkpt lat="45.56372" lon="6.58762">
        <ele>1766.9172</ele>
        <time>2020-01-27 10:42:48</time>
      </trkpt>
      <trkpt lat="45.56374" lon="6.58762">
        <ele>1765.1104</ele>
        <time>2020-01-27 10:42:52</time>
      </trkpt>
      <trkpt lat="45.56374" lon="6.58761">
        <ele>1766.7766</ele>
        <time>2020-01-27 10:42:53</time>
      </trkpt>
      <trkpt lat="45.56375" lon="6.5876">
        <ele>1764.5615</ele>
        <time>2020-01-27 10:42:55</time>
      </trkpt>
      <trkpt lat="45.56376" lon="6.5876">
        <ele>1763.3936</ele>
        <time>2020-01-27 10:42:56</time>
      </trkpt>
      <trkpt lat="45.56377" lon="6.5876">
        <ele>1763.0483</ele>
        <time>2020-01-27 10:42:57</time>
      </trkpt>
      <trkpt lat="45.56378" lon="6.58759">
        <ele>1763.686</ele>
        <time>2020-01-27 10:42:58</time>
      </trkpt>
      <trkpt lat="45.56378" lon="6.58759">
        <ele>1763.4954</ele>
        <time>2020-01-27 10:42:59</time>
      </trkpt>
      <trkpt lat="45.56378" lon="6.58762">
        <ele>1762.8462</ele>
        <time>2020-01-27 10:43:06</time>
      </trkpt>
      <trkpt lat="45.56378" lon="6.58763">
        <ele>1763.9595</ele>
        <time>2020-01-27 10:43:07</time>
      </trkpt>
      <trkpt lat="45.56378" lon="6.58764">
        <ele>1763.8203</ele>
        <time>2020-01-27 10:43:08</time>
      </trkpt>
      <trkpt lat="45.56379" lon="6.58765">
        <ele>1763.094</ele>
        <time>2020-01-27 10:43:09</time>
      </trkpt>
      <trkpt lat="45.56379" lon="6.58765">
        <ele>1765.7397</ele>
        <time>2020-01-27 10:43:10</time>
      </trkpt>
      <trkpt lat="45.5638" lon="6.58765">
        <ele>1767.331</ele>
        <time>2020-01-27 10:43:11</time>
      </trkpt>
      <trkpt lat="45.5638" lon="6.58765">
        <ele>1765.8188</ele>
        <time>2020-01-27 10:43:15</time>
      </trkpt>
      <trkpt lat="45.5638" lon="6.58768">
        <ele>1764.8115</ele>
        <time>2020-01-27 10:43:18</time>
      </trkpt>
      <trkpt lat="45.56381" lon="6.58768">
        <ele>1765.2368</ele>
        <time>2020-01-27 10:43:41</time>
      </trkpt>
      <trkpt lat="45.56383" lon="6.58767">
        <ele>1766.3325</ele>
        <time>2020-01-27 10:43:42</time>
      </trkpt>
      <trkpt lat="45.56384" lon="6.58766">
        <ele>1765.2803</ele>
        <time>2020-01-27 10:43:43</time>
      </trkpt>
      <trkpt lat="45.56385" lon="6.58767">
        <ele>1766.0425</ele>
        <time>2020-01-27 10:43:53</time>
      </trkpt>
      <trkpt lat="45.56386" lon="6.58767">
        <ele>1765.3345</ele>
        <time>2020-01-27 10:43:54</time>
      </trkpt>
      <trkpt lat="45.56388" lon="6.58767">
        <ele>1767.6982</ele>
        <time>2020-01-27 10:44:02</time>
      </trkpt>
      <trkpt lat="45.56389" lon="6.58767">
        <ele>1768.7368</ele>
        <time>2020-01-27 10:44:04</time>
      </trkpt>
      <trkpt lat="45.56389" lon="6.58767">
        <ele>1771.2051</ele>
        <time>2020-01-27 10:44:05</time>
      </trkpt>
      <trkpt lat="45.5639" lon="6.58768">
        <ele>1770.9143</ele>
        <time>2020-01-27 10:44:06</time>
      </trkpt>
      <trkpt lat="45.5639" lon="6.58769">
        <ele>1773.4922</ele>
        <time>2020-01-27 10:44:08</time>
      </trkpt>
      <trkpt lat="45.5639" lon="6.5877">
        <ele>1773.1821</ele>
        <time>2020-01-27 10:44:09</time>
      </trkpt>
      <trkpt lat="45.5639" lon="6.58776">
        <ele>1773.4707</ele>
        <time>2020-01-27 10:44:15</time>
      </trkpt>
      <trkpt lat="45.5639" lon="6.58777">
        <ele>1772.5327</ele>
        <time>2020-01-27 10:44:17</time>
      </trkpt>
      <trkpt lat="45.5639" lon="6.58777">
        <ele>1775.4927</ele>
        <time>2020-01-27 10:44:18</time>
      </trkpt>
      <trkpt lat="45.5639" lon="6.58777">
        <ele>1778.8127</ele>
        <time>2020-01-27 10:44:21</time>
      </trkpt>
      <trkpt lat="45.5639" lon="6.58777">
        <ele>1778.8999</ele>
        <time>2020-01-27 10:44:22</time>
      </trkpt>
      <trkpt lat="45.5639" lon="6.58778">
        <ele>1777.7974</ele>
        <time>2020-01-27 10:44:24</time>
      </trkpt>
      <trkpt lat="45.56391" lon="6.58779">
        <ele>1777.2427</ele>
        <time>2020-01-27 10:44:25</time>
      </trkpt>
      <trkpt lat="45.56391" lon="6.5878">
        <ele>1777.9795</ele>
        <time>2020-01-27 10:44:26</time>
      </trkpt>
      <trkpt lat="45.56391" lon="6.58781">
        <ele>1782.8547</ele>
        <time>2020-01-27 10:44:28</time>
      </trkpt>
      <trkpt lat="45.56391" lon="6.58783">
        <ele>1782.5544</ele>
        <time>2020-01-27 10:44:41</time>
      </trkpt>
      <trkpt lat="45.56391" lon="6.58784">
        <ele>1783.3496</ele>
        <time>2020-01-27 10:44:42</time>
      </trkpt>
      <trkpt lat="45.56392" lon="6.58784">
        <ele>1783.2559</ele>
        <time>2020-01-27 10:44:46</time>
      </trkpt>
      <trkpt lat="45.56391" lon="6.58786">
        <ele>1782.3555</ele>
        <time>2020-01-27 10:44:47</time>
      </trkpt>
      <trkpt lat="45.56391" lon="6.58787">
        <ele>1784.6296</ele>
        <time>2020-01-27 10:44:51</time>
      </trkpt>
      <trkpt lat="45.56392" lon="6.58788">
        <ele>1783.7881</ele>
        <time>2020-01-27 10:44:52</time>
      </trkpt>
      <trkpt lat="45.56394" lon="6.58788">
        <ele>1781.833</ele>
        <time>2020-01-27 10:44:53</time>
      </trkpt>
      <trkpt lat="45.56398" lon="6.58788">
        <ele>1782.4331</ele>
        <time>2020-01-27 10:44:56</time>
      </trkpt>
      <trkpt lat="45.56399" lon="6.58788">
        <ele>1782.031</ele>
        <time>2020-01-27 10:44:57</time>
      </trkpt>
      <trkpt lat="45.56399" lon="6.58788">
        <ele>1780.7471</ele>
        <time>2020-01-27 10:44:58</time>
      </trkpt>
      <trkpt lat="45.56399" lon="6.58787">
        <ele>1778.6406</ele>
        <time>2020-01-27 10:45:01</time>
      </trkpt>
      <trkpt lat="45.564" lon="6.58788">
        <ele>1778.6802</ele>
        <time>2020-01-27 10:45:02</time>
      </trkpt>
      <trkpt lat="45.564" lon="6.5879">
        <ele>1778.2715</ele>
        <time>2020-01-27 10:45:05</time>
      </trkpt>
      <trkpt lat="45.56401" lon="6.58789">
        <ele>1781.2375</ele>
        <time>2020-01-27 10:45:06</time>
      </trkpt>
      <trkpt lat="45.56403" lon="6.58787">
        <ele>1781.7051</ele>
        <time>2020-01-27 10:45:08</time>
      </trkpt>
      <trkpt lat="45.56403" lon="6.58786">
        <ele>1781.8049</ele>
        <time>2020-01-27 10:45:09</time>
      </trkpt>
      <trkpt lat="45.56404" lon="6.58787">
        <ele>1778.5532</ele>
        <time>2020-01-27 10:45:14</time>
      </trkpt>
      <trkpt lat="45.56405" lon="6.58786">
        <ele>1781.9902</ele>
        <time>2020-01-27 10:45:15</time>
      </trkpt>
      <trkpt lat="45.56404" lon="6.58785">
        <ele>1784.9072</ele>
        <time>2020-01-27 10:45:19</time>
      </trkpt>
      <trkpt lat="45.56403" lon="6.58786">
        <ele>1790.5205</ele>
        <time>2020-01-27 10:45:20</time>
      </trkpt>
      <trkpt lat="45.56403" lon="6.58787">
        <ele>1790.4023</ele>
        <time>2020-01-27 10:45:21</time>
      </trkpt>
      <trkpt lat="45.56402" lon="6.58788">
        <ele>1789.9873</ele>
        <time>2020-01-27 10:45:22</time>
      </trkpt>
      <trkpt lat="45.56402" lon="6.58789">
        <ele>1789.3733</ele>
        <time>2020-01-27 10:45:23</time>
      </trkpt>
      <trkpt lat="45.56402" lon="6.5879">
        <ele>1790.207</ele>
        <time>2020-01-27 10:45:24</time>
      </trkpt>
      <trkpt lat="45.56402" lon="6.5879">
        <ele>1789.8728</ele>
        <time>2020-01-27 10:45:25</time>
      </trkpt>
      <trkpt lat="45.56403" lon="6.58792">
        <ele>1791.1819</ele>
        <time>2020-01-27 10:45:28</time>
      </trkpt>
      <trkpt lat="45.56404" lon="6.58792">
        <ele>1790.2773</ele>
        <time>2020-01-27 10:45:33</time>
      </trkpt>
      <trkpt lat="45.56404" lon="6.58791">
        <ele>1790.0249</ele>
        <time>2020-01-27 10:45:34</time>
      </trkpt>
      <trkpt lat="45.56405" lon="6.5879">
        <ele>1789.7681</ele>
        <time>2020-01-27 10:45:36</time>
      </trkpt>
      <trkpt lat="45.56406" lon="6.5879">
        <ele>1790.731</ele>
        <time>2020-01-27 10:45:37</time>
      </trkpt>
      <trkpt lat="45.56407" lon="6.5879">
        <ele>1789.6621</ele>
        <time>2020-01-27 10:45:38</time>
      </trkpt>
      <trkpt lat="45.56408" lon="6.58791">
        <ele>1790.398</ele>
        <time>2020-01-27 10:45:39</time>
      </trkpt>
      <trkpt lat="45.56408" lon="6.58792">
        <ele>1789.1304</ele>
        <time>2020-01-27 10:45:40</time>
      </trkpt>
      <trkpt lat="45.56408" lon="6.58792">
        <ele>1790.3945</ele>
        <time>2020-01-27 10:45:41</time>
      </trkpt>
      <trkpt lat="45.56409" lon="6.58793">
        <ele>1792.7227</ele>
        <time>2020-01-27 10:45:44</time>
      </trkpt>
      <trkpt lat="45.56412" lon="6.58792">
        <ele>1796.6841</ele>
        <time>2020-01-27 10:45:47</time>
      </trkpt>
      <trkpt lat="45.56413" lon="6.58792">
        <ele>1798.3098</ele>
        <time>2020-01-27 10:45:48</time>
      </trkpt>
      <trkpt lat="45.56413" lon="6.58793">
        <ele>1795.2915</ele>
        <time>2020-01-27 10:45:49</time>
      </trkpt>
      <trkpt lat="45.56413" lon="6.58793">
        <ele>1797.1826</ele>
        <time>2020-01-27 10:45:50</time>
      </trkpt>
      <trkpt lat="45.56413" lon="6.58793">
        <ele>1797.3643</ele>
        <time>2020-01-27 10:45:51</time>
      </trkpt>
      <trkpt lat="45.56413" lon="6.58794">
        <ele>1799.2461</ele>
        <time>2020-01-27 10:45:57</time>
      </trkpt>
      <trkpt lat="45.56414" lon="6.58798">
        <ele>1800.5615</ele>
        <time>2020-01-27 10:46:01</time>
      </trkpt>
      <trkpt lat="45.56412" lon="6.58799">
        <ele>1801.3467</ele>
        <time>2020-01-27 10:46:02</time>
      </trkpt>
      <trkpt lat="45.56411" lon="6.588">
        <ele>1800.6973</ele>
        <time>2020-01-27 10:46:05</time>
      </trkpt>
      <trkpt lat="45.56411" lon="6.58802">
        <ele>1800.7104</ele>
        <time>2020-01-27 10:46:06</time>
      </trkpt>
      <trkpt lat="45.56411" lon="6.58803">
        <ele>1801.3044</ele>
        <time>2020-01-27 10:46:07</time>
      </trkpt>
      <trkpt lat="45.56411" lon="6.58804">
        <ele>1802.1865</ele>
        <time>2020-01-27 10:46:08</time>
      </trkpt>
      <trkpt lat="45.56411" lon="6.58805">
        <ele>1802.8091</ele>
        <time>2020-01-27 10:46:09</time>
      </trkpt>
      <trkpt lat="45.56411" lon="6.58805">
        <ele>1803.876</ele>
        <time>2020-01-27 10:46:10</time>
      </trkpt>
      <trkpt lat="45.5641" lon="6.58806">
        <ele>1805.7705</ele>
        <time>2020-01-27 10:46:11</time>
      </trkpt>
      <trkpt lat="45.5641" lon="6.58807">
        <ele>1805.9419</ele>
        <time>2020-01-27 10:46:12</time>
      </trkpt>
      <trkpt lat="45.56409" lon="6.58806">
        <ele>1807.0718</ele>
        <time>2020-01-27 10:46:13</time>
      </trkpt>
      <trkpt lat="45.56412" lon="6.58806">
        <ele>1803.8538</ele>
        <time>2020-01-27 10:46:26</time>
      </trkpt>
      <trkpt lat="45.56413" lon="6.58806">
        <ele>1802.1138</ele>
        <time>2020-01-27 10:46:27</time>
      </trkpt>
      <trkpt lat="45.56414" lon="6.58805">
        <ele>1802.2722</ele>
        <time>2020-01-27 10:46:28</time>
      </trkpt>
      <trkpt lat="45.56415" lon="6.58805">
        <ele>1802.0916</ele>
        <time>2020-01-27 10:46:29</time>
      </trkpt>
      <trkpt lat="45.56416" lon="6.58805">
        <ele>1803.4683</ele>
        <time>2020-01-27 10:46:30</time>
      </trkpt>
      <trkpt lat="45.56416" lon="6.58804">
        <ele>1803.2256</ele>
        <time>2020-01-27 10:46:31</time>
      </trkpt>
      <trkpt lat="45.56416" lon="6.58805">
        <ele>1802.6589</ele>
        <time>2020-01-27 10:46:32</time>
      </trkpt>
      <trkpt lat="45.56416" lon="6.58806">
        <ele>1804.1274</ele>
        <time>2020-01-27 10:46:44</time>
      </trkpt>
      <trkpt lat="45.56418" lon="6.58806">
        <ele>1803.3896</ele>
        <time>2020-01-27 10:46:45</time>
      </trkpt>
      <trkpt lat="45.56421" lon="6.58805">
        <ele>1802.5806</ele>
        <time>2020-01-27 10:46:51</time>
      </trkpt>
      <trkpt lat="45.56422" lon="6.58805">
        <ele>1802.7632</ele>
        <time>2020-01-27 10:46:52</time>
      </trkpt>
      <trkpt lat="45.56422" lon="6.58805">
        <ele>1801.2715</ele>
        <time>2020-01-27 10:46:54</time>
      </trkpt>
      <trkpt lat="45.56424" lon="6.58806">
        <ele>1799.3276</ele>
        <time>2020-01-27 10:46:55</time>
      </trkpt>
      <trkpt lat="45.56427" lon="6.58804">
        <ele>1802.6238</ele>
        <time>2020-01-27 10:47:10</time>
      </trkpt>
      <trkpt lat="45.56426" lon="6.58805">
        <ele>1809.0454</ele>
        <time>2020-01-27 10:47:12</time>
      </trkpt>
      <trkpt lat="45.56424" lon="6.58806">
        <ele>1814.0557</ele>
        <time>2020-01-27 10:47:18</time>
      </trkpt>
      <trkpt lat="45.56425" lon="6.58806">
        <ele>1812.821</ele>
        <time>2020-01-27 10:47:19</time>
      </trkpt>
      <trkpt lat="45.56426" lon="6.58807">
        <ele>1812.6577</ele>
        <time>2020-01-27 10:47:21</time>
      </trkpt>
      <trkpt lat="45.56427" lon="6.58808">
        <ele>1811.7871</ele>
        <time>2020-01-27 10:47:23</time>
      </trkpt>
      <trkpt lat="45.56427" lon="6.58809">
        <ele>1811.7959</ele>
        <time>2020-01-27 10:47:24</time>
      </trkpt>
      <trkpt lat="45.5643" lon="6.58812">
        <ele>1810.3325</ele>
        <time>2020-01-27 10:47:29</time>
      </trkpt>
      <trkpt lat="45.56434" lon="6.58811">
        <ele>1807.3154</ele>
        <time>2020-01-27 10:47:32</time>
      </trkpt>
      <trkpt lat="45.56435" lon="6.5881">
        <ele>1805.6614</ele>
        <time>2020-01-27 10:47:34</time>
      </trkpt>
      <trkpt lat="45.56436" lon="6.58812">
        <ele>1805.5728</ele>
        <time>2020-01-27 10:47:37</time>
      </trkpt>
      <trkpt lat="45.56436" lon="6.58812">
        <ele>1804.9067</ele>
        <time>2020-01-27 10:47:38</time>
      </trkpt>
      <trkpt lat="45.56437" lon="6.58812">
        <ele>1805.2129</ele>
        <time>2020-01-27 10:47:39</time>
      </trkpt>
      <trkpt lat="45.56436" lon="6.58812">
        <ele>1806.655</ele>
        <time>2020-01-27 10:47:41</time>
      </trkpt>
      <trkpt lat="45.56436" lon="6.58812">
        <ele>1807.248</ele>
        <time>2020-01-27 10:47:42</time>
      </trkpt>
      <trkpt lat="45.56435" lon="6.58813">
        <ele>1808.699</ele>
        <time>2020-01-27 10:47:57</time>
      </trkpt>
      <trkpt lat="45.56435" lon="6.58813">
        <ele>1808.9338</ele>
        <time>2020-01-27 10:47:58</time>
      </trkpt>
      <trkpt lat="45.56436" lon="6.58813">
        <ele>1810.1648</ele>
        <time>2020-01-27 10:48:10</time>
      </trkpt>
      <trkpt lat="45.56436" lon="6.58814">
        <ele>1811.2637</ele>
        <time>2020-01-27 10:48:11</time>
      </trkpt>
      <trkpt lat="45.56436" lon="6.58814">
        <ele>1812.9126</ele>
        <time>2020-01-27 10:48:12</time>
      </trkpt>
      <trkpt lat="45.56435" lon="6.58814">
        <ele>1813.5273</ele>
        <time>2020-01-27 10:48:13</time>
      </trkpt>
      <trkpt lat="45.56435" lon="6.58815">
        <ele>1814.6814</ele>
        <time>2020-01-27 10:48:14</time>
      </trkpt>
      <trkpt lat="45.56435" lon="6.58816">
        <ele>1814.6543</ele>
        <time>2020-01-27 10:48:15</time>
      </trkpt>
      <trkpt lat="45.56435" lon="6.58817">
        <ele>1813.0503</ele>
        <time>2020-01-27 10:48:16</time>
      </trkpt>
      <trkpt lat="45.56435" lon="6.58817">
        <ele>1813.8706</ele>
        <time>2020-01-27 10:48:17</time>
      </trkpt>
      <trkpt lat="45.56434" lon="6.58817">
        <ele>1815.9666</ele>
        <time>2020-01-27 10:48:18</time>
      </trkpt>
      <trkpt lat="45.56435" lon="6.58817">
        <ele>1815.8433</ele>
        <time>2020-01-27 10:48:19</time>
      </trkpt>
      <trkpt lat="45.56436" lon="6.58818">
        <ele>1815.6147</ele>
        <time>2020-01-27 10:48:41</time>
      </trkpt>
      <trkpt lat="45.56436" lon="6.58818">
        <ele>1816.2964</ele>
        <time>2020-01-27 10:48:42</time>
      </trkpt>
      <trkpt lat="45.56437" lon="6.58818">
        <ele>1817.4192</ele>
        <time>2020-01-27 10:48:43</time>
      </trkpt>
      <trkpt lat="45.56437" lon="6.58818">
        <ele>1817.9785</ele>
        <time>2020-01-27 10:48:44</time>
      </trkpt>
      <trkpt lat="45.56438" lon="6.58821">
        <ele>1816.8286</ele>
        <time>2020-01-27 10:48:53</time>
      </trkpt>
      <trkpt lat="45.56439" lon="6.58821">
        <ele>1817.417</ele>
        <time>2020-01-27 10:48:54</time>
      </trkpt>
      <trkpt lat="45.5644" lon="6.58821">
        <ele>1816.6074</ele>
        <time>2020-01-27 10:48:58</time>
      </trkpt>
      <trkpt lat="45.56442" lon="6.58823">
        <ele>1812.8843</ele>
        <time>2020-01-27 10:49:01</time>
      </trkpt>
      <trkpt lat="45.56445" lon="6.58822">
        <ele>1812.6716</ele>
        <time>2020-01-27 10:49:17</time>
      </trkpt>
      <trkpt lat="45.56446" lon="6.58822">
        <ele>1811.6768</ele>
        <time>2020-01-27 10:49:18</time>
      </trkpt>
      <trkpt lat="45.56447" lon="6.58822">
        <ele>1811.5898</ele>
        <time>2020-01-27 10:49:19</time>
      </trkpt>
      <trkpt lat="45.56447" lon="6.58824">
        <ele>1816.8135</ele>
        <time>2020-01-27 10:49:35</time>
      </trkpt>
      <trkpt lat="45.56446" lon="6.58825">
        <ele>1817.4751</ele>
        <time>2020-01-27 10:49:37</time>
      </trkpt>
      <trkpt lat="45.56445" lon="6.58826">
        <ele>1819.1514</ele>
        <time>2020-01-27 10:49:39</time>
      </trkpt>
      <trkpt lat="45.56445" lon="6.58827">
        <ele>1818.7573</ele>
        <time>2020-01-27 10:49:40</time>
      </trkpt>
      <trkpt lat="45.56444" lon="6.58827">
        <ele>1819.6145</ele>
        <time>2020-01-27 10:49:41</time>
      </trkpt>
      <trkpt lat="45.56444" lon="6.58828">
        <ele>1818.7827</ele>
        <time>2020-01-27 10:49:43</time>
      </trkpt>
      <trkpt lat="45.56444" lon="6.58829">
        <ele>1819.3157</ele>
        <time>2020-01-27 10:49:47</time>
      </trkpt>
      <trkpt lat="45.56444" lon="6.5883">
        <ele>1819.335</ele>
        <time>2020-01-27 10:49:49</time>
      </trkpt>
      <trkpt lat="45.56444" lon="6.58831">
        <ele>1819.2202</ele>
        <time>2020-01-27 10:49:51</time>
      </trkpt>
      <trkpt lat="45.56445" lon="6.58831">
        <ele>1818.2415</ele>
        <time>2020-01-27 10:49:52</time>
      </trkpt>
      <trkpt lat="45.56445" lon="6.58831">
        <ele>1818.552</ele>
        <time>2020-01-27 10:49:53</time>
      </trkpt>
      <trkpt lat="45.56446" lon="6.58832">
        <ele>1817.7349</ele>
        <time>2020-01-27 10:49:54</time>
      </trkpt>
      <trkpt lat="45.56446" lon="6.58833">
        <ele>1819.0564</ele>
        <time>2020-01-27 10:49:56</time>
      </trkpt>
      <trkpt lat="45.56446" lon="6.58833">
        <ele>1820.6235</ele>
        <time>2020-01-27 10:49:57</time>
      </trkpt>
      <trkpt lat="45.56446" lon="6.58834">
        <ele>1820.4526</ele>
        <time>2020-01-27 10:49:58</time>
      </trkpt>
      <trkpt lat="45.56445" lon="6.58834">
        <ele>1822.6831</ele>
        <time>2020-01-27 10:49:59</time>
      </trkpt>
      <trkpt lat="45.56444" lon="6.58834">
        <ele>1821.8242</ele>
        <time>2020-01-27 10:50:00</time>
      </trkpt>
      <trkpt lat="45.56444" lon="6.58835">
        <ele>1821.8184</ele>
        <time>2020-01-27 10:50:01</time>
      </trkpt>
      <trkpt lat="45.56446" lon="6.58833">
        <ele>1821.8489</ele>
        <time>2020-01-27 10:50:31</time>
      </trkpt>
      <trkpt lat="45.56445" lon="6.58833">
        <ele>1821.6826</ele>
        <time>2020-01-27 10:51:08</time>
      </trkpt>
      <trkpt lat="45.56447" lon="6.58838">
        <ele>1816.8789</ele>
        <time>2020-01-27 10:51:49</time>
      </trkpt>
      <trkpt lat="45.56447" lon="6.58838">
        <ele>1815.9219</ele>
        <time>2020-01-27 10:52:03</time>
      </trkpt>
      <trkpt lat="45.56448" lon="6.58838">
        <ele>1815.6172</ele>
        <time>2020-01-27 10:52:04</time>
      </trkpt>
      <trkpt lat="45.56448" lon="6.58839">
        <ele>1815.468</ele>
        <time>2020-01-27 10:52:08</time>
      </trkpt>
      <trkpt lat="45.56449" lon="6.5884">
        <ele>1814.9634</ele>
        <time>2020-01-27 10:52:09</time>
      </trkpt>
      <trkpt lat="45.56449" lon="6.58842">
        <ele>1816.8306</ele>
        <time>2020-01-27 10:52:14</time>
      </trkpt>
      <trkpt lat="45.56449" lon="6.58842">
        <ele>1817.0791</ele>
        <time>2020-01-27 10:52:15</time>
      </trkpt>
      <trkpt lat="45.56449" lon="6.58841">
        <ele>1817.2173</ele>
        <time>2020-01-27 10:52:16</time>
      </trkpt>
      <trkpt lat="45.56451" lon="6.58842">
        <ele>1817.1284</ele>
        <time>2020-01-27 10:52:27</time>
      </trkpt>
      <trkpt lat="45.56452" lon="6.58842">
        <ele>1817.0217</ele>
        <time>2020-01-27 10:52:28</time>
      </trkpt>
      <trkpt lat="45.56454" lon="6.58842">
        <ele>1814.3325</ele>
        <time>2020-01-27 10:52:32</time>
      </trkpt>
      <trkpt lat="45.56455" lon="6.58842">
        <ele>1815.3462</ele>
        <time>2020-01-27 10:52:33</time>
      </trkpt>
      <trkpt lat="45.56453" lon="6.58841">
        <ele>1820.2349</ele>
        <time>2020-01-27 10:52:46</time>
      </trkpt>
      <trkpt lat="45.56454" lon="6.58841">
        <ele>1820.0474</ele>
        <time>2020-01-27 10:52:47</time>
      </trkpt>
      <trkpt lat="45.56454" lon="6.58839">
        <ele>1823.5488</ele>
        <time>2020-01-27 10:52:54</time>
      </trkpt>
      <trkpt lat="45.56455" lon="6.5884">
        <ele>1822.9287</ele>
        <time>2020-01-27 10:52:55</time>
      </trkpt>
      <trkpt lat="45.56455" lon="6.5884">
        <ele>1822.7148</ele>
        <time>2020-01-27 10:52:56</time>
      </trkpt>
      <trkpt lat="45.56456" lon="6.58843">
        <ele>1822.1982</ele>
        <time>2020-01-27 10:53:02</time>
      </trkpt>
      <trkpt lat="45.56456" lon="6.58844">
        <ele>1824.4194</ele>
        <time>2020-01-27 10:53:03</time>
      </trkpt>
      <trkpt lat="45.56455" lon="6.58845">
        <ele>1823.926</ele>
        <time>2020-01-27 10:53:04</time>
      </trkpt>
      <trkpt lat="45.56455" lon="6.58845">
        <ele>1824.0322</ele>
        <time>2020-01-27 10:53:05</time>
      </trkpt>
      <trkpt lat="45.56456" lon="6.58847">
        <ele>1823.4082</ele>
        <time>2020-01-27 10:53:09</time>
      </trkpt>
      <trkpt lat="45.56457" lon="6.58849">
        <ele>1822.2207</ele>
        <time>2020-01-27 10:53:11</time>
      </trkpt>
      <trkpt lat="45.56458" lon="6.58851">
        <ele>1822.3308</ele>
        <time>2020-01-27 10:53:12</time>
      </trkpt>
      <trkpt lat="45.56458" lon="6.58852">
        <ele>1822.6316</ele>
        <time>2020-01-27 10:53:13</time>
      </trkpt>
      <trkpt lat="45.56458" lon="6.58853">
        <ele>1823.2803</ele>
        <time>2020-01-27 10:53:14</time>
      </trkpt>
      <trkpt lat="45.56458" lon="6.58855">
        <ele>1821.8093</ele>
        <time>2020-01-27 10:53:18</time>
      </trkpt>
      <trkpt lat="45.56456" lon="6.58856">
        <ele>1823.2817</ele>
        <time>2020-01-27 10:53:24</time>
      </trkpt>
      <trkpt lat="45.56456" lon="6.58857">
        <ele>1823.8364</ele>
        <time>2020-01-27 10:53:25</time>
      </trkpt>
      <trkpt lat="45.56456" lon="6.58857">
        <ele>1823.4917</ele>
        <time>2020-01-27 10:53:26</time>
      </trkpt>
      <trkpt lat="45.56456" lon="6.5886">
        <ele>1823.8398</ele>
        <time>2020-01-27 10:53:28</time>
      </trkpt>
      <trkpt lat="45.56456" lon="6.58863">
        <ele>1825.5083</ele>
        <time>2020-01-27 10:53:45</time>
      </trkpt>
      <trkpt lat="45.56456" lon="6.58864">
        <ele>1825.8564</ele>
        <time>2020-01-27 10:53:46</time>
      </trkpt>
      <trkpt lat="45.56459" lon="6.58865">
        <ele>1823.9478</ele>
        <time>2020-01-27 10:53:50</time>
      </trkpt>
      <trkpt lat="45.5646" lon="6.58865">
        <ele>1823.6616</ele>
        <time>2020-01-27 10:53:51</time>
      </trkpt>
      <trkpt lat="45.56461" lon="6.58864">
        <ele>1822.1892</ele>
        <time>2020-01-27 10:53:52</time>
      </trkpt>
      <trkpt lat="45.56464" lon="6.58861">
        <ele>1821.394</ele>
        <time>2020-01-27 10:54:08</time>
      </trkpt>
      <trkpt lat="45.56465" lon="6.58861">
        <ele>1822.6396</ele>
        <time>2020-01-27 10:54:09</time>
      </trkpt>
      <trkpt lat="45.56466" lon="6.58861">
        <ele>1820.1104</ele>
        <time>2020-01-27 10:54:10</time>
      </trkpt>
      <trkpt lat="45.56466" lon="6.58862">
        <ele>1820.4109</ele>
        <time>2020-01-27 10:54:11</time>
      </trkpt>
      <trkpt lat="45.56467" lon="6.58862">
        <ele>1823.0293</ele>
        <time>2020-01-27 10:54:17</time>
      </trkpt>
      <trkpt lat="45.56467" lon="6.58862">
        <ele>1822.667</ele>
        <time>2020-01-27 10:54:18</time>
      </trkpt>
      <trkpt lat="45.56467" lon="6.58862">
        <ele>1823.44</ele>
        <time>2020-01-27 10:54:21</time>
      </trkpt>
      <trkpt lat="45.56468" lon="6.58862">
        <ele>1824.4194</ele>
        <time>2020-01-27 10:54:22</time>
      </trkpt>
      <trkpt lat="45.56469" lon="6.58863">
        <ele>1824.4956</ele>
        <time>2020-01-27 10:54:28</time>
      </trkpt>
      <trkpt lat="45.56469" lon="6.58862">
        <ele>1824.0161</ele>
        <time>2020-01-27 10:54:29</time>
      </trkpt>
      <trkpt lat="45.56469" lon="6.58862">
        <ele>1827.3838</ele>
        <time>2020-01-27 10:54:38</time>
      </trkpt>
      <trkpt lat="45.56469" lon="6.58862">
        <ele>1828.7063</ele>
        <time>2020-01-27 10:54:39</time>
      </trkpt>
      <trkpt lat="45.56469" lon="6.58863">
        <ele>1828.8472</ele>
        <time>2020-01-27 10:54:40</time>
      </trkpt>
      <trkpt lat="45.56469" lon="6.58863">
        <ele>1830.4951</ele>
        <time>2020-01-27 10:54:41</time>
      </trkpt>
      <trkpt lat="45.56469" lon="6.58863">
        <ele>1831.2788</ele>
        <time>2020-01-27 10:54:44</time>
      </trkpt>
      <trkpt lat="45.56467" lon="6.58868">
        <ele>1837.3535</ele>
        <time>2020-01-27 10:54:51</time>
      </trkpt>
      <trkpt lat="45.56468" lon="6.58869">
        <ele>1837.4282</ele>
        <time>2020-01-27 10:54:52</time>
      </trkpt>
      <trkpt lat="45.56468" lon="6.58869">
        <ele>1837.4009</ele>
        <time>2020-01-27 10:54:53</time>
      </trkpt>
      <trkpt lat="45.56468" lon="6.5887">
        <ele>1836.7056</ele>
        <time>2020-01-27 10:54:54</time>
      </trkpt>
      <trkpt lat="45.56468" lon="6.58872">
        <ele>1835.4121</ele>
        <time>2020-01-27 10:54:58</time>
      </trkpt>
      <trkpt lat="45.56468" lon="6.58873">
        <ele>1836.3667</ele>
        <time>2020-01-27 10:55:01</time>
      </trkpt>
      <trkpt lat="45.56468" lon="6.58874">
        <ele>1838.8906</ele>
        <time>2020-01-27 10:55:03</time>
      </trkpt>
      <trkpt lat="45.56468" lon="6.58875">
        <ele>1839.863</ele>
        <time>2020-01-27 10:55:06</time>
      </trkpt>
      <trkpt lat="45.56468" lon="6.58876">
        <ele>1838.9072</ele>
        <time>2020-01-27 10:55:07</time>
      </trkpt>
      <trkpt lat="45.56468" lon="6.58876">
        <ele>1839.8784</ele>
        <time>2020-01-27 10:55:08</time>
      </trkpt>
      <trkpt lat="45.5647" lon="6.58878">
        <ele>1838.165</ele>
        <time>2020-01-27 10:55:11</time>
      </trkpt>
      <trkpt lat="45.56473" lon="6.58881">
        <ele>1835.354</ele>
        <time>2020-01-27 10:55:18</time>
      </trkpt>
      <trkpt lat="45.56473" lon="6.58882">
        <ele>1835.5176</ele>
        <time>2020-01-27 10:55:19</time>
      </trkpt>
      <trkpt lat="45.56474" lon="6.58882">
        <ele>1834.4248</ele>
        <time>2020-01-27 10:55:20</time>
      </trkpt>
      <trkpt lat="45.56474" lon="6.58882">
        <ele>1837.791</ele>
        <time>2020-01-27 10:55:21</time>
      </trkpt>
      <trkpt lat="45.56475" lon="6.58882">
        <ele>1837.185</ele>
        <time>2020-01-27 10:55:22</time>
      </trkpt>
      <trkpt lat="45.56475" lon="6.58882">
        <ele>1837.5725</ele>
        <time>2020-01-27 10:55:23</time>
      </trkpt>
      <trkpt lat="45.56478" lon="6.58882">
        <ele>1835.6174</ele>
        <time>2020-01-27 10:55:26</time>
      </trkpt>
      <trkpt lat="45.56479" lon="6.58882">
        <ele>1836.043</ele>
        <time>2020-01-27 10:55:27</time>
      </trkpt>
      <trkpt lat="45.5648" lon="6.5888">
        <ele>1839.7764</ele>
        <time>2020-01-27 10:55:35</time>
      </trkpt>
      <trkpt lat="45.56481" lon="6.5888">
        <ele>1840.0962</ele>
        <time>2020-01-27 10:55:36</time>
      </trkpt>
      <trkpt lat="45.56481" lon="6.58878">
        <ele>1842.6279</ele>
        <time>2020-01-27 10:55:39</time>
      </trkpt>
      <trkpt lat="45.56481" lon="6.58878">
        <ele>1842.7288</ele>
        <time>2020-01-27 10:55:40</time>
      </trkpt>
      <trkpt lat="45.56482" lon="6.58877">
        <ele>1843.9072</ele>
        <time>2020-01-27 10:55:42</time>
      </trkpt>
      <trkpt lat="45.56483" lon="6.58877">
        <ele>1843.448</ele>
        <time>2020-01-27 10:55:43</time>
      </trkpt>
      <trkpt lat="45.56484" lon="6.58877">
        <ele>1841.6919</ele>
        <time>2020-01-27 10:55:44</time>
      </trkpt>
      <trkpt lat="45.56485" lon="6.58876">
        <ele>1840.3235</ele>
        <time>2020-01-27 10:55:46</time>
      </trkpt>
      <trkpt lat="45.56485" lon="6.58876">
        <ele>1840.2495</ele>
        <time>2020-01-27 10:55:47</time>
      </trkpt>
      <trkpt lat="45.56486" lon="6.58875">
        <ele>1840.981</ele>
        <time>2020-01-27 10:55:48</time>
      </trkpt>
      <trkpt lat="45.56486" lon="6.58875">
        <ele>1841.2515</ele>
        <time>2020-01-27 10:55:50</time>
      </trkpt>
      <trkpt lat="45.56487" lon="6.58875">
        <ele>1841.458</ele>
        <time>2020-01-27 10:55:51</time>
      </trkpt>
      <trkpt lat="45.56486" lon="6.58875">
        <ele>1840.7402</ele>
        <time>2020-01-27 10:55:52</time>
      </trkpt>
      <trkpt lat="45.56486" lon="6.58876">
        <ele>1841.3916</ele>
        <time>2020-01-27 10:55:54</time>
      </trkpt>
      <trkpt lat="45.56486" lon="6.58876">
        <ele>1840.5969</ele>
        <time>2020-01-27 10:55:55</time>
      </trkpt>
      <trkpt lat="45.56488" lon="6.58875">
        <ele>1839.0073</ele>
        <time>2020-01-27 10:56:04</time>
      </trkpt>
      <trkpt lat="45.56489" lon="6.58875">
        <ele>1841.4814</ele>
        <time>2020-01-27 10:56:06</time>
      </trkpt>
      <trkpt lat="45.56489" lon="6.58873">
        <ele>1843.519</ele>
        <time>2020-01-27 10:56:11</time>
      </trkpt>
      <trkpt lat="45.5649" lon="6.58874">
        <ele>1842.9209</ele>
        <time>2020-01-27 10:56:12</time>
      </trkpt>
      <trkpt lat="45.5649" lon="6.58875">
        <ele>1842.9531</ele>
        <time>2020-01-27 10:56:13</time>
      </trkpt>
      <trkpt lat="45.56493" lon="6.58879">
        <ele>1845.0986</ele>
        <time>2020-01-27 10:56:20</time>
      </trkpt>
      <trkpt lat="45.56493" lon="6.5888">
        <ele>1845.5088</ele>
        <time>2020-01-27 10:56:21</time>
      </trkpt>
      <trkpt lat="45.56493" lon="6.58882">
        <ele>1846.0745</ele>
        <time>2020-01-27 10:56:23</time>
      </trkpt>
      <trkpt lat="45.56493" lon="6.58883">
        <ele>1846.4629</ele>
        <time>2020-01-27 10:56:24</time>
      </trkpt>
      <trkpt lat="45.56493" lon="6.58885">
        <ele>1847.6963</ele>
        <time>2020-01-27 10:56:30</time>
      </trkpt>
      <trkpt lat="45.56494" lon="6.58886">
        <ele>1846.8738</ele>
        <time>2020-01-27 10:56:31</time>
      </trkpt>
      <trkpt lat="45.56494" lon="6.58886">
        <ele>1847.471</ele>
        <time>2020-01-27 10:56:33</time>
      </trkpt>
      <trkpt lat="45.56494" lon="6.58888">
        <ele>1849.3098</ele>
        <time>2020-01-27 10:56:35</time>
      </trkpt>
      <trkpt lat="45.56494" lon="6.5889">
        <ele>1849.2437</ele>
        <time>2020-01-27 10:56:36</time>
      </trkpt>
      <trkpt lat="45.56494" lon="6.5889">
        <ele>1849.4458</ele>
        <time>2020-01-27 10:56:37</time>
      </trkpt>
      <trkpt lat="45.56494" lon="6.58891">
        <ele>1849.2561</ele>
        <time>2020-01-27 10:56:38</time>
      </trkpt>
      <trkpt lat="45.56495" lon="6.58891">
        <ele>1848.4983</ele>
        <time>2020-01-27 10:56:39</time>
      </trkpt>
      <trkpt lat="45.56498" lon="6.58893">
        <ele>1846.042</ele>
        <time>2020-01-27 10:56:45</time>
      </trkpt>
      <trkpt lat="45.56499" lon="6.58893">
        <ele>1845.9648</ele>
        <time>2020-01-27 10:56:46</time>
      </trkpt>
      <trkpt lat="45.56499" lon="6.58893">
        <ele>1845.6528</ele>
        <time>2020-01-27 10:56:47</time>
      </trkpt>
      <trkpt lat="45.565" lon="6.58893">
        <ele>1844.6758</ele>
        <time>2020-01-27 10:56:48</time>
      </trkpt>
      <trkpt lat="45.56501" lon="6.58892">
        <ele>1844.5791</ele>
        <time>2020-01-27 10:56:49</time>
      </trkpt>
      <trkpt lat="45.56502" lon="6.58892">
        <ele>1845.0508</ele>
        <time>2020-01-27 10:56:53</time>
      </trkpt>
      <trkpt lat="45.56504" lon="6.58892">
        <ele>1845.8958</ele>
        <time>2020-01-27 10:57:10</time>
      </trkpt>
      <trkpt lat="45.56505" lon="6.58891">
        <ele>1846.7913</ele>
        <time>2020-01-27 10:57:11</time>
      </trkpt>
      <trkpt lat="45.56506" lon="6.5889">
        <ele>1845.9958</ele>
        <time>2020-01-27 10:57:12</time>
      </trkpt>
      <trkpt lat="45.56506" lon="6.58888">
        <ele>1847.9106</ele>
        <time>2020-01-27 10:57:13</time>
      </trkpt>
      <trkpt lat="45.56507" lon="6.58888">
        <ele>1848.2632</ele>
        <time>2020-01-27 10:57:14</time>
      </trkpt>
      <trkpt lat="45.56508" lon="6.58886">
        <ele>1848.2898</ele>
        <time>2020-01-27 10:57:17</time>
      </trkpt>
      <trkpt lat="45.56509" lon="6.58886">
        <ele>1850.5273</ele>
        <time>2020-01-27 10:57:24</time>
      </trkpt>
      <trkpt lat="45.56509" lon="6.58888">
        <ele>1851.2283</ele>
        <time>2020-01-27 10:57:26</time>
      </trkpt>
      <trkpt lat="45.56509" lon="6.58889">
        <ele>1850.9556</ele>
        <time>2020-01-27 10:57:27</time>
      </trkpt>
      <trkpt lat="45.5651" lon="6.5889">
        <ele>1850.1086</ele>
        <time>2020-01-27 10:57:28</time>
      </trkpt>
      <trkpt lat="45.56511" lon="6.5889">
        <ele>1850.4202</ele>
        <time>2020-01-27 10:57:29</time>
      </trkpt>
      <trkpt lat="45.56511" lon="6.58891">
        <ele>1849.6155</ele>
        <time>2020-01-27 10:57:31</time>
      </trkpt>
      <trkpt lat="45.56512" lon="6.58891">
        <ele>1849.2231</ele>
        <time>2020-01-27 10:57:32</time>
      </trkpt>
      <trkpt lat="45.56512" lon="6.58892">
        <ele>1851.1316</ele>
        <time>2020-01-27 10:57:33</time>
      </trkpt>
      <trkpt lat="45.56513" lon="6.58893">
        <ele>1852.7261</ele>
        <time>2020-01-27 10:57:35</time>
      </trkpt>
      <trkpt lat="45.56514" lon="6.58894">
        <ele>1853.7319</ele>
        <time>2020-01-27 10:57:36</time>
      </trkpt>
      <trkpt lat="45.56515" lon="6.58894">
        <ele>1854.9001</ele>
        <time>2020-01-27 10:57:38</time>
      </trkpt>
      <trkpt lat="45.56514" lon="6.58895">
        <ele>1855.46</ele>
        <time>2020-01-27 10:57:41</time>
      </trkpt>
      <trkpt lat="45.56515" lon="6.58895">
        <ele>1855.1719</ele>
        <time>2020-01-27 10:57:42</time>
      </trkpt>
      <trkpt lat="45.56515" lon="6.58896">
        <ele>1856.2463</ele>
        <time>2020-01-27 10:57:43</time>
      </trkpt>
      <trkpt lat="45.56514" lon="6.58897">
        <ele>1859.1077</ele>
        <time>2020-01-27 10:57:45</time>
      </trkpt>
      <trkpt lat="45.56514" lon="6.58898">
        <ele>1859.1624</ele>
        <time>2020-01-27 10:57:48</time>
      </trkpt>
      <trkpt lat="45.56514" lon="6.58899">
        <ele>1859.6582</ele>
        <time>2020-01-27 10:57:49</time>
      </trkpt>
      <trkpt lat="45.56514" lon="6.589">
        <ele>1859.5413</ele>
        <time>2020-01-27 10:57:50</time>
      </trkpt>
      <trkpt lat="45.56515" lon="6.58901">
        <ele>1861.19</ele>
        <time>2020-01-27 10:57:52</time>
      </trkpt>
      <trkpt lat="45.56516" lon="6.58902">
        <ele>1860.0105</ele>
        <time>2020-01-27 10:57:55</time>
      </trkpt>
      <trkpt lat="45.56516" lon="6.58903">
        <ele>1860.2866</ele>
        <time>2020-01-27 10:57:56</time>
      </trkpt>
      <trkpt lat="45.56516" lon="6.58903">
        <ele>1860.8564</ele>
        <time>2020-01-27 10:57:58</time>
      </trkpt>
      <trkpt lat="45.56516" lon="6.58904">
        <ele>1859.4482</ele>
        <time>2020-01-27 10:57:59</time>
      </trkpt>
      <trkpt lat="45.56516" lon="6.58905">
        <ele>1859.082</ele>
        <time>2020-01-27 10:58:07</time>
      </trkpt>
      <trkpt lat="45.56518" lon="6.58903">
        <ele>1859.543</ele>
        <time>2020-01-27 10:58:09</time>
      </trkpt>
      <trkpt lat="45.56518" lon="6.58903">
        <ele>1859.4917</ele>
        <time>2020-01-27 10:58:10</time>
      </trkpt>
      <trkpt lat="45.56518" lon="6.58903">
        <ele>1860.1304</ele>
        <time>2020-01-27 10:58:11</time>
      </trkpt>
      <trkpt lat="45.56519" lon="6.58902">
        <ele>1859.7954</ele>
        <time>2020-01-27 10:58:12</time>
      </trkpt>
      <trkpt lat="45.56519" lon="6.58902">
        <ele>1859.791</ele>
        <time>2020-01-27 10:58:13</time>
      </trkpt>
      <trkpt lat="45.56522" lon="6.58903">
        <ele>1858.6221</ele>
        <time>2020-01-27 10:58:23</time>
      </trkpt>
      <trkpt lat="45.56522" lon="6.58903">
        <ele>1856.3281</ele>
        <time>2020-01-27 10:58:24</time>
      </trkpt>
      <trkpt lat="45.56523" lon="6.58903">
        <ele>1856.6289</ele>
        <time>2020-01-27 10:58:29</time>
      </trkpt>
      <trkpt lat="45.56523" lon="6.58903">
        <ele>1857.5496</ele>
        <time>2020-01-27 10:58:30</time>
      </trkpt>
      <trkpt lat="45.56524" lon="6.58903">
        <ele>1857.0469</ele>
        <time>2020-01-27 10:58:32</time>
      </trkpt>
      <trkpt lat="45.56527" lon="6.58901">
        <ele>1858.1082</ele>
        <time>2020-01-27 10:58:35</time>
      </trkpt>
      <trkpt lat="45.56529" lon="6.58898">
        <ele>1860.2876</ele>
        <time>2020-01-27 10:58:58</time>
      </trkpt>
      <trkpt lat="45.5653" lon="6.58897">
        <ele>1860.3359</ele>
        <time>2020-01-27 10:59:00</time>
      </trkpt>
      <trkpt lat="45.5653" lon="6.58897">
        <ele>1860.8823</ele>
        <time>2020-01-27 10:59:01</time>
      </trkpt>
      <trkpt lat="45.5653" lon="6.58897">
        <ele>1861.0234</ele>
        <time>2020-01-27 10:59:02</time>
      </trkpt>
      <trkpt lat="45.56531" lon="6.58897">
        <ele>1862.7666</ele>
        <time>2020-01-27 10:59:03</time>
      </trkpt>
      <trkpt lat="45.56532" lon="6.58899">
        <ele>1870.0659</ele>
        <time>2020-01-27 10:59:09</time>
      </trkpt>
      <trkpt lat="45.56532" lon="6.58899">
        <ele>1870.2075</ele>
        <time>2020-01-27 10:59:10</time>
      </trkpt>
      <trkpt lat="45.56532" lon="6.58899">
        <ele>1871.603</ele>
        <time>2020-01-27 10:59:11</time>
      </trkpt>
      <trkpt lat="45.56533" lon="6.58899">
        <ele>1873.1453</ele>
        <time>2020-01-27 10:59:12</time>
      </trkpt>
      <trkpt lat="45.56534" lon="6.589">
        <ele>1873.8755</ele>
        <time>2020-01-27 10:59:13</time>
      </trkpt>
      <trkpt lat="45.56534" lon="6.58901">
        <ele>1873.5403</ele>
        <time>2020-01-27 10:59:14</time>
      </trkpt>
      <trkpt lat="45.56538" lon="6.58905">
        <ele>1872.2427</ele>
        <time>2020-01-27 10:59:21</time>
      </trkpt>
      <trkpt lat="45.56539" lon="6.58906">
        <ele>1871.544</ele>
        <time>2020-01-27 10:59:22</time>
      </trkpt>
      <trkpt lat="45.5654" lon="6.58907">
        <ele>1870.7539</ele>
        <time>2020-01-27 10:59:23</time>
      </trkpt>
      <trkpt lat="45.5654" lon="6.58907">
        <ele>1870.3667</ele>
        <time>2020-01-27 10:59:24</time>
      </trkpt>
      <trkpt lat="45.56541" lon="6.58908">
        <ele>1869.9282</ele>
        <time>2020-01-27 10:59:27</time>
      </trkpt>
      <trkpt lat="45.56542" lon="6.58909">
        <ele>1870.2402</ele>
        <time>2020-01-27 10:59:29</time>
      </trkpt>
      <trkpt lat="45.56542" lon="6.5891">
        <ele>1870.1177</ele>
        <time>2020-01-27 10:59:30</time>
      </trkpt>
      <trkpt lat="45.56542" lon="6.58911">
        <ele>1870.1912</ele>
        <time>2020-01-27 10:59:31</time>
      </trkpt>
      <trkpt lat="45.56542" lon="6.58912">
        <ele>1869.4448</ele>
        <time>2020-01-27 10:59:35</time>
      </trkpt>
      <trkpt lat="45.56543" lon="6.58912">
        <ele>1868.9756</ele>
        <time>2020-01-27 10:59:36</time>
      </trkpt>
      <trkpt lat="45.56543" lon="6.58913">
        <ele>1868.8896</ele>
        <time>2020-01-27 10:59:37</time>
      </trkpt>
      <trkpt lat="45.56543" lon="6.58914">
        <ele>1869.1375</ele>
        <time>2020-01-27 10:59:38</time>
      </trkpt>
      <trkpt lat="45.56543" lon="6.58915">
        <ele>1869.396</ele>
        <time>2020-01-27 10:59:39</time>
      </trkpt>
      <trkpt lat="45.56543" lon="6.58915">
        <ele>1869.894</ele>
        <time>2020-01-27 10:59:40</time>
      </trkpt>
      <trkpt lat="45.56542" lon="6.58919">
        <ele>1873.4619</ele>
        <time>2020-01-27 10:59:46</time>
      </trkpt>
      <trkpt lat="45.56542" lon="6.58922">
        <ele>1871.9316</ele>
        <time>2020-01-27 10:59:50</time>
      </trkpt>
      <trkpt lat="45.56542" lon="6.58923">
        <ele>1873.081</ele>
        <time>2020-01-27 10:59:51</time>
      </trkpt>
      <trkpt lat="45.56542" lon="6.58924">
        <ele>1872.9902</ele>
        <time>2020-01-27 10:59:52</time>
      </trkpt>
      <trkpt lat="45.56542" lon="6.58924">
        <ele>1872.0317</ele>
        <time>2020-01-27 10:59:53</time>
      </trkpt>
      <trkpt lat="45.56542" lon="6.58925">
        <ele>1870.6382</ele>
        <time>2020-01-27 10:59:56</time>
      </trkpt>
      <trkpt lat="45.56542" lon="6.58926">
        <ele>1870.8491</ele>
        <time>2020-01-27 10:59:57</time>
      </trkpt>
      <trkpt lat="45.56542" lon="6.58929">
        <ele>1870.7324</ele>
        <time>2020-01-27 11:00:02</time>
      </trkpt>
      <trkpt lat="45.56543" lon="6.58929">
        <ele>1871.4543</ele>
        <time>2020-01-27 11:00:05</time>
      </trkpt>
      <trkpt lat="45.56543" lon="6.58928">
        <ele>1871.9297</ele>
        <time>2020-01-27 11:00:06</time>
      </trkpt>
      <trkpt lat="45.56544" lon="6.58928">
        <ele>1871.3782</ele>
        <time>2020-01-27 11:00:07</time>
      </trkpt>
      <trkpt lat="45.56544" lon="6.58928">
        <ele>1871.7153</ele>
        <time>2020-01-27 11:00:08</time>
      </trkpt>
      <trkpt lat="45.56545" lon="6.58928">
        <ele>1871.7607</ele>
        <time>2020-01-27 11:00:09</time>
      </trkpt>
      <trkpt lat="45.56545" lon="6.58928">
        <ele>1873.4712</ele>
        <time>2020-01-27 11:00:11</time>
      </trkpt>
      <trkpt lat="45.56546" lon="6.58928">
        <ele>1873.5588</ele>
        <time>2020-01-27 11:00:12</time>
      </trkpt>
      <trkpt lat="45.56546" lon="6.58929">
        <ele>1871.8008</ele>
        <time>2020-01-27 11:00:13</time>
      </trkpt>
      <trkpt lat="45.56547" lon="6.58929">
        <ele>1870.6675</ele>
        <time>2020-01-27 11:00:14</time>
      </trkpt>
      <trkpt lat="45.56548" lon="6.5893">
        <ele>1871.2109</ele>
        <time>2020-01-27 11:00:15</time>
      </trkpt>
      <trkpt lat="45.56548" lon="6.5893">
        <ele>1870.8726</ele>
        <time>2020-01-27 11:00:16</time>
      </trkpt>
      <trkpt lat="45.56549" lon="6.58931">
        <ele>1871.0186</ele>
        <time>2020-01-27 11:00:17</time>
      </trkpt>
      <trkpt lat="45.5655" lon="6.58931">
        <ele>1869.3066</ele>
        <time>2020-01-27 11:00:18</time>
      </trkpt>
      <trkpt lat="45.5655" lon="6.5893">
        <ele>1869.708</ele>
        <time>2020-01-27 11:00:19</time>
      </trkpt>
      <trkpt lat="45.5655" lon="6.5893">
        <ele>1868.3718</ele>
        <time>2020-01-27 11:00:20</time>
      </trkpt>
      <trkpt lat="45.56551" lon="6.58929">
        <ele>1868.0125</ele>
        <time>2020-01-27 11:00:21</time>
      </trkpt>
      <trkpt lat="45.56552" lon="6.58929">
        <ele>1867.5874</ele>
        <time>2020-01-27 11:00:22</time>
      </trkpt>
      <trkpt lat="45.56553" lon="6.58929">
        <ele>1869.977</ele>
        <time>2020-01-27 11:00:23</time>
      </trkpt>
      <trkpt lat="45.56554" lon="6.58929">
        <ele>1870.3132</ele>
        <time>2020-01-27 11:00:24</time>
      </trkpt>
      <trkpt lat="45.56555" lon="6.58928">
        <ele>1869.8408</ele>
        <time>2020-01-27 11:00:25</time>
      </trkpt>
      <trkpt lat="45.56556" lon="6.58926">
        <ele>1870.4414</ele>
        <time>2020-01-27 11:00:28</time>
      </trkpt>
      <trkpt lat="45.56556" lon="6.58925">
        <ele>1868.6733</ele>
        <time>2020-01-27 11:00:30</time>
      </trkpt>
      <trkpt lat="45.56556" lon="6.58924">
        <ele>1870.2695</ele>
        <time>2020-01-27 11:00:32</time>
      </trkpt>
      <trkpt lat="45.56559" lon="6.5892">
        <ele>1875.2808</ele>
        <time>2020-01-27 11:00:37</time>
      </trkpt>
      <trkpt lat="45.56559" lon="6.58918">
        <ele>1874.8145</ele>
        <time>2020-01-27 11:00:38</time>
      </trkpt>
      <trkpt lat="45.56559" lon="6.58918">
        <ele>1874.0859</ele>
        <time>2020-01-27 11:00:39</time>
      </trkpt>
      <trkpt lat="45.56559" lon="6.58917">
        <ele>1873.4788</ele>
        <time>2020-01-27 11:00:40</time>
      </trkpt>
      <trkpt lat="45.5656" lon="6.58915">
        <ele>1872.7402</ele>
        <time>2020-01-27 11:00:46</time>
      </trkpt>
      <trkpt lat="45.5656" lon="6.58915">
        <ele>1874.0835</ele>
        <time>2020-01-27 11:00:47</time>
      </trkpt>
      <trkpt lat="45.5656" lon="6.58915">
        <ele>1874.6719</ele>
        <time>2020-01-27 11:00:55</time>
      </trkpt>
      <trkpt lat="45.56561" lon="6.58916">
        <ele>1876.9204</ele>
        <time>2020-01-27 11:00:56</time>
      </trkpt>
      <trkpt lat="45.56562" lon="6.58917">
        <ele>1876.918</ele>
        <time>2020-01-27 11:01:00</time>
      </trkpt>
      <trkpt lat="45.56562" lon="6.58917">
        <ele>1878.5557</ele>
        <time>2020-01-27 11:01:01</time>
      </trkpt>
      <trkpt lat="45.56562" lon="6.58918">
        <ele>1880.3633</ele>
        <time>2020-01-27 11:01:02</time>
      </trkpt>
      <trkpt lat="45.56562" lon="6.58917">
        <ele>1881.4106</ele>
        <time>2020-01-27 11:01:03</time>
      </trkpt>
      <trkpt lat="45.56562" lon="6.58918">
        <ele>1881.4878</ele>
        <time>2020-01-27 11:01:04</time>
      </trkpt>
      <trkpt lat="45.56562" lon="6.58919">
        <ele>1883.9634</ele>
        <time>2020-01-27 11:01:05</time>
      </trkpt>
      <trkpt lat="45.56562" lon="6.5892">
        <ele>1884.625</ele>
        <time>2020-01-27 11:01:06</time>
      </trkpt>
      <trkpt lat="45.56562" lon="6.58921">
        <ele>1884.6831</ele>
        <time>2020-01-27 11:01:07</time>
      </trkpt>
      <trkpt lat="45.56562" lon="6.58922">
        <ele>1886.1499</ele>
        <time>2020-01-27 11:01:08</time>
      </trkpt>
      <trkpt lat="45.56561" lon="6.58923">
        <ele>1888.4348</ele>
        <time>2020-01-27 11:01:12</time>
      </trkpt>
      <trkpt lat="45.56561" lon="6.58923">
        <ele>1889.6069</ele>
        <time>2020-01-27 11:01:20</time>
      </trkpt>
      <trkpt lat="45.56561" lon="6.58924">
        <ele>1890.5264</ele>
        <time>2020-01-27 11:01:21</time>
      </trkpt>
      <trkpt lat="45.56562" lon="6.58925">
        <ele>1890.54</ele>
        <time>2020-01-27 11:01:22</time>
      </trkpt>
      <trkpt lat="45.56562" lon="6.58926">
        <ele>1890.6067</ele>
        <time>2020-01-27 11:01:23</time>
      </trkpt>
      <trkpt lat="45.56564" lon="6.58928">
        <ele>1892.8284</ele>
        <time>2020-01-27 11:01:37</time>
      </trkpt>
      <trkpt lat="45.56564" lon="6.58929">
        <ele>1893.124</ele>
        <time>2020-01-27 11:01:38</time>
      </trkpt>
      <trkpt lat="45.56564" lon="6.5893">
        <ele>1893.3042</ele>
        <time>2020-01-27 11:01:39</time>
      </trkpt>
      <trkpt lat="45.56564" lon="6.58931">
        <ele>1893.6548</ele>
        <time>2020-01-27 11:01:40</time>
      </trkpt>
      <trkpt lat="45.56564" lon="6.58932">
        <ele>1894.4324</ele>
        <time>2020-01-27 11:01:41</time>
      </trkpt>
      <trkpt lat="45.56565" lon="6.58932">
        <ele>1894.3145</ele>
        <time>2020-01-27 11:01:43</time>
      </trkpt>
      <trkpt lat="45.56565" lon="6.58933">
        <ele>1894.1201</ele>
        <time>2020-01-27 11:01:47</time>
      </trkpt>
      <trkpt lat="45.56565" lon="6.58934">
        <ele>1894.2979</ele>
        <time>2020-01-27 11:01:48</time>
      </trkpt>
      <trkpt lat="45.56565" lon="6.58935">
        <ele>1894.2732</ele>
        <time>2020-01-27 11:01:49</time>
      </trkpt>
      <trkpt lat="45.56566" lon="6.58936">
        <ele>1893.9873</ele>
        <time>2020-01-27 11:01:50</time>
      </trkpt>
      <trkpt lat="45.56566" lon="6.58937">
        <ele>1894.4143</ele>
        <time>2020-01-27 11:01:51</time>
      </trkpt>
      <trkpt lat="45.56565" lon="6.58938">
        <ele>1894.8921</ele>
        <time>2020-01-27 11:01:52</time>
      </trkpt>
      <trkpt lat="45.56565" lon="6.5894">
        <ele>1896.3228</ele>
        <time>2020-01-27 11:01:56</time>
      </trkpt>
      <trkpt lat="45.56566" lon="6.58941">
        <ele>1895.4609</ele>
        <time>2020-01-27 11:01:57</time>
      </trkpt>
      <trkpt lat="45.56566" lon="6.58942">
        <ele>1895.6794</ele>
        <time>2020-01-27 11:01:58</time>
      </trkpt>
      <trkpt lat="45.56566" lon="6.58943">
        <ele>1895.5923</ele>
        <time>2020-01-27 11:01:59</time>
      </trkpt>
      <trkpt lat="45.56566" lon="6.58944">
        <ele>1896.7529</ele>
        <time>2020-01-27 11:02:00</time>
      </trkpt>
      <trkpt lat="45.56566" lon="6.58945">
        <ele>1896.8005</ele>
        <time>2020-01-27 11:02:01</time>
      </trkpt>
      <trkpt lat="45.56566" lon="6.58947">
        <ele>1896.0547</ele>
        <time>2020-01-27 11:02:09</time>
      </trkpt>
      <trkpt lat="45.56566" lon="6.58948">
        <ele>1896.5103</ele>
        <time>2020-01-27 11:02:10</time>
      </trkpt>
      <trkpt lat="45.56567" lon="6.58948">
        <ele>1896.1069</ele>
        <time>2020-01-27 11:02:11</time>
      </trkpt>
      <trkpt lat="45.56567" lon="6.58948">
        <ele>1896.4387</ele>
        <time>2020-01-27 11:02:12</time>
      </trkpt>
      <trkpt lat="45.56569" lon="6.58947">
        <ele>1893.522</ele>
        <time>2020-01-27 11:02:23</time>
      </trkpt>
      <trkpt lat="45.56574" lon="6.58943">
        <ele>1895.0293</ele>
        <time>2020-01-27 11:02:33</time>
      </trkpt>
      <trkpt lat="45.56575" lon="6.58943">
        <ele>1893.2529</ele>
        <time>2020-01-27 11:02:35</time>
      </trkpt>
      <trkpt lat="45.56576" lon="6.58943">
        <ele>1892.4487</ele>
        <time>2020-01-27 11:02:36</time>
      </trkpt>
      <trkpt lat="45.56577" lon="6.58943">
        <ele>1892.1074</ele>
        <time>2020-01-27 11:02:37</time>
      </trkpt>
      <trkpt lat="45.56577" lon="6.58942">
        <ele>1891.2202</ele>
        <time>2020-01-27 11:02:38</time>
      </trkpt>
      <trkpt lat="45.56578" lon="6.58942">
        <ele>1889.9863</ele>
        <time>2020-01-27 11:02:39</time>
      </trkpt>
      <trkpt lat="45.56579" lon="6.58942">
        <ele>1889.6089</ele>
        <time>2020-01-27 11:02:40</time>
      </trkpt>
      <trkpt lat="45.5658" lon="6.5894">
        <ele>1891.4209</ele>
        <time>2020-01-27 11:03:06</time>
      </trkpt>
      <trkpt lat="45.5658" lon="6.5894">
        <ele>1895.4707</ele>
        <time>2020-01-27 11:03:07</time>
      </trkpt>
      <trkpt lat="45.56581" lon="6.58941">
        <ele>1896.7031</ele>
        <time>2020-01-27 11:03:08</time>
      </trkpt>
      <trkpt lat="45.56582" lon="6.58942">
        <ele>1897.1917</ele>
        <time>2020-01-27 11:03:09</time>
      </trkpt>
      <trkpt lat="45.56582" lon="6.58943">
        <ele>1898.4912</ele>
        <time>2020-01-27 11:03:10</time>
      </trkpt>
      <trkpt lat="45.56584" lon="6.58946">
        <ele>1900.6304</ele>
        <time>2020-01-27 11:03:14</time>
      </trkpt>
      <trkpt lat="45.56586" lon="6.58949">
        <ele>1900.2246</ele>
        <time>2020-01-27 11:03:18</time>
      </trkpt>
      <trkpt lat="45.56588" lon="6.58949">
        <ele>1899.9907</ele>
        <time>2020-01-27 11:03:21</time>
      </trkpt>
      <trkpt lat="45.56588" lon="6.5895">
        <ele>1901.02</ele>
        <time>2020-01-27 11:03:23</time>
      </trkpt>
      <trkpt lat="45.56589" lon="6.5895">
        <ele>1900.8115</ele>
        <time>2020-01-27 11:03:24</time>
      </trkpt>
      <trkpt lat="45.56589" lon="6.58952">
        <ele>1903.0896</ele>
        <time>2020-01-27 11:03:26</time>
      </trkpt>
      <trkpt lat="45.56588" lon="6.58952">
        <ele>1903.1882</ele>
        <time>2020-01-27 11:03:27</time>
      </trkpt>
      <trkpt lat="45.56588" lon="6.58953">
        <ele>1902.508</ele>
        <time>2020-01-27 11:03:29</time>
      </trkpt>
      <trkpt lat="45.5659" lon="6.58956">
        <ele>1905.7502</ele>
        <time>2020-01-27 11:03:34</time>
      </trkpt>
      <trkpt lat="45.56591" lon="6.58957">
        <ele>1906.3135</ele>
        <time>2020-01-27 11:03:35</time>
      </trkpt>
      <trkpt lat="45.56592" lon="6.58958">
        <ele>1905.2739</ele>
        <time>2020-01-27 11:03:36</time>
      </trkpt>
      <trkpt lat="45.56592" lon="6.58958">
        <ele>1906.0669</ele>
        <time>2020-01-27 11:03:38</time>
      </trkpt>
      <trkpt lat="45.56593" lon="6.58958">
        <ele>1906.4551</ele>
        <time>2020-01-27 11:03:39</time>
      </trkpt>
      <trkpt lat="45.56593" lon="6.58959">
        <ele>1906.2983</ele>
        <time>2020-01-27 11:03:40</time>
      </trkpt>
      <trkpt lat="45.56593" lon="6.5896">
        <ele>1906.0757</ele>
        <time>2020-01-27 11:03:41</time>
      </trkpt>
      <trkpt lat="45.56593" lon="6.5896">
        <ele>1906.543</ele>
        <time>2020-01-27 11:03:43</time>
      </trkpt>
      <trkpt lat="45.56593" lon="6.58962">
        <ele>1907.4546</ele>
        <time>2020-01-27 11:03:46</time>
      </trkpt>
      <trkpt lat="45.56593" lon="6.58963">
        <ele>1907.1675</ele>
        <time>2020-01-27 11:03:50</time>
      </trkpt>
      <trkpt lat="45.56593" lon="6.58963">
        <ele>1908.1348</ele>
        <time>2020-01-27 11:03:51</time>
      </trkpt>
      <trkpt lat="45.56593" lon="6.58965">
        <ele>1908.0527</ele>
        <time>2020-01-27 11:03:58</time>
      </trkpt>
      <trkpt lat="45.56593" lon="6.58967">
        <ele>1906.8135</ele>
        <time>2020-01-27 11:03:59</time>
      </trkpt>
      <trkpt lat="45.56593" lon="6.58968">
        <ele>1907.4651</ele>
        <time>2020-01-27 11:04:00</time>
      </trkpt>
      <trkpt lat="45.56593" lon="6.58969">
        <ele>1907.2534</ele>
        <time>2020-01-27 11:04:01</time>
      </trkpt>
      <trkpt lat="45.56592" lon="6.5897">
        <ele>1907.9888</ele>
        <time>2020-01-27 11:04:03</time>
      </trkpt>
      <trkpt lat="45.56593" lon="6.58973">
        <ele>1908.0259</ele>
        <time>2020-01-27 11:04:06</time>
      </trkpt>
      <trkpt lat="45.56592" lon="6.58974">
        <ele>1909.0662</ele>
        <time>2020-01-27 11:04:10</time>
      </trkpt>
      <trkpt lat="45.56592" lon="6.58974">
        <ele>1909.7388</ele>
        <time>2020-01-27 11:04:11</time>
      </trkpt>
      <trkpt lat="45.56592" lon="6.58975">
        <ele>1910.5342</ele>
        <time>2020-01-27 11:04:12</time>
      </trkpt>
      <trkpt lat="45.56592" lon="6.58976">
        <ele>1911.1821</ele>
        <time>2020-01-27 11:04:13</time>
      </trkpt>
      <trkpt lat="45.56592" lon="6.58977">
        <ele>1911.5874</ele>
        <time>2020-01-27 11:04:14</time>
      </trkpt>
      <trkpt lat="45.56592" lon="6.58977">
        <ele>1911.5469</ele>
        <time>2020-01-27 11:04:16</time>
      </trkpt>
      <trkpt lat="45.56593" lon="6.58978">
        <ele>1910.7676</ele>
        <time>2020-01-27 11:04:24</time>
      </trkpt>
      <trkpt lat="45.56593" lon="6.58978">
        <ele>1911.3687</ele>
        <time>2020-01-27 11:04:25</time>
      </trkpt>
      <trkpt lat="45.56595" lon="6.58977">
        <ele>1911.4141</ele>
        <time>2020-01-27 11:04:28</time>
      </trkpt>
      <trkpt lat="45.56595" lon="6.58976">
        <ele>1911.231</ele>
        <time>2020-01-27 11:04:29</time>
      </trkpt>
      <trkpt lat="45.56599" lon="6.58974">
        <ele>1915.8643</ele>
        <time>2020-01-27 11:04:42</time>
      </trkpt>
      <trkpt lat="45.56601" lon="6.58971">
        <ele>1914.6155</ele>
        <time>2020-01-27 11:04:44</time>
      </trkpt>
      <trkpt lat="45.56603" lon="6.58969">
        <ele>1913.4253</ele>
        <time>2020-01-27 11:04:47</time>
      </trkpt>
      <trkpt lat="45.56604" lon="6.58969">
        <ele>1914.3362</ele>
        <time>2020-01-27 11:04:48</time>
      </trkpt>
      <trkpt lat="45.56605" lon="6.58968">
        <ele>1913.4175</ele>
        <time>2020-01-27 11:04:49</time>
      </trkpt>
      <trkpt lat="45.56606" lon="6.58967">
        <ele>1912.9385</ele>
        <time>2020-01-27 11:04:50</time>
      </trkpt>
      <trkpt lat="45.56606" lon="6.58967">
        <ele>1916.4429</ele>
        <time>2020-01-27 11:04:54</time>
      </trkpt>
      <trkpt lat="45.56607" lon="6.58966">
        <ele>1917.8066</ele>
        <time>2020-01-27 11:04:55</time>
      </trkpt>
      <trkpt lat="45.56607" lon="6.58966">
        <ele>1917.873</ele>
        <time>2020-01-27 11:04:58</time>
      </trkpt>
      <trkpt lat="45.56608" lon="6.58966">
        <ele>1919.832</ele>
        <time>2020-01-27 11:05:00</time>
      </trkpt>
      <trkpt lat="45.56609" lon="6.58969">
        <ele>1920.0938</ele>
        <time>2020-01-27 11:05:06</time>
      </trkpt>
      <trkpt lat="45.56609" lon="6.5897">
        <ele>1919.9839</ele>
        <time>2020-01-27 11:05:07</time>
      </trkpt>
      <trkpt lat="45.56609" lon="6.58971">
        <ele>1920.4475</ele>
        <time>2020-01-27 11:05:09</time>
      </trkpt>
      <trkpt lat="45.56609" lon="6.58972">
        <ele>1920.3491</ele>
        <time>2020-01-27 11:05:10</time>
      </trkpt>
      <trkpt lat="45.56609" lon="6.58972">
        <ele>1922.7993</ele>
        <time>2020-01-27 11:05:13</time>
      </trkpt>
      <trkpt lat="45.56609" lon="6.58972">
        <ele>1923.1187</ele>
        <time>2020-01-27 11:05:14</time>
      </trkpt>
      <trkpt lat="45.56609" lon="6.58974">
        <ele>1924.3862</ele>
        <time>2020-01-27 11:05:16</time>
      </trkpt>
      <trkpt lat="45.56609" lon="6.58976">
        <ele>1924.606</ele>
        <time>2020-01-27 11:05:17</time>
      </trkpt>
      <trkpt lat="45.5661" lon="6.58976">
        <ele>1924.9719</ele>
        <time>2020-01-27 11:05:18</time>
      </trkpt>
      <trkpt lat="45.56611" lon="6.5898">
        <ele>1922.1348</ele>
        <time>2020-01-27 11:05:22</time>
      </trkpt>
      <trkpt lat="45.56612" lon="6.58981">
        <ele>1922.5664</ele>
        <time>2020-01-27 11:05:23</time>
      </trkpt>
      <trkpt lat="45.56612" lon="6.58982">
        <ele>1922.1533</ele>
        <time>2020-01-27 11:05:25</time>
      </trkpt>
      <trkpt lat="45.56613" lon="6.58983">
        <ele>1922.5757</ele>
        <time>2020-01-27 11:05:26</time>
      </trkpt>
      <trkpt lat="45.56612" lon="6.58984">
        <ele>1922.9336</ele>
        <time>2020-01-27 11:05:28</time>
      </trkpt>
      <trkpt lat="45.56612" lon="6.58987">
        <ele>1921.9624</ele>
        <time>2020-01-27 11:05:31</time>
      </trkpt>
      <trkpt lat="45.56611" lon="6.58988">
        <ele>1922.8865</ele>
        <time>2020-01-27 11:05:33</time>
      </trkpt>
      <trkpt lat="45.5661" lon="6.5899">
        <ele>1925.3799</ele>
        <time>2020-01-27 11:05:39</time>
      </trkpt>
      <trkpt lat="45.5661" lon="6.58991">
        <ele>1925.8872</ele>
        <time>2020-01-27 11:05:40</time>
      </trkpt>
      <trkpt lat="45.56609" lon="6.58991">
        <ele>1926.7922</ele>
        <time>2020-01-27 11:05:41</time>
      </trkpt>
      <trkpt lat="45.56609" lon="6.58992">
        <ele>1927.0208</ele>
        <time>2020-01-27 11:05:42</time>
      </trkpt>
      <trkpt lat="45.56609" lon="6.58993">
        <ele>1926.6667</ele>
        <time>2020-01-27 11:05:43</time>
      </trkpt>
      <trkpt lat="45.56609" lon="6.58994">
        <ele>1928.3721</ele>
        <time>2020-01-27 11:05:46</time>
      </trkpt>
      <trkpt lat="45.56609" lon="6.58995">
        <ele>1927.44</ele>
        <time>2020-01-27 11:05:47</time>
      </trkpt>
      <trkpt lat="45.56612" lon="6.58996">
        <ele>1924.009</ele>
        <time>2020-01-27 11:05:56</time>
      </trkpt>
      <trkpt lat="45.56612" lon="6.58997">
        <ele>1924.1609</ele>
        <time>2020-01-27 11:05:57</time>
      </trkpt>
      <trkpt lat="45.56613" lon="6.58997">
        <ele>1924.7837</ele>
        <time>2020-01-27 11:06:02</time>
      </trkpt>
      <trkpt lat="45.56615" lon="6.58996">
        <ele>1923.5303</ele>
        <time>2020-01-27 11:06:05</time>
      </trkpt>
      <trkpt lat="45.56615" lon="6.58996">
        <ele>1921.9219</ele>
        <time>2020-01-27 11:06:06</time>
      </trkpt>
      <trkpt lat="45.56616" lon="6.58995">
        <ele>1922.6519</ele>
        <time>2020-01-27 11:06:07</time>
      </trkpt>
      <trkpt lat="45.56616" lon="6.58995">
        <ele>1922.6677</ele>
        <time>2020-01-27 11:06:08</time>
      </trkpt>
      <trkpt lat="45.56616" lon="6.58994">
        <ele>1924.8899</ele>
        <time>2020-01-27 11:06:13</time>
      </trkpt>
      <trkpt lat="45.56617" lon="6.58994">
        <ele>1924.439</ele>
        <time>2020-01-27 11:06:14</time>
      </trkpt>
      <trkpt lat="45.56617" lon="6.58994">
        <ele>1924.9487</ele>
        <time>2020-01-27 11:06:15</time>
      </trkpt>
      <trkpt lat="45.56618" lon="6.58993">
        <ele>1921.4387</ele>
        <time>2020-01-27 11:06:17</time>
      </trkpt>
      <trkpt lat="45.56619" lon="6.58993">
        <ele>1921.6499</ele>
        <time>2020-01-27 11:06:19</time>
      </trkpt>
      <trkpt lat="45.56621" lon="6.58993">
        <ele>1922.002</ele>
        <time>2020-01-27 11:06:26</time>
      </trkpt>
      <trkpt lat="45.56621" lon="6.58992">
        <ele>1924.3191</ele>
        <time>2020-01-27 11:06:27</time>
      </trkpt>
      <trkpt lat="45.56622" lon="6.58991">
        <ele>1924.8706</ele>
        <time>2020-01-27 11:06:31</time>
      </trkpt>
      <trkpt lat="45.56622" lon="6.58991">
        <ele>1925.4148</ele>
        <time>2020-01-27 11:06:32</time>
      </trkpt>
      <trkpt lat="45.56623" lon="6.5899">
        <ele>1925.6489</ele>
        <time>2020-01-27 11:06:33</time>
      </trkpt>
      <trkpt lat="45.56625" lon="6.5899">
        <ele>1925.1743</ele>
        <time>2020-01-27 11:06:34</time>
      </trkpt>
      <trkpt lat="45.56626" lon="6.58989">
        <ele>1924.9512</ele>
        <time>2020-01-27 11:06:35</time>
      </trkpt>
      <trkpt lat="45.56626" lon="6.58989">
        <ele>1925.1528</ele>
        <time>2020-01-27 11:06:36</time>
      </trkpt>
      <trkpt lat="45.56627" lon="6.58988">
        <ele>1925.2695</ele>
        <time>2020-01-27 11:06:37</time>
      </trkpt>
      <trkpt lat="45.56627" lon="6.58988">
        <ele>1927.4661</ele>
        <time>2020-01-27 11:06:38</time>
      </trkpt>
      <trkpt lat="45.56627" lon="6.58988">
        <ele>1927.3989</ele>
        <time>2020-01-27 11:06:39</time>
      </trkpt>
      <trkpt lat="45.56627" lon="6.58987">
        <ele>1928.644</ele>
        <time>2020-01-27 11:06:40</time>
      </trkpt>
      <trkpt lat="45.56627" lon="6.58988">
        <ele>1930.7646</ele>
        <time>2020-01-27 11:06:52</time>
      </trkpt>
      <trkpt lat="45.56626" lon="6.58988">
        <ele>1931.4897</ele>
        <time>2020-01-27 11:06:53</time>
      </trkpt>
      <trkpt lat="45.56626" lon="6.58987">
        <ele>1930.6553</ele>
        <time>2020-01-27 11:06:55</time>
      </trkpt>
      <trkpt lat="45.56627" lon="6.58986">
        <ele>1930.6074</ele>
        <time>2020-01-27 11:06:56</time>
      </trkpt>
      <trkpt lat="45.56625" lon="6.58987">
        <ele>1936.8391</ele>
        <time>2020-01-27 11:07:06</time>
      </trkpt>
      <trkpt lat="45.56625" lon="6.58988">
        <ele>1935.8086</ele>
        <time>2020-01-27 11:07:07</time>
      </trkpt>
      <trkpt lat="45.56626" lon="6.58989">
        <ele>1934.9131</ele>
        <time>2020-01-27 11:07:09</time>
      </trkpt>
      <trkpt lat="45.56626" lon="6.58989">
        <ele>1935.0315</ele>
        <time>2020-01-27 11:07:10</time>
      </trkpt>
      <trkpt lat="45.56628" lon="6.58989">
        <ele>1934.3799</ele>
        <time>2020-01-27 11:07:58</time>
      </trkpt>
      <trkpt lat="45.56628" lon="6.58989">
        <ele>1934.3755</ele>
        <time>2020-01-27 11:08:28</time>
      </trkpt>
      <trkpt lat="45.56628" lon="6.5899">
        <ele>1934.6724</ele>
        <time>2020-01-27 11:08:41</time>
      </trkpt>
      <trkpt lat="45.56629" lon="6.58993">
        <ele>1935.4082</ele>
        <time>2020-01-27 11:08:44</time>
      </trkpt>
      <trkpt lat="45.56628" lon="6.58998">
        <ele>1938.2705</ele>
        <time>2020-01-27 11:08:50</time>
      </trkpt>
      <trkpt lat="45.56628" lon="6.58998">
        <ele>1937.6914</ele>
        <time>2020-01-27 11:08:51</time>
      </trkpt>
      <trkpt lat="45.56628" lon="6.58999">
        <ele>1938.2537</ele>
        <time>2020-01-27 11:08:52</time>
      </trkpt>
      <trkpt lat="45.56628" lon="6.58999">
        <ele>1938.3599</ele>
        <time>2020-01-27 11:08:53</time>
      </trkpt>
      <trkpt lat="45.56627" lon="6.59001">
        <ele>1940.4438</ele>
        <time>2020-01-27 11:08:59</time>
      </trkpt>
      <trkpt lat="45.56627" lon="6.59002">
        <ele>1941.9729</ele>
        <time>2020-01-27 11:09:00</time>
      </trkpt>
      <trkpt lat="45.56627" lon="6.59002">
        <ele>1942.3813</ele>
        <time>2020-01-27 11:09:01</time>
      </trkpt>
      <trkpt lat="45.56627" lon="6.59003">
        <ele>1942.5557</ele>
        <time>2020-01-27 11:09:02</time>
      </trkpt>
      <trkpt lat="45.56627" lon="6.59004">
        <ele>1943.512</ele>
        <time>2020-01-27 11:09:03</time>
      </trkpt>
      <trkpt lat="45.56628" lon="6.59005">
        <ele>1944.2434</ele>
        <time>2020-01-27 11:09:04</time>
      </trkpt>
      <trkpt lat="45.56628" lon="6.59006">
        <ele>1944.0112</ele>
        <time>2020-01-27 11:09:05</time>
      </trkpt>
      <trkpt lat="45.56628" lon="6.59007">
        <ele>1944.0073</ele>
        <time>2020-01-27 11:09:06</time>
      </trkpt>
      <trkpt lat="45.56628" lon="6.59008">
        <ele>1945.8169</ele>
        <time>2020-01-27 11:09:10</time>
      </trkpt>
      <trkpt lat="45.56629" lon="6.59009">
        <ele>1945.5566</ele>
        <time>2020-01-27 11:09:11</time>
      </trkpt>
      <trkpt lat="45.56628" lon="6.59009">
        <ele>1946.5371</ele>
        <time>2020-01-27 11:09:12</time>
      </trkpt>
      <trkpt lat="45.56628" lon="6.5901">
        <ele>1947.5566</ele>
        <time>2020-01-27 11:09:14</time>
      </trkpt>
      <trkpt lat="45.56629" lon="6.5901">
        <ele>1945.1655</ele>
        <time>2020-01-27 11:09:18</time>
      </trkpt>
      <trkpt lat="45.56629" lon="6.5901">
        <ele>1945.2852</ele>
        <time>2020-01-27 11:09:19</time>
      </trkpt>
      <trkpt lat="45.5663" lon="6.5901">
        <ele>1944.6128</ele>
        <time>2020-01-27 11:09:20</time>
      </trkpt>
      <trkpt lat="45.5663" lon="6.59009">
        <ele>1944.6306</ele>
        <time>2020-01-27 11:09:21</time>
      </trkpt>
      <trkpt lat="45.56631" lon="6.59009">
        <ele>1943.8945</ele>
        <time>2020-01-27 11:09:22</time>
      </trkpt>
      <trkpt lat="45.56632" lon="6.59009">
        <ele>1943.5024</ele>
        <time>2020-01-27 11:09:23</time>
      </trkpt>
      <trkpt lat="45.56633" lon="6.59009">
        <ele>1943.2305</ele>
        <time>2020-01-27 11:09:24</time>
      </trkpt>
      <trkpt lat="45.56633" lon="6.59009">
        <ele>1943.8982</ele>
        <time>2020-01-27 11:09:25</time>
      </trkpt>
      <trkpt lat="45.56633" lon="6.59009">
        <ele>1944.125</ele>
        <time>2020-01-27 11:09:26</time>
      </trkpt>
      <trkpt lat="45.56634" lon="6.59009">
        <ele>1943.9443</ele>
        <time>2020-01-27 11:09:27</time>
      </trkpt>
      <trkpt lat="45.56636" lon="6.59007">
        <ele>1941.1562</ele>
        <time>2020-01-27 11:09:31</time>
      </trkpt>
      <trkpt lat="45.56637" lon="6.59007">
        <ele>1939.895</ele>
        <time>2020-01-27 11:09:32</time>
      </trkpt>
      <trkpt lat="45.56638" lon="6.59007">
        <ele>1938.8008</ele>
        <time>2020-01-27 11:09:33</time>
      </trkpt>
      <trkpt lat="45.56638" lon="6.59007">
        <ele>1938.9629</ele>
        <time>2020-01-27 11:09:34</time>
      </trkpt>
      <trkpt lat="45.56639" lon="6.59007">
        <ele>1938.5176</ele>
        <time>2020-01-27 11:09:35</time>
      </trkpt>
      <trkpt lat="45.5664" lon="6.59007">
        <ele>1939.4927</ele>
        <time>2020-01-27 11:09:36</time>
      </trkpt>
      <trkpt lat="45.56641" lon="6.59005">
        <ele>1938.4644</ele>
        <time>2020-01-27 11:09:41</time>
      </trkpt>
      <trkpt lat="45.56641" lon="6.59004">
        <ele>1938.4875</ele>
        <time>2020-01-27 11:09:42</time>
      </trkpt>
      <trkpt lat="45.56642" lon="6.59003">
        <ele>1938.1108</ele>
        <time>2020-01-27 11:09:43</time>
      </trkpt>
      <trkpt lat="45.56643" lon="6.59002">
        <ele>1937.9287</ele>
        <time>2020-01-27 11:09:45</time>
      </trkpt>
      <trkpt lat="45.56644" lon="6.59001">
        <ele>1935.9204</ele>
        <time>2020-01-27 11:09:49</time>
      </trkpt>
      <trkpt lat="45.56645" lon="6.59">
        <ele>1935.581</ele>
        <time>2020-01-27 11:09:50</time>
      </trkpt>
      <trkpt lat="45.56645" lon="6.58997">
        <ele>1937.1943</ele>
        <time>2020-01-27 11:10:00</time>
      </trkpt>
      <trkpt lat="45.56646" lon="6.58996">
        <ele>1936.4944</ele>
        <time>2020-01-27 11:10:01</time>
      </trkpt>
      <trkpt lat="45.56646" lon="6.58995">
        <ele>1939.7483</ele>
        <time>2020-01-27 11:10:05</time>
      </trkpt>
      <trkpt lat="45.56646" lon="6.58995">
        <ele>1941.5083</ele>
        <time>2020-01-27 11:10:06</time>
      </trkpt>
      <trkpt lat="45.56646" lon="6.58998">
        <ele>1941.5837</ele>
        <time>2020-01-27 11:10:19</time>
      </trkpt>
      <trkpt lat="45.56646" lon="6.58998">
        <ele>1941.9492</ele>
        <time>2020-01-27 11:10:20</time>
      </trkpt>
      <trkpt lat="45.56646" lon="6.58999">
        <ele>1944.2021</ele>
        <time>2020-01-27 11:10:21</time>
      </trkpt>
      <trkpt lat="45.56646" lon="6.59">
        <ele>1943.7932</ele>
        <time>2020-01-27 11:10:22</time>
      </trkpt>
      <trkpt lat="45.56646" lon="6.59001">
        <ele>1944.2251</ele>
        <time>2020-01-27 11:10:24</time>
      </trkpt>
      <trkpt lat="45.56646" lon="6.59002">
        <ele>1944.6914</ele>
        <time>2020-01-27 11:10:25</time>
      </trkpt>
      <trkpt lat="45.56646" lon="6.59003">
        <ele>1945.6091</ele>
        <time>2020-01-27 11:10:26</time>
      </trkpt>
      <trkpt lat="45.56646" lon="6.59006">
        <ele>1947.6919</ele>
        <time>2020-01-27 11:10:29</time>
      </trkpt>
      <trkpt lat="45.56646" lon="6.59007">
        <ele>1948.0679</ele>
        <time>2020-01-27 11:10:30</time>
      </trkpt>
      <trkpt lat="45.56646" lon="6.59007">
        <ele>1948.6013</ele>
        <time>2020-01-27 11:10:31</time>
      </trkpt>
      <trkpt lat="45.56646" lon="6.59008">
        <ele>1948.2793</ele>
        <time>2020-01-27 11:10:32</time>
      </trkpt>
      <trkpt lat="45.56646" lon="6.59008">
        <ele>1948.6831</ele>
        <time>2020-01-27 11:10:33</time>
      </trkpt>
      <trkpt lat="45.56646" lon="6.59009">
        <ele>1947.998</ele>
        <time>2020-01-27 11:10:35</time>
      </trkpt>
      <trkpt lat="45.56646" lon="6.59012">
        <ele>1946.8323</ele>
        <time>2020-01-27 11:10:38</time>
      </trkpt>
      <trkpt lat="45.56646" lon="6.59013">
        <ele>1946.9045</ele>
        <time>2020-01-27 11:10:39</time>
      </trkpt>
      <trkpt lat="45.56647" lon="6.59014">
        <ele>1946.5771</ele>
        <time>2020-01-27 11:10:40</time>
      </trkpt>
      <trkpt lat="45.56647" lon="6.59014">
        <ele>1947.021</ele>
        <time>2020-01-27 11:10:41</time>
      </trkpt>
      <trkpt lat="45.56647" lon="6.59015">
        <ele>1947.0242</ele>
        <time>2020-01-27 11:10:42</time>
      </trkpt>
      <trkpt lat="45.56647" lon="6.59016">
        <ele>1947.9651</ele>
        <time>2020-01-27 11:10:43</time>
      </trkpt>
      <trkpt lat="45.56649" lon="6.5902">
        <ele>1952.3792</ele>
        <time>2020-01-27 11:10:49</time>
      </trkpt>
      <trkpt lat="45.56648" lon="6.59021">
        <ele>1952.5693</ele>
        <time>2020-01-27 11:10:51</time>
      </trkpt>
      <trkpt lat="45.56648" lon="6.59021">
        <ele>1952.6582</ele>
        <time>2020-01-27 11:10:52</time>
      </trkpt>
      <trkpt lat="45.56648" lon="6.59022">
        <ele>1953.0049</ele>
        <time>2020-01-27 11:10:55</time>
      </trkpt>
      <trkpt lat="45.56649" lon="6.59026">
        <ele>1951.5178</ele>
        <time>2020-01-27 11:10:59</time>
      </trkpt>
      <trkpt lat="45.56649" lon="6.59027">
        <ele>1951.3374</ele>
        <time>2020-01-27 11:11:00</time>
      </trkpt>
      <trkpt lat="45.56649" lon="6.59028">
        <ele>1951.1987</ele>
        <time>2020-01-27 11:11:01</time>
      </trkpt>
      <trkpt lat="45.56649" lon="6.59029">
        <ele>1952.0386</ele>
        <time>2020-01-27 11:11:02</time>
      </trkpt>
      <trkpt lat="45.56649" lon="6.5903">
        <ele>1952.1211</ele>
        <time>2020-01-27 11:11:03</time>
      </trkpt>
      <trkpt lat="45.56649" lon="6.59031">
        <ele>1953.271</ele>
        <time>2020-01-27 11:11:04</time>
      </trkpt>
      <trkpt lat="45.56649" lon="6.59032">
        <ele>1953.1118</ele>
        <time>2020-01-27 11:11:05</time>
      </trkpt>
      <trkpt lat="45.56649" lon="6.59033">
        <ele>1953.2275</ele>
        <time>2020-01-27 11:11:06</time>
      </trkpt>
      <trkpt lat="45.5665" lon="6.59034">
        <ele>1952.4419</ele>
        <time>2020-01-27 11:11:07</time>
      </trkpt>
      <trkpt lat="45.56651" lon="6.59035">
        <ele>1952.3213</ele>
        <time>2020-01-27 11:11:08</time>
      </trkpt>
      <trkpt lat="45.56652" lon="6.59036">
        <ele>1951.2498</ele>
        <time>2020-01-27 11:11:09</time>
      </trkpt>
      <trkpt lat="45.56653" lon="6.59036">
        <ele>1952.0916</ele>
        <time>2020-01-27 11:11:14</time>
      </trkpt>
      <trkpt lat="45.56654" lon="6.59036">
        <ele>1952.0991</ele>
        <time>2020-01-27 11:11:15</time>
      </trkpt>
      <trkpt lat="45.56654" lon="6.59035">
        <ele>1953.2354</ele>
        <time>2020-01-27 11:11:22</time>
      </trkpt>
      <trkpt lat="45.56655" lon="6.59032">
        <ele>1951.314</ele>
        <time>2020-01-27 11:11:25</time>
      </trkpt>
      <trkpt lat="45.56657" lon="6.5903">
        <ele>1953.9268</ele>
        <time>2020-01-27 11:11:31</time>
      </trkpt>
      <trkpt lat="45.56657" lon="6.59029">
        <ele>1953.6245</ele>
        <time>2020-01-27 11:11:32</time>
      </trkpt>
      <trkpt lat="45.56657" lon="6.59028">
        <ele>1952.6514</ele>
        <time>2020-01-27 11:11:35</time>
      </trkpt>
      <trkpt lat="45.5666" lon="6.59026">
        <ele>1950.2803</ele>
        <time>2020-01-27 11:11:38</time>
      </trkpt>
      <trkpt lat="45.56661" lon="6.59025">
        <ele>1951.5127</ele>
        <time>2020-01-27 11:11:39</time>
      </trkpt>
      <trkpt lat="45.56662" lon="6.59023">
        <ele>1951.2634</ele>
        <time>2020-01-27 11:11:42</time>
      </trkpt>
      <trkpt lat="45.56663" lon="6.59023">
        <ele>1950.6138</ele>
        <time>2020-01-27 11:11:43</time>
      </trkpt>
      <trkpt lat="45.56664" lon="6.59022">
        <ele>1949.112</ele>
        <time>2020-01-27 11:11:44</time>
      </trkpt>
      <trkpt lat="45.56665" lon="6.59021">
        <ele>1949.1809</ele>
        <time>2020-01-27 11:11:45</time>
      </trkpt>
      <trkpt lat="45.56665" lon="6.5902">
        <ele>1949.0662</ele>
        <time>2020-01-27 11:11:46</time>
      </trkpt>
      <trkpt lat="45.56666" lon="6.59019">
        <ele>1951.9868</ele>
        <time>2020-01-27 11:11:48</time>
      </trkpt>
      <trkpt lat="45.56667" lon="6.59017">
        <ele>1951.333</ele>
        <time>2020-01-27 11:11:51</time>
      </trkpt>
      <trkpt lat="45.56668" lon="6.59016">
        <ele>1951.4741</ele>
        <time>2020-01-27 11:11:52</time>
      </trkpt>
      <trkpt lat="45.56668" lon="6.59016">
        <ele>1952.8477</ele>
        <time>2020-01-27 11:11:53</time>
      </trkpt>
      <trkpt lat="45.56668" lon="6.59016">
        <ele>1954.1638</ele>
        <time>2020-01-27 11:11:54</time>
      </trkpt>
      <trkpt lat="45.56669" lon="6.59018">
        <ele>1958.6711</ele>
        <time>2020-01-27 11:11:59</time>
      </trkpt>
      <trkpt lat="45.56669" lon="6.59019">
        <ele>1960.8081</ele>
        <time>2020-01-27 11:12:00</time>
      </trkpt>
      <trkpt lat="45.56669" lon="6.5902">
        <ele>1961.6509</ele>
        <time>2020-01-27 11:12:01</time>
      </trkpt>
      <trkpt lat="45.56669" lon="6.59021">
        <ele>1963.3542</ele>
        <time>2020-01-27 11:12:02</time>
      </trkpt>
      <trkpt lat="45.56669" lon="6.59022">
        <ele>1964.3892</ele>
        <time>2020-01-27 11:12:03</time>
      </trkpt>
      <trkpt lat="45.56669" lon="6.59023">
        <ele>1965.1553</ele>
        <time>2020-01-27 11:12:04</time>
      </trkpt>
      <trkpt lat="45.56669" lon="6.59023">
        <ele>1966.9546</ele>
        <time>2020-01-27 11:12:06</time>
      </trkpt>
      <trkpt lat="45.56669" lon="6.59027">
        <ele>1970.0461</ele>
        <time>2020-01-27 11:12:12</time>
      </trkpt>
      <trkpt lat="45.56669" lon="6.59028">
        <ele>1970.0347</ele>
        <time>2020-01-27 11:12:13</time>
      </trkpt>
      <trkpt lat="45.5667" lon="6.59029">
        <ele>1969.9302</ele>
        <time>2020-01-27 11:12:14</time>
      </trkpt>
      <trkpt lat="45.5667" lon="6.5903">
        <ele>1969.6875</ele>
        <time>2020-01-27 11:12:15</time>
      </trkpt>
      <trkpt lat="45.56671" lon="6.5903">
        <ele>1971.1274</ele>
        <time>2020-01-27 11:12:17</time>
      </trkpt>
      <trkpt lat="45.56671" lon="6.59031">
        <ele>1972.4619</ele>
        <time>2020-01-27 11:12:18</time>
      </trkpt>
      <trkpt lat="45.56671" lon="6.59031">
        <ele>1971.5952</ele>
        <time>2020-01-27 11:12:19</time>
      </trkpt>
      <trkpt lat="45.56671" lon="6.59032">
        <ele>1970.575</ele>
        <time>2020-01-27 11:12:20</time>
      </trkpt>
      <trkpt lat="45.56672" lon="6.59033">
        <ele>1970.4775</ele>
        <time>2020-01-27 11:12:21</time>
      </trkpt>
      <trkpt lat="45.56672" lon="6.59033">
        <ele>1970.9429</ele>
        <time>2020-01-27 11:12:25</time>
      </trkpt>
      <trkpt lat="45.56672" lon="6.59034">
        <ele>1971.8271</ele>
        <time>2020-01-27 11:12:26</time>
      </trkpt>
      <trkpt lat="45.56672" lon="6.59035">
        <ele>1973.4087</ele>
        <time>2020-01-27 11:12:28</time>
      </trkpt>
      <trkpt lat="45.56672" lon="6.59038">
        <ele>1975.0088</ele>
        <time>2020-01-27 11:12:31</time>
      </trkpt>
      <trkpt lat="45.56671" lon="6.59039">
        <ele>1974.185</ele>
        <time>2020-01-27 11:12:34</time>
      </trkpt>
      <trkpt lat="45.56672" lon="6.59039">
        <ele>1972.1372</ele>
        <time>2020-01-27 11:12:35</time>
      </trkpt>
      <trkpt lat="45.56672" lon="6.5904">
        <ele>1972.6287</ele>
        <time>2020-01-27 11:12:36</time>
      </trkpt>
      <trkpt lat="45.56672" lon="6.59041">
        <ele>1973.2222</ele>
        <time>2020-01-27 11:12:37</time>
      </trkpt>
      <trkpt lat="45.56672" lon="6.59041">
        <ele>1973.206</ele>
        <time>2020-01-27 11:12:41</time>
      </trkpt>
      <trkpt lat="45.56673" lon="6.59041">
        <ele>1973.0906</ele>
        <time>2020-01-27 11:12:42</time>
      </trkpt>
      <trkpt lat="45.56673" lon="6.5904">
        <ele>1972.3167</ele>
        <time>2020-01-27 11:12:45</time>
      </trkpt>
      <trkpt lat="45.56675" lon="6.59039">
        <ele>1973.081</ele>
        <time>2020-01-27 11:12:48</time>
      </trkpt>
      <trkpt lat="45.56675" lon="6.59039">
        <ele>1973.2461</ele>
        <time>2020-01-27 11:12:49</time>
      </trkpt>
      <trkpt lat="45.56676" lon="6.59039">
        <ele>1972.2524</ele>
        <time>2020-01-27 11:12:50</time>
      </trkpt>
      <trkpt lat="45.56676" lon="6.59039">
        <ele>1971.4624</ele>
        <time>2020-01-27 11:12:51</time>
      </trkpt>
      <trkpt lat="45.56676" lon="6.5904">
        <ele>1971.6196</ele>
        <time>2020-01-27 11:12:52</time>
      </trkpt>
      <trkpt lat="45.56677" lon="6.59039">
        <ele>1969.8494</ele>
        <time>2020-01-27 11:12:53</time>
      </trkpt>
      <trkpt lat="45.56677" lon="6.5904">
        <ele>1970.9084</ele>
        <time>2020-01-27 11:12:54</time>
      </trkpt>
      <trkpt lat="45.56678" lon="6.5904">
        <ele>1970.4639</ele>
        <time>2020-01-27 11:13:00</time>
      </trkpt>
      <trkpt lat="45.56678" lon="6.59039">
        <ele>1971.3965</ele>
        <time>2020-01-27 11:13:01</time>
      </trkpt>
      <trkpt lat="45.56679" lon="6.59038">
        <ele>1970.7524</ele>
        <time>2020-01-27 11:13:02</time>
      </trkpt>
      <trkpt lat="45.56679" lon="6.59037">
        <ele>1972.1704</ele>
        <time>2020-01-27 11:13:03</time>
      </trkpt>
      <trkpt lat="45.5668" lon="6.59036">
        <ele>1973.1304</ele>
        <time>2020-01-27 11:13:04</time>
      </trkpt>
      <trkpt lat="45.56681" lon="6.59035">
        <ele>1971.7876</ele>
        <time>2020-01-27 11:13:05</time>
      </trkpt>
      <trkpt lat="45.56681" lon="6.59034">
        <ele>1973.3657</ele>
        <time>2020-01-27 11:13:06</time>
      </trkpt>
      <trkpt lat="45.56682" lon="6.59032">
        <ele>1974.5208</ele>
        <time>2020-01-27 11:13:07</time>
      </trkpt>
      <trkpt lat="45.56683" lon="6.5903">
        <ele>1973.0522</ele>
        <time>2020-01-27 11:13:09</time>
      </trkpt>
      <trkpt lat="45.56684" lon="6.59028">
        <ele>1973.5662</ele>
        <time>2020-01-27 11:13:10</time>
      </trkpt>
      <trkpt lat="45.56685" lon="6.59028">
        <ele>1973.7188</ele>
        <time>2020-01-27 11:13:11</time>
      </trkpt>
      <trkpt lat="45.56686" lon="6.59028">
        <ele>1972.9341</ele>
        <time>2020-01-27 11:13:12</time>
      </trkpt>
      <trkpt lat="45.56688" lon="6.59027">
        <ele>1974.8003</ele>
        <time>2020-01-27 11:13:16</time>
      </trkpt>
      <trkpt lat="45.56689" lon="6.59026">
        <ele>1976.0166</ele>
        <time>2020-01-27 11:13:17</time>
      </trkpt>
      <trkpt lat="45.56688" lon="6.59026">
        <ele>1975.6826</ele>
        <time>2020-01-27 11:13:29</time>
      </trkpt>
      <trkpt lat="45.56688" lon="6.59025">
        <ele>1975.5684</ele>
        <time>2020-01-27 11:13:30</time>
      </trkpt>
      <trkpt lat="45.56688" lon="6.59026">
        <ele>1975.3972</ele>
        <time>2020-01-27 11:13:31</time>
      </trkpt>
      <trkpt lat="45.56688" lon="6.59027">
        <ele>1976.646</ele>
        <time>2020-01-27 11:13:32</time>
      </trkpt>
      <trkpt lat="45.56688" lon="6.59028">
        <ele>1977.2114</ele>
        <time>2020-01-27 11:13:33</time>
      </trkpt>
      <trkpt lat="45.56688" lon="6.5903">
        <ele>1978.3179</ele>
        <time>2020-01-27 11:13:35</time>
      </trkpt>
      <trkpt lat="45.56689" lon="6.5903">
        <ele>1978.0911</ele>
        <time>2020-01-27 11:13:36</time>
      </trkpt>
      <trkpt lat="45.56689" lon="6.59031">
        <ele>1977.9526</ele>
        <time>2020-01-27 11:13:37</time>
      </trkpt>
      <trkpt lat="45.56689" lon="6.59032">
        <ele>1978.7346</ele>
        <time>2020-01-27 11:13:38</time>
      </trkpt>
      <trkpt lat="45.56689" lon="6.59032">
        <ele>1977.456</ele>
        <time>2020-01-27 11:13:39</time>
      </trkpt>
      <trkpt lat="45.56689" lon="6.59033">
        <ele>1977.6299</ele>
        <time>2020-01-27 11:13:40</time>
      </trkpt>
      <trkpt lat="45.56688" lon="6.59033">
        <ele>1977.5654</ele>
        <time>2020-01-27 11:13:41</time>
      </trkpt>
      <trkpt lat="45.56688" lon="6.59034">
        <ele>1978.2173</ele>
        <time>2020-01-27 11:13:42</time>
      </trkpt>
      <trkpt lat="45.56689" lon="6.59036">
        <ele>1979.6326</ele>
        <time>2020-01-27 11:13:45</time>
      </trkpt>
      <trkpt lat="45.56689" lon="6.59036">
        <ele>1979.9116</ele>
        <time>2020-01-27 11:13:46</time>
      </trkpt>
      <trkpt lat="45.56689" lon="6.59037">
        <ele>1980.1128</ele>
        <time>2020-01-27 11:13:48</time>
      </trkpt>
      <trkpt lat="45.56689" lon="6.59038">
        <ele>1980.6523</ele>
        <time>2020-01-27 11:13:49</time>
      </trkpt>
      <trkpt lat="45.56689" lon="6.59039">
        <ele>1980.9155</ele>
        <time>2020-01-27 11:13:50</time>
      </trkpt>
      <trkpt lat="45.56689" lon="6.5904">
        <ele>1981.9785</ele>
        <time>2020-01-27 11:13:51</time>
      </trkpt>
      <trkpt lat="45.56688" lon="6.59041">
        <ele>1982.6133</ele>
        <time>2020-01-27 11:13:52</time>
      </trkpt>
      <trkpt lat="45.56689" lon="6.59042">
        <ele>1981.7788</ele>
        <time>2020-01-27 11:13:53</time>
      </trkpt>
      <trkpt lat="45.56689" lon="6.59042">
        <ele>1982.4038</ele>
        <time>2020-01-27 11:13:54</time>
      </trkpt>
      <trkpt lat="45.56689" lon="6.59042">
        <ele>1982.7063</ele>
        <time>2020-01-27 11:13:55</time>
      </trkpt>
      <trkpt lat="45.56688" lon="6.59043">
        <ele>1983.8955</ele>
        <time>2020-01-27 11:13:57</time>
      </trkpt>
      <trkpt lat="45.56689" lon="6.59044">
        <ele>1985.4507</ele>
        <time>2020-01-27 11:13:58</time>
      </trkpt>
      <trkpt lat="45.56689" lon="6.59045">
        <ele>1985.2708</ele>
        <time>2020-01-27 11:13:59</time>
      </trkpt>
      <trkpt lat="45.56689" lon="6.59046">
        <ele>1984.9438</ele>
        <time>2020-01-27 11:14:00</time>
      </trkpt>
      <trkpt lat="45.56689" lon="6.59046">
        <ele>1985.1348</ele>
        <time>2020-01-27 11:14:01</time>
      </trkpt>
      <trkpt lat="45.56689" lon="6.59048">
        <ele>1986.2178</ele>
        <time>2020-01-27 11:14:05</time>
      </trkpt>
      <trkpt lat="45.56689" lon="6.59049">
        <ele>1986.5352</ele>
        <time>2020-01-27 11:14:06</time>
      </trkpt>
      <trkpt lat="45.56689" lon="6.59052">
        <ele>1984.7832</ele>
        <time>2020-01-27 11:14:22</time>
      </trkpt>
      <trkpt lat="45.5669" lon="6.59052">
        <ele>1984.6387</ele>
        <time>2020-01-27 11:14:23</time>
      </trkpt>
      <trkpt lat="45.56691" lon="6.59052">
        <ele>1983.8481</ele>
        <time>2020-01-27 11:14:26</time>
      </trkpt>
      <trkpt lat="45.56692" lon="6.59052">
        <ele>1983.977</ele>
        <time>2020-01-27 11:14:28</time>
      </trkpt>
      <trkpt lat="45.56692" lon="6.59051">
        <ele>1984.8633</ele>
        <time>2020-01-27 11:14:29</time>
      </trkpt>
      <trkpt lat="45.56692" lon="6.59052">
        <ele>1984.5671</ele>
        <time>2020-01-27 11:14:30</time>
      </trkpt>
      <trkpt lat="45.56693" lon="6.59052">
        <ele>1983.2783</ele>
        <time>2020-01-27 11:14:32</time>
      </trkpt>
      <trkpt lat="45.56694" lon="6.59052">
        <ele>1983.4287</ele>
        <time>2020-01-27 11:14:33</time>
      </trkpt>
      <trkpt lat="45.56695" lon="6.59052">
        <ele>1983.4258</ele>
        <time>2020-01-27 11:14:34</time>
      </trkpt>
      <trkpt lat="45.56695" lon="6.59052">
        <ele>1983.602</ele>
        <time>2020-01-27 11:14:35</time>
      </trkpt>
      <trkpt lat="45.56695" lon="6.59052">
        <ele>1982.3115</ele>
        <time>2020-01-27 11:14:36</time>
      </trkpt>
      <trkpt lat="45.56696" lon="6.59052">
        <ele>1981.7644</ele>
        <time>2020-01-27 11:14:37</time>
      </trkpt>
      <trkpt lat="45.56697" lon="6.59051">
        <ele>1981.4517</ele>
        <time>2020-01-27 11:14:38</time>
      </trkpt>
      <trkpt lat="45.56698" lon="6.5905">
        <ele>1979.8298</ele>
        <time>2020-01-27 11:14:40</time>
      </trkpt>
      <trkpt lat="45.56698" lon="6.59049">
        <ele>1979.4927</ele>
        <time>2020-01-27 11:14:41</time>
      </trkpt>
      <trkpt lat="45.56699" lon="6.59049">
        <ele>1979.6697</ele>
        <time>2020-01-27 11:14:42</time>
      </trkpt>
      <trkpt lat="45.56699" lon="6.59049">
        <ele>1980.1091</ele>
        <time>2020-01-27 11:14:43</time>
      </trkpt>
      <trkpt lat="45.567" lon="6.59048">
        <ele>1981.9612</ele>
        <time>2020-01-27 11:14:45</time>
      </trkpt>
      <trkpt lat="45.56701" lon="6.5905">
        <ele>1984.209</ele>
        <time>2020-01-27 11:14:50</time>
      </trkpt>
      <trkpt lat="45.56701" lon="6.5905">
        <ele>1984.0005</ele>
        <time>2020-01-27 11:14:51</time>
      </trkpt>
      <trkpt lat="45.56701" lon="6.59051">
        <ele>1983.8059</ele>
        <time>2020-01-27 11:14:52</time>
      </trkpt>
      <trkpt lat="45.56702" lon="6.59053">
        <ele>1983.9756</ele>
        <time>2020-01-27 11:14:54</time>
      </trkpt>
      <trkpt lat="45.56702" lon="6.59052">
        <ele>1984.5962</ele>
        <time>2020-01-27 11:14:55</time>
      </trkpt>
      <trkpt lat="45.56702" lon="6.59053">
        <ele>1984.7747</ele>
        <time>2020-01-27 11:14:56</time>
      </trkpt>
      <trkpt lat="45.56702" lon="6.59053">
        <ele>1984.4917</ele>
        <time>2020-01-27 11:14:57</time>
      </trkpt>
      <trkpt lat="45.56702" lon="6.59054">
        <ele>1984.752</ele>
        <time>2020-01-27 11:14:58</time>
      </trkpt>
      <trkpt lat="45.56702" lon="6.59054">
        <ele>1984.8828</ele>
        <time>2020-01-27 11:14:59</time>
      </trkpt>
      <trkpt lat="45.56702" lon="6.59055">
        <ele>1985.4121</ele>
        <time>2020-01-27 11:15:00</time>
      </trkpt>
      <trkpt lat="45.56702" lon="6.5906">
        <ele>1991.9688</ele>
        <time>2020-01-27 11:15:08</time>
      </trkpt>
      <trkpt lat="45.56702" lon="6.59067">
        <ele>1990.4565</ele>
        <time>2020-01-27 11:15:20</time>
      </trkpt>
      <trkpt lat="45.56702" lon="6.59068">
        <ele>1990.2495</ele>
        <time>2020-01-27 11:15:21</time>
      </trkpt>
      <trkpt lat="45.56702" lon="6.59068">
        <ele>1990.1877</ele>
        <time>2020-01-27 11:15:22</time>
      </trkpt>
      <trkpt lat="45.56702" lon="6.59069">
        <ele>1990.4238</ele>
        <time>2020-01-27 11:15:23</time>
      </trkpt>
      <trkpt lat="45.56701" lon="6.59071">
        <ele>1990.3779</ele>
        <time>2020-01-27 11:15:26</time>
      </trkpt>
      <trkpt lat="45.56701" lon="6.59071">
        <ele>1991.6802</ele>
        <time>2020-01-27 11:15:28</time>
      </trkpt>
      <trkpt lat="45.56701" lon="6.59072">
        <ele>1991.6143</ele>
        <time>2020-01-27 11:15:29</time>
      </trkpt>
      <trkpt lat="45.56702" lon="6.59072">
        <ele>1992.5278</ele>
        <time>2020-01-27 11:15:30</time>
      </trkpt>
      <trkpt lat="45.56702" lon="6.59071">
        <ele>1992.1577</ele>
        <time>2020-01-27 11:15:31</time>
      </trkpt>
      <trkpt lat="45.56702" lon="6.5907">
        <ele>1992.1472</ele>
        <time>2020-01-27 11:15:32</time>
      </trkpt>
      <trkpt lat="45.56702" lon="6.5907">
        <ele>1991.5437</ele>
        <time>2020-01-27 11:15:34</time>
      </trkpt>
      <trkpt lat="45.56705" lon="6.59071">
        <ele>1989.8889</ele>
        <time>2020-01-27 11:15:38</time>
      </trkpt>
      <trkpt lat="45.56705" lon="6.59071">
        <ele>1989.7512</ele>
        <time>2020-01-27 11:15:40</time>
      </trkpt>
      <trkpt lat="45.56707" lon="6.59071">
        <ele>1988.5779</ele>
        <time>2020-01-27 11:15:41</time>
      </trkpt>
      <trkpt lat="45.56707" lon="6.59072">
        <ele>1988.4043</ele>
        <time>2020-01-27 11:15:42</time>
      </trkpt>
      <trkpt lat="45.56708" lon="6.59072">
        <ele>1988.312</ele>
        <time>2020-01-27 11:15:43</time>
      </trkpt>
      <trkpt lat="45.56708" lon="6.59072">
        <ele>1987.9199</ele>
        <time>2020-01-27 11:15:44</time>
      </trkpt>
      <trkpt lat="45.56708" lon="6.59072">
        <ele>1988.2527</ele>
        <time>2020-01-27 11:15:45</time>
      </trkpt>
      <trkpt lat="45.56709" lon="6.5907">
        <ele>1984.415</ele>
        <time>2020-01-27 11:15:53</time>
      </trkpt>
      <trkpt lat="45.5671" lon="6.5907">
        <ele>1985.4626</ele>
        <time>2020-01-27 11:15:54</time>
      </trkpt>
      <trkpt lat="45.56711" lon="6.59069">
        <ele>1986.3538</ele>
        <time>2020-01-27 11:15:56</time>
      </trkpt>
      <trkpt lat="45.56711" lon="6.59068">
        <ele>1986.6145</ele>
        <time>2020-01-27 11:15:58</time>
      </trkpt>
      <trkpt lat="45.56712" lon="6.59068">
        <ele>1988.6301</ele>
        <time>2020-01-27 11:16:09</time>
      </trkpt>
      <trkpt lat="45.56713" lon="6.59068">
        <ele>1988.4951</ele>
        <time>2020-01-27 11:16:10</time>
      </trkpt>
      <trkpt lat="45.56713" lon="6.59067">
        <ele>1987.4385</ele>
        <time>2020-01-27 11:16:12</time>
      </trkpt>
      <trkpt lat="45.56713" lon="6.5907">
        <ele>1993.9321</ele>
        <time>2020-01-27 11:16:25</time>
      </trkpt>
      <trkpt lat="45.56714" lon="6.59071">
        <ele>1995.0515</ele>
        <time>2020-01-27 11:16:27</time>
      </trkpt>
      <trkpt lat="45.56714" lon="6.59072">
        <ele>1995.1174</ele>
        <time>2020-01-27 11:16:28</time>
      </trkpt>
      <trkpt lat="45.56714" lon="6.59072">
        <ele>1995.7439</ele>
        <time>2020-01-27 11:16:29</time>
      </trkpt>
      <trkpt lat="45.56713" lon="6.59074">
        <ele>1996.2698</ele>
        <time>2020-01-27 11:16:31</time>
      </trkpt>
      <trkpt lat="45.56712" lon="6.59075">
        <ele>1997.9153</ele>
        <time>2020-01-27 11:16:34</time>
      </trkpt>
      <trkpt lat="45.56712" lon="6.59075">
        <ele>1998.6184</ele>
        <time>2020-01-27 11:16:35</time>
      </trkpt>
      <trkpt lat="45.56712" lon="6.59078">
        <ele>1997.9797</ele>
        <time>2020-01-27 11:16:39</time>
      </trkpt>
      <trkpt lat="45.56712" lon="6.59079">
        <ele>1999.4092</ele>
        <time>2020-01-27 11:16:40</time>
      </trkpt>
      <trkpt lat="45.56711" lon="6.59081">
        <ele>2001.7188</ele>
        <time>2020-01-27 11:16:45</time>
      </trkpt>
      <trkpt lat="45.56711" lon="6.59082">
        <ele>2002.3237</ele>
        <time>2020-01-27 11:16:47</time>
      </trkpt>
      <trkpt lat="45.56711" lon="6.59082">
        <ele>2002.7305</ele>
        <time>2020-01-27 11:16:48</time>
      </trkpt>
      <trkpt lat="45.56711" lon="6.59083">
        <ele>2003.3911</ele>
        <time>2020-01-27 11:16:49</time>
      </trkpt>
      <trkpt lat="45.56711" lon="6.59083">
        <ele>2004.2637</ele>
        <time>2020-01-27 11:16:50</time>
      </trkpt>
      <trkpt lat="45.56711" lon="6.59084">
        <ele>2004.9434</ele>
        <time>2020-01-27 11:16:51</time>
      </trkpt>
      <trkpt lat="45.5671" lon="6.59085">
        <ele>2005.644</ele>
        <time>2020-01-27 11:16:52</time>
      </trkpt>
      <trkpt lat="45.5671" lon="6.59085">
        <ele>2006.8218</ele>
        <time>2020-01-27 11:16:53</time>
      </trkpt>
      <trkpt lat="45.5671" lon="6.59086">
        <ele>2006.9863</ele>
        <time>2020-01-27 11:16:55</time>
      </trkpt>
      <trkpt lat="45.5671" lon="6.59086">
        <ele>2006.8662</ele>
        <time>2020-01-27 11:16:56</time>
      </trkpt>
      <trkpt lat="45.5671" lon="6.59086">
        <ele>2006.8945</ele>
        <time>2020-01-27 11:16:57</time>
      </trkpt>
      <trkpt lat="45.5671" lon="6.59087">
        <ele>2006.7388</ele>
        <time>2020-01-27 11:16:58</time>
      </trkpt>
      <trkpt lat="45.5671" lon="6.59088">
        <ele>2005.9639</ele>
        <time>2020-01-27 11:16:59</time>
      </trkpt>
      <trkpt lat="45.5671" lon="6.59088">
        <ele>2006.7681</ele>
        <time>2020-01-27 11:17:01</time>
      </trkpt>
      <trkpt lat="45.5671" lon="6.59088">
        <ele>2007.2109</ele>
        <time>2020-01-27 11:17:02</time>
      </trkpt>
      <trkpt lat="45.56709" lon="6.5909">
        <ele>2008.5564</ele>
        <time>2020-01-27 11:17:13</time>
      </trkpt>
      <trkpt lat="45.56709" lon="6.59091">
        <ele>2008.6353</ele>
        <time>2020-01-27 11:17:14</time>
      </trkpt>
      <trkpt lat="45.5671" lon="6.59091">
        <ele>2009.1116</ele>
        <time>2020-01-27 11:17:15</time>
      </trkpt>
      <trkpt lat="45.56711" lon="6.59091">
        <ele>2008.594</ele>
        <time>2020-01-27 11:17:18</time>
      </trkpt>
      <trkpt lat="45.56713" lon="6.59092">
        <ele>2009.1362</ele>
        <time>2020-01-27 11:17:23</time>
      </trkpt>
      <trkpt lat="45.56714" lon="6.59092">
        <ele>2008.6836</ele>
        <time>2020-01-27 11:17:24</time>
      </trkpt>
      <trkpt lat="45.56714" lon="6.59093">
        <ele>2010.2129</ele>
        <time>2020-01-27 11:17:25</time>
      </trkpt>
      <trkpt lat="45.56715" lon="6.59093">
        <ele>2007.7881</ele>
        <time>2020-01-27 11:17:27</time>
      </trkpt>
      <trkpt lat="45.56715" lon="6.59093">
        <ele>2007.9009</ele>
        <time>2020-01-27 11:17:29</time>
      </trkpt>
      <trkpt lat="45.56716" lon="6.59093">
        <ele>2007.8286</ele>
        <time>2020-01-27 11:17:31</time>
      </trkpt>
      <trkpt lat="45.56717" lon="6.59094">
        <ele>2008.3164</ele>
        <time>2020-01-27 11:17:32</time>
      </trkpt>
      <trkpt lat="45.56719" lon="6.59093">
        <ele>2008.666</ele>
        <time>2020-01-27 11:17:35</time>
      </trkpt>
      <trkpt lat="45.56719" lon="6.59092">
        <ele>2007.6084</ele>
        <time>2020-01-27 11:17:36</time>
      </trkpt>
      <trkpt lat="45.5672" lon="6.59092">
        <ele>2006.927</ele>
        <time>2020-01-27 11:17:37</time>
      </trkpt>
      <trkpt lat="45.5672" lon="6.59092">
        <ele>2005.791</ele>
        <time>2020-01-27 11:17:38</time>
      </trkpt>
      <trkpt lat="45.5672" lon="6.59092">
        <ele>2006.0264</ele>
        <time>2020-01-27 11:17:39</time>
      </trkpt>
      <trkpt lat="45.56721" lon="6.59092">
        <ele>2006.9707</ele>
        <time>2020-01-27 11:17:40</time>
      </trkpt>
      <trkpt lat="45.56721" lon="6.59091">
        <ele>2006.7383</ele>
        <time>2020-01-27 11:17:41</time>
      </trkpt>
      <trkpt lat="45.56722" lon="6.59092">
        <ele>2006.4517</ele>
        <time>2020-01-27 11:17:46</time>
      </trkpt>
      <trkpt lat="45.56722" lon="6.59092">
        <ele>2007.8733</ele>
        <time>2020-01-27 11:17:47</time>
      </trkpt>
      <trkpt lat="45.56722" lon="6.59092">
        <ele>2008.416</ele>
        <time>2020-01-27 11:17:48</time>
      </trkpt>
      <trkpt lat="45.56722" lon="6.59091">
        <ele>2008.4937</ele>
        <time>2020-01-27 11:17:49</time>
      </trkpt>
      <trkpt lat="45.56723" lon="6.5909">
        <ele>2007.5422</ele>
        <time>2020-01-27 11:17:53</time>
      </trkpt>
      <trkpt lat="45.56724" lon="6.5909">
        <ele>2006.5137</ele>
        <time>2020-01-27 11:17:55</time>
      </trkpt>
      <trkpt lat="45.56725" lon="6.59088">
        <ele>2007.0657</ele>
        <time>2020-01-27 11:18:02</time>
      </trkpt>
      <trkpt lat="45.56725" lon="6.59088">
        <ele>2007.4541</ele>
        <time>2020-01-27 11:18:03</time>
      </trkpt>
      <trkpt lat="45.56727" lon="6.59086">
        <ele>2009.3657</ele>
        <time>2020-01-27 11:18:16</time>
      </trkpt>
      <trkpt lat="45.56728" lon="6.59087">
        <ele>2008.646</ele>
        <time>2020-01-27 11:18:17</time>
      </trkpt>
      <trkpt lat="45.56728" lon="6.59088">
        <ele>2008.7449</ele>
        <time>2020-01-27 11:18:19</time>
      </trkpt>
      <trkpt lat="45.56728" lon="6.59088">
        <ele>2008.375</ele>
        <time>2020-01-27 11:18:20</time>
      </trkpt>
      <trkpt lat="45.56728" lon="6.59089">
        <ele>2008.2603</ele>
        <time>2020-01-27 11:18:21</time>
      </trkpt>
      <trkpt lat="45.56728" lon="6.59089">
        <ele>2007.7915</ele>
        <time>2020-01-27 11:18:22</time>
      </trkpt>
      <trkpt lat="45.56729" lon="6.5909">
        <ele>2008.2617</ele>
        <time>2020-01-27 11:18:23</time>
      </trkpt>
      <trkpt lat="45.56729" lon="6.5909">
        <ele>2009.0898</ele>
        <time>2020-01-27 11:18:24</time>
      </trkpt>
      <trkpt lat="45.56729" lon="6.59091">
        <ele>2008.99</ele>
        <time>2020-01-27 11:18:25</time>
      </trkpt>
      <trkpt lat="45.56729" lon="6.59092">
        <ele>2009.9653</ele>
        <time>2020-01-27 11:18:26</time>
      </trkpt>
      <trkpt lat="45.56729" lon="6.59094">
        <ele>2011.729</ele>
        <time>2020-01-27 11:18:32</time>
      </trkpt>
      <trkpt lat="45.56729" lon="6.59094">
        <ele>2012.8457</ele>
        <time>2020-01-27 11:18:33</time>
      </trkpt>
      <trkpt lat="45.56729" lon="6.59095">
        <ele>2013.21</ele>
        <time>2020-01-27 11:18:34</time>
      </trkpt>
      <trkpt lat="45.56729" lon="6.59097">
        <ele>2014.7334</ele>
        <time>2020-01-27 11:18:38</time>
      </trkpt>
      <trkpt lat="45.56729" lon="6.59098">
        <ele>2014.706</ele>
        <time>2020-01-27 11:18:39</time>
      </trkpt>
      <trkpt lat="45.56729" lon="6.59099">
        <ele>2014.8984</ele>
        <time>2020-01-27 11:18:40</time>
      </trkpt>
      <trkpt lat="45.56729" lon="6.59099">
        <ele>2015.334</ele>
        <time>2020-01-27 11:18:42</time>
      </trkpt>
      <trkpt lat="45.56729" lon="6.591">
        <ele>2015.0791</ele>
        <time>2020-01-27 11:18:43</time>
      </trkpt>
      <trkpt lat="45.56729" lon="6.591">
        <ele>2015.9463</ele>
        <time>2020-01-27 11:18:44</time>
      </trkpt>
      <trkpt lat="45.56728" lon="6.59101">
        <ele>2016.8411</ele>
        <time>2020-01-27 11:18:45</time>
      </trkpt>
      <trkpt lat="45.56728" lon="6.59102">
        <ele>2017.4792</ele>
        <time>2020-01-27 11:18:46</time>
      </trkpt>
      <trkpt lat="45.56728" lon="6.59103">
        <ele>2017.5679</ele>
        <time>2020-01-27 11:18:47</time>
      </trkpt>
      <trkpt lat="45.56728" lon="6.59103">
        <ele>2017.8977</ele>
        <time>2020-01-27 11:18:49</time>
      </trkpt>
      <trkpt lat="45.56728" lon="6.59103">
        <ele>2018.8066</ele>
        <time>2020-01-27 11:18:50</time>
      </trkpt>
      <trkpt lat="45.56727" lon="6.59104">
        <ele>2019.6431</ele>
        <time>2020-01-27 11:18:52</time>
      </trkpt>
      <trkpt lat="45.56727" lon="6.59104">
        <ele>2019.6733</ele>
        <time>2020-01-27 11:18:53</time>
      </trkpt>
      <trkpt lat="45.56726" lon="6.59105">
        <ele>2019.937</ele>
        <time>2020-01-27 11:18:54</time>
      </trkpt>
      <trkpt lat="45.56726" lon="6.59106">
        <ele>2020.3696</ele>
        <time>2020-01-27 11:18:55</time>
      </trkpt>
      <trkpt lat="45.56726" lon="6.59106">
        <ele>2020.647</ele>
        <time>2020-01-27 11:18:56</time>
      </trkpt>
      <trkpt lat="45.56726" lon="6.59109">
        <ele>2018.7512</ele>
        <time>2020-01-27 11:19:02</time>
      </trkpt>
      <trkpt lat="45.56727" lon="6.59109">
        <ele>2018.7314</ele>
        <time>2020-01-27 11:19:03</time>
      </trkpt>
      <trkpt lat="45.56728" lon="6.5911">
        <ele>2018.5981</ele>
        <time>2020-01-27 11:19:05</time>
      </trkpt>
      <trkpt lat="45.56728" lon="6.5911">
        <ele>2018.6199</ele>
        <time>2020-01-27 11:19:06</time>
      </trkpt>
      <trkpt lat="45.56731" lon="6.5911">
        <ele>2018.5039</ele>
        <time>2020-01-27 11:19:13</time>
      </trkpt>
      <trkpt lat="45.56732" lon="6.59109">
        <ele>2019.0205</ele>
        <time>2020-01-27 11:19:14</time>
      </trkpt>
      <trkpt lat="45.56732" lon="6.59109">
        <ele>2019.729</ele>
        <time>2020-01-27 11:19:20</time>
      </trkpt>
      <trkpt lat="45.56732" lon="6.59109">
        <ele>2019.1206</ele>
        <time>2020-01-27 11:19:21</time>
      </trkpt>
      <trkpt lat="45.56733" lon="6.59109">
        <ele>2019.8145</ele>
        <time>2020-01-27 11:19:28</time>
      </trkpt>
      <trkpt lat="45.56734" lon="6.5911">
        <ele>2020.0801</ele>
        <time>2020-01-27 11:19:30</time>
      </trkpt>
      <trkpt lat="45.56734" lon="6.59109">
        <ele>2019.6816</ele>
        <time>2020-01-27 11:19:35</time>
      </trkpt>
      <trkpt lat="45.56734" lon="6.5911">
        <ele>2019.3835</ele>
        <time>2020-01-27 11:19:36</time>
      </trkpt>
      <trkpt lat="45.56734" lon="6.59111">
        <ele>2019.5679</ele>
        <time>2020-01-27 11:19:38</time>
      </trkpt>
      <trkpt lat="45.56734" lon="6.59111">
        <ele>2019.5532</ele>
        <time>2020-01-27 11:19:39</time>
      </trkpt>
      <trkpt lat="45.56734" lon="6.59112">
        <ele>2020.9109</ele>
        <time>2020-01-27 11:19:41</time>
      </trkpt>
      <trkpt lat="45.56735" lon="6.59114">
        <ele>2021.9241</ele>
        <time>2020-01-27 11:19:44</time>
      </trkpt>
      <trkpt lat="45.56734" lon="6.59115">
        <ele>2021.7021</ele>
        <time>2020-01-27 11:19:46</time>
      </trkpt>
      <trkpt lat="45.56734" lon="6.59116">
        <ele>2021.4062</ele>
        <time>2020-01-27 11:19:47</time>
      </trkpt>
      <trkpt lat="45.56734" lon="6.59116">
        <ele>2022.1553</ele>
        <time>2020-01-27 11:19:48</time>
      </trkpt>
      <trkpt lat="45.56734" lon="6.59119">
        <ele>2021.7935</ele>
        <time>2020-01-27 11:19:52</time>
      </trkpt>
      <trkpt lat="45.56734" lon="6.59119">
        <ele>2021.7012</ele>
        <time>2020-01-27 11:19:53</time>
      </trkpt>
      <trkpt lat="45.56735" lon="6.59122">
        <ele>2023.0784</ele>
        <time>2020-01-27 11:19:56</time>
      </trkpt>
      <trkpt lat="45.56735" lon="6.59122">
        <ele>2023.1431</ele>
        <time>2020-01-27 11:19:58</time>
      </trkpt>
      <trkpt lat="45.56736" lon="6.59122">
        <ele>2022.9329</ele>
        <time>2020-01-27 11:19:59</time>
      </trkpt>
      <trkpt lat="45.56736" lon="6.59123">
        <ele>2023.0208</ele>
        <time>2020-01-27 11:20:00</time>
      </trkpt>
      <trkpt lat="45.56736" lon="6.59123">
        <ele>2023.5359</ele>
        <time>2020-01-27 11:20:01</time>
      </trkpt>
      <trkpt lat="45.56736" lon="6.59124">
        <ele>2023.0032</ele>
        <time>2020-01-27 11:20:04</time>
      </trkpt>
      <trkpt lat="45.56736" lon="6.59125">
        <ele>2023.1279</ele>
        <time>2020-01-27 11:20:05</time>
      </trkpt>
      <trkpt lat="45.56737" lon="6.59125">
        <ele>2023.6521</ele>
        <time>2020-01-27 11:20:06</time>
      </trkpt>
      <trkpt lat="45.56737" lon="6.59125">
        <ele>2023.5178</ele>
        <time>2020-01-27 11:20:07</time>
      </trkpt>
      <trkpt lat="45.56738" lon="6.59125">
        <ele>2024.2505</ele>
        <time>2020-01-27 11:20:08</time>
      </trkpt>
      <trkpt lat="45.56738" lon="6.59124">
        <ele>2024.6138</ele>
        <time>2020-01-27 11:20:09</time>
      </trkpt>
      <trkpt lat="45.56738" lon="6.59124">
        <ele>2024.9717</ele>
        <time>2020-01-27 11:20:10</time>
      </trkpt>
      <trkpt lat="45.56738" lon="6.59124">
        <ele>2025.4199</ele>
        <time>2020-01-27 11:20:14</time>
      </trkpt>
      <trkpt lat="45.56738" lon="6.59125">
        <ele>2026.0117</ele>
        <time>2020-01-27 11:20:15</time>
      </trkpt>
      <trkpt lat="45.56738" lon="6.59125">
        <ele>2025.6245</ele>
        <time>2020-01-27 11:20:16</time>
      </trkpt>
      <trkpt lat="45.56738" lon="6.59124">
        <ele>2026.1655</ele>
        <time>2020-01-27 11:20:17</time>
      </trkpt>
      <trkpt lat="45.5674" lon="6.59125">
        <ele>2025.7373</ele>
        <time>2020-01-27 11:20:24</time>
      </trkpt>
      <trkpt lat="45.56741" lon="6.59124">
        <ele>2025.8394</ele>
        <time>2020-01-27 11:20:25</time>
      </trkpt>
      <trkpt lat="45.56741" lon="6.59124">
        <ele>2026.873</ele>
        <time>2020-01-27 11:20:26</time>
      </trkpt>
      <trkpt lat="45.56741" lon="6.59124">
        <ele>2026.6211</ele>
        <time>2020-01-27 11:20:29</time>
      </trkpt>
      <trkpt lat="45.56742" lon="6.59124">
        <ele>2026.6123</ele>
        <time>2020-01-27 11:20:31</time>
      </trkpt>
      <trkpt lat="45.56743" lon="6.59124">
        <ele>2026.0723</ele>
        <time>2020-01-27 11:20:32</time>
      </trkpt>
      <trkpt lat="45.56744" lon="6.59124">
        <ele>2027.2148</ele>
        <time>2020-01-27 11:20:33</time>
      </trkpt>
      <trkpt lat="45.56745" lon="6.59124">
        <ele>2025.2983</ele>
        <time>2020-01-27 11:20:41</time>
      </trkpt>
      <trkpt lat="45.56745" lon="6.59124">
        <ele>2024.7202</ele>
        <time>2020-01-27 11:20:42</time>
      </trkpt>
      <trkpt lat="45.56746" lon="6.59124">
        <ele>2024.5518</ele>
        <time>2020-01-27 11:20:43</time>
      </trkpt>
      <trkpt lat="45.56746" lon="6.59123">
        <ele>2025.0908</ele>
        <time>2020-01-27 11:20:44</time>
      </trkpt>
      <trkpt lat="45.56746" lon="6.59123">
        <ele>2027.1533</ele>
        <time>2020-01-27 11:20:46</time>
      </trkpt>
      <trkpt lat="45.56745" lon="6.59123">
        <ele>2027.8633</ele>
        <time>2020-01-27 11:20:48</time>
      </trkpt>
      <trkpt lat="45.56745" lon="6.59125">
        <ele>2029.5696</ele>
        <time>2020-01-27 11:20:52</time>
      </trkpt>
      <trkpt lat="45.56745" lon="6.59125">
        <ele>2030.635</ele>
        <time>2020-01-27 11:20:53</time>
      </trkpt>
      <trkpt lat="45.56746" lon="6.59127">
        <ele>2030.9998</ele>
        <time>2020-01-27 11:20:57</time>
      </trkpt>
      <trkpt lat="45.56746" lon="6.59127">
        <ele>2031.3232</ele>
        <time>2020-01-27 11:20:58</time>
      </trkpt>
      <trkpt lat="45.56747" lon="6.59128">
        <ele>2033.0215</ele>
        <time>2020-01-27 11:20:59</time>
      </trkpt>
      <trkpt lat="45.56747" lon="6.59129">
        <ele>2032.9722</ele>
        <time>2020-01-27 11:21:00</time>
      </trkpt>
      <trkpt lat="45.56746" lon="6.59129">
        <ele>2032.458</ele>
        <time>2020-01-27 11:21:01</time>
      </trkpt>
      <trkpt lat="45.56746" lon="6.5913">
        <ele>2033.3745</ele>
        <time>2020-01-27 11:21:03</time>
      </trkpt>
      <trkpt lat="45.56746" lon="6.59131">
        <ele>2033.8906</ele>
        <time>2020-01-27 11:21:04</time>
      </trkpt>
      <trkpt lat="45.56746" lon="6.59131">
        <ele>2034.0249</ele>
        <time>2020-01-27 11:21:05</time>
      </trkpt>
      <trkpt lat="45.56746" lon="6.59132">
        <ele>2033.9043</ele>
        <time>2020-01-27 11:21:06</time>
      </trkpt>
      <trkpt lat="45.56746" lon="6.59134">
        <ele>2032.668</ele>
        <time>2020-01-27 11:21:08</time>
      </trkpt>
      <trkpt lat="45.56746" lon="6.59134">
        <ele>2032.9272</ele>
        <time>2020-01-27 11:21:09</time>
      </trkpt>
      <trkpt lat="45.56747" lon="6.59134">
        <ele>2033.1531</ele>
        <time>2020-01-27 11:21:10</time>
      </trkpt>
      <trkpt lat="45.56747" lon="6.59135">
        <ele>2033.513</ele>
        <time>2020-01-27 11:21:11</time>
      </trkpt>
      <trkpt lat="45.56746" lon="6.59136">
        <ele>2033.9536</ele>
        <time>2020-01-27 11:21:12</time>
      </trkpt>
      <trkpt lat="45.56746" lon="6.59137">
        <ele>2033.6504</ele>
        <time>2020-01-27 11:21:14</time>
      </trkpt>
      <trkpt lat="45.56746" lon="6.59137">
        <ele>2032.9609</ele>
        <time>2020-01-27 11:21:15</time>
      </trkpt>
      <trkpt lat="45.56746" lon="6.59138">
        <ele>2033.5479</ele>
        <time>2020-01-27 11:21:16</time>
      </trkpt>
      <trkpt lat="45.56745" lon="6.59139">
        <ele>2034.6675</ele>
        <time>2020-01-27 11:21:18</time>
      </trkpt>
      <trkpt lat="45.56746" lon="6.59139">
        <ele>2034.8958</ele>
        <time>2020-01-27 11:21:19</time>
      </trkpt>
      <trkpt lat="45.56746" lon="6.5914">
        <ele>2035.6765</ele>
        <time>2020-01-27 11:21:20</time>
      </trkpt>
      <trkpt lat="45.56745" lon="6.59142">
        <ele>2033.8921</ele>
        <time>2020-01-27 11:21:22</time>
      </trkpt>
      <trkpt lat="45.56745" lon="6.59142">
        <ele>2034.3074</ele>
        <time>2020-01-27 11:21:23</time>
      </trkpt>
      <trkpt lat="45.56745" lon="6.59143">
        <ele>2034.5049</ele>
        <time>2020-01-27 11:21:24</time>
      </trkpt>
      <trkpt lat="45.56745" lon="6.59143">
        <ele>2034.6528</ele>
        <time>2020-01-27 11:21:25</time>
      </trkpt>
      <trkpt lat="45.56745" lon="6.59144">
        <ele>2034.5166</ele>
        <time>2020-01-27 11:21:26</time>
      </trkpt>
      <trkpt lat="45.56745" lon="6.59145">
        <ele>2035.9141</ele>
        <time>2020-01-27 11:21:27</time>
      </trkpt>
      <trkpt lat="45.56743" lon="6.59147">
        <ele>2036.5796</ele>
        <time>2020-01-27 11:21:31</time>
      </trkpt>
      <trkpt lat="45.56741" lon="6.59149">
        <ele>2036.439</ele>
        <time>2020-01-27 11:21:34</time>
      </trkpt>
      <trkpt lat="45.56741" lon="6.5915">
        <ele>2036.9233</ele>
        <time>2020-01-27 11:21:35</time>
      </trkpt>
      <trkpt lat="45.56741" lon="6.5915">
        <ele>2038.5876</ele>
        <time>2020-01-27 11:21:39</time>
      </trkpt>
      <trkpt lat="45.5674" lon="6.5915">
        <ele>2038.7307</ele>
        <time>2020-01-27 11:21:40</time>
      </trkpt>
      <trkpt lat="45.5674" lon="6.59152">
        <ele>2039.1982</ele>
        <time>2020-01-27 11:21:45</time>
      </trkpt>
      <trkpt lat="45.56741" lon="6.59152">
        <ele>2039.3513</ele>
        <time>2020-01-27 11:21:46</time>
      </trkpt>
      <trkpt lat="45.56741" lon="6.59153">
        <ele>2040.2886</ele>
        <time>2020-01-27 11:21:47</time>
      </trkpt>
      <trkpt lat="45.56741" lon="6.59153">
        <ele>2040.2495</ele>
        <time>2020-01-27 11:21:48</time>
      </trkpt>
      <trkpt lat="45.56742" lon="6.59154">
        <ele>2040.1311</ele>
        <time>2020-01-27 11:21:49</time>
      </trkpt>
      <trkpt lat="45.56742" lon="6.59154">
        <ele>2039.7429</ele>
        <time>2020-01-27 11:21:50</time>
      </trkpt>
      <trkpt lat="45.56742" lon="6.59154">
        <ele>2040.1377</ele>
        <time>2020-01-27 11:21:52</time>
      </trkpt>
      <trkpt lat="45.56742" lon="6.59154">
        <ele>2040.3926</ele>
        <time>2020-01-27 11:21:53</time>
      </trkpt>
      <trkpt lat="45.56743" lon="6.59154">
        <ele>2041.0645</ele>
        <time>2020-01-27 11:21:58</time>
      </trkpt>
      <trkpt lat="45.56744" lon="6.59155">
        <ele>2040.6462</ele>
        <time>2020-01-27 11:21:59</time>
      </trkpt>
      <trkpt lat="45.56745" lon="6.59155">
        <ele>2040.127</ele>
        <time>2020-01-27 11:22:01</time>
      </trkpt>
      <trkpt lat="45.56746" lon="6.59155">
        <ele>2040.0005</ele>
        <time>2020-01-27 11:22:02</time>
      </trkpt>
      <trkpt lat="45.56746" lon="6.59155">
        <ele>2040.3499</ele>
        <time>2020-01-27 11:22:03</time>
      </trkpt>
      <trkpt lat="45.56747" lon="6.59155">
        <ele>2039.9453</ele>
        <time>2020-01-27 11:22:04</time>
      </trkpt>
      <trkpt lat="45.56748" lon="6.59155">
        <ele>2040.8147</ele>
        <time>2020-01-27 11:22:05</time>
      </trkpt>
      <trkpt lat="45.56749" lon="6.59155">
        <ele>2041.4072</ele>
        <time>2020-01-27 11:22:06</time>
      </trkpt>
      <trkpt lat="45.56749" lon="6.59155">
        <ele>2041.8606</ele>
        <time>2020-01-27 11:22:07</time>
      </trkpt>
      <trkpt lat="45.5675" lon="6.59155">
        <ele>2040.9419</ele>
        <time>2020-01-27 11:22:09</time>
      </trkpt>
      <trkpt lat="45.56751" lon="6.59155">
        <ele>2041.3174</ele>
        <time>2020-01-27 11:22:12</time>
      </trkpt>
      <trkpt lat="45.56752" lon="6.59155">
        <ele>2041.1626</ele>
        <time>2020-01-27 11:22:15</time>
      </trkpt>
      <trkpt lat="45.56752" lon="6.59154">
        <ele>2040.4463</ele>
        <time>2020-01-27 11:22:18</time>
      </trkpt>
      <trkpt lat="45.56753" lon="6.59154">
        <ele>2040.1108</ele>
        <time>2020-01-27 11:22:19</time>
      </trkpt>
      <trkpt lat="45.56753" lon="6.59154">
        <ele>2040.9346</ele>
        <time>2020-01-27 11:22:30</time>
      </trkpt>
      <trkpt lat="45.56753" lon="6.59154">
        <ele>2040.9863</ele>
        <time>2020-01-27 11:22:31</time>
      </trkpt>
      <trkpt lat="45.56755" lon="6.59154">
        <ele>2041.6213</ele>
        <time>2020-01-27 11:22:48</time>
      </trkpt>
      <trkpt lat="45.56756" lon="6.59154">
        <ele>2041.0513</ele>
        <time>2020-01-27 11:22:50</time>
      </trkpt>
      <trkpt lat="45.56757" lon="6.59154">
        <ele>2042.7227</ele>
        <time>2020-01-27 11:22:55</time>
      </trkpt>
      <trkpt lat="45.56759" lon="6.59153">
        <ele>2042.8047</ele>
        <time>2020-01-27 11:22:57</time>
      </trkpt>
      <trkpt lat="45.5676" lon="6.59153">
        <ele>2042.667</ele>
        <time>2020-01-27 11:22:59</time>
      </trkpt>
      <trkpt lat="45.5676" lon="6.59152">
        <ele>2042.8105</ele>
        <time>2020-01-27 11:23:00</time>
      </trkpt>
      <trkpt lat="45.56762" lon="6.59149">
        <ele>2043.5166</ele>
        <time>2020-01-27 11:23:06</time>
      </trkpt>
      <trkpt lat="45.56763" lon="6.59148">
        <ele>2043.5591</ele>
        <time>2020-01-27 11:23:07</time>
      </trkpt>
      <trkpt lat="45.56763" lon="6.59147">
        <ele>2043.4773</ele>
        <time>2020-01-27 11:23:09</time>
      </trkpt>
      <trkpt lat="45.56764" lon="6.59146">
        <ele>2043.2998</ele>
        <time>2020-01-27 11:23:10</time>
      </trkpt>
      <trkpt lat="45.56765" lon="6.59149">
        <ele>2046.4009</ele>
        <time>2020-01-27 11:23:28</time>
      </trkpt>
      <trkpt lat="45.56765" lon="6.5915">
        <ele>2046.9028</ele>
        <time>2020-01-27 11:23:29</time>
      </trkpt>
      <trkpt lat="45.56765" lon="6.59151">
        <ele>2048.2969</ele>
        <time>2020-01-27 11:23:30</time>
      </trkpt>
      <trkpt lat="45.56764" lon="6.59156">
        <ele>2047.1069</ele>
        <time>2020-01-27 11:23:35</time>
      </trkpt>
      <trkpt lat="45.56764" lon="6.59156">
        <ele>2047.2222</ele>
        <time>2020-01-27 11:23:39</time>
      </trkpt>
      <trkpt lat="45.56764" lon="6.59156">
        <ele>2047.1553</ele>
        <time>2020-01-27 11:23:40</time>
      </trkpt>
      <trkpt lat="45.56764" lon="6.59157">
        <ele>2048.1824</ele>
        <time>2020-01-27 11:23:41</time>
      </trkpt>
      <trkpt lat="45.56763" lon="6.59159">
        <ele>2048.2124</ele>
        <time>2020-01-27 11:23:45</time>
      </trkpt>
      <trkpt lat="45.56764" lon="6.5916">
        <ele>2048.4958</ele>
        <time>2020-01-27 11:23:47</time>
      </trkpt>
      <trkpt lat="45.56764" lon="6.59161">
        <ele>2049.1677</ele>
        <time>2020-01-27 11:23:48</time>
      </trkpt>
      <trkpt lat="45.56763" lon="6.59165">
        <ele>2050.7393</ele>
        <time>2020-01-27 11:23:54</time>
      </trkpt>
      <trkpt lat="45.56763" lon="6.59165">
        <ele>2050.9707</ele>
        <time>2020-01-27 11:23:55</time>
      </trkpt>
      <trkpt lat="45.56763" lon="6.59166">
        <ele>2051.4734</ele>
        <time>2020-01-27 11:23:56</time>
      </trkpt>
      <trkpt lat="45.56763" lon="6.59167">
        <ele>2051.7847</ele>
        <time>2020-01-27 11:23:57</time>
      </trkpt>
      <trkpt lat="45.56763" lon="6.5917">
        <ele>2051.4116</ele>
        <time>2020-01-27 11:24:01</time>
      </trkpt>
      <trkpt lat="45.56762" lon="6.5917">
        <ele>2050.8926</ele>
        <time>2020-01-27 11:24:02</time>
      </trkpt>
      <trkpt lat="45.56762" lon="6.59172">
        <ele>2050.7004</ele>
        <time>2020-01-27 11:24:04</time>
      </trkpt>
      <trkpt lat="45.56762" lon="6.59173">
        <ele>2050.7085</ele>
        <time>2020-01-27 11:24:07</time>
      </trkpt>
      <trkpt lat="45.56762" lon="6.59174">
        <ele>2050.9763</ele>
        <time>2020-01-27 11:24:08</time>
      </trkpt>
      <trkpt lat="45.56762" lon="6.59174">
        <ele>2051.7424</ele>
        <time>2020-01-27 11:24:09</time>
      </trkpt>
      <trkpt lat="45.56761" lon="6.59175">
        <ele>2051.936</ele>
        <time>2020-01-27 11:24:10</time>
      </trkpt>
      <trkpt lat="45.56758" lon="6.5918">
        <ele>2054.2563</ele>
        <time>2020-01-27 11:24:17</time>
      </trkpt>
      <trkpt lat="45.56758" lon="6.59181">
        <ele>2053.9688</ele>
        <time>2020-01-27 11:24:19</time>
      </trkpt>
      <trkpt lat="45.56757" lon="6.59184">
        <ele>2052.9075</ele>
        <time>2020-01-27 11:24:23</time>
      </trkpt>
      <trkpt lat="45.56756" lon="6.59186">
        <ele>2052.571</ele>
        <time>2020-01-27 11:24:26</time>
      </trkpt>
      <trkpt lat="45.56755" lon="6.59186">
        <ele>2052.8987</ele>
        <time>2020-01-27 11:24:27</time>
      </trkpt>
      <trkpt lat="45.56753" lon="6.59188">
        <ele>2054.03</ele>
        <time>2020-01-27 11:24:30</time>
      </trkpt>
      <trkpt lat="45.56752" lon="6.59189">
        <ele>2054.468</ele>
        <time>2020-01-27 11:24:31</time>
      </trkpt>
      <trkpt lat="45.56751" lon="6.5919">
        <ele>2054.3533</ele>
        <time>2020-01-27 11:24:32</time>
      </trkpt>
      <trkpt lat="45.5675" lon="6.5919">
        <ele>2055.1602</ele>
        <time>2020-01-27 11:24:33</time>
      </trkpt>
      <trkpt lat="45.5675" lon="6.59191">
        <ele>2054.379</ele>
        <time>2020-01-27 11:24:35</time>
      </trkpt>
      <trkpt lat="45.5675" lon="6.59192">
        <ele>2054.4485</ele>
        <time>2020-01-27 11:24:36</time>
      </trkpt>
      <trkpt lat="45.5675" lon="6.59192">
        <ele>2053.8215</ele>
        <time>2020-01-27 11:24:37</time>
      </trkpt>
      <trkpt lat="45.56749" lon="6.59192">
        <ele>2054.408</ele>
        <time>2020-01-27 11:24:38</time>
      </trkpt>
      <trkpt lat="45.56749" lon="6.59192">
        <ele>2054.248</ele>
        <time>2020-01-27 11:24:39</time>
      </trkpt>
      <trkpt lat="45.56749" lon="6.59193">
        <ele>2054.2007</ele>
        <time>2020-01-27 11:24:40</time>
      </trkpt>
      <trkpt lat="45.56748" lon="6.59195">
        <ele>2054.848</ele>
        <time>2020-01-27 11:24:42</time>
      </trkpt>
      <trkpt lat="45.56749" lon="6.59196">
        <ele>2054.3184</ele>
        <time>2020-01-27 11:24:43</time>
      </trkpt>
      <trkpt lat="45.56749" lon="6.59196">
        <ele>2055.0403</ele>
        <time>2020-01-27 11:24:44</time>
      </trkpt>
      <trkpt lat="45.56749" lon="6.59196">
        <ele>2055.481</ele>
        <time>2020-01-27 11:24:45</time>
      </trkpt>
      <trkpt lat="45.56749" lon="6.59196">
        <ele>2055.82</ele>
        <time>2020-01-27 11:24:46</time>
      </trkpt>
      <trkpt lat="45.56749" lon="6.59196">
        <ele>2055.154</ele>
        <time>2020-01-27 11:24:47</time>
      </trkpt>
      <trkpt lat="45.56748" lon="6.59197">
        <ele>2053.3677</ele>
        <time>2020-01-27 11:24:49</time>
      </trkpt>
      <trkpt lat="45.56747" lon="6.59199">
        <ele>2053.6982</ele>
        <time>2020-01-27 11:24:52</time>
      </trkpt>
      <trkpt lat="45.56746" lon="6.592">
        <ele>2052.83</ele>
        <time>2020-01-27 11:24:53</time>
      </trkpt>
      <trkpt lat="45.56745" lon="6.59201">
        <ele>2052.49</ele>
        <time>2020-01-27 11:24:54</time>
      </trkpt>
      <trkpt lat="45.56744" lon="6.59202">
        <ele>2053.78</ele>
        <time>2020-01-27 11:24:56</time>
      </trkpt>
      <trkpt lat="45.56744" lon="6.59202">
        <ele>2053.8057</ele>
        <time>2020-01-27 11:24:57</time>
      </trkpt>
      <trkpt lat="45.56743" lon="6.59203">
        <ele>2054.2217</ele>
        <time>2020-01-27 11:24:58</time>
      </trkpt>
      <trkpt lat="45.56742" lon="6.59203">
        <ele>2055.9795</ele>
        <time>2020-01-27 11:24:59</time>
      </trkpt>
      <trkpt lat="45.56742" lon="6.59204">
        <ele>2056.2935</ele>
        <time>2020-01-27 11:25:01</time>
      </trkpt>
      <trkpt lat="45.56741" lon="6.59204">
        <ele>2056.8071</ele>
        <time>2020-01-27 11:25:02</time>
      </trkpt>
      <trkpt lat="45.56741" lon="6.59204">
        <ele>2057.5679</ele>
        <time>2020-01-27 11:25:03</time>
      </trkpt>
      <trkpt lat="45.56739" lon="6.59208">
        <ele>2058.1135</ele>
        <time>2020-01-27 11:25:09</time>
      </trkpt>
      <trkpt lat="45.56739" lon="6.59208">
        <ele>2058.5657</ele>
        <time>2020-01-27 11:25:10</time>
      </trkpt>
      <trkpt lat="45.56738" lon="6.59208">
        <ele>2058.858</ele>
        <time>2020-01-27 11:25:11</time>
      </trkpt>
      <trkpt lat="45.56738" lon="6.59208">
        <ele>2058.57</ele>
        <time>2020-01-27 11:25:12</time>
      </trkpt>
      <trkpt lat="45.56737" lon="6.59209">
        <ele>2059.218</ele>
        <time>2020-01-27 11:25:14</time>
      </trkpt>
      <trkpt lat="45.56737" lon="6.59209">
        <ele>2059.9707</ele>
        <time>2020-01-27 11:25:15</time>
      </trkpt>
      <trkpt lat="45.56737" lon="6.5921">
        <ele>2060.6592</ele>
        <time>2020-01-27 11:25:16</time>
      </trkpt>
      <trkpt lat="45.56736" lon="6.59211">
        <ele>2059.8376</ele>
        <time>2020-01-27 11:25:17</time>
      </trkpt>
      <trkpt lat="45.56736" lon="6.5921">
        <ele>2060.0515</ele>
        <time>2020-01-27 11:25:18</time>
      </trkpt>
      <trkpt lat="45.56735" lon="6.5921">
        <ele>2059.2131</ele>
        <time>2020-01-27 11:25:22</time>
      </trkpt>
      <trkpt lat="45.56735" lon="6.59211">
        <ele>2059.5066</ele>
        <time>2020-01-27 11:25:23</time>
      </trkpt>
      <trkpt lat="45.56735" lon="6.59212">
        <ele>2059.4287</ele>
        <time>2020-01-27 11:25:24</time>
      </trkpt>
      <trkpt lat="45.56736" lon="6.59213">
        <ele>2059.7056</ele>
        <time>2020-01-27 11:25:25</time>
      </trkpt>
      <trkpt lat="45.56736" lon="6.59214">
        <ele>2060.9949</ele>
        <time>2020-01-27 11:25:29</time>
      </trkpt>
      <trkpt lat="45.56736" lon="6.59215">
        <ele>2060.8696</ele>
        <time>2020-01-27 11:25:30</time>
      </trkpt>
      <trkpt lat="45.56736" lon="6.59216">
        <ele>2061.2263</ele>
        <time>2020-01-27 11:25:31</time>
      </trkpt>
      <trkpt lat="45.56736" lon="6.59217">
        <ele>2060.808</ele>
        <time>2020-01-27 11:25:32</time>
      </trkpt>
      <trkpt lat="45.56736" lon="6.59217">
        <ele>2060.5732</ele>
        <time>2020-01-27 11:25:33</time>
      </trkpt>
      <trkpt lat="45.56735" lon="6.59218">
        <ele>2062.2336</ele>
        <time>2020-01-27 11:25:35</time>
      </trkpt>
      <trkpt lat="45.56735" lon="6.59218">
        <ele>2062.3428</ele>
        <time>2020-01-27 11:25:36</time>
      </trkpt>
      <trkpt lat="45.56735" lon="6.59219">
        <ele>2062.844</ele>
        <time>2020-01-27 11:25:37</time>
      </trkpt>
      <trkpt lat="45.56735" lon="6.59219">
        <ele>2062.0657</ele>
        <time>2020-01-27 11:25:38</time>
      </trkpt>
      <trkpt lat="45.56735" lon="6.5922">
        <ele>2062.358</ele>
        <time>2020-01-27 11:25:39</time>
      </trkpt>
      <trkpt lat="45.56734" lon="6.59221">
        <ele>2062.2478</ele>
        <time>2020-01-27 11:25:41</time>
      </trkpt>
      <trkpt lat="45.56732" lon="6.59224">
        <ele>2062.0918</ele>
        <time>2020-01-27 11:25:46</time>
      </trkpt>
      <trkpt lat="45.56732" lon="6.59225">
        <ele>2063.881</ele>
        <time>2020-01-27 11:25:50</time>
      </trkpt>
      <trkpt lat="45.56732" lon="6.59227">
        <ele>2064.1975</ele>
        <time>2020-01-27 11:25:51</time>
      </trkpt>
      <trkpt lat="45.56732" lon="6.59227">
        <ele>2063.7886</ele>
        <time>2020-01-27 11:25:52</time>
      </trkpt>
      <trkpt lat="45.56731" lon="6.59228">
        <ele>2063.3955</ele>
        <time>2020-01-27 11:25:53</time>
      </trkpt>
      <trkpt lat="45.56731" lon="6.59229">
        <ele>2065.349</ele>
        <time>2020-01-27 11:25:54</time>
      </trkpt>
      <trkpt lat="45.56731" lon="6.5923">
        <ele>2065.4934</ele>
        <time>2020-01-27 11:25:55</time>
      </trkpt>
      <trkpt lat="45.5673" lon="6.59231">
        <ele>2065.029</ele>
        <time>2020-01-27 11:25:57</time>
      </trkpt>
      <trkpt lat="45.5673" lon="6.59232">
        <ele>2064.684</ele>
        <time>2020-01-27 11:25:58</time>
      </trkpt>
      <trkpt lat="45.5673" lon="6.59232">
        <ele>2064.7678</ele>
        <time>2020-01-27 11:25:59</time>
      </trkpt>
      <trkpt lat="45.56729" lon="6.59231">
        <ele>2063.7988</ele>
        <time>2020-01-27 11:26:00</time>
      </trkpt>
      <trkpt lat="45.56729" lon="6.59232">
        <ele>2064.3364</ele>
        <time>2020-01-27 11:26:02</time>
      </trkpt>
      <trkpt lat="45.56729" lon="6.59233">
        <ele>2064.258</ele>
        <time>2020-01-27 11:26:03</time>
      </trkpt>
      <trkpt lat="45.56729" lon="6.59234">
        <ele>2064.6873</ele>
        <time>2020-01-27 11:26:04</time>
      </trkpt>
      <trkpt lat="45.5673" lon="6.59237">
        <ele>2064.6704</ele>
        <time>2020-01-27 11:26:08</time>
      </trkpt>
      <trkpt lat="45.5673" lon="6.59238">
        <ele>2065.594</ele>
        <time>2020-01-27 11:26:09</time>
      </trkpt>
      <trkpt lat="45.56729" lon="6.59239">
        <ele>2066.373</ele>
        <time>2020-01-27 11:26:10</time>
      </trkpt>
      <trkpt lat="45.56729" lon="6.59239">
        <ele>2066.86</ele>
        <time>2020-01-27 11:26:11</time>
      </trkpt>
      <trkpt lat="45.56728" lon="6.5924">
        <ele>2066.0745</ele>
        <time>2020-01-27 11:26:12</time>
      </trkpt>
      <trkpt lat="45.56728" lon="6.5924">
        <ele>2066.5227</ele>
        <time>2020-01-27 11:26:13</time>
      </trkpt>
      <trkpt lat="45.56728" lon="6.59241">
        <ele>2066.831</ele>
        <time>2020-01-27 11:26:14</time>
      </trkpt>
      <trkpt lat="45.56728" lon="6.59241">
        <ele>2068.0889</ele>
        <time>2020-01-27 11:26:15</time>
      </trkpt>
      <trkpt lat="45.56727" lon="6.59243">
        <ele>2066.8481</ele>
        <time>2020-01-27 11:26:17</time>
      </trkpt>
      <trkpt lat="45.56727" lon="6.59244">
        <ele>2067.3904</ele>
        <time>2020-01-27 11:26:18</time>
      </trkpt>
      <trkpt lat="45.56727" lon="6.59244">
        <ele>2067.2583</ele>
        <time>2020-01-27 11:26:19</time>
      </trkpt>
      <trkpt lat="45.56727" lon="6.59245">
        <ele>2067.5637</ele>
        <time>2020-01-27 11:26:20</time>
      </trkpt>
      <trkpt lat="45.56727" lon="6.59246">
        <ele>2067.297</ele>
        <time>2020-01-27 11:26:21</time>
      </trkpt>
      <trkpt lat="45.56726" lon="6.59247">
        <ele>2067.6892</ele>
        <time>2020-01-27 11:26:24</time>
      </trkpt>
      <trkpt lat="45.56725" lon="6.5925">
        <ele>2066.717</ele>
        <time>2020-01-27 11:26:28</time>
      </trkpt>
      <trkpt lat="45.56725" lon="6.59251">
        <ele>2067.1892</ele>
        <time>2020-01-27 11:26:29</time>
      </trkpt>
      <trkpt lat="45.56724" lon="6.59251">
        <ele>2067.1409</ele>
        <time>2020-01-27 11:26:30</time>
      </trkpt>
      <trkpt lat="45.56724" lon="6.59252">
        <ele>2066.593</ele>
        <time>2020-01-27 11:26:31</time>
      </trkpt>
      <trkpt lat="45.56724" lon="6.59252">
        <ele>2067.793</ele>
        <time>2020-01-27 11:26:32</time>
      </trkpt>
      <trkpt lat="45.56724" lon="6.59253">
        <ele>2068.5579</ele>
        <time>2020-01-27 11:26:33</time>
      </trkpt>
      <trkpt lat="45.56724" lon="6.59253">
        <ele>2068.6174</ele>
        <time>2020-01-27 11:26:34</time>
      </trkpt>
      <trkpt lat="45.56724" lon="6.59254">
        <ele>2068.807</ele>
        <time>2020-01-27 11:26:35</time>
      </trkpt>
      <trkpt lat="45.56725" lon="6.59259">
        <ele>2071.833</ele>
        <time>2020-01-27 11:26:43</time>
      </trkpt>
      <trkpt lat="45.56724" lon="6.5926">
        <ele>2071.2761</ele>
        <time>2020-01-27 11:26:45</time>
      </trkpt>
      <trkpt lat="45.56724" lon="6.59265">
        <ele>2070.9602</ele>
        <time>2020-01-27 11:26:50</time>
      </trkpt>
      <trkpt lat="45.56724" lon="6.59266">
        <ele>2071.346</ele>
        <time>2020-01-27 11:26:51</time>
      </trkpt>
      <trkpt lat="45.56724" lon="6.59266">
        <ele>2072.2207</ele>
        <time>2020-01-27 11:26:52</time>
      </trkpt>
      <trkpt lat="45.56724" lon="6.59268">
        <ele>2072.2927</ele>
        <time>2020-01-27 11:26:53</time>
      </trkpt>
      <trkpt lat="45.56723" lon="6.59268">
        <ele>2072.1877</ele>
        <time>2020-01-27 11:26:54</time>
      </trkpt>
      <trkpt lat="45.56723" lon="6.59269">
        <ele>2072.0728</ele>
        <time>2020-01-27 11:26:55</time>
      </trkpt>
      <trkpt lat="45.56723" lon="6.5927">
        <ele>2072.615</ele>
        <time>2020-01-27 11:26:56</time>
      </trkpt>
      <trkpt lat="45.56724" lon="6.59276">
        <ele>2072.3733</ele>
        <time>2020-01-27 11:27:00</time>
      </trkpt>
      <trkpt lat="45.56724" lon="6.59277">
        <ele>2071.9155</ele>
        <time>2020-01-27 11:27:01</time>
      </trkpt>
      <trkpt lat="45.56725" lon="6.59282">
        <ele>2072.827</ele>
        <time>2020-01-27 11:27:06</time>
      </trkpt>
      <trkpt lat="45.56725" lon="6.59288">
        <ele>2074.6587</ele>
        <time>2020-01-27 11:27:11</time>
      </trkpt>
      <trkpt lat="45.56725" lon="6.59289">
        <ele>2074.8267</ele>
        <time>2020-01-27 11:27:12</time>
      </trkpt>
      <trkpt lat="45.56725" lon="6.59289">
        <ele>2075.6738</ele>
        <time>2020-01-27 11:27:13</time>
      </trkpt>
      <trkpt lat="45.56725" lon="6.5929">
        <ele>2075.6885</ele>
        <time>2020-01-27 11:27:14</time>
      </trkpt>
      <trkpt lat="45.56725" lon="6.59293">
        <ele>2074.7058</ele>
        <time>2020-01-27 11:27:17</time>
      </trkpt>
      <trkpt lat="45.56725" lon="6.59295">
        <ele>2076.2263</ele>
        <time>2020-01-27 11:27:20</time>
      </trkpt>
      <trkpt lat="45.56725" lon="6.59297">
        <ele>2078.6523</ele>
        <time>2020-01-27 11:27:23</time>
      </trkpt>
      <trkpt lat="45.56725" lon="6.59298">
        <ele>2079.4329</ele>
        <time>2020-01-27 11:27:25</time>
      </trkpt>
      <trkpt lat="45.56725" lon="6.59298">
        <ele>2078.6104</ele>
        <time>2020-01-27 11:27:26</time>
      </trkpt>
      <trkpt lat="45.56726" lon="6.59297">
        <ele>2078.3171</ele>
        <time>2020-01-27 11:27:27</time>
      </trkpt>
      <trkpt lat="45.56727" lon="6.59297">
        <ele>2078.3774</ele>
        <time>2020-01-27 11:27:28</time>
      </trkpt>
      <trkpt lat="45.56728" lon="6.59297">
        <ele>2078.457</ele>
        <time>2020-01-27 11:27:29</time>
      </trkpt>
      <trkpt lat="45.5673" lon="6.59297">
        <ele>2079.0808</ele>
        <time>2020-01-27 11:27:34</time>
      </trkpt>
      <trkpt lat="45.56732" lon="6.59296">
        <ele>2081.1086</ele>
        <time>2020-01-27 11:27:38</time>
      </trkpt>
      <trkpt lat="45.56733" lon="6.59294">
        <ele>2082.2026</ele>
        <time>2020-01-27 11:27:40</time>
      </trkpt>
      <trkpt lat="45.56734" lon="6.59293">
        <ele>2082.479</ele>
        <time>2020-01-27 11:27:43</time>
      </trkpt>
      <trkpt lat="45.56735" lon="6.59292">
        <ele>2082.3</ele>
        <time>2020-01-27 11:27:45</time>
      </trkpt>
      <trkpt lat="45.56735" lon="6.59291">
        <ele>2082.7202</ele>
        <time>2020-01-27 11:27:47</time>
      </trkpt>
      <trkpt lat="45.56736" lon="6.59291">
        <ele>2081.4612</ele>
        <time>2020-01-27 11:27:52</time>
      </trkpt>
      <trkpt lat="45.56739" lon="6.5929">
        <ele>2082.0479</ele>
        <time>2020-01-27 11:27:56</time>
      </trkpt>
      <trkpt lat="45.5674" lon="6.5929">
        <ele>2082.2488</ele>
        <time>2020-01-27 11:27:57</time>
      </trkpt>
      <trkpt lat="45.5674" lon="6.59291">
        <ele>2083.4624</ele>
        <time>2020-01-27 11:27:58</time>
      </trkpt>
      <trkpt lat="45.5674" lon="6.59291">
        <ele>2083.9727</ele>
        <time>2020-01-27 11:27:59</time>
      </trkpt>
      <trkpt lat="45.56741" lon="6.59291">
        <ele>2084.6213</ele>
        <time>2020-01-27 11:28:00</time>
      </trkpt>
      <trkpt lat="45.56742" lon="6.5929">
        <ele>2085.086</ele>
        <time>2020-01-27 11:28:03</time>
      </trkpt>
      <trkpt lat="45.56743" lon="6.59289">
        <ele>2084.758</ele>
        <time>2020-01-27 11:28:04</time>
      </trkpt>
      <trkpt lat="45.56744" lon="6.59289">
        <ele>2084.5742</ele>
        <time>2020-01-27 11:28:05</time>
      </trkpt>
      <trkpt lat="45.56744" lon="6.59288">
        <ele>2084.2378</ele>
        <time>2020-01-27 11:28:06</time>
      </trkpt>
      <trkpt lat="45.56744" lon="6.59288">
        <ele>2083.0032</ele>
        <time>2020-01-27 11:28:07</time>
      </trkpt>
      <trkpt lat="45.56745" lon="6.59288">
        <ele>2082.2952</ele>
        <time>2020-01-27 11:28:08</time>
      </trkpt>
      <trkpt lat="45.56746" lon="6.59287">
        <ele>2080.6956</ele>
        <time>2020-01-27 11:28:15</time>
      </trkpt>
      <trkpt lat="45.56746" lon="6.59286">
        <ele>2080.4275</ele>
        <time>2020-01-27 11:28:16</time>
      </trkpt>
      <trkpt lat="45.56747" lon="6.59284">
        <ele>2081.1292</ele>
        <time>2020-01-27 11:28:20</time>
      </trkpt>
      <trkpt lat="45.56747" lon="6.59283">
        <ele>2079.4014</ele>
        <time>2020-01-27 11:28:21</time>
      </trkpt>
      <trkpt lat="45.56748" lon="6.59282">
        <ele>2079.9785</ele>
        <time>2020-01-27 11:28:22</time>
      </trkpt>
      <trkpt lat="45.56748" lon="6.5928">
        <ele>2078.7983</ele>
        <time>2020-01-27 11:28:23</time>
      </trkpt>
      <trkpt lat="45.56749" lon="6.5928">
        <ele>2078.8743</ele>
        <time>2020-01-27 11:28:24</time>
      </trkpt>
      <trkpt lat="45.56749" lon="6.59279">
        <ele>2078.9954</ele>
        <time>2020-01-27 11:28:25</time>
      </trkpt>
      <trkpt lat="45.56749" lon="6.59278">
        <ele>2079.5452</ele>
        <time>2020-01-27 11:28:27</time>
      </trkpt>
      <trkpt lat="45.5675" lon="6.59277">
        <ele>2078.953</ele>
        <time>2020-01-27 11:28:28</time>
      </trkpt>
      <trkpt lat="45.5675" lon="6.59277">
        <ele>2079.7122</ele>
        <time>2020-01-27 11:28:29</time>
      </trkpt>
      <trkpt lat="45.5675" lon="6.5928">
        <ele>2082.0964</ele>
        <time>2020-01-27 11:28:34</time>
      </trkpt>
      <trkpt lat="45.56751" lon="6.59281">
        <ele>2082.4827</ele>
        <time>2020-01-27 11:28:35</time>
      </trkpt>
      <trkpt lat="45.56751" lon="6.59282">
        <ele>2082.418</ele>
        <time>2020-01-27 11:28:36</time>
      </trkpt>
      <trkpt lat="45.56751" lon="6.59283">
        <ele>2082.5469</ele>
        <time>2020-01-27 11:28:37</time>
      </trkpt>
      <trkpt lat="45.56751" lon="6.59285">
        <ele>2082.8867</ele>
        <time>2020-01-27 11:28:40</time>
      </trkpt>
      <trkpt lat="45.56751" lon="6.59286">
        <ele>2083.7021</ele>
        <time>2020-01-27 11:28:41</time>
      </trkpt>
      <trkpt lat="45.56755" lon="6.59298">
        <ele>2087.1816</ele>
        <time>2020-01-27 11:28:52</time>
      </trkpt>
      <trkpt lat="45.56755" lon="6.593">
        <ele>2089.7231</ele>
        <time>2020-01-27 11:28:55</time>
      </trkpt>
      <trkpt lat="45.56756" lon="6.59301">
        <ele>2089.8433</ele>
        <time>2020-01-27 11:28:56</time>
      </trkpt>
      <trkpt lat="45.56756" lon="6.59301">
        <ele>2089.2896</ele>
        <time>2020-01-27 11:28:57</time>
      </trkpt>
      <trkpt lat="45.56756" lon="6.59302">
        <ele>2089.8674</ele>
        <time>2020-01-27 11:28:58</time>
      </trkpt>
      <trkpt lat="45.56756" lon="6.59302">
        <ele>2088.734</ele>
        <time>2020-01-27 11:28:59</time>
      </trkpt>
      <trkpt lat="45.56755" lon="6.59305">
        <ele>2088.0403</ele>
        <time>2020-01-27 11:29:02</time>
      </trkpt>
      <trkpt lat="45.56755" lon="6.59305">
        <ele>2087.678</ele>
        <time>2020-01-27 11:29:03</time>
      </trkpt>
      <trkpt lat="45.56756" lon="6.59308">
        <ele>2090.9658</ele>
        <time>2020-01-27 11:29:08</time>
      </trkpt>
      <trkpt lat="45.56756" lon="6.59309">
        <ele>2091.2737</ele>
        <time>2020-01-27 11:29:09</time>
      </trkpt>
      <trkpt lat="45.56757" lon="6.59311">
        <ele>2091.078</ele>
        <time>2020-01-27 11:29:12</time>
      </trkpt>
      <trkpt lat="45.56757" lon="6.59312">
        <ele>2091.7844</ele>
        <time>2020-01-27 11:29:13</time>
      </trkpt>
      <trkpt lat="45.56757" lon="6.59314">
        <ele>2092.1672</ele>
        <time>2020-01-27 11:29:14</time>
      </trkpt>
      <trkpt lat="45.56757" lon="6.59315">
        <ele>2091.808</ele>
        <time>2020-01-27 11:29:15</time>
      </trkpt>
      <trkpt lat="45.56757" lon="6.59316">
        <ele>2092.793</ele>
        <time>2020-01-27 11:29:16</time>
      </trkpt>
      <trkpt lat="45.56758" lon="6.59317">
        <ele>2093.3613</ele>
        <time>2020-01-27 11:29:17</time>
      </trkpt>
      <trkpt lat="45.56758" lon="6.59326">
        <ele>2094.5334</ele>
        <time>2020-01-27 11:29:24</time>
      </trkpt>
      <trkpt lat="45.56758" lon="6.59327">
        <ele>2093.9114</ele>
        <time>2020-01-27 11:29:27</time>
      </trkpt>
      <trkpt lat="45.56758" lon="6.59327">
        <ele>2093.11</ele>
        <time>2020-01-27 11:29:28</time>
      </trkpt>
      <trkpt lat="45.56759" lon="6.59327">
        <ele>2095.087</ele>
        <time>2020-01-27 11:29:29</time>
      </trkpt>
      <trkpt lat="45.56759" lon="6.59327">
        <ele>2094.8696</ele>
        <time>2020-01-27 11:29:30</time>
      </trkpt>
      <trkpt lat="45.5676" lon="6.59326">
        <ele>2095.2996</ele>
        <time>2020-01-27 11:29:32</time>
      </trkpt>
      <trkpt lat="45.56761" lon="6.59326">
        <ele>2095.9456</ele>
        <time>2020-01-27 11:29:33</time>
      </trkpt>
      <trkpt lat="45.56762" lon="6.59325">
        <ele>2096.1663</ele>
        <time>2020-01-27 11:29:34</time>
      </trkpt>
      <trkpt lat="45.56762" lon="6.59324">
        <ele>2096.1902</ele>
        <time>2020-01-27 11:29:35</time>
      </trkpt>
      <trkpt lat="45.56762" lon="6.59324">
        <ele>2096.0225</ele>
        <time>2020-01-27 11:29:36</time>
      </trkpt>
      <trkpt lat="45.56765" lon="6.59321">
        <ele>2095.951</ele>
        <time>2020-01-27 11:29:39</time>
      </trkpt>
      <trkpt lat="45.56765" lon="6.5932">
        <ele>2096.9363</ele>
        <time>2020-01-27 11:29:42</time>
      </trkpt>
      <trkpt lat="45.56765" lon="6.59319">
        <ele>2096.338</ele>
        <time>2020-01-27 11:29:44</time>
      </trkpt>
      <trkpt lat="45.56766" lon="6.5932">
        <ele>2096.3486</ele>
        <time>2020-01-27 11:29:45</time>
      </trkpt>
      <trkpt lat="45.56766" lon="6.5932">
        <ele>2096.0166</ele>
        <time>2020-01-27 11:29:46</time>
      </trkpt>
      <trkpt lat="45.56766" lon="6.5932">
        <ele>2096.661</ele>
        <time>2020-01-27 11:29:48</time>
      </trkpt>
      <trkpt lat="45.56766" lon="6.5932">
        <ele>2096.9778</ele>
        <time>2020-01-27 11:29:49</time>
      </trkpt>
      <trkpt lat="45.56767" lon="6.59321">
        <ele>2096.8035</ele>
        <time>2020-01-27 11:29:50</time>
      </trkpt>
      <trkpt lat="45.56768" lon="6.59321">
        <ele>2096.2627</ele>
        <time>2020-01-27 11:29:51</time>
      </trkpt>
      <trkpt lat="45.56768" lon="6.59321">
        <ele>2098.6902</ele>
        <time>2020-01-27 11:29:54</time>
      </trkpt>
      <trkpt lat="45.56768" lon="6.5932">
        <ele>2098.4746</ele>
        <time>2020-01-27 11:29:55</time>
      </trkpt>
      <trkpt lat="45.56769" lon="6.5932">
        <ele>2098.4722</ele>
        <time>2020-01-27 11:29:56</time>
      </trkpt>
      <trkpt lat="45.56769" lon="6.59321">
        <ele>2099.1997</ele>
        <time>2020-01-27 11:29:59</time>
      </trkpt>
      <trkpt lat="45.56769" lon="6.5932">
        <ele>2099.144</ele>
        <time>2020-01-27 11:30:00</time>
      </trkpt>
      <trkpt lat="45.56769" lon="6.5932">
        <ele>2100.1257</ele>
        <time>2020-01-27 11:30:01</time>
      </trkpt>
      <trkpt lat="45.56769" lon="6.5932">
        <ele>2100.0105</ele>
        <time>2020-01-27 11:30:02</time>
      </trkpt>
      <trkpt lat="45.56768" lon="6.59321">
        <ele>2101.5981</ele>
        <time>2020-01-27 11:30:32</time>
      </trkpt>
      <trkpt lat="45.56768" lon="6.59321">
        <ele>2101.231</ele>
        <time>2020-01-27 11:31:03</time>
      </trkpt>
      <trkpt lat="45.56768" lon="6.59321">
        <ele>2102.387</ele>
        <time>2020-01-27 11:31:35</time>
      </trkpt>
      <trkpt lat="45.56768" lon="6.59321">
        <ele>2102.177</ele>
        <time>2020-01-27 11:31:36</time>
      </trkpt>
      <trkpt lat="45.5677" lon="6.59322">
        <ele>2103.5366</ele>
        <time>2020-01-27 11:32:07</time>
      </trkpt>
      <trkpt lat="45.5677" lon="6.59322">
        <ele>2103.4656</ele>
        <time>2020-01-27 11:32:37</time>
      </trkpt>
      <trkpt lat="45.5677" lon="6.59322">
        <ele>2103.2114</ele>
        <time>2020-01-27 11:33:10</time>
      </trkpt>
      <trkpt lat="45.5677" lon="6.59323">
        <ele>2102.5647</ele>
        <time>2020-01-27 11:33:40</time>
      </trkpt>
      <trkpt lat="45.5677" lon="6.59323">
        <ele>2101.904</ele>
        <time>2020-01-27 11:33:52</time>
      </trkpt>
      <trkpt lat="45.5677" lon="6.59322">
        <ele>2102.1514</ele>
        <time>2020-01-27 11:33:53</time>
      </trkpt>
      <trkpt lat="45.56769" lon="6.59322">
        <ele>2103.0732</ele>
        <time>2020-01-27 11:34:24</time>
      </trkpt>
      <trkpt lat="45.56769" lon="6.59322">
        <ele>2103.0273</ele>
        <time>2020-01-27 11:34:54</time>
      </trkpt>
      <trkpt lat="45.56769" lon="6.59322">
        <ele>2102.9553</ele>
        <time>2020-01-27 11:35:24</time>
      </trkpt>
      <trkpt lat="45.5677" lon="6.59322">
        <ele>2102.9138</ele>
        <time>2020-01-27 11:35:54</time>
      </trkpt>
      <trkpt lat="45.5677" lon="6.59322">
        <ele>2102.9038</ele>
        <time>2020-01-27 11:36:24</time>
      </trkpt>
      <trkpt lat="45.5677" lon="6.59322">
        <ele>2102.9062</ele>
        <time>2020-01-27 11:36:54</time>
      </trkpt>
      <trkpt lat="45.5677" lon="6.59322">
        <ele>2102.8848</ele>
        <time>2020-01-27 11:37:24</time>
      </trkpt>
      <trkpt lat="45.5677" lon="6.59322">
        <ele>2102.8813</ele>
        <time>2020-01-27 11:37:54</time>
      </trkpt>
      <trkpt lat="45.5677" lon="6.59322">
        <ele>2102.8804</ele>
        <time>2020-01-27 11:38:25</time>
      </trkpt>
      <trkpt lat="45.56769" lon="6.59322">
        <ele>2102.895</ele>
        <time>2020-01-27 11:39:05</time>
      </trkpt>
      <trkpt lat="45.5677" lon="6.59322">
        <ele>2102.8845</ele>
        <time>2020-01-27 11:39:35</time>
      </trkpt>
      <trkpt lat="45.5677" lon="6.59322">
        <ele>2102.8938</ele>
        <time>2020-01-27 11:40:07</time>
      </trkpt>
      <trkpt lat="45.5677" lon="6.59322">
        <ele>2102.8723</ele>
        <time>2020-01-27 11:40:39</time>
      </trkpt>
      <trkpt lat="45.5677" lon="6.59322">
        <ele>2102.845</ele>
        <time>2020-01-27 11:41:10</time>
      </trkpt>
      <trkpt lat="45.5677" lon="6.59323">
        <ele>2102.802</ele>
        <time>2020-01-27 11:41:48</time>
      </trkpt>
      <trkpt lat="45.5677" lon="6.59323">
        <ele>2102.7522</ele>
        <time>2020-01-27 11:42:43</time>
      </trkpt>
      <trkpt lat="45.5677" lon="6.59323">
        <ele>2102.593</ele>
        <time>2020-01-27 11:43:26</time>
      </trkpt>
      <trkpt lat="45.5677" lon="6.59323">
        <ele>2102.5237</ele>
        <time>2020-01-27 11:43:58</time>
      </trkpt>
      <trkpt lat="45.5677" lon="6.59323">
        <ele>2102.4807</ele>
        <time>2020-01-27 11:44:40</time>
      </trkpt>
      <trkpt lat="45.56771" lon="6.59322">
        <ele>2102.5374</ele>
        <time>2020-01-27 11:45:13</time>
      </trkpt>
      <trkpt lat="45.56771" lon="6.59321">
        <ele>2101.1753</ele>
        <time>2020-01-27 11:45:15</time>
      </trkpt>
      <trkpt lat="45.56771" lon="6.5932">
        <ele>2100.3564</ele>
        <time>2020-01-27 11:45:16</time>
      </trkpt>
      <trkpt lat="45.56773" lon="6.5932">
        <ele>2099.6208</ele>
        <time>2020-01-27 11:45:23</time>
      </trkpt>
      <trkpt lat="45.56773" lon="6.59319">
        <ele>2098.533</ele>
        <time>2020-01-27 11:45:25</time>
      </trkpt>
      <trkpt lat="45.56774" lon="6.59318">
        <ele>2098.5032</ele>
        <time>2020-01-27 11:45:26</time>
      </trkpt>
      <trkpt lat="45.56775" lon="6.59318">
        <ele>2097.2993</ele>
        <time>2020-01-27 11:45:29</time>
      </trkpt>
      <trkpt lat="45.56776" lon="6.59318">
        <ele>2097.6738</ele>
        <time>2020-01-27 11:45:31</time>
      </trkpt>
      <trkpt lat="45.56786" lon="6.59311">
        <ele>2100.9116</ele>
        <time>2020-01-27 11:45:55</time>
      </trkpt>
      <trkpt lat="45.56787" lon="6.59311">
        <ele>2101.546</ele>
        <time>2020-01-27 11:45:56</time>
      </trkpt>
      <trkpt lat="45.56787" lon="6.59311">
        <ele>2101.1738</ele>
        <time>2020-01-27 11:45:57</time>
      </trkpt>
      <trkpt lat="45.56788" lon="6.5931">
        <ele>2101.9001</ele>
        <time>2020-01-27 11:45:58</time>
      </trkpt>
      <trkpt lat="45.56789" lon="6.5931">
        <ele>2102.869</ele>
        <time>2020-01-27 11:45:59</time>
      </trkpt>
      <trkpt lat="45.56789" lon="6.59309">
        <ele>2102.1797</ele>
        <time>2020-01-27 11:46:00</time>
      </trkpt>
      <trkpt lat="45.56789" lon="6.59306">
        <ele>2101.4475</ele>
        <time>2020-01-27 11:46:07</time>
      </trkpt>
      <trkpt lat="45.56791" lon="6.59304">
        <ele>2099.6672</ele>
        <time>2020-01-27 11:46:10</time>
      </trkpt>
      <trkpt lat="45.56791" lon="6.59304">
        <ele>2099.974</ele>
        <time>2020-01-27 11:46:12</time>
      </trkpt>
      <trkpt lat="45.56793" lon="6.59302">
        <ele>2099.314</ele>
        <time>2020-01-27 11:46:15</time>
      </trkpt>
      <trkpt lat="45.56794" lon="6.59302">
        <ele>2099.8489</ele>
        <time>2020-01-27 11:46:16</time>
      </trkpt>
      <trkpt lat="45.56795" lon="6.59301">
        <ele>2099.3381</ele>
        <time>2020-01-27 11:46:17</time>
      </trkpt>
      <trkpt lat="45.56796" lon="6.59299">
        <ele>2099.0337</ele>
        <time>2020-01-27 11:46:21</time>
      </trkpt>
      <trkpt lat="45.56797" lon="6.59299">
        <ele>2098.2007</ele>
        <time>2020-01-27 11:46:22</time>
      </trkpt>
      <trkpt lat="45.56797" lon="6.59299">
        <ele>2098.167</ele>
        <time>2020-01-27 11:46:24</time>
      </trkpt>
      <trkpt lat="45.56799" lon="6.59299">
        <ele>2098.9407</ele>
        <time>2020-01-27 11:46:26</time>
      </trkpt>
      <trkpt lat="45.568" lon="6.59298">
        <ele>2099.9495</ele>
        <time>2020-01-27 11:46:27</time>
      </trkpt>
      <trkpt lat="45.568" lon="6.59298">
        <ele>2099.0037</ele>
        <time>2020-01-27 11:46:28</time>
      </trkpt>
      <trkpt lat="45.56802" lon="6.59297">
        <ele>2102.4587</ele>
        <time>2020-01-27 11:46:36</time>
      </trkpt>
      <trkpt lat="45.56802" lon="6.59296">
        <ele>2100.7217</ele>
        <time>2020-01-27 11:46:37</time>
      </trkpt>
      <trkpt lat="45.56803" lon="6.59295">
        <ele>2100.599</ele>
        <time>2020-01-27 11:46:39</time>
      </trkpt>
      <trkpt lat="45.56804" lon="6.59295">
        <ele>2100.208</ele>
        <time>2020-01-27 11:46:40</time>
      </trkpt>
      <trkpt lat="45.56804" lon="6.59295">
        <ele>2100.6174</ele>
        <time>2020-01-27 11:46:41</time>
      </trkpt>
      <trkpt lat="45.56805" lon="6.59296">
        <ele>2101.9</ele>
        <time>2020-01-27 11:46:44</time>
      </trkpt>
      <trkpt lat="45.56807" lon="6.59295">
        <ele>2103.1838</ele>
        <time>2020-01-27 11:46:46</time>
      </trkpt>
      <trkpt lat="45.56807" lon="6.59294">
        <ele>2103.1675</ele>
        <time>2020-01-27 11:46:47</time>
      </trkpt>
      <trkpt lat="45.56808" lon="6.59294">
        <ele>2103.8516</ele>
        <time>2020-01-27 11:46:48</time>
      </trkpt>
      <trkpt lat="45.56809" lon="6.59293">
        <ele>2103.2075</ele>
        <time>2020-01-27 11:46:51</time>
      </trkpt>
      <trkpt lat="45.56809" lon="6.59292">
        <ele>2103.064</ele>
        <time>2020-01-27 11:46:52</time>
      </trkpt>
      <trkpt lat="45.5681" lon="6.59291">
        <ele>2103.3633</ele>
        <time>2020-01-27 11:46:53</time>
      </trkpt>
      <trkpt lat="45.5681" lon="6.59291">
        <ele>2103.5032</ele>
        <time>2020-01-27 11:46:54</time>
      </trkpt>
      <trkpt lat="45.56811" lon="6.5929">
        <ele>2104.0742</ele>
        <time>2020-01-27 11:46:55</time>
      </trkpt>
      <trkpt lat="45.56812" lon="6.59289">
        <ele>2104.338</ele>
        <time>2020-01-27 11:46:56</time>
      </trkpt>
      <trkpt lat="45.56813" lon="6.59289">
        <ele>2104.212</ele>
        <time>2020-01-27 11:46:57</time>
      </trkpt>
      <trkpt lat="45.56813" lon="6.59289">
        <ele>2104.7122</ele>
        <time>2020-01-27 11:46:58</time>
      </trkpt>
      <trkpt lat="45.56814" lon="6.59289">
        <ele>2104.887</ele>
        <time>2020-01-27 11:46:59</time>
      </trkpt>
      <trkpt lat="45.56816" lon="6.59288">
        <ele>2105.0493</ele>
        <time>2020-01-27 11:47:02</time>
      </trkpt>
      <trkpt lat="45.56817" lon="6.59288">
        <ele>2105.3855</ele>
        <time>2020-01-27 11:47:03</time>
      </trkpt>
      <trkpt lat="45.56817" lon="6.59287">
        <ele>2105.5833</ele>
        <time>2020-01-27 11:47:04</time>
      </trkpt>
      <trkpt lat="45.56817" lon="6.59287">
        <ele>2105.3875</ele>
        <time>2020-01-27 11:47:05</time>
      </trkpt>
      <trkpt lat="45.56818" lon="6.59287">
        <ele>2105.0251</ele>
        <time>2020-01-27 11:47:06</time>
      </trkpt>
      <trkpt lat="45.56819" lon="6.59287">
        <ele>2105.733</ele>
        <time>2020-01-27 11:47:10</time>
      </trkpt>
      <trkpt lat="45.5682" lon="6.59286">
        <ele>2105.4724</ele>
        <time>2020-01-27 11:47:11</time>
      </trkpt>
      <trkpt lat="45.56821" lon="6.59285">
        <ele>2105.11</ele>
        <time>2020-01-27 11:47:14</time>
      </trkpt>
      <trkpt lat="45.56822" lon="6.59285">
        <ele>2104.2488</ele>
        <time>2020-01-27 11:47:15</time>
      </trkpt>
      <trkpt lat="45.56823" lon="6.59285">
        <ele>2106.1226</ele>
        <time>2020-01-27 11:47:16</time>
      </trkpt>
      <trkpt lat="45.56824" lon="6.59285">
        <ele>2105.5242</ele>
        <time>2020-01-27 11:47:17</time>
      </trkpt>
      <trkpt lat="45.56824" lon="6.59284">
        <ele>2106.0679</ele>
        <time>2020-01-27 11:47:18</time>
      </trkpt>
      <trkpt lat="45.56826" lon="6.59283">
        <ele>2106.459</ele>
        <time>2020-01-27 11:47:20</time>
      </trkpt>
      <trkpt lat="45.56826" lon="6.59283">
        <ele>2106.8523</ele>
        <time>2020-01-27 11:47:21</time>
      </trkpt>
      <trkpt lat="45.56827" lon="6.59281">
        <ele>2105.785</ele>
        <time>2020-01-27 11:47:25</time>
      </trkpt>
      <trkpt lat="45.56828" lon="6.5928">
        <ele>2105.717</ele>
        <time>2020-01-27 11:47:26</time>
      </trkpt>
      <trkpt lat="45.56828" lon="6.59279">
        <ele>2105.5193</ele>
        <time>2020-01-27 11:47:27</time>
      </trkpt>
      <trkpt lat="45.56828" lon="6.59278">
        <ele>2105.623</ele>
        <time>2020-01-27 11:47:28</time>
      </trkpt>
      <trkpt lat="45.56829" lon="6.59277">
        <ele>2107.166</ele>
        <time>2020-01-27 11:47:32</time>
      </trkpt>
      <trkpt lat="45.5683" lon="6.59277">
        <ele>2107.1882</ele>
        <time>2020-01-27 11:47:33</time>
      </trkpt>
      <trkpt lat="45.56831" lon="6.59276">
        <ele>2107.795</ele>
        <time>2020-01-27 11:47:34</time>
      </trkpt>
      <trkpt lat="45.56833" lon="6.59276">
        <ele>2109.381</ele>
        <time>2020-01-27 11:47:37</time>
      </trkpt>
      <trkpt lat="45.56833" lon="6.59276">
        <ele>2110.204</ele>
        <time>2020-01-27 11:47:38</time>
      </trkpt>
      <trkpt lat="45.56834" lon="6.59275">
        <ele>2111.968</ele>
        <time>2020-01-27 11:47:41</time>
      </trkpt>
      <trkpt lat="45.56835" lon="6.59274">
        <ele>2110.5378</ele>
        <time>2020-01-27 11:47:44</time>
      </trkpt>
      <trkpt lat="45.56835" lon="6.59274">
        <ele>2110.576</ele>
        <time>2020-01-27 11:47:45</time>
      </trkpt>
      <trkpt lat="45.56836" lon="6.59274">
        <ele>2111.1543</ele>
        <time>2020-01-27 11:47:46</time>
      </trkpt>
      <trkpt lat="45.56836" lon="6.59274">
        <ele>2111.1804</ele>
        <time>2020-01-27 11:47:47</time>
      </trkpt>
      <trkpt lat="45.56837" lon="6.59274">
        <ele>2111.4841</ele>
        <time>2020-01-27 11:47:48</time>
      </trkpt>
      <trkpt lat="45.56837" lon="6.59273">
        <ele>2111.4998</ele>
        <time>2020-01-27 11:47:49</time>
      </trkpt>
      <trkpt lat="45.56838" lon="6.59273">
        <ele>2110.9858</ele>
        <time>2020-01-27 11:47:50</time>
      </trkpt>
      <trkpt lat="45.56838" lon="6.59273">
        <ele>2111.6375</ele>
        <time>2020-01-27 11:47:51</time>
      </trkpt>
      <trkpt lat="45.56838" lon="6.59273">
        <ele>2111.6934</ele>
        <time>2020-01-27 11:47:52</time>
      </trkpt>
      <trkpt lat="45.56839" lon="6.59273">
        <ele>2112.477</ele>
        <time>2020-01-27 11:47:53</time>
      </trkpt>
      <trkpt lat="45.5684" lon="6.59273">
        <ele>2113.086</ele>
        <time>2020-01-27 11:47:54</time>
      </trkpt>
      <trkpt lat="45.5684" lon="6.59273">
        <ele>2113.9316</ele>
        <time>2020-01-27 11:47:55</time>
      </trkpt>
      <trkpt lat="45.56841" lon="6.59273">
        <ele>2113.6838</ele>
        <time>2020-01-27 11:47:56</time>
      </trkpt>
      <trkpt lat="45.56841" lon="6.59273">
        <ele>2113.9448</ele>
        <time>2020-01-27 11:47:57</time>
      </trkpt>
      <trkpt lat="45.56843" lon="6.59271">
        <ele>2114.164</ele>
        <time>2020-01-27 11:48:01</time>
      </trkpt>
      <trkpt lat="45.56845" lon="6.5927">
        <ele>2114.4019</ele>
        <time>2020-01-27 11:48:04</time>
      </trkpt>
      <trkpt lat="45.56845" lon="6.5927">
        <ele>2113.9443</ele>
        <time>2020-01-27 11:48:05</time>
      </trkpt>
      <trkpt lat="45.56846" lon="6.59269">
        <ele>2114.2998</ele>
        <time>2020-01-27 11:48:06</time>
      </trkpt>
      <trkpt lat="45.56846" lon="6.59269">
        <ele>2114.0364</ele>
        <time>2020-01-27 11:48:07</time>
      </trkpt>
      <trkpt lat="45.56847" lon="6.59267">
        <ele>2114.6658</ele>
        <time>2020-01-27 11:48:13</time>
      </trkpt>
      <trkpt lat="45.56849" lon="6.59266">
        <ele>2113.401</ele>
        <time>2020-01-27 11:48:15</time>
      </trkpt>
      <trkpt lat="45.56849" lon="6.59265">
        <ele>2113.4028</ele>
        <time>2020-01-27 11:48:16</time>
      </trkpt>
      <trkpt lat="45.5685" lon="6.59265">
        <ele>2115.031</ele>
        <time>2020-01-27 11:48:21</time>
      </trkpt>
      <trkpt lat="45.56851" lon="6.5926">
        <ele>2114.8657</ele>
        <time>2020-01-27 11:48:25</time>
      </trkpt>
      <trkpt lat="45.56852" lon="6.59259">
        <ele>2117.007</ele>
        <time>2020-01-27 11:48:32</time>
      </trkpt>
      <trkpt lat="45.56853" lon="6.59259">
        <ele>2117.0488</ele>
        <time>2020-01-27 11:48:33</time>
      </trkpt>
      <trkpt lat="45.56854" lon="6.59259">
        <ele>2118.1511</ele>
        <time>2020-01-27 11:48:34</time>
      </trkpt>
      <trkpt lat="45.56855" lon="6.59258">
        <ele>2118.0525</ele>
        <time>2020-01-27 11:48:35</time>
      </trkpt>
      <trkpt lat="45.56855" lon="6.59257">
        <ele>2117.681</ele>
        <time>2020-01-27 11:48:36</time>
      </trkpt>
      <trkpt lat="45.56856" lon="6.59255">
        <ele>2117.1094</ele>
        <time>2020-01-27 11:48:37</time>
      </trkpt>
      <trkpt lat="45.56857" lon="6.59254">
        <ele>2117.9158</ele>
        <time>2020-01-27 11:48:38</time>
      </trkpt>
      <trkpt lat="45.56858" lon="6.59253">
        <ele>2117.0515</ele>
        <time>2020-01-27 11:48:39</time>
      </trkpt>
      <trkpt lat="45.56859" lon="6.59253">
        <ele>2118.4243</ele>
        <time>2020-01-27 11:48:40</time>
      </trkpt>
      <trkpt lat="45.56859" lon="6.59253">
        <ele>2118.6829</ele>
        <time>2020-01-27 11:48:41</time>
      </trkpt>
      <trkpt lat="45.5686" lon="6.59252">
        <ele>2118.8674</ele>
        <time>2020-01-27 11:48:42</time>
      </trkpt>
      <trkpt lat="45.56861" lon="6.59252">
        <ele>2119.5544</ele>
        <time>2020-01-27 11:48:43</time>
      </trkpt>
      <trkpt lat="45.56862" lon="6.59252">
        <ele>2120.852</ele>
        <time>2020-01-27 11:48:44</time>
      </trkpt>
      <trkpt lat="45.56862" lon="6.59251">
        <ele>2121.4658</ele>
        <time>2020-01-27 11:48:45</time>
      </trkpt>
      <trkpt lat="45.56863" lon="6.59251">
        <ele>2121.7107</ele>
        <time>2020-01-27 11:48:46</time>
      </trkpt>
      <trkpt lat="45.56863" lon="6.5925">
        <ele>2120.9524</ele>
        <time>2020-01-27 11:48:47</time>
      </trkpt>
      <trkpt lat="45.56863" lon="6.5925">
        <ele>2121.7224</ele>
        <time>2020-01-27 11:48:48</time>
      </trkpt>
      <trkpt lat="45.56863" lon="6.5925">
        <ele>2122.116</ele>
        <time>2020-01-27 11:48:49</time>
      </trkpt>
      <trkpt lat="45.56864" lon="6.59249">
        <ele>2122.4387</ele>
        <time>2020-01-27 11:48:50</time>
      </trkpt>
      <trkpt lat="45.56864" lon="6.59248">
        <ele>2121.9724</ele>
        <time>2020-01-27 11:48:51</time>
      </trkpt>
      <trkpt lat="45.56864" lon="6.59247">
        <ele>2122.3403</ele>
        <time>2020-01-27 11:48:52</time>
      </trkpt>
      <trkpt lat="45.56864" lon="6.59247">
        <ele>2122.6482</ele>
        <time>2020-01-27 11:48:53</time>
      </trkpt>
      <trkpt lat="45.56866" lon="6.59247">
        <ele>2124.3108</ele>
        <time>2020-01-27 11:48:56</time>
      </trkpt>
      <trkpt lat="45.56866" lon="6.59247">
        <ele>2124.207</ele>
        <time>2020-01-27 11:48:57</time>
      </trkpt>
      <trkpt lat="45.56867" lon="6.59247">
        <ele>2124.9663</ele>
        <time>2020-01-27 11:48:58</time>
      </trkpt>
      <trkpt lat="45.56868" lon="6.59246">
        <ele>2124.1858</ele>
        <time>2020-01-27 11:49:02</time>
      </trkpt>
      <trkpt lat="45.56869" lon="6.59246">
        <ele>2124.226</ele>
        <time>2020-01-27 11:49:03</time>
      </trkpt>
      <trkpt lat="45.56869" lon="6.59246">
        <ele>2125.027</ele>
        <time>2020-01-27 11:49:05</time>
      </trkpt>
      <trkpt lat="45.56869" lon="6.59246">
        <ele>2125.0674</ele>
        <time>2020-01-27 11:49:06</time>
      </trkpt>
      <trkpt lat="45.5687" lon="6.59245">
        <ele>2125.03</ele>
        <time>2020-01-27 11:49:07</time>
      </trkpt>
      <trkpt lat="45.56871" lon="6.59245">
        <ele>2125.465</ele>
        <time>2020-01-27 11:49:08</time>
      </trkpt>
      <trkpt lat="45.56871" lon="6.59244">
        <ele>2125.4465</ele>
        <time>2020-01-27 11:49:09</time>
      </trkpt>
      <trkpt lat="45.56872" lon="6.59244">
        <ele>2124.773</ele>
        <time>2020-01-27 11:49:10</time>
      </trkpt>
      <trkpt lat="45.56873" lon="6.59243">
        <ele>2125.8643</ele>
        <time>2020-01-27 11:49:13</time>
      </trkpt>
      <trkpt lat="45.56873" lon="6.59243">
        <ele>2126.091</ele>
        <time>2020-01-27 11:49:14</time>
      </trkpt>
      <trkpt lat="45.56874" lon="6.59242">
        <ele>2125.3862</ele>
        <time>2020-01-27 11:49:16</time>
      </trkpt>
      <trkpt lat="45.56874" lon="6.59242">
        <ele>2124.5945</ele>
        <time>2020-01-27 11:49:17</time>
      </trkpt>
      <trkpt lat="45.56876" lon="6.59242">
        <ele>2126.0674</ele>
        <time>2020-01-27 11:49:22</time>
      </trkpt>
      <trkpt lat="45.56876" lon="6.59241">
        <ele>2126.5095</ele>
        <time>2020-01-27 11:49:23</time>
      </trkpt>
      <trkpt lat="45.56877" lon="6.5924">
        <ele>2127.7126</ele>
        <time>2020-01-27 11:49:24</time>
      </trkpt>
      <trkpt lat="45.56877" lon="6.5924">
        <ele>2127.9238</ele>
        <time>2020-01-27 11:49:26</time>
      </trkpt>
      <trkpt lat="45.56878" lon="6.5924">
        <ele>2129.2341</ele>
        <time>2020-01-27 11:49:30</time>
      </trkpt>
      <trkpt lat="45.56878" lon="6.5924">
        <ele>2129.3965</ele>
        <time>2020-01-27 11:49:31</time>
      </trkpt>
      <trkpt lat="45.5688" lon="6.59239">
        <ele>2129.7795</ele>
        <time>2020-01-27 11:49:37</time>
      </trkpt>
      <trkpt lat="45.56881" lon="6.59239">
        <ele>2129.6892</ele>
        <time>2020-01-27 11:49:38</time>
      </trkpt>
      <trkpt lat="45.56881" lon="6.59238">
        <ele>2129.1628</ele>
        <time>2020-01-27 11:49:39</time>
      </trkpt>
      <trkpt lat="45.56882" lon="6.59238">
        <ele>2129.2407</ele>
        <time>2020-01-27 11:49:40</time>
      </trkpt>
      <trkpt lat="45.56883" lon="6.59237">
        <ele>2129.879</ele>
        <time>2020-01-27 11:49:43</time>
      </trkpt>
      <trkpt lat="45.56883" lon="6.59236">
        <ele>2128.8833</ele>
        <time>2020-01-27 11:49:45</time>
      </trkpt>
      <trkpt lat="45.56884" lon="6.59236">
        <ele>2129.6704</ele>
        <time>2020-01-27 11:49:50</time>
      </trkpt>
      <trkpt lat="45.56884" lon="6.59235">
        <ele>2129.6282</ele>
        <time>2020-01-27 11:49:51</time>
      </trkpt>
      <trkpt lat="45.56884" lon="6.59235">
        <ele>2128.636</ele>
        <time>2020-01-27 11:49:52</time>
      </trkpt>
      <trkpt lat="45.56884" lon="6.59235">
        <ele>2128.3542</ele>
        <time>2020-01-27 11:49:53</time>
      </trkpt>
      <trkpt lat="45.56893" lon="6.59226">
        <ele>2128.371</ele>
        <time>2020-01-27 11:50:05</time>
      </trkpt>
      <trkpt lat="45.56894" lon="6.59225">
        <ele>2128.415</ele>
        <time>2020-01-27 11:50:06</time>
      </trkpt>
      <trkpt lat="45.56895" lon="6.59224">
        <ele>2128.2688</ele>
        <time>2020-01-27 11:50:07</time>
      </trkpt>
      <trkpt lat="45.56896" lon="6.59224">
        <ele>2129.16</ele>
        <time>2020-01-27 11:50:08</time>
      </trkpt>
      <trkpt lat="45.56897" lon="6.59223">
        <ele>2130.8152</ele>
        <time>2020-01-27 11:50:11</time>
      </trkpt>
      <trkpt lat="45.56897" lon="6.59223">
        <ele>2130.8354</ele>
        <time>2020-01-27 11:50:12</time>
      </trkpt>
      <trkpt lat="45.56898" lon="6.59223">
        <ele>2130.9028</ele>
        <time>2020-01-27 11:50:13</time>
      </trkpt>
      <trkpt lat="45.56898" lon="6.59224">
        <ele>2132.0222</ele>
        <time>2020-01-27 11:50:16</time>
      </trkpt>
      <trkpt lat="45.56898" lon="6.59225">
        <ele>2132.9585</ele>
        <time>2020-01-27 11:50:18</time>
      </trkpt>
      <trkpt lat="45.56898" lon="6.59226">
        <ele>2133.9265</ele>
        <time>2020-01-27 11:50:19</time>
      </trkpt>
      <trkpt lat="45.56898" lon="6.59226">
        <ele>2134.5505</ele>
        <time>2020-01-27 11:50:20</time>
      </trkpt>
      <trkpt lat="45.56898" lon="6.59227">
        <ele>2135.4248</ele>
        <time>2020-01-27 11:50:21</time>
      </trkpt>
      <trkpt lat="45.56898" lon="6.59228">
        <ele>2134.6716</ele>
        <time>2020-01-27 11:50:22</time>
      </trkpt>
      <trkpt lat="45.56899" lon="6.5923">
        <ele>2136.777</ele>
        <time>2020-01-27 11:50:24</time>
      </trkpt>
      <trkpt lat="45.569" lon="6.5923">
        <ele>2136.611</ele>
        <time>2020-01-27 11:50:25</time>
      </trkpt>
      <trkpt lat="45.569" lon="6.59231">
        <ele>2137.0422</ele>
        <time>2020-01-27 11:50:28</time>
      </trkpt>
      <trkpt lat="45.56901" lon="6.59232">
        <ele>2136.1355</ele>
        <time>2020-01-27 11:50:29</time>
      </trkpt>
      <trkpt lat="45.56902" lon="6.59232">
        <ele>2135.662</ele>
        <time>2020-01-27 11:50:31</time>
      </trkpt>
      <trkpt lat="45.56902" lon="6.59232">
        <ele>2136.2263</ele>
        <time>2020-01-27 11:50:32</time>
      </trkpt>
      <trkpt lat="45.56902" lon="6.59233">
        <ele>2135.6924</ele>
        <time>2020-01-27 11:50:33</time>
      </trkpt>
      <trkpt lat="45.56902" lon="6.59233">
        <ele>2134.2817</ele>
        <time>2020-01-27 11:50:34</time>
      </trkpt>
      <trkpt lat="45.56902" lon="6.59233">
        <ele>2134.0688</ele>
        <time>2020-01-27 11:50:37</time>
      </trkpt>
      <trkpt lat="45.56901" lon="6.59234">
        <ele>2134.643</ele>
        <time>2020-01-27 11:50:38</time>
      </trkpt>
      <trkpt lat="45.56901" lon="6.59234">
        <ele>2134.0535</ele>
        <time>2020-01-27 11:50:40</time>
      </trkpt>
      <trkpt lat="45.56901" lon="6.59235">
        <ele>2133.9246</ele>
        <time>2020-01-27 11:50:41</time>
      </trkpt>
      <trkpt lat="45.56901" lon="6.59236">
        <ele>2134.694</ele>
        <time>2020-01-27 11:50:42</time>
      </trkpt>
      <trkpt lat="45.56901" lon="6.59237">
        <ele>2133.7246</ele>
        <time>2020-01-27 11:50:43</time>
      </trkpt>
      <trkpt lat="45.56902" lon="6.59237">
        <ele>2134.0364</ele>
        <time>2020-01-27 11:50:44</time>
      </trkpt>
      <trkpt lat="45.56902" lon="6.59238">
        <ele>2133.3896</ele>
        <time>2020-01-27 11:50:45</time>
      </trkpt>
      <trkpt lat="45.56903" lon="6.59239">
        <ele>2134.7932</ele>
        <time>2020-01-27 11:50:49</time>
      </trkpt>
      <trkpt lat="45.56903" lon="6.5924">
        <ele>2135.8767</ele>
        <time>2020-01-27 11:50:50</time>
      </trkpt>
      <trkpt lat="45.56904" lon="6.59241">
        <ele>2137.7107</ele>
        <time>2020-01-27 11:50:51</time>
      </trkpt>
      <trkpt lat="45.56904" lon="6.59242">
        <ele>2137.7258</ele>
        <time>2020-01-27 11:50:52</time>
      </trkpt>
      <trkpt lat="45.56906" lon="6.59244">
        <ele>2139.4307</ele>
        <time>2020-01-27 11:50:56</time>
      </trkpt>
      <trkpt lat="45.56906" lon="6.59244">
        <ele>2139.938</ele>
        <time>2020-01-27 11:50:57</time>
      </trkpt>
      <trkpt lat="45.56906" lon="6.59245">
        <ele>2139.2585</ele>
        <time>2020-01-27 11:50:58</time>
      </trkpt>
      <trkpt lat="45.56906" lon="6.59246">
        <ele>2139.8801</ele>
        <time>2020-01-27 11:50:59</time>
      </trkpt>
      <trkpt lat="45.56906" lon="6.59247">
        <ele>2141.0083</ele>
        <time>2020-01-27 11:51:02</time>
      </trkpt>
      <trkpt lat="45.56907" lon="6.59248">
        <ele>2140.862</ele>
        <time>2020-01-27 11:51:04</time>
      </trkpt>
      <trkpt lat="45.56907" lon="6.59249">
        <ele>2140.9744</ele>
        <time>2020-01-27 11:51:05</time>
      </trkpt>
      <trkpt lat="45.56908" lon="6.59251">
        <ele>2144.9338</ele>
        <time>2020-01-27 11:51:08</time>
      </trkpt>
      <trkpt lat="45.56908" lon="6.59252">
        <ele>2145.8296</ele>
        <time>2020-01-27 11:51:09</time>
      </trkpt>
      <trkpt lat="45.56908" lon="6.59252">
        <ele>2145.565</ele>
        <time>2020-01-27 11:51:10</time>
      </trkpt>
      <trkpt lat="45.56908" lon="6.59252">
        <ele>2146.0605</ele>
        <time>2020-01-27 11:51:11</time>
      </trkpt>
      <trkpt lat="45.56909" lon="6.59255">
        <ele>2146.3901</ele>
        <time>2020-01-27 11:51:15</time>
      </trkpt>
      <trkpt lat="45.56909" lon="6.59256">
        <ele>2146.7202</ele>
        <time>2020-01-27 11:51:16</time>
      </trkpt>
      <trkpt lat="45.56909" lon="6.59257">
        <ele>2147.1064</ele>
        <time>2020-01-27 11:51:17</time>
      </trkpt>
      <trkpt lat="45.56909" lon="6.5926">
        <ele>2147.676</ele>
        <time>2020-01-27 11:51:20</time>
      </trkpt>
      <trkpt lat="45.56909" lon="6.59261">
        <ele>2148.3093</ele>
        <time>2020-01-27 11:51:21</time>
      </trkpt>
      <trkpt lat="45.5691" lon="6.59261">
        <ele>2150.01</ele>
        <time>2020-01-27 11:51:22</time>
      </trkpt>
      <trkpt lat="45.5691" lon="6.59262">
        <ele>2150.0823</ele>
        <time>2020-01-27 11:51:23</time>
      </trkpt>
      <trkpt lat="45.5691" lon="6.59263">
        <ele>2150.615</ele>
        <time>2020-01-27 11:51:24</time>
      </trkpt>
      <trkpt lat="45.5691" lon="6.59264">
        <ele>2151.0322</ele>
        <time>2020-01-27 11:51:25</time>
      </trkpt>
      <trkpt lat="45.5691" lon="6.59265">
        <ele>2151.3145</ele>
        <time>2020-01-27 11:51:27</time>
      </trkpt>
      <trkpt lat="45.5691" lon="6.59266">
        <ele>2150.8633</ele>
        <time>2020-01-27 11:51:28</time>
      </trkpt>
      <trkpt lat="45.5691" lon="6.59266">
        <ele>2149.566</ele>
        <time>2020-01-27 11:51:29</time>
      </trkpt>
      <trkpt lat="45.5691" lon="6.59267">
        <ele>2150.1138</ele>
        <time>2020-01-27 11:51:30</time>
      </trkpt>
      <trkpt lat="45.5691" lon="6.59267">
        <ele>2149.5608</ele>
        <time>2020-01-27 11:51:31</time>
      </trkpt>
      <trkpt lat="45.56911" lon="6.59267">
        <ele>2150.13</ele>
        <time>2020-01-27 11:51:33</time>
      </trkpt>
      <trkpt lat="45.56911" lon="6.59267">
        <ele>2150.571</ele>
        <time>2020-01-27 11:51:34</time>
      </trkpt>
      <trkpt lat="45.56912" lon="6.59267">
        <ele>2150.5022</ele>
        <time>2020-01-27 11:51:37</time>
      </trkpt>
      <trkpt lat="45.56917" lon="6.59265">
        <ele>2152.2002</ele>
        <time>2020-01-27 11:51:45</time>
      </trkpt>
      <trkpt lat="45.56918" lon="6.59264">
        <ele>2152.5764</ele>
        <time>2020-01-27 11:51:46</time>
      </trkpt>
      <trkpt lat="45.56919" lon="6.59264">
        <ele>2153.9976</ele>
        <time>2020-01-27 11:51:48</time>
      </trkpt>
      <trkpt lat="45.56921" lon="6.59264">
        <ele>2152.8384</ele>
        <time>2020-01-27 11:51:52</time>
      </trkpt>
      <trkpt lat="45.56923" lon="6.59263">
        <ele>2150.82</ele>
        <time>2020-01-27 11:51:56</time>
      </trkpt>
      <trkpt lat="45.56924" lon="6.59264">
        <ele>2151.2222</ele>
        <time>2020-01-27 11:51:59</time>
      </trkpt>
      <trkpt lat="45.56926" lon="6.59263">
        <ele>2150.5515</ele>
        <time>2020-01-27 11:52:02</time>
      </trkpt>
      <trkpt lat="45.56927" lon="6.59263">
        <ele>2150.68</ele>
        <time>2020-01-27 11:52:03</time>
      </trkpt>
      <trkpt lat="45.56928" lon="6.59263">
        <ele>2150.8245</ele>
        <time>2020-01-27 11:52:04</time>
      </trkpt>
      <trkpt lat="45.56928" lon="6.59262">
        <ele>2150.6685</ele>
        <time>2020-01-27 11:52:05</time>
      </trkpt>
      <trkpt lat="45.56929" lon="6.59261">
        <ele>2149.9656</ele>
        <time>2020-01-27 11:52:06</time>
      </trkpt>
      <trkpt lat="45.56929" lon="6.59261">
        <ele>2149.7073</ele>
        <time>2020-01-27 11:52:07</time>
      </trkpt>
      <trkpt lat="45.56929" lon="6.5926">
        <ele>2149.632</ele>
        <time>2020-01-27 11:52:08</time>
      </trkpt>
      <trkpt lat="45.5693" lon="6.59259">
        <ele>2148.937</ele>
        <time>2020-01-27 11:52:11</time>
      </trkpt>
      <trkpt lat="45.5693" lon="6.59259">
        <ele>2149.5554</ele>
        <time>2020-01-27 11:52:13</time>
      </trkpt>
      <trkpt lat="45.56931" lon="6.59258">
        <ele>2148.8428</ele>
        <time>2020-01-27 11:52:15</time>
      </trkpt>
      <trkpt lat="45.56932" lon="6.59258">
        <ele>2148.9822</ele>
        <time>2020-01-27 11:52:17</time>
      </trkpt>
      <trkpt lat="45.56933" lon="6.59257">
        <ele>2150.4138</ele>
        <time>2020-01-27 11:52:18</time>
      </trkpt>
      <trkpt lat="45.56933" lon="6.59256">
        <ele>2150.6653</ele>
        <time>2020-01-27 11:52:19</time>
      </trkpt>
      <trkpt lat="45.56934" lon="6.59255">
        <ele>2151.1763</ele>
        <time>2020-01-27 11:52:20</time>
      </trkpt>
      <trkpt lat="45.56934" lon="6.59254">
        <ele>2151.908</ele>
        <time>2020-01-27 11:52:21</time>
      </trkpt>
      <trkpt lat="45.56935" lon="6.59253">
        <ele>2152.361</ele>
        <time>2020-01-27 11:52:22</time>
      </trkpt>
      <trkpt lat="45.56935" lon="6.59253">
        <ele>2152.3147</ele>
        <time>2020-01-27 11:52:23</time>
      </trkpt>
      <trkpt lat="45.56935" lon="6.59252">
        <ele>2152.3171</ele>
        <time>2020-01-27 11:52:24</time>
      </trkpt>
      <trkpt lat="45.56935" lon="6.59252">
        <ele>2152.4727</ele>
        <time>2020-01-27 11:52:25</time>
      </trkpt>
      <trkpt lat="45.56936" lon="6.59251">
        <ele>2153.4497</ele>
        <time>2020-01-27 11:52:31</time>
      </trkpt>
      <trkpt lat="45.56936" lon="6.5925">
        <ele>2153.2927</ele>
        <time>2020-01-27 11:52:32</time>
      </trkpt>
      <trkpt lat="45.56936" lon="6.5925">
        <ele>2153.0388</ele>
        <time>2020-01-27 11:52:33</time>
      </trkpt>
      <trkpt lat="45.56936" lon="6.5925">
        <ele>2153.1252</ele>
        <time>2020-01-27 11:52:34</time>
      </trkpt>
      <trkpt lat="45.56936" lon="6.59251">
        <ele>2153.4058</ele>
        <time>2020-01-27 11:52:36</time>
      </trkpt>
      <trkpt lat="45.56936" lon="6.59252">
        <ele>2153.1982</ele>
        <time>2020-01-27 11:52:37</time>
      </trkpt>
      <trkpt lat="45.56936" lon="6.59253">
        <ele>2153.2668</ele>
        <time>2020-01-27 11:52:38</time>
      </trkpt>
      <trkpt lat="45.56937" lon="6.59254">
        <ele>2153.535</ele>
        <time>2020-01-27 11:52:39</time>
      </trkpt>
      <trkpt lat="45.56937" lon="6.59256">
        <ele>2154.5996</ele>
        <time>2020-01-27 11:52:41</time>
      </trkpt>
      <trkpt lat="45.56937" lon="6.59257">
        <ele>2155.3591</ele>
        <time>2020-01-27 11:52:42</time>
      </trkpt>
      <trkpt lat="45.56937" lon="6.59258">
        <ele>2156.132</ele>
        <time>2020-01-27 11:52:43</time>
      </trkpt>
      <trkpt lat="45.56938" lon="6.5926">
        <ele>2156.831</ele>
        <time>2020-01-27 11:52:45</time>
      </trkpt>
      <trkpt lat="45.56938" lon="6.5926">
        <ele>2156.958</ele>
        <time>2020-01-27 11:52:46</time>
      </trkpt>
      <trkpt lat="45.56938" lon="6.59261">
        <ele>2156.7883</ele>
        <time>2020-01-27 11:52:47</time>
      </trkpt>
      <trkpt lat="45.56938" lon="6.59261">
        <ele>2156.239</ele>
        <time>2020-01-27 11:52:48</time>
      </trkpt>
      <trkpt lat="45.56938" lon="6.59262">
        <ele>2156.1326</ele>
        <time>2020-01-27 11:52:49</time>
      </trkpt>
      <trkpt lat="45.56938" lon="6.59263">
        <ele>2156.599</ele>
        <time>2020-01-27 11:52:50</time>
      </trkpt>
      <trkpt lat="45.56938" lon="6.59263">
        <ele>2155.4863</ele>
        <time>2020-01-27 11:52:51</time>
      </trkpt>
      <trkpt lat="45.56938" lon="6.59264">
        <ele>2155.4143</ele>
        <time>2020-01-27 11:52:52</time>
      </trkpt>
      <trkpt lat="45.56938" lon="6.59265">
        <ele>2155.4172</ele>
        <time>2020-01-27 11:52:53</time>
      </trkpt>
      <trkpt lat="45.56939" lon="6.59267">
        <ele>2158.0664</ele>
        <time>2020-01-27 11:52:56</time>
      </trkpt>
      <trkpt lat="45.56939" lon="6.59268">
        <ele>2157.9111</ele>
        <time>2020-01-27 11:52:57</time>
      </trkpt>
      <trkpt lat="45.56941" lon="6.59276">
        <ele>2158.687</ele>
        <time>2020-01-27 11:53:09</time>
      </trkpt>
      <trkpt lat="45.56941" lon="6.59277">
        <ele>2159.1511</ele>
        <time>2020-01-27 11:53:10</time>
      </trkpt>
      <trkpt lat="45.5694" lon="6.59277">
        <ele>2158.9644</ele>
        <time>2020-01-27 11:53:11</time>
      </trkpt>
      <trkpt lat="45.5694" lon="6.59278">
        <ele>2159.9429</ele>
        <time>2020-01-27 11:53:12</time>
      </trkpt>
      <trkpt lat="45.5694" lon="6.59278">
        <ele>2160.4995</ele>
        <time>2020-01-27 11:53:13</time>
      </trkpt>
      <trkpt lat="45.56941" lon="6.59279">
        <ele>2160.883</ele>
        <time>2020-01-27 11:53:14</time>
      </trkpt>
      <trkpt lat="45.56943" lon="6.59278">
        <ele>2161.4395</ele>
        <time>2020-01-27 11:53:17</time>
      </trkpt>
      <trkpt lat="45.56944" lon="6.59277">
        <ele>2162.6855</ele>
        <time>2020-01-27 11:53:19</time>
      </trkpt>
      <trkpt lat="45.56944" lon="6.59277">
        <ele>2162.3171</ele>
        <time>2020-01-27 11:53:20</time>
      </trkpt>
      <trkpt lat="45.56945" lon="6.59277">
        <ele>2161.9714</ele>
        <time>2020-01-27 11:53:21</time>
      </trkpt>
      <trkpt lat="45.56946" lon="6.59276">
        <ele>2163.4548</ele>
        <time>2020-01-27 11:53:22</time>
      </trkpt>
      <trkpt lat="45.56946" lon="6.59276">
        <ele>2163.7163</ele>
        <time>2020-01-27 11:53:23</time>
      </trkpt>
      <trkpt lat="45.56947" lon="6.59276">
        <ele>2163.96</ele>
        <time>2020-01-27 11:53:24</time>
      </trkpt>
      <trkpt lat="45.56947" lon="6.59276">
        <ele>2163.5498</ele>
        <time>2020-01-27 11:53:25</time>
      </trkpt>
      <trkpt lat="45.56948" lon="6.59275">
        <ele>2162.9675</ele>
        <time>2020-01-27 11:53:26</time>
      </trkpt>
      <trkpt lat="45.56948" lon="6.59275">
        <ele>2162.4712</ele>
        <time>2020-01-27 11:53:27</time>
      </trkpt>
      <trkpt lat="45.56948" lon="6.59274">
        <ele>2162.3274</ele>
        <time>2020-01-27 11:53:28</time>
      </trkpt>
      <trkpt lat="45.56949" lon="6.59274">
        <ele>2162.013</ele>
        <time>2020-01-27 11:53:29</time>
      </trkpt>
      <trkpt lat="45.56949" lon="6.59273">
        <ele>2161.7207</ele>
        <time>2020-01-27 11:53:30</time>
      </trkpt>
      <trkpt lat="45.56951" lon="6.59272">
        <ele>2161.1108</ele>
        <time>2020-01-27 11:53:33</time>
      </trkpt>
      <trkpt lat="45.56951" lon="6.59271">
        <ele>2161.068</ele>
        <time>2020-01-27 11:53:34</time>
      </trkpt>
      <trkpt lat="45.56954" lon="6.5927">
        <ele>2160.9897</ele>
        <time>2020-01-27 11:53:37</time>
      </trkpt>
      <trkpt lat="45.56954" lon="6.59269">
        <ele>2161.3977</ele>
        <time>2020-01-27 11:53:38</time>
      </trkpt>
      <trkpt lat="45.56955" lon="6.59269">
        <ele>2161.2156</ele>
        <time>2020-01-27 11:53:39</time>
      </trkpt>
      <trkpt lat="45.56955" lon="6.59269">
        <ele>2161.046</ele>
        <time>2020-01-27 11:53:40</time>
      </trkpt>
      <trkpt lat="45.56956" lon="6.59268">
        <ele>2160.4456</ele>
        <time>2020-01-27 11:53:44</time>
      </trkpt>
      <trkpt lat="45.56956" lon="6.59268">
        <ele>2160.335</ele>
        <time>2020-01-27 11:53:45</time>
      </trkpt>
      <trkpt lat="45.56959" lon="6.59265">
        <ele>2161.2917</ele>
        <time>2020-01-27 11:53:51</time>
      </trkpt>
      <trkpt lat="45.5696" lon="6.59265">
        <ele>2161.5771</ele>
        <time>2020-01-27 11:53:52</time>
      </trkpt>
      <trkpt lat="45.5696" lon="6.59265">
        <ele>2162.4678</ele>
        <time>2020-01-27 11:53:53</time>
      </trkpt>
      <trkpt lat="45.56962" lon="6.59264">
        <ele>2162.4766</ele>
        <time>2020-01-27 11:53:57</time>
      </trkpt>
      <trkpt lat="45.56963" lon="6.59263">
        <ele>2162.6472</ele>
        <time>2020-01-27 11:54:01</time>
      </trkpt>
      <trkpt lat="45.56964" lon="6.59262">
        <ele>2161.9443</ele>
        <time>2020-01-27 11:54:04</time>
      </trkpt>
      <trkpt lat="45.56965" lon="6.59262">
        <ele>2161.4146</ele>
        <time>2020-01-27 11:54:05</time>
      </trkpt>
      <trkpt lat="45.56967" lon="6.59262">
        <ele>2162.0566</ele>
        <time>2020-01-27 11:54:08</time>
      </trkpt>
      <trkpt lat="45.56967" lon="6.59263">
        <ele>2163.02</ele>
        <time>2020-01-27 11:54:09</time>
      </trkpt>
      <trkpt lat="45.56968" lon="6.59264">
        <ele>2163.8472</ele>
        <time>2020-01-27 11:54:10</time>
      </trkpt>
      <trkpt lat="45.56969" lon="6.59264">
        <ele>2163.626</ele>
        <time>2020-01-27 11:54:11</time>
      </trkpt>
      <trkpt lat="45.56969" lon="6.59267">
        <ele>2162.9082</ele>
        <time>2020-01-27 11:54:14</time>
      </trkpt>
      <trkpt lat="45.56969" lon="6.59267">
        <ele>2163.3892</ele>
        <time>2020-01-27 11:54:17</time>
      </trkpt>
      <trkpt lat="45.5697" lon="6.59268">
        <ele>2164.1384</ele>
        <time>2020-01-27 11:54:19</time>
      </trkpt>
      <trkpt lat="45.56971" lon="6.59269">
        <ele>2165.5488</ele>
        <time>2020-01-27 11:54:20</time>
      </trkpt>
      <trkpt lat="45.56971" lon="6.59269">
        <ele>2164.6414</ele>
        <time>2020-01-27 11:54:21</time>
      </trkpt>
      <trkpt lat="45.56971" lon="6.5927">
        <ele>2165.6208</ele>
        <time>2020-01-27 11:54:22</time>
      </trkpt>
      <trkpt lat="45.56972" lon="6.59272">
        <ele>2165.2925</ele>
        <time>2020-01-27 11:54:23</time>
      </trkpt>
      <trkpt lat="45.56972" lon="6.59273">
        <ele>2166.017</ele>
        <time>2020-01-27 11:54:24</time>
      </trkpt>
      <trkpt lat="45.56973" lon="6.59276">
        <ele>2166.6953</ele>
        <time>2020-01-27 11:54:26</time>
      </trkpt>
      <trkpt lat="45.56973" lon="6.59277">
        <ele>2166.9836</ele>
        <time>2020-01-27 11:54:27</time>
      </trkpt>
      <trkpt lat="45.56973" lon="6.59278">
        <ele>2167.3687</ele>
        <time>2020-01-27 11:54:28</time>
      </trkpt>
      <trkpt lat="45.56974" lon="6.59283">
        <ele>2170.6223</ele>
        <time>2020-01-27 11:54:33</time>
      </trkpt>
      <trkpt lat="45.56974" lon="6.59283">
        <ele>2170.385</ele>
        <time>2020-01-27 11:54:34</time>
      </trkpt>
      <trkpt lat="45.56974" lon="6.59283">
        <ele>2170.9243</ele>
        <time>2020-01-27 11:54:35</time>
      </trkpt>
      <trkpt lat="45.56974" lon="6.59284">
        <ele>2171.3447</ele>
        <time>2020-01-27 11:54:36</time>
      </trkpt>
      <trkpt lat="45.56974" lon="6.59285">
        <ele>2171.92</ele>
        <time>2020-01-27 11:54:37</time>
      </trkpt>
      <trkpt lat="45.56974" lon="6.59285">
        <ele>2172.2952</ele>
        <time>2020-01-27 11:54:38</time>
      </trkpt>
      <trkpt lat="45.56976" lon="6.59291">
        <ele>2172.085</ele>
        <time>2020-01-27 11:54:45</time>
      </trkpt>
      <trkpt lat="45.56976" lon="6.59293">
        <ele>2174.0776</ele>
        <time>2020-01-27 11:54:46</time>
      </trkpt>
      <trkpt lat="45.56976" lon="6.59294">
        <ele>2172.8472</ele>
        <time>2020-01-27 11:54:47</time>
      </trkpt>
      <trkpt lat="45.56976" lon="6.59294">
        <ele>2172.7576</ele>
        <time>2020-01-27 11:54:48</time>
      </trkpt>
      <trkpt lat="45.56976" lon="6.59295">
        <ele>2172.546</ele>
        <time>2020-01-27 11:54:49</time>
      </trkpt>
      <trkpt lat="45.56975" lon="6.59296">
        <ele>2171.8018</ele>
        <time>2020-01-27 11:54:50</time>
      </trkpt>
      <trkpt lat="45.56975" lon="6.59297">
        <ele>2171.9668</ele>
        <time>2020-01-27 11:54:51</time>
      </trkpt>
      <trkpt lat="45.56975" lon="6.59298">
        <ele>2172.758</ele>
        <time>2020-01-27 11:54:52</time>
      </trkpt>
      <trkpt lat="45.56976" lon="6.59299">
        <ele>2173.6768</ele>
        <time>2020-01-27 11:54:53</time>
      </trkpt>
      <trkpt lat="45.56976" lon="6.593">
        <ele>2174.1184</ele>
        <time>2020-01-27 11:54:54</time>
      </trkpt>
      <trkpt lat="45.56976" lon="6.59301">
        <ele>2173.311</ele>
        <time>2020-01-27 11:54:56</time>
      </trkpt>
      <trkpt lat="45.56976" lon="6.59301">
        <ele>2173.574</ele>
        <time>2020-01-27 11:54:57</time>
      </trkpt>
      <trkpt lat="45.56977" lon="6.59305">
        <ele>2175.1013</ele>
        <time>2020-01-27 11:55:04</time>
      </trkpt>
      <trkpt lat="45.56977" lon="6.59306">
        <ele>2174.9248</ele>
        <time>2020-01-27 11:55:06</time>
      </trkpt>
      <trkpt lat="45.56977" lon="6.59309">
        <ele>2174.3892</ele>
        <time>2020-01-27 11:55:09</time>
      </trkpt>
      <trkpt lat="45.56977" lon="6.5931">
        <ele>2175.4548</ele>
        <time>2020-01-27 11:55:13</time>
      </trkpt>
      <trkpt lat="45.56978" lon="6.59313">
        <ele>2175.7473</ele>
        <time>2020-01-27 11:55:15</time>
      </trkpt>
      <trkpt lat="45.56978" lon="6.59315">
        <ele>2176.2646</ele>
        <time>2020-01-27 11:55:18</time>
      </trkpt>
      <trkpt lat="45.56978" lon="6.59316">
        <ele>2177.6714</ele>
        <time>2020-01-27 11:55:19</time>
      </trkpt>
      <trkpt lat="45.56978" lon="6.59316">
        <ele>2178.145</ele>
        <time>2020-01-27 11:55:20</time>
      </trkpt>
      <trkpt lat="45.56978" lon="6.59317">
        <ele>2178.2532</ele>
        <time>2020-01-27 11:55:21</time>
      </trkpt>
      <trkpt lat="45.56979" lon="6.59318">
        <ele>2177.9395</ele>
        <time>2020-01-27 11:55:22</time>
      </trkpt>
      <trkpt lat="45.56979" lon="6.59319">
        <ele>2178.079</ele>
        <time>2020-01-27 11:55:23</time>
      </trkpt>
      <trkpt lat="45.56983" lon="6.59327">
        <ele>2180.0051</ele>
        <time>2020-01-27 11:55:31</time>
      </trkpt>
      <trkpt lat="45.56983" lon="6.59327">
        <ele>2180.083</ele>
        <time>2020-01-27 11:55:32</time>
      </trkpt>
      <trkpt lat="45.56986" lon="6.59331">
        <ele>2178.5269</ele>
        <time>2020-01-27 11:55:36</time>
      </trkpt>
      <trkpt lat="45.56986" lon="6.59332">
        <ele>2177.4912</ele>
        <time>2020-01-27 11:55:37</time>
      </trkpt>
      <trkpt lat="45.56987" lon="6.59333">
        <ele>2177.9038</ele>
        <time>2020-01-27 11:55:38</time>
      </trkpt>
      <trkpt lat="45.56987" lon="6.59334">
        <ele>2178.394</ele>
        <time>2020-01-27 11:55:39</time>
      </trkpt>
      <trkpt lat="45.56987" lon="6.59335">
        <ele>2179.275</ele>
        <time>2020-01-27 11:55:40</time>
      </trkpt>
      <trkpt lat="45.56988" lon="6.59337">
        <ele>2180.994</ele>
        <time>2020-01-27 11:55:42</time>
      </trkpt>
      <trkpt lat="45.56988" lon="6.59337">
        <ele>2180.7534</ele>
        <time>2020-01-27 11:55:45</time>
      </trkpt>
      <trkpt lat="45.56989" lon="6.59339">
        <ele>2179.8184</ele>
        <time>2020-01-27 11:55:47</time>
      </trkpt>
      <trkpt lat="45.5699" lon="6.59339">
        <ele>2180.0154</ele>
        <time>2020-01-27 11:55:48</time>
      </trkpt>
      <trkpt lat="45.56991" lon="6.5934">
        <ele>2180.9673</ele>
        <time>2020-01-27 11:55:49</time>
      </trkpt>
      <trkpt lat="45.56991" lon="6.5934">
        <ele>2182.0537</ele>
        <time>2020-01-27 11:55:52</time>
      </trkpt>
      <trkpt lat="45.56993" lon="6.59342">
        <ele>2181.922</ele>
        <time>2020-01-27 11:55:54</time>
      </trkpt>
      <trkpt lat="45.56993" lon="6.59342">
        <ele>2181.7183</ele>
        <time>2020-01-27 11:55:55</time>
      </trkpt>
      <trkpt lat="45.56994" lon="6.59343">
        <ele>2181.311</ele>
        <time>2020-01-27 11:55:56</time>
      </trkpt>
      <trkpt lat="45.56995" lon="6.59344">
        <ele>2179.534</ele>
        <time>2020-01-27 11:55:58</time>
      </trkpt>
      <trkpt lat="45.56996" lon="6.59345">
        <ele>2181.1836</ele>
        <time>2020-01-27 11:56:00</time>
      </trkpt>
      <trkpt lat="45.56996" lon="6.59346">
        <ele>2180.628</ele>
        <time>2020-01-27 11:56:01</time>
      </trkpt>
      <trkpt lat="45.56997" lon="6.59347">
        <ele>2180.7153</ele>
        <time>2020-01-27 11:56:02</time>
      </trkpt>
      <trkpt lat="45.56997" lon="6.59348">
        <ele>2181.3276</ele>
        <time>2020-01-27 11:56:03</time>
      </trkpt>
      <trkpt lat="45.56998" lon="6.5935">
        <ele>2184.7227</ele>
        <time>2020-01-27 11:56:07</time>
      </trkpt>
      <trkpt lat="45.56999" lon="6.59351">
        <ele>2186.0928</ele>
        <time>2020-01-27 11:56:08</time>
      </trkpt>
      <trkpt lat="45.57" lon="6.59352">
        <ele>2186.7017</ele>
        <time>2020-01-27 11:56:09</time>
      </trkpt>
      <trkpt lat="45.57001" lon="6.59353">
        <ele>2188.0547</ele>
        <time>2020-01-27 11:56:10</time>
      </trkpt>
      <trkpt lat="45.57004" lon="6.59355">
        <ele>2189.183</ele>
        <time>2020-01-27 11:56:14</time>
      </trkpt>
      <trkpt lat="45.57004" lon="6.59356">
        <ele>2190.1077</ele>
        <time>2020-01-27 11:56:15</time>
      </trkpt>
      <trkpt lat="45.57005" lon="6.59356">
        <ele>2190.0752</ele>
        <time>2020-01-27 11:56:16</time>
      </trkpt>
      <trkpt lat="45.57005" lon="6.59357">
        <ele>2190.7734</ele>
        <time>2020-01-27 11:56:17</time>
      </trkpt>
      <trkpt lat="45.57009" lon="6.59362">
        <ele>2191.4575</ele>
        <time>2020-01-27 11:56:24</time>
      </trkpt>
      <trkpt lat="45.5701" lon="6.59363">
        <ele>2191.2537</ele>
        <time>2020-01-27 11:56:25</time>
      </trkpt>
      <trkpt lat="45.57011" lon="6.59363">
        <ele>2189.6277</ele>
        <time>2020-01-27 11:56:29</time>
      </trkpt>
      <trkpt lat="45.57012" lon="6.59364">
        <ele>2189.5452</ele>
        <time>2020-01-27 11:56:30</time>
      </trkpt>
      <trkpt lat="45.57012" lon="6.59364">
        <ele>2190.0364</ele>
        <time>2020-01-27 11:56:31</time>
      </trkpt>
      <trkpt lat="45.57012" lon="6.59364">
        <ele>2189.4001</ele>
        <time>2020-01-27 11:56:32</time>
      </trkpt>
      <trkpt lat="45.57013" lon="6.59366">
        <ele>2190.8464</ele>
        <time>2020-01-27 11:56:38</time>
      </trkpt>
      <trkpt lat="45.57013" lon="6.59367">
        <ele>2191.3374</ele>
        <time>2020-01-27 11:56:39</time>
      </trkpt>
      <trkpt lat="45.57014" lon="6.59367">
        <ele>2191.7703</ele>
        <time>2020-01-27 11:56:40</time>
      </trkpt>
      <trkpt lat="45.57014" lon="6.59368">
        <ele>2191.7812</ele>
        <time>2020-01-27 11:56:41</time>
      </trkpt>
      <trkpt lat="45.57015" lon="6.5937">
        <ele>2191.9958</ele>
        <time>2020-01-27 11:56:47</time>
      </trkpt>
      <trkpt lat="45.57017" lon="6.59372">
        <ele>2191.4202</ele>
        <time>2020-01-27 11:56:50</time>
      </trkpt>
      <trkpt lat="45.57019" lon="6.59374">
        <ele>2192.2085</ele>
        <time>2020-01-27 11:56:52</time>
      </trkpt>
      <trkpt lat="45.57021" lon="6.59374">
        <ele>2190.18</ele>
        <time>2020-01-27 11:56:54</time>
      </trkpt>
      <trkpt lat="45.57021" lon="6.59374">
        <ele>2189.257</ele>
        <time>2020-01-27 11:56:55</time>
      </trkpt>
      <trkpt lat="45.57023" lon="6.59375">
        <ele>2188.1006</ele>
        <time>2020-01-27 11:56:57</time>
      </trkpt>
      <trkpt lat="45.57024" lon="6.59376">
        <ele>2188.8936</ele>
        <time>2020-01-27 11:56:58</time>
      </trkpt>
      <trkpt lat="45.57025" lon="6.59376">
        <ele>2189.545</ele>
        <time>2020-01-27 11:56:59</time>
      </trkpt>
      <trkpt lat="45.57025" lon="6.59378">
        <ele>2190.0615</ele>
        <time>2020-01-27 11:57:00</time>
      </trkpt>
      <trkpt lat="45.57025" lon="6.59378">
        <ele>2189.7314</ele>
        <time>2020-01-27 11:57:01</time>
      </trkpt>
      <trkpt lat="45.57029" lon="6.59383">
        <ele>2190.3728</ele>
        <time>2020-01-27 11:57:08</time>
      </trkpt>
      <trkpt lat="45.57029" lon="6.59384">
        <ele>2189.8623</ele>
        <time>2020-01-27 11:57:09</time>
      </trkpt>
      <trkpt lat="45.5703" lon="6.59385">
        <ele>2189.4739</ele>
        <time>2020-01-27 11:57:10</time>
      </trkpt>
      <trkpt lat="45.57032" lon="6.59387">
        <ele>2190.19</ele>
        <time>2020-01-27 11:57:13</time>
      </trkpt>
      <trkpt lat="45.57033" lon="6.59387">
        <ele>2189.6821</ele>
        <time>2020-01-27 11:57:16</time>
      </trkpt>
      <trkpt lat="45.57035" lon="6.59387">
        <ele>2189.5054</ele>
        <time>2020-01-27 11:57:18</time>
      </trkpt>
      <trkpt lat="45.57037" lon="6.59388">
        <ele>2189.3225</ele>
        <time>2020-01-27 11:57:21</time>
      </trkpt>
      <trkpt lat="45.57038" lon="6.59388">
        <ele>2189.0615</ele>
        <time>2020-01-27 11:57:22</time>
      </trkpt>
      <trkpt lat="45.57038" lon="6.59388">
        <ele>2189.295</ele>
        <time>2020-01-27 11:57:23</time>
      </trkpt>
      <trkpt lat="45.57039" lon="6.59389">
        <ele>2191.239</ele>
        <time>2020-01-27 11:57:25</time>
      </trkpt>
      <trkpt lat="45.5704" lon="6.59389">
        <ele>2191.8052</ele>
        <time>2020-01-27 11:57:26</time>
      </trkpt>
      <trkpt lat="45.57042" lon="6.5939">
        <ele>2192.804</ele>
        <time>2020-01-27 11:57:29</time>
      </trkpt>
      <trkpt lat="45.57042" lon="6.5939">
        <ele>2191.231</ele>
        <time>2020-01-27 11:57:31</time>
      </trkpt>
      <trkpt lat="45.57042" lon="6.5939">
        <ele>2190.7415</ele>
        <time>2020-01-27 11:57:32</time>
      </trkpt>
      <trkpt lat="45.57043" lon="6.59391">
        <ele>2191.3252</ele>
        <time>2020-01-27 11:57:33</time>
      </trkpt>
      <trkpt lat="45.57047" lon="6.59394">
        <ele>2193.0999</ele>
        <time>2020-01-27 11:57:38</time>
      </trkpt>
      <trkpt lat="45.57048" lon="6.59394">
        <ele>2193.88</ele>
        <time>2020-01-27 11:57:39</time>
      </trkpt>
      <trkpt lat="45.57048" lon="6.59394">
        <ele>2193.5706</ele>
        <time>2020-01-27 11:57:40</time>
      </trkpt>
      <trkpt lat="45.5705" lon="6.59395">
        <ele>2193.8323</ele>
        <time>2020-01-27 11:57:42</time>
      </trkpt>
      <trkpt lat="45.57053" lon="6.59395">
        <ele>2192.0137</ele>
        <time>2020-01-27 11:57:47</time>
      </trkpt>
      <trkpt lat="45.57056" lon="6.59394">
        <ele>2193.1663</ele>
        <time>2020-01-27 11:57:52</time>
      </trkpt>
      <trkpt lat="45.57057" lon="6.59395">
        <ele>2191.682</ele>
        <time>2020-01-27 11:57:53</time>
      </trkpt>
      <trkpt lat="45.57058" lon="6.59395">
        <ele>2192.975</ele>
        <time>2020-01-27 11:57:54</time>
      </trkpt>
      <trkpt lat="45.57058" lon="6.59396">
        <ele>2194.662</ele>
        <time>2020-01-27 11:57:55</time>
      </trkpt>
      <trkpt lat="45.5706" lon="6.59395">
        <ele>2192.7405</ele>
        <time>2020-01-27 11:57:57</time>
      </trkpt>
      <trkpt lat="45.57061" lon="6.59395">
        <ele>2192.4014</ele>
        <time>2020-01-27 11:57:58</time>
      </trkpt>
      <trkpt lat="45.57061" lon="6.59394">
        <ele>2192.1255</ele>
        <time>2020-01-27 11:57:59</time>
      </trkpt>
      <trkpt lat="45.57061" lon="6.59393">
        <ele>2192.2678</ele>
        <time>2020-01-27 11:58:00</time>
      </trkpt>
      <trkpt lat="45.57063" lon="6.59391">
        <ele>2192.632</ele>
        <time>2020-01-27 11:58:03</time>
      </trkpt>
      <trkpt lat="45.57063" lon="6.59391">
        <ele>2193.8289</ele>
        <time>2020-01-27 11:58:04</time>
      </trkpt>
      <trkpt lat="45.57063" lon="6.5939">
        <ele>2194.1018</ele>
        <time>2020-01-27 11:58:05</time>
      </trkpt>
      <trkpt lat="45.57063" lon="6.59389">
        <ele>2193.8652</ele>
        <time>2020-01-27 11:58:06</time>
      </trkpt>
      <trkpt lat="45.57063" lon="6.59388">
        <ele>2194.0652</ele>
        <time>2020-01-27 11:58:08</time>
      </trkpt>
      <trkpt lat="45.57063" lon="6.59387">
        <ele>2194.7627</ele>
        <time>2020-01-27 11:58:09</time>
      </trkpt>
      <trkpt lat="45.57063" lon="6.59386">
        <ele>2195.3843</ele>
        <time>2020-01-27 11:58:10</time>
      </trkpt>
      <trkpt lat="45.57062" lon="6.59386">
        <ele>2195.3135</ele>
        <time>2020-01-27 11:58:11</time>
      </trkpt>
      <trkpt lat="45.57062" lon="6.59385">
        <ele>2195.0793</ele>
        <time>2020-01-27 11:58:12</time>
      </trkpt>
      <trkpt lat="45.57062" lon="6.59385">
        <ele>2195.7153</ele>
        <time>2020-01-27 11:58:13</time>
      </trkpt>
      <trkpt lat="45.57062" lon="6.59384">
        <ele>2196.0679</ele>
        <time>2020-01-27 11:58:14</time>
      </trkpt>
      <trkpt lat="45.5706" lon="6.59372">
        <ele>2199.366</ele>
        <time>2020-01-27 11:58:25</time>
      </trkpt>
      <trkpt lat="45.57059" lon="6.59364">
        <ele>2199.663</ele>
        <time>2020-01-27 11:58:37</time>
      </trkpt>
      <trkpt lat="45.57059" lon="6.59361">
        <ele>2200.0603</ele>
        <time>2020-01-27 11:58:41</time>
      </trkpt>
      <trkpt lat="45.57059" lon="6.59357">
        <ele>2201.1313</ele>
        <time>2020-01-27 11:58:45</time>
      </trkpt>
      <trkpt lat="45.57059" lon="6.59357">
        <ele>2199.505</ele>
        <time>2020-01-27 11:58:46</time>
      </trkpt>
      <trkpt lat="45.5706" lon="6.59356">
        <ele>2199.4634</ele>
        <time>2020-01-27 11:58:47</time>
      </trkpt>
      <trkpt lat="45.57059" lon="6.59354">
        <ele>2198.9563</ele>
        <time>2020-01-27 11:58:49</time>
      </trkpt>
      <trkpt lat="45.57059" lon="6.59352">
        <ele>2198.4712</ele>
        <time>2020-01-27 11:58:53</time>
      </trkpt>
      <trkpt lat="45.57059" lon="6.59352">
        <ele>2198.734</ele>
        <time>2020-01-27 11:58:56</time>
      </trkpt>
      <trkpt lat="45.5706" lon="6.59351">
        <ele>2199.9265</ele>
        <time>2020-01-27 11:58:59</time>
      </trkpt>
      <trkpt lat="45.57061" lon="6.59351">
        <ele>2200.739</ele>
        <time>2020-01-27 11:59:03</time>
      </trkpt>
      <trkpt lat="45.57061" lon="6.5935">
        <ele>2202.2573</ele>
        <time>2020-01-27 11:59:04</time>
      </trkpt>
      <trkpt lat="45.57061" lon="6.59349">
        <ele>2203.0273</ele>
        <time>2020-01-27 11:59:05</time>
      </trkpt>
      <trkpt lat="45.57063" lon="6.59347">
        <ele>2204.2231</ele>
        <time>2020-01-27 11:59:07</time>
      </trkpt>
      <trkpt lat="45.57065" lon="6.59344">
        <ele>2204.9946</ele>
        <time>2020-01-27 11:59:10</time>
      </trkpt>
      <trkpt lat="45.57065" lon="6.59343">
        <ele>2205.4922</ele>
        <time>2020-01-27 11:59:11</time>
      </trkpt>
      <trkpt lat="45.57066" lon="6.59343">
        <ele>2205.7542</ele>
        <time>2020-01-27 11:59:12</time>
      </trkpt>
      <trkpt lat="45.57067" lon="6.59342">
        <ele>2206.4048</ele>
        <time>2020-01-27 11:59:13</time>
      </trkpt>
      <trkpt lat="45.57067" lon="6.59341">
        <ele>2206.6763</ele>
        <time>2020-01-27 11:59:14</time>
      </trkpt>
      <trkpt lat="45.57068" lon="6.59341">
        <ele>2206.3152</ele>
        <time>2020-01-27 11:59:15</time>
      </trkpt>
      <trkpt lat="45.57068" lon="6.5934">
        <ele>2207.269</ele>
        <time>2020-01-27 11:59:16</time>
      </trkpt>
      <trkpt lat="45.57068" lon="6.5934">
        <ele>2206.842</ele>
        <time>2020-01-27 11:59:17</time>
      </trkpt>
      <trkpt lat="45.57069" lon="6.59338">
        <ele>2207.2793</ele>
        <time>2020-01-27 11:59:19</time>
      </trkpt>
      <trkpt lat="45.57069" lon="6.59338">
        <ele>2207.6138</ele>
        <time>2020-01-27 11:59:20</time>
      </trkpt>
      <trkpt lat="45.57073" lon="6.59332">
        <ele>2207.6814</ele>
        <time>2020-01-27 11:59:27</time>
      </trkpt>
      <trkpt lat="45.57074" lon="6.59332">
        <ele>2208.1838</ele>
        <time>2020-01-27 11:59:28</time>
      </trkpt>
      <trkpt lat="45.57075" lon="6.59331">
        <ele>2208.334</ele>
        <time>2020-01-27 11:59:29</time>
      </trkpt>
      <trkpt lat="45.57077" lon="6.59327">
        <ele>2207.1482</ele>
        <time>2020-01-27 11:59:34</time>
      </trkpt>
      <trkpt lat="45.57077" lon="6.59326">
        <ele>2207.2217</ele>
        <time>2020-01-27 11:59:35</time>
      </trkpt>
      <trkpt lat="45.57077" lon="6.59326">
        <ele>2206.2827</ele>
        <time>2020-01-27 11:59:36</time>
      </trkpt>
      <trkpt lat="45.57077" lon="6.59326">
        <ele>2206.3577</ele>
        <time>2020-01-27 11:59:37</time>
      </trkpt>
      <trkpt lat="45.57077" lon="6.59325">
        <ele>2206.5088</ele>
        <time>2020-01-27 11:59:38</time>
      </trkpt>
      <trkpt lat="45.57077" lon="6.59324">
        <ele>2207.374</ele>
        <time>2020-01-27 11:59:39</time>
      </trkpt>
      <trkpt lat="45.57078" lon="6.59322">
        <ele>2209.163</ele>
        <time>2020-01-27 11:59:42</time>
      </trkpt>
      <trkpt lat="45.57079" lon="6.59322">
        <ele>2209.3835</ele>
        <time>2020-01-27 11:59:43</time>
      </trkpt>
      <trkpt lat="45.57079" lon="6.59322">
        <ele>2209.2847</ele>
        <time>2020-01-27 11:59:44</time>
      </trkpt>
      <trkpt lat="45.57079" lon="6.59321">
        <ele>2208.9478</ele>
        <time>2020-01-27 11:59:45</time>
      </trkpt>
      <trkpt lat="45.57084" lon="6.59309">
        <ele>2208.456</ele>
        <time>2020-01-27 12:00:00</time>
      </trkpt>
      <trkpt lat="45.57085" lon="6.59308">
        <ele>2210.0376</ele>
        <time>2020-01-27 12:00:15</time>
      </trkpt>
      <trkpt lat="45.57085" lon="6.59308">
        <ele>2210.0718</ele>
        <time>2020-01-27 12:00:17</time>
      </trkpt>
      <trkpt lat="45.57085" lon="6.59308">
        <ele>2208.5784</ele>
        <time>2020-01-27 12:00:47</time>
      </trkpt>
      <trkpt lat="45.57084" lon="6.59308">
        <ele>2207.89</ele>
        <time>2020-01-27 12:01:15</time>
      </trkpt>
      <trkpt lat="45.57084" lon="6.59308">
        <ele>2207.1318</ele>
        <time>2020-01-27 12:01:16</time>
      </trkpt>
      <trkpt lat="45.57085" lon="6.59308">
        <ele>2205.3137</ele>
        <time>2020-01-27 12:01:46</time>
      </trkpt>
      <trkpt lat="45.57085" lon="6.59308">
        <ele>2205.2922</ele>
        <time>2020-01-27 12:02:20</time>
      </trkpt>
      <trkpt lat="45.57085" lon="6.59308">
        <ele>2205.2869</ele>
        <time>2020-01-27 12:02:51</time>
      </trkpt>
      <trkpt lat="45.57085" lon="6.59308">
        <ele>2205.3352</ele>
        <time>2020-01-27 12:03:21</time>
      </trkpt>
      <trkpt lat="45.57085" lon="6.59307">
        <ele>2206.0337</ele>
        <time>2020-01-27 12:03:54</time>
      </trkpt>
      <trkpt lat="45.57086" lon="6.59306">
        <ele>2205.7327</ele>
        <time>2020-01-27 12:03:55</time>
      </trkpt>
      <trkpt lat="45.57086" lon="6.59305">
        <ele>2205.9917</ele>
        <time>2020-01-27 12:03:56</time>
      </trkpt>
      <trkpt lat="45.57086" lon="6.59305">
        <ele>2205.852</ele>
        <time>2020-01-27 12:03:57</time>
      </trkpt>
      <trkpt lat="45.57087" lon="6.59304">
        <ele>2206.9414</ele>
        <time>2020-01-27 12:03:58</time>
      </trkpt>
      <trkpt lat="45.57087" lon="6.59303">
        <ele>2206.4304</ele>
        <time>2020-01-27 12:03:59</time>
      </trkpt>
      <trkpt lat="45.57087" lon="6.59302">
        <ele>2205.7285</ele>
        <time>2020-01-27 12:04:00</time>
      </trkpt>
      <trkpt lat="45.57087" lon="6.59301">
        <ele>2206.1235</ele>
        <time>2020-01-27 12:04:01</time>
      </trkpt>
      <trkpt lat="45.57087" lon="6.59299">
        <ele>2206.878</ele>
        <time>2020-01-27 12:04:02</time>
      </trkpt>
      <trkpt lat="45.57088" lon="6.59298">
        <ele>2206.7903</ele>
        <time>2020-01-27 12:04:03</time>
      </trkpt>
      <trkpt lat="45.57088" lon="6.59297">
        <ele>2206.3438</ele>
        <time>2020-01-27 12:04:04</time>
      </trkpt>
      <trkpt lat="45.57088" lon="6.59296">
        <ele>2206.5405</ele>
        <time>2020-01-27 12:04:05</time>
      </trkpt>
      <trkpt lat="45.57088" lon="6.59295">
        <ele>2206.922</ele>
        <time>2020-01-27 12:04:06</time>
      </trkpt>
      <trkpt lat="45.57089" lon="6.59294">
        <ele>2206.4795</ele>
        <time>2020-01-27 12:04:07</time>
      </trkpt>
      <trkpt lat="45.57089" lon="6.59293">
        <ele>2205.3254</ele>
        <time>2020-01-27 12:04:08</time>
      </trkpt>
      <trkpt lat="45.57092" lon="6.59287">
        <ele>2205.986</ele>
        <time>2020-01-27 12:04:15</time>
      </trkpt>
      <trkpt lat="45.57092" lon="6.59286">
        <ele>2206.0283</ele>
        <time>2020-01-27 12:04:16</time>
      </trkpt>
      <trkpt lat="45.57092" lon="6.59285">
        <ele>2206.171</ele>
        <time>2020-01-27 12:04:17</time>
      </trkpt>
      <trkpt lat="45.57092" lon="6.59285">
        <ele>2204.5188</ele>
        <time>2020-01-27 12:04:18</time>
      </trkpt>
      <trkpt lat="45.57092" lon="6.59284">
        <ele>2204.7517</ele>
        <time>2020-01-27 12:04:19</time>
      </trkpt>
      <trkpt lat="45.57092" lon="6.59283">
        <ele>2204.5405</ele>
        <time>2020-01-27 12:04:20</time>
      </trkpt>
      <trkpt lat="45.57092" lon="6.59283">
        <ele>2204.6602</ele>
        <time>2020-01-27 12:04:21</time>
      </trkpt>
      <trkpt lat="45.57092" lon="6.59282">
        <ele>2204.7063</ele>
        <time>2020-01-27 12:04:22</time>
      </trkpt>
      <trkpt lat="45.57093" lon="6.59281">
        <ele>2205.64</ele>
        <time>2020-01-27 12:04:23</time>
      </trkpt>
      <trkpt lat="45.57093" lon="6.59281">
        <ele>2205.3577</ele>
        <time>2020-01-27 12:04:24</time>
      </trkpt>
      <trkpt lat="45.57093" lon="6.5928">
        <ele>2204.485</ele>
        <time>2020-01-27 12:04:25</time>
      </trkpt>
      <trkpt lat="45.57092" lon="6.59279">
        <ele>2204.9521</ele>
        <time>2020-01-27 12:04:26</time>
      </trkpt>
      <trkpt lat="45.57092" lon="6.59278">
        <ele>2204.9944</ele>
        <time>2020-01-27 12:04:27</time>
      </trkpt>
      <trkpt lat="45.57092" lon="6.59277">
        <ele>2205.1228</ele>
        <time>2020-01-27 12:04:28</time>
      </trkpt>
      <trkpt lat="45.57092" lon="6.59276">
        <ele>2206.6396</ele>
        <time>2020-01-27 12:04:29</time>
      </trkpt>
      <trkpt lat="45.57093" lon="6.59275">
        <ele>2205.5376</ele>
        <time>2020-01-27 12:04:30</time>
      </trkpt>
      <trkpt lat="45.57093" lon="6.59274">
        <ele>2206.6514</ele>
        <time>2020-01-27 12:04:33</time>
      </trkpt>
      <trkpt lat="45.57093" lon="6.59273">
        <ele>2205.7783</ele>
        <time>2020-01-27 12:04:34</time>
      </trkpt>
      <trkpt lat="45.57093" lon="6.59272">
        <ele>2206.7407</ele>
        <time>2020-01-27 12:04:35</time>
      </trkpt>
      <trkpt lat="45.57093" lon="6.59271">
        <ele>2207.955</ele>
        <time>2020-01-27 12:04:36</time>
      </trkpt>
      <trkpt lat="45.57093" lon="6.5927">
        <ele>2208.3096</ele>
        <time>2020-01-27 12:04:37</time>
      </trkpt>
      <trkpt lat="45.57093" lon="6.5927">
        <ele>2208.5857</ele>
        <time>2020-01-27 12:04:38</time>
      </trkpt>
      <trkpt lat="45.57093" lon="6.5927">
        <ele>2208.8853</ele>
        <time>2020-01-27 12:04:39</time>
      </trkpt>
      <trkpt lat="45.57093" lon="6.5927">
        <ele>2209.301</ele>
        <time>2020-01-27 12:04:40</time>
      </trkpt>
      <trkpt lat="45.57092" lon="6.59269">
        <ele>2208.9695</ele>
        <time>2020-01-27 12:04:42</time>
      </trkpt>
      <trkpt lat="45.57092" lon="6.59269">
        <ele>2209.0325</ele>
        <time>2020-01-27 12:04:43</time>
      </trkpt>
      <trkpt lat="45.57091" lon="6.59268">
        <ele>2208.4312</ele>
        <time>2020-01-27 12:04:45</time>
      </trkpt>
      <trkpt lat="45.5709" lon="6.59267">
        <ele>2207.7185</ele>
        <time>2020-01-27 12:04:47</time>
      </trkpt>
      <trkpt lat="45.57089" lon="6.59266">
        <ele>2206.8198</ele>
        <time>2020-01-27 12:04:48</time>
      </trkpt>
      <trkpt lat="45.57088" lon="6.59265">
        <ele>2206.7021</ele>
        <time>2020-01-27 12:04:49</time>
      </trkpt>
      <trkpt lat="45.57087" lon="6.59265">
        <ele>2208.323</ele>
        <time>2020-01-27 12:04:52</time>
      </trkpt>
      <trkpt lat="45.57086" lon="6.59264">
        <ele>2208.479</ele>
        <time>2020-01-27 12:04:53</time>
      </trkpt>
      <trkpt lat="45.57086" lon="6.59263">
        <ele>2208.2156</ele>
        <time>2020-01-27 12:04:54</time>
      </trkpt>
      <trkpt lat="45.57085" lon="6.59263">
        <ele>2209.8481</ele>
        <time>2020-01-27 12:04:58</time>
      </trkpt>
      <trkpt lat="45.57085" lon="6.59263">
        <ele>2209.7322</ele>
        <time>2020-01-27 12:04:59</time>
      </trkpt>
      <trkpt lat="45.57085" lon="6.59262">
        <ele>2211.134</ele>
        <time>2020-01-27 12:05:02</time>
      </trkpt>
      <trkpt lat="45.57085" lon="6.59261">
        <ele>2210.769</ele>
        <time>2020-01-27 12:05:03</time>
      </trkpt>
      <trkpt lat="45.57086" lon="6.5926">
        <ele>2211.2483</ele>
        <time>2020-01-27 12:05:09</time>
      </trkpt>
      <trkpt lat="45.57086" lon="6.59259">
        <ele>2210.8958</ele>
        <time>2020-01-27 12:05:10</time>
      </trkpt>
      <trkpt lat="45.57085" lon="6.59257">
        <ele>2210.841</ele>
        <time>2020-01-27 12:05:11</time>
      </trkpt>
      <trkpt lat="45.57085" lon="6.59256">
        <ele>2210.7544</ele>
        <time>2020-01-27 12:05:12</time>
      </trkpt>
      <trkpt lat="45.57085" lon="6.59255">
        <ele>2210.8586</ele>
        <time>2020-01-27 12:05:13</time>
      </trkpt>
      <trkpt lat="45.57085" lon="6.59254">
        <ele>2211.471</ele>
        <time>2020-01-27 12:05:14</time>
      </trkpt>
      <trkpt lat="45.57084" lon="6.59253">
        <ele>2212.3545</ele>
        <time>2020-01-27 12:05:15</time>
      </trkpt>
      <trkpt lat="45.57085" lon="6.59252">
        <ele>2212.7573</ele>
        <time>2020-01-27 12:05:16</time>
      </trkpt>
      <trkpt lat="45.57085" lon="6.59251">
        <ele>2212.773</ele>
        <time>2020-01-27 12:05:17</time>
      </trkpt>
      <trkpt lat="45.57085" lon="6.59251">
        <ele>2213.785</ele>
        <time>2020-01-27 12:05:18</time>
      </trkpt>
      <trkpt lat="45.57086" lon="6.59251">
        <ele>2213.3555</ele>
        <time>2020-01-27 12:05:21</time>
      </trkpt>
      <trkpt lat="45.57085" lon="6.5925">
        <ele>2210.4927</ele>
        <time>2020-01-27 12:05:22</time>
      </trkpt>
      <trkpt lat="45.57085" lon="6.59249">
        <ele>2210.1912</ele>
        <time>2020-01-27 12:05:23</time>
      </trkpt>
      <trkpt lat="45.57085" lon="6.59249">
        <ele>2209.934</ele>
        <time>2020-01-27 12:05:24</time>
      </trkpt>
      <trkpt lat="45.57085" lon="6.59246">
        <ele>2209.0188</ele>
        <time>2020-01-27 12:05:35</time>
      </trkpt>
      <trkpt lat="45.57085" lon="6.59246">
        <ele>2208.725</ele>
        <time>2020-01-27 12:05:36</time>
      </trkpt>
      <trkpt lat="45.57086" lon="6.59245">
        <ele>2210.422</ele>
        <time>2020-01-27 12:05:39</time>
      </trkpt>
      <trkpt lat="45.57087" lon="6.59245">
        <ele>2210.907</ele>
        <time>2020-01-27 12:05:40</time>
      </trkpt>
      <trkpt lat="45.57087" lon="6.59245">
        <ele>2214.5999</ele>
        <time>2020-01-27 12:05:53</time>
      </trkpt>
      <trkpt lat="45.57088" lon="6.59245">
        <ele>2215.1174</ele>
        <time>2020-01-27 12:05:54</time>
      </trkpt>
      <trkpt lat="45.57088" lon="6.59246">
        <ele>2215.327</ele>
        <time>2020-01-27 12:05:55</time>
      </trkpt>
      <trkpt lat="45.57089" lon="6.59246">
        <ele>2215.81</ele>
        <time>2020-01-27 12:05:56</time>
      </trkpt>
      <trkpt lat="45.57089" lon="6.59246">
        <ele>2215.5496</ele>
        <time>2020-01-27 12:05:57</time>
      </trkpt>
      <trkpt lat="45.57091" lon="6.59247">
        <ele>2216.1685</ele>
        <time>2020-01-27 12:05:59</time>
      </trkpt>
      <trkpt lat="45.57092" lon="6.59247">
        <ele>2215.2307</ele>
        <time>2020-01-27 12:06:00</time>
      </trkpt>
      <trkpt lat="45.57092" lon="6.59248">
        <ele>2215.4653</ele>
        <time>2020-01-27 12:06:01</time>
      </trkpt>
      <trkpt lat="45.57093" lon="6.59248">
        <ele>2215.307</ele>
        <time>2020-01-27 12:06:02</time>
      </trkpt>
      <trkpt lat="45.57097" lon="6.59249">
        <ele>2216.2402</ele>
        <time>2020-01-27 12:06:06</time>
      </trkpt>
      <trkpt lat="45.57097" lon="6.59248">
        <ele>2215.831</ele>
        <time>2020-01-27 12:06:07</time>
      </trkpt>
      <trkpt lat="45.57098" lon="6.59248">
        <ele>2215.8352</ele>
        <time>2020-01-27 12:06:08</time>
      </trkpt>
      <trkpt lat="45.57098" lon="6.59249">
        <ele>2215.7615</ele>
        <time>2020-01-27 12:06:09</time>
      </trkpt>
      <trkpt lat="45.57105" lon="6.59251">
        <ele>2221.825</ele>
        <time>2020-01-27 12:06:18</time>
      </trkpt>
      <trkpt lat="45.57105" lon="6.59251">
        <ele>2223.5286</ele>
        <time>2020-01-27 12:06:19</time>
      </trkpt>
      <trkpt lat="45.57105" lon="6.59252">
        <ele>2222.9097</ele>
        <time>2020-01-27 12:06:21</time>
      </trkpt>
      <trkpt lat="45.57105" lon="6.59252">
        <ele>2222.969</ele>
        <time>2020-01-27 12:06:22</time>
      </trkpt>
      <trkpt lat="45.57106" lon="6.59252">
        <ele>2223.4102</ele>
        <time>2020-01-27 12:06:25</time>
      </trkpt>
      <trkpt lat="45.57107" lon="6.59251">
        <ele>2224.1182</ele>
        <time>2020-01-27 12:06:26</time>
      </trkpt>
      <trkpt lat="45.57107" lon="6.59251">
        <ele>2224.5635</ele>
        <time>2020-01-27 12:06:27</time>
      </trkpt>
      <trkpt lat="45.57108" lon="6.5925">
        <ele>2225.1223</ele>
        <time>2020-01-27 12:06:28</time>
      </trkpt>
      <trkpt lat="45.57108" lon="6.59249">
        <ele>2225.4517</ele>
        <time>2020-01-27 12:06:30</time>
      </trkpt>
      <trkpt lat="45.57109" lon="6.59248">
        <ele>2225.8127</ele>
        <time>2020-01-27 12:06:31</time>
      </trkpt>
      <trkpt lat="45.57107" lon="6.59247">
        <ele>2225.1199</ele>
        <time>2020-01-27 12:06:42</time>
      </trkpt>
      <trkpt lat="45.57108" lon="6.59247">
        <ele>2225.1926</ele>
        <time>2020-01-27 12:06:43</time>
      </trkpt>
      <trkpt lat="45.57108" lon="6.59246">
        <ele>2224.5754</ele>
        <time>2020-01-27 12:06:48</time>
      </trkpt>
      <trkpt lat="45.57108" lon="6.59247">
        <ele>2225.009</ele>
        <time>2020-01-27 12:06:49</time>
      </trkpt>
      <trkpt lat="45.57107" lon="6.59246">
        <ele>2224.401</ele>
        <time>2020-01-27 12:06:55</time>
      </trkpt>
      <trkpt lat="45.57106" lon="6.59246">
        <ele>2224.1099</ele>
        <time>2020-01-27 12:06:57</time>
      </trkpt>
      <trkpt lat="45.57105" lon="6.59245">
        <ele>2223.4065</ele>
        <time>2020-01-27 12:06:58</time>
      </trkpt>
      <trkpt lat="45.57104" lon="6.59245">
        <ele>2222.7334</ele>
        <time>2020-01-27 12:06:59</time>
      </trkpt>
      <trkpt lat="45.57103" lon="6.59246">
        <ele>2222.7595</ele>
        <time>2020-01-27 12:07:03</time>
      </trkpt>
      <trkpt lat="45.57103" lon="6.59245">
        <ele>2222.7407</ele>
        <time>2020-01-27 12:07:04</time>
      </trkpt>
      <trkpt lat="45.57105" lon="6.59247">
        <ele>2224.3003</ele>
        <time>2020-01-27 12:07:37</time>
      </trkpt>
      <trkpt lat="45.57105" lon="6.59246">
        <ele>2224.024</ele>
        <time>2020-01-27 12:08:03</time>
      </trkpt>
      <trkpt lat="45.57104" lon="6.59245">
        <ele>2223.8303</ele>
        <time>2020-01-27 12:08:04</time>
      </trkpt>
      <trkpt lat="45.57103" lon="6.59243">
        <ele>2224.9067</ele>
        <time>2020-01-27 12:08:08</time>
      </trkpt>
      <trkpt lat="45.57103" lon="6.59243">
        <ele>2226.0964</ele>
        <time>2020-01-27 12:08:09</time>
      </trkpt>
      <trkpt lat="45.57103" lon="6.59242">
        <ele>2226.784</ele>
        <time>2020-01-27 12:08:11</time>
      </trkpt>
      <trkpt lat="45.57103" lon="6.59242">
        <ele>2227.3962</ele>
        <time>2020-01-27 12:08:12</time>
      </trkpt>
      <trkpt lat="45.57103" lon="6.59242">
        <ele>2228.8354</ele>
        <time>2020-01-27 12:08:14</time>
      </trkpt>
      <trkpt lat="45.57102" lon="6.59241">
        <ele>2228.7417</ele>
        <time>2020-01-27 12:08:15</time>
      </trkpt>
      <trkpt lat="45.57102" lon="6.59241">
        <ele>2228.6853</ele>
        <time>2020-01-27 12:08:16</time>
      </trkpt>
      <trkpt lat="45.57102" lon="6.5924">
        <ele>2228.3792</ele>
        <time>2020-01-27 12:08:19</time>
      </trkpt>
      <trkpt lat="45.57101" lon="6.5924">
        <ele>2228.4834</ele>
        <time>2020-01-27 12:08:20</time>
      </trkpt>
      <trkpt lat="45.57101" lon="6.59239">
        <ele>2228.4424</ele>
        <time>2020-01-27 12:08:21</time>
      </trkpt>
      <trkpt lat="45.57101" lon="6.59238">
        <ele>2228.1934</ele>
        <time>2020-01-27 12:08:22</time>
      </trkpt>
      <trkpt lat="45.571" lon="6.59236">
        <ele>2229.0159</ele>
        <time>2020-01-27 12:08:25</time>
      </trkpt>
      <trkpt lat="45.571" lon="6.59234">
        <ele>2227.9233</ele>
        <time>2020-01-27 12:08:28</time>
      </trkpt>
      <trkpt lat="45.57098" lon="6.59233">
        <ele>2228.2031</ele>
        <time>2020-01-27 12:08:30</time>
      </trkpt>
      <trkpt lat="45.57098" lon="6.59233">
        <ele>2226.4355</ele>
        <time>2020-01-27 12:08:31</time>
      </trkpt>
      <trkpt lat="45.57098" lon="6.59232">
        <ele>2225.5618</ele>
        <time>2020-01-27 12:08:32</time>
      </trkpt>
      <trkpt lat="45.57097" lon="6.59232">
        <ele>2226.6628</ele>
        <time>2020-01-27 12:08:33</time>
      </trkpt>
      <trkpt lat="45.57097" lon="6.59231">
        <ele>2227.9736</ele>
        <time>2020-01-27 12:08:34</time>
      </trkpt>
      <trkpt lat="45.57096" lon="6.59231">
        <ele>2227.1958</ele>
        <time>2020-01-27 12:08:35</time>
      </trkpt>
      <trkpt lat="45.57095" lon="6.5923">
        <ele>2227.082</ele>
        <time>2020-01-27 12:08:36</time>
      </trkpt>
      <trkpt lat="45.57095" lon="6.59229">
        <ele>2228.829</ele>
        <time>2020-01-27 12:08:37</time>
      </trkpt>
      <trkpt lat="45.57094" lon="6.59228">
        <ele>2228.2126</ele>
        <time>2020-01-27 12:08:38</time>
      </trkpt>
      <trkpt lat="45.57094" lon="6.59226">
        <ele>2228.677</ele>
        <time>2020-01-27 12:08:39</time>
      </trkpt>
      <trkpt lat="45.57094" lon="6.59225">
        <ele>2228.782</ele>
        <time>2020-01-27 12:08:40</time>
      </trkpt>
      <trkpt lat="45.57094" lon="6.59224">
        <ele>2229.1775</ele>
        <time>2020-01-27 12:08:41</time>
      </trkpt>
      <trkpt lat="45.57094" lon="6.59223">
        <ele>2228.7336</ele>
        <time>2020-01-27 12:08:42</time>
      </trkpt>
      <trkpt lat="45.57094" lon="6.59222">
        <ele>2229.2798</ele>
        <time>2020-01-27 12:08:43</time>
      </trkpt>
      <trkpt lat="45.57094" lon="6.59221">
        <ele>2228.4465</ele>
        <time>2020-01-27 12:08:44</time>
      </trkpt>
      <trkpt lat="45.57094" lon="6.5922">
        <ele>2229.2576</ele>
        <time>2020-01-27 12:08:46</time>
      </trkpt>
      <trkpt lat="45.57094" lon="6.59219">
        <ele>2230.541</ele>
        <time>2020-01-27 12:08:47</time>
      </trkpt>
      <trkpt lat="45.57093" lon="6.59215">
        <ele>2231.4255</ele>
        <time>2020-01-27 12:08:50</time>
      </trkpt>
      <trkpt lat="45.57093" lon="6.59214">
        <ele>2232.0212</ele>
        <time>2020-01-27 12:08:51</time>
      </trkpt>
      <trkpt lat="45.57094" lon="6.59208">
        <ele>2235.0952</ele>
        <time>2020-01-27 12:08:55</time>
      </trkpt>
      <trkpt lat="45.57095" lon="6.59204">
        <ele>2237.2915</ele>
        <time>2020-01-27 12:09:01</time>
      </trkpt>
      <trkpt lat="45.57096" lon="6.59202">
        <ele>2237.5166</ele>
        <time>2020-01-27 12:09:03</time>
      </trkpt>
      <trkpt lat="45.57096" lon="6.59201">
        <ele>2237.3586</ele>
        <time>2020-01-27 12:09:04</time>
      </trkpt>
      <trkpt lat="45.57097" lon="6.592">
        <ele>2237.4355</ele>
        <time>2020-01-27 12:09:05</time>
      </trkpt>
      <trkpt lat="45.57097" lon="6.59199">
        <ele>2237.3716</ele>
        <time>2020-01-27 12:09:06</time>
      </trkpt>
      <trkpt lat="45.57096" lon="6.59192">
        <ele>2234.939</ele>
        <time>2020-01-27 12:09:12</time>
      </trkpt>
      <trkpt lat="45.57097" lon="6.59191">
        <ele>2235.4612</ele>
        <time>2020-01-27 12:09:13</time>
      </trkpt>
      <trkpt lat="45.57097" lon="6.5919">
        <ele>2235.3066</ele>
        <time>2020-01-27 12:09:14</time>
      </trkpt>
      <trkpt lat="45.57097" lon="6.5919">
        <ele>2234.6064</ele>
        <time>2020-01-27 12:09:15</time>
      </trkpt>
      <trkpt lat="45.57097" lon="6.59185">
        <ele>2233.575</ele>
        <time>2020-01-27 12:09:20</time>
      </trkpt>
      <trkpt lat="45.57097" lon="6.59182">
        <ele>2235.2346</ele>
        <time>2020-01-27 12:09:22</time>
      </trkpt>
      <trkpt lat="45.57097" lon="6.59181">
        <ele>2235.1196</ele>
        <time>2020-01-27 12:09:23</time>
      </trkpt>
      <trkpt lat="45.57098" lon="6.5918">
        <ele>2235.9011</ele>
        <time>2020-01-27 12:09:24</time>
      </trkpt>
      <trkpt lat="45.57102" lon="6.59175">
        <ele>2235.8813</ele>
        <time>2020-01-27 12:09:31</time>
      </trkpt>
      <trkpt lat="45.57103" lon="6.59175">
        <ele>2235.9382</ele>
        <time>2020-01-27 12:09:32</time>
      </trkpt>
      <trkpt lat="45.57103" lon="6.59174">
        <ele>2236.4688</ele>
        <time>2020-01-27 12:09:33</time>
      </trkpt>
      <trkpt lat="45.57106" lon="6.59171">
        <ele>2236.0955</ele>
        <time>2020-01-27 12:09:38</time>
      </trkpt>
      <trkpt lat="45.57106" lon="6.59171">
        <ele>2235.7476</ele>
        <time>2020-01-27 12:09:39</time>
      </trkpt>
      <trkpt lat="45.57107" lon="6.5917">
        <ele>2235.1665</ele>
        <time>2020-01-27 12:09:40</time>
      </trkpt>
      <trkpt lat="45.57107" lon="6.59169">
        <ele>2235.0845</ele>
        <time>2020-01-27 12:09:41</time>
      </trkpt>
      <trkpt lat="45.57108" lon="6.59169">
        <ele>2234.759</ele>
        <time>2020-01-27 12:09:42</time>
      </trkpt>
      <trkpt lat="45.57109" lon="6.59169">
        <ele>2234.275</ele>
        <time>2020-01-27 12:09:43</time>
      </trkpt>
      <trkpt lat="45.5711" lon="6.59168">
        <ele>2234.0574</ele>
        <time>2020-01-27 12:09:44</time>
      </trkpt>
      <trkpt lat="45.5711" lon="6.59168">
        <ele>2233.9766</ele>
        <time>2020-01-27 12:09:45</time>
      </trkpt>
      <trkpt lat="45.57111" lon="6.59168">
        <ele>2234.0493</ele>
        <time>2020-01-27 12:09:46</time>
      </trkpt>
      <trkpt lat="45.57111" lon="6.59168">
        <ele>2233.4985</ele>
        <time>2020-01-27 12:09:47</time>
      </trkpt>
      <trkpt lat="45.57112" lon="6.59167">
        <ele>2234.4124</ele>
        <time>2020-01-27 12:09:48</time>
      </trkpt>
      <trkpt lat="45.57112" lon="6.59167">
        <ele>2233.9385</ele>
        <time>2020-01-27 12:09:49</time>
      </trkpt>
      <trkpt lat="45.57112" lon="6.59166">
        <ele>2234.623</ele>
        <time>2020-01-27 12:09:53</time>
      </trkpt>
      <trkpt lat="45.57112" lon="6.59165">
        <ele>2234.2761</ele>
        <time>2020-01-27 12:09:54</time>
      </trkpt>
      <trkpt lat="45.57109" lon="6.5916">
        <ele>2235.0652</ele>
        <time>2020-01-27 12:09:58</time>
      </trkpt>
      <trkpt lat="45.57108" lon="6.59158">
        <ele>2235.157</ele>
        <time>2020-01-27 12:10:01</time>
      </trkpt>
      <trkpt lat="45.57108" lon="6.59157">
        <ele>2234.8794</ele>
        <time>2020-01-27 12:10:03</time>
      </trkpt>
      <trkpt lat="45.57104" lon="6.59152">
        <ele>2233.9219</ele>
        <time>2020-01-27 12:10:11</time>
      </trkpt>
      <trkpt lat="45.57104" lon="6.59152">
        <ele>2233.5513</ele>
        <time>2020-01-27 12:10:12</time>
      </trkpt>
      <trkpt lat="45.57102" lon="6.59149">
        <ele>2232.8513</ele>
        <time>2020-01-27 12:10:17</time>
      </trkpt>
      <trkpt lat="45.571" lon="6.59145">
        <ele>2232.5352</ele>
        <time>2020-01-27 12:10:25</time>
      </trkpt>
      <trkpt lat="45.57099" lon="6.59142">
        <ele>2233.6814</ele>
        <time>2020-01-27 12:10:29</time>
      </trkpt>
      <trkpt lat="45.57098" lon="6.59141">
        <ele>2233.9458</ele>
        <time>2020-01-27 12:10:30</time>
      </trkpt>
      <trkpt lat="45.57097" lon="6.59137">
        <ele>2235.764</ele>
        <time>2020-01-27 12:10:35</time>
      </trkpt>
      <trkpt lat="45.57097" lon="6.59136">
        <ele>2235.8337</ele>
        <time>2020-01-27 12:10:36</time>
      </trkpt>
      <trkpt lat="45.57097" lon="6.59136">
        <ele>2235.3594</ele>
        <time>2020-01-27 12:10:37</time>
      </trkpt>
      <trkpt lat="45.57097" lon="6.59135">
        <ele>2236.01</ele>
        <time>2020-01-27 12:10:38</time>
      </trkpt>
      <trkpt lat="45.57097" lon="6.59135">
        <ele>2236.4968</ele>
        <time>2020-01-27 12:10:39</time>
      </trkpt>
      <trkpt lat="45.57096" lon="6.59134">
        <ele>2236.9136</ele>
        <time>2020-01-27 12:10:40</time>
      </trkpt>
      <trkpt lat="45.57096" lon="6.59133">
        <ele>2236.7651</ele>
        <time>2020-01-27 12:10:41</time>
      </trkpt>
      <trkpt lat="45.57095" lon="6.59132">
        <ele>2236.9373</ele>
        <time>2020-01-27 12:10:42</time>
      </trkpt>
      <trkpt lat="45.57095" lon="6.59132">
        <ele>2237.2136</ele>
        <time>2020-01-27 12:10:43</time>
      </trkpt>
      <trkpt lat="45.57095" lon="6.59131">
        <ele>2236.5444</ele>
        <time>2020-01-27 12:10:44</time>
      </trkpt>
      <trkpt lat="45.57095" lon="6.59131">
        <ele>2236.0015</ele>
        <time>2020-01-27 12:10:45</time>
      </trkpt>
      <trkpt lat="45.57095" lon="6.5913">
        <ele>2237.1204</ele>
        <time>2020-01-27 12:10:46</time>
      </trkpt>
      <trkpt lat="45.57094" lon="6.59128">
        <ele>2237.9905</ele>
        <time>2020-01-27 12:10:48</time>
      </trkpt>
      <trkpt lat="45.57094" lon="6.59128">
        <ele>2237.9468</ele>
        <time>2020-01-27 12:10:49</time>
      </trkpt>
      <trkpt lat="45.57094" lon="6.59127">
        <ele>2238.466</ele>
        <time>2020-01-27 12:10:50</time>
      </trkpt>
      <trkpt lat="45.57094" lon="6.59126">
        <ele>2238.4958</ele>
        <time>2020-01-27 12:10:51</time>
      </trkpt>
      <trkpt lat="45.57094" lon="6.59125">
        <ele>2239.358</ele>
        <time>2020-01-27 12:10:52</time>
      </trkpt>
      <trkpt lat="45.57094" lon="6.59124">
        <ele>2239.8872</ele>
        <time>2020-01-27 12:10:53</time>
      </trkpt>
      <trkpt lat="45.57094" lon="6.59123">
        <ele>2240.4385</ele>
        <time>2020-01-27 12:10:54</time>
      </trkpt>
      <trkpt lat="45.57095" lon="6.59122">
        <ele>2241.1536</ele>
        <time>2020-01-27 12:10:55</time>
      </trkpt>
      <trkpt lat="45.57095" lon="6.59121">
        <ele>2241.0562</ele>
        <time>2020-01-27 12:10:56</time>
      </trkpt>
      <trkpt lat="45.57096" lon="6.5912">
        <ele>2241.3381</ele>
        <time>2020-01-27 12:10:57</time>
      </trkpt>
      <trkpt lat="45.57096" lon="6.59119">
        <ele>2241.7876</ele>
        <time>2020-01-27 12:10:58</time>
      </trkpt>
      <trkpt lat="45.57096" lon="6.59118">
        <ele>2242.7764</ele>
        <time>2020-01-27 12:10:59</time>
      </trkpt>
      <trkpt lat="45.57096" lon="6.59118">
        <ele>2243.6826</ele>
        <time>2020-01-27 12:11:00</time>
      </trkpt>
      <trkpt lat="45.57097" lon="6.59117">
        <ele>2243.9055</ele>
        <time>2020-01-27 12:11:01</time>
      </trkpt>
      <trkpt lat="45.57097" lon="6.59116">
        <ele>2243.4756</ele>
        <time>2020-01-27 12:11:02</time>
      </trkpt>
      <trkpt lat="45.57097" lon="6.59115">
        <ele>2243.7168</ele>
        <time>2020-01-27 12:11:03</time>
      </trkpt>
      <trkpt lat="45.57097" lon="6.59115">
        <ele>2244.1934</ele>
        <time>2020-01-27 12:11:04</time>
      </trkpt>
      <trkpt lat="45.57097" lon="6.59114">
        <ele>2243.9866</ele>
        <time>2020-01-27 12:11:05</time>
      </trkpt>
      <trkpt lat="45.57098" lon="6.59114">
        <ele>2243.2332</ele>
        <time>2020-01-27 12:11:07</time>
      </trkpt>
      <trkpt lat="45.57098" lon="6.59114">
        <ele>2242.825</ele>
        <time>2020-01-27 12:11:09</time>
      </trkpt>
      <trkpt lat="45.57098" lon="6.59113">
        <ele>2243.8987</ele>
        <time>2020-01-27 12:11:12</time>
      </trkpt>
      <trkpt lat="45.57098" lon="6.59111">
        <ele>2244.354</ele>
        <time>2020-01-27 12:11:15</time>
      </trkpt>
      <trkpt lat="45.57099" lon="6.5911">
        <ele>2245.2656</ele>
        <time>2020-01-27 12:11:18</time>
      </trkpt>
      <trkpt lat="45.57099" lon="6.5911">
        <ele>2245.2744</ele>
        <time>2020-01-27 12:11:19</time>
      </trkpt>
      <trkpt lat="45.571" lon="6.59109">
        <ele>2247.4297</ele>
        <time>2020-01-27 12:11:27</time>
      </trkpt>
      <trkpt lat="45.57102" lon="6.59108">
        <ele>2246.6326</ele>
        <time>2020-01-27 12:11:29</time>
      </trkpt>
      <trkpt lat="45.57103" lon="6.59108">
        <ele>2247.2383</ele>
        <time>2020-01-27 12:11:30</time>
      </trkpt>
      <trkpt lat="45.57103" lon="6.59108">
        <ele>2247.8513</ele>
        <time>2020-01-27 12:11:31</time>
      </trkpt>
      <trkpt lat="45.57104" lon="6.59108">
        <ele>2245.8594</ele>
        <time>2020-01-27 12:11:35</time>
      </trkpt>
      <trkpt lat="45.57104" lon="6.59108">
        <ele>2246.8372</ele>
        <time>2020-01-27 12:11:36</time>
      </trkpt>
      <trkpt lat="45.57106" lon="6.59107">
        <ele>2248.1177</ele>
        <time>2020-01-27 12:11:41</time>
      </trkpt>
      <trkpt lat="45.57106" lon="6.59108">
        <ele>2248.6348</ele>
        <time>2020-01-27 12:11:42</time>
      </trkpt>
      <trkpt lat="45.57107" lon="6.59108">
        <ele>2248.8823</ele>
        <time>2020-01-27 12:11:43</time>
      </trkpt>
      <trkpt lat="45.57107" lon="6.59108">
        <ele>2248.8335</ele>
        <time>2020-01-27 12:11:44</time>
      </trkpt>
      <trkpt lat="45.57108" lon="6.59108">
        <ele>2249.0789</ele>
        <time>2020-01-27 12:11:45</time>
      </trkpt>
      <trkpt lat="45.57108" lon="6.59108">
        <ele>2249.551</ele>
        <time>2020-01-27 12:11:47</time>
      </trkpt>
      <trkpt lat="45.57108" lon="6.59108">
        <ele>2250.1477</ele>
        <time>2020-01-27 12:11:48</time>
      </trkpt>
      <trkpt lat="45.57109" lon="6.59107">
        <ele>2249.8865</ele>
        <time>2020-01-27 12:11:49</time>
      </trkpt>
      <trkpt lat="45.57109" lon="6.59107">
        <ele>2250.0752</ele>
        <time>2020-01-27 12:11:50</time>
      </trkpt>
      <trkpt lat="45.5711" lon="6.59107">
        <ele>2250.619</ele>
        <time>2020-01-27 12:11:51</time>
      </trkpt>
      <trkpt lat="45.5711" lon="6.59106">
        <ele>2250.1426</ele>
        <time>2020-01-27 12:11:52</time>
      </trkpt>
      <trkpt lat="45.57111" lon="6.59106">
        <ele>2250.9727</ele>
        <time>2020-01-27 12:11:53</time>
      </trkpt>
      <trkpt lat="45.57111" lon="6.59105">
        <ele>2251.5151</ele>
        <time>2020-01-27 12:11:54</time>
      </trkpt>
      <trkpt lat="45.57111" lon="6.59104">
        <ele>2250.8767</ele>
        <time>2020-01-27 12:11:56</time>
      </trkpt>
      <trkpt lat="45.57112" lon="6.59104">
        <ele>2251.3545</ele>
        <time>2020-01-27 12:11:57</time>
      </trkpt>
      <trkpt lat="45.57113" lon="6.59103">
        <ele>2252.4846</ele>
        <time>2020-01-27 12:12:00</time>
      </trkpt>
      <trkpt lat="45.57113" lon="6.59102">
        <ele>2252.375</ele>
        <time>2020-01-27 12:12:01</time>
      </trkpt>
      <trkpt lat="45.57113" lon="6.59101">
        <ele>2252.647</ele>
        <time>2020-01-27 12:12:02</time>
      </trkpt>
      <trkpt lat="45.57114" lon="6.59101">
        <ele>2252.5337</ele>
        <time>2020-01-27 12:12:03</time>
      </trkpt>
      <trkpt lat="45.57114" lon="6.59099">
        <ele>2252.0576</ele>
        <time>2020-01-27 12:12:15</time>
      </trkpt>
      <trkpt lat="45.57114" lon="6.59099">
        <ele>2252.44</ele>
        <time>2020-01-27 12:12:16</time>
      </trkpt>
      <trkpt lat="45.57115" lon="6.59098">
        <ele>2252.5342</ele>
        <time>2020-01-27 12:12:17</time>
      </trkpt>
      <trkpt lat="45.57115" lon="6.59098">
        <ele>2252.8965</ele>
        <time>2020-01-27 12:12:18</time>
      </trkpt>
      <trkpt lat="45.57116" lon="6.59097">
        <ele>2252.7734</ele>
        <time>2020-01-27 12:12:19</time>
      </trkpt>
      <trkpt lat="45.57117" lon="6.59096">
        <ele>2252.9695</ele>
        <time>2020-01-27 12:12:20</time>
      </trkpt>
      <trkpt lat="45.57117" lon="6.59096">
        <ele>2253.6523</ele>
        <time>2020-01-27 12:12:21</time>
      </trkpt>
      <trkpt lat="45.57119" lon="6.59096">
        <ele>2254.1345</ele>
        <time>2020-01-27 12:12:23</time>
      </trkpt>
      <trkpt lat="45.57119" lon="6.59095">
        <ele>2253.7112</ele>
        <time>2020-01-27 12:12:24</time>
      </trkpt>
      <trkpt lat="45.5712" lon="6.59095">
        <ele>2253.8347</ele>
        <time>2020-01-27 12:12:25</time>
      </trkpt>
      <trkpt lat="45.57121" lon="6.59095">
        <ele>2254.3665</ele>
        <time>2020-01-27 12:12:26</time>
      </trkpt>
      <trkpt lat="45.57122" lon="6.59094">
        <ele>2254.3633</ele>
        <time>2020-01-27 12:12:27</time>
      </trkpt>
      <trkpt lat="45.57122" lon="6.59094">
        <ele>2254.3013</ele>
        <time>2020-01-27 12:12:28</time>
      </trkpt>
      <trkpt lat="45.57122" lon="6.59094">
        <ele>2254.6196</ele>
        <time>2020-01-27 12:12:29</time>
      </trkpt>
      <trkpt lat="45.57123" lon="6.59093">
        <ele>2255.693</ele>
        <time>2020-01-27 12:12:31</time>
      </trkpt>
      <trkpt lat="45.57124" lon="6.59093">
        <ele>2256.2312</ele>
        <time>2020-01-27 12:12:33</time>
      </trkpt>
      <trkpt lat="45.57127" lon="6.59091">
        <ele>2256.3896</ele>
        <time>2020-01-27 12:12:36</time>
      </trkpt>
      <trkpt lat="45.57127" lon="6.59091">
        <ele>2257.0974</ele>
        <time>2020-01-27 12:12:37</time>
      </trkpt>
      <trkpt lat="45.57128" lon="6.59091">
        <ele>2257.0547</ele>
        <time>2020-01-27 12:12:39</time>
      </trkpt>
      <trkpt lat="45.57128" lon="6.59091">
        <ele>2257.2668</ele>
        <time>2020-01-27 12:12:42</time>
      </trkpt>
      <trkpt lat="45.57128" lon="6.5909">
        <ele>2257.317</ele>
        <time>2020-01-27 12:12:43</time>
      </trkpt>
      <trkpt lat="45.57129" lon="6.5909">
        <ele>2258.1333</ele>
        <time>2020-01-27 12:12:45</time>
      </trkpt>
      <trkpt lat="45.57129" lon="6.59089">
        <ele>2256.9814</ele>
        <time>2020-01-27 12:12:46</time>
      </trkpt>
      <trkpt lat="45.57128" lon="6.59088">
        <ele>2256.8608</ele>
        <time>2020-01-27 12:12:47</time>
      </trkpt>
      <trkpt lat="45.57129" lon="6.59088">
        <ele>2257.36</ele>
        <time>2020-01-27 12:12:48</time>
      </trkpt>
      <trkpt lat="45.57129" lon="6.59087">
        <ele>2257.4465</ele>
        <time>2020-01-27 12:12:49</time>
      </trkpt>
      <trkpt lat="45.5713" lon="6.59087">
        <ele>2258.0066</ele>
        <time>2020-01-27 12:12:50</time>
      </trkpt>
      <trkpt lat="45.5713" lon="6.59087">
        <ele>2258.3083</ele>
        <time>2020-01-27 12:12:51</time>
      </trkpt>
      <trkpt lat="45.57131" lon="6.59087">
        <ele>2258.7632</ele>
        <time>2020-01-27 12:13:22</time>
      </trkpt>
      <trkpt lat="45.57131" lon="6.59087">
        <ele>2257.848</ele>
        <time>2020-01-27 12:13:30</time>
      </trkpt>
      <trkpt lat="45.57131" lon="6.59087">
        <ele>2259.1702</ele>
        <time>2020-01-27 12:13:31</time>
      </trkpt>
      <trkpt lat="45.57133" lon="6.59088">
        <ele>2260.1924</ele>
        <time>2020-01-27 12:13:47</time>
      </trkpt>
      <trkpt lat="45.57133" lon="6.59088">
        <ele>2259.972</ele>
        <time>2020-01-27 12:13:48</time>
      </trkpt>
      <trkpt lat="45.57134" lon="6.59088">
        <ele>2260.3174</ele>
        <time>2020-01-27 12:13:49</time>
      </trkpt>
      <trkpt lat="45.57134" lon="6.59088">
        <ele>2260.4038</ele>
        <time>2020-01-27 12:13:50</time>
      </trkpt>
      <trkpt lat="45.57135" lon="6.59087">
        <ele>2261.134</ele>
        <time>2020-01-27 12:13:51</time>
      </trkpt>
      <trkpt lat="45.57135" lon="6.59087">
        <ele>2260.5613</ele>
        <time>2020-01-27 12:13:52</time>
      </trkpt>
      <trkpt lat="45.57135" lon="6.59087">
        <ele>2260.9163</ele>
        <time>2020-01-27 12:13:53</time>
      </trkpt>
      <trkpt lat="45.57136" lon="6.59087">
        <ele>2260.8513</ele>
        <time>2020-01-27 12:13:54</time>
      </trkpt>
      <trkpt lat="45.57136" lon="6.59087">
        <ele>2261.5044</ele>
        <time>2020-01-27 12:13:58</time>
      </trkpt>
      <trkpt lat="45.57137" lon="6.59087">
        <ele>2261.7834</ele>
        <time>2020-01-27 12:13:59</time>
      </trkpt>
      <trkpt lat="45.57137" lon="6.59088">
        <ele>2262.9956</ele>
        <time>2020-01-27 12:14:01</time>
      </trkpt>
      <trkpt lat="45.57138" lon="6.59088">
        <ele>2262.6416</ele>
        <time>2020-01-27 12:14:02</time>
      </trkpt>
      <trkpt lat="45.57138" lon="6.59088">
        <ele>2263.0122</ele>
        <time>2020-01-27 12:14:03</time>
      </trkpt>
      <trkpt lat="45.57139" lon="6.5909">
        <ele>2260.2964</ele>
        <time>2020-01-27 12:14:07</time>
      </trkpt>
      <trkpt lat="45.5714" lon="6.59091">
        <ele>2261.593</ele>
        <time>2020-01-27 12:14:08</time>
      </trkpt>
      <trkpt lat="45.57144" lon="6.59093">
        <ele>2265.3438</ele>
        <time>2020-01-27 12:14:15</time>
      </trkpt>
      <trkpt lat="45.57146" lon="6.59091">
        <ele>2264.879</ele>
        <time>2020-01-27 12:14:22</time>
      </trkpt>
      <trkpt lat="45.57146" lon="6.59091">
        <ele>2264.3945</ele>
        <time>2020-01-27 12:14:24</time>
      </trkpt>
      <trkpt lat="45.57146" lon="6.5909">
        <ele>2266.04</ele>
        <time>2020-01-27 12:14:30</time>
      </trkpt>
      <trkpt lat="45.57147" lon="6.5909">
        <ele>2266.563</ele>
        <time>2020-01-27 12:14:31</time>
      </trkpt>
      <trkpt lat="45.57147" lon="6.59089">
        <ele>2267.2031</ele>
        <time>2020-01-27 12:14:32</time>
      </trkpt>
      <trkpt lat="45.5715" lon="6.59087">
        <ele>2268.1863</ele>
        <time>2020-01-27 12:14:35</time>
      </trkpt>
      <trkpt lat="45.57151" lon="6.59085">
        <ele>2269.8398</ele>
        <time>2020-01-27 12:14:38</time>
      </trkpt>
      <trkpt lat="45.57153" lon="6.59082">
        <ele>2269.9382</ele>
        <time>2020-01-27 12:14:44</time>
      </trkpt>
      <trkpt lat="45.57154" lon="6.59081">
        <ele>2268.8418</ele>
        <time>2020-01-27 12:14:45</time>
      </trkpt>
      <trkpt lat="45.57154" lon="6.59081">
        <ele>2269.0752</ele>
        <time>2020-01-27 12:14:46</time>
      </trkpt>
      <trkpt lat="45.57155" lon="6.5908">
        <ele>2272.0818</ele>
        <time>2020-01-27 12:14:53</time>
      </trkpt>
      <trkpt lat="45.57155" lon="6.5908">
        <ele>2271.7197</ele>
        <time>2020-01-27 12:14:54</time>
      </trkpt>
      <trkpt lat="45.57156" lon="6.59079">
        <ele>2271.816</ele>
        <time>2020-01-27 12:14:55</time>
      </trkpt>
      <trkpt lat="45.57156" lon="6.59078">
        <ele>2271.3577</ele>
        <time>2020-01-27 12:14:56</time>
      </trkpt>
      <trkpt lat="45.57157" lon="6.59077">
        <ele>2270.3596</ele>
        <time>2020-01-27 12:14:57</time>
      </trkpt>
      <trkpt lat="45.57158" lon="6.59076">
        <ele>2271.1707</ele>
        <time>2020-01-27 12:14:58</time>
      </trkpt>
      <trkpt lat="45.57162" lon="6.59075">
        <ele>2271.8423</ele>
        <time>2020-01-27 12:15:04</time>
      </trkpt>
      <trkpt lat="45.57162" lon="6.59075">
        <ele>2272.817</ele>
        <time>2020-01-27 12:15:05</time>
      </trkpt>
      <trkpt lat="45.57163" lon="6.59075">
        <ele>2273.046</ele>
        <time>2020-01-27 12:15:06</time>
      </trkpt>
      <trkpt lat="45.57164" lon="6.59074">
        <ele>2273.5103</ele>
        <time>2020-01-27 12:15:07</time>
      </trkpt>
      <trkpt lat="45.57164" lon="6.59074">
        <ele>2273.8792</ele>
        <time>2020-01-27 12:15:08</time>
      </trkpt>
      <trkpt lat="45.57167" lon="6.59073">
        <ele>2274.0984</ele>
        <time>2020-01-27 12:15:16</time>
      </trkpt>
      <trkpt lat="45.57169" lon="6.59071">
        <ele>2275.7393</ele>
        <time>2020-01-27 12:15:18</time>
      </trkpt>
      <trkpt lat="45.5717" lon="6.5907">
        <ele>2273.8762</ele>
        <time>2020-01-27 12:15:19</time>
      </trkpt>
      <trkpt lat="45.57171" lon="6.59069">
        <ele>2274.7593</ele>
        <time>2020-01-27 12:15:20</time>
      </trkpt>
      <trkpt lat="45.57171" lon="6.59068">
        <ele>2273.8804</ele>
        <time>2020-01-27 12:15:21</time>
      </trkpt>
      <trkpt lat="45.57172" lon="6.59067">
        <ele>2274.7288</ele>
        <time>2020-01-27 12:15:22</time>
      </trkpt>
      <trkpt lat="45.57172" lon="6.59067">
        <ele>2275.2024</ele>
        <time>2020-01-27 12:15:23</time>
      </trkpt>
      <trkpt lat="45.57173" lon="6.59066">
        <ele>2275.2324</ele>
        <time>2020-01-27 12:15:24</time>
      </trkpt>
      <trkpt lat="45.57174" lon="6.59066">
        <ele>2275.9355</ele>
        <time>2020-01-27 12:15:25</time>
      </trkpt>
      <trkpt lat="45.57174" lon="6.59065">
        <ele>2275.827</ele>
        <time>2020-01-27 12:15:26</time>
      </trkpt>
      <trkpt lat="45.57174" lon="6.59064">
        <ele>2275.7195</ele>
        <time>2020-01-27 12:15:27</time>
      </trkpt>
      <trkpt lat="45.57175" lon="6.59063">
        <ele>2276.8328</ele>
        <time>2020-01-27 12:15:35</time>
      </trkpt>
      <trkpt lat="45.57176" lon="6.5906">
        <ele>2276.7095</ele>
        <time>2020-01-27 12:15:37</time>
      </trkpt>
      <trkpt lat="45.57176" lon="6.59059">
        <ele>2276.7034</ele>
        <time>2020-01-27 12:15:38</time>
      </trkpt>
      <trkpt lat="45.57177" lon="6.59058">
        <ele>2277.7651</ele>
        <time>2020-01-27 12:15:39</time>
      </trkpt>
      <trkpt lat="45.57178" lon="6.59057">
        <ele>2277.8152</ele>
        <time>2020-01-27 12:15:40</time>
      </trkpt>
      <trkpt lat="45.57179" lon="6.59056">
        <ele>2278.759</ele>
        <time>2020-01-27 12:15:41</time>
      </trkpt>
      <trkpt lat="45.57179" lon="6.59056">
        <ele>2278.0405</ele>
        <time>2020-01-27 12:15:42</time>
      </trkpt>
      <trkpt lat="45.57179" lon="6.59055">
        <ele>2278.8774</ele>
        <time>2020-01-27 12:15:43</time>
      </trkpt>
      <trkpt lat="45.5718" lon="6.59054">
        <ele>2279.1702</ele>
        <time>2020-01-27 12:15:44</time>
      </trkpt>
      <trkpt lat="45.57181" lon="6.59053">
        <ele>2279.8025</ele>
        <time>2020-01-27 12:15:45</time>
      </trkpt>
      <trkpt lat="45.57181" lon="6.59053">
        <ele>2280.1333</ele>
        <time>2020-01-27 12:15:46</time>
      </trkpt>
      <trkpt lat="45.57182" lon="6.59052">
        <ele>2280.002</ele>
        <time>2020-01-27 12:15:47</time>
      </trkpt>
      <trkpt lat="45.57182" lon="6.59051">
        <ele>2280.0688</ele>
        <time>2020-01-27 12:15:48</time>
      </trkpt>
      <trkpt lat="45.57183" lon="6.5905">
        <ele>2279.985</ele>
        <time>2020-01-27 12:15:49</time>
      </trkpt>
      <trkpt lat="45.57184" lon="6.59049">
        <ele>2280.4336</ele>
        <time>2020-01-27 12:15:50</time>
      </trkpt>
      <trkpt lat="45.57184" lon="6.59049">
        <ele>2281.039</ele>
        <time>2020-01-27 12:15:53</time>
      </trkpt>
      <trkpt lat="45.57184" lon="6.59048">
        <ele>2280.4573</ele>
        <time>2020-01-27 12:15:54</time>
      </trkpt>
      <trkpt lat="45.57184" lon="6.59047">
        <ele>2280.8677</ele>
        <time>2020-01-27 12:15:57</time>
      </trkpt>
      <trkpt lat="45.57184" lon="6.59047">
        <ele>2280.7324</ele>
        <time>2020-01-27 12:15:58</time>
      </trkpt>
      <trkpt lat="45.57184" lon="6.59046">
        <ele>2279.6895</ele>
        <time>2020-01-27 12:16:02</time>
      </trkpt>
      <trkpt lat="45.57184" lon="6.59045">
        <ele>2279.675</ele>
        <time>2020-01-27 12:16:03</time>
      </trkpt>
      <trkpt lat="45.57188" lon="6.59038">
        <ele>2280.1436</ele>
        <time>2020-01-27 12:16:11</time>
      </trkpt>
      <trkpt lat="45.57188" lon="6.59037">
        <ele>2280.8093</ele>
        <time>2020-01-27 12:16:12</time>
      </trkpt>
      <trkpt lat="45.57188" lon="6.59037">
        <ele>2281.3484</ele>
        <time>2020-01-27 12:16:13</time>
      </trkpt>
      <trkpt lat="45.57191" lon="6.59034">
        <ele>2282.2317</ele>
        <time>2020-01-27 12:16:17</time>
      </trkpt>
      <trkpt lat="45.57191" lon="6.59033">
        <ele>2281.9858</ele>
        <time>2020-01-27 12:16:18</time>
      </trkpt>
      <trkpt lat="45.57192" lon="6.59032">
        <ele>2281.8367</ele>
        <time>2020-01-27 12:16:19</time>
      </trkpt>
      <trkpt lat="45.57192" lon="6.59032">
        <ele>2281.617</ele>
        <time>2020-01-27 12:16:21</time>
      </trkpt>
      <trkpt lat="45.57192" lon="6.59032">
        <ele>2282.1858</ele>
        <time>2020-01-27 12:16:22</time>
      </trkpt>
      <trkpt lat="45.57193" lon="6.59031">
        <ele>2282.7214</ele>
        <time>2020-01-27 12:16:25</time>
      </trkpt>
      <trkpt lat="45.57194" lon="6.5903">
        <ele>2282.9797</ele>
        <time>2020-01-27 12:16:26</time>
      </trkpt>
      <trkpt lat="45.57195" lon="6.59028">
        <ele>2283.3716</ele>
        <time>2020-01-27 12:16:32</time>
      </trkpt>
      <trkpt lat="45.57195" lon="6.59028">
        <ele>2283.8872</ele>
        <time>2020-01-27 12:16:33</time>
      </trkpt>
      <trkpt lat="45.57196" lon="6.59027">
        <ele>2283.742</ele>
        <time>2020-01-27 12:16:34</time>
      </trkpt>
      <trkpt lat="45.57199" lon="6.59023">
        <ele>2284.671</ele>
        <time>2020-01-27 12:16:41</time>
      </trkpt>
      <trkpt lat="45.57199" lon="6.59022">
        <ele>2285.1084</ele>
        <time>2020-01-27 12:16:42</time>
      </trkpt>
      <trkpt lat="45.572" lon="6.59021">
        <ele>2284.8853</ele>
        <time>2020-01-27 12:16:43</time>
      </trkpt>
      <trkpt lat="45.572" lon="6.59021">
        <ele>2285.7205</ele>
        <time>2020-01-27 12:16:44</time>
      </trkpt>
      <trkpt lat="45.57201" lon="6.5902">
        <ele>2286.4253</ele>
        <time>2020-01-27 12:16:45</time>
      </trkpt>
      <trkpt lat="45.57201" lon="6.59019">
        <ele>2286.9495</ele>
        <time>2020-01-27 12:16:46</time>
      </trkpt>
      <trkpt lat="45.57202" lon="6.59017">
        <ele>2287.335</ele>
        <time>2020-01-27 12:16:48</time>
      </trkpt>
      <trkpt lat="45.57202" lon="6.59017">
        <ele>2287.2207</ele>
        <time>2020-01-27 12:16:49</time>
      </trkpt>
      <trkpt lat="45.57203" lon="6.59016">
        <ele>2287.4033</ele>
        <time>2020-01-27 12:16:50</time>
      </trkpt>
      <trkpt lat="45.57204" lon="6.59014">
        <ele>2287.5266</ele>
        <time>2020-01-27 12:16:53</time>
      </trkpt>
      <trkpt lat="45.57204" lon="6.59012">
        <ele>2286.9666</ele>
        <time>2020-01-27 12:16:56</time>
      </trkpt>
      <trkpt lat="45.57205" lon="6.59011">
        <ele>2287.656</ele>
        <time>2020-01-27 12:16:59</time>
      </trkpt>
      <trkpt lat="45.57205" lon="6.59011">
        <ele>2287.815</ele>
        <time>2020-01-27 12:17:00</time>
      </trkpt>
      <trkpt lat="45.57205" lon="6.5901">
        <ele>2287.621</ele>
        <time>2020-01-27 12:17:01</time>
      </trkpt>
      <trkpt lat="45.57205" lon="6.5901">
        <ele>2287.1877</ele>
        <time>2020-01-27 12:17:02</time>
      </trkpt>
      <trkpt lat="45.57205" lon="6.59009">
        <ele>2288.3782</ele>
        <time>2020-01-27 12:17:03</time>
      </trkpt>
      <trkpt lat="45.57205" lon="6.59009">
        <ele>2288.5881</ele>
        <time>2020-01-27 12:17:04</time>
      </trkpt>
      <trkpt lat="45.57206" lon="6.59008">
        <ele>2289.1497</ele>
        <time>2020-01-27 12:17:05</time>
      </trkpt>
      <trkpt lat="45.57206" lon="6.59008">
        <ele>2289.3733</ele>
        <time>2020-01-27 12:17:06</time>
      </trkpt>
      <trkpt lat="45.57206" lon="6.59007">
        <ele>2289.6387</ele>
        <time>2020-01-27 12:17:07</time>
      </trkpt>
      <trkpt lat="45.57206" lon="6.59007">
        <ele>2289.6995</ele>
        <time>2020-01-27 12:17:08</time>
      </trkpt>
      <trkpt lat="45.57206" lon="6.59006">
        <ele>2290.5593</ele>
        <time>2020-01-27 12:17:09</time>
      </trkpt>
      <trkpt lat="45.57206" lon="6.59006">
        <ele>2290.5125</ele>
        <time>2020-01-27 12:17:10</time>
      </trkpt>
      <trkpt lat="45.57206" lon="6.59005">
        <ele>2290.4148</ele>
        <time>2020-01-27 12:17:11</time>
      </trkpt>
      <trkpt lat="45.57206" lon="6.59005">
        <ele>2290.6794</ele>
        <time>2020-01-27 12:17:12</time>
      </trkpt>
      <trkpt lat="45.57206" lon="6.59005">
        <ele>2290.4497</ele>
        <time>2020-01-27 12:17:13</time>
      </trkpt>
      <trkpt lat="45.57207" lon="6.59004">
        <ele>2290.8203</ele>
        <time>2020-01-27 12:17:14</time>
      </trkpt>
      <trkpt lat="45.57207" lon="6.59003">
        <ele>2290.6294</ele>
        <time>2020-01-27 12:17:15</time>
      </trkpt>
      <trkpt lat="45.57208" lon="6.59002">
        <ele>2290.5276</ele>
        <time>2020-01-27 12:17:16</time>
      </trkpt>
      <trkpt lat="45.5721" lon="6.59001">
        <ele>2291.791</ele>
        <time>2020-01-27 12:17:21</time>
      </trkpt>
      <trkpt lat="45.57211" lon="6.59">
        <ele>2292.0198</ele>
        <time>2020-01-27 12:17:22</time>
      </trkpt>
      <trkpt lat="45.57212" lon="6.59">
        <ele>2293.3762</ele>
        <time>2020-01-27 12:17:24</time>
      </trkpt>
      <trkpt lat="45.57213" lon="6.59">
        <ele>2293.814</ele>
        <time>2020-01-27 12:17:25</time>
      </trkpt>
      <trkpt lat="45.5722" lon="6.58996">
        <ele>2293.7334</ele>
        <time>2020-01-27 12:17:35</time>
      </trkpt>
      <trkpt lat="45.57222" lon="6.58995">
        <ele>2293.152</ele>
        <time>2020-01-27 12:17:38</time>
      </trkpt>
      <trkpt lat="45.57223" lon="6.58996">
        <ele>2293.9817</ele>
        <time>2020-01-27 12:17:40</time>
      </trkpt>
      <trkpt lat="45.57232" lon="6.58995">
        <ele>2296.6863</ele>
        <time>2020-01-27 12:17:53</time>
      </trkpt>
      <trkpt lat="45.57233" lon="6.58995">
        <ele>2295.8735</ele>
        <time>2020-01-27 12:17:54</time>
      </trkpt>
      <trkpt lat="45.57244" lon="6.58995">
        <ele>2297.4922</ele>
        <time>2020-01-27 12:18:06</time>
      </trkpt>
      <trkpt lat="45.57248" lon="6.58994">
        <ele>2296.4907</ele>
        <time>2020-01-27 12:18:11</time>
      </trkpt>
      <trkpt lat="45.57249" lon="6.58995">
        <ele>2296.0854</ele>
        <time>2020-01-27 12:18:12</time>
      </trkpt>
      <trkpt lat="45.5725" lon="6.58995">
        <ele>2295.9224</ele>
        <time>2020-01-27 12:18:13</time>
      </trkpt>
      <trkpt lat="45.57253" lon="6.58993">
        <ele>2293.4656</ele>
        <time>2020-01-27 12:18:17</time>
      </trkpt>
      <trkpt lat="45.57253" lon="6.58992">
        <ele>2293.9526</ele>
        <time>2020-01-27 12:18:19</time>
      </trkpt>
      <trkpt lat="45.57253" lon="6.58992">
        <ele>2294.3313</ele>
        <time>2020-01-27 12:18:20</time>
      </trkpt>
      <trkpt lat="45.57254" lon="6.5899">
        <ele>2295.1643</ele>
        <time>2020-01-27 12:18:23</time>
      </trkpt>
      <trkpt lat="45.57254" lon="6.5899">
        <ele>2294.8909</ele>
        <time>2020-01-27 12:18:24</time>
      </trkpt>
      <trkpt lat="45.57254" lon="6.5899">
        <ele>2294.7544</ele>
        <time>2020-01-27 12:18:25</time>
      </trkpt>
      <trkpt lat="45.57255" lon="6.5899">
        <ele>2296.1265</ele>
        <time>2020-01-27 12:18:26</time>
      </trkpt>
      <trkpt lat="45.57255" lon="6.58989">
        <ele>2296.027</ele>
        <time>2020-01-27 12:18:27</time>
      </trkpt>
      <trkpt lat="45.57255" lon="6.58988">
        <ele>2295.6907</ele>
        <time>2020-01-27 12:18:28</time>
      </trkpt>
      <trkpt lat="45.57255" lon="6.58987">
        <ele>2295.419</ele>
        <time>2020-01-27 12:18:29</time>
      </trkpt>
      <trkpt lat="45.57256" lon="6.58987">
        <ele>2295.5657</ele>
        <time>2020-01-27 12:18:30</time>
      </trkpt>
      <trkpt lat="45.57256" lon="6.58987">
        <ele>2295.1262</ele>
        <time>2020-01-27 12:18:31</time>
      </trkpt>
      <trkpt lat="45.57256" lon="6.58985">
        <ele>2295.1633</ele>
        <time>2020-01-27 12:18:34</time>
      </trkpt>
      <trkpt lat="45.57257" lon="6.58984">
        <ele>2295.4993</ele>
        <time>2020-01-27 12:18:36</time>
      </trkpt>
      <trkpt lat="45.57259" lon="6.58983">
        <ele>2295.6082</ele>
        <time>2020-01-27 12:18:39</time>
      </trkpt>
      <trkpt lat="45.57261" lon="6.58983">
        <ele>2295.7112</ele>
        <time>2020-01-27 12:18:42</time>
      </trkpt>
      <trkpt lat="45.57262" lon="6.58982">
        <ele>2297.023</ele>
        <time>2020-01-27 12:18:43</time>
      </trkpt>
      <trkpt lat="45.57262" lon="6.58982">
        <ele>2297.0923</ele>
        <time>2020-01-27 12:18:44</time>
      </trkpt>
      <trkpt lat="45.57263" lon="6.58982">
        <ele>2297.879</ele>
        <time>2020-01-27 12:18:47</time>
      </trkpt>
      <trkpt lat="45.57263" lon="6.58982">
        <ele>2298.0725</ele>
        <time>2020-01-27 12:18:48</time>
      </trkpt>
      <trkpt lat="45.57264" lon="6.58982">
        <ele>2297.7537</ele>
        <time>2020-01-27 12:18:50</time>
      </trkpt>
      <trkpt lat="45.57265" lon="6.58979">
        <ele>2297.2922</ele>
        <time>2020-01-27 12:18:53</time>
      </trkpt>
      <trkpt lat="45.57265" lon="6.58978">
        <ele>2297.2764</ele>
        <time>2020-01-27 12:18:56</time>
      </trkpt>
      <trkpt lat="45.57264" lon="6.58977">
        <ele>2297.658</ele>
        <time>2020-01-27 12:18:57</time>
      </trkpt>
      <trkpt lat="45.57264" lon="6.58976">
        <ele>2299.0225</ele>
        <time>2020-01-27 12:18:59</time>
      </trkpt>
      <trkpt lat="45.57265" lon="6.58976">
        <ele>2299.1868</ele>
        <time>2020-01-27 12:19:00</time>
      </trkpt>
      <trkpt lat="45.57265" lon="6.58975">
        <ele>2302.0754</ele>
        <time>2020-01-27 12:19:07</time>
      </trkpt>
      <trkpt lat="45.57264" lon="6.58974">
        <ele>2302.2131</ele>
        <time>2020-01-27 12:19:10</time>
      </trkpt>
      <trkpt lat="45.57263" lon="6.58973">
        <ele>2302.3015</ele>
        <time>2020-01-27 12:19:11</time>
      </trkpt>
      <trkpt lat="45.57263" lon="6.58972">
        <ele>2301.701</ele>
        <time>2020-01-27 12:19:14</time>
      </trkpt>
      <trkpt lat="45.57262" lon="6.58971">
        <ele>2301.5173</ele>
        <time>2020-01-27 12:19:19</time>
      </trkpt>
      <trkpt lat="45.57262" lon="6.5897">
        <ele>2301.2861</ele>
        <time>2020-01-27 12:19:20</time>
      </trkpt>
      <trkpt lat="45.5726" lon="6.58969">
        <ele>2302.1113</ele>
        <time>2020-01-27 12:19:24</time>
      </trkpt>
      <trkpt lat="45.57259" lon="6.58968">
        <ele>2302.1804</ele>
        <time>2020-01-27 12:19:25</time>
      </trkpt>
      <trkpt lat="45.57259" lon="6.58967">
        <ele>2302.9573</ele>
        <time>2020-01-27 12:19:27</time>
      </trkpt>
      <trkpt lat="45.57259" lon="6.58965">
        <ele>2304.0112</ele>
        <time>2020-01-27 12:19:29</time>
      </trkpt>
      <trkpt lat="45.5726" lon="6.58964">
        <ele>2304.5325</ele>
        <time>2020-01-27 12:19:36</time>
      </trkpt>
      <trkpt lat="45.5726" lon="6.58964">
        <ele>2303.5876</ele>
        <time>2020-01-27 12:19:37</time>
      </trkpt>
      <trkpt lat="45.57259" lon="6.58964">
        <ele>2304.4446</ele>
        <time>2020-01-27 12:19:42</time>
      </trkpt>
      <trkpt lat="45.57258" lon="6.58965">
        <ele>2304.0515</ele>
        <time>2020-01-27 12:19:43</time>
      </trkpt>
      <trkpt lat="45.57259" lon="6.58965">
        <ele>2305.0508</ele>
        <time>2020-01-27 12:19:56</time>
      </trkpt>
      <trkpt lat="45.57259" lon="6.58965">
        <ele>2305.6328</ele>
        <time>2020-01-27 12:19:59</time>
      </trkpt>
      <trkpt lat="45.57261" lon="6.58965">
        <ele>2306.9512</ele>
        <time>2020-01-27 12:20:05</time>
      </trkpt>
      <trkpt lat="45.57261" lon="6.58965">
        <ele>2307.1162</ele>
        <time>2020-01-27 12:20:06</time>
      </trkpt>
      <trkpt lat="45.57261" lon="6.58964">
        <ele>2306.579</ele>
        <time>2020-01-27 12:20:11</time>
      </trkpt>
      <trkpt lat="45.57262" lon="6.58964">
        <ele>2306.258</ele>
        <time>2020-01-27 12:20:12</time>
      </trkpt>
      <trkpt lat="45.57262" lon="6.58964">
        <ele>2306.5945</ele>
        <time>2020-01-27 12:20:14</time>
      </trkpt>
      <trkpt lat="45.57262" lon="6.58964">
        <ele>2306.9614</ele>
        <time>2020-01-27 12:20:15</time>
      </trkpt>
      <trkpt lat="45.57266" lon="6.58962">
        <ele>2305.5054</ele>
        <time>2020-01-27 12:20:45</time>
      </trkpt>
      <trkpt lat="45.57265" lon="6.5896">
        <ele>2306.4048</ele>
        <time>2020-01-27 12:20:57</time>
      </trkpt>
      <trkpt lat="45.57265" lon="6.58959">
        <ele>2307.682</ele>
        <time>2020-01-27 12:20:58</time>
      </trkpt>
      <trkpt lat="45.57266" lon="6.58958">
        <ele>2308.7283</ele>
        <time>2020-01-27 12:21:00</time>
      </trkpt>
      <trkpt lat="45.57266" lon="6.58958">
        <ele>2308.4924</ele>
        <time>2020-01-27 12:21:01</time>
      </trkpt>
      <trkpt lat="45.57266" lon="6.58958">
        <ele>2308.4368</ele>
        <time>2020-01-27 12:21:02</time>
      </trkpt>
      <trkpt lat="45.57265" lon="6.58957">
        <ele>2308.9897</ele>
        <time>2020-01-27 12:21:04</time>
      </trkpt>
      <trkpt lat="45.57265" lon="6.58956">
        <ele>2309.1929</ele>
        <time>2020-01-27 12:21:05</time>
      </trkpt>
      <trkpt lat="45.57263" lon="6.58952">
        <ele>2309.4282</ele>
        <time>2020-01-27 12:21:09</time>
      </trkpt>
      <trkpt lat="45.57262" lon="6.58951">
        <ele>2309.86</ele>
        <time>2020-01-27 12:21:10</time>
      </trkpt>
      <trkpt lat="45.57262" lon="6.5895">
        <ele>2310.417</ele>
        <time>2020-01-27 12:21:11</time>
      </trkpt>
      <trkpt lat="45.57262" lon="6.5895">
        <ele>2310.959</ele>
        <time>2020-01-27 12:21:14</time>
      </trkpt>
      <trkpt lat="45.57262" lon="6.58949">
        <ele>2311.3176</ele>
        <time>2020-01-27 12:21:16</time>
      </trkpt>
      <trkpt lat="45.57261" lon="6.58948">
        <ele>2311.2092</ele>
        <time>2020-01-27 12:21:18</time>
      </trkpt>
      <trkpt lat="45.57261" lon="6.58948">
        <ele>2312.1697</ele>
        <time>2020-01-27 12:21:21</time>
      </trkpt>
      <trkpt lat="45.5726" lon="6.58947">
        <ele>2313.5142</ele>
        <time>2020-01-27 12:21:25</time>
      </trkpt>
      <trkpt lat="45.5726" lon="6.58946">
        <ele>2312.8223</ele>
        <time>2020-01-27 12:21:34</time>
      </trkpt>
      <trkpt lat="45.57259" lon="6.58946">
        <ele>2312.3274</ele>
        <time>2020-01-27 12:21:35</time>
      </trkpt>
      <trkpt lat="45.57259" lon="6.58945">
        <ele>2313.6072</ele>
        <time>2020-01-27 12:21:37</time>
      </trkpt>
      <trkpt lat="45.57259" lon="6.58944">
        <ele>2314.4182</ele>
        <time>2020-01-27 12:21:39</time>
      </trkpt>
      <trkpt lat="45.57259" lon="6.58943">
        <ele>2315.3162</ele>
        <time>2020-01-27 12:21:40</time>
      </trkpt>
      <trkpt lat="45.57259" lon="6.58943">
        <ele>2315.0088</ele>
        <time>2020-01-27 12:21:41</time>
      </trkpt>
      <trkpt lat="45.57258" lon="6.58943">
        <ele>2314.261</ele>
        <time>2020-01-27 12:21:42</time>
      </trkpt>
      <trkpt lat="45.57258" lon="6.58943">
        <ele>2312.7659</ele>
        <time>2020-01-27 12:21:49</time>
      </trkpt>
      <trkpt lat="45.57258" lon="6.58942">
        <ele>2313.048</ele>
        <time>2020-01-27 12:21:50</time>
      </trkpt>
      <trkpt lat="45.57258" lon="6.58942">
        <ele>2313.4592</ele>
        <time>2020-01-27 12:21:51</time>
      </trkpt>
      <trkpt lat="45.57259" lon="6.58943">
        <ele>2313.529</ele>
        <time>2020-01-27 12:21:52</time>
      </trkpt>
      <trkpt lat="45.5726" lon="6.58943">
        <ele>2313.9045</ele>
        <time>2020-01-27 12:21:53</time>
      </trkpt>
      <trkpt lat="45.5726" lon="6.58943">
        <ele>2313.36</ele>
        <time>2020-01-27 12:21:54</time>
      </trkpt>
      <trkpt lat="45.57261" lon="6.58942">
        <ele>2312.204</ele>
        <time>2020-01-27 12:21:56</time>
      </trkpt>
      <trkpt lat="45.57262" lon="6.58941">
        <ele>2311.9155</ele>
        <time>2020-01-27 12:21:59</time>
      </trkpt>
      <trkpt lat="45.57264" lon="6.58941">
        <ele>2312.8953</ele>
        <time>2020-01-27 12:22:00</time>
      </trkpt>
      <trkpt lat="45.57265" lon="6.5894">
        <ele>2312.7837</ele>
        <time>2020-01-27 12:22:01</time>
      </trkpt>
      <trkpt lat="45.57268" lon="6.5894">
        <ele>2317.685</ele>
        <time>2020-01-27 12:22:12</time>
      </trkpt>
      <trkpt lat="45.57269" lon="6.58939">
        <ele>2317.204</ele>
        <time>2020-01-27 12:22:14</time>
      </trkpt>
      <trkpt lat="45.57269" lon="6.58939">
        <ele>2316.4832</ele>
        <time>2020-01-27 12:22:15</time>
      </trkpt>
      <trkpt lat="45.5727" lon="6.58939">
        <ele>2316.9856</ele>
        <time>2020-01-27 12:22:16</time>
      </trkpt>
      <trkpt lat="45.57271" lon="6.58939">
        <ele>2317.1008</ele>
        <time>2020-01-27 12:22:17</time>
      </trkpt>
      <trkpt lat="45.57272" lon="6.5894">
        <ele>2318.79</ele>
        <time>2020-01-27 12:22:21</time>
      </trkpt>
      <trkpt lat="45.57273" lon="6.5894">
        <ele>2318.7136</ele>
        <time>2020-01-27 12:22:22</time>
      </trkpt>
      <trkpt lat="45.57273" lon="6.5894">
        <ele>2319.0876</ele>
        <time>2020-01-27 12:22:24</time>
      </trkpt>
      <trkpt lat="45.57273" lon="6.5894">
        <ele>2319.3992</ele>
        <time>2020-01-27 12:22:25</time>
      </trkpt>
      <trkpt lat="45.57277" lon="6.5894">
        <ele>2319.7864</ele>
        <time>2020-01-27 12:22:36</time>
      </trkpt>
      <trkpt lat="45.57278" lon="6.5894">
        <ele>2319.8286</ele>
        <time>2020-01-27 12:22:38</time>
      </trkpt>
      <trkpt lat="45.57279" lon="6.5894">
        <ele>2319.7905</ele>
        <time>2020-01-27 12:22:40</time>
      </trkpt>
      <trkpt lat="45.57279" lon="6.5894">
        <ele>2319.088</ele>
        <time>2020-01-27 12:22:42</time>
      </trkpt>
      <trkpt lat="45.57279" lon="6.58939">
        <ele>2319.2434</ele>
        <time>2020-01-27 12:22:46</time>
      </trkpt>
      <trkpt lat="45.57278" lon="6.58938">
        <ele>2319.8389</ele>
        <time>2020-01-27 12:22:47</time>
      </trkpt>
      <trkpt lat="45.57278" lon="6.58937">
        <ele>2319.7039</ele>
        <time>2020-01-27 12:22:48</time>
      </trkpt>
      <trkpt lat="45.57278" lon="6.58937">
        <ele>2319.7583</ele>
        <time>2020-01-27 12:22:50</time>
      </trkpt>
      <trkpt lat="45.57278" lon="6.58936">
        <ele>2319.901</ele>
        <time>2020-01-27 12:22:52</time>
      </trkpt>
      <trkpt lat="45.57278" lon="6.58936">
        <ele>2319.836</ele>
        <time>2020-01-27 12:22:53</time>
      </trkpt>
      <trkpt lat="45.57278" lon="6.58935">
        <ele>2319.6763</ele>
        <time>2020-01-27 12:22:54</time>
      </trkpt>
      <trkpt lat="45.57278" lon="6.58934">
        <ele>2320.5376</ele>
        <time>2020-01-27 12:22:55</time>
      </trkpt>
      <trkpt lat="45.57277" lon="6.58933">
        <ele>2320.6572</ele>
        <time>2020-01-27 12:22:56</time>
      </trkpt>
      <trkpt lat="45.57277" lon="6.58932">
        <ele>2320.7349</ele>
        <time>2020-01-27 12:22:57</time>
      </trkpt>
      <trkpt lat="45.57276" lon="6.58927">
        <ele>2320.7456</ele>
        <time>2020-01-27 12:23:04</time>
      </trkpt>
      <trkpt lat="45.57276" lon="6.58927">
        <ele>2320.5574</ele>
        <time>2020-01-27 12:23:05</time>
      </trkpt>
      <trkpt lat="45.57276" lon="6.58926">
        <ele>2321.5251</ele>
        <time>2020-01-27 12:23:06</time>
      </trkpt>
      <trkpt lat="45.57276" lon="6.58925">
        <ele>2321.7913</ele>
        <time>2020-01-27 12:23:07</time>
      </trkpt>
      <trkpt lat="45.57275" lon="6.58924">
        <ele>2322.305</ele>
        <time>2020-01-27 12:23:08</time>
      </trkpt>
      <trkpt lat="45.57275" lon="6.58923">
        <ele>2322.637</ele>
        <time>2020-01-27 12:23:09</time>
      </trkpt>
      <trkpt lat="45.57275" lon="6.58922">
        <ele>2322.8806</ele>
        <time>2020-01-27 12:23:10</time>
      </trkpt>
      <trkpt lat="45.57274" lon="6.58922">
        <ele>2322.9827</ele>
        <time>2020-01-27 12:23:11</time>
      </trkpt>
      <trkpt lat="45.57274" lon="6.58921">
        <ele>2323.1892</ele>
        <time>2020-01-27 12:23:12</time>
      </trkpt>
      <trkpt lat="45.57273" lon="6.5892">
        <ele>2322.5273</ele>
        <time>2020-01-27 12:23:13</time>
      </trkpt>
      <trkpt lat="45.57272" lon="6.58916">
        <ele>2321.3777</ele>
        <time>2020-01-27 12:23:18</time>
      </trkpt>
      <trkpt lat="45.57272" lon="6.58913">
        <ele>2323.1853</ele>
        <time>2020-01-27 12:23:22</time>
      </trkpt>
      <trkpt lat="45.57273" lon="6.58912">
        <ele>2324.354</ele>
        <time>2020-01-27 12:23:23</time>
      </trkpt>
      <trkpt lat="45.57273" lon="6.58911">
        <ele>2324.935</ele>
        <time>2020-01-27 12:23:24</time>
      </trkpt>
      <trkpt lat="45.57273" lon="6.58911">
        <ele>2324.8508</ele>
        <time>2020-01-27 12:23:25</time>
      </trkpt>
      <trkpt lat="45.57274" lon="6.5891">
        <ele>2325.228</ele>
        <time>2020-01-27 12:23:26</time>
      </trkpt>
      <trkpt lat="45.57274" lon="6.58909">
        <ele>2325.458</ele>
        <time>2020-01-27 12:23:29</time>
      </trkpt>
      <trkpt lat="45.57274" lon="6.58906">
        <ele>2324.4358</ele>
        <time>2020-01-27 12:23:33</time>
      </trkpt>
      <trkpt lat="45.57274" lon="6.58906">
        <ele>2324.3306</ele>
        <time>2020-01-27 12:23:34</time>
      </trkpt>
      <trkpt lat="45.57274" lon="6.58904">
        <ele>2325.022</ele>
        <time>2020-01-27 12:23:37</time>
      </trkpt>
      <trkpt lat="45.57274" lon="6.58903">
        <ele>2325.4683</ele>
        <time>2020-01-27 12:23:38</time>
      </trkpt>
      <trkpt lat="45.57274" lon="6.58902">
        <ele>2325.8113</ele>
        <time>2020-01-27 12:23:39</time>
      </trkpt>
      <trkpt lat="45.57275" lon="6.58902">
        <ele>2326.3481</ele>
        <time>2020-01-27 12:23:40</time>
      </trkpt>
      <trkpt lat="45.57276" lon="6.589">
        <ele>2326.3843</ele>
        <time>2020-01-27 12:23:42</time>
      </trkpt>
      <trkpt lat="45.57275" lon="6.58899">
        <ele>2326.85</ele>
        <time>2020-01-27 12:23:43</time>
      </trkpt>
      <trkpt lat="45.57276" lon="6.58898">
        <ele>2327.4353</ele>
        <time>2020-01-27 12:23:44</time>
      </trkpt>
      <trkpt lat="45.57276" lon="6.58898">
        <ele>2328.2222</ele>
        <time>2020-01-27 12:23:46</time>
      </trkpt>
      <trkpt lat="45.57277" lon="6.58898">
        <ele>2328.6704</ele>
        <time>2020-01-27 12:23:48</time>
      </trkpt>
      <trkpt lat="45.57277" lon="6.58898">
        <ele>2329.4348</ele>
        <time>2020-01-27 12:23:49</time>
      </trkpt>
      <trkpt lat="45.57279" lon="6.58899">
        <ele>2329.4443</ele>
        <time>2020-01-27 12:23:53</time>
      </trkpt>
      <trkpt lat="45.57281" lon="6.589">
        <ele>2331.0488</ele>
        <time>2020-01-27 12:23:56</time>
      </trkpt>
      <trkpt lat="45.57281" lon="6.589">
        <ele>2331.1987</ele>
        <time>2020-01-27 12:23:58</time>
      </trkpt>
      <trkpt lat="45.57281" lon="6.589">
        <ele>2330.549</ele>
        <time>2020-01-27 12:23:59</time>
      </trkpt>
      <trkpt lat="45.57282" lon="6.589">
        <ele>2329.275</ele>
        <time>2020-01-27 12:24:00</time>
      </trkpt>
      <trkpt lat="45.57282" lon="6.58899">
        <ele>2329.289</ele>
        <time>2020-01-27 12:24:01</time>
      </trkpt>
      <trkpt lat="45.57283" lon="6.58899">
        <ele>2329.8162</ele>
        <time>2020-01-27 12:24:02</time>
      </trkpt>
      <trkpt lat="45.57286" lon="6.58899">
        <ele>2329.4324</ele>
        <time>2020-01-27 12:24:05</time>
      </trkpt>
      <trkpt lat="45.57286" lon="6.58899">
        <ele>2329.8374</ele>
        <time>2020-01-27 12:24:06</time>
      </trkpt>
      <trkpt lat="45.57287" lon="6.589">
        <ele>2331.0625</ele>
        <time>2020-01-27 12:24:07</time>
      </trkpt>
      <trkpt lat="45.57287" lon="6.589">
        <ele>2331.0913</ele>
        <time>2020-01-27 12:24:08</time>
      </trkpt>
      <trkpt lat="45.57288" lon="6.589">
        <ele>2331.5906</ele>
        <time>2020-01-27 12:24:09</time>
      </trkpt>
      <trkpt lat="45.57288" lon="6.589">
        <ele>2331.4675</ele>
        <time>2020-01-27 12:24:10</time>
      </trkpt>
      <trkpt lat="45.57291" lon="6.58899">
        <ele>2332.9536</ele>
        <time>2020-01-27 12:24:14</time>
      </trkpt>
      <trkpt lat="45.57292" lon="6.58899">
        <ele>2333.0566</ele>
        <time>2020-01-27 12:24:15</time>
      </trkpt>
      <trkpt lat="45.57293" lon="6.58899">
        <ele>2333.1604</ele>
        <time>2020-01-27 12:24:16</time>
      </trkpt>
      <trkpt lat="45.57293" lon="6.589">
        <ele>2333.7761</ele>
        <time>2020-01-27 12:24:17</time>
      </trkpt>
      <trkpt lat="45.57294" lon="6.589">
        <ele>2334.0205</ele>
        <time>2020-01-27 12:24:18</time>
      </trkpt>
      <trkpt lat="45.57295" lon="6.58899">
        <ele>2335.184</ele>
        <time>2020-01-27 12:24:19</time>
      </trkpt>
      <trkpt lat="45.57296" lon="6.58899">
        <ele>2335.0388</ele>
        <time>2020-01-27 12:24:23</time>
      </trkpt>
      <trkpt lat="45.57296" lon="6.58899">
        <ele>2335.5002</ele>
        <time>2020-01-27 12:24:26</time>
      </trkpt>
      <trkpt lat="45.57296" lon="6.58897">
        <ele>2335.858</ele>
        <time>2020-01-27 12:24:29</time>
      </trkpt>
      <trkpt lat="45.57296" lon="6.58897">
        <ele>2335.7397</ele>
        <time>2020-01-27 12:24:32</time>
      </trkpt>
      <trkpt lat="45.57295" lon="6.58895">
        <ele>2335.284</ele>
        <time>2020-01-27 12:24:38</time>
      </trkpt>
      <trkpt lat="45.57295" lon="6.58893">
        <ele>2335.825</ele>
        <time>2020-01-27 12:24:39</time>
      </trkpt>
      <trkpt lat="45.57295" lon="6.58892">
        <ele>2336.3018</ele>
        <time>2020-01-27 12:24:40</time>
      </trkpt>
      <trkpt lat="45.57295" lon="6.58892">
        <ele>2336.259</ele>
        <time>2020-01-27 12:24:41</time>
      </trkpt>
      <trkpt lat="45.57294" lon="6.58891">
        <ele>2336.1013</ele>
        <time>2020-01-27 12:24:42</time>
      </trkpt>
      <trkpt lat="45.57294" lon="6.5889">
        <ele>2336.9521</ele>
        <time>2020-01-27 12:24:43</time>
      </trkpt>
      <trkpt lat="45.57294" lon="6.5889">
        <ele>2337.5933</ele>
        <time>2020-01-27 12:24:44</time>
      </trkpt>
      <trkpt lat="45.57294" lon="6.58889">
        <ele>2337.174</ele>
        <time>2020-01-27 12:24:45</time>
      </trkpt>
      <trkpt lat="45.57293" lon="6.58888">
        <ele>2336.6536</ele>
        <time>2020-01-27 12:24:46</time>
      </trkpt>
      <trkpt lat="45.57293" lon="6.58888">
        <ele>2337.2988</ele>
        <time>2020-01-27 12:24:50</time>
      </trkpt>
      <trkpt lat="45.57293" lon="6.58887">
        <ele>2336.8533</ele>
        <time>2020-01-27 12:24:51</time>
      </trkpt>
      <trkpt lat="45.57293" lon="6.58887">
        <ele>2338.0562</ele>
        <time>2020-01-27 12:24:53</time>
      </trkpt>
      <trkpt lat="45.57293" lon="6.58886">
        <ele>2338.8687</ele>
        <time>2020-01-27 12:24:54</time>
      </trkpt>
      <trkpt lat="45.57293" lon="6.58885">
        <ele>2338.5745</ele>
        <time>2020-01-27 12:24:55</time>
      </trkpt>
      <trkpt lat="45.57292" lon="6.58884">
        <ele>2338.3284</ele>
        <time>2020-01-27 12:24:58</time>
      </trkpt>
      <trkpt lat="45.5729" lon="6.58877">
        <ele>2338.4062</ele>
        <time>2020-01-27 12:25:07</time>
      </trkpt>
      <trkpt lat="45.5729" lon="6.58874">
        <ele>2339.7058</ele>
        <time>2020-01-27 12:25:10</time>
      </trkpt>
      <trkpt lat="45.5729" lon="6.58873">
        <ele>2340.38</ele>
        <time>2020-01-27 12:25:11</time>
      </trkpt>
      <trkpt lat="45.5729" lon="6.58872">
        <ele>2341.1807</ele>
        <time>2020-01-27 12:25:12</time>
      </trkpt>
      <trkpt lat="45.5729" lon="6.58871">
        <ele>2341.5076</ele>
        <time>2020-01-27 12:25:13</time>
      </trkpt>
      <trkpt lat="45.5729" lon="6.5887">
        <ele>2342.393</ele>
        <time>2020-01-27 12:25:14</time>
      </trkpt>
      <trkpt lat="45.5729" lon="6.58869">
        <ele>2342.2385</ele>
        <time>2020-01-27 12:25:15</time>
      </trkpt>
      <trkpt lat="45.5729" lon="6.58868">
        <ele>2342.2307</ele>
        <time>2020-01-27 12:25:16</time>
      </trkpt>
      <trkpt lat="45.5729" lon="6.58866">
        <ele>2342.3174</ele>
        <time>2020-01-27 12:25:17</time>
      </trkpt>
      <trkpt lat="45.5729" lon="6.58866">
        <ele>2342.5889</ele>
        <time>2020-01-27 12:25:18</time>
      </trkpt>
      <trkpt lat="45.57289" lon="6.58865">
        <ele>2342.3125</ele>
        <time>2020-01-27 12:25:19</time>
      </trkpt>
      <trkpt lat="45.5729" lon="6.58864">
        <ele>2341.9333</ele>
        <time>2020-01-27 12:25:21</time>
      </trkpt>
      <trkpt lat="45.57291" lon="6.5886">
        <ele>2341.065</ele>
        <time>2020-01-27 12:25:25</time>
      </trkpt>
      <trkpt lat="45.57291" lon="6.5886">
        <ele>2340.84</ele>
        <time>2020-01-27 12:25:26</time>
      </trkpt>
      <trkpt lat="45.57291" lon="6.58859">
        <ele>2339.5913</ele>
        <time>2020-01-27 12:25:27</time>
      </trkpt>
      <trkpt lat="45.57291" lon="6.58858">
        <ele>2339.5588</ele>
        <time>2020-01-27 12:25:28</time>
      </trkpt>
      <trkpt lat="45.57291" lon="6.58857">
        <ele>2339.4856</ele>
        <time>2020-01-27 12:25:29</time>
      </trkpt>
      <trkpt lat="45.57292" lon="6.58855">
        <ele>2341.2036</ele>
        <time>2020-01-27 12:25:34</time>
      </trkpt>
      <trkpt lat="45.57292" lon="6.58854">
        <ele>2342.0684</ele>
        <time>2020-01-27 12:25:35</time>
      </trkpt>
      <trkpt lat="45.57292" lon="6.58854">
        <ele>2342.5205</ele>
        <time>2020-01-27 12:25:36</time>
      </trkpt>
      <trkpt lat="45.57293" lon="6.58853">
        <ele>2343.2766</ele>
        <time>2020-01-27 12:25:37</time>
      </trkpt>
      <trkpt lat="45.57294" lon="6.58853">
        <ele>2343.4783</ele>
        <time>2020-01-27 12:25:38</time>
      </trkpt>
      <trkpt lat="45.57294" lon="6.58852">
        <ele>2343.991</ele>
        <time>2020-01-27 12:25:39</time>
      </trkpt>
      <trkpt lat="45.57295" lon="6.58852">
        <ele>2344.46</ele>
        <time>2020-01-27 12:25:40</time>
      </trkpt>
      <trkpt lat="45.57296" lon="6.58851">
        <ele>2345.0684</ele>
        <time>2020-01-27 12:25:41</time>
      </trkpt>
      <trkpt lat="45.57297" lon="6.58849">
        <ele>2346.3994</ele>
        <time>2020-01-27 12:25:44</time>
      </trkpt>
      <trkpt lat="45.57298" lon="6.58848">
        <ele>2346.884</ele>
        <time>2020-01-27 12:25:45</time>
      </trkpt>
      <trkpt lat="45.57298" lon="6.58848">
        <ele>2346.6533</ele>
        <time>2020-01-27 12:25:46</time>
      </trkpt>
      <trkpt lat="45.57299" lon="6.58847">
        <ele>2347.2146</ele>
        <time>2020-01-27 12:25:47</time>
      </trkpt>
      <trkpt lat="45.573" lon="6.58847">
        <ele>2347.6514</ele>
        <time>2020-01-27 12:25:49</time>
      </trkpt>
      <trkpt lat="45.57301" lon="6.58847">
        <ele>2347.5105</ele>
        <time>2020-01-27 12:25:50</time>
      </trkpt>
      <trkpt lat="45.57303" lon="6.58845">
        <ele>2348.7056</ele>
        <time>2020-01-27 12:25:53</time>
      </trkpt>
      <trkpt lat="45.57304" lon="6.58845">
        <ele>2348.8364</ele>
        <time>2020-01-27 12:25:54</time>
      </trkpt>
      <trkpt lat="45.57305" lon="6.58844">
        <ele>2349.173</ele>
        <time>2020-01-27 12:25:55</time>
      </trkpt>
      <trkpt lat="45.57306" lon="6.58844">
        <ele>2349.4036</ele>
        <time>2020-01-27 12:25:56</time>
      </trkpt>
      <trkpt lat="45.57306" lon="6.58844">
        <ele>2349.4434</ele>
        <time>2020-01-27 12:25:57</time>
      </trkpt>
      <trkpt lat="45.57306" lon="6.58845">
        <ele>2349.5984</ele>
        <time>2020-01-27 12:25:58</time>
      </trkpt>
      <trkpt lat="45.57306" lon="6.58845">
        <ele>2349.995</ele>
        <time>2020-01-27 12:25:59</time>
      </trkpt>
      <trkpt lat="45.57307" lon="6.58846">
        <ele>2350.5583</ele>
        <time>2020-01-27 12:26:00</time>
      </trkpt>
      <trkpt lat="45.57307" lon="6.58846">
        <ele>2350.1262</ele>
        <time>2020-01-27 12:26:01</time>
      </trkpt>
      <trkpt lat="45.57308" lon="6.58846">
        <ele>2350.2993</ele>
        <time>2020-01-27 12:26:02</time>
      </trkpt>
      <trkpt lat="45.57309" lon="6.58846">
        <ele>2351.6858</ele>
        <time>2020-01-27 12:26:04</time>
      </trkpt>
      <trkpt lat="45.57311" lon="6.58848">
        <ele>2349.8347</ele>
        <time>2020-01-27 12:26:09</time>
      </trkpt>
      <trkpt lat="45.57311" lon="6.58848">
        <ele>2349.7385</ele>
        <time>2020-01-27 12:26:10</time>
      </trkpt>
      <trkpt lat="45.57312" lon="6.58849">
        <ele>2349.5706</ele>
        <time>2020-01-27 12:26:11</time>
      </trkpt>
      <trkpt lat="45.57312" lon="6.58849">
        <ele>2349.5615</ele>
        <time>2020-01-27 12:26:12</time>
      </trkpt>
      <trkpt lat="45.57313" lon="6.5885">
        <ele>2349.4766</ele>
        <time>2020-01-27 12:26:13</time>
      </trkpt>
      <trkpt lat="45.57313" lon="6.58851">
        <ele>2350.1853</ele>
        <time>2020-01-27 12:26:14</time>
      </trkpt>
      <trkpt lat="45.57313" lon="6.58851">
        <ele>2350.7417</ele>
        <time>2020-01-27 12:26:16</time>
      </trkpt>
      <trkpt lat="45.57313" lon="6.58852">
        <ele>2350.5874</ele>
        <time>2020-01-27 12:26:17</time>
      </trkpt>
      <trkpt lat="45.57314" lon="6.58852">
        <ele>2350.8315</ele>
        <time>2020-01-27 12:26:18</time>
      </trkpt>
      <trkpt lat="45.57314" lon="6.58852">
        <ele>2350.894</ele>
        <time>2020-01-27 12:26:19</time>
      </trkpt>
      <trkpt lat="45.57315" lon="6.58852">
        <ele>2351.6475</ele>
        <time>2020-01-27 12:26:20</time>
      </trkpt>
      <trkpt lat="45.57316" lon="6.58853">
        <ele>2352.155</ele>
        <time>2020-01-27 12:26:21</time>
      </trkpt>
      <trkpt lat="45.57316" lon="6.58853">
        <ele>2352.0972</ele>
        <time>2020-01-27 12:26:22</time>
      </trkpt>
      <trkpt lat="45.57317" lon="6.58853">
        <ele>2351.9138</ele>
        <time>2020-01-27 12:26:23</time>
      </trkpt>
      <trkpt lat="45.57319" lon="6.58852">
        <ele>2351.1106</ele>
        <time>2020-01-27 12:26:28</time>
      </trkpt>
      <trkpt lat="45.57319" lon="6.58852">
        <ele>2351.2651</ele>
        <time>2020-01-27 12:26:29</time>
      </trkpt>
      <trkpt lat="45.57319" lon="6.58851">
        <ele>2351.1826</ele>
        <time>2020-01-27 12:26:33</time>
      </trkpt>
      <trkpt lat="45.57319" lon="6.58851">
        <ele>2351.329</ele>
        <time>2020-01-27 12:26:34</time>
      </trkpt>
      <trkpt lat="45.5732" lon="6.58849">
        <ele>2352.7197</ele>
        <time>2020-01-27 12:26:35</time>
      </trkpt>
      <trkpt lat="45.5732" lon="6.58848">
        <ele>2352.5872</ele>
        <time>2020-01-27 12:26:36</time>
      </trkpt>
      <trkpt lat="45.5732" lon="6.58848">
        <ele>2353.0996</ele>
        <time>2020-01-27 12:26:37</time>
      </trkpt>
      <trkpt lat="45.57321" lon="6.58847">
        <ele>2353.3423</ele>
        <time>2020-01-27 12:26:38</time>
      </trkpt>
      <trkpt lat="45.57321" lon="6.58846">
        <ele>2353.2437</ele>
        <time>2020-01-27 12:26:41</time>
      </trkpt>
      <trkpt lat="45.57321" lon="6.58845">
        <ele>2353.5793</ele>
        <time>2020-01-27 12:26:43</time>
      </trkpt>
      <trkpt lat="45.57321" lon="6.58844">
        <ele>2353.9663</ele>
        <time>2020-01-27 12:26:44</time>
      </trkpt>
      <trkpt lat="45.57321" lon="6.58843">
        <ele>2354.1482</ele>
        <time>2020-01-27 12:26:45</time>
      </trkpt>
      <trkpt lat="45.57322" lon="6.58841">
        <ele>2353.989</ele>
        <time>2020-01-27 12:26:47</time>
      </trkpt>
      <trkpt lat="45.57322" lon="6.58839">
        <ele>2354.2253</ele>
        <time>2020-01-27 12:26:49</time>
      </trkpt>
      <trkpt lat="45.57322" lon="6.58839">
        <ele>2355.0334</ele>
        <time>2020-01-27 12:26:52</time>
      </trkpt>
      <trkpt lat="45.57323" lon="6.58838">
        <ele>2354.9534</ele>
        <time>2020-01-27 12:26:53</time>
      </trkpt>
      <trkpt lat="45.57323" lon="6.58837">
        <ele>2355.7734</ele>
        <time>2020-01-27 12:27:01</time>
      </trkpt>
      <trkpt lat="45.57323" lon="6.58837">
        <ele>2356.1929</ele>
        <time>2020-01-27 12:27:02</time>
      </trkpt>
      <trkpt lat="45.57325" lon="6.58836">
        <ele>2356.4773</ele>
        <time>2020-01-27 12:27:06</time>
      </trkpt>
      <trkpt lat="45.57326" lon="6.58835">
        <ele>2355.7131</ele>
        <time>2020-01-27 12:27:07</time>
      </trkpt>
      <trkpt lat="45.57326" lon="6.58834">
        <ele>2356.1125</ele>
        <time>2020-01-27 12:27:08</time>
      </trkpt>
      <trkpt lat="45.57327" lon="6.58834">
        <ele>2355.2693</ele>
        <time>2020-01-27 12:27:09</time>
      </trkpt>
      <trkpt lat="45.57327" lon="6.58833">
        <ele>2355.33</ele>
        <time>2020-01-27 12:27:10</time>
      </trkpt>
      <trkpt lat="45.5733" lon="6.58831">
        <ele>2354.7234</ele>
        <time>2020-01-27 12:27:13</time>
      </trkpt>
      <trkpt lat="45.57333" lon="6.58825">
        <ele>2352.006</ele>
        <time>2020-01-27 12:27:20</time>
      </trkpt>
      <trkpt lat="45.57337" lon="6.58824">
        <ele>2353.3528</ele>
        <time>2020-01-27 12:27:26</time>
      </trkpt>
      <trkpt lat="45.57338" lon="6.58824">
        <ele>2353.84</ele>
        <time>2020-01-27 12:27:27</time>
      </trkpt>
      <trkpt lat="45.57339" lon="6.58822">
        <ele>2354.3933</ele>
        <time>2020-01-27 12:27:29</time>
      </trkpt>
      <trkpt lat="45.57341" lon="6.58822">
        <ele>2354.971</ele>
        <time>2020-01-27 12:28:01</time>
      </trkpt>
      <trkpt lat="45.57341" lon="6.58822">
        <ele>2355.5876</ele>
        <time>2020-01-27 12:28:14</time>
      </trkpt>
      <trkpt lat="45.57341" lon="6.58821">
        <ele>2355.6814</ele>
        <time>2020-01-27 12:28:15</time>
      </trkpt>
      <trkpt lat="45.57342" lon="6.5882">
        <ele>2356.2683</ele>
        <time>2020-01-27 12:28:25</time>
      </trkpt>
      <trkpt lat="45.5734" lon="6.5882">
        <ele>2357.0984</ele>
        <time>2020-01-27 12:28:30</time>
      </trkpt>
      <trkpt lat="45.57337" lon="6.5882">
        <ele>2357.4795</ele>
        <time>2020-01-27 12:28:33</time>
      </trkpt>
      <trkpt lat="45.57335" lon="6.5882">
        <ele>2358.9958</ele>
        <time>2020-01-27 12:28:38</time>
      </trkpt>
      <trkpt lat="45.57335" lon="6.5882">
        <ele>2357.8872</ele>
        <time>2020-01-27 12:28:41</time>
      </trkpt>
      <trkpt lat="45.57332" lon="6.58819">
        <ele>2357.0833</ele>
        <time>2020-01-27 12:28:46</time>
      </trkpt>
      <trkpt lat="45.57332" lon="6.58818">
        <ele>2357.7705</ele>
        <time>2020-01-27 12:28:52</time>
      </trkpt>
      <trkpt lat="45.57332" lon="6.58818">
        <ele>2357.7124</ele>
        <time>2020-01-27 12:28:53</time>
      </trkpt>
      <trkpt lat="45.57333" lon="6.58817">
        <ele>2357.2217</ele>
        <time>2020-01-27 12:28:54</time>
      </trkpt>
      <trkpt lat="45.57333" lon="6.58817">
        <ele>2357.1187</ele>
        <time>2020-01-27 12:28:55</time>
      </trkpt>
      <trkpt lat="45.57335" lon="6.58814">
        <ele>2354.3909</ele>
        <time>2020-01-27 12:29:00</time>
      </trkpt>
      <trkpt lat="45.57335" lon="6.58813">
        <ele>2354.3865</ele>
        <time>2020-01-27 12:29:01</time>
      </trkpt>
      <trkpt lat="45.57336" lon="6.58813">
        <ele>2353.6597</ele>
        <time>2020-01-27 12:29:02</time>
      </trkpt>
      <trkpt lat="45.57336" lon="6.58813">
        <ele>2353.8877</ele>
        <time>2020-01-27 12:29:03</time>
      </trkpt>
      <trkpt lat="45.57336" lon="6.58812">
        <ele>2353.1584</ele>
        <time>2020-01-27 12:29:04</time>
      </trkpt>
      <trkpt lat="45.57337" lon="6.58812">
        <ele>2353.4072</ele>
        <time>2020-01-27 12:29:05</time>
      </trkpt>
      <trkpt lat="45.57337" lon="6.58812">
        <ele>2352.7715</ele>
        <time>2020-01-27 12:29:06</time>
      </trkpt>
      <trkpt lat="45.57337" lon="6.58811">
        <ele>2353.022</ele>
        <time>2020-01-27 12:29:07</time>
      </trkpt>
      <trkpt lat="45.57338" lon="6.58811">
        <ele>2353.1533</ele>
        <time>2020-01-27 12:29:08</time>
      </trkpt>
      <trkpt lat="45.57338" lon="6.58811">
        <ele>2353.7913</ele>
        <time>2020-01-27 12:29:09</time>
      </trkpt>
      <trkpt lat="45.57339" lon="6.58811">
        <ele>2353.9792</ele>
        <time>2020-01-27 12:29:10</time>
      </trkpt>
      <trkpt lat="45.57343" lon="6.58811">
        <ele>2348.9026</ele>
        <time>2020-01-27 12:29:15</time>
      </trkpt>
      <trkpt lat="45.57349" lon="6.58812">
        <ele>2352.581</ele>
        <time>2020-01-27 12:29:28</time>
      </trkpt>
      <trkpt lat="45.5735" lon="6.58813">
        <ele>2352.9746</ele>
        <time>2020-01-27 12:29:33</time>
      </trkpt>
      <trkpt lat="45.5735" lon="6.58813">
        <ele>2353.3367</ele>
        <time>2020-01-27 12:29:35</time>
      </trkpt>
      <trkpt lat="45.57351" lon="6.58814">
        <ele>2354.1287</ele>
        <time>2020-01-27 12:29:36</time>
      </trkpt>
      <trkpt lat="45.57351" lon="6.58814">
        <ele>2354.8384</ele>
        <time>2020-01-27 12:29:44</time>
      </trkpt>
      <trkpt lat="45.57353" lon="6.58814">
        <ele>2354.0696</ele>
        <time>2020-01-27 12:29:47</time>
      </trkpt>
      <trkpt lat="45.57354" lon="6.58814">
        <ele>2354.13</ele>
        <time>2020-01-27 12:29:48</time>
      </trkpt>
      <trkpt lat="45.57354" lon="6.58814">
        <ele>2354.2437</ele>
        <time>2020-01-27 12:29:49</time>
      </trkpt>
      <trkpt lat="45.57354" lon="6.58814">
        <ele>2355.409</ele>
        <time>2020-01-27 12:29:50</time>
      </trkpt>
      <trkpt lat="45.57355" lon="6.58815">
        <ele>2353.9558</ele>
        <time>2020-01-27 12:29:53</time>
      </trkpt>
      <trkpt lat="45.57355" lon="6.58816">
        <ele>2352.8474</ele>
        <time>2020-01-27 12:29:57</time>
      </trkpt>
      <trkpt lat="45.57356" lon="6.58816">
        <ele>2352.469</ele>
        <time>2020-01-27 12:29:58</time>
      </trkpt>
      <trkpt lat="45.57356" lon="6.58817">
        <ele>2351.6008</ele>
        <time>2020-01-27 12:30:02</time>
      </trkpt>
      <trkpt lat="45.57357" lon="6.58817">
        <ele>2351.7378</ele>
        <time>2020-01-27 12:30:03</time>
      </trkpt>
      <trkpt lat="45.57359" lon="6.58816">
        <ele>2351.192</ele>
        <time>2020-01-27 12:30:06</time>
      </trkpt>
      <trkpt lat="45.5736" lon="6.58817">
        <ele>2352.4778</ele>
        <time>2020-01-27 12:30:12</time>
      </trkpt>
      <trkpt lat="45.57361" lon="6.58817">
        <ele>2352.2434</ele>
        <time>2020-01-27 12:30:13</time>
      </trkpt>
      <trkpt lat="45.57361" lon="6.58817">
        <ele>2352.3237</ele>
        <time>2020-01-27 12:30:14</time>
      </trkpt>
      <trkpt lat="45.57362" lon="6.58818">
        <ele>2351.794</ele>
        <time>2020-01-27 12:30:17</time>
      </trkpt>
      <trkpt lat="45.57362" lon="6.58819">
        <ele>2350.2693</ele>
        <time>2020-01-27 12:30:24</time>
      </trkpt>
      <trkpt lat="45.57363" lon="6.58819">
        <ele>2350.5964</ele>
        <time>2020-01-27 12:30:25</time>
      </trkpt>
      <trkpt lat="45.57365" lon="6.5882">
        <ele>2349.378</ele>
        <time>2020-01-27 12:30:32</time>
      </trkpt>
      <trkpt lat="45.57365" lon="6.5882">
        <ele>2348.7822</ele>
        <time>2020-01-27 12:30:34</time>
      </trkpt>
      <trkpt lat="45.57366" lon="6.58819">
        <ele>2349.5317</ele>
        <time>2020-01-27 12:30:35</time>
      </trkpt>
      <trkpt lat="45.57367" lon="6.58819">
        <ele>2348.3215</ele>
        <time>2020-01-27 12:30:36</time>
      </trkpt>
      <trkpt lat="45.57368" lon="6.58819">
        <ele>2348.3892</ele>
        <time>2020-01-27 12:30:51</time>
      </trkpt>
      <trkpt lat="45.57369" lon="6.58818">
        <ele>2346.758</ele>
        <time>2020-01-27 12:30:52</time>
      </trkpt>
      <trkpt lat="45.5737" lon="6.58817">
        <ele>2348.1846</ele>
        <time>2020-01-27 12:31:00</time>
      </trkpt>
      <trkpt lat="45.5737" lon="6.58818">
        <ele>2347.7668</ele>
        <time>2020-01-27 12:31:01</time>
      </trkpt>
      <trkpt lat="45.5737" lon="6.58817">
        <ele>2345.147</ele>
        <time>2020-01-27 12:31:06</time>
      </trkpt>
      <trkpt lat="45.57372" lon="6.58818">
        <ele>2345.9565</ele>
        <time>2020-01-27 12:31:09</time>
      </trkpt>
      <trkpt lat="45.57372" lon="6.58819">
        <ele>2346.6086</ele>
        <time>2020-01-27 12:31:10</time>
      </trkpt>
      <trkpt lat="45.57373" lon="6.58819">
        <ele>2345.6816</ele>
        <time>2020-01-27 12:31:11</time>
      </trkpt>
      <trkpt lat="45.57373" lon="6.5882">
        <ele>2344.9626</ele>
        <time>2020-01-27 12:31:14</time>
      </trkpt>
      <trkpt lat="45.57374" lon="6.58821">
        <ele>2344.7847</ele>
        <time>2020-01-27 12:31:15</time>
      </trkpt>
      <trkpt lat="45.57382" lon="6.5882">
        <ele>2347.1611</ele>
        <time>2020-01-27 12:31:33</time>
      </trkpt>
      <trkpt lat="45.57382" lon="6.5882">
        <ele>2347.2678</ele>
        <time>2020-01-27 12:31:34</time>
      </trkpt>
      <trkpt lat="45.57383" lon="6.58819">
        <ele>2347.499</ele>
        <time>2020-01-27 12:31:35</time>
      </trkpt>
      <trkpt lat="45.57385" lon="6.58817">
        <ele>2346.8457</ele>
        <time>2020-01-27 12:31:39</time>
      </trkpt>
      <trkpt lat="45.57385" lon="6.58815">
        <ele>2346.7908</ele>
        <time>2020-01-27 12:31:58</time>
      </trkpt>
      <trkpt lat="45.57385" lon="6.58815">
        <ele>2346.4695</ele>
        <time>2020-01-27 12:32:00</time>
      </trkpt>
      <trkpt lat="45.57385" lon="6.58816">
        <ele>2345.7678</ele>
        <time>2020-01-27 12:32:07</time>
      </trkpt>
      <trkpt lat="45.57385" lon="6.58815">
        <ele>2346.8547</ele>
        <time>2020-01-27 12:32:08</time>
      </trkpt>
      <trkpt lat="45.57385" lon="6.58815">
        <ele>2347.9502</ele>
        <time>2020-01-27 12:32:45</time>
      </trkpt>
      <trkpt lat="45.57385" lon="6.58815">
        <ele>2348.0027</ele>
        <time>2020-01-27 12:33:16</time>
      </trkpt>
      <trkpt lat="45.57386" lon="6.58815">
        <ele>2347.7625</ele>
        <time>2020-01-27 12:33:43</time>
      </trkpt>
      <trkpt lat="45.57386" lon="6.58815">
        <ele>2347.9143</ele>
        <time>2020-01-27 12:33:44</time>
      </trkpt>
      <trkpt lat="45.57386" lon="6.58816">
        <ele>2347.4124</ele>
        <time>2020-01-27 12:33:55</time>
      </trkpt>
      <trkpt lat="45.57387" lon="6.58815">
        <ele>2346.6987</ele>
        <time>2020-01-27 12:33:56</time>
      </trkpt>
      <trkpt lat="45.57387" lon="6.58815">
        <ele>2346.6023</ele>
        <time>2020-01-27 12:33:57</time>
      </trkpt>
      <trkpt lat="45.57388" lon="6.58815">
        <ele>2345.5586</ele>
        <time>2020-01-27 12:34:01</time>
      </trkpt>
      <trkpt lat="45.57388" lon="6.58815">
        <ele>2345.457</ele>
        <time>2020-01-27 12:34:02</time>
      </trkpt>
      <trkpt lat="45.57389" lon="6.58815">
        <ele>2345.6472</ele>
        <time>2020-01-27 12:34:03</time>
      </trkpt>
      <trkpt lat="45.57389" lon="6.58815">
        <ele>2344.1956</ele>
        <time>2020-01-27 12:34:06</time>
      </trkpt>
      <trkpt lat="45.57394" lon="6.58815">
        <ele>2344.3652</ele>
        <time>2020-01-27 12:34:11</time>
      </trkpt>
      <trkpt lat="45.57394" lon="6.58816">
        <ele>2344.9937</ele>
        <time>2020-01-27 12:34:12</time>
      </trkpt>
      <trkpt lat="45.57395" lon="6.58815">
        <ele>2344.3394</ele>
        <time>2020-01-27 12:34:13</time>
      </trkpt>
      <trkpt lat="45.57396" lon="6.58815">
        <ele>2344.753</ele>
        <time>2020-01-27 12:34:14</time>
      </trkpt>
      <trkpt lat="45.57397" lon="6.58814">
        <ele>2342.7288</ele>
        <time>2020-01-27 12:34:15</time>
      </trkpt>
      <trkpt lat="45.57399" lon="6.58813">
        <ele>2342.3223</ele>
        <time>2020-01-27 12:34:17</time>
      </trkpt>
      <trkpt lat="45.574" lon="6.58813">
        <ele>2342.4946</ele>
        <time>2020-01-27 12:34:18</time>
      </trkpt>
      <trkpt lat="45.57401" lon="6.58812">
        <ele>2342.814</ele>
        <time>2020-01-27 12:34:19</time>
      </trkpt>
      <trkpt lat="45.57406" lon="6.58811">
        <ele>2343.7556</ele>
        <time>2020-01-27 12:34:24</time>
      </trkpt>
      <trkpt lat="45.57412" lon="6.5881">
        <ele>2344.1934</ele>
        <time>2020-01-27 12:34:30</time>
      </trkpt>
      <trkpt lat="45.57414" lon="6.58809">
        <ele>2343.9985</ele>
        <time>2020-01-27 12:34:33</time>
      </trkpt>
      <trkpt lat="45.57421" lon="6.58804">
        <ele>2342.3958</ele>
        <time>2020-01-27 12:34:43</time>
      </trkpt>
      <trkpt lat="45.57423" lon="6.58802">
        <ele>2341.3293</ele>
        <time>2020-01-27 12:34:45</time>
      </trkpt>
      <trkpt lat="45.57426" lon="6.58799">
        <ele>2341.9756</ele>
        <time>2020-01-27 12:34:48</time>
      </trkpt>
      <trkpt lat="45.57428" lon="6.58794">
        <ele>2340.493</ele>
        <time>2020-01-27 12:34:52</time>
      </trkpt>
      <trkpt lat="45.57428" lon="6.58794">
        <ele>2341.2986</ele>
        <time>2020-01-27 12:34:53</time>
      </trkpt>
      <trkpt lat="45.57431" lon="6.58787">
        <ele>2338.155</ele>
        <time>2020-01-27 12:35:01</time>
      </trkpt>
      <trkpt lat="45.57432" lon="6.58787">
        <ele>2337.77</ele>
        <time>2020-01-27 12:35:09</time>
      </trkpt>
      <trkpt lat="45.57434" lon="6.58781">
        <ele>2337.7175</ele>
        <time>2020-01-27 12:35:13</time>
      </trkpt>
      <trkpt lat="45.57435" lon="6.5878">
        <ele>2336.198</ele>
        <time>2020-01-27 12:35:14</time>
      </trkpt>
      <trkpt lat="45.57435" lon="6.58779">
        <ele>2336.498</ele>
        <time>2020-01-27 12:35:15</time>
      </trkpt>
      <trkpt lat="45.57437" lon="6.58776">
        <ele>2335.9258</ele>
        <time>2020-01-27 12:35:18</time>
      </trkpt>
      <trkpt lat="45.57437" lon="6.58775">
        <ele>2336.0046</ele>
        <time>2020-01-27 12:35:19</time>
      </trkpt>
      <trkpt lat="45.57438" lon="6.58774">
        <ele>2335.5984</ele>
        <time>2020-01-27 12:35:20</time>
      </trkpt>
      <trkpt lat="45.5744" lon="6.58763">
        <ele>2335.117</ele>
        <time>2020-01-27 12:35:30</time>
      </trkpt>
      <trkpt lat="45.57441" lon="6.58763">
        <ele>2335.608</ele>
        <time>2020-01-27 12:35:51</time>
      </trkpt>
      <trkpt lat="45.57441" lon="6.58763">
        <ele>2335.501</ele>
        <time>2020-01-27 12:35:52</time>
      </trkpt>
      <trkpt lat="45.57441" lon="6.58762">
        <ele>2336.0852</ele>
        <time>2020-01-27 12:35:53</time>
      </trkpt>
      <trkpt lat="45.57442" lon="6.5876">
        <ele>2336.904</ele>
        <time>2020-01-27 12:35:57</time>
      </trkpt>
      <trkpt lat="45.5744" lon="6.58759">
        <ele>2336.3276</ele>
        <time>2020-01-27 12:36:30</time>
      </trkpt>
      <trkpt lat="45.5744" lon="6.58759">
        <ele>2337.5752</ele>
        <time>2020-01-27 12:36:32</time>
      </trkpt>
      <trkpt lat="45.57439" lon="6.58758">
        <ele>2331.7336</ele>
        <time>2020-01-27 12:36:50</time>
      </trkpt>
      <trkpt lat="45.57439" lon="6.58757">
        <ele>2333.932</ele>
        <time>2020-01-27 12:36:52</time>
      </trkpt>
      <trkpt lat="45.57439" lon="6.58756">
        <ele>2333.0134</ele>
        <time>2020-01-27 12:36:55</time>
      </trkpt>
      <trkpt lat="45.57439" lon="6.58756">
        <ele>2333.4004</ele>
        <time>2020-01-27 12:36:56</time>
      </trkpt>
      <trkpt lat="45.57439" lon="6.58756">
        <ele>2333.8416</ele>
        <time>2020-01-27 12:36:57</time>
      </trkpt>
      <trkpt lat="45.57439" lon="6.58755">
        <ele>2333.6191</ele>
        <time>2020-01-27 12:36:58</time>
      </trkpt>
      <trkpt lat="45.57441" lon="6.58755">
        <ele>2333.618</ele>
        <time>2020-01-27 12:36:59</time>
      </trkpt>
      <trkpt lat="45.57444" lon="6.58752">
        <ele>2334.1426</ele>
        <time>2020-01-27 12:37:04</time>
      </trkpt>
      <trkpt lat="45.57445" lon="6.5875">
        <ele>2334.0386</ele>
        <time>2020-01-27 12:37:07</time>
      </trkpt>
      <trkpt lat="45.57446" lon="6.58749">
        <ele>2333.9126</ele>
        <time>2020-01-27 12:37:08</time>
      </trkpt>
      <trkpt lat="45.57447" lon="6.58747">
        <ele>2335.2861</ele>
        <time>2020-01-27 12:37:11</time>
      </trkpt>
      <trkpt lat="45.57449" lon="6.58742">
        <ele>2337.0852</ele>
        <time>2020-01-27 12:37:15</time>
      </trkpt>
      <trkpt lat="45.57451" lon="6.58733">
        <ele>2336.571</ele>
        <time>2020-01-27 12:37:22</time>
      </trkpt>
      <trkpt lat="45.57452" lon="6.58732">
        <ele>2337.308</ele>
        <time>2020-01-27 12:37:24</time>
      </trkpt>
      <trkpt lat="45.57454" lon="6.58728">
        <ele>2339.2786</ele>
        <time>2020-01-27 12:37:26</time>
      </trkpt>
      <trkpt lat="45.57457" lon="6.58719">
        <ele>2340.615</ele>
        <time>2020-01-27 12:37:34</time>
      </trkpt>
      <trkpt lat="45.57457" lon="6.58719">
        <ele>2340.105</ele>
        <time>2020-01-27 12:37:35</time>
      </trkpt>
      <trkpt lat="45.57457" lon="6.58718">
        <ele>2341.6143</ele>
        <time>2020-01-27 12:37:36</time>
      </trkpt>
      <trkpt lat="45.57458" lon="6.58712">
        <ele>2341.0464</ele>
        <time>2020-01-27 12:37:41</time>
      </trkpt>
      <trkpt lat="45.57462" lon="6.58698">
        <ele>2339.8071</ele>
        <time>2020-01-27 12:37:55</time>
      </trkpt>
      <trkpt lat="45.57462" lon="6.58698">
        <ele>2339.9946</ele>
        <time>2020-01-27 12:37:56</time>
      </trkpt>
      <trkpt lat="45.57461" lon="6.58696">
        <ele>2336.6729</ele>
        <time>2020-01-27 12:37:58</time>
      </trkpt>
      <trkpt lat="45.57461" lon="6.58695">
        <ele>2336.3977</ele>
        <time>2020-01-27 12:37:59</time>
      </trkpt>
      <trkpt lat="45.57462" lon="6.58692">
        <ele>2336.067</ele>
        <time>2020-01-27 12:38:01</time>
      </trkpt>
      <trkpt lat="45.57462" lon="6.58691">
        <ele>2335.8386</ele>
        <time>2020-01-27 12:38:02</time>
      </trkpt>
      <trkpt lat="45.57462" lon="6.5869">
        <ele>2335.7837</ele>
        <time>2020-01-27 12:38:03</time>
      </trkpt>
      <trkpt lat="45.57463" lon="6.58689">
        <ele>2334.5093</ele>
        <time>2020-01-27 12:38:04</time>
      </trkpt>
      <trkpt lat="45.57466" lon="6.58678">
        <ele>2335.6504</ele>
        <time>2020-01-27 12:38:16</time>
      </trkpt>
      <trkpt lat="45.57466" lon="6.58677">
        <ele>2336.7173</ele>
        <time>2020-01-27 12:38:21</time>
      </trkpt>
      <trkpt lat="45.57467" lon="6.58675">
        <ele>2335.583</ele>
        <time>2020-01-27 12:38:24</time>
      </trkpt>
      <trkpt lat="45.57467" lon="6.58673">
        <ele>2338.0327</ele>
        <time>2020-01-27 12:38:26</time>
      </trkpt>
      <trkpt lat="45.57467" lon="6.58673">
        <ele>2338.5776</ele>
        <time>2020-01-27 12:38:27</time>
      </trkpt>
      <trkpt lat="45.57467" lon="6.58673">
        <ele>2336.0024</ele>
        <time>2020-01-27 12:38:28</time>
      </trkpt>
      <trkpt lat="45.57468" lon="6.58672">
        <ele>2337.0862</ele>
        <time>2020-01-27 12:38:29</time>
      </trkpt>
      <trkpt lat="45.57468" lon="6.58672">
        <ele>2336.4807</ele>
        <time>2020-01-27 12:38:30</time>
      </trkpt>
      <trkpt lat="45.57469" lon="6.58669">
        <ele>2336.627</ele>
        <time>2020-01-27 12:38:33</time>
      </trkpt>
      <trkpt lat="45.57469" lon="6.58668">
        <ele>2337.8657</ele>
        <time>2020-01-27 12:38:35</time>
      </trkpt>
      <trkpt lat="45.57471" lon="6.58663">
        <ele>2336.397</ele>
        <time>2020-01-27 12:38:40</time>
      </trkpt>
      <trkpt lat="45.57471" lon="6.58662">
        <ele>2335.9268</ele>
        <time>2020-01-27 12:38:41</time>
      </trkpt>
      <trkpt lat="45.57472" lon="6.58658">
        <ele>2336.1658</ele>
        <time>2020-01-27 12:38:44</time>
      </trkpt>
      <trkpt lat="45.57473" lon="6.58657">
        <ele>2338.44</ele>
        <time>2020-01-27 12:38:45</time>
      </trkpt>
      <trkpt lat="45.57474" lon="6.58656">
        <ele>2337.5747</ele>
        <time>2020-01-27 12:38:46</time>
      </trkpt>
      <trkpt lat="45.57474" lon="6.58653">
        <ele>2337.6223</ele>
        <time>2020-01-27 12:38:49</time>
      </trkpt>
      <trkpt lat="45.57475" lon="6.58652">
        <ele>2337.5747</ele>
        <time>2020-01-27 12:38:51</time>
      </trkpt>
      <trkpt lat="45.57475" lon="6.5865">
        <ele>2336.386</ele>
        <time>2020-01-27 12:39:01</time>
      </trkpt>
      <trkpt lat="45.57475" lon="6.58649">
        <ele>2334.6704</ele>
        <time>2020-01-27 12:39:03</time>
      </trkpt>
      <trkpt lat="45.57476" lon="6.58648">
        <ele>2334.6643</ele>
        <time>2020-01-27 12:39:04</time>
      </trkpt>
      <trkpt lat="45.57478" lon="6.58646">
        <ele>2334.9324</ele>
        <time>2020-01-27 12:39:07</time>
      </trkpt>
      <trkpt lat="45.57478" lon="6.58646">
        <ele>2334.9407</ele>
        <time>2020-01-27 12:39:08</time>
      </trkpt>
      <trkpt lat="45.57478" lon="6.58646">
        <ele>2335.4849</ele>
        <time>2020-01-27 12:39:09</time>
      </trkpt>
      <trkpt lat="45.57479" lon="6.58645">
        <ele>2335.7236</ele>
        <time>2020-01-27 12:39:10</time>
      </trkpt>
      <trkpt lat="45.5748" lon="6.58644">
        <ele>2336.2222</ele>
        <time>2020-01-27 12:39:11</time>
      </trkpt>
      <trkpt lat="45.5748" lon="6.58644">
        <ele>2337.7725</ele>
        <time>2020-01-27 12:39:12</time>
      </trkpt>
      <trkpt lat="45.57485" lon="6.5864">
        <ele>2334.9292</ele>
        <time>2020-01-27 12:39:19</time>
      </trkpt>
      <trkpt lat="45.57491" lon="6.58635">
        <ele>2334.4995</ele>
        <time>2020-01-27 12:39:25</time>
      </trkpt>
      <trkpt lat="45.57492" lon="6.58634">
        <ele>2334.853</ele>
        <time>2020-01-27 12:39:26</time>
      </trkpt>
      <trkpt lat="45.57493" lon="6.58633">
        <ele>2335.6343</ele>
        <time>2020-01-27 12:39:27</time>
      </trkpt>
      <trkpt lat="45.57494" lon="6.58632">
        <ele>2335.5757</ele>
        <time>2020-01-27 12:39:28</time>
      </trkpt>
      <trkpt lat="45.57494" lon="6.58631">
        <ele>2336.2056</ele>
        <time>2020-01-27 12:39:29</time>
      </trkpt>
      <trkpt lat="45.57496" lon="6.58629">
        <ele>2335.1921</ele>
        <time>2020-01-27 12:39:33</time>
      </trkpt>
      <trkpt lat="45.57497" lon="6.58628">
        <ele>2335.5137</ele>
        <time>2020-01-27 12:39:34</time>
      </trkpt>
      <trkpt lat="45.57498" lon="6.58625">
        <ele>2338.4456</ele>
        <time>2020-01-27 12:39:37</time>
      </trkpt>
      <trkpt lat="45.57499" lon="6.58622">
        <ele>2338.4895</ele>
        <time>2020-01-27 12:39:41</time>
      </trkpt>
      <trkpt lat="45.575" lon="6.58621">
        <ele>2338.9387</ele>
        <time>2020-01-27 12:39:42</time>
      </trkpt>
      <trkpt lat="45.57501" lon="6.5862">
        <ele>2340.3599</ele>
        <time>2020-01-27 12:39:43</time>
      </trkpt>
      <trkpt lat="45.57502" lon="6.58618">
        <ele>2341</ele>
        <time>2020-01-27 12:39:47</time>
      </trkpt>
      <trkpt lat="45.57501" lon="6.58617">
        <ele>2341.4802</ele>
        <time>2020-01-27 12:39:48</time>
      </trkpt>
      <trkpt lat="45.57501" lon="6.58617">
        <ele>2341.1306</ele>
        <time>2020-01-27 12:39:49</time>
      </trkpt>
      <trkpt lat="45.57501" lon="6.58616">
        <ele>2341.4517</ele>
        <time>2020-01-27 12:39:54</time>
      </trkpt>
      <trkpt lat="45.57503" lon="6.58612">
        <ele>2342.187</ele>
        <time>2020-01-27 12:39:57</time>
      </trkpt>
      <trkpt lat="45.57504" lon="6.5861">
        <ele>2342.4897</ele>
        <time>2020-01-27 12:39:59</time>
      </trkpt>
      <trkpt lat="45.57504" lon="6.58609">
        <ele>2342.5867</ele>
        <time>2020-01-27 12:40:00</time>
      </trkpt>
      <trkpt lat="45.57505" lon="6.58608">
        <ele>2342.7798</ele>
        <time>2020-01-27 12:40:01</time>
      </trkpt>
      <trkpt lat="45.57505" lon="6.58607">
        <ele>2343.1643</ele>
        <time>2020-01-27 12:40:03</time>
      </trkpt>
      <trkpt lat="45.57506" lon="6.58599">
        <ele>2343.5984</ele>
        <time>2020-01-27 12:40:07</time>
      </trkpt>
      <trkpt lat="45.57507" lon="6.58598">
        <ele>2343.3699</ele>
        <time>2020-01-27 12:40:08</time>
      </trkpt>
      <trkpt lat="45.57507" lon="6.58596">
        <ele>2343.8687</ele>
        <time>2020-01-27 12:40:09</time>
      </trkpt>
      <trkpt lat="45.57509" lon="6.58585">
        <ele>2345.2354</ele>
        <time>2020-01-27 12:40:21</time>
      </trkpt>
      <trkpt lat="45.5751" lon="6.58584">
        <ele>2345.4097</ele>
        <time>2020-01-27 12:40:22</time>
      </trkpt>
      <trkpt lat="45.5751" lon="6.58584">
        <ele>2345.5618</ele>
        <time>2020-01-27 12:40:23</time>
      </trkpt>
      <trkpt lat="45.5751" lon="6.58583">
        <ele>2346.4023</ele>
        <time>2020-01-27 12:40:24</time>
      </trkpt>
      <trkpt lat="45.57511" lon="6.58582">
        <ele>2345.716</ele>
        <time>2020-01-27 12:40:25</time>
      </trkpt>
      <trkpt lat="45.57511" lon="6.58582">
        <ele>2345.93</ele>
        <time>2020-01-27 12:40:26</time>
      </trkpt>
      <trkpt lat="45.57511" lon="6.58578">
        <ele>2346.5552</ele>
        <time>2020-01-27 12:40:32</time>
      </trkpt>
      <trkpt lat="45.57512" lon="6.58577">
        <ele>2347.0479</ele>
        <time>2020-01-27 12:40:33</time>
      </trkpt>
      <trkpt lat="45.57512" lon="6.58575">
        <ele>2346.6282</ele>
        <time>2020-01-27 12:40:34</time>
      </trkpt>
      <trkpt lat="45.57513" lon="6.58575">
        <ele>2346.5676</ele>
        <time>2020-01-27 12:40:35</time>
      </trkpt>
      <trkpt lat="45.57514" lon="6.58571">
        <ele>2347.819</ele>
        <time>2020-01-27 12:40:40</time>
      </trkpt>
      <trkpt lat="45.57514" lon="6.5857">
        <ele>2347.9834</ele>
        <time>2020-01-27 12:40:41</time>
      </trkpt>
      <trkpt lat="45.57515" lon="6.5857">
        <ele>2349.4675</ele>
        <time>2020-01-27 12:40:42</time>
      </trkpt>
      <trkpt lat="45.57516" lon="6.58569">
        <ele>2349.1772</ele>
        <time>2020-01-27 12:40:44</time>
      </trkpt>
      <trkpt lat="45.57516" lon="6.58565">
        <ele>2350.898</ele>
        <time>2020-01-27 12:40:48</time>
      </trkpt>
      <trkpt lat="45.57514" lon="6.58558">
        <ele>2352.3787</ele>
        <time>2020-01-27 12:40:54</time>
      </trkpt>
      <trkpt lat="45.57514" lon="6.58557">
        <ele>2353.105</ele>
        <time>2020-01-27 12:40:55</time>
      </trkpt>
      <trkpt lat="45.57514" lon="6.58556">
        <ele>2353.536</ele>
        <time>2020-01-27 12:40:56</time>
      </trkpt>
      <trkpt lat="45.57515" lon="6.58552">
        <ele>2354.0413</ele>
        <time>2020-01-27 12:41:00</time>
      </trkpt>
      <trkpt lat="45.57514" lon="6.58545">
        <ele>2353.8933</ele>
        <time>2020-01-27 12:41:07</time>
      </trkpt>
      <trkpt lat="45.57512" lon="6.58537">
        <ele>2353.1484</ele>
        <time>2020-01-27 12:41:15</time>
      </trkpt>
      <trkpt lat="45.57513" lon="6.58535">
        <ele>2354.1106</ele>
        <time>2020-01-27 12:41:17</time>
      </trkpt>
      <trkpt lat="45.57513" lon="6.58533">
        <ele>2353.1428</ele>
        <time>2020-01-27 12:41:20</time>
      </trkpt>
      <trkpt lat="45.57513" lon="6.58532">
        <ele>2352.9817</ele>
        <time>2020-01-27 12:41:21</time>
      </trkpt>
      <trkpt lat="45.57513" lon="6.58532">
        <ele>2353.4368</ele>
        <time>2020-01-27 12:41:22</time>
      </trkpt>
      <trkpt lat="45.57513" lon="6.58531">
        <ele>2353.5447</ele>
        <time>2020-01-27 12:41:23</time>
      </trkpt>
      <trkpt lat="45.57514" lon="6.58529">
        <ele>2354.6106</ele>
        <time>2020-01-27 12:41:27</time>
      </trkpt>
      <trkpt lat="45.57515" lon="6.58524">
        <ele>2353.1982</ele>
        <time>2020-01-27 12:41:33</time>
      </trkpt>
      <trkpt lat="45.57515" lon="6.58523">
        <ele>2353.7478</ele>
        <time>2020-01-27 12:41:34</time>
      </trkpt>
      <trkpt lat="45.57517" lon="6.5852">
        <ele>2355.8083</ele>
        <time>2020-01-27 12:41:37</time>
      </trkpt>
      <trkpt lat="45.57517" lon="6.58519">
        <ele>2355.9397</ele>
        <time>2020-01-27 12:41:38</time>
      </trkpt>
      <trkpt lat="45.57517" lon="6.58519">
        <ele>2355.797</ele>
        <time>2020-01-27 12:41:39</time>
      </trkpt>
      <trkpt lat="45.57517" lon="6.58518">
        <ele>2355.747</ele>
        <time>2020-01-27 12:41:40</time>
      </trkpt>
      <trkpt lat="45.57517" lon="6.58517">
        <ele>2356.6284</ele>
        <time>2020-01-27 12:41:41</time>
      </trkpt>
      <trkpt lat="45.57517" lon="6.58517">
        <ele>2356.7998</ele>
        <time>2020-01-27 12:41:42</time>
      </trkpt>
      <trkpt lat="45.57517" lon="6.58516">
        <ele>2356.911</ele>
        <time>2020-01-27 12:41:43</time>
      </trkpt>
      <trkpt lat="45.57516" lon="6.58516">
        <ele>2357.4927</ele>
        <time>2020-01-27 12:41:44</time>
      </trkpt>
      <trkpt lat="45.57516" lon="6.58515">
        <ele>2357.4768</ele>
        <time>2020-01-27 12:41:45</time>
      </trkpt>
      <trkpt lat="45.57516" lon="6.58514">
        <ele>2358.1133</ele>
        <time>2020-01-27 12:41:46</time>
      </trkpt>
      <trkpt lat="45.57518" lon="6.5851">
        <ele>2357.8577</ele>
        <time>2020-01-27 12:41:53</time>
      </trkpt>
      <trkpt lat="45.57518" lon="6.58509">
        <ele>2357.2605</ele>
        <time>2020-01-27 12:41:55</time>
      </trkpt>
      <trkpt lat="45.57518" lon="6.58506">
        <ele>2358.4163</ele>
        <time>2020-01-27 12:41:59</time>
      </trkpt>
      <trkpt lat="45.57518" lon="6.58503">
        <ele>2359.6794</ele>
        <time>2020-01-27 12:42:04</time>
      </trkpt>
      <trkpt lat="45.57517" lon="6.58502">
        <ele>2359.8242</ele>
        <time>2020-01-27 12:42:05</time>
      </trkpt>
      <trkpt lat="45.57517" lon="6.58501">
        <ele>2359.4915</ele>
        <time>2020-01-27 12:42:06</time>
      </trkpt>
      <trkpt lat="45.57517" lon="6.585">
        <ele>2360.1062</ele>
        <time>2020-01-27 12:42:07</time>
      </trkpt>
      <trkpt lat="45.57517" lon="6.58499">
        <ele>2360.32</ele>
        <time>2020-01-27 12:42:08</time>
      </trkpt>
      <trkpt lat="45.57517" lon="6.58498">
        <ele>2361.4844</ele>
        <time>2020-01-27 12:42:09</time>
      </trkpt>
      <trkpt lat="45.57517" lon="6.58497">
        <ele>2360.1191</ele>
        <time>2020-01-27 12:42:10</time>
      </trkpt>
      <trkpt lat="45.57517" lon="6.58495">
        <ele>2359.972</ele>
        <time>2020-01-27 12:42:11</time>
      </trkpt>
      <trkpt lat="45.57517" lon="6.58494">
        <ele>2360.169</ele>
        <time>2020-01-27 12:42:12</time>
      </trkpt>
      <trkpt lat="45.57517" lon="6.58493">
        <ele>2360.3997</ele>
        <time>2020-01-27 12:42:13</time>
      </trkpt>
      <trkpt lat="45.57517" lon="6.58492">
        <ele>2359.755</ele>
        <time>2020-01-27 12:42:14</time>
      </trkpt>
      <trkpt lat="45.57518" lon="6.58491">
        <ele>2359.938</ele>
        <time>2020-01-27 12:42:15</time>
      </trkpt>
      <trkpt lat="45.57518" lon="6.5849">
        <ele>2359.719</ele>
        <time>2020-01-27 12:42:16</time>
      </trkpt>
      <trkpt lat="45.57519" lon="6.58489">
        <ele>2360.1636</ele>
        <time>2020-01-27 12:42:17</time>
      </trkpt>
      <trkpt lat="45.5752" lon="6.58488">
        <ele>2360.1658</ele>
        <time>2020-01-27 12:42:18</time>
      </trkpt>
      <trkpt lat="45.5752" lon="6.58487">
        <ele>2360.8105</ele>
        <time>2020-01-27 12:42:19</time>
      </trkpt>
      <trkpt lat="45.5752" lon="6.58486">
        <ele>2360.9055</ele>
        <time>2020-01-27 12:42:20</time>
      </trkpt>
      <trkpt lat="45.57521" lon="6.58485">
        <ele>2362.2915</ele>
        <time>2020-01-27 12:42:21</time>
      </trkpt>
      <trkpt lat="45.57521" lon="6.58484">
        <ele>2362.3967</ele>
        <time>2020-01-27 12:42:22</time>
      </trkpt>
      <trkpt lat="45.57521" lon="6.58483">
        <ele>2360.553</ele>
        <time>2020-01-27 12:42:23</time>
      </trkpt>
      <trkpt lat="45.57521" lon="6.58482">
        <ele>2361.1997</ele>
        <time>2020-01-27 12:42:24</time>
      </trkpt>
      <trkpt lat="45.57521" lon="6.58481">
        <ele>2361.607</ele>
        <time>2020-01-27 12:42:26</time>
      </trkpt>
      <trkpt lat="45.57521" lon="6.58481">
        <ele>2361.7876</ele>
        <time>2020-01-27 12:42:27</time>
      </trkpt>
      <trkpt lat="45.57521" lon="6.5848">
        <ele>2361.7175</ele>
        <time>2020-01-27 12:42:28</time>
      </trkpt>
      <trkpt lat="45.5752" lon="6.58476">
        <ele>2362.5024</ele>
        <time>2020-01-27 12:42:34</time>
      </trkpt>
      <trkpt lat="45.5752" lon="6.58475">
        <ele>2362.0964</ele>
        <time>2020-01-27 12:42:37</time>
      </trkpt>
      <trkpt lat="45.5752" lon="6.58475">
        <ele>2364.756</ele>
        <time>2020-01-27 12:42:40</time>
      </trkpt>
      <trkpt lat="45.5752" lon="6.58475">
        <ele>2364.1418</ele>
        <time>2020-01-27 12:42:41</time>
      </trkpt>
      <trkpt lat="45.57521" lon="6.58475">
        <ele>2364.283</ele>
        <time>2020-01-27 12:42:42</time>
      </trkpt>
      <trkpt lat="45.57522" lon="6.58475">
        <ele>2364.7864</ele>
        <time>2020-01-27 12:42:44</time>
      </trkpt>
      <trkpt lat="45.57522" lon="6.58474">
        <ele>2364.6892</ele>
        <time>2020-01-27 12:42:49</time>
      </trkpt>
      <trkpt lat="45.57523" lon="6.58474">
        <ele>2364.879</ele>
        <time>2020-01-27 12:42:50</time>
      </trkpt>
      <trkpt lat="45.57523" lon="6.58474">
        <ele>2364.5662</ele>
        <time>2020-01-27 12:42:51</time>
      </trkpt>
      <trkpt lat="45.57525" lon="6.58473">
        <ele>2365.4824</ele>
        <time>2020-01-27 12:42:52</time>
      </trkpt>
      <trkpt lat="45.57525" lon="6.58473">
        <ele>2365.4006</ele>
        <time>2020-01-27 12:42:53</time>
      </trkpt>
      <trkpt lat="45.57526" lon="6.58472">
        <ele>2365.7466</ele>
        <time>2020-01-27 12:42:54</time>
      </trkpt>
      <trkpt lat="45.57527" lon="6.58472">
        <ele>2366.0806</ele>
        <time>2020-01-27 12:42:55</time>
      </trkpt>
      <trkpt lat="45.57528" lon="6.58471">
        <ele>2367.1843</ele>
        <time>2020-01-27 12:43:00</time>
      </trkpt>
      <trkpt lat="45.5753" lon="6.58469">
        <ele>2366.4082</ele>
        <time>2020-01-27 12:43:03</time>
      </trkpt>
      <trkpt lat="45.57531" lon="6.58468">
        <ele>2366.7646</ele>
        <time>2020-01-27 12:43:04</time>
      </trkpt>
      <trkpt lat="45.57532" lon="6.58468">
        <ele>2366.599</ele>
        <time>2020-01-27 12:43:05</time>
      </trkpt>
      <trkpt lat="45.57533" lon="6.58467">
        <ele>2366.6562</ele>
        <time>2020-01-27 12:43:08</time>
      </trkpt>
      <trkpt lat="45.57533" lon="6.58467">
        <ele>2366.7358</ele>
        <time>2020-01-27 12:43:09</time>
      </trkpt>
      <trkpt lat="45.57535" lon="6.58466">
        <ele>2366.623</ele>
        <time>2020-01-27 12:43:12</time>
      </trkpt>
      <trkpt lat="45.57535" lon="6.58465">
        <ele>2366.4338</ele>
        <time>2020-01-27 12:43:13</time>
      </trkpt>
      <trkpt lat="45.57536" lon="6.58465">
        <ele>2366.137</ele>
        <time>2020-01-27 12:43:16</time>
      </trkpt>
      <trkpt lat="45.57536" lon="6.58466">
        <ele>2366.5627</ele>
        <time>2020-01-27 12:43:17</time>
      </trkpt>
      <trkpt lat="45.57537" lon="6.58465">
        <ele>2366.8096</ele>
        <time>2020-01-27 12:43:18</time>
      </trkpt>
      <trkpt lat="45.57537" lon="6.58466">
        <ele>2367.4912</ele>
        <time>2020-01-27 12:43:19</time>
      </trkpt>
      <trkpt lat="45.57538" lon="6.58465">
        <ele>2367.0315</ele>
        <time>2020-01-27 12:43:20</time>
      </trkpt>
      <trkpt lat="45.5754" lon="6.58463">
        <ele>2367.7087</ele>
        <time>2020-01-27 12:43:24</time>
      </trkpt>
      <trkpt lat="45.57541" lon="6.58462">
        <ele>2368.487</ele>
        <time>2020-01-27 12:43:25</time>
      </trkpt>
      <trkpt lat="45.57542" lon="6.58462">
        <ele>2368.8745</ele>
        <time>2020-01-27 12:43:26</time>
      </trkpt>
      <trkpt lat="45.57543" lon="6.58461">
        <ele>2368.8262</ele>
        <time>2020-01-27 12:43:29</time>
      </trkpt>
      <trkpt lat="45.57548" lon="6.58457">
        <ele>2367.4805</ele>
        <time>2020-01-27 12:43:37</time>
      </trkpt>
      <trkpt lat="45.5755" lon="6.58456">
        <ele>2367.2363</ele>
        <time>2020-01-27 12:43:38</time>
      </trkpt>
      <trkpt lat="45.5755" lon="6.58456">
        <ele>2367.21</ele>
        <time>2020-01-27 12:43:39</time>
      </trkpt>
      <trkpt lat="45.57552" lon="6.58456">
        <ele>2367.94</ele>
        <time>2020-01-27 12:43:40</time>
      </trkpt>
      <trkpt lat="45.57552" lon="6.58456">
        <ele>2368.1772</ele>
        <time>2020-01-27 12:43:41</time>
      </trkpt>
      <trkpt lat="45.57553" lon="6.58456">
        <ele>2368.429</ele>
        <time>2020-01-27 12:43:42</time>
      </trkpt>
      <trkpt lat="45.57553" lon="6.58457">
        <ele>2368.3118</ele>
        <time>2020-01-27 12:43:43</time>
      </trkpt>
      <trkpt lat="45.57554" lon="6.58457">
        <ele>2369.5742</ele>
        <time>2020-01-27 12:43:44</time>
      </trkpt>
      <trkpt lat="45.57554" lon="6.58458">
        <ele>2369.0579</ele>
        <time>2020-01-27 12:43:45</time>
      </trkpt>
      <trkpt lat="45.57554" lon="6.58458">
        <ele>2369.95</ele>
        <time>2020-01-27 12:43:47</time>
      </trkpt>
      <trkpt lat="45.57555" lon="6.58459">
        <ele>2370.269</ele>
        <time>2020-01-27 12:43:49</time>
      </trkpt>
      <trkpt lat="45.5756" lon="6.5846">
        <ele>2371.69</ele>
        <time>2020-01-27 12:43:55</time>
      </trkpt>
      <trkpt lat="45.57565" lon="6.58463">
        <ele>2371.192</ele>
        <time>2020-01-27 12:44:01</time>
      </trkpt>
      <trkpt lat="45.57566" lon="6.58464">
        <ele>2369.8867</ele>
        <time>2020-01-27 12:44:03</time>
      </trkpt>
      <trkpt lat="45.57567" lon="6.58464">
        <ele>2369.2856</ele>
        <time>2020-01-27 12:44:04</time>
      </trkpt>
      <trkpt lat="45.57567" lon="6.58465">
        <ele>2369.3816</ele>
        <time>2020-01-27 12:44:05</time>
      </trkpt>
      <trkpt lat="45.57568" lon="6.58466">
        <ele>2369.4143</ele>
        <time>2020-01-27 12:44:06</time>
      </trkpt>
      <trkpt lat="45.57571" lon="6.58469">
        <ele>2370.8337</ele>
        <time>2020-01-27 12:44:12</time>
      </trkpt>
      <trkpt lat="45.57572" lon="6.58469">
        <ele>2371.0642</ele>
        <time>2020-01-27 12:44:13</time>
      </trkpt>
      <trkpt lat="45.57573" lon="6.5847">
        <ele>2370.9707</ele>
        <time>2020-01-27 12:44:14</time>
      </trkpt>
      <trkpt lat="45.57573" lon="6.58471">
        <ele>2372.885</ele>
        <time>2020-01-27 12:44:45</time>
      </trkpt>
      <trkpt lat="45.57573" lon="6.58471">
        <ele>2372.8657</ele>
        <time>2020-01-27 12:45:15</time>
      </trkpt>
      <trkpt lat="45.57573" lon="6.58471">
        <ele>2372.787</ele>
        <time>2020-01-27 12:45:45</time>
      </trkpt>
      <trkpt lat="45.57573" lon="6.58471">
        <ele>2372.727</ele>
        <time>2020-01-27 12:46:17</time>
      </trkpt>
      <trkpt lat="45.57573" lon="6.58471">
        <ele>2373.0466</ele>
        <time>2020-01-27 12:46:21</time>
      </trkpt>
      <trkpt lat="45.57574" lon="6.58472">
        <ele>2373.0803</ele>
        <time>2020-01-27 12:46:22</time>
      </trkpt>
      <trkpt lat="45.57574" lon="6.58472">
        <ele>2373.2224</ele>
        <time>2020-01-27 12:46:34</time>
      </trkpt>
      <trkpt lat="45.57574" lon="6.58473">
        <ele>2373.004</ele>
        <time>2020-01-27 12:46:35</time>
      </trkpt>
      <trkpt lat="45.57575" lon="6.58472">
        <ele>2372.6924</ele>
        <time>2020-01-27 12:47:07</time>
      </trkpt>
      <trkpt lat="45.57575" lon="6.58472">
        <ele>2372.7417</ele>
        <time>2020-01-27 12:47:37</time>
      </trkpt>
      <trkpt lat="45.57575" lon="6.58472">
        <ele>2370.7324</ele>
        <time>2020-01-27 12:47:42</time>
      </trkpt>
      <trkpt lat="45.57575" lon="6.58472">
        <ele>2369.8066</ele>
        <time>2020-01-27 12:47:43</time>
      </trkpt>
      <trkpt lat="45.57575" lon="6.58471">
        <ele>2369.4092</ele>
        <time>2020-01-27 12:47:55</time>
      </trkpt>
      <trkpt lat="45.57576" lon="6.58471">
        <ele>2369.188</ele>
        <time>2020-01-27 12:47:56</time>
      </trkpt>
      <trkpt lat="45.57576" lon="6.58471">
        <ele>2369.8953</ele>
        <time>2020-01-27 12:48:26</time>
      </trkpt>
      <trkpt lat="45.57576" lon="6.58471">
        <ele>2369.9277</ele>
        <time>2020-01-27 12:48:59</time>
      </trkpt>
      <trkpt lat="45.57576" lon="6.58471">
        <ele>2369.9285</ele>
        <time>2020-01-27 12:49:29</time>
      </trkpt>
      <trkpt lat="45.57576" lon="6.58471">
        <ele>2369.9585</ele>
        <time>2020-01-27 12:49:59</time>
      </trkpt>
      <trkpt lat="45.57576" lon="6.58471">
        <ele>2369.9758</ele>
        <time>2020-01-27 12:50:29</time>
      </trkpt>
      <trkpt lat="45.57576" lon="6.58471">
        <ele>2369.9607</ele>
        <time>2020-01-27 12:50:59</time>
      </trkpt>
      <trkpt lat="45.57576" lon="6.58471">
        <ele>2369.942</ele>
        <time>2020-01-27 12:51:30</time>
      </trkpt>
      <trkpt lat="45.57576" lon="6.58472">
        <ele>2369.9539</ele>
        <time>2020-01-27 12:52:00</time>
      </trkpt>
      <trkpt lat="45.57576" lon="6.58472">
        <ele>2369.9702</ele>
        <time>2020-01-27 12:52:33</time>
      </trkpt>
      <trkpt lat="45.57576" lon="6.58472">
        <ele>2370.0017</ele>
        <time>2020-01-27 12:53:03</time>
      </trkpt>
      <trkpt lat="45.57576" lon="6.58472">
        <ele>2370.0361</ele>
        <time>2020-01-27 12:53:33</time>
      </trkpt>
      <trkpt lat="45.57576" lon="6.58472">
        <ele>2370.0725</ele>
        <time>2020-01-27 12:54:16</time>
      </trkpt>
      <trkpt lat="45.57576" lon="6.58472">
        <ele>2370.1045</ele>
        <time>2020-01-27 12:55:34</time>
      </trkpt>
      <trkpt lat="45.57575" lon="6.58472">
        <ele>2368.3665</ele>
        <time>2020-01-27 12:57:27</time>
      </trkpt>
      <trkpt lat="45.57575" lon="6.58472">
        <ele>2368.3035</ele>
        <time>2020-01-27 12:57:42</time>
      </trkpt>
      <trkpt lat="45.57575" lon="6.58472">
        <ele>2368.339</ele>
        <time>2020-01-27 12:57:43</time>
      </trkpt>
      <trkpt lat="45.57576" lon="6.58473">
        <ele>2368.9573</ele>
        <time>2020-01-27 12:57:50</time>
      </trkpt>
      <trkpt lat="45.57576" lon="6.58473">
        <ele>2368.9917</ele>
        <time>2020-01-27 12:57:51</time>
      </trkpt>
      <trkpt lat="45.57576" lon="6.58472">
        <ele>2369.3455</ele>
        <time>2020-01-27 12:57:52</time>
      </trkpt>
      <trkpt lat="45.57576" lon="6.58472">
        <ele>2369.9382</ele>
        <time>2020-01-27 12:57:53</time>
      </trkpt>
      <trkpt lat="45.57576" lon="6.58471">
        <ele>2369.4792</ele>
        <time>2020-01-27 12:58:23</time>
      </trkpt>
      <trkpt lat="45.57576" lon="6.58471">
        <ele>2369.469</ele>
        <time>2020-01-27 12:58:53</time>
      </trkpt>
      <trkpt lat="45.57576" lon="6.58471">
        <ele>2369.6035</ele>
        <time>2020-01-27 12:58:55</time>
      </trkpt>
      <trkpt lat="45.57576" lon="6.58471">
        <ele>2369.533</ele>
        <time>2020-01-27 12:58:56</time>
      </trkpt>
      <trkpt lat="45.57576" lon="6.58472">
        <ele>2369.7134</ele>
        <time>2020-01-27 12:59:17</time>
      </trkpt>
      <trkpt lat="45.57576" lon="6.58472">
        <ele>2369.3667</ele>
        <time>2020-01-27 12:59:19</time>
      </trkpt>
      <trkpt lat="45.57576" lon="6.58472">
        <ele>2369.0754</ele>
        <time>2020-01-27 12:59:21</time>
      </trkpt>
      <trkpt lat="45.57575" lon="6.58472">
        <ele>2369.2466</ele>
        <time>2020-01-27 12:59:22</time>
      </trkpt>
      <trkpt lat="45.57576" lon="6.58471">
        <ele>2369.1128</ele>
        <time>2020-01-27 12:59:52</time>
      </trkpt>
      <trkpt lat="45.57576" lon="6.58471">
        <ele>2368.2114</ele>
        <time>2020-01-27 13:00:07</time>
      </trkpt>
      <trkpt lat="45.57576" lon="6.58471">
        <ele>2367.8987</ele>
        <time>2020-01-27 13:00:08</time>
      </trkpt>
      <trkpt lat="45.57576" lon="6.58471">
        <ele>2368.921</ele>
        <time>2020-01-27 13:00:38</time>
      </trkpt>
      <trkpt lat="45.57576" lon="6.58471">
        <ele>2368.9607</ele>
        <time>2020-01-27 13:01:08</time>
      </trkpt>
      <trkpt lat="45.57576" lon="6.58471">
        <ele>2368.9954</ele>
        <time>2020-01-27 13:01:38</time>
      </trkpt>
      <trkpt lat="45.57576" lon="6.58471">
        <ele>2368.584</ele>
        <time>2020-01-27 13:01:40</time>
      </trkpt>
      <trkpt lat="45.57577" lon="6.58468">
        <ele>2368.9966</ele>
        <time>2020-01-27 13:01:43</time>
      </trkpt>
      <trkpt lat="45.57576" lon="6.58463">
        <ele>2368.4934</ele>
        <time>2020-01-27 13:01:45</time>
      </trkpt>
      <trkpt lat="45.57576" lon="6.58461">
        <ele>2368.1663</ele>
        <time>2020-01-27 13:01:46</time>
      </trkpt>
      <trkpt lat="45.57577" lon="6.58459">
        <ele>2367.4531</ele>
        <time>2020-01-27 13:01:47</time>
      </trkpt>
      <trkpt lat="45.57586" lon="6.58456">
        <ele>2364.4255</ele>
        <time>2020-01-27 13:01:53</time>
      </trkpt>
      <trkpt lat="45.57588" lon="6.58453">
        <ele>2363.1707</ele>
        <time>2020-01-27 13:01:55</time>
      </trkpt>
      <trkpt lat="45.57589" lon="6.5845">
        <ele>2362.1882</ele>
        <time>2020-01-27 13:01:56</time>
      </trkpt>
      <trkpt lat="45.57592" lon="6.58447">
        <ele>2361.6064</ele>
        <time>2020-01-27 13:01:57</time>
      </trkpt>
      <trkpt lat="45.57603" lon="6.5844">
        <ele>2361.3328</ele>
        <time>2020-01-27 13:02:00</time>
      </trkpt>
      <trkpt lat="45.57606" lon="6.58437">
        <ele>2361.2124</ele>
        <time>2020-01-27 13:02:01</time>
      </trkpt>
      <trkpt lat="45.57614" lon="6.58425">
        <ele>2360.6394</ele>
        <time>2020-01-27 13:02:05</time>
      </trkpt>
      <trkpt lat="45.57621" lon="6.58419">
        <ele>2358.2761</ele>
        <time>2020-01-27 13:02:10</time>
      </trkpt>
      <trkpt lat="45.57623" lon="6.58417">
        <ele>2358.7761</ele>
        <time>2020-01-27 13:02:12</time>
      </trkpt>
      <trkpt lat="45.57629" lon="6.58415">
        <ele>2360.6</ele>
        <time>2020-01-27 13:02:18</time>
      </trkpt>
      <trkpt lat="45.57631" lon="6.58415">
        <ele>2360.2166</ele>
        <time>2020-01-27 13:02:21</time>
      </trkpt>
      <trkpt lat="45.57631" lon="6.58415">
        <ele>2360.013</ele>
        <time>2020-01-27 13:02:22</time>
      </trkpt>
      <trkpt lat="45.57636" lon="6.58412">
        <ele>2362.129</ele>
        <time>2020-01-27 13:02:32</time>
      </trkpt>
      <trkpt lat="45.57636" lon="6.58412">
        <ele>2362.2854</ele>
        <time>2020-01-27 13:02:35</time>
      </trkpt>
      <trkpt lat="45.57638" lon="6.5841">
        <ele>2362.0637</ele>
        <time>2020-01-27 13:02:40</time>
      </trkpt>
      <trkpt lat="45.57638" lon="6.58409">
        <ele>2362.466</ele>
        <time>2020-01-27 13:02:42</time>
      </trkpt>
      <trkpt lat="45.57638" lon="6.58408">
        <ele>2362.0059</ele>
        <time>2020-01-27 13:02:43</time>
      </trkpt>
      <trkpt lat="45.57638" lon="6.58408">
        <ele>2361.7927</ele>
        <time>2020-01-27 13:02:44</time>
      </trkpt>
      <trkpt lat="45.57639" lon="6.58408">
        <ele>2361.1345</ele>
        <time>2020-01-27 13:02:45</time>
      </trkpt>
      <trkpt lat="45.57642" lon="6.58406">
        <ele>2360.3425</ele>
        <time>2020-01-27 13:02:47</time>
      </trkpt>
      <trkpt lat="45.57666" lon="6.58397">
        <ele>2356.221</ele>
        <time>2020-01-27 13:02:55</time>
      </trkpt>
      <trkpt lat="45.57668" lon="6.58397">
        <ele>2355.3074</ele>
        <time>2020-01-27 13:02:56</time>
      </trkpt>
      <trkpt lat="45.57672" lon="6.58397">
        <ele>2354.4285</ele>
        <time>2020-01-27 13:02:58</time>
      </trkpt>
      <trkpt lat="45.5768" lon="6.58396">
        <ele>2354.1218</ele>
        <time>2020-01-27 13:03:01</time>
      </trkpt>
      <trkpt lat="45.57684" lon="6.58395">
        <ele>2353.4553</ele>
        <time>2020-01-27 13:03:03</time>
      </trkpt>
      <trkpt lat="45.5769" lon="6.58393">
        <ele>2351.1401</ele>
        <time>2020-01-27 13:03:06</time>
      </trkpt>
      <trkpt lat="45.57702" lon="6.58383">
        <ele>2350.2537</ele>
        <time>2020-01-27 13:03:13</time>
      </trkpt>
      <trkpt lat="45.57704" lon="6.58382">
        <ele>2349.892</ele>
        <time>2020-01-27 13:03:14</time>
      </trkpt>
      <trkpt lat="45.57705" lon="6.58381">
        <ele>2350.6604</ele>
        <time>2020-01-27 13:03:17</time>
      </trkpt>
      <trkpt lat="45.57706" lon="6.58382">
        <ele>2349.8965</ele>
        <time>2020-01-27 13:03:20</time>
      </trkpt>
      <trkpt lat="45.57706" lon="6.58382">
        <ele>2350.154</ele>
        <time>2020-01-27 13:03:21</time>
      </trkpt>
      <trkpt lat="45.57707" lon="6.58383">
        <ele>2350.3008</ele>
        <time>2020-01-27 13:03:22</time>
      </trkpt>
      <trkpt lat="45.57709" lon="6.58385">
        <ele>2349.956</ele>
        <time>2020-01-27 13:03:23</time>
      </trkpt>
      <trkpt lat="45.57713" lon="6.58386">
        <ele>2348.2954</ele>
        <time>2020-01-27 13:03:28</time>
      </trkpt>
      <trkpt lat="45.57715" lon="6.58385">
        <ele>2348.1118</ele>
        <time>2020-01-27 13:03:31</time>
      </trkpt>
      <trkpt lat="45.57716" lon="6.58385">
        <ele>2348.5269</ele>
        <time>2020-01-27 13:03:32</time>
      </trkpt>
      <trkpt lat="45.57717" lon="6.58385">
        <ele>2347.7852</ele>
        <time>2020-01-27 13:03:33</time>
      </trkpt>
      <trkpt lat="45.57718" lon="6.58384">
        <ele>2346.6938</ele>
        <time>2020-01-27 13:03:34</time>
      </trkpt>
      <trkpt lat="45.5772" lon="6.58381">
        <ele>2346.265</ele>
        <time>2020-01-27 13:03:35</time>
      </trkpt>
      <trkpt lat="45.57726" lon="6.58369">
        <ele>2344.217</ele>
        <time>2020-01-27 13:03:43</time>
      </trkpt>
      <trkpt lat="45.57729" lon="6.58367">
        <ele>2343.1584</ele>
        <time>2020-01-27 13:03:45</time>
      </trkpt>
      <trkpt lat="45.57731" lon="6.58366">
        <ele>2342.1067</ele>
        <time>2020-01-27 13:03:46</time>
      </trkpt>
      <trkpt lat="45.57734" lon="6.58366">
        <ele>2342.063</ele>
        <time>2020-01-27 13:03:48</time>
      </trkpt>
      <trkpt lat="45.57739" lon="6.58367">
        <ele>2340.2544</ele>
        <time>2020-01-27 13:03:51</time>
      </trkpt>
      <trkpt lat="45.57742" lon="6.58364">
        <ele>2339.5942</ele>
        <time>2020-01-27 13:03:55</time>
      </trkpt>
      <trkpt lat="45.57744" lon="6.58363">
        <ele>2338.4973</ele>
        <time>2020-01-27 13:03:56</time>
      </trkpt>
      <trkpt lat="45.57746" lon="6.58362">
        <ele>2337.8442</ele>
        <time>2020-01-27 13:03:57</time>
      </trkpt>
      <trkpt lat="45.57753" lon="6.58356">
        <ele>2336.014</ele>
        <time>2020-01-27 13:04:03</time>
      </trkpt>
      <trkpt lat="45.57755" lon="6.58353">
        <ele>2335.0654</ele>
        <time>2020-01-27 13:04:06</time>
      </trkpt>
      <trkpt lat="45.57757" lon="6.5835">
        <ele>2333.911</ele>
        <time>2020-01-27 13:04:10</time>
      </trkpt>
      <trkpt lat="45.57758" lon="6.58349">
        <ele>2333.9792</ele>
        <time>2020-01-27 13:04:13</time>
      </trkpt>
      <trkpt lat="45.57758" lon="6.58348">
        <ele>2333.9023</ele>
        <time>2020-01-27 13:04:15</time>
      </trkpt>
      <trkpt lat="45.57759" lon="6.58347">
        <ele>2332.7908</ele>
        <time>2020-01-27 13:04:17</time>
      </trkpt>
      <trkpt lat="45.57761" lon="6.58345">
        <ele>2331.1697</ele>
        <time>2020-01-27 13:04:20</time>
      </trkpt>
      <trkpt lat="45.57762" lon="6.58343">
        <ele>2330.6355</ele>
        <time>2020-01-27 13:04:21</time>
      </trkpt>
      <trkpt lat="45.57763" lon="6.58337">
        <ele>2329.7712</ele>
        <time>2020-01-27 13:04:23</time>
      </trkpt>
      <trkpt lat="45.57761" lon="6.58333">
        <ele>2329.3984</ele>
        <time>2020-01-27 13:04:25</time>
      </trkpt>
      <trkpt lat="45.57757" lon="6.58327">
        <ele>2328.015</ele>
        <time>2020-01-27 13:04:28</time>
      </trkpt>
      <trkpt lat="45.57752" lon="6.58321">
        <ele>2328.3577</ele>
        <time>2020-01-27 13:04:31</time>
      </trkpt>
      <trkpt lat="45.57751" lon="6.58322">
        <ele>2329.7173</ele>
        <time>2020-01-27 13:04:32</time>
      </trkpt>
      <trkpt lat="45.57751" lon="6.58321">
        <ele>2328.7712</ele>
        <time>2020-01-27 13:04:34</time>
      </trkpt>
      <trkpt lat="45.57751" lon="6.58318">
        <ele>2327.9197</ele>
        <time>2020-01-27 13:04:35</time>
      </trkpt>
      <trkpt lat="45.57753" lon="6.58317">
        <ele>2327.978</ele>
        <time>2020-01-27 13:04:36</time>
      </trkpt>
      <trkpt lat="45.57755" lon="6.58316">
        <ele>2327.477</ele>
        <time>2020-01-27 13:04:37</time>
      </trkpt>
      <trkpt lat="45.5776" lon="6.58318">
        <ele>2326.699</ele>
        <time>2020-01-27 13:04:40</time>
      </trkpt>
      <trkpt lat="45.57762" lon="6.58317">
        <ele>2325.9834</ele>
        <time>2020-01-27 13:04:41</time>
      </trkpt>
      <trkpt lat="45.57764" lon="6.58314">
        <ele>2323.8047</ele>
        <time>2020-01-27 13:04:43</time>
      </trkpt>
      <trkpt lat="45.5776" lon="6.58306">
        <ele>2322.8025</ele>
        <time>2020-01-27 13:04:47</time>
      </trkpt>
      <trkpt lat="45.57759" lon="6.58303">
        <ele>2321.3184</ele>
        <time>2020-01-27 13:04:48</time>
      </trkpt>
      <trkpt lat="45.5776" lon="6.58301">
        <ele>2321.1775</ele>
        <time>2020-01-27 13:04:49</time>
      </trkpt>
      <trkpt lat="45.57766" lon="6.58299">
        <ele>2319.5554</ele>
        <time>2020-01-27 13:04:52</time>
      </trkpt>
      <trkpt lat="45.57768" lon="6.58299">
        <ele>2318.6912</ele>
        <time>2020-01-27 13:04:53</time>
      </trkpt>
      <trkpt lat="45.57771" lon="6.58299">
        <ele>2318.0276</ele>
        <time>2020-01-27 13:04:55</time>
      </trkpt>
      <trkpt lat="45.57773" lon="6.583">
        <ele>2317.6775</ele>
        <time>2020-01-27 13:04:57</time>
      </trkpt>
      <trkpt lat="45.57774" lon="6.58298">
        <ele>2316.9946</ele>
        <time>2020-01-27 13:04:59</time>
      </trkpt>
      <trkpt lat="45.57767" lon="6.58291">
        <ele>2314.923</ele>
        <time>2020-01-27 13:05:07</time>
      </trkpt>
      <trkpt lat="45.57766" lon="6.58288">
        <ele>2313.7427</ele>
        <time>2020-01-27 13:05:08</time>
      </trkpt>
      <trkpt lat="45.57767" lon="6.58286">
        <ele>2313.754</ele>
        <time>2020-01-27 13:05:09</time>
      </trkpt>
      <trkpt lat="45.5777" lon="6.58285">
        <ele>2314.1492</ele>
        <time>2020-01-27 13:05:10</time>
      </trkpt>
      <trkpt lat="45.57787" lon="6.5829">
        <ele>2307.9944</ele>
        <time>2020-01-27 13:05:16</time>
      </trkpt>
      <trkpt lat="45.57791" lon="6.58289">
        <ele>2306.9185</ele>
        <time>2020-01-27 13:05:17</time>
      </trkpt>
      <trkpt lat="45.57793" lon="6.58286">
        <ele>2306.852</ele>
        <time>2020-01-27 13:05:18</time>
      </trkpt>
      <trkpt lat="45.57792" lon="6.58279">
        <ele>2306.7798</ele>
        <time>2020-01-27 13:05:20</time>
      </trkpt>
      <trkpt lat="45.57791" lon="6.58276">
        <ele>2307.1763</ele>
        <time>2020-01-27 13:05:21</time>
      </trkpt>
      <trkpt lat="45.5779" lon="6.58273">
        <ele>2306.6147</ele>
        <time>2020-01-27 13:05:22</time>
      </trkpt>
      <trkpt lat="45.57791" lon="6.58269">
        <ele>2305.0378</ele>
        <time>2020-01-27 13:05:23</time>
      </trkpt>
      <trkpt lat="45.57793" lon="6.58264">
        <ele>2305.1118</ele>
        <time>2020-01-27 13:05:24</time>
      </trkpt>
      <trkpt lat="45.57795" lon="6.58259">
        <ele>2303.8594</ele>
        <time>2020-01-27 13:05:25</time>
      </trkpt>
      <trkpt lat="45.57796" lon="6.58253">
        <ele>2303.6191</ele>
        <time>2020-01-27 13:05:26</time>
      </trkpt>
      <trkpt lat="45.57796" lon="6.58243">
        <ele>2303.5374</ele>
        <time>2020-01-27 13:05:28</time>
      </trkpt>
      <trkpt lat="45.57796" lon="6.58239">
        <ele>2302.8652</ele>
        <time>2020-01-27 13:05:29</time>
      </trkpt>
      <trkpt lat="45.57795" lon="6.58235">
        <ele>2303.1265</ele>
        <time>2020-01-27 13:05:30</time>
      </trkpt>
      <trkpt lat="45.57794" lon="6.5823">
        <ele>2302.1252</ele>
        <time>2020-01-27 13:05:32</time>
      </trkpt>
      <trkpt lat="45.57798" lon="6.58225">
        <ele>2297.7957</ele>
        <time>2020-01-27 13:05:34</time>
      </trkpt>
      <trkpt lat="45.57799" lon="6.58222">
        <ele>2297.4216</ele>
        <time>2020-01-27 13:05:35</time>
      </trkpt>
      <trkpt lat="45.57801" lon="6.58218">
        <ele>2295.761</ele>
        <time>2020-01-27 13:05:36</time>
      </trkpt>
      <trkpt lat="45.57802" lon="6.58214">
        <ele>2295.575</ele>
        <time>2020-01-27 13:05:37</time>
      </trkpt>
      <trkpt lat="45.57803" lon="6.58209">
        <ele>2294.3867</ele>
        <time>2020-01-27 13:05:38</time>
      </trkpt>
      <trkpt lat="45.57808" lon="6.58194">
        <ele>2293.3042</ele>
        <time>2020-01-27 13:05:41</time>
      </trkpt>
      <trkpt lat="45.5781" lon="6.5819">
        <ele>2292.7275</ele>
        <time>2020-01-27 13:05:42</time>
      </trkpt>
      <trkpt lat="45.57814" lon="6.58179">
        <ele>2293.3845</ele>
        <time>2020-01-27 13:05:45</time>
      </trkpt>
      <trkpt lat="45.57815" lon="6.5817">
        <ele>2293.029</ele>
        <time>2020-01-27 13:05:48</time>
      </trkpt>
      <trkpt lat="45.57815" lon="6.58167">
        <ele>2293.1697</ele>
        <time>2020-01-27 13:05:49</time>
      </trkpt>
      <trkpt lat="45.57815" lon="6.58165">
        <ele>2292.7256</ele>
        <time>2020-01-27 13:05:50</time>
      </trkpt>
      <trkpt lat="45.57815" lon="6.58162">
        <ele>2291.6187</ele>
        <time>2020-01-27 13:05:51</time>
      </trkpt>
      <trkpt lat="45.57818" lon="6.58154">
        <ele>2290.4375</ele>
        <time>2020-01-27 13:05:53</time>
      </trkpt>
      <trkpt lat="45.5782" lon="6.58149">
        <ele>2289.1973</ele>
        <time>2020-01-27 13:05:54</time>
      </trkpt>
      <trkpt lat="45.57822" lon="6.58144">
        <ele>2288.1997</ele>
        <time>2020-01-27 13:05:55</time>
      </trkpt>
      <trkpt lat="45.57824" lon="6.58138">
        <ele>2286.511</ele>
        <time>2020-01-27 13:05:56</time>
      </trkpt>
      <trkpt lat="45.57826" lon="6.58132">
        <ele>2285.116</ele>
        <time>2020-01-27 13:05:57</time>
      </trkpt>
      <trkpt lat="45.57839" lon="6.58111">
        <ele>2284.3042</ele>
        <time>2020-01-27 13:06:01</time>
      </trkpt>
      <trkpt lat="45.57842" lon="6.5811">
        <ele>2284.045</ele>
        <time>2020-01-27 13:06:02</time>
      </trkpt>
      <trkpt lat="45.57842" lon="6.58111">
        <ele>2283.307</ele>
        <time>2020-01-27 13:06:04</time>
      </trkpt>
      <trkpt lat="45.57843" lon="6.5811">
        <ele>2283.4214</ele>
        <time>2020-01-27 13:06:07</time>
      </trkpt>
      <trkpt lat="45.57843" lon="6.5811">
        <ele>2283.5752</ele>
        <time>2020-01-27 13:06:08</time>
      </trkpt>
      <trkpt lat="45.57844" lon="6.5811">
        <ele>2283.3433</ele>
        <time>2020-01-27 13:06:18</time>
      </trkpt>
      <trkpt lat="45.57843" lon="6.5811">
        <ele>2283.4033</ele>
        <time>2020-01-27 13:06:20</time>
      </trkpt>
      <trkpt lat="45.57844" lon="6.5811">
        <ele>2283.4329</ele>
        <time>2020-01-27 13:06:22</time>
      </trkpt>
      <trkpt lat="45.57846" lon="6.58111">
        <ele>2284.048</ele>
        <time>2020-01-27 13:06:26</time>
      </trkpt>
      <trkpt lat="45.57847" lon="6.58112">
        <ele>2283.9436</ele>
        <time>2020-01-27 13:06:56</time>
      </trkpt>
      <trkpt lat="45.57847" lon="6.58112">
        <ele>2283.7146</ele>
        <time>2020-01-27 13:07:27</time>
      </trkpt>
      <trkpt lat="45.57848" lon="6.58111">
        <ele>2282.1697</ele>
        <time>2020-01-27 13:07:29</time>
      </trkpt>
      <trkpt lat="45.57848" lon="6.58111">
        <ele>2281.3164</ele>
        <time>2020-01-27 13:08:30</time>
      </trkpt>
      <trkpt lat="45.57848" lon="6.5811">
        <ele>2279.935</ele>
        <time>2020-01-27 13:09:55</time>
      </trkpt>
      <trkpt lat="45.57848" lon="6.5811">
        <ele>2279.7913</ele>
        <time>2020-01-27 13:09:56</time>
      </trkpt>
      <trkpt lat="45.57849" lon="6.58111">
        <ele>2279.503</ele>
        <time>2020-01-27 13:10:37</time>
      </trkpt>
      <trkpt lat="45.57848" lon="6.5811">
        <ele>2279.664</ele>
        <time>2020-01-27 13:10:39</time>
      </trkpt>
      <trkpt lat="45.57848" lon="6.58111">
        <ele>2278.8748</ele>
        <time>2020-01-27 13:11:09</time>
      </trkpt>
      <trkpt lat="45.57848" lon="6.58111">
        <ele>2279.1003</ele>
        <time>2020-01-27 13:11:31</time>
      </trkpt>
      <trkpt lat="45.57849" lon="6.5811">
        <ele>2279.6174</ele>
        <time>2020-01-27 13:11:33</time>
      </trkpt>
      <trkpt lat="45.57849" lon="6.58111">
        <ele>2279.9155</ele>
        <time>2020-01-27 13:11:34</time>
      </trkpt>
      <trkpt lat="45.57872" lon="6.581">
        <ele>2283.4155</ele>
        <time>2020-01-27 13:12:04</time>
      </trkpt>
      <trkpt lat="45.57873" lon="6.581">
        <ele>2284.1042</ele>
        <time>2020-01-27 13:12:05</time>
      </trkpt>
      <trkpt lat="45.57877" lon="6.58098">
        <ele>2284.3943</ele>
        <time>2020-01-27 13:12:09</time>
      </trkpt>
      <trkpt lat="45.5788" lon="6.58098">
        <ele>2282.2214</ele>
        <time>2020-01-27 13:12:12</time>
      </trkpt>
      <trkpt lat="45.57887" lon="6.58098">
        <ele>2281.421</ele>
        <time>2020-01-27 13:12:19</time>
      </trkpt>
      <trkpt lat="45.57889" lon="6.58098">
        <ele>2281.4849</ele>
        <time>2020-01-27 13:12:21</time>
      </trkpt>
      <trkpt lat="45.57907" lon="6.58097">
        <ele>2280.628</ele>
        <time>2020-01-27 13:12:37</time>
      </trkpt>
      <trkpt lat="45.57912" lon="6.58096">
        <ele>2280.9556</ele>
        <time>2020-01-27 13:12:41</time>
      </trkpt>
      <trkpt lat="45.57917" lon="6.58094">
        <ele>2280.4167</ele>
        <time>2020-01-27 13:12:45</time>
      </trkpt>
      <trkpt lat="45.57923" lon="6.58092">
        <ele>2278.7874</ele>
        <time>2020-01-27 13:12:51</time>
      </trkpt>
      <trkpt lat="45.57941" lon="6.58087">
        <ele>2275.5461</ele>
        <time>2020-01-27 13:13:08</time>
      </trkpt>
      <trkpt lat="45.5796" lon="6.58081">
        <ele>2270.1787</ele>
        <time>2020-01-27 13:13:17</time>
      </trkpt>
      <trkpt lat="45.57963" lon="6.5808">
        <ele>2268.717</ele>
        <time>2020-01-27 13:13:19</time>
      </trkpt>
      <trkpt lat="45.57965" lon="6.5808">
        <ele>2267.9617</ele>
        <time>2020-01-27 13:13:20</time>
      </trkpt>
      <trkpt lat="45.5797" lon="6.58079">
        <ele>2267.29</ele>
        <time>2020-01-27 13:13:23</time>
      </trkpt>
      <trkpt lat="45.57989" lon="6.58072">
        <ele>2263.7795</ele>
        <time>2020-01-27 13:13:37</time>
      </trkpt>
      <trkpt lat="45.57992" lon="6.58071">
        <ele>2264.1948</ele>
        <time>2020-01-27 13:13:39</time>
      </trkpt>
      <trkpt lat="45.58002" lon="6.58069">
        <ele>2262.1426</ele>
        <time>2020-01-27 13:13:49</time>
      </trkpt>
      <trkpt lat="45.58006" lon="6.58068">
        <ele>2262.0693</ele>
        <time>2020-01-27 13:13:52</time>
      </trkpt>
      <trkpt lat="45.58013" lon="6.58068">
        <ele>2264.2515</ele>
        <time>2020-01-27 13:13:59</time>
      </trkpt>
      <trkpt lat="45.58019" lon="6.58069">
        <ele>2264.126</ele>
        <time>2020-01-27 13:14:04</time>
      </trkpt>
      <trkpt lat="45.58024" lon="6.58069">
        <ele>2263.467</ele>
        <time>2020-01-27 13:14:08</time>
      </trkpt>
      <trkpt lat="45.58031" lon="6.58068">
        <ele>2262.6545</ele>
        <time>2020-01-27 13:14:13</time>
      </trkpt>
      <trkpt lat="45.58036" lon="6.58067">
        <ele>2262.9429</ele>
        <time>2020-01-27 13:14:17</time>
      </trkpt>
      <trkpt lat="45.58038" lon="6.58066">
        <ele>2262.6238</ele>
        <time>2020-01-27 13:14:20</time>
      </trkpt>
      <trkpt lat="45.58041" lon="6.58063">
        <ele>2260.8696</ele>
        <time>2020-01-27 13:14:24</time>
      </trkpt>
      <trkpt lat="45.58041" lon="6.58063">
        <ele>2260.4958</ele>
        <time>2020-01-27 13:14:26</time>
      </trkpt>
      <trkpt lat="45.58041" lon="6.58063">
        <ele>2259.5078</ele>
        <time>2020-01-27 13:14:29</time>
      </trkpt>
      <trkpt lat="45.58043" lon="6.58063">
        <ele>2258.2676</ele>
        <time>2020-01-27 13:14:31</time>
      </trkpt>
      <trkpt lat="45.58046" lon="6.58065">
        <ele>2256.4197</ele>
        <time>2020-01-27 13:14:33</time>
      </trkpt>
      <trkpt lat="45.58048" lon="6.58065">
        <ele>2255.9404</ele>
        <time>2020-01-27 13:14:34</time>
      </trkpt>
      <trkpt lat="45.5805" lon="6.58063">
        <ele>2255.856</ele>
        <time>2020-01-27 13:14:36</time>
      </trkpt>
      <trkpt lat="45.58053" lon="6.58062">
        <ele>2256.1245</ele>
        <time>2020-01-27 13:14:39</time>
      </trkpt>
      <trkpt lat="45.58059" lon="6.58056">
        <ele>2255.117</ele>
        <time>2020-01-27 13:14:47</time>
      </trkpt>
      <trkpt lat="45.58062" lon="6.58049">
        <ele>2253.4092</ele>
        <time>2020-01-27 13:14:52</time>
      </trkpt>
      <trkpt lat="45.58066" lon="6.58044">
        <ele>2251.7847</ele>
        <time>2020-01-27 13:14:54</time>
      </trkpt>
      <trkpt lat="45.58074" lon="6.58043">
        <ele>2249.289</ele>
        <time>2020-01-27 13:15:01</time>
      </trkpt>
      <trkpt lat="45.58081" lon="6.58043">
        <ele>2246.7292</ele>
        <time>2020-01-27 13:15:05</time>
      </trkpt>
      <trkpt lat="45.5809" lon="6.58042">
        <ele>2244.5908</ele>
        <time>2020-01-27 13:15:09</time>
      </trkpt>
      <trkpt lat="45.58112" lon="6.5804">
        <ele>2238.7483</ele>
        <time>2020-01-27 13:15:16</time>
      </trkpt>
      <trkpt lat="45.58114" lon="6.58041">
        <ele>2238.4656</ele>
        <time>2020-01-27 13:15:17</time>
      </trkpt>
      <trkpt lat="45.58121" lon="6.58045">
        <ele>2237.351</ele>
        <time>2020-01-27 13:15:21</time>
      </trkpt>
      <trkpt lat="45.58123" lon="6.58046">
        <ele>2235.8823</ele>
        <time>2020-01-27 13:15:23</time>
      </trkpt>
      <trkpt lat="45.58128" lon="6.58048">
        <ele>2235.3025</ele>
        <time>2020-01-27 13:15:27</time>
      </trkpt>
      <trkpt lat="45.58131" lon="6.58048">
        <ele>2233.2522</ele>
        <time>2020-01-27 13:15:31</time>
      </trkpt>
      <trkpt lat="45.5814" lon="6.58051">
        <ele>2231.8381</ele>
        <time>2020-01-27 13:15:39</time>
      </trkpt>
      <trkpt lat="45.58148" lon="6.58052">
        <ele>2230.1323</ele>
        <time>2020-01-27 13:15:44</time>
      </trkpt>
      <trkpt lat="45.58158" lon="6.58051">
        <ele>2228.3145</ele>
        <time>2020-01-27 13:15:49</time>
      </trkpt>
      <trkpt lat="45.58173" lon="6.58054">
        <ele>2226.214</ele>
        <time>2020-01-27 13:15:56</time>
      </trkpt>
      <trkpt lat="45.58184" lon="6.58052">
        <ele>2225.69</ele>
        <time>2020-01-27 13:16:03</time>
      </trkpt>
      <trkpt lat="45.5819" lon="6.58048">
        <ele>2225.1995</ele>
        <time>2020-01-27 13:16:10</time>
      </trkpt>
      <trkpt lat="45.58193" lon="6.58047">
        <ele>2225.7197</ele>
        <time>2020-01-27 13:16:14</time>
      </trkpt>
      <trkpt lat="45.58195" lon="6.58043">
        <ele>2227.6106</ele>
        <time>2020-01-27 13:16:23</time>
      </trkpt>
      <trkpt lat="45.58197" lon="6.58043">
        <ele>2228.2498</ele>
        <time>2020-01-27 13:16:25</time>
      </trkpt>
      <trkpt lat="45.58209" lon="6.58044">
        <ele>2233.2625</ele>
        <time>2020-01-27 13:16:42</time>
      </trkpt>
      <trkpt lat="45.58211" lon="6.58044">
        <ele>2231.4534</ele>
        <time>2020-01-27 13:16:57</time>
      </trkpt>
      <trkpt lat="45.58212" lon="6.58042">
        <ele>2232.5105</ele>
        <time>2020-01-27 13:16:59</time>
      </trkpt>
      <trkpt lat="45.58213" lon="6.58041">
        <ele>2232.2737</ele>
        <time>2020-01-27 13:17:00</time>
      </trkpt>
      <trkpt lat="45.58216" lon="6.58035">
        <ele>2231.4756</ele>
        <time>2020-01-27 13:17:07</time>
      </trkpt>
      <trkpt lat="45.58218" lon="6.58033">
        <ele>2231.249</ele>
        <time>2020-01-27 13:17:12</time>
      </trkpt>
      <trkpt lat="45.5822" lon="6.58031">
        <ele>2230.4573</ele>
        <time>2020-01-27 13:17:16</time>
      </trkpt>
      <trkpt lat="45.58222" lon="6.5803">
        <ele>2229.5854</ele>
        <time>2020-01-27 13:17:19</time>
      </trkpt>
      <trkpt lat="45.5823" lon="6.58026">
        <ele>2230.1025</ele>
        <time>2020-01-27 13:17:28</time>
      </trkpt>
      <trkpt lat="45.58237" lon="6.5802">
        <ele>2230.1367</ele>
        <time>2020-01-27 13:17:36</time>
      </trkpt>
      <trkpt lat="45.58249" lon="6.58003">
        <ele>2227.4612</ele>
        <time>2020-01-27 13:17:53</time>
      </trkpt>
      <trkpt lat="45.58255" lon="6.57994">
        <ele>2226.4883</ele>
        <time>2020-01-27 13:18:01</time>
      </trkpt>
      <trkpt lat="45.58255" lon="6.57993">
        <ele>2231.982</ele>
        <time>2020-01-27 13:18:04</time>
      </trkpt>
      <trkpt lat="45.58254" lon="6.57991">
        <ele>2234.5593</ele>
        <time>2020-01-27 13:18:09</time>
      </trkpt>
      <trkpt lat="45.58254" lon="6.57988">
        <ele>2234.923</ele>
        <time>2020-01-27 13:18:12</time>
      </trkpt>
      <trkpt lat="45.58253" lon="6.57987">
        <ele>2236.101</ele>
        <time>2020-01-27 13:18:17</time>
      </trkpt>
      <trkpt lat="45.58254" lon="6.57985">
        <ele>2237.679</ele>
        <time>2020-01-27 13:18:19</time>
      </trkpt>
      <trkpt lat="45.58255" lon="6.57979">
        <ele>2241.0876</ele>
        <time>2020-01-27 13:18:28</time>
      </trkpt>
      <trkpt lat="45.58255" lon="6.57979">
        <ele>2242.217</ele>
        <time>2020-01-27 13:18:31</time>
      </trkpt>
      <trkpt lat="45.58255" lon="6.57978">
        <ele>2243.2776</ele>
        <time>2020-01-27 13:18:32</time>
      </trkpt>
      <trkpt lat="45.58265" lon="6.57951">
        <ele>2247.3018</ele>
        <time>2020-01-27 13:19:02</time>
      </trkpt>
      <trkpt lat="45.58267" lon="6.57948">
        <ele>2248.9968</ele>
        <time>2020-01-27 13:19:07</time>
      </trkpt>
      <trkpt lat="45.58268" lon="6.57946">
        <ele>2248.8433</ele>
        <time>2020-01-27 13:19:09</time>
      </trkpt>
      <trkpt lat="45.58269" lon="6.57945">
        <ele>2248.2341</ele>
        <time>2020-01-27 13:19:12</time>
      </trkpt>
      <trkpt lat="45.58271" lon="6.57942">
        <ele>2249.146</ele>
        <time>2020-01-27 13:19:15</time>
      </trkpt>
      <trkpt lat="45.58272" lon="6.57941">
        <ele>2249.1006</ele>
        <time>2020-01-27 13:19:17</time>
      </trkpt>
      <trkpt lat="45.58273" lon="6.57939">
        <ele>2247.5908</ele>
        <time>2020-01-27 13:19:19</time>
      </trkpt>
      <trkpt lat="45.58275" lon="6.57935">
        <ele>2250.8179</ele>
        <time>2020-01-27 13:19:24</time>
      </trkpt>
      <trkpt lat="45.58284" lon="6.57914">
        <ele>2249.0825</ele>
        <time>2020-01-27 13:19:49</time>
      </trkpt>
      <trkpt lat="45.58285" lon="6.57913">
        <ele>2249.0813</ele>
        <time>2020-01-27 13:19:50</time>
      </trkpt>
      <trkpt lat="45.58286" lon="6.5791">
        <ele>2248.788</ele>
        <time>2020-01-27 13:19:53</time>
      </trkpt>
      <trkpt lat="45.58287" lon="6.5791">
        <ele>2247.7695</ele>
        <time>2020-01-27 13:19:54</time>
      </trkpt>
      <trkpt lat="45.58289" lon="6.57909">
        <ele>2246.5386</ele>
        <time>2020-01-27 13:19:56</time>
      </trkpt>
      <trkpt lat="45.58292" lon="6.57905">
        <ele>2246.723</ele>
        <time>2020-01-27 13:20:02</time>
      </trkpt>
      <trkpt lat="45.58296" lon="6.57898">
        <ele>2248.9807</ele>
        <time>2020-01-27 13:20:12</time>
      </trkpt>
      <trkpt lat="45.58299" lon="6.57894">
        <ele>2247.7566</ele>
        <time>2020-01-27 13:20:16</time>
      </trkpt>
      <trkpt lat="45.58302" lon="6.57891">
        <ele>2245.4001</ele>
        <time>2020-01-27 13:20:20</time>
      </trkpt>
      <trkpt lat="45.58303" lon="6.5789">
        <ele>2245.8384</ele>
        <time>2020-01-27 13:20:21</time>
      </trkpt>
      <trkpt lat="45.58306" lon="6.57887">
        <ele>2244.5762</ele>
        <time>2020-01-27 13:20:25</time>
      </trkpt>
      <trkpt lat="45.58313" lon="6.57881">
        <ele>2242.2253</ele>
        <time>2020-01-27 13:20:34</time>
      </trkpt>
      <trkpt lat="45.58314" lon="6.57881">
        <ele>2241.7722</ele>
        <time>2020-01-27 13:20:35</time>
      </trkpt>
      <trkpt lat="45.58315" lon="6.5788">
        <ele>2241.5137</ele>
        <time>2020-01-27 13:20:36</time>
      </trkpt>
      <trkpt lat="45.58324" lon="6.57867">
        <ele>2239.5286</ele>
        <time>2020-01-27 13:20:50</time>
      </trkpt>
      <trkpt lat="45.58324" lon="6.57867">
        <ele>2239.3083</ele>
        <time>2020-01-27 13:20:52</time>
      </trkpt>
      <trkpt lat="45.58331" lon="6.57856">
        <ele>2239.18</ele>
        <time>2020-01-27 13:21:06</time>
      </trkpt>
      <trkpt lat="45.58336" lon="6.57847">
        <ele>2238.692</ele>
        <time>2020-01-27 13:21:18</time>
      </trkpt>
      <trkpt lat="45.58336" lon="6.57846">
        <ele>2238.405</ele>
        <time>2020-01-27 13:21:19</time>
      </trkpt>
      <trkpt lat="45.58337" lon="6.57844">
        <ele>2239.795</ele>
        <time>2020-01-27 13:21:24</time>
      </trkpt>
      <trkpt lat="45.58338" lon="6.57844">
        <ele>2240.382</ele>
        <time>2020-01-27 13:21:26</time>
      </trkpt>
      <trkpt lat="45.58338" lon="6.57844">
        <ele>2241.222</ele>
        <time>2020-01-27 13:21:27</time>
      </trkpt>
      <trkpt lat="45.58341" lon="6.57844">
        <ele>2242.4026</ele>
        <time>2020-01-27 13:21:32</time>
      </trkpt>
      <trkpt lat="45.58348" lon="6.57844">
        <ele>2245.744</ele>
        <time>2020-01-27 13:21:41</time>
      </trkpt>
      <trkpt lat="45.5835" lon="6.57843">
        <ele>2249.6365</ele>
        <time>2020-01-27 13:21:46</time>
      </trkpt>
      <trkpt lat="45.5835" lon="6.57843">
        <ele>2250.4905</ele>
        <time>2020-01-27 13:21:47</time>
      </trkpt>
      <trkpt lat="45.58355" lon="6.57841">
        <ele>2250.9407</ele>
        <time>2020-01-27 13:21:55</time>
      </trkpt>
      <trkpt lat="45.58355" lon="6.57841">
        <ele>2251.379</ele>
        <time>2020-01-27 13:21:56</time>
      </trkpt>
      <trkpt lat="45.58357" lon="6.5784">
        <ele>2253.892</ele>
        <time>2020-01-27 13:22:05</time>
      </trkpt>
      <trkpt lat="45.58362" lon="6.57838">
        <ele>2254.2231</ele>
        <time>2020-01-27 13:22:12</time>
      </trkpt>
      <trkpt lat="45.58374" lon="6.5783">
        <ele>2256.2607</ele>
        <time>2020-01-27 13:22:33</time>
      </trkpt>
      <trkpt lat="45.58389" lon="6.57814">
        <ele>2255.0593</ele>
        <time>2020-01-27 13:22:57</time>
      </trkpt>
      <trkpt lat="45.58394" lon="6.5781">
        <ele>2251.5413</ele>
        <time>2020-01-27 13:23:02</time>
      </trkpt>
      <trkpt lat="45.58397" lon="6.57809">
        <ele>2253.0464</ele>
        <time>2020-01-27 13:23:06</time>
      </trkpt>
      <trkpt lat="45.584" lon="6.57811">
        <ele>2254.5</ele>
        <time>2020-01-27 13:23:09</time>
      </trkpt>
      <trkpt lat="45.58403" lon="6.57814">
        <ele>2257.4714</ele>
        <time>2020-01-27 13:23:16</time>
      </trkpt>
      <trkpt lat="45.58405" lon="6.57816">
        <ele>2258.2178</ele>
        <time>2020-01-27 13:23:20</time>
      </trkpt>
      <trkpt lat="45.58407" lon="6.57819">
        <ele>2259.4087</ele>
        <time>2020-01-27 13:23:23</time>
      </trkpt>
      <trkpt lat="45.58411" lon="6.57822">
        <ele>2260.6003</ele>
        <time>2020-01-27 13:23:30</time>
      </trkpt>
      <trkpt lat="45.58411" lon="6.57822">
        <ele>2260.6387</ele>
        <time>2020-01-27 13:23:31</time>
      </trkpt>
      <trkpt lat="45.58418" lon="6.57827">
        <ele>2263.165</ele>
        <time>2020-01-27 13:23:42</time>
      </trkpt>
      <trkpt lat="45.58421" lon="6.57827">
        <ele>2264.2556</ele>
        <time>2020-01-27 13:23:48</time>
      </trkpt>
      <trkpt lat="45.58421" lon="6.57827">
        <ele>2263.6257</ele>
        <time>2020-01-27 13:23:50</time>
      </trkpt>
      <trkpt lat="45.58424" lon="6.57828">
        <ele>2263.474</ele>
        <time>2020-01-27 13:23:55</time>
      </trkpt>
      <trkpt lat="45.58427" lon="6.57828">
        <ele>2264.9204</ele>
        <time>2020-01-27 13:23:58</time>
      </trkpt>
      <trkpt lat="45.58431" lon="6.57827">
        <ele>2269.175</ele>
        <time>2020-01-27 13:24:06</time>
      </trkpt>
      <trkpt lat="45.58434" lon="6.57826">
        <ele>2268.67</ele>
        <time>2020-01-27 13:24:10</time>
      </trkpt>
      <trkpt lat="45.58442" lon="6.57825">
        <ele>2266.1545</ele>
        <time>2020-01-27 13:24:23</time>
      </trkpt>
      <trkpt lat="45.58445" lon="6.57826">
        <ele>2266.702</ele>
        <time>2020-01-27 13:24:26</time>
      </trkpt>
      <trkpt lat="45.58458" lon="6.57824">
        <ele>2270.2065</ele>
        <time>2020-01-27 13:24:48</time>
      </trkpt>
      <trkpt lat="45.58464" lon="6.57825">
        <ele>2273.6516</ele>
        <time>2020-01-27 13:25:00</time>
      </trkpt>
      <trkpt lat="45.58465" lon="6.57825">
        <ele>2272.894</ele>
        <time>2020-01-27 13:25:02</time>
      </trkpt>
      <trkpt lat="45.58468" lon="6.57824">
        <ele>2272.1006</ele>
        <time>2020-01-27 13:25:06</time>
      </trkpt>
      <trkpt lat="45.58472" lon="6.57825">
        <ele>2272.597</ele>
        <time>2020-01-27 13:25:11</time>
      </trkpt>
      <trkpt lat="45.58474" lon="6.57825">
        <ele>2273.2017</ele>
        <time>2020-01-27 13:25:13</time>
      </trkpt>
      <trkpt lat="45.5848" lon="6.57828">
        <ele>2276.52</ele>
        <time>2020-01-27 13:25:24</time>
      </trkpt>
      <trkpt lat="45.58482" lon="6.57829">
        <ele>2276.7952</ele>
        <time>2020-01-27 13:25:27</time>
      </trkpt>
      <trkpt lat="45.58485" lon="6.5783">
        <ele>2276.9094</ele>
        <time>2020-01-27 13:25:33</time>
      </trkpt>
      <trkpt lat="45.58493" lon="6.57828">
        <ele>2279.6707</ele>
        <time>2020-01-27 13:25:48</time>
      </trkpt>
      <trkpt lat="45.58497" lon="6.57826">
        <ele>2279.7825</ele>
        <time>2020-01-27 13:25:53</time>
      </trkpt>
      <trkpt lat="45.58499" lon="6.57825">
        <ele>2279.5598</ele>
        <time>2020-01-27 13:25:56</time>
      </trkpt>
      <trkpt lat="45.58505" lon="6.57823">
        <ele>2282.2175</ele>
        <time>2020-01-27 13:26:06</time>
      </trkpt>
      <trkpt lat="45.58508" lon="6.57823">
        <ele>2282.1753</ele>
        <time>2020-01-27 13:26:11</time>
      </trkpt>
      <trkpt lat="45.58512" lon="6.57821">
        <ele>2281.6533</ele>
        <time>2020-01-27 13:26:19</time>
      </trkpt>
      <trkpt lat="45.58517" lon="6.5782">
        <ele>2281.925</ele>
        <time>2020-01-27 13:26:25</time>
      </trkpt>
      <trkpt lat="45.58519" lon="6.57819">
        <ele>2282.561</ele>
        <time>2020-01-27 13:26:27</time>
      </trkpt>
      <trkpt lat="45.58526" lon="6.57817">
        <ele>2283.7336</ele>
        <time>2020-01-27 13:26:38</time>
      </trkpt>
      <trkpt lat="45.58532" lon="6.57814">
        <ele>2284.8303</ele>
        <time>2020-01-27 13:26:47</time>
      </trkpt>
      <trkpt lat="45.58534" lon="6.57814">
        <ele>2285.1724</ele>
        <time>2020-01-27 13:26:50</time>
      </trkpt>
      <trkpt lat="45.58537" lon="6.57814">
        <ele>2283.2534</ele>
        <time>2020-01-27 13:26:54</time>
      </trkpt>
      <trkpt lat="45.58541" lon="6.57813">
        <ele>2285.3872</ele>
        <time>2020-01-27 13:26:59</time>
      </trkpt>
      <trkpt lat="45.5855" lon="6.57813">
        <ele>2288.908</ele>
        <time>2020-01-27 13:27:16</time>
      </trkpt>
      <trkpt lat="45.58555" lon="6.57809">
        <ele>2288.3584</ele>
        <time>2020-01-27 13:27:23</time>
      </trkpt>
      <trkpt lat="45.5856" lon="6.5781">
        <ele>2287.9072</ele>
        <time>2020-01-27 13:27:29</time>
      </trkpt>
      <trkpt lat="45.58562" lon="6.57811">
        <ele>2287.6682</ele>
        <time>2020-01-27 13:27:31</time>
      </trkpt>
      <trkpt lat="45.58565" lon="6.57813">
        <ele>2288.672</ele>
        <time>2020-01-27 13:27:34</time>
      </trkpt>
      <trkpt lat="45.58582" lon="6.57813">
        <ele>2288.354</ele>
        <time>2020-01-27 13:27:53</time>
      </trkpt>
      <trkpt lat="45.58584" lon="6.57812">
        <ele>2289.5476</ele>
        <time>2020-01-27 13:27:57</time>
      </trkpt>
      <trkpt lat="45.58589" lon="6.57809">
        <ele>2292.4773</ele>
        <time>2020-01-27 13:28:04</time>
      </trkpt>
      <trkpt lat="45.58592" lon="6.57807">
        <ele>2292.192</ele>
        <time>2020-01-27 13:28:09</time>
      </trkpt>
      <trkpt lat="45.58593" lon="6.57806">
        <ele>2291.6733</ele>
        <time>2020-01-27 13:28:10</time>
      </trkpt>
      <trkpt lat="45.58594" lon="6.57805">
        <ele>2291.2673</ele>
        <time>2020-01-27 13:28:14</time>
      </trkpt>
      <trkpt lat="45.58595" lon="6.57805">
        <ele>2291.0635</ele>
        <time>2020-01-27 13:28:15</time>
      </trkpt>
      <trkpt lat="45.58604" lon="6.57802">
        <ele>2295.247</ele>
        <time>2020-01-27 13:28:30</time>
      </trkpt>
      <trkpt lat="45.58606" lon="6.578">
        <ele>2294.7932</ele>
        <time>2020-01-27 13:28:36</time>
      </trkpt>
      <trkpt lat="45.58611" lon="6.57796">
        <ele>2297.492</ele>
        <time>2020-01-27 13:28:49</time>
      </trkpt>
      <trkpt lat="45.58611" lon="6.57796">
        <ele>2297.6904</ele>
        <time>2020-01-27 13:28:52</time>
      </trkpt>
      <trkpt lat="45.58611" lon="6.57797">
        <ele>2297.3457</ele>
        <time>2020-01-27 13:28:55</time>
      </trkpt>
      <trkpt lat="45.58612" lon="6.57795">
        <ele>2297.2996</ele>
        <time>2020-01-27 13:28:57</time>
      </trkpt>
      <trkpt lat="45.58613" lon="6.5779">
        <ele>2296.629</ele>
        <time>2020-01-27 13:29:02</time>
      </trkpt>
      <trkpt lat="45.58613" lon="6.57786">
        <ele>2297.3726</ele>
        <time>2020-01-27 13:29:05</time>
      </trkpt>
      <trkpt lat="45.58611" lon="6.57785">
        <ele>2299.8499</ele>
        <time>2020-01-27 13:29:08</time>
      </trkpt>
      <trkpt lat="45.58608" lon="6.57785">
        <ele>2300.8215</ele>
        <time>2020-01-27 13:29:13</time>
      </trkpt>
      <trkpt lat="45.58608" lon="6.57785">
        <ele>2300.9985</ele>
        <time>2020-01-27 13:29:17</time>
      </trkpt>
      <trkpt lat="45.58607" lon="6.57784">
        <ele>2301.7534</ele>
        <time>2020-01-27 13:29:19</time>
      </trkpt>
      <trkpt lat="45.58607" lon="6.57784">
        <ele>2302.0022</ele>
        <time>2020-01-27 13:29:20</time>
      </trkpt>
      <trkpt lat="45.58606" lon="6.57784">
        <ele>2303.7175</ele>
        <time>2020-01-27 13:29:27</time>
      </trkpt>
      <trkpt lat="45.58606" lon="6.57783">
        <ele>2303.8733</ele>
        <time>2020-01-27 13:29:29</time>
      </trkpt>
      <trkpt lat="45.58606" lon="6.57783">
        <ele>2304.5972</ele>
        <time>2020-01-27 13:29:32</time>
      </trkpt>
      <trkpt lat="45.58607" lon="6.57782">
        <ele>2305.1506</ele>
        <time>2020-01-27 13:29:33</time>
      </trkpt>
      <trkpt lat="45.58606" lon="6.57782">
        <ele>2305.0027</ele>
        <time>2020-01-27 13:29:34</time>
      </trkpt>
      <trkpt lat="45.58605" lon="6.57778">
        <ele>2305.1902</ele>
        <time>2020-01-27 13:29:39</time>
      </trkpt>
      <trkpt lat="45.58605" lon="6.57776">
        <ele>2305.2358</ele>
        <time>2020-01-27 13:29:43</time>
      </trkpt>
      <trkpt lat="45.58604" lon="6.57775">
        <ele>2304.5676</ele>
        <time>2020-01-27 13:29:44</time>
      </trkpt>
      <trkpt lat="45.58604" lon="6.57774">
        <ele>2306.0615</ele>
        <time>2020-01-27 13:29:47</time>
      </trkpt>
      <trkpt lat="45.58609" lon="6.5777">
        <ele>2305.8904</ele>
        <time>2020-01-27 13:29:53</time>
      </trkpt>
      <trkpt lat="45.58613" lon="6.57768">
        <ele>2308.472</ele>
        <time>2020-01-27 13:29:59</time>
      </trkpt>
      <trkpt lat="45.58614" lon="6.57764">
        <ele>2309.7307</ele>
        <time>2020-01-27 13:30:04</time>
      </trkpt>
      <trkpt lat="45.58616" lon="6.57759">
        <ele>2309.6106</ele>
        <time>2020-01-27 13:30:09</time>
      </trkpt>
      <trkpt lat="45.58617" lon="6.57756">
        <ele>2308.919</ele>
        <time>2020-01-27 13:30:12</time>
      </trkpt>
      <trkpt lat="45.58618" lon="6.57754">
        <ele>2307.8347</ele>
        <time>2020-01-27 13:30:14</time>
      </trkpt>
      <trkpt lat="45.58621" lon="6.5775">
        <ele>2307.3662</ele>
        <time>2020-01-27 13:30:18</time>
      </trkpt>
      <trkpt lat="45.58624" lon="6.57745">
        <ele>2309.698</ele>
        <time>2020-01-27 13:30:29</time>
      </trkpt>
      <trkpt lat="45.58625" lon="6.57743">
        <ele>2309.8281</ele>
        <time>2020-01-27 13:30:32</time>
      </trkpt>
      <trkpt lat="45.58627" lon="6.5774">
        <ele>2311.622</ele>
        <time>2020-01-27 13:30:36</time>
      </trkpt>
      <trkpt lat="45.58631" lon="6.57735">
        <ele>2316.1277</ele>
        <time>2020-01-27 13:30:52</time>
      </trkpt>
      <trkpt lat="45.5863" lon="6.57735">
        <ele>2316.0447</ele>
        <time>2020-01-27 13:30:55</time>
      </trkpt>
      <trkpt lat="45.5863" lon="6.57735">
        <ele>2316.8418</ele>
        <time>2020-01-27 13:30:56</time>
      </trkpt>
      <trkpt lat="45.58631" lon="6.57734">
        <ele>2317.3645</ele>
        <time>2020-01-27 13:30:59</time>
      </trkpt>
      <trkpt lat="45.58633" lon="6.57733">
        <ele>2317.4795</ele>
        <time>2020-01-27 13:31:05</time>
      </trkpt>
      <trkpt lat="45.58636" lon="6.57732">
        <ele>2317.389</ele>
        <time>2020-01-27 13:31:09</time>
      </trkpt>
      <trkpt lat="45.58638" lon="6.5773">
        <ele>2316.557</ele>
        <time>2020-01-27 13:31:13</time>
      </trkpt>
      <trkpt lat="45.58638" lon="6.57725">
        <ele>2316.7883</ele>
        <time>2020-01-27 13:31:17</time>
      </trkpt>
      <trkpt lat="45.58637" lon="6.57722">
        <ele>2316.4795</ele>
        <time>2020-01-27 13:31:21</time>
      </trkpt>
      <trkpt lat="45.58634" lon="6.5772">
        <ele>2319.0374</ele>
        <time>2020-01-27 13:31:26</time>
      </trkpt>
      <trkpt lat="45.58634" lon="6.57721">
        <ele>2319.0654</ele>
        <time>2020-01-27 13:31:27</time>
      </trkpt>
      <trkpt lat="45.58634" lon="6.57721">
        <ele>2319.5671</ele>
        <time>2020-01-27 13:31:29</time>
      </trkpt>
      <trkpt lat="45.58634" lon="6.57721">
        <ele>2319.5664</ele>
        <time>2020-01-27 13:31:30</time>
      </trkpt>
      <trkpt lat="45.58634" lon="6.57718">
        <ele>2318.7502</ele>
        <time>2020-01-27 13:31:36</time>
      </trkpt>
      <trkpt lat="45.58634" lon="6.57717">
        <ele>2319.4412</ele>
        <time>2020-01-27 13:31:37</time>
      </trkpt>
      <trkpt lat="45.58634" lon="6.57715">
        <ele>2319.4102</ele>
        <time>2020-01-27 13:31:41</time>
      </trkpt>
      <trkpt lat="45.58634" lon="6.57714">
        <ele>2319.4343</ele>
        <time>2020-01-27 13:31:42</time>
      </trkpt>
      <trkpt lat="45.58634" lon="6.57713">
        <ele>2319.0806</ele>
        <time>2020-01-27 13:31:44</time>
      </trkpt>
      <trkpt lat="45.58636" lon="6.57711">
        <ele>2316.9321</ele>
        <time>2020-01-27 13:31:48</time>
      </trkpt>
      <trkpt lat="45.58639" lon="6.57712">
        <ele>2315.9175</ele>
        <time>2020-01-27 13:31:51</time>
      </trkpt>
      <trkpt lat="45.58639" lon="6.57712">
        <ele>2316.3274</ele>
        <time>2020-01-27 13:31:53</time>
      </trkpt>
      <trkpt lat="45.5864" lon="6.57712">
        <ele>2316.6768</ele>
        <time>2020-01-27 13:31:55</time>
      </trkpt>
      <trkpt lat="45.58643" lon="6.57711">
        <ele>2315.665</ele>
        <time>2020-01-27 13:31:59</time>
      </trkpt>
      <trkpt lat="45.58644" lon="6.57709">
        <ele>2316.512</ele>
        <time>2020-01-27 13:32:03</time>
      </trkpt>
      <trkpt lat="45.58645" lon="6.57709">
        <ele>2316.1326</ele>
        <time>2020-01-27 13:32:05</time>
      </trkpt>
      <trkpt lat="45.58646" lon="6.57708">
        <ele>2315.5703</ele>
        <time>2020-01-27 13:32:07</time>
      </trkpt>
      <trkpt lat="45.58648" lon="6.57707">
        <ele>2314.9988</ele>
        <time>2020-01-27 13:32:09</time>
      </trkpt>
      <trkpt lat="45.58655" lon="6.57699">
        <ele>2320.0833</ele>
        <time>2020-01-27 13:32:23</time>
      </trkpt>
      <trkpt lat="45.58664" lon="6.57694">
        <ele>2324.8684</ele>
        <time>2020-01-27 13:32:44</time>
      </trkpt>
      <trkpt lat="45.58665" lon="6.57694">
        <ele>2325.2112</ele>
        <time>2020-01-27 13:32:49</time>
      </trkpt>
      <trkpt lat="45.58678" lon="6.57691">
        <ele>2327.8496</ele>
        <time>2020-01-27 13:33:07</time>
      </trkpt>
      <trkpt lat="45.58678" lon="6.57691">
        <ele>2328.0518</ele>
        <time>2020-01-27 13:33:08</time>
      </trkpt>
      <trkpt lat="45.58678" lon="6.5769">
        <ele>2328.4934</ele>
        <time>2020-01-27 13:33:10</time>
      </trkpt>
      <trkpt lat="45.58682" lon="6.57688">
        <ele>2328.7039</ele>
        <time>2020-01-27 13:33:14</time>
      </trkpt>
      <trkpt lat="45.58691" lon="6.57682">
        <ele>2326.6812</ele>
        <time>2020-01-27 13:33:26</time>
      </trkpt>
      <trkpt lat="45.58692" lon="6.5768">
        <ele>2328.1763</ele>
        <time>2020-01-27 13:33:30</time>
      </trkpt>
      <trkpt lat="45.58691" lon="6.5768">
        <ele>2328.8835</ele>
        <time>2020-01-27 13:33:32</time>
      </trkpt>
      <trkpt lat="45.58691" lon="6.5768">
        <ele>2328.9736</ele>
        <time>2020-01-27 13:33:33</time>
      </trkpt>
      <trkpt lat="45.58691" lon="6.57677">
        <ele>2330.235</ele>
        <time>2020-01-27 13:33:36</time>
      </trkpt>
      <trkpt lat="45.58697" lon="6.57678">
        <ele>2331.6323</ele>
        <time>2020-01-27 13:33:43</time>
      </trkpt>
      <trkpt lat="45.58698" lon="6.57679">
        <ele>2331.097</ele>
        <time>2020-01-27 13:33:45</time>
      </trkpt>
      <trkpt lat="45.58699" lon="6.57683">
        <ele>2332.8777</ele>
        <time>2020-01-27 13:33:52</time>
      </trkpt>
      <trkpt lat="45.58699" lon="6.57684">
        <ele>2333.4387</ele>
        <time>2020-01-27 13:33:57</time>
      </trkpt>
      <trkpt lat="45.58704" lon="6.57679">
        <ele>2334.8218</ele>
        <time>2020-01-27 13:34:06</time>
      </trkpt>
      <trkpt lat="45.58709" lon="6.57669">
        <ele>2335.6418</ele>
        <time>2020-01-27 13:34:21</time>
      </trkpt>
      <trkpt lat="45.58711" lon="6.57663">
        <ele>2334.701</ele>
        <time>2020-01-27 13:34:25</time>
      </trkpt>
      <trkpt lat="45.58713" lon="6.5766">
        <ele>2335.9775</ele>
        <time>2020-01-27 13:34:28</time>
      </trkpt>
      <trkpt lat="45.58715" lon="6.57656">
        <ele>2338.7263</ele>
        <time>2020-01-27 13:34:34</time>
      </trkpt>
      <trkpt lat="45.58717" lon="6.57653">
        <ele>2337.9543</ele>
        <time>2020-01-27 13:34:38</time>
      </trkpt>
      <trkpt lat="45.58721" lon="6.57652">
        <ele>2336.9497</ele>
        <time>2020-01-27 13:34:42</time>
      </trkpt>
      <trkpt lat="45.58726" lon="6.57655">
        <ele>2339.9568</ele>
        <time>2020-01-27 13:34:49</time>
      </trkpt>
      <trkpt lat="45.58726" lon="6.57654">
        <ele>2339.821</ele>
        <time>2020-01-27 13:34:50</time>
      </trkpt>
      <trkpt lat="45.58726" lon="6.57655">
        <ele>2340.3105</ele>
        <time>2020-01-27 13:34:51</time>
      </trkpt>
      <trkpt lat="45.58729" lon="6.57657">
        <ele>2342.4016</ele>
        <time>2020-01-27 13:34:57</time>
      </trkpt>
      <trkpt lat="45.58732" lon="6.57659">
        <ele>2341.6914</ele>
        <time>2020-01-27 13:35:01</time>
      </trkpt>
      <trkpt lat="45.58735" lon="6.57656">
        <ele>2345.1462</ele>
        <time>2020-01-27 13:35:08</time>
      </trkpt>
      <trkpt lat="45.58735" lon="6.57654">
        <ele>2344.9136</ele>
        <time>2020-01-27 13:35:11</time>
      </trkpt>
      <trkpt lat="45.58736" lon="6.57644">
        <ele>2347.7778</ele>
        <time>2020-01-27 13:35:22</time>
      </trkpt>
      <trkpt lat="45.58737" lon="6.57644">
        <ele>2347.8438</ele>
        <time>2020-01-27 13:35:27</time>
      </trkpt>
      <trkpt lat="45.5874" lon="6.57646">
        <ele>2346.1335</ele>
        <time>2020-01-27 13:35:32</time>
      </trkpt>
      <trkpt lat="45.58744" lon="6.57649">
        <ele>2349.0186</ele>
        <time>2020-01-27 13:35:37</time>
      </trkpt>
      <trkpt lat="45.5875" lon="6.57655">
        <ele>2353.767</ele>
        <time>2020-01-27 13:35:52</time>
      </trkpt>
      <trkpt lat="45.5875" lon="6.57655">
        <ele>2353.4446</ele>
        <time>2020-01-27 13:35:54</time>
      </trkpt>
      <trkpt lat="45.58753" lon="6.57652">
        <ele>2353.508</ele>
        <time>2020-01-27 13:35:59</time>
      </trkpt>
      <trkpt lat="45.58754" lon="6.57649">
        <ele>2353.7559</ele>
        <time>2020-01-27 13:36:02</time>
      </trkpt>
      <trkpt lat="45.58756" lon="6.57643">
        <ele>2354.3218</ele>
        <time>2020-01-27 13:36:10</time>
      </trkpt>
      <trkpt lat="45.58757" lon="6.57634">
        <ele>2354.1497</ele>
        <time>2020-01-27 13:36:18</time>
      </trkpt>
      <trkpt lat="45.58758" lon="6.57631">
        <ele>2354.1792</ele>
        <time>2020-01-27 13:36:21</time>
      </trkpt>
      <trkpt lat="45.58759" lon="6.57626">
        <ele>2354.0288</ele>
        <time>2020-01-27 13:36:26</time>
      </trkpt>
      <trkpt lat="45.5876" lon="6.57624">
        <ele>2354.8164</ele>
        <time>2020-01-27 13:36:28</time>
      </trkpt>
      <trkpt lat="45.5876" lon="6.57622">
        <ele>2355.5125</ele>
        <time>2020-01-27 13:36:32</time>
      </trkpt>
      <trkpt lat="45.5876" lon="6.57622">
        <ele>2356.037</ele>
        <time>2020-01-27 13:36:33</time>
      </trkpt>
      <trkpt lat="45.58761" lon="6.57622">
        <ele>2356.2483</ele>
        <time>2020-01-27 13:36:34</time>
      </trkpt>
      <trkpt lat="45.58761" lon="6.57622">
        <ele>2355.9485</ele>
        <time>2020-01-27 13:36:35</time>
      </trkpt>
      <trkpt lat="45.58762" lon="6.57622">
        <ele>2355.284</ele>
        <time>2020-01-27 13:36:38</time>
      </trkpt>
      <trkpt lat="45.58763" lon="6.57624">
        <ele>2354.1096</ele>
        <time>2020-01-27 13:36:41</time>
      </trkpt>
      <trkpt lat="45.58765" lon="6.57627">
        <ele>2353.7039</ele>
        <time>2020-01-27 13:36:44</time>
      </trkpt>
      <trkpt lat="45.58766" lon="6.5763">
        <ele>2354.6328</ele>
        <time>2020-01-27 13:36:47</time>
      </trkpt>
      <trkpt lat="45.5877" lon="6.57634">
        <ele>2354.4626</ele>
        <time>2020-01-27 13:36:53</time>
      </trkpt>
      <trkpt lat="45.58775" lon="6.57639">
        <ele>2356.875</ele>
        <time>2020-01-27 13:37:02</time>
      </trkpt>
      <trkpt lat="45.58776" lon="6.57639">
        <ele>2356.8828</ele>
        <time>2020-01-27 13:37:03</time>
      </trkpt>
      <trkpt lat="45.58777" lon="6.57635">
        <ele>2360.8318</ele>
        <time>2020-01-27 13:37:10</time>
      </trkpt>
      <trkpt lat="45.58779" lon="6.57629">
        <ele>2361.2559</ele>
        <time>2020-01-27 13:37:17</time>
      </trkpt>
      <trkpt lat="45.5878" lon="6.57627">
        <ele>2361.6792</ele>
        <time>2020-01-27 13:37:19</time>
      </trkpt>
      <trkpt lat="45.58784" lon="6.57616">
        <ele>2359.5876</ele>
        <time>2020-01-27 13:37:30</time>
      </trkpt>
      <trkpt lat="45.58785" lon="6.57613">
        <ele>2360.8176</ele>
        <time>2020-01-27 13:37:33</time>
      </trkpt>
      <trkpt lat="45.58786" lon="6.57608">
        <ele>2361.616</ele>
        <time>2020-01-27 13:37:40</time>
      </trkpt>
      <trkpt lat="45.58788" lon="6.57604">
        <ele>2361.2441</ele>
        <time>2020-01-27 13:37:44</time>
      </trkpt>
      <trkpt lat="45.5879" lon="6.57599">
        <ele>2362.4492</ele>
        <time>2020-01-27 13:37:50</time>
      </trkpt>
      <trkpt lat="45.58798" lon="6.57583">
        <ele>2367.6865</ele>
        <time>2020-01-27 13:38:16</time>
      </trkpt>
      <trkpt lat="45.588" lon="6.57576">
        <ele>2367.9636</ele>
        <time>2020-01-27 13:38:24</time>
      </trkpt>
      <trkpt lat="45.58801" lon="6.57568">
        <ele>2368.5952</ele>
        <time>2020-01-27 13:38:33</time>
      </trkpt>
      <trkpt lat="45.58802" lon="6.5756">
        <ele>2370.627</ele>
        <time>2020-01-27 13:38:43</time>
      </trkpt>
      <trkpt lat="45.58803" lon="6.57555">
        <ele>2372.1997</ele>
        <time>2020-01-27 13:38:48</time>
      </trkpt>
      <trkpt lat="45.58803" lon="6.57553">
        <ele>2373.898</ele>
        <time>2020-01-27 13:38:54</time>
      </trkpt>
      <trkpt lat="45.58803" lon="6.57553">
        <ele>2374.7148</ele>
        <time>2020-01-27 13:39:01</time>
      </trkpt>
      <trkpt lat="45.58799" lon="6.57545">
        <ele>2377.452</ele>
        <time>2020-01-27 13:39:10</time>
      </trkpt>
      <trkpt lat="45.58799" lon="6.57544">
        <ele>2377.8958</ele>
        <time>2020-01-27 13:39:17</time>
      </trkpt>
      <trkpt lat="45.58796" lon="6.57539">
        <ele>2382.3967</ele>
        <time>2020-01-27 13:39:23</time>
      </trkpt>
      <trkpt lat="45.58793" lon="6.57535">
        <ele>2384.9993</ele>
        <time>2020-01-27 13:39:29</time>
      </trkpt>
      <trkpt lat="45.58791" lon="6.57531">
        <ele>2385.0332</ele>
        <time>2020-01-27 13:39:36</time>
      </trkpt>
      <trkpt lat="45.58789" lon="6.57529">
        <ele>2384.8784</ele>
        <time>2020-01-27 13:39:40</time>
      </trkpt>
      <trkpt lat="45.58789" lon="6.57529">
        <ele>2384.6692</ele>
        <time>2020-01-27 13:39:41</time>
      </trkpt>
      <trkpt lat="45.58788" lon="6.57528">
        <ele>2383.511</ele>
        <time>2020-01-27 13:39:42</time>
      </trkpt>
      <trkpt lat="45.58786" lon="6.57523">
        <ele>2381.7976</ele>
        <time>2020-01-27 13:39:48</time>
      </trkpt>
      <trkpt lat="45.58784" lon="6.57519">
        <ele>2382.1672</ele>
        <time>2020-01-27 13:39:51</time>
      </trkpt>
      <trkpt lat="45.58782" lon="6.57515">
        <ele>2384.4229</ele>
        <time>2020-01-27 13:39:56</time>
      </trkpt>
      <trkpt lat="45.58779" lon="6.57512">
        <ele>2383.5615</ele>
        <time>2020-01-27 13:40:01</time>
      </trkpt>
      <trkpt lat="45.58779" lon="6.57512">
        <ele>2383.5208</ele>
        <time>2020-01-27 13:40:03</time>
      </trkpt>
      <trkpt lat="45.58778" lon="6.57511">
        <ele>2384.0237</ele>
        <time>2020-01-27 13:40:06</time>
      </trkpt>
      <trkpt lat="45.58778" lon="6.5751">
        <ele>2384.077</ele>
        <time>2020-01-27 13:40:07</time>
      </trkpt>
      <trkpt lat="45.58778" lon="6.5751">
        <ele>2384.1948</ele>
        <time>2020-01-27 13:40:09</time>
      </trkpt>
      <trkpt lat="45.58778" lon="6.57509">
        <ele>2384.1245</ele>
        <time>2020-01-27 13:40:10</time>
      </trkpt>
      <trkpt lat="45.58779" lon="6.57509">
        <ele>2384.3135</ele>
        <time>2020-01-27 13:40:11</time>
      </trkpt>
      <trkpt lat="45.58778" lon="6.57509">
        <ele>2384.6863</ele>
        <time>2020-01-27 13:40:13</time>
      </trkpt>
      <trkpt lat="45.58778" lon="6.57509">
        <ele>2385.4373</ele>
        <time>2020-01-27 13:40:14</time>
      </trkpt>
      <trkpt lat="45.58778" lon="6.57509">
        <ele>2385.9949</ele>
        <time>2020-01-27 13:40:15</time>
      </trkpt>
      <trkpt lat="45.58776" lon="6.57509">
        <ele>2386.5364</ele>
        <time>2020-01-27 13:40:18</time>
      </trkpt>
      <trkpt lat="45.58776" lon="6.57509">
        <ele>2387.0605</ele>
        <time>2020-01-27 13:40:21</time>
      </trkpt>
      <trkpt lat="45.58776" lon="6.57509">
        <ele>2387.416</ele>
        <time>2020-01-27 13:40:24</time>
      </trkpt>
      <trkpt lat="45.58775" lon="6.57509">
        <ele>2387.0735</ele>
        <time>2020-01-27 13:40:25</time>
      </trkpt>
      <trkpt lat="45.58772" lon="6.57509">
        <ele>2387.578</ele>
        <time>2020-01-27 13:40:30</time>
      </trkpt>
      <trkpt lat="45.5877" lon="6.57509">
        <ele>2386.8767</ele>
        <time>2020-01-27 13:40:35</time>
      </trkpt>
      <trkpt lat="45.58769" lon="6.5751">
        <ele>2387.655</ele>
        <time>2020-01-27 13:40:38</time>
      </trkpt>
      <trkpt lat="45.58767" lon="6.5751">
        <ele>2389.1787</ele>
        <time>2020-01-27 13:40:41</time>
      </trkpt>
      <trkpt lat="45.58765" lon="6.5751">
        <ele>2389.2468</ele>
        <time>2020-01-27 13:40:45</time>
      </trkpt>
      <trkpt lat="45.58765" lon="6.57509">
        <ele>2389.1406</ele>
        <time>2020-01-27 13:40:51</time>
      </trkpt>
      <trkpt lat="45.58765" lon="6.57503">
        <ele>2387.701</ele>
        <time>2020-01-27 13:40:58</time>
      </trkpt>
      <trkpt lat="45.58767" lon="6.57498">
        <ele>2387.4905</ele>
        <time>2020-01-27 13:41:02</time>
      </trkpt>
      <trkpt lat="45.58767" lon="6.57493">
        <ele>2389.0757</ele>
        <time>2020-01-27 13:41:05</time>
      </trkpt>
      <trkpt lat="45.58769" lon="6.57489">
        <ele>2390.8325</ele>
        <time>2020-01-27 13:41:10</time>
      </trkpt>
      <trkpt lat="45.5877" lon="6.57487">
        <ele>2390.8745</ele>
        <time>2020-01-27 13:41:14</time>
      </trkpt>
      <trkpt lat="45.58772" lon="6.57484">
        <ele>2390.8462</ele>
        <time>2020-01-27 13:41:17</time>
      </trkpt>
      <trkpt lat="45.58776" lon="6.57478">
        <ele>2396.35</ele>
        <time>2020-01-27 13:41:29</time>
      </trkpt>
      <trkpt lat="45.58776" lon="6.57477">
        <ele>2396.6611</ele>
        <time>2020-01-27 13:41:34</time>
      </trkpt>
      <trkpt lat="45.58776" lon="6.57477">
        <ele>2396.4363</ele>
        <time>2020-01-27 13:41:35</time>
      </trkpt>
      <trkpt lat="45.58778" lon="6.57472">
        <ele>2395.7808</ele>
        <time>2020-01-27 13:41:42</time>
      </trkpt>
      <trkpt lat="45.58778" lon="6.57471">
        <ele>2395.7065</ele>
        <time>2020-01-27 13:41:45</time>
      </trkpt>
      <trkpt lat="45.58779" lon="6.5747">
        <ele>2395.8716</ele>
        <time>2020-01-27 13:41:46</time>
      </trkpt>
      <trkpt lat="45.5878" lon="6.57469">
        <ele>2395.89</ele>
        <time>2020-01-27 13:41:49</time>
      </trkpt>
      <trkpt lat="45.5878" lon="6.57468">
        <ele>2396.0706</ele>
        <time>2020-01-27 13:41:50</time>
      </trkpt>
      <trkpt lat="45.5878" lon="6.57468">
        <ele>2396.318</ele>
        <time>2020-01-27 13:41:51</time>
      </trkpt>
      <trkpt lat="45.5878" lon="6.57468">
        <ele>2396.923</ele>
        <time>2020-01-27 13:41:52</time>
      </trkpt>
      <trkpt lat="45.58781" lon="6.57466">
        <ele>2396.9543</ele>
        <time>2020-01-27 13:41:54</time>
      </trkpt>
      <trkpt lat="45.58781" lon="6.57466">
        <ele>2396.9731</ele>
        <time>2020-01-27 13:41:55</time>
      </trkpt>
      <trkpt lat="45.58781" lon="6.57465">
        <ele>2397.5266</ele>
        <time>2020-01-27 13:41:56</time>
      </trkpt>
      <trkpt lat="45.58784" lon="6.57463">
        <ele>2398.5164</ele>
        <time>2020-01-27 13:42:00</time>
      </trkpt>
      <trkpt lat="45.58784" lon="6.57462">
        <ele>2398.8674</ele>
        <time>2020-01-27 13:42:05</time>
      </trkpt>
      <trkpt lat="45.58786" lon="6.57459">
        <ele>2398.1233</ele>
        <time>2020-01-27 13:42:12</time>
      </trkpt>
      <trkpt lat="45.58787" lon="6.57458">
        <ele>2398.2412</ele>
        <time>2020-01-27 13:42:15</time>
      </trkpt>
      <trkpt lat="45.58788" lon="6.57457">
        <ele>2398.6873</ele>
        <time>2020-01-27 13:42:18</time>
      </trkpt>
      <trkpt lat="45.58789" lon="6.57457">
        <ele>2398.3384</ele>
        <time>2020-01-27 13:42:20</time>
      </trkpt>
      <trkpt lat="45.588" lon="6.57446">
        <ele>2399.5452</ele>
        <time>2020-01-27 13:42:35</time>
      </trkpt>
      <trkpt lat="45.58802" lon="6.57444">
        <ele>2398.808</ele>
        <time>2020-01-27 13:42:40</time>
      </trkpt>
      <trkpt lat="45.58802" lon="6.57444">
        <ele>2398.231</ele>
        <time>2020-01-27 13:42:43</time>
      </trkpt>
      <trkpt lat="45.58802" lon="6.57444">
        <ele>2398.5217</ele>
        <time>2020-01-27 13:42:44</time>
      </trkpt>
      <trkpt lat="45.58803" lon="6.57444">
        <ele>2398.138</ele>
        <time>2020-01-27 13:42:45</time>
      </trkpt>
      <trkpt lat="45.58809" lon="6.57438">
        <ele>2401.351</ele>
        <time>2020-01-27 13:42:59</time>
      </trkpt>
      <trkpt lat="45.58811" lon="6.57436">
        <ele>2404.778</ele>
        <time>2020-01-27 13:43:05</time>
      </trkpt>
      <trkpt lat="45.58811" lon="6.57435">
        <ele>2404.5054</ele>
        <time>2020-01-27 13:43:06</time>
      </trkpt>
      <trkpt lat="45.58811" lon="6.57435">
        <ele>2404.7285</ele>
        <time>2020-01-27 13:43:07</time>
      </trkpt>
      <trkpt lat="45.58812" lon="6.57435">
        <ele>2404.3567</ele>
        <time>2020-01-27 13:43:09</time>
      </trkpt>
      <trkpt lat="45.58812" lon="6.57435">
        <ele>2404.386</ele>
        <time>2020-01-27 13:43:14</time>
      </trkpt>
      <trkpt lat="45.58813" lon="6.57435">
        <ele>2404.485</ele>
        <time>2020-01-27 13:43:15</time>
      </trkpt>
      <trkpt lat="45.58813" lon="6.57435">
        <ele>2405.3088</ele>
        <time>2020-01-27 13:43:16</time>
      </trkpt>
      <trkpt lat="45.58814" lon="6.57434">
        <ele>2405.7122</ele>
        <time>2020-01-27 13:43:17</time>
      </trkpt>
      <trkpt lat="45.58814" lon="6.57433">
        <ele>2406.1084</ele>
        <time>2020-01-27 13:43:18</time>
      </trkpt>
      <trkpt lat="45.58818" lon="6.5743">
        <ele>2405.548</ele>
        <time>2020-01-27 13:43:24</time>
      </trkpt>
      <trkpt lat="45.58818" lon="6.5743">
        <ele>2405.5315</ele>
        <time>2020-01-27 13:43:27</time>
      </trkpt>
      <trkpt lat="45.58819" lon="6.5743">
        <ele>2405.6296</ele>
        <time>2020-01-27 13:43:28</time>
      </trkpt>
      <trkpt lat="45.58819" lon="6.57429">
        <ele>2406.365</ele>
        <time>2020-01-27 13:43:31</time>
      </trkpt>
      <trkpt lat="45.58822" lon="6.57427">
        <ele>2406.9893</ele>
        <time>2020-01-27 13:43:35</time>
      </trkpt>
      <trkpt lat="45.58827" lon="6.57424">
        <ele>2408.3845</ele>
        <time>2020-01-27 13:43:42</time>
      </trkpt>
      <trkpt lat="45.58828" lon="6.57424">
        <ele>2407.7476</ele>
        <time>2020-01-27 13:43:44</time>
      </trkpt>
      <trkpt lat="45.58831" lon="6.57422">
        <ele>2407.88</ele>
        <time>2020-01-27 13:43:48</time>
      </trkpt>
      <trkpt lat="45.58833" lon="6.57421">
        <ele>2407.0522</ele>
        <time>2020-01-27 13:43:54</time>
      </trkpt>
      <trkpt lat="45.58833" lon="6.5742">
        <ele>2406.997</ele>
        <time>2020-01-27 13:43:55</time>
      </trkpt>
      <trkpt lat="45.58834" lon="6.5742">
        <ele>2407.3818</ele>
        <time>2020-01-27 13:43:56</time>
      </trkpt>
      <trkpt lat="45.58836" lon="6.57418">
        <ele>2407.6511</ele>
        <time>2020-01-27 13:44:00</time>
      </trkpt>
      <trkpt lat="45.58837" lon="6.57418">
        <ele>2408.2056</ele>
        <time>2020-01-27 13:44:04</time>
      </trkpt>
      <trkpt lat="45.58839" lon="6.57415">
        <ele>2409.5613</ele>
        <time>2020-01-27 13:44:08</time>
      </trkpt>
      <trkpt lat="45.58842" lon="6.57413">
        <ele>2409.0967</ele>
        <time>2020-01-27 13:44:13</time>
      </trkpt>
      <trkpt lat="45.58843" lon="6.57414">
        <ele>2409.9277</ele>
        <time>2020-01-27 13:44:17</time>
      </trkpt>
      <trkpt lat="45.58843" lon="6.57413">
        <ele>2409.5037</ele>
        <time>2020-01-27 13:44:18</time>
      </trkpt>
      <trkpt lat="45.58844" lon="6.57411">
        <ele>2410.7048</ele>
        <time>2020-01-27 13:44:27</time>
      </trkpt>
      <trkpt lat="45.58848" lon="6.57404">
        <ele>2414.1426</ele>
        <time>2020-01-27 13:44:36</time>
      </trkpt>
      <trkpt lat="45.58855" lon="6.57383">
        <ele>2421.367</ele>
        <time>2020-01-27 13:45:01</time>
      </trkpt>
      <trkpt lat="45.58855" lon="6.57381">
        <ele>2421.0596</ele>
        <time>2020-01-27 13:45:03</time>
      </trkpt>
      <trkpt lat="45.58855" lon="6.57377">
        <ele>2422.0208</ele>
        <time>2020-01-27 13:45:08</time>
      </trkpt>
      <trkpt lat="45.58855" lon="6.57373">
        <ele>2422.0305</ele>
        <time>2020-01-27 13:45:16</time>
      </trkpt>
      <trkpt lat="45.58858" lon="6.57367">
        <ele>2425.4768</ele>
        <time>2020-01-27 13:45:26</time>
      </trkpt>
      <trkpt lat="45.58859" lon="6.57365">
        <ele>2424.9072</ele>
        <time>2020-01-27 13:45:28</time>
      </trkpt>
      <trkpt lat="45.58859" lon="6.5736">
        <ele>2423.5415</ele>
        <time>2020-01-27 13:45:36</time>
      </trkpt>
      <trkpt lat="45.58859" lon="6.5736">
        <ele>2423.8098</ele>
        <time>2020-01-27 13:45:40</time>
      </trkpt>
      <trkpt lat="45.58859" lon="6.57356">
        <ele>2424.382</ele>
        <time>2020-01-27 13:45:47</time>
      </trkpt>
      <trkpt lat="45.58859" lon="6.57356">
        <ele>2423.9766</ele>
        <time>2020-01-27 13:45:48</time>
      </trkpt>
      <trkpt lat="45.58859" lon="6.57351">
        <ele>2423.3992</ele>
        <time>2020-01-27 13:45:52</time>
      </trkpt>
      <trkpt lat="45.58859" lon="6.57347">
        <ele>2423.1394</ele>
        <time>2020-01-27 13:45:55</time>
      </trkpt>
      <trkpt lat="45.58859" lon="6.57342">
        <ele>2421.939</ele>
        <time>2020-01-27 13:46:00</time>
      </trkpt>
      <trkpt lat="45.58858" lon="6.57337">
        <ele>2420.7573</ele>
        <time>2020-01-27 13:46:05</time>
      </trkpt>
      <trkpt lat="45.58858" lon="6.57335">
        <ele>2421.2327</ele>
        <time>2020-01-27 13:46:08</time>
      </trkpt>
      <trkpt lat="45.58858" lon="6.57328">
        <ele>2425.621</ele>
        <time>2020-01-27 13:46:20</time>
      </trkpt>
      <trkpt lat="45.58858" lon="6.57328">
        <ele>2426.1006</ele>
        <time>2020-01-27 13:46:24</time>
      </trkpt>
      <trkpt lat="45.58858" lon="6.57327">
        <ele>2425.68</ele>
        <time>2020-01-27 13:46:25</time>
      </trkpt>
      <trkpt lat="45.58858" lon="6.57326">
        <ele>2425.7424</ele>
        <time>2020-01-27 13:46:31</time>
      </trkpt>
      <trkpt lat="45.58858" lon="6.57322">
        <ele>2425.8977</ele>
        <time>2020-01-27 13:46:37</time>
      </trkpt>
      <trkpt lat="45.58858" lon="6.57321">
        <ele>2426.0615</ele>
        <time>2020-01-27 13:46:38</time>
      </trkpt>
      <trkpt lat="45.58857" lon="6.57316">
        <ele>2425.9377</ele>
        <time>2020-01-27 13:46:42</time>
      </trkpt>
      <trkpt lat="45.58854" lon="6.57312">
        <ele>2427.5442</ele>
        <time>2020-01-27 13:46:47</time>
      </trkpt>
      <trkpt lat="45.58851" lon="6.57306">
        <ele>2430.8274</ele>
        <time>2020-01-27 13:46:57</time>
      </trkpt>
      <trkpt lat="45.58851" lon="6.57306">
        <ele>2430.696</ele>
        <time>2020-01-27 13:46:58</time>
      </trkpt>
      <trkpt lat="45.58851" lon="6.57305">
        <ele>2430.1863</ele>
        <time>2020-01-27 13:47:01</time>
      </trkpt>
      <trkpt lat="45.58848" lon="6.57299">
        <ele>2429.5881</ele>
        <time>2020-01-27 13:47:09</time>
      </trkpt>
      <trkpt lat="45.58846" lon="6.57296">
        <ele>2431.3953</ele>
        <time>2020-01-27 13:47:14</time>
      </trkpt>
      <trkpt lat="45.58843" lon="6.57293">
        <ele>2430.1323</ele>
        <time>2020-01-27 13:47:19</time>
      </trkpt>
      <trkpt lat="45.58842" lon="6.57292">
        <ele>2430.5461</ele>
        <time>2020-01-27 13:47:23</time>
      </trkpt>
      <trkpt lat="45.58838" lon="6.57291">
        <ele>2430.861</ele>
        <time>2020-01-27 13:47:29</time>
      </trkpt>
      <trkpt lat="45.58836" lon="6.57291">
        <ele>2430.817</ele>
        <time>2020-01-27 13:47:32</time>
      </trkpt>
      <trkpt lat="45.58833" lon="6.5729">
        <ele>2431.9119</ele>
        <time>2020-01-27 13:47:35</time>
      </trkpt>
      <trkpt lat="45.58831" lon="6.5729">
        <ele>2433.2046</ele>
        <time>2020-01-27 13:47:38</time>
      </trkpt>
      <trkpt lat="45.58832" lon="6.5729">
        <ele>2433.131</ele>
        <time>2020-01-27 13:47:39</time>
      </trkpt>
      <trkpt lat="45.5883" lon="6.5729">
        <ele>2432.994</ele>
        <time>2020-01-27 13:47:52</time>
      </trkpt>
      <trkpt lat="45.5883" lon="6.57291">
        <ele>2433.4585</ele>
        <time>2020-01-27 13:47:53</time>
      </trkpt>
      <trkpt lat="45.58829" lon="6.57292">
        <ele>2433.1477</ele>
        <time>2020-01-27 13:47:55</time>
      </trkpt>
      <trkpt lat="45.58829" lon="6.57292">
        <ele>2433.408</ele>
        <time>2020-01-27 13:47:56</time>
      </trkpt>
      <trkpt lat="45.58828" lon="6.57292">
        <ele>2433.558</ele>
        <time>2020-01-27 13:47:57</time>
      </trkpt>
      <trkpt lat="45.58826" lon="6.57294">
        <ele>2432.4932</ele>
        <time>2020-01-27 13:48:02</time>
      </trkpt>
      <trkpt lat="45.58825" lon="6.57294">
        <ele>2433.26</ele>
        <time>2020-01-27 13:48:06</time>
      </trkpt>
      <trkpt lat="45.5882" lon="6.57295">
        <ele>2434.9949</ele>
        <time>2020-01-27 13:48:14</time>
      </trkpt>
      <trkpt lat="45.5882" lon="6.57294">
        <ele>2436.3296</ele>
        <time>2020-01-27 13:48:18</time>
      </trkpt>
      <trkpt lat="45.58817" lon="6.57295">
        <ele>2437.4382</ele>
        <time>2020-01-27 13:48:23</time>
      </trkpt>
      <trkpt lat="45.58817" lon="6.57295">
        <ele>2438.7878</ele>
        <time>2020-01-27 13:48:26</time>
      </trkpt>
      <trkpt lat="45.58814" lon="6.57296">
        <ele>2439.3901</ele>
        <time>2020-01-27 13:48:30</time>
      </trkpt>
      <trkpt lat="45.58813" lon="6.57296">
        <ele>2439.8623</ele>
        <time>2020-01-27 13:48:32</time>
      </trkpt>
      <trkpt lat="45.58812" lon="6.57296">
        <ele>2440.6687</ele>
        <time>2020-01-27 13:48:34</time>
      </trkpt>
      <trkpt lat="45.58809" lon="6.57296">
        <ele>2440.3054</ele>
        <time>2020-01-27 13:48:39</time>
      </trkpt>
      <trkpt lat="45.58809" lon="6.57296">
        <ele>2441.12</ele>
        <time>2020-01-27 13:48:42</time>
      </trkpt>
      <trkpt lat="45.58808" lon="6.57295">
        <ele>2442.3167</ele>
        <time>2020-01-27 13:48:44</time>
      </trkpt>
      <trkpt lat="45.58806" lon="6.57295">
        <ele>2440.4219</ele>
        <time>2020-01-27 13:48:47</time>
      </trkpt>
      <trkpt lat="45.58803" lon="6.57293">
        <ele>2440.293</ele>
        <time>2020-01-27 13:48:49</time>
      </trkpt>
      <trkpt lat="45.58802" lon="6.57293">
        <ele>2441.0825</ele>
        <time>2020-01-27 13:48:54</time>
      </trkpt>
      <trkpt lat="45.588" lon="6.57293">
        <ele>2442.611</ele>
        <time>2020-01-27 13:48:58</time>
      </trkpt>
      <trkpt lat="45.58797" lon="6.57294">
        <ele>2443.5078</ele>
        <time>2020-01-27 13:49:02</time>
      </trkpt>
      <trkpt lat="45.58796" lon="6.57295">
        <ele>2443.4285</ele>
        <time>2020-01-27 13:49:05</time>
      </trkpt>
      <trkpt lat="45.58795" lon="6.57295">
        <ele>2443.816</ele>
        <time>2020-01-27 13:49:06</time>
      </trkpt>
      <trkpt lat="45.58793" lon="6.57296">
        <ele>2443.7778</ele>
        <time>2020-01-27 13:49:09</time>
      </trkpt>
      <trkpt lat="45.58792" lon="6.57295">
        <ele>2444.366</ele>
        <time>2020-01-27 13:49:13</time>
      </trkpt>
      <trkpt lat="45.58791" lon="6.57294">
        <ele>2445.2026</ele>
        <time>2020-01-27 13:49:17</time>
      </trkpt>
      <trkpt lat="45.5879" lon="6.57294">
        <ele>2446.0505</ele>
        <time>2020-01-27 13:49:22</time>
      </trkpt>
      <trkpt lat="45.58789" lon="6.57295">
        <ele>2446.0571</ele>
        <time>2020-01-27 13:49:25</time>
      </trkpt>
      <trkpt lat="45.58789" lon="6.57296">
        <ele>2446.3328</ele>
        <time>2020-01-27 13:49:28</time>
      </trkpt>
      <trkpt lat="45.58789" lon="6.57297">
        <ele>2445.916</ele>
        <time>2020-01-27 13:49:30</time>
      </trkpt>
      <trkpt lat="45.58788" lon="6.57297">
        <ele>2446.4666</ele>
        <time>2020-01-27 13:49:35</time>
      </trkpt>
      <trkpt lat="45.58788" lon="6.57297">
        <ele>2446.5764</ele>
        <time>2020-01-27 13:49:36</time>
      </trkpt>
      <trkpt lat="45.58788" lon="6.57297">
        <ele>2447.0508</ele>
        <time>2020-01-27 13:49:38</time>
      </trkpt>
      <trkpt lat="45.58787" lon="6.57297">
        <ele>2446.9749</ele>
        <time>2020-01-27 13:49:39</time>
      </trkpt>
      <trkpt lat="45.58783" lon="6.57298">
        <ele>2448.4644</ele>
        <time>2020-01-27 13:49:44</time>
      </trkpt>
      <trkpt lat="45.58782" lon="6.57299">
        <ele>2448.4468</ele>
        <time>2020-01-27 13:49:46</time>
      </trkpt>
      <trkpt lat="45.58781" lon="6.57299">
        <ele>2450.173</ele>
        <time>2020-01-27 13:49:53</time>
      </trkpt>
      <trkpt lat="45.5878" lon="6.57299">
        <ele>2450.774</ele>
        <time>2020-01-27 13:49:55</time>
      </trkpt>
      <trkpt lat="45.5878" lon="6.573">
        <ele>2450.7212</ele>
        <time>2020-01-27 13:49:56</time>
      </trkpt>
      <trkpt lat="45.58779" lon="6.573">
        <ele>2451.273</ele>
        <time>2020-01-27 13:49:57</time>
      </trkpt>
      <trkpt lat="45.58779" lon="6.57301">
        <ele>2451.3174</ele>
        <time>2020-01-27 13:49:58</time>
      </trkpt>
      <trkpt lat="45.58778" lon="6.57301">
        <ele>2449.7456</ele>
        <time>2020-01-27 13:50:02</time>
      </trkpt>
      <trkpt lat="45.58778" lon="6.57299">
        <ele>2450.675</ele>
        <time>2020-01-27 13:50:04</time>
      </trkpt>
      <trkpt lat="45.58777" lon="6.57299">
        <ele>2450.7708</ele>
        <time>2020-01-27 13:50:05</time>
      </trkpt>
      <trkpt lat="45.58776" lon="6.57297">
        <ele>2449.4465</ele>
        <time>2020-01-27 13:50:08</time>
      </trkpt>
      <trkpt lat="45.58776" lon="6.57297">
        <ele>2449.719</ele>
        <time>2020-01-27 13:50:10</time>
      </trkpt>
      <trkpt lat="45.58777" lon="6.57292">
        <ele>2451.3188</ele>
        <time>2020-01-27 13:50:15</time>
      </trkpt>
      <trkpt lat="45.58777" lon="6.57292">
        <ele>2451.615</ele>
        <time>2020-01-27 13:50:16</time>
      </trkpt>
      <trkpt lat="45.58777" lon="6.57292">
        <ele>2451.6543</ele>
        <time>2020-01-27 13:50:20</time>
      </trkpt>
      <trkpt lat="45.58775" lon="6.57292">
        <ele>2452.2278</ele>
        <time>2020-01-27 13:50:22</time>
      </trkpt>
      <trkpt lat="45.58775" lon="6.57293">
        <ele>2451.9482</ele>
        <time>2020-01-27 13:50:24</time>
      </trkpt>
      <trkpt lat="45.58774" lon="6.57293">
        <ele>2451.8</ele>
        <time>2020-01-27 13:50:25</time>
      </trkpt>
      <trkpt lat="45.58774" lon="6.57294">
        <ele>2451.8015</ele>
        <time>2020-01-27 13:50:27</time>
      </trkpt>
      <trkpt lat="45.58773" lon="6.57293">
        <ele>2452.72</ele>
        <time>2020-01-27 13:50:29</time>
      </trkpt>
      <trkpt lat="45.58772" lon="6.57292">
        <ele>2453.2961</ele>
        <time>2020-01-27 13:50:32</time>
      </trkpt>
      <trkpt lat="45.58771" lon="6.57291">
        <ele>2452.9426</ele>
        <time>2020-01-27 13:50:34</time>
      </trkpt>
      <trkpt lat="45.5877" lon="6.57291">
        <ele>2453.2993</ele>
        <time>2020-01-27 13:50:40</time>
      </trkpt>
      <trkpt lat="45.5877" lon="6.5729">
        <ele>2454.0808</ele>
        <time>2020-01-27 13:50:41</time>
      </trkpt>
      <trkpt lat="45.58769" lon="6.5729">
        <ele>2455.2874</ele>
        <time>2020-01-27 13:50:44</time>
      </trkpt>
      <trkpt lat="45.58767" lon="6.5729">
        <ele>2455.9521</ele>
        <time>2020-01-27 13:50:48</time>
      </trkpt>
      <trkpt lat="45.58767" lon="6.57291">
        <ele>2455.7007</ele>
        <time>2020-01-27 13:50:51</time>
      </trkpt>
      <trkpt lat="45.58765" lon="6.5729">
        <ele>2455.8853</ele>
        <time>2020-01-27 13:50:53</time>
      </trkpt>
      <trkpt lat="45.58765" lon="6.5729">
        <ele>2456.5957</ele>
        <time>2020-01-27 13:50:56</time>
      </trkpt>
      <trkpt lat="45.58763" lon="6.57289">
        <ele>2457.3376</ele>
        <time>2020-01-27 13:50:58</time>
      </trkpt>
      <trkpt lat="45.58763" lon="6.57289">
        <ele>2457.8484</ele>
        <time>2020-01-27 13:50:59</time>
      </trkpt>
      <trkpt lat="45.58761" lon="6.57288">
        <ele>2458.198</ele>
        <time>2020-01-27 13:51:01</time>
      </trkpt>
      <trkpt lat="45.58761" lon="6.57288">
        <ele>2457.5789</ele>
        <time>2020-01-27 13:51:03</time>
      </trkpt>
      <trkpt lat="45.5876" lon="6.57287">
        <ele>2457.952</ele>
        <time>2020-01-27 13:51:05</time>
      </trkpt>
      <trkpt lat="45.58758" lon="6.57285">
        <ele>2459.2935</ele>
        <time>2020-01-27 13:51:11</time>
      </trkpt>
      <trkpt lat="45.58757" lon="6.57287">
        <ele>2458.6223</ele>
        <time>2020-01-27 13:51:19</time>
      </trkpt>
      <trkpt lat="45.58754" lon="6.57288">
        <ele>2461.0366</ele>
        <time>2020-01-27 13:51:22</time>
      </trkpt>
      <trkpt lat="45.58752" lon="6.57287">
        <ele>2462.0288</ele>
        <time>2020-01-27 13:51:27</time>
      </trkpt>
      <trkpt lat="45.58752" lon="6.57287">
        <ele>2462.2283</ele>
        <time>2020-01-27 13:51:28</time>
      </trkpt>
      <trkpt lat="45.5875" lon="6.57286">
        <ele>2462.8713</ele>
        <time>2020-01-27 13:51:30</time>
      </trkpt>
      <trkpt lat="45.58749" lon="6.57286">
        <ele>2463.1924</ele>
        <time>2020-01-27 13:51:31</time>
      </trkpt>
      <trkpt lat="45.58749" lon="6.57286">
        <ele>2463.6199</ele>
        <time>2020-01-27 13:51:32</time>
      </trkpt>
      <trkpt lat="45.58747" lon="6.57286">
        <ele>2463.8264</ele>
        <time>2020-01-27 13:51:36</time>
      </trkpt>
      <trkpt lat="45.58747" lon="6.57286">
        <ele>2464.5767</ele>
        <time>2020-01-27 13:51:38</time>
      </trkpt>
      <trkpt lat="45.58743" lon="6.57286">
        <ele>2466.3704</ele>
        <time>2020-01-27 13:51:45</time>
      </trkpt>
      <trkpt lat="45.58743" lon="6.57287">
        <ele>2467.2544</ele>
        <time>2020-01-27 13:51:49</time>
      </trkpt>
      <trkpt lat="45.58737" lon="6.57285">
        <ele>2465.571</ele>
        <time>2020-01-27 13:51:55</time>
      </trkpt>
      <trkpt lat="45.58737" lon="6.57285">
        <ele>2466.1865</ele>
        <time>2020-01-27 13:51:57</time>
      </trkpt>
      <trkpt lat="45.58735" lon="6.57285">
        <ele>2465.6953</ele>
        <time>2020-01-27 13:52:01</time>
      </trkpt>
      <trkpt lat="45.58734" lon="6.57284">
        <ele>2466.1523</ele>
        <time>2020-01-27 13:52:03</time>
      </trkpt>
      <trkpt lat="45.58733" lon="6.57283">
        <ele>2466.0952</ele>
        <time>2020-01-27 13:52:13</time>
      </trkpt>
      <trkpt lat="45.5873" lon="6.57283">
        <ele>2466.0974</ele>
        <time>2020-01-27 13:52:17</time>
      </trkpt>
      <trkpt lat="45.58727" lon="6.57283">
        <ele>2465.6084</ele>
        <time>2020-01-27 13:52:20</time>
      </trkpt>
      <trkpt lat="45.58723" lon="6.57281">
        <ele>2464.912</ele>
        <time>2020-01-27 13:52:27</time>
      </trkpt>
      <trkpt lat="45.58724" lon="6.5728">
        <ele>2465.3616</ele>
        <time>2020-01-27 13:52:55</time>
      </trkpt>
      <trkpt lat="45.58724" lon="6.5728">
        <ele>2466.0847</ele>
        <time>2020-01-27 13:52:56</time>
      </trkpt>
      <trkpt lat="45.58724" lon="6.5728">
        <ele>2467.3308</ele>
        <time>2020-01-27 13:52:57</time>
      </trkpt>
      <trkpt lat="45.58724" lon="6.57281">
        <ele>2467.0554</ele>
        <time>2020-01-27 13:52:58</time>
      </trkpt>
      <trkpt lat="45.58723" lon="6.57281">
        <ele>2467.3196</ele>
        <time>2020-01-27 13:53:03</time>
      </trkpt>
      <trkpt lat="45.58723" lon="6.57281">
        <ele>2467.6694</ele>
        <time>2020-01-27 13:53:04</time>
      </trkpt>
      <trkpt lat="45.58721" lon="6.57281">
        <ele>2466.6404</ele>
        <time>2020-01-27 13:53:07</time>
      </trkpt>
      <trkpt lat="45.58721" lon="6.57281">
        <ele>2466.4631</ele>
        <time>2020-01-27 13:53:08</time>
      </trkpt>
      <trkpt lat="45.58721" lon="6.57281">
        <ele>2465.5515</ele>
        <time>2020-01-27 13:53:11</time>
      </trkpt>
      <trkpt lat="45.58721" lon="6.57281">
        <ele>2465.9473</ele>
        <time>2020-01-27 13:53:12</time>
      </trkpt>
      <trkpt lat="45.5872" lon="6.57281">
        <ele>2465.1567</ele>
        <time>2020-01-27 13:53:13</time>
      </trkpt>
      <trkpt lat="45.58718" lon="6.5728">
        <ele>2465.0222</ele>
        <time>2020-01-27 13:53:16</time>
      </trkpt>
      <trkpt lat="45.58716" lon="6.57277">
        <ele>2464.7896</ele>
        <time>2020-01-27 13:53:23</time>
      </trkpt>
      <trkpt lat="45.58709" lon="6.57274">
        <ele>2467.8079</ele>
        <time>2020-01-27 13:53:32</time>
      </trkpt>
      <trkpt lat="45.58708" lon="6.57274">
        <ele>2467.229</ele>
        <time>2020-01-27 13:53:33</time>
      </trkpt>
      <trkpt lat="45.58707" lon="6.57274">
        <ele>2467.0898</ele>
        <time>2020-01-27 13:53:34</time>
      </trkpt>
      <trkpt lat="45.58704" lon="6.57273">
        <ele>2466.232</ele>
        <time>2020-01-27 13:53:37</time>
      </trkpt>
      <trkpt lat="45.58699" lon="6.57272">
        <ele>2467.3086</ele>
        <time>2020-01-27 13:53:44</time>
      </trkpt>
      <trkpt lat="45.58692" lon="6.57267">
        <ele>2469.3071</ele>
        <time>2020-01-27 13:53:55</time>
      </trkpt>
      <trkpt lat="45.58684" lon="6.57264">
        <ele>2468.6936</ele>
        <time>2020-01-27 13:54:02</time>
      </trkpt>
      <trkpt lat="45.58681" lon="6.57262">
        <ele>2466.6177</ele>
        <time>2020-01-27 13:54:06</time>
      </trkpt>
      <trkpt lat="45.58679" lon="6.57263">
        <ele>2468.9128</ele>
        <time>2020-01-27 13:54:11</time>
      </trkpt>
      <trkpt lat="45.58677" lon="6.57262">
        <ele>2467.2144</ele>
        <time>2020-01-27 13:54:14</time>
      </trkpt>
      <trkpt lat="45.58672" lon="6.57258">
        <ele>2470.1433</ele>
        <time>2020-01-27 13:54:23</time>
      </trkpt>
      <trkpt lat="45.58664" lon="6.57252">
        <ele>2468.3394</ele>
        <time>2020-01-27 13:54:34</time>
      </trkpt>
      <trkpt lat="45.58659" lon="6.57249">
        <ele>2467.5015</ele>
        <time>2020-01-27 13:54:42</time>
      </trkpt>
      <trkpt lat="45.58652" lon="6.57247">
        <ele>2468.728</ele>
        <time>2020-01-27 13:54:50</time>
      </trkpt>
      <trkpt lat="45.58649" lon="6.57244">
        <ele>2469.0745</ele>
        <time>2020-01-27 13:54:56</time>
      </trkpt>
      <trkpt lat="45.58646" lon="6.57242">
        <ele>2470.605</ele>
        <time>2020-01-27 13:55:00</time>
      </trkpt>
      <trkpt lat="45.58637" lon="6.57235">
        <ele>2471.6016</ele>
        <time>2020-01-27 13:55:15</time>
      </trkpt>
      <trkpt lat="45.58634" lon="6.57231">
        <ele>2471.2607</ele>
        <time>2020-01-27 13:55:20</time>
      </trkpt>
      <trkpt lat="45.58631" lon="6.57227">
        <ele>2471.5361</ele>
        <time>2020-01-27 13:55:26</time>
      </trkpt>
      <trkpt lat="45.58629" lon="6.57226">
        <ele>2471.6973</ele>
        <time>2020-01-27 13:55:29</time>
      </trkpt>
      <trkpt lat="45.58622" lon="6.57221">
        <ele>2472.4395</ele>
        <time>2020-01-27 13:55:40</time>
      </trkpt>
      <trkpt lat="45.58618" lon="6.5722">
        <ele>2471.6116</ele>
        <time>2020-01-27 13:55:46</time>
      </trkpt>
      <trkpt lat="45.58614" lon="6.57219">
        <ele>2472.5789</ele>
        <time>2020-01-27 13:55:54</time>
      </trkpt>
      <trkpt lat="45.58614" lon="6.57219">
        <ele>2472.6992</ele>
        <time>2020-01-27 13:55:55</time>
      </trkpt>
      <trkpt lat="45.58614" lon="6.57218">
        <ele>2473.045</ele>
        <time>2020-01-27 13:55:56</time>
      </trkpt>
      <trkpt lat="45.58613" lon="6.57218">
        <ele>2474.1685</ele>
        <time>2020-01-27 13:56:00</time>
      </trkpt>
      <trkpt lat="45.58613" lon="6.57218">
        <ele>2473.5024</ele>
        <time>2020-01-27 13:56:01</time>
      </trkpt>
      <trkpt lat="45.5861" lon="6.57217">
        <ele>2476.168</ele>
        <time>2020-01-27 13:56:05</time>
      </trkpt>
      <trkpt lat="45.58608" lon="6.57214">
        <ele>2478.3552</ele>
        <time>2020-01-27 13:56:09</time>
      </trkpt>
      <trkpt lat="45.58601" lon="6.57212">
        <ele>2476.7244</ele>
        <time>2020-01-27 13:56:18</time>
      </trkpt>
      <trkpt lat="45.58598" lon="6.57211">
        <ele>2476.1582</ele>
        <time>2020-01-27 13:56:22</time>
      </trkpt>
      <trkpt lat="45.58595" lon="6.57209">
        <ele>2475.4104</ele>
        <time>2020-01-27 13:56:29</time>
      </trkpt>
      <trkpt lat="45.58589" lon="6.57207">
        <ele>2475.157</ele>
        <time>2020-01-27 13:56:38</time>
      </trkpt>
      <trkpt lat="45.58583" lon="6.57202">
        <ele>2476.077</ele>
        <time>2020-01-27 13:56:54</time>
      </trkpt>
      <trkpt lat="45.58583" lon="6.57202">
        <ele>2476.283</ele>
        <time>2020-01-27 13:56:55</time>
      </trkpt>
      <trkpt lat="45.58581" lon="6.57198">
        <ele>2479.22</ele>
        <time>2020-01-27 13:57:06</time>
      </trkpt>
      <trkpt lat="45.58581" lon="6.57198">
        <ele>2479.024</ele>
        <time>2020-01-27 13:57:07</time>
      </trkpt>
      <trkpt lat="45.5858" lon="6.57197">
        <ele>2478.988</ele>
        <time>2020-01-27 13:57:09</time>
      </trkpt>
      <trkpt lat="45.58581" lon="6.57197">
        <ele>2479.152</ele>
        <time>2020-01-27 13:57:11</time>
      </trkpt>
      <trkpt lat="45.5858" lon="6.57196">
        <ele>2479.3958</ele>
        <time>2020-01-27 13:57:13</time>
      </trkpt>
      <trkpt lat="45.5858" lon="6.57195">
        <ele>2479.2188</ele>
        <time>2020-01-27 13:57:14</time>
      </trkpt>
      <trkpt lat="45.5858" lon="6.57195">
        <ele>2479.0872</ele>
        <time>2020-01-27 13:57:15</time>
      </trkpt>
      <trkpt lat="45.58579" lon="6.57194">
        <ele>2478.7961</ele>
        <time>2020-01-27 13:57:18</time>
      </trkpt>
      <trkpt lat="45.58575" lon="6.57189">
        <ele>2478.5757</ele>
        <time>2020-01-27 13:57:27</time>
      </trkpt>
      <trkpt lat="45.58574" lon="6.57188">
        <ele>2479.0952</ele>
        <time>2020-01-27 13:57:30</time>
      </trkpt>
      <trkpt lat="45.58571" lon="6.57184">
        <ele>2480.486</ele>
        <time>2020-01-27 13:57:35</time>
      </trkpt>
      <trkpt lat="45.5857" lon="6.57183">
        <ele>2481.1873</ele>
        <time>2020-01-27 13:57:38</time>
      </trkpt>
      <trkpt lat="45.5857" lon="6.57183">
        <ele>2481.5906</ele>
        <time>2020-01-27 13:57:39</time>
      </trkpt>
      <trkpt lat="45.5857" lon="6.57182">
        <ele>2481.9463</ele>
        <time>2020-01-27 13:57:40</time>
      </trkpt>
      <trkpt lat="45.5857" lon="6.57182">
        <ele>2482.7822</ele>
        <time>2020-01-27 13:57:43</time>
      </trkpt>
      <trkpt lat="45.58569" lon="6.57181">
        <ele>2484.2783</ele>
        <time>2020-01-27 13:57:45</time>
      </trkpt>
      <trkpt lat="45.58566" lon="6.57178">
        <ele>2485.774</ele>
        <time>2020-01-27 13:57:51</time>
      </trkpt>
      <trkpt lat="45.58566" lon="6.57178">
        <ele>2486.8755</ele>
        <time>2020-01-27 13:57:55</time>
      </trkpt>
      <trkpt lat="45.58555" lon="6.5717">
        <ele>2489.6885</ele>
        <time>2020-01-27 13:58:13</time>
      </trkpt>
      <trkpt lat="45.58555" lon="6.57169">
        <ele>2489.8455</ele>
        <time>2020-01-27 13:58:15</time>
      </trkpt>
      <trkpt lat="45.58554" lon="6.57169">
        <ele>2490.8694</ele>
        <time>2020-01-27 13:58:17</time>
      </trkpt>
      <trkpt lat="45.58554" lon="6.57168">
        <ele>2490.988</ele>
        <time>2020-01-27 13:58:18</time>
      </trkpt>
      <trkpt lat="45.58552" lon="6.57168">
        <ele>2491.3152</ele>
        <time>2020-01-27 13:58:22</time>
      </trkpt>
      <trkpt lat="45.5855" lon="6.57166">
        <ele>2490.935</ele>
        <time>2020-01-27 13:58:25</time>
      </trkpt>
      <trkpt lat="45.58549" lon="6.57166">
        <ele>2490.6328</ele>
        <time>2020-01-27 13:58:30</time>
      </trkpt>
      <trkpt lat="45.58548" lon="6.57165">
        <ele>2491.3706</ele>
        <time>2020-01-27 13:58:31</time>
      </trkpt>
      <trkpt lat="45.58548" lon="6.57165">
        <ele>2491.1482</ele>
        <time>2020-01-27 13:58:32</time>
      </trkpt>
      <trkpt lat="45.58547" lon="6.57166">
        <ele>2491.327</ele>
        <time>2020-01-27 13:58:52</time>
      </trkpt>
      <trkpt lat="45.58547" lon="6.57166">
        <ele>2491.488</ele>
        <time>2020-01-27 13:58:53</time>
      </trkpt>
      <trkpt lat="45.58547" lon="6.57165">
        <ele>2491.215</ele>
        <time>2020-01-27 13:58:55</time>
      </trkpt>
      <trkpt lat="45.58547" lon="6.57165">
        <ele>2491.055</ele>
        <time>2020-01-27 13:58:56</time>
      </trkpt>
      <trkpt lat="45.58547" lon="6.57165">
        <ele>2492.1924</ele>
        <time>2020-01-27 13:59:07</time>
      </trkpt>
      <trkpt lat="45.58542" lon="6.57163">
        <ele>2494.0522</ele>
        <time>2020-01-27 13:59:14</time>
      </trkpt>
      <trkpt lat="45.58541" lon="6.57164">
        <ele>2494.2434</ele>
        <time>2020-01-27 13:59:22</time>
      </trkpt>
      <trkpt lat="45.58539" lon="6.57163">
        <ele>2494.214</ele>
        <time>2020-01-27 13:59:27</time>
      </trkpt>
      <trkpt lat="45.58539" lon="6.57163">
        <ele>2494.3643</ele>
        <time>2020-01-27 13:59:29</time>
      </trkpt>
      <trkpt lat="45.58538" lon="6.57162">
        <ele>2494.7266</ele>
        <time>2020-01-27 13:59:31</time>
      </trkpt>
      <trkpt lat="45.58538" lon="6.57162">
        <ele>2494.875</ele>
        <time>2020-01-27 13:59:32</time>
      </trkpt>
      <trkpt lat="45.58537" lon="6.57161">
        <ele>2494.3782</ele>
        <time>2020-01-27 13:59:34</time>
      </trkpt>
      <trkpt lat="45.58537" lon="6.57162">
        <ele>2494.3225</ele>
        <time>2020-01-27 13:59:35</time>
      </trkpt>
      <trkpt lat="45.58535" lon="6.57161">
        <ele>2494.322</ele>
        <time>2020-01-27 13:59:38</time>
      </trkpt>
      <trkpt lat="45.58534" lon="6.57161">
        <ele>2494.1755</ele>
        <time>2020-01-27 13:59:42</time>
      </trkpt>
      <trkpt lat="45.58533" lon="6.5716">
        <ele>2494.649</ele>
        <time>2020-01-27 13:59:45</time>
      </trkpt>
      <trkpt lat="45.58533" lon="6.57159">
        <ele>2495.1555</ele>
        <time>2020-01-27 13:59:51</time>
      </trkpt>
      <trkpt lat="45.58532" lon="6.57159">
        <ele>2495.0618</ele>
        <time>2020-01-27 13:59:53</time>
      </trkpt>
      <trkpt lat="45.58531" lon="6.57159">
        <ele>2495.3508</ele>
        <time>2020-01-27 14:00:34</time>
      </trkpt>
      <trkpt lat="45.58531" lon="6.57158">
        <ele>2495.556</ele>
        <time>2020-01-27 14:00:37</time>
      </trkpt>
      <trkpt lat="45.5853" lon="6.57158">
        <ele>2495.4565</ele>
        <time>2020-01-27 14:00:38</time>
      </trkpt>
      <trkpt lat="45.58527" lon="6.57157">
        <ele>2496.8674</ele>
        <time>2020-01-27 14:00:43</time>
      </trkpt>
      <trkpt lat="45.58526" lon="6.57157">
        <ele>2496.5073</ele>
        <time>2020-01-27 14:01:26</time>
      </trkpt>
      <trkpt lat="45.58526" lon="6.57157">
        <ele>2497.281</ele>
        <time>2020-01-27 14:01:53</time>
      </trkpt>
      <trkpt lat="45.58525" lon="6.57157">
        <ele>2498.0986</ele>
        <time>2020-01-27 14:01:56</time>
      </trkpt>
      <trkpt lat="45.58524" lon="6.57156">
        <ele>2498.753</ele>
        <time>2020-01-27 14:02:03</time>
      </trkpt>
      <trkpt lat="45.58524" lon="6.57155">
        <ele>2498.3938</ele>
        <time>2020-01-27 14:02:04</time>
      </trkpt>
      <trkpt lat="45.58522" lon="6.57155">
        <ele>2497.9873</ele>
        <time>2020-01-27 14:02:35</time>
      </trkpt>
      <trkpt lat="45.58522" lon="6.57155">
        <ele>2498.1316</ele>
        <time>2020-01-27 14:02:56</time>
      </trkpt>
      <trkpt lat="45.58522" lon="6.57154">
        <ele>2497.2317</ele>
        <time>2020-01-27 14:02:57</time>
      </trkpt>
      <trkpt lat="45.58521" lon="6.57154">
        <ele>2497.314</ele>
        <time>2020-01-27 14:02:58</time>
      </trkpt>
      <trkpt lat="45.58522" lon="6.57154">
        <ele>2498.2783</ele>
        <time>2020-01-27 14:03:00</time>
      </trkpt>
      <trkpt lat="45.58522" lon="6.57153">
        <ele>2498.4556</ele>
        <time>2020-01-27 14:03:01</time>
      </trkpt>
      <trkpt lat="45.58523" lon="6.57152">
        <ele>2499.4182</ele>
        <time>2020-01-27 14:03:09</time>
      </trkpt>
      <trkpt lat="45.58523" lon="6.57151">
        <ele>2500.1714</ele>
        <time>2020-01-27 14:03:12</time>
      </trkpt>
      <trkpt lat="45.58523" lon="6.5715">
        <ele>2499.9673</ele>
        <time>2020-01-27 14:03:15</time>
      </trkpt>
      <trkpt lat="45.58523" lon="6.57149">
        <ele>2501.3696</ele>
        <time>2020-01-27 14:03:18</time>
      </trkpt>
      <trkpt lat="45.58524" lon="6.57149">
        <ele>2503.7458</ele>
        <time>2020-01-27 14:03:23</time>
      </trkpt>
      <trkpt lat="45.58524" lon="6.57149">
        <ele>2503.746</ele>
        <time>2020-01-27 14:03:24</time>
      </trkpt>
      <trkpt lat="45.58523" lon="6.57147">
        <ele>2504.536</ele>
        <time>2020-01-27 14:03:31</time>
      </trkpt>
      <trkpt lat="45.58522" lon="6.57147">
        <ele>2503.9602</ele>
        <time>2020-01-27 14:03:33</time>
      </trkpt>
      <trkpt lat="45.58522" lon="6.57147">
        <ele>2504.8394</ele>
        <time>2020-01-27 14:03:37</time>
      </trkpt>
      <trkpt lat="45.58522" lon="6.57146">
        <ele>2505.8494</ele>
        <time>2020-01-27 14:03:39</time>
      </trkpt>
      <trkpt lat="45.58521" lon="6.57143">
        <ele>2502.286</ele>
        <time>2020-01-27 14:04:09</time>
      </trkpt>
      <trkpt lat="45.58521" lon="6.57143">
        <ele>2502.2375</ele>
        <time>2020-01-27 14:04:24</time>
      </trkpt>
      <trkpt lat="45.58521" lon="6.57143">
        <ele>2503.0105</ele>
        <time>2020-01-27 14:04:25</time>
      </trkpt>
      <trkpt lat="45.58522" lon="6.57143">
        <ele>2504.748</ele>
        <time>2020-01-27 14:04:29</time>
      </trkpt>
      <trkpt lat="45.58522" lon="6.57143">
        <ele>2504.7234</ele>
        <time>2020-01-27 14:04:30</time>
      </trkpt>
      <trkpt lat="45.58523" lon="6.57142">
        <ele>2505.548</ele>
        <time>2020-01-27 14:04:41</time>
      </trkpt>
      <trkpt lat="45.58523" lon="6.57141">
        <ele>2506.0413</ele>
        <time>2020-01-27 14:04:43</time>
      </trkpt>
      <trkpt lat="45.58523" lon="6.5714">
        <ele>2505.7324</ele>
        <time>2020-01-27 14:04:45</time>
      </trkpt>
      <trkpt lat="45.58523" lon="6.5714">
        <ele>2506.1702</ele>
        <time>2020-01-27 14:04:46</time>
      </trkpt>
      <trkpt lat="45.58524" lon="6.57139">
        <ele>2506.4792</ele>
        <time>2020-01-27 14:04:48</time>
      </trkpt>
      <trkpt lat="45.58525" lon="6.57137">
        <ele>2507.047</ele>
        <time>2020-01-27 14:04:51</time>
      </trkpt>
      <trkpt lat="45.58527" lon="6.57136">
        <ele>2507.2358</ele>
        <time>2020-01-27 14:05:04</time>
      </trkpt>
      <trkpt lat="45.58526" lon="6.57135">
        <ele>2507.0845</ele>
        <time>2020-01-27 14:05:06</time>
      </trkpt>
      <trkpt lat="45.58526" lon="6.57133">
        <ele>2506.7766</ele>
        <time>2020-01-27 14:05:08</time>
      </trkpt>
      <trkpt lat="45.58526" lon="6.57131">
        <ele>2505.794</ele>
        <time>2020-01-27 14:05:13</time>
      </trkpt>
      <trkpt lat="45.58526" lon="6.57129">
        <ele>2505.4993</ele>
        <time>2020-01-27 14:05:18</time>
      </trkpt>
      <trkpt lat="45.58526" lon="6.57129">
        <ele>2505.6938</ele>
        <time>2020-01-27 14:05:19</time>
      </trkpt>
      <trkpt lat="45.58525" lon="6.57129">
        <ele>2505.7664</ele>
        <time>2020-01-27 14:05:20</time>
      </trkpt>
      <trkpt lat="45.58525" lon="6.57129">
        <ele>2504.6633</ele>
        <time>2020-01-27 14:05:22</time>
      </trkpt>
      <trkpt lat="45.58525" lon="6.57129">
        <ele>2504.4236</ele>
        <time>2020-01-27 14:05:25</time>
      </trkpt>
      <trkpt lat="45.58525" lon="6.57129">
        <ele>2504.5566</ele>
        <time>2020-01-27 14:05:26</time>
      </trkpt>
      <trkpt lat="45.58524" lon="6.5713">
        <ele>2504.8801</ele>
        <time>2020-01-27 14:05:29</time>
      </trkpt>
      <trkpt lat="45.58523" lon="6.5713">
        <ele>2505.8538</ele>
        <time>2020-01-27 14:05:32</time>
      </trkpt>
      <trkpt lat="45.58522" lon="6.57131">
        <ele>2506.121</ele>
        <time>2020-01-27 14:05:34</time>
      </trkpt>
      <trkpt lat="45.58519" lon="6.57132">
        <ele>2507.1863</ele>
        <time>2020-01-27 14:05:39</time>
      </trkpt>
      <trkpt lat="45.58514" lon="6.57135">
        <ele>2508.778</ele>
        <time>2020-01-27 14:05:48</time>
      </trkpt>
      <trkpt lat="45.58508" lon="6.57136">
        <ele>2509.0366</ele>
        <time>2020-01-27 14:05:59</time>
      </trkpt>
      <trkpt lat="45.58506" lon="6.57138">
        <ele>2509.3206</ele>
        <time>2020-01-27 14:06:03</time>
      </trkpt>
      <trkpt lat="45.58505" lon="6.57139">
        <ele>2508.7542</ele>
        <time>2020-01-27 14:06:04</time>
      </trkpt>
      <trkpt lat="45.58504" lon="6.57139">
        <ele>2508.8828</ele>
        <time>2020-01-27 14:06:06</time>
      </trkpt>
      <trkpt lat="45.58504" lon="6.5714">
        <ele>2509.8047</ele>
        <time>2020-01-27 14:06:12</time>
      </trkpt>
      <trkpt lat="45.58503" lon="6.57141">
        <ele>2509.363</ele>
        <time>2020-01-27 14:06:15</time>
      </trkpt>
      <trkpt lat="45.58499" lon="6.57143">
        <ele>2507.7754</ele>
        <time>2020-01-27 14:06:21</time>
      </trkpt>
      <trkpt lat="45.58496" lon="6.57142">
        <ele>2507.6028</ele>
        <time>2020-01-27 14:06:26</time>
      </trkpt>
      <trkpt lat="45.58497" lon="6.57143">
        <ele>2508.5474</ele>
        <time>2020-01-27 14:06:38</time>
      </trkpt>
      <trkpt lat="45.58497" lon="6.57143">
        <ele>2509.0947</ele>
        <time>2020-01-27 14:06:39</time>
      </trkpt>
      <trkpt lat="45.58498" lon="6.57144">
        <ele>2508.6099</ele>
        <time>2020-01-27 14:06:41</time>
      </trkpt>
      <trkpt lat="45.58498" lon="6.57145">
        <ele>2507.9958</ele>
        <time>2020-01-27 14:06:42</time>
      </trkpt>
      <trkpt lat="45.58499" lon="6.57145">
        <ele>2507.7107</ele>
        <time>2020-01-27 14:06:44</time>
      </trkpt>
      <trkpt lat="45.585" lon="6.57145">
        <ele>2507.526</ele>
        <time>2020-01-27 14:06:46</time>
      </trkpt>
      <trkpt lat="45.58503" lon="6.5714">
        <ele>2508.2234</ele>
        <time>2020-01-27 14:06:53</time>
      </trkpt>
      <trkpt lat="45.58504" lon="6.57138">
        <ele>2508.1987</ele>
        <time>2020-01-27 14:06:56</time>
      </trkpt>
      <trkpt lat="45.58504" lon="6.57138">
        <ele>2507.3774</ele>
        <time>2020-01-27 14:06:58</time>
      </trkpt>
      <trkpt lat="45.58504" lon="6.57138">
        <ele>2506.9263</ele>
        <time>2020-01-27 14:06:59</time>
      </trkpt>
      <trkpt lat="45.58504" lon="6.57139">
        <ele>2506.4797</ele>
        <time>2020-01-27 14:07:00</time>
      </trkpt>
      <trkpt lat="45.58504" lon="6.57139">
        <ele>2507.5513</ele>
        <time>2020-01-27 14:07:12</time>
      </trkpt>
      <trkpt lat="45.58505" lon="6.57136">
        <ele>2508.475</ele>
        <time>2020-01-27 14:07:16</time>
      </trkpt>
      <trkpt lat="45.58508" lon="6.57135">
        <ele>2507.6907</ele>
        <time>2020-01-27 14:07:22</time>
      </trkpt>
      <trkpt lat="45.58509" lon="6.57135">
        <ele>2507.7505</ele>
        <time>2020-01-27 14:07:24</time>
      </trkpt>
      <trkpt lat="45.58514" lon="6.57131">
        <ele>2506.4583</ele>
        <time>2020-01-27 14:07:34</time>
      </trkpt>
      <trkpt lat="45.58517" lon="6.57131">
        <ele>2506.2312</ele>
        <time>2020-01-27 14:07:41</time>
      </trkpt>
      <trkpt lat="45.5852" lon="6.57132">
        <ele>2506.0388</ele>
        <time>2020-01-27 14:07:45</time>
      </trkpt>
      <trkpt lat="45.58526" lon="6.57132">
        <ele>2505.1707</ele>
        <time>2020-01-27 14:07:56</time>
      </trkpt>
      <trkpt lat="45.58526" lon="6.57133">
        <ele>2505.1765</ele>
        <time>2020-01-27 14:07:58</time>
      </trkpt>
      <trkpt lat="45.58526" lon="6.57133">
        <ele>2503.8494</ele>
        <time>2020-01-27 14:08:06</time>
      </trkpt>
      <trkpt lat="45.58526" lon="6.57134">
        <ele>2504.0034</ele>
        <time>2020-01-27 14:08:07</time>
      </trkpt>
      <trkpt lat="45.58525" lon="6.57134">
        <ele>2503.8428</ele>
        <time>2020-01-27 14:08:09</time>
      </trkpt>
      <trkpt lat="45.58524" lon="6.57136">
        <ele>2502.0403</ele>
        <time>2020-01-27 14:08:14</time>
      </trkpt>
      <trkpt lat="45.58524" lon="6.57137">
        <ele>2501.827</ele>
        <time>2020-01-27 14:08:15</time>
      </trkpt>
      <trkpt lat="45.58524" lon="6.57137">
        <ele>2501.9236</ele>
        <time>2020-01-27 14:08:16</time>
      </trkpt>
      <trkpt lat="45.58524" lon="6.57138">
        <ele>2501.3218</ele>
        <time>2020-01-27 14:08:17</time>
      </trkpt>
      <trkpt lat="45.58524" lon="6.57139">
        <ele>2502.5195</ele>
        <time>2020-01-27 14:08:19</time>
      </trkpt>
      <trkpt lat="45.58524" lon="6.57139">
        <ele>2502.2427</ele>
        <time>2020-01-27 14:08:20</time>
      </trkpt>
      <trkpt lat="45.58523" lon="6.57144">
        <ele>2500.8186</ele>
        <time>2020-01-27 14:08:27</time>
      </trkpt>
      <trkpt lat="45.58523" lon="6.57145">
        <ele>2499.3184</ele>
        <time>2020-01-27 14:08:30</time>
      </trkpt>
      <trkpt lat="45.58522" lon="6.57146">
        <ele>2498.568</ele>
        <time>2020-01-27 14:08:31</time>
      </trkpt>
      <trkpt lat="45.58522" lon="6.57146">
        <ele>2497.8992</ele>
        <time>2020-01-27 14:08:33</time>
      </trkpt>
      <trkpt lat="45.58522" lon="6.57148">
        <ele>2497.0103</ele>
        <time>2020-01-27 14:08:36</time>
      </trkpt>
      <trkpt lat="45.58522" lon="6.57148">
        <ele>2496.9814</ele>
        <time>2020-01-27 14:08:39</time>
      </trkpt>
      <trkpt lat="45.58522" lon="6.57149">
        <ele>2497.2036</ele>
        <time>2020-01-27 14:08:41</time>
      </trkpt>
      <trkpt lat="45.58522" lon="6.5715">
        <ele>2496.5828</ele>
        <time>2020-01-27 14:08:43</time>
      </trkpt>
      <trkpt lat="45.58522" lon="6.57152">
        <ele>2496.283</ele>
        <time>2020-01-27 14:08:45</time>
      </trkpt>
      <trkpt lat="45.58522" lon="6.57152">
        <ele>2496.372</ele>
        <time>2020-01-27 14:08:46</time>
      </trkpt>
      <trkpt lat="45.58522" lon="6.57152">
        <ele>2496.791</ele>
        <time>2020-01-27 14:08:47</time>
      </trkpt>
      <trkpt lat="45.58524" lon="6.57154">
        <ele>2498.3413</ele>
        <time>2020-01-27 14:09:19</time>
      </trkpt>
      <trkpt lat="45.58524" lon="6.57154">
        <ele>2497.9746</ele>
        <time>2020-01-27 14:11:06</time>
      </trkpt>
      <trkpt lat="45.58524" lon="6.57154">
        <ele>2498.1934</ele>
        <time>2020-01-27 14:11:08</time>
      </trkpt>
      <trkpt lat="45.58523" lon="6.57153">
        <ele>2496.7627</ele>
        <time>2020-01-27 14:11:48</time>
      </trkpt>
      <trkpt lat="45.58523" lon="6.57153">
        <ele>2496.7856</ele>
        <time>2020-01-27 14:12:20</time>
      </trkpt>
      <trkpt lat="45.58523" lon="6.57153">
        <ele>2496.8599</ele>
        <time>2020-01-27 14:13:08</time>
      </trkpt>
      <trkpt lat="45.58523" lon="6.57153">
        <ele>2496.9023</ele>
        <time>2020-01-27 14:14:47</time>
      </trkpt>
      <trkpt lat="45.58523" lon="6.57153">
        <ele>2496.9304</ele>
        <time>2020-01-27 14:16:01</time>
      </trkpt>
      <trkpt lat="45.58524" lon="6.57154">
        <ele>2497.739</ele>
        <time>2020-01-27 14:16:31</time>
      </trkpt>
      <trkpt lat="45.58524" lon="6.57153">
        <ele>2497.217</ele>
        <time>2020-01-27 14:16:33</time>
      </trkpt>
      <trkpt lat="45.58524" lon="6.57153">
        <ele>2498.4778</ele>
        <time>2020-01-27 14:16:37</time>
      </trkpt>
      <trkpt lat="45.58524" lon="6.57153">
        <ele>2498.5305</ele>
        <time>2020-01-27 14:16:38</time>
      </trkpt>
      <trkpt lat="45.58525" lon="6.57153">
        <ele>2499.6484</ele>
        <time>2020-01-27 14:16:40</time>
      </trkpt>
      <trkpt lat="45.58526" lon="6.57153">
        <ele>2500.0896</ele>
        <time>2020-01-27 14:16:42</time>
      </trkpt>
      <trkpt lat="45.58525" lon="6.57152">
        <ele>2499.2073</ele>
        <time>2020-01-27 14:17:15</time>
      </trkpt>
      <trkpt lat="45.58525" lon="6.57152">
        <ele>2499.2307</ele>
        <time>2020-01-27 14:17:45</time>
      </trkpt>
      <trkpt lat="45.58526" lon="6.57153">
        <ele>2501.6328</ele>
        <time>2020-01-27 14:18:15</time>
      </trkpt>
      <trkpt lat="45.58527" lon="6.57154">
        <ele>2503.1</ele>
        <time>2020-01-27 14:18:47</time>
      </trkpt>
      <trkpt lat="45.58527" lon="6.57154">
        <ele>2503.061</ele>
        <time>2020-01-27 14:19:18</time>
      </trkpt>
      <trkpt lat="45.58527" lon="6.57154">
        <ele>2502.8975</ele>
        <time>2020-01-27 14:19:19</time>
      </trkpt>
      <trkpt lat="45.58527" lon="6.57155">
        <ele>2503.3928</ele>
        <time>2020-01-27 14:19:20</time>
      </trkpt>
      <trkpt lat="45.58527" lon="6.57155">
        <ele>2502.5496</ele>
        <time>2020-01-27 14:19:50</time>
      </trkpt>
      <trkpt lat="45.58528" lon="6.57155">
        <ele>2501.2913</ele>
        <time>2020-01-27 14:19:56</time>
      </trkpt>
      <trkpt lat="45.58529" lon="6.57155">
        <ele>2501.3892</ele>
        <time>2020-01-27 14:19:58</time>
      </trkpt>
      <trkpt lat="45.58529" lon="6.57156">
        <ele>2502.6719</ele>
        <time>2020-01-27 14:20:05</time>
      </trkpt>
      <trkpt lat="45.58529" lon="6.57156">
        <ele>2502.7659</ele>
        <time>2020-01-27 14:20:06</time>
      </trkpt>
      <trkpt lat="45.58528" lon="6.57157">
        <ele>2502.5159</ele>
        <time>2020-01-27 14:20:39</time>
      </trkpt>
      <trkpt lat="45.58527" lon="6.57157">
        <ele>2502.5413</ele>
        <time>2020-01-27 14:21:12</time>
      </trkpt>
      <trkpt lat="45.58527" lon="6.57157">
        <ele>2502.5513</ele>
        <time>2020-01-27 14:22:06</time>
      </trkpt>
      <trkpt lat="45.58527" lon="6.57157">
        <ele>2502.524</ele>
        <time>2020-01-27 14:22:42</time>
      </trkpt>
      <trkpt lat="45.58527" lon="6.57156">
        <ele>2502.451</ele>
        <time>2020-01-27 14:23:25</time>
      </trkpt>
      <trkpt lat="45.58527" lon="6.57156">
        <ele>2502.4446</ele>
        <time>2020-01-27 14:24:00</time>
      </trkpt>
      <trkpt lat="45.58527" lon="6.57157">
        <ele>2502.846</ele>
        <time>2020-01-27 14:24:09</time>
      </trkpt>
      <trkpt lat="45.58525" lon="6.57158">
        <ele>2501.6453</ele>
        <time>2020-01-27 14:24:11</time>
      </trkpt>
      <trkpt lat="45.58523" lon="6.5716">
        <ele>2500.202</ele>
        <time>2020-01-27 14:24:13</time>
      </trkpt>
      <trkpt lat="45.58512" lon="6.57166">
        <ele>2498.1304</ele>
        <time>2020-01-27 14:24:20</time>
      </trkpt>
      <trkpt lat="45.58486" lon="6.57178">
        <ele>2492.6943</ele>
        <time>2020-01-27 14:24:31</time>
      </trkpt>
      <trkpt lat="45.58475" lon="6.57188">
        <ele>2491.772</ele>
        <time>2020-01-27 14:24:36</time>
      </trkpt>
      <trkpt lat="45.58471" lon="6.57191">
        <ele>2488.8623</ele>
        <time>2020-01-27 14:24:39</time>
      </trkpt>
      <trkpt lat="45.58449" lon="6.57205">
        <ele>2483.847</ele>
        <time>2020-01-27 14:24:54</time>
      </trkpt>
      <trkpt lat="45.58445" lon="6.57204">
        <ele>2483.2651</ele>
        <time>2020-01-27 14:24:57</time>
      </trkpt>
      <trkpt lat="45.5844" lon="6.57199">
        <ele>2481.463</ele>
        <time>2020-01-27 14:24:59</time>
      </trkpt>
      <trkpt lat="45.58437" lon="6.57198">
        <ele>2480.7722</ele>
        <time>2020-01-27 14:25:00</time>
      </trkpt>
      <trkpt lat="45.58434" lon="6.572">
        <ele>2480.2507</ele>
        <time>2020-01-27 14:25:01</time>
      </trkpt>
      <trkpt lat="45.58432" lon="6.57202">
        <ele>2479.7915</ele>
        <time>2020-01-27 14:25:02</time>
      </trkpt>
      <trkpt lat="45.58427" lon="6.57205">
        <ele>2479.6414</ele>
        <time>2020-01-27 14:25:04</time>
      </trkpt>
      <trkpt lat="45.58424" lon="6.57206">
        <ele>2479.7197</ele>
        <time>2020-01-27 14:25:05</time>
      </trkpt>
      <trkpt lat="45.58422" lon="6.57207">
        <ele>2479.7095</ele>
        <time>2020-01-27 14:25:08</time>
      </trkpt>
      <trkpt lat="45.58423" lon="6.57208">
        <ele>2480.3628</ele>
        <time>2020-01-27 14:25:12</time>
      </trkpt>
      <trkpt lat="45.58423" lon="6.57208">
        <ele>2480.659</ele>
        <time>2020-01-27 14:25:13</time>
      </trkpt>
      <trkpt lat="45.58422" lon="6.57209">
        <ele>2479.8064</ele>
        <time>2020-01-27 14:25:19</time>
      </trkpt>
      <trkpt lat="45.5842" lon="6.57211">
        <ele>2480.1504</ele>
        <time>2020-01-27 14:25:21</time>
      </trkpt>
      <trkpt lat="45.5842" lon="6.57211">
        <ele>2480.4648</ele>
        <time>2020-01-27 14:25:23</time>
      </trkpt>
      <trkpt lat="45.58419" lon="6.57211">
        <ele>2479.5078</ele>
        <time>2020-01-27 14:26:01</time>
      </trkpt>
      <trkpt lat="45.58419" lon="6.57212">
        <ele>2479.1042</ele>
        <time>2020-01-27 14:26:02</time>
      </trkpt>
      <trkpt lat="45.58418" lon="6.57213">
        <ele>2479.4114</ele>
        <time>2020-01-27 14:26:04</time>
      </trkpt>
      <trkpt lat="45.58418" lon="6.57214">
        <ele>2478.6902</ele>
        <time>2020-01-27 14:26:08</time>
      </trkpt>
      <trkpt lat="45.58414" lon="6.5722">
        <ele>2477.5898</ele>
        <time>2020-01-27 14:26:12</time>
      </trkpt>
      <trkpt lat="45.58412" lon="6.57222">
        <ele>2476.1433</ele>
        <time>2020-01-27 14:26:13</time>
      </trkpt>
      <trkpt lat="45.58409" lon="6.57224">
        <ele>2475.5283</ele>
        <time>2020-01-27 14:26:14</time>
      </trkpt>
      <trkpt lat="45.58407" lon="6.57224">
        <ele>2475.4697</ele>
        <time>2020-01-27 14:26:15</time>
      </trkpt>
      <trkpt lat="45.58401" lon="6.57224">
        <ele>2473.953</ele>
        <time>2020-01-27 14:26:17</time>
      </trkpt>
      <trkpt lat="45.584" lon="6.57226">
        <ele>2473.4128</ele>
        <time>2020-01-27 14:26:18</time>
      </trkpt>
      <trkpt lat="45.584" lon="6.57227">
        <ele>2472.8538</ele>
        <time>2020-01-27 14:26:19</time>
      </trkpt>
      <trkpt lat="45.58399" lon="6.57228">
        <ele>2472.8887</ele>
        <time>2020-01-27 14:26:20</time>
      </trkpt>
      <trkpt lat="45.58398" lon="6.57229">
        <ele>2472.5083</ele>
        <time>2020-01-27 14:26:21</time>
      </trkpt>
      <trkpt lat="45.58396" lon="6.57229">
        <ele>2472.714</ele>
        <time>2020-01-27 14:26:22</time>
      </trkpt>
      <trkpt lat="45.58394" lon="6.57228">
        <ele>2472.3118</ele>
        <time>2020-01-27 14:26:23</time>
      </trkpt>
      <trkpt lat="45.58392" lon="6.57227">
        <ele>2472.1746</ele>
        <time>2020-01-27 14:26:24</time>
      </trkpt>
      <trkpt lat="45.58391" lon="6.5723">
        <ele>2470.679</ele>
        <time>2020-01-27 14:26:26</time>
      </trkpt>
      <trkpt lat="45.5839" lon="6.57233">
        <ele>2469.6091</ele>
        <time>2020-01-27 14:26:27</time>
      </trkpt>
      <trkpt lat="45.58389" lon="6.57235">
        <ele>2469.0195</ele>
        <time>2020-01-27 14:26:28</time>
      </trkpt>
      <trkpt lat="45.58383" lon="6.57234">
        <ele>2468.1914</ele>
        <time>2020-01-27 14:26:31</time>
      </trkpt>
      <trkpt lat="45.5838" lon="6.57233">
        <ele>2467.2083</ele>
        <time>2020-01-27 14:26:33</time>
      </trkpt>
      <trkpt lat="45.58379" lon="6.57234">
        <ele>2466.5203</ele>
        <time>2020-01-27 14:26:34</time>
      </trkpt>
      <trkpt lat="45.58378" lon="6.57236">
        <ele>2466.772</ele>
        <time>2020-01-27 14:26:35</time>
      </trkpt>
      <trkpt lat="45.58376" lon="6.57242">
        <ele>2464.6135</ele>
        <time>2020-01-27 14:26:37</time>
      </trkpt>
      <trkpt lat="45.58374" lon="6.57242">
        <ele>2463.7112</ele>
        <time>2020-01-27 14:26:38</time>
      </trkpt>
      <trkpt lat="45.58371" lon="6.57243">
        <ele>2463.914</ele>
        <time>2020-01-27 14:26:39</time>
      </trkpt>
      <trkpt lat="45.58369" lon="6.57243">
        <ele>2462.7388</ele>
        <time>2020-01-27 14:26:40</time>
      </trkpt>
      <trkpt lat="45.58364" lon="6.57245">
        <ele>2459.6055</ele>
        <time>2020-01-27 14:26:42</time>
      </trkpt>
      <trkpt lat="45.58361" lon="6.57245">
        <ele>2458.4197</ele>
        <time>2020-01-27 14:26:43</time>
      </trkpt>
      <trkpt lat="45.58358" lon="6.57247">
        <ele>2457.72</ele>
        <time>2020-01-27 14:26:44</time>
      </trkpt>
      <trkpt lat="45.58357" lon="6.5725">
        <ele>2456.8923</ele>
        <time>2020-01-27 14:26:45</time>
      </trkpt>
      <trkpt lat="45.58356" lon="6.57253">
        <ele>2456.145</ele>
        <time>2020-01-27 14:26:47</time>
      </trkpt>
      <trkpt lat="45.58356" lon="6.57252">
        <ele>2456.818</ele>
        <time>2020-01-27 14:26:48</time>
      </trkpt>
      <trkpt lat="45.58356" lon="6.57251">
        <ele>2456.7778</ele>
        <time>2020-01-27 14:26:54</time>
      </trkpt>
      <trkpt lat="45.58353" lon="6.57251">
        <ele>2453.8389</ele>
        <time>2020-01-27 14:26:57</time>
      </trkpt>
      <trkpt lat="45.58351" lon="6.57253">
        <ele>2453.6594</ele>
        <time>2020-01-27 14:26:59</time>
      </trkpt>
      <trkpt lat="45.58352" lon="6.57256">
        <ele>2453.0261</ele>
        <time>2020-01-27 14:27:01</time>
      </trkpt>
      <trkpt lat="45.58354" lon="6.57259">
        <ele>2452.1375</ele>
        <time>2020-01-27 14:27:03</time>
      </trkpt>
      <trkpt lat="45.58354" lon="6.57263">
        <ele>2449.7842</ele>
        <time>2020-01-27 14:27:04</time>
      </trkpt>
      <trkpt lat="45.58352" lon="6.57266">
        <ele>2447.9128</ele>
        <time>2020-01-27 14:27:05</time>
      </trkpt>
      <trkpt lat="45.58348" lon="6.57267">
        <ele>2446.8792</ele>
        <time>2020-01-27 14:27:06</time>
      </trkpt>
      <trkpt lat="45.58337" lon="6.57263">
        <ele>2444.5117</ele>
        <time>2020-01-27 14:27:09</time>
      </trkpt>
      <trkpt lat="45.58331" lon="6.57259">
        <ele>2442.6252</ele>
        <time>2020-01-27 14:27:12</time>
      </trkpt>
      <trkpt lat="45.58327" lon="6.57258">
        <ele>2442.543</ele>
        <time>2020-01-27 14:27:14</time>
      </trkpt>
      <trkpt lat="45.58325" lon="6.5726">
        <ele>2441.4893</ele>
        <time>2020-01-27 14:27:15</time>
      </trkpt>
      <trkpt lat="45.58325" lon="6.57263">
        <ele>2440.6003</ele>
        <time>2020-01-27 14:27:16</time>
      </trkpt>
      <trkpt lat="45.58324" lon="6.57266">
        <ele>2439.4946</ele>
        <time>2020-01-27 14:27:17</time>
      </trkpt>
      <trkpt lat="45.58321" lon="6.57271">
        <ele>2438.265</ele>
        <time>2020-01-27 14:27:19</time>
      </trkpt>
      <trkpt lat="45.58318" lon="6.57271">
        <ele>2436.9453</ele>
        <time>2020-01-27 14:27:20</time>
      </trkpt>
      <trkpt lat="45.58316" lon="6.57273">
        <ele>2435.8113</ele>
        <time>2020-01-27 14:27:21</time>
      </trkpt>
      <trkpt lat="45.58316" lon="6.57275">
        <ele>2434.3208</ele>
        <time>2020-01-27 14:27:22</time>
      </trkpt>
      <trkpt lat="45.58316" lon="6.57278">
        <ele>2432.9707</ele>
        <time>2020-01-27 14:27:23</time>
      </trkpt>
      <trkpt lat="45.58312" lon="6.57282">
        <ele>2432.0588</ele>
        <time>2020-01-27 14:27:25</time>
      </trkpt>
      <trkpt lat="45.58309" lon="6.57282">
        <ele>2431.7007</ele>
        <time>2020-01-27 14:27:26</time>
      </trkpt>
      <trkpt lat="45.58295" lon="6.57282">
        <ele>2429.0442</ele>
        <time>2020-01-27 14:27:29</time>
      </trkpt>
      <trkpt lat="45.58285" lon="6.57286">
        <ele>2429.308</ele>
        <time>2020-01-27 14:27:31</time>
      </trkpt>
      <trkpt lat="45.58275" lon="6.57293">
        <ele>2428.0305</ele>
        <time>2020-01-27 14:27:34</time>
      </trkpt>
      <trkpt lat="45.58271" lon="6.57296">
        <ele>2429.215</ele>
        <time>2020-01-27 14:27:36</time>
      </trkpt>
      <trkpt lat="45.58268" lon="6.57302">
        <ele>2427.9622</ele>
        <time>2020-01-27 14:27:39</time>
      </trkpt>
      <trkpt lat="45.58269" lon="6.57306">
        <ele>2426.4753</ele>
        <time>2020-01-27 14:27:40</time>
      </trkpt>
      <trkpt lat="45.58272" lon="6.57307">
        <ele>2424.9985</ele>
        <time>2020-01-27 14:27:41</time>
      </trkpt>
      <trkpt lat="45.58275" lon="6.5731">
        <ele>2422.8481</ele>
        <time>2020-01-27 14:27:42</time>
      </trkpt>
      <trkpt lat="45.58276" lon="6.57314">
        <ele>2421.6404</ele>
        <time>2020-01-27 14:27:43</time>
      </trkpt>
      <trkpt lat="45.58275" lon="6.57319">
        <ele>2421.2034</ele>
        <time>2020-01-27 14:27:44</time>
      </trkpt>
      <trkpt lat="45.58274" lon="6.57324">
        <ele>2421.5552</ele>
        <time>2020-01-27 14:27:45</time>
      </trkpt>
      <trkpt lat="45.58261" lon="6.57335">
        <ele>2418.6257</ele>
        <time>2020-01-27 14:27:50</time>
      </trkpt>
      <trkpt lat="45.58261" lon="6.57338">
        <ele>2417.8833</ele>
        <time>2020-01-27 14:27:51</time>
      </trkpt>
      <trkpt lat="45.58262" lon="6.57342">
        <ele>2416.3152</ele>
        <time>2020-01-27 14:27:52</time>
      </trkpt>
      <trkpt lat="45.58263" lon="6.57346">
        <ele>2415.2505</ele>
        <time>2020-01-27 14:27:53</time>
      </trkpt>
      <trkpt lat="45.58263" lon="6.57349">
        <ele>2414.3665</ele>
        <time>2020-01-27 14:27:54</time>
      </trkpt>
      <trkpt lat="45.58257" lon="6.57356">
        <ele>2414.6287</ele>
        <time>2020-01-27 14:27:56</time>
      </trkpt>
      <trkpt lat="45.58248" lon="6.5736">
        <ele>2413.2383</ele>
        <time>2020-01-27 14:27:59</time>
      </trkpt>
      <trkpt lat="45.58235" lon="6.57367">
        <ele>2411.3428</ele>
        <time>2020-01-27 14:28:04</time>
      </trkpt>
      <trkpt lat="45.58235" lon="6.57369">
        <ele>2411.8105</ele>
        <time>2020-01-27 14:28:05</time>
      </trkpt>
      <trkpt lat="45.58239" lon="6.57373">
        <ele>2411.0784</ele>
        <time>2020-01-27 14:28:07</time>
      </trkpt>
      <trkpt lat="45.5824" lon="6.57375">
        <ele>2411.5898</ele>
        <time>2020-01-27 14:28:08</time>
      </trkpt>
      <trkpt lat="45.5824" lon="6.57378">
        <ele>2411.0332</ele>
        <time>2020-01-27 14:28:09</time>
      </trkpt>
      <trkpt lat="45.58236" lon="6.57382">
        <ele>2409.8477</ele>
        <time>2020-01-27 14:28:11</time>
      </trkpt>
      <trkpt lat="45.58225" lon="6.57388">
        <ele>2407.1936</ele>
        <time>2020-01-27 14:28:15</time>
      </trkpt>
      <trkpt lat="45.5822" lon="6.57392">
        <ele>2406.1772</ele>
        <time>2020-01-27 14:28:17</time>
      </trkpt>
      <trkpt lat="45.5822" lon="6.57395">
        <ele>2404.7468</ele>
        <time>2020-01-27 14:28:18</time>
      </trkpt>
      <trkpt lat="45.58223" lon="6.57401">
        <ele>2404.1545</ele>
        <time>2020-01-27 14:28:20</time>
      </trkpt>
      <trkpt lat="45.58224" lon="6.57404">
        <ele>2402.8647</ele>
        <time>2020-01-27 14:28:21</time>
      </trkpt>
      <trkpt lat="45.58223" lon="6.57408">
        <ele>2402.2336</ele>
        <time>2020-01-27 14:28:22</time>
      </trkpt>
      <trkpt lat="45.58211" lon="6.57413">
        <ele>2399.6013</ele>
        <time>2020-01-27 14:28:25</time>
      </trkpt>
      <trkpt lat="45.58203" lon="6.57414">
        <ele>2399.0417</ele>
        <time>2020-01-27 14:28:27</time>
      </trkpt>
      <trkpt lat="45.58185" lon="6.57413">
        <ele>2396.1426</ele>
        <time>2020-01-27 14:28:32</time>
      </trkpt>
      <trkpt lat="45.58179" lon="6.57412">
        <ele>2394.8047</ele>
        <time>2020-01-27 14:28:34</time>
      </trkpt>
      <trkpt lat="45.58151" lon="6.57412">
        <ele>2392.209</ele>
        <time>2020-01-27 14:28:42</time>
      </trkpt>
      <trkpt lat="45.58149" lon="6.57415">
        <ele>2391.3962</ele>
        <time>2020-01-27 14:28:43</time>
      </trkpt>
      <trkpt lat="45.58149" lon="6.57419">
        <ele>2390.5894</ele>
        <time>2020-01-27 14:28:44</time>
      </trkpt>
      <trkpt lat="45.58149" lon="6.57423">
        <ele>2390.2705</ele>
        <time>2020-01-27 14:28:45</time>
      </trkpt>
      <trkpt lat="45.58147" lon="6.57422">
        <ele>2391.3875</ele>
        <time>2020-01-27 14:28:49</time>
      </trkpt>
      <trkpt lat="45.58149" lon="6.57421">
        <ele>2392.3928</ele>
        <time>2020-01-27 14:28:54</time>
      </trkpt>
      <trkpt lat="45.58148" lon="6.5742">
        <ele>2392.3906</ele>
        <time>2020-01-27 14:28:55</time>
      </trkpt>
      <trkpt lat="45.58146" lon="6.5742">
        <ele>2391.9478</ele>
        <time>2020-01-27 14:28:57</time>
      </trkpt>
      <trkpt lat="45.58144" lon="6.57421">
        <ele>2391.4087</ele>
        <time>2020-01-27 14:28:58</time>
      </trkpt>
      <trkpt lat="45.58142" lon="6.57424">
        <ele>2389.9133</ele>
        <time>2020-01-27 14:28:59</time>
      </trkpt>
      <trkpt lat="45.5814" lon="6.57428">
        <ele>2388.461</ele>
        <time>2020-01-27 14:29:00</time>
      </trkpt>
      <trkpt lat="45.58138" lon="6.5743">
        <ele>2387.407</ele>
        <time>2020-01-27 14:29:01</time>
      </trkpt>
      <trkpt lat="45.58134" lon="6.57431">
        <ele>2387.5002</ele>
        <time>2020-01-27 14:29:02</time>
      </trkpt>
      <trkpt lat="45.58129" lon="6.57434">
        <ele>2385.8765</ele>
        <time>2020-01-27 14:29:04</time>
      </trkpt>
      <trkpt lat="45.58125" lon="6.5744">
        <ele>2383.8635</ele>
        <time>2020-01-27 14:29:06</time>
      </trkpt>
      <trkpt lat="45.58122" lon="6.5744">
        <ele>2381.79</ele>
        <time>2020-01-27 14:29:07</time>
      </trkpt>
      <trkpt lat="45.58119" lon="6.57437">
        <ele>2380.7795</ele>
        <time>2020-01-27 14:29:08</time>
      </trkpt>
      <trkpt lat="45.58116" lon="6.57434">
        <ele>2379.606</ele>
        <time>2020-01-27 14:29:09</time>
      </trkpt>
      <trkpt lat="45.58112" lon="6.57436">
        <ele>2376.5198</ele>
        <time>2020-01-27 14:29:11</time>
      </trkpt>
      <trkpt lat="45.58112" lon="6.57443">
        <ele>2375.0962</ele>
        <time>2020-01-27 14:29:13</time>
      </trkpt>
      <trkpt lat="45.58111" lon="6.57446">
        <ele>2375.6694</ele>
        <time>2020-01-27 14:29:14</time>
      </trkpt>
      <trkpt lat="45.58109" lon="6.57447">
        <ele>2374.9238</ele>
        <time>2020-01-27 14:29:15</time>
      </trkpt>
      <trkpt lat="45.58106" lon="6.57447">
        <ele>2373.5767</ele>
        <time>2020-01-27 14:29:16</time>
      </trkpt>
      <trkpt lat="45.581" lon="6.5745">
        <ele>2371.822</ele>
        <time>2020-01-27 14:29:18</time>
      </trkpt>
      <trkpt lat="45.58097" lon="6.57451">
        <ele>2371.89</ele>
        <time>2020-01-27 14:29:19</time>
      </trkpt>
      <trkpt lat="45.58088" lon="6.57452">
        <ele>2369.5867</ele>
        <time>2020-01-27 14:29:22</time>
      </trkpt>
      <trkpt lat="45.58085" lon="6.5745">
        <ele>2368.1736</ele>
        <time>2020-01-27 14:29:23</time>
      </trkpt>
      <trkpt lat="45.58077" lon="6.57441">
        <ele>2365.2507</ele>
        <time>2020-01-27 14:29:25</time>
      </trkpt>
      <trkpt lat="45.58073" lon="6.57443">
        <ele>2363.463</ele>
        <time>2020-01-27 14:29:26</time>
      </trkpt>
      <trkpt lat="45.5807" lon="6.57441">
        <ele>2363.0195</ele>
        <time>2020-01-27 14:29:27</time>
      </trkpt>
      <trkpt lat="45.58066" lon="6.57442">
        <ele>2361.9617</ele>
        <time>2020-01-27 14:29:28</time>
      </trkpt>
      <trkpt lat="45.58063" lon="6.57446">
        <ele>2360.3413</ele>
        <time>2020-01-27 14:29:29</time>
      </trkpt>
      <trkpt lat="45.58058" lon="6.57447">
        <ele>2358.722</ele>
        <time>2020-01-27 14:29:30</time>
      </trkpt>
      <trkpt lat="45.58054" lon="6.57448">
        <ele>2356.3035</ele>
        <time>2020-01-27 14:29:31</time>
      </trkpt>
      <trkpt lat="45.5805" lon="6.57452">
        <ele>2355.2268</ele>
        <time>2020-01-27 14:29:32</time>
      </trkpt>
      <trkpt lat="45.58045" lon="6.57453">
        <ele>2354.047</ele>
        <time>2020-01-27 14:29:33</time>
      </trkpt>
      <trkpt lat="45.58012" lon="6.57454">
        <ele>2349.3281</ele>
        <time>2020-01-27 14:29:39</time>
      </trkpt>
      <trkpt lat="45.57994" lon="6.57457">
        <ele>2346.0762</ele>
        <time>2020-01-27 14:29:42</time>
      </trkpt>
      <trkpt lat="45.57989" lon="6.57456">
        <ele>2344.8083</ele>
        <time>2020-01-27 14:29:43</time>
      </trkpt>
      <trkpt lat="45.57984" lon="6.57455">
        <ele>2344.205</ele>
        <time>2020-01-27 14:29:44</time>
      </trkpt>
      <trkpt lat="45.5798" lon="6.57453">
        <ele>2343.7651</ele>
        <time>2020-01-27 14:29:45</time>
      </trkpt>
      <trkpt lat="45.5797" lon="6.5745">
        <ele>2342.9124</ele>
        <time>2020-01-27 14:29:47</time>
      </trkpt>
      <trkpt lat="45.5796" lon="6.57446">
        <ele>2340.0889</ele>
        <time>2020-01-27 14:29:50</time>
      </trkpt>
      <trkpt lat="45.57953" lon="6.57446">
        <ele>2337.9458</ele>
        <time>2020-01-27 14:29:54</time>
      </trkpt>
      <trkpt lat="45.57953" lon="6.57446">
        <ele>2336.542</ele>
        <time>2020-01-27 14:29:58</time>
      </trkpt>
      <trkpt lat="45.57946" lon="6.5745">
        <ele>2334.1533</ele>
        <time>2020-01-27 14:30:02</time>
      </trkpt>
      <trkpt lat="45.57947" lon="6.57454">
        <ele>2333.4915</ele>
        <time>2020-01-27 14:30:03</time>
      </trkpt>
      <trkpt lat="45.57949" lon="6.57459">
        <ele>2332.4065</ele>
        <time>2020-01-27 14:30:04</time>
      </trkpt>
      <trkpt lat="45.5795" lon="6.57465">
        <ele>2329.8188</ele>
        <time>2020-01-27 14:30:05</time>
      </trkpt>
      <trkpt lat="45.57949" lon="6.57471">
        <ele>2329.7053</ele>
        <time>2020-01-27 14:30:06</time>
      </trkpt>
      <trkpt lat="45.57948" lon="6.57475">
        <ele>2329.4756</ele>
        <time>2020-01-27 14:30:07</time>
      </trkpt>
      <trkpt lat="45.57946" lon="6.57474">
        <ele>2328.0315</ele>
        <time>2020-01-27 14:30:08</time>
      </trkpt>
      <trkpt lat="45.57945" lon="6.57471">
        <ele>2327.7258</ele>
        <time>2020-01-27 14:30:20</time>
      </trkpt>
      <trkpt lat="45.57944" lon="6.57472">
        <ele>2326.6855</ele>
        <time>2020-01-27 14:30:22</time>
      </trkpt>
      <trkpt lat="45.57945" lon="6.57472">
        <ele>2327.4583</ele>
        <time>2020-01-27 14:30:25</time>
      </trkpt>
      <trkpt lat="45.57944" lon="6.57472">
        <ele>2326.5938</ele>
        <time>2020-01-27 14:30:27</time>
      </trkpt>
      <trkpt lat="45.57944" lon="6.57473">
        <ele>2327.6948</ele>
        <time>2020-01-27 14:30:36</time>
      </trkpt>
      <trkpt lat="45.57944" lon="6.57474">
        <ele>2326.6626</ele>
        <time>2020-01-27 14:30:37</time>
      </trkpt>
      <trkpt lat="45.57944" lon="6.57477">
        <ele>2325.7793</ele>
        <time>2020-01-27 14:30:38</time>
      </trkpt>
      <trkpt lat="45.57944" lon="6.57493">
        <ele>2323.6516</ele>
        <time>2020-01-27 14:30:41</time>
      </trkpt>
      <trkpt lat="45.57944" lon="6.57505">
        <ele>2323.6482</ele>
        <time>2020-01-27 14:30:46</time>
      </trkpt>
      <trkpt lat="45.57943" lon="6.57507">
        <ele>2323.391</ele>
        <time>2020-01-27 14:30:47</time>
      </trkpt>
      <trkpt lat="45.57941" lon="6.57512">
        <ele>2323.672</ele>
        <time>2020-01-27 14:30:49</time>
      </trkpt>
      <trkpt lat="45.57938" lon="6.5752">
        <ele>2322.3894</ele>
        <time>2020-01-27 14:30:52</time>
      </trkpt>
      <trkpt lat="45.57937" lon="6.57523">
        <ele>2322.2795</ele>
        <time>2020-01-27 14:30:53</time>
      </trkpt>
      <trkpt lat="45.57934" lon="6.57529">
        <ele>2323.816</ele>
        <time>2020-01-27 14:30:57</time>
      </trkpt>
      <trkpt lat="45.57934" lon="6.57529">
        <ele>2324.4043</ele>
        <time>2020-01-27 14:30:58</time>
      </trkpt>
      <trkpt lat="45.57933" lon="6.57528">
        <ele>2322.1184</ele>
        <time>2020-01-27 14:31:00</time>
      </trkpt>
      <trkpt lat="45.57933" lon="6.57528">
        <ele>2320.6316</ele>
        <time>2020-01-27 14:31:11</time>
      </trkpt>
      <trkpt lat="45.57933" lon="6.57527">
        <ele>2318.4165</ele>
        <time>2020-01-27 14:31:12</time>
      </trkpt>
      <trkpt lat="45.57931" lon="6.57526">
        <ele>2317.6614</ele>
        <time>2020-01-27 14:31:13</time>
      </trkpt>
      <trkpt lat="45.57929" lon="6.57522">
        <ele>2317.7634</ele>
        <time>2020-01-27 14:31:14</time>
      </trkpt>
      <trkpt lat="45.57926" lon="6.57506">
        <ele>2315.7078</ele>
        <time>2020-01-27 14:31:16</time>
      </trkpt>
      <trkpt lat="45.57922" lon="6.57499">
        <ele>2314.8013</ele>
        <time>2020-01-27 14:31:17</time>
      </trkpt>
      <trkpt lat="45.57916" lon="6.57494">
        <ele>2312.7756</ele>
        <time>2020-01-27 14:31:18</time>
      </trkpt>
      <trkpt lat="45.5791" lon="6.57491">
        <ele>2312.5422</ele>
        <time>2020-01-27 14:31:19</time>
      </trkpt>
      <trkpt lat="45.579" lon="6.57489">
        <ele>2309.3428</ele>
        <time>2020-01-27 14:31:21</time>
      </trkpt>
      <trkpt lat="45.57881" lon="6.57484">
        <ele>2310.0066</ele>
        <time>2020-01-27 14:31:26</time>
      </trkpt>
      <trkpt lat="45.57879" lon="6.57485">
        <ele>2309.0781</ele>
        <time>2020-01-27 14:31:27</time>
      </trkpt>
      <trkpt lat="45.57879" lon="6.5749">
        <ele>2307.187</ele>
        <time>2020-01-27 14:31:28</time>
      </trkpt>
      <trkpt lat="45.57878" lon="6.57495">
        <ele>2305.8057</ele>
        <time>2020-01-27 14:31:29</time>
      </trkpt>
      <trkpt lat="45.57874" lon="6.57498">
        <ele>2304.928</ele>
        <time>2020-01-27 14:31:30</time>
      </trkpt>
      <trkpt lat="45.5787" lon="6.575">
        <ele>2304.8054</ele>
        <time>2020-01-27 14:31:31</time>
      </trkpt>
      <trkpt lat="45.57862" lon="6.57503">
        <ele>2304.7847</ele>
        <time>2020-01-27 14:31:33</time>
      </trkpt>
      <trkpt lat="45.57846" lon="6.57506">
        <ele>2302.751</ele>
        <time>2020-01-27 14:31:37</time>
      </trkpt>
      <trkpt lat="45.57827" lon="6.57507">
        <ele>2300.7507</ele>
        <time>2020-01-27 14:31:42</time>
      </trkpt>
      <trkpt lat="45.57822" lon="6.57506">
        <ele>2300.2815</ele>
        <time>2020-01-27 14:31:44</time>
      </trkpt>
      <trkpt lat="45.57822" lon="6.57506">
        <ele>2300.2512</ele>
        <time>2020-01-27 14:31:45</time>
      </trkpt>
      <trkpt lat="45.57823" lon="6.57508">
        <ele>2300.2004</ele>
        <time>2020-01-27 14:32:17</time>
      </trkpt>
      <trkpt lat="45.57823" lon="6.57508">
        <ele>2300.2305</ele>
        <time>2020-01-27 14:32:48</time>
      </trkpt>
      <trkpt lat="45.57821" lon="6.57508">
        <ele>2301.892</ele>
        <time>2020-01-27 14:32:51</time>
      </trkpt>
      <trkpt lat="45.57818" lon="6.57507">
        <ele>2302.8806</ele>
        <time>2020-01-27 14:32:54</time>
      </trkpt>
      <trkpt lat="45.57815" lon="6.57507">
        <ele>2304.2246</ele>
        <time>2020-01-27 14:32:57</time>
      </trkpt>
      <trkpt lat="45.57811" lon="6.57509">
        <ele>2304.0146</ele>
        <time>2020-01-27 14:33:00</time>
      </trkpt>
      <trkpt lat="45.57809" lon="6.57511">
        <ele>2303.8718</ele>
        <time>2020-01-27 14:33:02</time>
      </trkpt>
      <trkpt lat="45.57806" lon="6.57515">
        <ele>2302.1787</ele>
        <time>2020-01-27 14:33:05</time>
      </trkpt>
      <trkpt lat="45.57802" lon="6.5752">
        <ele>2301.6562</ele>
        <time>2020-01-27 14:33:07</time>
      </trkpt>
      <trkpt lat="45.57801" lon="6.57523">
        <ele>2301.851</ele>
        <time>2020-01-27 14:33:08</time>
      </trkpt>
      <trkpt lat="45.57801" lon="6.57531">
        <ele>2300.6948</ele>
        <time>2020-01-27 14:33:10</time>
      </trkpt>
      <trkpt lat="45.578" lon="6.57535">
        <ele>2299.323</ele>
        <time>2020-01-27 14:33:11</time>
      </trkpt>
      <trkpt lat="45.57798" lon="6.57539">
        <ele>2298.913</ele>
        <time>2020-01-27 14:33:12</time>
      </trkpt>
      <trkpt lat="45.57796" lon="6.57544">
        <ele>2297.5066</ele>
        <time>2020-01-27 14:33:13</time>
      </trkpt>
      <trkpt lat="45.57793" lon="6.57547">
        <ele>2295.6113</ele>
        <time>2020-01-27 14:33:14</time>
      </trkpt>
      <trkpt lat="45.57789" lon="6.5755">
        <ele>2294.1992</ele>
        <time>2020-01-27 14:33:15</time>
      </trkpt>
      <trkpt lat="45.57784" lon="6.57551">
        <ele>2293.6438</ele>
        <time>2020-01-27 14:33:16</time>
      </trkpt>
      <trkpt lat="45.5778" lon="6.57555">
        <ele>2293.0383</ele>
        <time>2020-01-27 14:33:17</time>
      </trkpt>
      <trkpt lat="45.57778" lon="6.57556">
        <ele>2293.8213</ele>
        <time>2020-01-27 14:33:18</time>
      </trkpt>
      <trkpt lat="45.57775" lon="6.57558">
        <ele>2293.9673</ele>
        <time>2020-01-27 14:33:19</time>
      </trkpt>
      <trkpt lat="45.57767" lon="6.57561">
        <ele>2291.787</ele>
        <time>2020-01-27 14:33:22</time>
      </trkpt>
      <trkpt lat="45.57765" lon="6.57561">
        <ele>2292.0762</ele>
        <time>2020-01-27 14:33:23</time>
      </trkpt>
      <trkpt lat="45.57743" lon="6.57552">
        <ele>2284.2932</ele>
        <time>2020-01-27 14:33:31</time>
      </trkpt>
      <trkpt lat="45.5774" lon="6.57554">
        <ele>2282.7954</ele>
        <time>2020-01-27 14:33:32</time>
      </trkpt>
      <trkpt lat="45.57733" lon="6.5756">
        <ele>2281.7427</ele>
        <time>2020-01-27 14:33:34</time>
      </trkpt>
      <trkpt lat="45.57727" lon="6.57565">
        <ele>2279.9685</ele>
        <time>2020-01-27 14:33:36</time>
      </trkpt>
      <trkpt lat="45.57725" lon="6.5757">
        <ele>2279.2898</ele>
        <time>2020-01-27 14:33:37</time>
      </trkpt>
      <trkpt lat="45.57722" lon="6.57579">
        <ele>2278.7012</ele>
        <time>2020-01-27 14:33:39</time>
      </trkpt>
      <trkpt lat="45.57711" lon="6.57587">
        <ele>2277.8394</ele>
        <time>2020-01-27 14:33:43</time>
      </trkpt>
      <trkpt lat="45.57711" lon="6.57592">
        <ele>2278.0176</ele>
        <time>2020-01-27 14:33:44</time>
      </trkpt>
      <trkpt lat="45.57707" lon="6.57599">
        <ele>2274.615</ele>
        <time>2020-01-27 14:33:46</time>
      </trkpt>
      <trkpt lat="45.57705" lon="6.576">
        <ele>2273.961</ele>
        <time>2020-01-27 14:33:47</time>
      </trkpt>
      <trkpt lat="45.57698" lon="6.57609">
        <ele>2269.9844</ele>
        <time>2020-01-27 14:33:50</time>
      </trkpt>
      <trkpt lat="45.57699" lon="6.57615">
        <ele>2269.2747</ele>
        <time>2020-01-27 14:33:51</time>
      </trkpt>
      <trkpt lat="45.57698" lon="6.5762">
        <ele>2269.1438</ele>
        <time>2020-01-27 14:33:52</time>
      </trkpt>
      <trkpt lat="45.57696" lon="6.57622">
        <ele>2268.0203</ele>
        <time>2020-01-27 14:33:53</time>
      </trkpt>
      <trkpt lat="45.57693" lon="6.57622">
        <ele>2268.0723</ele>
        <time>2020-01-27 14:33:54</time>
      </trkpt>
      <trkpt lat="45.5769" lon="6.57622">
        <ele>2267.8738</ele>
        <time>2020-01-27 14:33:55</time>
      </trkpt>
      <trkpt lat="45.57683" lon="6.57621">
        <ele>2265.353</ele>
        <time>2020-01-27 14:33:57</time>
      </trkpt>
      <trkpt lat="45.57673" lon="6.57617">
        <ele>2263.721</ele>
        <time>2020-01-27 14:34:00</time>
      </trkpt>
      <trkpt lat="45.57667" lon="6.57615">
        <ele>2262.205</ele>
        <time>2020-01-27 14:34:02</time>
      </trkpt>
      <trkpt lat="45.57664" lon="6.57616">
        <ele>2262.0044</ele>
        <time>2020-01-27 14:34:03</time>
      </trkpt>
      <trkpt lat="45.57658" lon="6.57617">
        <ele>2261.1335</ele>
        <time>2020-01-27 14:34:05</time>
      </trkpt>
      <trkpt lat="45.57655" lon="6.57617">
        <ele>2259.0847</ele>
        <time>2020-01-27 14:34:06</time>
      </trkpt>
      <trkpt lat="45.57646" lon="6.57625">
        <ele>2257.28</ele>
        <time>2020-01-27 14:34:09</time>
      </trkpt>
      <trkpt lat="45.57645" lon="6.57629">
        <ele>2256.7998</ele>
        <time>2020-01-27 14:34:10</time>
      </trkpt>
      <trkpt lat="45.57644" lon="6.57634">
        <ele>2256.4722</ele>
        <time>2020-01-27 14:34:11</time>
      </trkpt>
      <trkpt lat="45.57643" lon="6.57637">
        <ele>2255.8096</ele>
        <time>2020-01-27 14:34:12</time>
      </trkpt>
      <trkpt lat="45.57639" lon="6.57644">
        <ele>2255.6658</ele>
        <time>2020-01-27 14:34:14</time>
      </trkpt>
      <trkpt lat="45.57632" lon="6.57655">
        <ele>2252.258</ele>
        <time>2020-01-27 14:34:17</time>
      </trkpt>
      <trkpt lat="45.5763" lon="6.57659">
        <ele>2251.7659</ele>
        <time>2020-01-27 14:34:18</time>
      </trkpt>
      <trkpt lat="45.57628" lon="6.57671">
        <ele>2253.592</ele>
        <time>2020-01-27 14:34:22</time>
      </trkpt>
      <trkpt lat="45.57629" lon="6.57671">
        <ele>2253.8003</ele>
        <time>2020-01-27 14:34:23</time>
      </trkpt>
      <trkpt lat="45.5763" lon="6.57671">
        <ele>2256.0876</ele>
        <time>2020-01-27 14:34:25</time>
      </trkpt>
      <trkpt lat="45.5763" lon="6.57672">
        <ele>2255.8862</ele>
        <time>2020-01-27 14:34:26</time>
      </trkpt>
      <trkpt lat="45.57628" lon="6.57675">
        <ele>2255.0532</ele>
        <time>2020-01-27 14:34:28</time>
      </trkpt>
      <trkpt lat="45.57621" lon="6.57694">
        <ele>2251.6765</ele>
        <time>2020-01-27 14:34:33</time>
      </trkpt>
      <trkpt lat="45.57621" lon="6.57698">
        <ele>2250.9163</ele>
        <time>2020-01-27 14:34:34</time>
      </trkpt>
      <trkpt lat="45.57621" lon="6.57705">
        <ele>2249.247</ele>
        <time>2020-01-27 14:34:36</time>
      </trkpt>
      <trkpt lat="45.57621" lon="6.57708">
        <ele>2248.8413</ele>
        <time>2020-01-27 14:34:37</time>
      </trkpt>
      <trkpt lat="45.57619" lon="6.5771">
        <ele>2248.8735</ele>
        <time>2020-01-27 14:34:38</time>
      </trkpt>
      <trkpt lat="45.57617" lon="6.57711">
        <ele>2248.5332</ele>
        <time>2020-01-27 14:34:39</time>
      </trkpt>
      <trkpt lat="45.57614" lon="6.57711">
        <ele>2248.003</ele>
        <time>2020-01-27 14:34:40</time>
      </trkpt>
      <trkpt lat="45.57612" lon="6.57709">
        <ele>2248.0593</ele>
        <time>2020-01-27 14:34:41</time>
      </trkpt>
      <trkpt lat="45.57609" lon="6.57705">
        <ele>2249.2117</ele>
        <time>2020-01-27 14:34:43</time>
      </trkpt>
      <trkpt lat="45.57608" lon="6.57701">
        <ele>2248.412</ele>
        <time>2020-01-27 14:34:45</time>
      </trkpt>
      <trkpt lat="45.57604" lon="6.57696">
        <ele>2247.6694</ele>
        <time>2020-01-27 14:34:47</time>
      </trkpt>
      <trkpt lat="45.57598" lon="6.57685">
        <ele>2246.0872</ele>
        <time>2020-01-27 14:34:51</time>
      </trkpt>
      <trkpt lat="45.57596" lon="6.5768">
        <ele>2241.4824</ele>
        <time>2020-01-27 14:34:53</time>
      </trkpt>
      <trkpt lat="45.57594" lon="6.57679">
        <ele>2237.703</ele>
        <time>2020-01-27 14:34:54</time>
      </trkpt>
      <trkpt lat="45.57592" lon="6.57681">
        <ele>2237.534</ele>
        <time>2020-01-27 14:34:55</time>
      </trkpt>
      <trkpt lat="45.57591" lon="6.57684">
        <ele>2237.5825</ele>
        <time>2020-01-27 14:34:56</time>
      </trkpt>
      <trkpt lat="45.57589" lon="6.57703">
        <ele>2239.214</ele>
        <time>2020-01-27 14:35:01</time>
      </trkpt>
      <trkpt lat="45.57589" lon="6.57711">
        <ele>2239.7427</ele>
        <time>2020-01-27 14:35:05</time>
      </trkpt>
      <trkpt lat="45.57588" lon="6.57712">
        <ele>2238.6223</ele>
        <time>2020-01-27 14:35:06</time>
      </trkpt>
      <trkpt lat="45.57587" lon="6.57712">
        <ele>2238.6868</ele>
        <time>2020-01-27 14:35:07</time>
      </trkpt>
      <trkpt lat="45.57585" lon="6.57706">
        <ele>2237.404</ele>
        <time>2020-01-27 14:35:10</time>
      </trkpt>
      <trkpt lat="45.57587" lon="6.57702">
        <ele>2237.5486</ele>
        <time>2020-01-27 14:35:23</time>
      </trkpt>
      <trkpt lat="45.57587" lon="6.57703">
        <ele>2237.493</ele>
        <time>2020-01-27 14:35:24</time>
      </trkpt>
      <trkpt lat="45.57587" lon="6.57703">
        <ele>2237.8447</ele>
        <time>2020-01-27 14:35:25</time>
      </trkpt>
      <trkpt lat="45.57586" lon="6.577">
        <ele>2234.5444</ele>
        <time>2020-01-27 14:35:28</time>
      </trkpt>
      <trkpt lat="45.57583" lon="6.57688">
        <ele>2233.3901</ele>
        <time>2020-01-27 14:35:35</time>
      </trkpt>
      <trkpt lat="45.57582" lon="6.57685">
        <ele>2233.5757</ele>
        <time>2020-01-27 14:35:36</time>
      </trkpt>
      <trkpt lat="45.57582" lon="6.57683">
        <ele>2234.3474</ele>
        <time>2020-01-27 14:35:37</time>
      </trkpt>
      <trkpt lat="45.57583" lon="6.57681">
        <ele>2234.2446</ele>
        <time>2020-01-27 14:35:40</time>
      </trkpt>
      <trkpt lat="45.57584" lon="6.57681">
        <ele>2235.7495</ele>
        <time>2020-01-27 14:35:45</time>
      </trkpt>
      <trkpt lat="45.57583" lon="6.57681">
        <ele>2236.189</ele>
        <time>2020-01-27 14:35:47</time>
      </trkpt>
      <trkpt lat="45.57583" lon="6.5768">
        <ele>2237.9912</ele>
        <time>2020-01-27 14:35:48</time>
      </trkpt>
      <trkpt lat="45.57581" lon="6.57678">
        <ele>2237.253</ele>
        <time>2020-01-27 14:35:50</time>
      </trkpt>
      <trkpt lat="45.57578" lon="6.57681">
        <ele>2232.974</ele>
        <time>2020-01-27 14:35:52</time>
      </trkpt>
      <trkpt lat="45.57575" lon="6.57692">
        <ele>2233.854</ele>
        <time>2020-01-27 14:35:55</time>
      </trkpt>
      <trkpt lat="45.57574" lon="6.57697">
        <ele>2234.6558</ele>
        <time>2020-01-27 14:35:57</time>
      </trkpt>
      <trkpt lat="45.57573" lon="6.57699">
        <ele>2234.8564</ele>
        <time>2020-01-27 14:35:58</time>
      </trkpt>
      <trkpt lat="45.57571" lon="6.57698">
        <ele>2233.9756</ele>
        <time>2020-01-27 14:35:59</time>
      </trkpt>
      <trkpt lat="45.57567" lon="6.5769">
        <ele>2233.857</ele>
        <time>2020-01-27 14:36:01</time>
      </trkpt>
      <trkpt lat="45.57567" lon="6.57686">
        <ele>2234.0657</ele>
        <time>2020-01-27 14:36:02</time>
      </trkpt>
      <trkpt lat="45.57567" lon="6.57681">
        <ele>2233.9631</ele>
        <time>2020-01-27 14:36:03</time>
      </trkpt>
      <trkpt lat="45.57567" lon="6.57674">
        <ele>2233.6772</ele>
        <time>2020-01-27 14:36:05</time>
      </trkpt>
      <trkpt lat="45.57568" lon="6.57668">
        <ele>2235.13</ele>
        <time>2020-01-27 14:36:08</time>
      </trkpt>
      <trkpt lat="45.57568" lon="6.57668">
        <ele>2234.6057</ele>
        <time>2020-01-27 14:36:10</time>
      </trkpt>
      <trkpt lat="45.57567" lon="6.57665">
        <ele>2234.4294</ele>
        <time>2020-01-27 14:36:12</time>
      </trkpt>
      <trkpt lat="45.57562" lon="6.57647">
        <ele>2231.719</ele>
        <time>2020-01-27 14:36:18</time>
      </trkpt>
      <trkpt lat="45.57558" lon="6.57639">
        <ele>2231.2427</ele>
        <time>2020-01-27 14:36:20</time>
      </trkpt>
      <trkpt lat="45.57556" lon="6.5763">
        <ele>2233.5757</ele>
        <time>2020-01-27 14:36:28</time>
      </trkpt>
      <trkpt lat="45.57552" lon="6.57632">
        <ele>2230.6912</ele>
        <time>2020-01-27 14:36:30</time>
      </trkpt>
      <trkpt lat="45.5755" lon="6.57635">
        <ele>2229.337</ele>
        <time>2020-01-27 14:36:31</time>
      </trkpt>
      <trkpt lat="45.57548" lon="6.5764">
        <ele>2227.9485</ele>
        <time>2020-01-27 14:36:32</time>
      </trkpt>
      <trkpt lat="45.57537" lon="6.57679">
        <ele>2223.76</ele>
        <time>2020-01-27 14:36:37</time>
      </trkpt>
      <trkpt lat="45.57539" lon="6.57686">
        <ele>2223.7058</ele>
        <time>2020-01-27 14:36:38</time>
      </trkpt>
      <trkpt lat="45.57538" lon="6.57687">
        <ele>2225.2556</ele>
        <time>2020-01-27 14:36:40</time>
      </trkpt>
      <trkpt lat="45.57538" lon="6.57687">
        <ele>2226.094</ele>
        <time>2020-01-27 14:36:41</time>
      </trkpt>
      <trkpt lat="45.57537" lon="6.57688">
        <ele>2223.1272</ele>
        <time>2020-01-27 14:36:42</time>
      </trkpt>
      <trkpt lat="45.57534" lon="6.57689">
        <ele>2221.766</ele>
        <time>2020-01-27 14:36:43</time>
      </trkpt>
      <trkpt lat="45.57517" lon="6.5768">
        <ele>2218.562</ele>
        <time>2020-01-27 14:36:46</time>
      </trkpt>
      <trkpt lat="45.57505" lon="6.5768">
        <ele>2218.5676</ele>
        <time>2020-01-27 14:36:48</time>
      </trkpt>
      <trkpt lat="45.57498" lon="6.57682">
        <ele>2217.058</ele>
        <time>2020-01-27 14:36:50</time>
      </trkpt>
      <trkpt lat="45.57482" lon="6.57685">
        <ele>2214.1333</ele>
        <time>2020-01-27 14:37:00</time>
      </trkpt>
      <trkpt lat="45.57478" lon="6.57685">
        <ele>2212.183</ele>
        <time>2020-01-27 14:37:03</time>
      </trkpt>
      <trkpt lat="45.57478" lon="6.57686">
        <ele>2211.5703</ele>
        <time>2020-01-27 14:37:04</time>
      </trkpt>
      <trkpt lat="45.57478" lon="6.57686">
        <ele>2212.329</ele>
        <time>2020-01-27 14:37:05</time>
      </trkpt>
      <trkpt lat="45.57477" lon="6.57685">
        <ele>2212.9712</ele>
        <time>2020-01-27 14:37:30</time>
      </trkpt>
      <trkpt lat="45.57477" lon="6.57685">
        <ele>2213.4434</ele>
        <time>2020-01-27 14:37:31</time>
      </trkpt>
      <trkpt lat="45.57478" lon="6.57685">
        <ele>2214.7356</ele>
        <time>2020-01-27 14:37:37</time>
      </trkpt>
      <trkpt lat="45.57478" lon="6.57686">
        <ele>2215.4658</ele>
        <time>2020-01-27 14:37:38</time>
      </trkpt>
      <trkpt lat="45.57477" lon="6.57685">
        <ele>2214.9224</ele>
        <time>2020-01-27 14:37:40</time>
      </trkpt>
      <trkpt lat="45.57471" lon="6.57685">
        <ele>2215.339</ele>
        <time>2020-01-27 14:37:45</time>
      </trkpt>
      <trkpt lat="45.57468" lon="6.57683">
        <ele>2215.635</ele>
        <time>2020-01-27 14:37:47</time>
      </trkpt>
      <trkpt lat="45.57466" lon="6.57683">
        <ele>2215.9868</ele>
        <time>2020-01-27 14:37:48</time>
      </trkpt>
      <trkpt lat="45.57454" lon="6.57676">
        <ele>2213.427</ele>
        <time>2020-01-27 14:37:53</time>
      </trkpt>
      <trkpt lat="45.57438" lon="6.57664">
        <ele>2210.6885</ele>
        <time>2020-01-27 14:38:00</time>
      </trkpt>
      <trkpt lat="45.57417" lon="6.57656">
        <ele>2203.7437</ele>
        <time>2020-01-27 14:38:07</time>
      </trkpt>
      <trkpt lat="45.57391" lon="6.57642">
        <ele>2199.1975</ele>
        <time>2020-01-27 14:38:13</time>
      </trkpt>
      <trkpt lat="45.57371" lon="6.57636">
        <ele>2196.1548</ele>
        <time>2020-01-27 14:38:17</time>
      </trkpt>
      <trkpt lat="45.57358" lon="6.57632">
        <ele>2195.036</ele>
        <time>2020-01-27 14:38:21</time>
      </trkpt>
      <trkpt lat="45.57354" lon="6.5763">
        <ele>2193.2092</ele>
        <time>2020-01-27 14:38:23</time>
      </trkpt>
      <trkpt lat="45.57346" lon="6.5763">
        <ele>2192.4575</ele>
        <time>2020-01-27 14:38:27</time>
      </trkpt>
      <trkpt lat="45.57341" lon="6.57627">
        <ele>2191.0298</ele>
        <time>2020-01-27 14:38:29</time>
      </trkpt>
      <trkpt lat="45.57339" lon="6.57626">
        <ele>2191.3555</ele>
        <time>2020-01-27 14:38:30</time>
      </trkpt>
      <trkpt lat="45.57338" lon="6.57624">
        <ele>2190.1587</ele>
        <time>2020-01-27 14:38:33</time>
      </trkpt>
      <trkpt lat="45.57338" lon="6.57623">
        <ele>2188.1057</ele>
        <time>2020-01-27 14:38:36</time>
      </trkpt>
      <trkpt lat="45.57336" lon="6.57621">
        <ele>2189.883</ele>
        <time>2020-01-27 14:38:41</time>
      </trkpt>
      <trkpt lat="45.57332" lon="6.57619">
        <ele>2189.3877</ele>
        <time>2020-01-27 14:38:44</time>
      </trkpt>
      <trkpt lat="45.57329" lon="6.57616">
        <ele>2190.5981</ele>
        <time>2020-01-27 14:38:46</time>
      </trkpt>
      <trkpt lat="45.57327" lon="6.57613">
        <ele>2191.0017</ele>
        <time>2020-01-27 14:38:48</time>
      </trkpt>
      <trkpt lat="45.57319" lon="6.57605">
        <ele>2191.6384</ele>
        <time>2020-01-27 14:38:55</time>
      </trkpt>
      <trkpt lat="45.57317" lon="6.57604">
        <ele>2190.6282</ele>
        <time>2020-01-27 14:38:56</time>
      </trkpt>
      <trkpt lat="45.57311" lon="6.57599">
        <ele>2188.1956</ele>
        <time>2020-01-27 14:38:59</time>
      </trkpt>
      <trkpt lat="45.57303" lon="6.57589">
        <ele>2186.8713</ele>
        <time>2020-01-27 14:39:03</time>
      </trkpt>
      <trkpt lat="45.573" lon="6.5759">
        <ele>2185.621</ele>
        <time>2020-01-27 14:39:04</time>
      </trkpt>
      <trkpt lat="45.57298" lon="6.576">
        <ele>2185.0657</ele>
        <time>2020-01-27 14:39:06</time>
      </trkpt>
      <trkpt lat="45.57298" lon="6.57607">
        <ele>2184.2275</ele>
        <time>2020-01-27 14:39:07</time>
      </trkpt>
      <trkpt lat="45.57299" lon="6.57617">
        <ele>2184.641</ele>
        <time>2020-01-27 14:39:09</time>
      </trkpt>
      <trkpt lat="45.57301" lon="6.57624">
        <ele>2183.1252</ele>
        <time>2020-01-27 14:39:12</time>
      </trkpt>
      <trkpt lat="45.57299" lon="6.57625">
        <ele>2184.1558</ele>
        <time>2020-01-27 14:39:13</time>
      </trkpt>
      <trkpt lat="45.57291" lon="6.57621">
        <ele>2180.8918</ele>
        <time>2020-01-27 14:39:16</time>
      </trkpt>
      <trkpt lat="45.5729" lon="6.57622">
        <ele>2180.6475</ele>
        <time>2020-01-27 14:39:17</time>
      </trkpt>
      <trkpt lat="45.57289" lon="6.57625">
        <ele>2178.399</ele>
        <time>2020-01-27 14:39:18</time>
      </trkpt>
      <trkpt lat="45.57287" lon="6.57627">
        <ele>2177.5115</ele>
        <time>2020-01-27 14:39:19</time>
      </trkpt>
      <trkpt lat="45.57285" lon="6.57628">
        <ele>2178.479</ele>
        <time>2020-01-27 14:39:20</time>
      </trkpt>
      <trkpt lat="45.57282" lon="6.57626">
        <ele>2176.681</ele>
        <time>2020-01-27 14:39:21</time>
      </trkpt>
      <trkpt lat="45.57275" lon="6.57622">
        <ele>2174.7969</ele>
        <time>2020-01-27 14:39:24</time>
      </trkpt>
      <trkpt lat="45.57273" lon="6.57623">
        <ele>2175.0015</ele>
        <time>2020-01-27 14:39:25</time>
      </trkpt>
      <trkpt lat="45.57272" lon="6.57626">
        <ele>2174.4727</ele>
        <time>2020-01-27 14:39:26</time>
      </trkpt>
      <trkpt lat="45.5727" lon="6.57628">
        <ele>2173.1877</ele>
        <time>2020-01-27 14:39:27</time>
      </trkpt>
      <trkpt lat="45.57269" lon="6.57628">
        <ele>2172.581</ele>
        <time>2020-01-27 14:39:28</time>
      </trkpt>
      <trkpt lat="45.57266" lon="6.57622">
        <ele>2172.9646</ele>
        <time>2020-01-27 14:39:32</time>
      </trkpt>
      <trkpt lat="45.57265" lon="6.57621">
        <ele>2173.0396</ele>
        <time>2020-01-27 14:39:33</time>
      </trkpt>
      <trkpt lat="45.57263" lon="6.57621">
        <ele>2172.3245</ele>
        <time>2020-01-27 14:39:34</time>
      </trkpt>
      <trkpt lat="45.57261" lon="6.57623">
        <ele>2171.339</ele>
        <time>2020-01-27 14:39:35</time>
      </trkpt>
      <trkpt lat="45.5726" lon="6.57626">
        <ele>2170.5383</ele>
        <time>2020-01-27 14:39:36</time>
      </trkpt>
      <trkpt lat="45.57263" lon="6.57633">
        <ele>2170.949</ele>
        <time>2020-01-27 14:39:40</time>
      </trkpt>
      <trkpt lat="45.57264" lon="6.57634">
        <ele>2169.139</ele>
        <time>2020-01-27 14:39:47</time>
      </trkpt>
      <trkpt lat="45.57263" lon="6.57636">
        <ele>2169.373</ele>
        <time>2020-01-27 14:39:48</time>
      </trkpt>
      <trkpt lat="45.57261" lon="6.57638">
        <ele>2169.9219</ele>
        <time>2020-01-27 14:39:49</time>
      </trkpt>
      <trkpt lat="45.57259" lon="6.57638">
        <ele>2169.4792</ele>
        <time>2020-01-27 14:39:50</time>
      </trkpt>
      <trkpt lat="45.57248" lon="6.57631">
        <ele>2167.937</ele>
        <time>2020-01-27 14:39:54</time>
      </trkpt>
      <trkpt lat="45.57243" lon="6.57626">
        <ele>2167.781</ele>
        <time>2020-01-27 14:39:57</time>
      </trkpt>
      <trkpt lat="45.57241" lon="6.57625">
        <ele>2168.2527</ele>
        <time>2020-01-27 14:39:58</time>
      </trkpt>
      <trkpt lat="45.57234" lon="6.57622">
        <ele>2166.1995</ele>
        <time>2020-01-27 14:40:01</time>
      </trkpt>
      <trkpt lat="45.57229" lon="6.57618">
        <ele>2166.67</ele>
        <time>2020-01-27 14:40:04</time>
      </trkpt>
      <trkpt lat="45.57227" lon="6.57616">
        <ele>2165.7703</ele>
        <time>2020-01-27 14:40:05</time>
      </trkpt>
      <trkpt lat="45.57223" lon="6.57612">
        <ele>2165.426</ele>
        <time>2020-01-27 14:40:08</time>
      </trkpt>
      <trkpt lat="45.5722" lon="6.5761">
        <ele>2163.2983</ele>
        <time>2020-01-27 14:40:10</time>
      </trkpt>
      <trkpt lat="45.57219" lon="6.57608">
        <ele>2163.6406</ele>
        <time>2020-01-27 14:40:11</time>
      </trkpt>
      <trkpt lat="45.57218" lon="6.57607">
        <ele>2163.2607</ele>
        <time>2020-01-27 14:40:12</time>
      </trkpt>
      <trkpt lat="45.57209" lon="6.57599">
        <ele>2157.131</ele>
        <time>2020-01-27 14:40:18</time>
      </trkpt>
      <trkpt lat="45.57206" lon="6.57601">
        <ele>2155.4983</ele>
        <time>2020-01-27 14:40:19</time>
      </trkpt>
      <trkpt lat="45.57204" lon="6.57604">
        <ele>2154.7988</ele>
        <time>2020-01-27 14:40:20</time>
      </trkpt>
      <trkpt lat="45.57204" lon="6.57614">
        <ele>2150.6592</ele>
        <time>2020-01-27 14:40:23</time>
      </trkpt>
      <trkpt lat="45.57204" lon="6.57619">
        <ele>2149.6619</ele>
        <time>2020-01-27 14:40:25</time>
      </trkpt>
      <trkpt lat="45.57205" lon="6.57623">
        <ele>2149.0398</ele>
        <time>2020-01-27 14:40:27</time>
      </trkpt>
      <trkpt lat="45.57205" lon="6.57628">
        <ele>2147.6213</ele>
        <time>2020-01-27 14:40:30</time>
      </trkpt>
      <trkpt lat="45.57204" lon="6.57635">
        <ele>2145.5913</ele>
        <time>2020-01-27 14:40:32</time>
      </trkpt>
      <trkpt lat="45.57204" lon="6.57639">
        <ele>2145.361</ele>
        <time>2020-01-27 14:40:33</time>
      </trkpt>
      <trkpt lat="45.57207" lon="6.57653">
        <ele>2143.8696</ele>
        <time>2020-01-27 14:40:38</time>
      </trkpt>
      <trkpt lat="45.57206" lon="6.57664">
        <ele>2141.2727</ele>
        <time>2020-01-27 14:40:42</time>
      </trkpt>
      <trkpt lat="45.57207" lon="6.57669">
        <ele>2140.1453</ele>
        <time>2020-01-27 14:40:44</time>
      </trkpt>
      <trkpt lat="45.57211" lon="6.57678">
        <ele>2139.0046</ele>
        <time>2020-01-27 14:40:48</time>
      </trkpt>
      <trkpt lat="45.57214" lon="6.57683">
        <ele>2138.3584</ele>
        <time>2020-01-27 14:40:50</time>
      </trkpt>
      <trkpt lat="45.57216" lon="6.57686">
        <ele>2137.4106</ele>
        <time>2020-01-27 14:40:52</time>
      </trkpt>
      <trkpt lat="45.57219" lon="6.57693">
        <ele>2135.7358</ele>
        <time>2020-01-27 14:40:55</time>
      </trkpt>
      <trkpt lat="45.5722" lon="6.57695">
        <ele>2135.6853</ele>
        <time>2020-01-27 14:40:58</time>
      </trkpt>
      <trkpt lat="45.57221" lon="6.57694">
        <ele>2138.2627</ele>
        <time>2020-01-27 14:41:04</time>
      </trkpt>
      <trkpt lat="45.57221" lon="6.57696">
        <ele>2137.5195</ele>
        <time>2020-01-27 14:41:05</time>
      </trkpt>
      <trkpt lat="45.57219" lon="6.577">
        <ele>2138.6614</ele>
        <time>2020-01-27 14:41:07</time>
      </trkpt>
      <trkpt lat="45.5719" lon="6.57694">
        <ele>2127.877</ele>
        <time>2020-01-27 14:41:18</time>
      </trkpt>
      <trkpt lat="45.5719" lon="6.57694">
        <ele>2127.6226</ele>
        <time>2020-01-27 14:41:20</time>
      </trkpt>
      <trkpt lat="45.5719" lon="6.57694">
        <ele>2127.5981</ele>
        <time>2020-01-27 14:41:21</time>
      </trkpt>
      <trkpt lat="45.5719" lon="6.57694">
        <ele>2128.7383</ele>
        <time>2020-01-27 14:41:22</time>
      </trkpt>
      <trkpt lat="45.57188" lon="6.57695">
        <ele>2128.2913</ele>
        <time>2020-01-27 14:41:25</time>
      </trkpt>
      <trkpt lat="45.57186" lon="6.57695">
        <ele>2128.1582</ele>
        <time>2020-01-27 14:41:28</time>
      </trkpt>
      <trkpt lat="45.5718" lon="6.57695">
        <ele>2126.314</ele>
        <time>2020-01-27 14:41:31</time>
      </trkpt>
      <trkpt lat="45.57177" lon="6.57694">
        <ele>2126.0935</ele>
        <time>2020-01-27 14:41:32</time>
      </trkpt>
      <trkpt lat="45.57173" lon="6.5769">
        <ele>2124.9</ele>
        <time>2020-01-27 14:41:35</time>
      </trkpt>
      <trkpt lat="45.57171" lon="6.57688">
        <ele>2125.178</ele>
        <time>2020-01-27 14:41:49</time>
      </trkpt>
      <trkpt lat="45.57171" lon="6.57689">
        <ele>2125.1245</ele>
        <time>2020-01-27 14:41:51</time>
      </trkpt>
      <trkpt lat="45.57173" lon="6.57688">
        <ele>2126.9817</ele>
        <time>2020-01-27 14:42:03</time>
      </trkpt>
      <trkpt lat="45.57171" lon="6.57686">
        <ele>2128.373</ele>
        <time>2020-01-27 14:42:08</time>
      </trkpt>
      <trkpt lat="45.57169" lon="6.57686">
        <ele>2127.5327</ele>
        <time>2020-01-27 14:42:42</time>
      </trkpt>
      <trkpt lat="45.57168" lon="6.57685">
        <ele>2123.3765</ele>
        <time>2020-01-27 14:42:43</time>
      </trkpt>
      <trkpt lat="45.57168" lon="6.57685">
        <ele>2125.3708</ele>
        <time>2020-01-27 14:42:44</time>
      </trkpt>
      <trkpt lat="45.57167" lon="6.57684">
        <ele>2125.1387</ele>
        <time>2020-01-27 14:42:46</time>
      </trkpt>
      <trkpt lat="45.57168" lon="6.57686">
        <ele>2127.0083</ele>
        <time>2020-01-27 14:43:30</time>
      </trkpt>
      <trkpt lat="45.57167" lon="6.57686">
        <ele>2126.7034</ele>
        <time>2020-01-27 14:43:36</time>
      </trkpt>
      <trkpt lat="45.57167" lon="6.57686">
        <ele>2127.3088</ele>
        <time>2020-01-27 14:43:37</time>
      </trkpt>
      <trkpt lat="45.57167" lon="6.57687">
        <ele>2126.775</ele>
        <time>2020-01-27 14:43:42</time>
      </trkpt>
      <trkpt lat="45.57167" lon="6.57687">
        <ele>2127.6187</ele>
        <time>2020-01-27 14:43:43</time>
      </trkpt>
      <trkpt lat="45.57167" lon="6.57685">
        <ele>2127.9626</ele>
        <time>2020-01-27 14:43:46</time>
      </trkpt>
      <trkpt lat="45.57166" lon="6.57685">
        <ele>2128.4304</ele>
        <time>2020-01-27 14:43:47</time>
      </trkpt>
      <trkpt lat="45.57165" lon="6.57683">
        <ele>2127.913</ele>
        <time>2020-01-27 14:43:48</time>
      </trkpt>
      <trkpt lat="45.57163" lon="6.57682">
        <ele>2128.5247</ele>
        <time>2020-01-27 14:43:49</time>
      </trkpt>
      <trkpt lat="45.57162" lon="6.57679">
        <ele>2129.7114</ele>
        <time>2020-01-27 14:43:51</time>
      </trkpt>
      <trkpt lat="45.57161" lon="6.57678">
        <ele>2130.3162</ele>
        <time>2020-01-27 14:43:53</time>
      </trkpt>
      <trkpt lat="45.5716" lon="6.57676">
        <ele>2130.328</ele>
        <time>2020-01-27 14:43:54</time>
      </trkpt>
      <trkpt lat="45.57158" lon="6.57676">
        <ele>2128.8025</ele>
        <time>2020-01-27 14:43:55</time>
      </trkpt>
      <trkpt lat="45.57157" lon="6.57677">
        <ele>2128.2903</ele>
        <time>2020-01-27 14:43:57</time>
      </trkpt>
      <trkpt lat="45.57156" lon="6.57678">
        <ele>2129.4036</ele>
        <time>2020-01-27 14:44:01</time>
      </trkpt>
      <trkpt lat="45.57157" lon="6.57679">
        <ele>2129.5254</ele>
        <time>2020-01-27 14:44:02</time>
      </trkpt>
      <trkpt lat="45.57156" lon="6.57679">
        <ele>2127.791</ele>
        <time>2020-01-27 14:44:05</time>
      </trkpt>
      <trkpt lat="45.57155" lon="6.57685">
        <ele>2124.9673</ele>
        <time>2020-01-27 14:44:07</time>
      </trkpt>
      <trkpt lat="45.57155" lon="6.5769">
        <ele>2124.9182</ele>
        <time>2020-01-27 14:44:09</time>
      </trkpt>
      <trkpt lat="45.57155" lon="6.57693">
        <ele>2124.2966</ele>
        <time>2020-01-27 14:44:10</time>
      </trkpt>
      <trkpt lat="45.57154" lon="6.57701">
        <ele>2120.7444</ele>
        <time>2020-01-27 14:44:13</time>
      </trkpt>
      <trkpt lat="45.57154" lon="6.57706">
        <ele>2118.968</ele>
        <time>2020-01-27 14:44:15</time>
      </trkpt>
      <trkpt lat="45.57154" lon="6.5771">
        <ele>2117.9812</ele>
        <time>2020-01-27 14:44:16</time>
      </trkpt>
      <trkpt lat="45.57155" lon="6.57718">
        <ele>2117.314</ele>
        <time>2020-01-27 14:44:18</time>
      </trkpt>
      <trkpt lat="45.57157" lon="6.57721">
        <ele>2118.499</ele>
        <time>2020-01-27 14:44:21</time>
      </trkpt>
      <trkpt lat="45.57158" lon="6.5772">
        <ele>2119.2173</ele>
        <time>2020-01-27 14:44:24</time>
      </trkpt>
      <trkpt lat="45.57156" lon="6.57724">
        <ele>2120.5876</ele>
        <time>2020-01-27 14:44:30</time>
      </trkpt>
      <trkpt lat="45.57155" lon="6.57725">
        <ele>2120.376</ele>
        <time>2020-01-27 14:44:32</time>
      </trkpt>
      <trkpt lat="45.57152" lon="6.57726">
        <ele>2118.9417</ele>
        <time>2020-01-27 14:44:34</time>
      </trkpt>
      <trkpt lat="45.57149" lon="6.57726">
        <ele>2117.0461</ele>
        <time>2020-01-27 14:44:36</time>
      </trkpt>
      <trkpt lat="45.57147" lon="6.57726">
        <ele>2116.2744</ele>
        <time>2020-01-27 14:44:37</time>
      </trkpt>
      <trkpt lat="45.57146" lon="6.57724">
        <ele>2115.0012</ele>
        <time>2020-01-27 14:44:38</time>
      </trkpt>
      <trkpt lat="45.57141" lon="6.57715">
        <ele>2114.0688</ele>
        <time>2020-01-27 14:44:41</time>
      </trkpt>
      <trkpt lat="45.5714" lon="6.57713">
        <ele>2113.8777</ele>
        <time>2020-01-27 14:44:43</time>
      </trkpt>
      <trkpt lat="45.57138" lon="6.57712">
        <ele>2113.1812</ele>
        <time>2020-01-27 14:44:44</time>
      </trkpt>
      <trkpt lat="45.57136" lon="6.57714">
        <ele>2111.5125</ele>
        <time>2020-01-27 14:44:45</time>
      </trkpt>
      <trkpt lat="45.57135" lon="6.57718">
        <ele>2111.4448</ele>
        <time>2020-01-27 14:44:47</time>
      </trkpt>
      <trkpt lat="45.57135" lon="6.57722">
        <ele>2109.6956</ele>
        <time>2020-01-27 14:44:51</time>
      </trkpt>
      <trkpt lat="45.57135" lon="6.57725">
        <ele>2110.7314</ele>
        <time>2020-01-27 14:45:02</time>
      </trkpt>
      <trkpt lat="45.57135" lon="6.57725">
        <ele>2111.2646</ele>
        <time>2020-01-27 14:45:03</time>
      </trkpt>
      <trkpt lat="45.57135" lon="6.57724">
        <ele>2110.555</ele>
        <time>2020-01-27 14:45:35</time>
      </trkpt>
      <trkpt lat="45.57135" lon="6.57724">
        <ele>2110.1106</ele>
        <time>2020-01-27 14:45:40</time>
      </trkpt>
      <trkpt lat="45.57132" lon="6.57726">
        <ele>2109.252</ele>
        <time>2020-01-27 14:45:43</time>
      </trkpt>
      <trkpt lat="45.5713" lon="6.57728">
        <ele>2106.833</ele>
        <time>2020-01-27 14:45:44</time>
      </trkpt>
      <trkpt lat="45.57123" lon="6.57734">
        <ele>2104.9004</ele>
        <time>2020-01-27 14:45:46</time>
      </trkpt>
      <trkpt lat="45.57108" lon="6.57753">
        <ele>2101.0762</ele>
        <time>2020-01-27 14:45:51</time>
      </trkpt>
      <trkpt lat="45.57093" lon="6.57775">
        <ele>2099.003</ele>
        <time>2020-01-27 14:45:59</time>
      </trkpt>
      <trkpt lat="45.57091" lon="6.57778">
        <ele>2097.6636</ele>
        <time>2020-01-27 14:46:00</time>
      </trkpt>
      <trkpt lat="45.57089" lon="6.57781">
        <ele>2097.5757</ele>
        <time>2020-01-27 14:46:01</time>
      </trkpt>
      <trkpt lat="45.57081" lon="6.57788">
        <ele>2098.0784</ele>
        <time>2020-01-27 14:46:05</time>
      </trkpt>
      <trkpt lat="45.5707" lon="6.57801">
        <ele>2097.2412</ele>
        <time>2020-01-27 14:46:17</time>
      </trkpt>
      <trkpt lat="45.57069" lon="6.57803">
        <ele>2096.8547</ele>
        <time>2020-01-27 14:46:20</time>
      </trkpt>
      <trkpt lat="45.57068" lon="6.57803">
        <ele>2097.3933</ele>
        <time>2020-01-27 14:46:45</time>
      </trkpt>
      <trkpt lat="45.57068" lon="6.57802">
        <ele>2096.6882</ele>
        <time>2020-01-27 14:46:48</time>
      </trkpt>
      <trkpt lat="45.57067" lon="6.57803">
        <ele>2095.0127</ele>
        <time>2020-01-27 14:46:53</time>
      </trkpt>
      <trkpt lat="45.57064" lon="6.57804">
        <ele>2094.1394</ele>
        <time>2020-01-27 14:46:56</time>
      </trkpt>
      <trkpt lat="45.57062" lon="6.57804">
        <ele>2093.8525</ele>
        <time>2020-01-27 14:46:57</time>
      </trkpt>
      <trkpt lat="45.5706" lon="6.57803">
        <ele>2092.6602</ele>
        <time>2020-01-27 14:46:59</time>
      </trkpt>
      <trkpt lat="45.57057" lon="6.57801">
        <ele>2091.237</ele>
        <time>2020-01-27 14:47:01</time>
      </trkpt>
      <trkpt lat="45.57053" lon="6.57798">
        <ele>2091.4988</ele>
        <time>2020-01-27 14:47:04</time>
      </trkpt>
      <trkpt lat="45.57052" lon="6.57797">
        <ele>2091.5063</ele>
        <time>2020-01-27 14:47:05</time>
      </trkpt>
      <trkpt lat="45.5705" lon="6.57797">
        <ele>2091.1206</ele>
        <time>2020-01-27 14:47:06</time>
      </trkpt>
      <trkpt lat="45.57049" lon="6.578">
        <ele>2090.5579</ele>
        <time>2020-01-27 14:47:08</time>
      </trkpt>
      <trkpt lat="45.5705" lon="6.57803">
        <ele>2092.2869</ele>
        <time>2020-01-27 14:47:09</time>
      </trkpt>
      <trkpt lat="45.5705" lon="6.57807">
        <ele>2091.9414</ele>
        <time>2020-01-27 14:47:10</time>
      </trkpt>
      <trkpt lat="45.57049" lon="6.57809">
        <ele>2091.9167</ele>
        <time>2020-01-27 14:47:11</time>
      </trkpt>
      <trkpt lat="45.57049" lon="6.5781">
        <ele>2092.0676</ele>
        <time>2020-01-27 14:47:12</time>
      </trkpt>
      <trkpt lat="45.57049" lon="6.5781">
        <ele>2092.1223</ele>
        <time>2020-01-27 14:47:14</time>
      </trkpt>
      <trkpt lat="45.57049" lon="6.5781">
        <ele>2091.9114</ele>
        <time>2020-01-27 14:47:15</time>
      </trkpt>
      <trkpt lat="45.57048" lon="6.5781">
        <ele>2089.2366</ele>
        <time>2020-01-27 14:47:17</time>
      </trkpt>
      <trkpt lat="45.57047" lon="6.5781">
        <ele>2087.1064</ele>
        <time>2020-01-27 14:47:18</time>
      </trkpt>
      <trkpt lat="45.57045" lon="6.57811">
        <ele>2086.585</ele>
        <time>2020-01-27 14:47:19</time>
      </trkpt>
      <trkpt lat="45.57041" lon="6.57812">
        <ele>2086.8105</ele>
        <time>2020-01-27 14:47:21</time>
      </trkpt>
      <trkpt lat="45.5704" lon="6.57814">
        <ele>2086.64</ele>
        <time>2020-01-27 14:47:22</time>
      </trkpt>
      <trkpt lat="45.5704" lon="6.57817">
        <ele>2085.607</ele>
        <time>2020-01-27 14:47:23</time>
      </trkpt>
      <trkpt lat="45.57042" lon="6.57821">
        <ele>2085.121</ele>
        <time>2020-01-27 14:47:24</time>
      </trkpt>
      <trkpt lat="45.57048" lon="6.57833">
        <ele>2084.2188</ele>
        <time>2020-01-27 14:47:27</time>
      </trkpt>
      <trkpt lat="45.57047" lon="6.57837">
        <ele>2082.6375</ele>
        <time>2020-01-27 14:47:28</time>
      </trkpt>
      <trkpt lat="45.57044" lon="6.57839">
        <ele>2081.3557</ele>
        <time>2020-01-27 14:47:29</time>
      </trkpt>
      <trkpt lat="45.57036" lon="6.57833">
        <ele>2080.3347</ele>
        <time>2020-01-27 14:47:30</time>
      </trkpt>
      <trkpt lat="45.57031" lon="6.57827">
        <ele>2080.5583</ele>
        <time>2020-01-27 14:47:32</time>
      </trkpt>
      <trkpt lat="45.57028" lon="6.57826">
        <ele>2080.0007</ele>
        <time>2020-01-27 14:47:33</time>
      </trkpt>
      <trkpt lat="45.57014" lon="6.57818">
        <ele>2077.611</ele>
        <time>2020-01-27 14:47:36</time>
      </trkpt>
      <trkpt lat="45.5701" lon="6.57818">
        <ele>2076.786</ele>
        <time>2020-01-27 14:47:37</time>
      </trkpt>
      <trkpt lat="45.57003" lon="6.57819">
        <ele>2074.9763</ele>
        <time>2020-01-27 14:47:39</time>
      </trkpt>
      <trkpt lat="45.57002" lon="6.57823">
        <ele>2073.0188</ele>
        <time>2020-01-27 14:47:40</time>
      </trkpt>
      <trkpt lat="45.56999" lon="6.57831">
        <ele>2070.6526</ele>
        <time>2020-01-27 14:47:42</time>
      </trkpt>
      <trkpt lat="45.56995" lon="6.57833">
        <ele>2068.991</ele>
        <time>2020-01-27 14:47:43</time>
      </trkpt>
      <trkpt lat="45.56993" lon="6.57837">
        <ele>2068.8076</ele>
        <time>2020-01-27 14:47:44</time>
      </trkpt>
      <trkpt lat="45.5699" lon="6.57839">
        <ele>2067.0637</ele>
        <time>2020-01-27 14:47:45</time>
      </trkpt>
      <trkpt lat="45.56986" lon="6.5784">
        <ele>2066.9844</ele>
        <time>2020-01-27 14:47:46</time>
      </trkpt>
      <trkpt lat="45.56983" lon="6.57844">
        <ele>2065.7122</ele>
        <time>2020-01-27 14:47:47</time>
      </trkpt>
      <trkpt lat="45.56981" lon="6.57852">
        <ele>2062.4065</ele>
        <time>2020-01-27 14:47:48</time>
      </trkpt>
      <trkpt lat="45.56976" lon="6.57854">
        <ele>2060.3792</ele>
        <time>2020-01-27 14:47:49</time>
      </trkpt>
      <trkpt lat="45.5697" lon="6.57854">
        <ele>2058.631</ele>
        <time>2020-01-27 14:47:50</time>
      </trkpt>
      <trkpt lat="45.56966" lon="6.57857">
        <ele>2055.5754</ele>
        <time>2020-01-27 14:47:51</time>
      </trkpt>
      <trkpt lat="45.56963" lon="6.57862">
        <ele>2053.7231</ele>
        <time>2020-01-27 14:47:52</time>
      </trkpt>
      <trkpt lat="45.56959" lon="6.57864">
        <ele>2053.7341</ele>
        <time>2020-01-27 14:47:53</time>
      </trkpt>
      <trkpt lat="45.56954" lon="6.57868">
        <ele>2052.3667</ele>
        <time>2020-01-27 14:47:54</time>
      </trkpt>
      <trkpt lat="45.56948" lon="6.57871">
        <ele>2051.3828</ele>
        <time>2020-01-27 14:47:55</time>
      </trkpt>
      <trkpt lat="45.56938" lon="6.57875">
        <ele>2048.6108</ele>
        <time>2020-01-27 14:47:57</time>
      </trkpt>
      <trkpt lat="45.56931" lon="6.5788">
        <ele>2048.7883</ele>
        <time>2020-01-27 14:47:59</time>
      </trkpt>
      <trkpt lat="45.56926" lon="6.57887">
        <ele>2049.9639</ele>
        <time>2020-01-27 14:48:03</time>
      </trkpt>
      <trkpt lat="45.56925" lon="6.57889">
        <ele>2052.3906</ele>
        <time>2020-01-27 14:48:41</time>
      </trkpt>
      <trkpt lat="45.56922" lon="6.5789">
        <ele>2051.7146</ele>
        <time>2020-01-27 14:48:43</time>
      </trkpt>
      <trkpt lat="45.56919" lon="6.57891">
        <ele>2050.6467</ele>
        <time>2020-01-27 14:48:44</time>
      </trkpt>
      <trkpt lat="45.56916" lon="6.57892">
        <ele>2048.385</ele>
        <time>2020-01-27 14:48:45</time>
      </trkpt>
      <trkpt lat="45.56912" lon="6.57889">
        <ele>2046.9167</ele>
        <time>2020-01-27 14:48:46</time>
      </trkpt>
      <trkpt lat="45.56908" lon="6.57888">
        <ele>2046.0635</ele>
        <time>2020-01-27 14:48:47</time>
      </trkpt>
      <trkpt lat="45.56905" lon="6.5789">
        <ele>2045.0591</ele>
        <time>2020-01-27 14:48:48</time>
      </trkpt>
      <trkpt lat="45.56903" lon="6.57894">
        <ele>2042.9985</ele>
        <time>2020-01-27 14:48:49</time>
      </trkpt>
      <trkpt lat="45.56902" lon="6.57899">
        <ele>2041.9019</ele>
        <time>2020-01-27 14:48:50</time>
      </trkpt>
      <trkpt lat="45.56901" lon="6.57908">
        <ele>2039.647</ele>
        <time>2020-01-27 14:48:51</time>
      </trkpt>
      <trkpt lat="45.56898" lon="6.57908">
        <ele>2039.6626</ele>
        <time>2020-01-27 14:48:52</time>
      </trkpt>
      <trkpt lat="45.5689" lon="6.5791">
        <ele>2037.6528</ele>
        <time>2020-01-27 14:48:54</time>
      </trkpt>
      <trkpt lat="45.56886" lon="6.57914">
        <ele>2036.3853</ele>
        <time>2020-01-27 14:48:55</time>
      </trkpt>
      <trkpt lat="45.56875" lon="6.57914">
        <ele>2034.7588</ele>
        <time>2020-01-27 14:48:57</time>
      </trkpt>
      <trkpt lat="45.56874" lon="6.57914">
        <ele>2035.2358</ele>
        <time>2020-01-27 14:49:00</time>
      </trkpt>
      <trkpt lat="45.56873" lon="6.57913">
        <ele>2032.896</ele>
        <time>2020-01-27 14:49:09</time>
      </trkpt>
      <trkpt lat="45.56871" lon="6.57914">
        <ele>2031.9612</ele>
        <time>2020-01-27 14:49:10</time>
      </trkpt>
      <trkpt lat="45.5687" lon="6.57917">
        <ele>2031.6953</ele>
        <time>2020-01-27 14:49:11</time>
      </trkpt>
      <trkpt lat="45.5687" lon="6.57921">
        <ele>2031.334</ele>
        <time>2020-01-27 14:49:12</time>
      </trkpt>
      <trkpt lat="45.56872" lon="6.5793">
        <ele>2030.3286</ele>
        <time>2020-01-27 14:49:14</time>
      </trkpt>
      <trkpt lat="45.56874" lon="6.5794">
        <ele>2029.0063</ele>
        <time>2020-01-27 14:49:16</time>
      </trkpt>
      <trkpt lat="45.56876" lon="6.57949">
        <ele>2028.6396</ele>
        <time>2020-01-27 14:49:19</time>
      </trkpt>
      <trkpt lat="45.56876" lon="6.57952">
        <ele>2029.6951</ele>
        <time>2020-01-27 14:49:22</time>
      </trkpt>
      <trkpt lat="45.56876" lon="6.57961">
        <ele>2029.3853</ele>
        <time>2020-01-27 14:49:28</time>
      </trkpt>
      <trkpt lat="45.56877" lon="6.57961">
        <ele>2029.6519</ele>
        <time>2020-01-27 14:49:40</time>
      </trkpt>
      <trkpt lat="45.56877" lon="6.57964">
        <ele>2030.427</ele>
        <time>2020-01-27 14:49:43</time>
      </trkpt>
      <trkpt lat="45.56877" lon="6.57966">
        <ele>2029.394</ele>
        <time>2020-01-27 14:49:46</time>
      </trkpt>
      <trkpt lat="45.56877" lon="6.57966">
        <ele>2029.7612</ele>
        <time>2020-01-27 14:49:52</time>
      </trkpt>
      <trkpt lat="45.56878" lon="6.57966">
        <ele>2028.9712</ele>
        <time>2020-01-27 14:49:53</time>
      </trkpt>
      <trkpt lat="45.56878" lon="6.57967">
        <ele>2029.4297</ele>
        <time>2020-01-27 14:50:27</time>
      </trkpt>
      <trkpt lat="45.56878" lon="6.5797">
        <ele>2028.7615</ele>
        <time>2020-01-27 14:50:29</time>
      </trkpt>
      <trkpt lat="45.56878" lon="6.57973">
        <ele>2027.7332</ele>
        <time>2020-01-27 14:50:30</time>
      </trkpt>
      <trkpt lat="45.56877" lon="6.57975">
        <ele>2026.2026</ele>
        <time>2020-01-27 14:50:31</time>
      </trkpt>
      <trkpt lat="45.56875" lon="6.57976">
        <ele>2026.2578</ele>
        <time>2020-01-27 14:50:32</time>
      </trkpt>
      <trkpt lat="45.56862" lon="6.57968">
        <ele>2024.25</ele>
        <time>2020-01-27 14:50:37</time>
      </trkpt>
      <trkpt lat="45.5686" lon="6.57968">
        <ele>2023.6411</ele>
        <time>2020-01-27 14:50:38</time>
      </trkpt>
      <trkpt lat="45.5686" lon="6.57969">
        <ele>2024.9966</ele>
        <time>2020-01-27 14:50:40</time>
      </trkpt>
      <trkpt lat="45.56859" lon="6.57971">
        <ele>2024.374</ele>
        <time>2020-01-27 14:50:42</time>
      </trkpt>
      <trkpt lat="45.56859" lon="6.57976">
        <ele>2021.709</ele>
        <time>2020-01-27 14:50:44</time>
      </trkpt>
      <trkpt lat="45.56857" lon="6.57979">
        <ele>2020.6824</ele>
        <time>2020-01-27 14:50:45</time>
      </trkpt>
      <trkpt lat="45.56854" lon="6.57981">
        <ele>2018.5073</ele>
        <time>2020-01-27 14:50:46</time>
      </trkpt>
      <trkpt lat="45.56851" lon="6.57983">
        <ele>2018.4299</ele>
        <time>2020-01-27 14:50:47</time>
      </trkpt>
      <trkpt lat="45.56849" lon="6.57986">
        <ele>2018.3716</ele>
        <time>2020-01-27 14:50:48</time>
      </trkpt>
      <trkpt lat="45.56848" lon="6.5799">
        <ele>2016.2021</ele>
        <time>2020-01-27 14:50:49</time>
      </trkpt>
      <trkpt lat="45.56847" lon="6.57993">
        <ele>2013.875</ele>
        <time>2020-01-27 14:50:50</time>
      </trkpt>
      <trkpt lat="45.56843" lon="6.57994">
        <ele>2012.5203</ele>
        <time>2020-01-27 14:50:51</time>
      </trkpt>
      <trkpt lat="45.5684" lon="6.57995">
        <ele>2010.294</ele>
        <time>2020-01-27 14:50:52</time>
      </trkpt>
      <trkpt lat="45.56837" lon="6.57997">
        <ele>2008.4927</ele>
        <time>2020-01-27 14:50:53</time>
      </trkpt>
      <trkpt lat="45.56836" lon="6.58">
        <ele>2009.4111</ele>
        <time>2020-01-27 14:50:54</time>
      </trkpt>
      <trkpt lat="45.56834" lon="6.58004">
        <ele>2008.291</ele>
        <time>2020-01-27 14:50:55</time>
      </trkpt>
      <trkpt lat="45.56831" lon="6.58007">
        <ele>2006.1685</ele>
        <time>2020-01-27 14:50:56</time>
      </trkpt>
      <trkpt lat="45.56821" lon="6.58006">
        <ele>2003.3962</ele>
        <time>2020-01-27 14:50:59</time>
      </trkpt>
      <trkpt lat="45.56825" lon="6.58011">
        <ele>2002.2725</ele>
        <time>2020-01-27 14:51:00</time>
      </trkpt>
      <trkpt lat="45.56826" lon="6.58016">
        <ele>2000.3384</ele>
        <time>2020-01-27 14:51:01</time>
      </trkpt>
      <trkpt lat="45.56827" lon="6.58023">
        <ele>1999.1206</ele>
        <time>2020-01-27 14:51:03</time>
      </trkpt>
      <trkpt lat="45.56823" lon="6.58026">
        <ele>1997.9355</ele>
        <time>2020-01-27 14:51:04</time>
      </trkpt>
      <trkpt lat="45.5682" lon="6.58026">
        <ele>1997.8228</ele>
        <time>2020-01-27 14:51:05</time>
      </trkpt>
      <trkpt lat="45.56816" lon="6.58026">
        <ele>1995.011</ele>
        <time>2020-01-27 14:51:06</time>
      </trkpt>
      <trkpt lat="45.56812" lon="6.58025">
        <ele>1994.7935</ele>
        <time>2020-01-27 14:51:08</time>
      </trkpt>
      <trkpt lat="45.56812" lon="6.58028">
        <ele>1994.5903</ele>
        <time>2020-01-27 14:51:09</time>
      </trkpt>
      <trkpt lat="45.56809" lon="6.58034">
        <ele>1993.8018</ele>
        <time>2020-01-27 14:51:11</time>
      </trkpt>
      <trkpt lat="45.56806" lon="6.58034">
        <ele>1994.0625</ele>
        <time>2020-01-27 14:51:12</time>
      </trkpt>
      <trkpt lat="45.56796" lon="6.58031">
        <ele>1988.4407</ele>
        <time>2020-01-27 14:51:17</time>
      </trkpt>
      <trkpt lat="45.5679" lon="6.58033">
        <ele>1987.1045</ele>
        <time>2020-01-27 14:51:19</time>
      </trkpt>
      <trkpt lat="45.56792" lon="6.58052">
        <ele>1984.8955</ele>
        <time>2020-01-27 14:51:22</time>
      </trkpt>
      <trkpt lat="45.56793" lon="6.5806">
        <ele>1984.551</ele>
        <time>2020-01-27 14:51:24</time>
      </trkpt>
      <trkpt lat="45.56789" lon="6.58066">
        <ele>1984.0039</ele>
        <time>2020-01-27 14:51:27</time>
      </trkpt>
      <trkpt lat="45.56788" lon="6.58064">
        <ele>1980.9531</ele>
        <time>2020-01-27 14:51:28</time>
      </trkpt>
      <trkpt lat="45.56785" lon="6.58062">
        <ele>1980.1338</ele>
        <time>2020-01-27 14:51:29</time>
      </trkpt>
      <trkpt lat="45.56783" lon="6.5806">
        <ele>1978.7712</ele>
        <time>2020-01-27 14:51:30</time>
      </trkpt>
      <trkpt lat="45.56781" lon="6.58061">
        <ele>1978.6572</ele>
        <time>2020-01-27 14:51:31</time>
      </trkpt>
      <trkpt lat="45.5678" lon="6.58065">
        <ele>1977.0063</ele>
        <time>2020-01-27 14:51:32</time>
      </trkpt>
      <trkpt lat="45.56774" lon="6.58069">
        <ele>1970.7363</ele>
        <time>2020-01-27 14:51:34</time>
      </trkpt>
      <trkpt lat="45.5677" lon="6.58068">
        <ele>1970.6155</ele>
        <time>2020-01-27 14:51:35</time>
      </trkpt>
      <trkpt lat="45.56767" lon="6.58068">
        <ele>1968.7104</ele>
        <time>2020-01-27 14:51:36</time>
      </trkpt>
      <trkpt lat="45.56763" lon="6.58073">
        <ele>1969.1221</ele>
        <time>2020-01-27 14:51:38</time>
      </trkpt>
      <trkpt lat="45.56762" lon="6.58077">
        <ele>1968.5645</ele>
        <time>2020-01-27 14:51:39</time>
      </trkpt>
      <trkpt lat="45.56763" lon="6.58081">
        <ele>1969.2695</ele>
        <time>2020-01-27 14:51:40</time>
      </trkpt>
      <trkpt lat="45.56763" lon="6.58084">
        <ele>1968.4829</ele>
        <time>2020-01-27 14:51:41</time>
      </trkpt>
      <trkpt lat="45.56761" lon="6.58089">
        <ele>1966.1528</ele>
        <time>2020-01-27 14:51:43</time>
      </trkpt>
      <trkpt lat="45.56757" lon="6.58095">
        <ele>1963.2021</ele>
        <time>2020-01-27 14:51:46</time>
      </trkpt>
      <trkpt lat="45.56754" lon="6.58093">
        <ele>1961.44</ele>
        <time>2020-01-27 14:51:47</time>
      </trkpt>
      <trkpt lat="45.56749" lon="6.58079">
        <ele>1958.2878</ele>
        <time>2020-01-27 14:51:49</time>
      </trkpt>
      <trkpt lat="45.56746" lon="6.58079">
        <ele>1957.7129</ele>
        <time>2020-01-27 14:51:50</time>
      </trkpt>
      <trkpt lat="45.56744" lon="6.58083">
        <ele>1957.419</ele>
        <time>2020-01-27 14:51:51</time>
      </trkpt>
      <trkpt lat="45.56739" lon="6.58094">
        <ele>1953.7793</ele>
        <time>2020-01-27 14:51:54</time>
      </trkpt>
      <trkpt lat="45.56736" lon="6.58092">
        <ele>1952.7451</ele>
        <time>2020-01-27 14:51:55</time>
      </trkpt>
      <trkpt lat="45.56732" lon="6.58089">
        <ele>1952.6165</ele>
        <time>2020-01-27 14:51:56</time>
      </trkpt>
      <trkpt lat="45.56727" lon="6.58083">
        <ele>1949.1216</ele>
        <time>2020-01-27 14:51:58</time>
      </trkpt>
      <trkpt lat="45.56726" lon="6.58082">
        <ele>1948.0576</ele>
        <time>2020-01-27 14:51:59</time>
      </trkpt>
      <trkpt lat="45.56724" lon="6.58086">
        <ele>1946.3564</ele>
        <time>2020-01-27 14:52:00</time>
      </trkpt>
      <trkpt lat="45.56723" lon="6.58093">
        <ele>1944.5972</ele>
        <time>2020-01-27 14:52:01</time>
      </trkpt>
      <trkpt lat="45.56724" lon="6.58109">
        <ele>1942.4309</ele>
        <time>2020-01-27 14:52:04</time>
      </trkpt>
      <trkpt lat="45.56721" lon="6.58113">
        <ele>1942.5718</ele>
        <time>2020-01-27 14:52:06</time>
      </trkpt>
      <trkpt lat="45.56717" lon="6.58113">
        <ele>1940.7456</ele>
        <time>2020-01-27 14:52:08</time>
      </trkpt>
      <trkpt lat="45.56716" lon="6.5811">
        <ele>1940.2134</ele>
        <time>2020-01-27 14:52:09</time>
      </trkpt>
      <trkpt lat="45.56709" lon="6.58099">
        <ele>1940.0435</ele>
        <time>2020-01-27 14:52:12</time>
      </trkpt>
      <trkpt lat="45.56706" lon="6.58098">
        <ele>1938.6772</ele>
        <time>2020-01-27 14:52:13</time>
      </trkpt>
      <trkpt lat="45.56704" lon="6.58099">
        <ele>1938.1919</ele>
        <time>2020-01-27 14:52:14</time>
      </trkpt>
      <trkpt lat="45.567" lon="6.58107">
        <ele>1936.7646</ele>
        <time>2020-01-27 14:52:17</time>
      </trkpt>
      <trkpt lat="45.56697" lon="6.58106">
        <ele>1936.0247</ele>
        <time>2020-01-27 14:52:18</time>
      </trkpt>
      <trkpt lat="45.56694" lon="6.58103">
        <ele>1936.1848</ele>
        <time>2020-01-27 14:52:19</time>
      </trkpt>
      <trkpt lat="45.56691" lon="6.58101">
        <ele>1936.2695</ele>
        <time>2020-01-27 14:52:20</time>
      </trkpt>
      <trkpt lat="45.56689" lon="6.581">
        <ele>1935.9939</ele>
        <time>2020-01-27 14:52:21</time>
      </trkpt>
      <trkpt lat="45.56686" lon="6.581">
        <ele>1935.7649</ele>
        <time>2020-01-27 14:52:22</time>
      </trkpt>
      <trkpt lat="45.56681" lon="6.58101">
        <ele>1934.2549</ele>
        <time>2020-01-27 14:52:24</time>
      </trkpt>
      <trkpt lat="45.5668" lon="6.581">
        <ele>1932.0737</ele>
        <time>2020-01-27 14:52:26</time>
      </trkpt>
      <trkpt lat="45.5668" lon="6.58099">
        <ele>1930.9473</ele>
        <time>2020-01-27 14:52:28</time>
      </trkpt>
      <trkpt lat="45.56677" lon="6.581">
        <ele>1929.4727</ele>
        <time>2020-01-27 14:52:30</time>
      </trkpt>
      <trkpt lat="45.56676" lon="6.58104">
        <ele>1927.7637</ele>
        <time>2020-01-27 14:52:31</time>
      </trkpt>
      <trkpt lat="45.56677" lon="6.58109">
        <ele>1926.8823</ele>
        <time>2020-01-27 14:52:32</time>
      </trkpt>
      <trkpt lat="45.56677" lon="6.58114">
        <ele>1926.6038</ele>
        <time>2020-01-27 14:52:33</time>
      </trkpt>
      <trkpt lat="45.56677" lon="6.58119">
        <ele>1925.1626</ele>
        <time>2020-01-27 14:52:34</time>
      </trkpt>
      <trkpt lat="45.56673" lon="6.58128">
        <ele>1925.0747</ele>
        <time>2020-01-27 14:52:36</time>
      </trkpt>
      <trkpt lat="45.56672" lon="6.5813">
        <ele>1926.0562</ele>
        <time>2020-01-27 14:52:40</time>
      </trkpt>
      <trkpt lat="45.56672" lon="6.58129">
        <ele>1922.5552</ele>
        <time>2020-01-27 14:53:55</time>
      </trkpt>
      <trkpt lat="45.56672" lon="6.58129">
        <ele>1922.3906</ele>
        <time>2020-01-27 14:54:12</time>
      </trkpt>
      <trkpt lat="45.56671" lon="6.58129">
        <ele>1922.6865</ele>
        <time>2020-01-27 14:54:13</time>
      </trkpt>
      <trkpt lat="45.56671" lon="6.58129">
        <ele>1923.9685</ele>
        <time>2020-01-27 14:54:49</time>
      </trkpt>
      <trkpt lat="45.56669" lon="6.58132">
        <ele>1922.5576</ele>
        <time>2020-01-27 14:54:51</time>
      </trkpt>
      <trkpt lat="45.56664" lon="6.5814">
        <ele>1921.6831</ele>
        <time>2020-01-27 14:54:55</time>
      </trkpt>
      <trkpt lat="45.56643" lon="6.58184">
        <ele>1914.6914</ele>
        <time>2020-01-27 14:55:08</time>
      </trkpt>
      <trkpt lat="45.5664" lon="6.58183">
        <ele>1913.0996</ele>
        <time>2020-01-27 14:55:09</time>
      </trkpt>
      <trkpt lat="45.56637" lon="6.5818">
        <ele>1912.248</ele>
        <time>2020-01-27 14:55:10</time>
      </trkpt>
      <trkpt lat="45.56635" lon="6.58179">
        <ele>1911.5542</ele>
        <time>2020-01-27 14:55:11</time>
      </trkpt>
      <trkpt lat="45.56631" lon="6.58179">
        <ele>1910.0366</ele>
        <time>2020-01-27 14:55:12</time>
      </trkpt>
      <trkpt lat="45.56628" lon="6.5818">
        <ele>1908.1553</ele>
        <time>2020-01-27 14:55:13</time>
      </trkpt>
      <trkpt lat="45.56624" lon="6.58178">
        <ele>1906.8926</ele>
        <time>2020-01-27 14:55:14</time>
      </trkpt>
      <trkpt lat="45.56617" lon="6.58176">
        <ele>1906.8423</ele>
        <time>2020-01-27 14:55:16</time>
      </trkpt>
      <trkpt lat="45.56611" lon="6.58178">
        <ele>1897.812</ele>
        <time>2020-01-27 14:55:18</time>
      </trkpt>
      <trkpt lat="45.56604" lon="6.58172">
        <ele>1896.5085</ele>
        <time>2020-01-27 14:55:20</time>
      </trkpt>
      <trkpt lat="45.56598" lon="6.58171">
        <ele>1894.0664</ele>
        <time>2020-01-27 14:55:22</time>
      </trkpt>
      <trkpt lat="45.56588" lon="6.58173">
        <ele>1891.3989</ele>
        <time>2020-01-27 14:55:25</time>
      </trkpt>
      <trkpt lat="45.56584" lon="6.58175">
        <ele>1889.437</ele>
        <time>2020-01-27 14:55:26</time>
      </trkpt>
      <trkpt lat="45.56582" lon="6.58179">
        <ele>1889.477</ele>
        <time>2020-01-27 14:55:27</time>
      </trkpt>
      <trkpt lat="45.56579" lon="6.58188">
        <ele>1888.9207</ele>
        <time>2020-01-27 14:55:29</time>
      </trkpt>
      <trkpt lat="45.56574" lon="6.58202">
        <ele>1886.3777</ele>
        <time>2020-01-27 14:55:32</time>
      </trkpt>
      <trkpt lat="45.56571" lon="6.58202">
        <ele>1883.0027</ele>
        <time>2020-01-27 14:55:33</time>
      </trkpt>
      <trkpt lat="45.56569" lon="6.58199">
        <ele>1882.1946</ele>
        <time>2020-01-27 14:55:34</time>
      </trkpt>
      <trkpt lat="45.56569" lon="6.58195">
        <ele>1882.2505</ele>
        <time>2020-01-27 14:55:35</time>
      </trkpt>
      <trkpt lat="45.56568" lon="6.58187">
        <ele>1880.1333</ele>
        <time>2020-01-27 14:55:37</time>
      </trkpt>
      <trkpt lat="45.56568" lon="6.58184">
        <ele>1880.5156</ele>
        <time>2020-01-27 14:55:38</time>
      </trkpt>
      <trkpt lat="45.56568" lon="6.58181">
        <ele>1879.4622</ele>
        <time>2020-01-27 14:55:39</time>
      </trkpt>
      <trkpt lat="45.56566" lon="6.58178">
        <ele>1878.4807</ele>
        <time>2020-01-27 14:55:40</time>
      </trkpt>
      <trkpt lat="45.56564" lon="6.58178">
        <ele>1878.3025</ele>
        <time>2020-01-27 14:55:41</time>
      </trkpt>
      <trkpt lat="45.56562" lon="6.58179">
        <ele>1877.5513</ele>
        <time>2020-01-27 14:55:42</time>
      </trkpt>
      <trkpt lat="45.5656" lon="6.58182">
        <ele>1877.6477</ele>
        <time>2020-01-27 14:55:43</time>
      </trkpt>
      <trkpt lat="45.56557" lon="6.58191">
        <ele>1875.9712</ele>
        <time>2020-01-27 14:55:45</time>
      </trkpt>
      <trkpt lat="45.56555" lon="6.582">
        <ele>1876.1636</ele>
        <time>2020-01-27 14:55:47</time>
      </trkpt>
      <trkpt lat="45.56547" lon="6.58213">
        <ele>1873.3015</ele>
        <time>2020-01-27 14:55:51</time>
      </trkpt>
      <trkpt lat="45.56545" lon="6.58212">
        <ele>1872.9502</ele>
        <time>2020-01-27 14:55:52</time>
      </trkpt>
      <trkpt lat="45.56542" lon="6.58209">
        <ele>1872.5098</ele>
        <time>2020-01-27 14:55:53</time>
      </trkpt>
      <trkpt lat="45.56537" lon="6.58204">
        <ele>1871.4314</ele>
        <time>2020-01-27 14:55:55</time>
      </trkpt>
      <trkpt lat="45.56534" lon="6.58206">
        <ele>1869.7998</ele>
        <time>2020-01-27 14:55:56</time>
      </trkpt>
      <trkpt lat="45.56529" lon="6.5821">
        <ele>1868.0068</ele>
        <time>2020-01-27 14:55:58</time>
      </trkpt>
      <trkpt lat="45.56525" lon="6.5821">
        <ele>1867.6553</ele>
        <time>2020-01-27 14:55:59</time>
      </trkpt>
      <trkpt lat="45.56522" lon="6.5821">
        <ele>1866.1655</ele>
        <time>2020-01-27 14:56:00</time>
      </trkpt>
      <trkpt lat="45.56519" lon="6.58211">
        <ele>1866.4062</ele>
        <time>2020-01-27 14:56:01</time>
      </trkpt>
      <trkpt lat="45.56516" lon="6.58212">
        <ele>1866.3787</ele>
        <time>2020-01-27 14:56:02</time>
      </trkpt>
      <trkpt lat="45.56513" lon="6.58211">
        <ele>1865.4341</ele>
        <time>2020-01-27 14:56:03</time>
      </trkpt>
      <trkpt lat="45.56507" lon="6.58202">
        <ele>1863.2422</ele>
        <time>2020-01-27 14:56:05</time>
      </trkpt>
      <trkpt lat="45.56503" lon="6.582">
        <ele>1862.5842</ele>
        <time>2020-01-27 14:56:06</time>
      </trkpt>
      <trkpt lat="45.56493" lon="6.58207">
        <ele>1859.6577</ele>
        <time>2020-01-27 14:56:09</time>
      </trkpt>
      <trkpt lat="45.56489" lon="6.58207">
        <ele>1858.3735</ele>
        <time>2020-01-27 14:56:10</time>
      </trkpt>
      <trkpt lat="45.56483" lon="6.58209">
        <ele>1856.8445</ele>
        <time>2020-01-27 14:56:12</time>
      </trkpt>
      <trkpt lat="45.5648" lon="6.58218">
        <ele>1855.6113</ele>
        <time>2020-01-27 14:56:14</time>
      </trkpt>
      <trkpt lat="45.56479" lon="6.58223">
        <ele>1854.6733</ele>
        <time>2020-01-27 14:56:15</time>
      </trkpt>
      <trkpt lat="45.56476" lon="6.58225">
        <ele>1853.8643</ele>
        <time>2020-01-27 14:56:16</time>
      </trkpt>
      <trkpt lat="45.56471" lon="6.58218">
        <ele>1852.956</ele>
        <time>2020-01-27 14:56:17</time>
      </trkpt>
      <trkpt lat="45.56468" lon="6.58221">
        <ele>1851.6733</ele>
        <time>2020-01-27 14:56:18</time>
      </trkpt>
      <trkpt lat="45.56468" lon="6.58223">
        <ele>1850.1465</ele>
        <time>2020-01-27 14:56:19</time>
      </trkpt>
      <trkpt lat="45.56468" lon="6.58228">
        <ele>1849.896</ele>
        <time>2020-01-27 14:56:20</time>
      </trkpt>
      <trkpt lat="45.56466" lon="6.58233">
        <ele>1848.9648</ele>
        <time>2020-01-27 14:56:21</time>
      </trkpt>
      <trkpt lat="45.56462" lon="6.58234">
        <ele>1847.2563</ele>
        <time>2020-01-27 14:56:22</time>
      </trkpt>
      <trkpt lat="45.56458" lon="6.58236">
        <ele>1846.2329</ele>
        <time>2020-01-27 14:56:23</time>
      </trkpt>
      <trkpt lat="45.56457" lon="6.5824">
        <ele>1846.5298</ele>
        <time>2020-01-27 14:56:24</time>
      </trkpt>
      <trkpt lat="45.56455" lon="6.58245">
        <ele>1846.5068</ele>
        <time>2020-01-27 14:56:25</time>
      </trkpt>
      <trkpt lat="45.56452" lon="6.58246">
        <ele>1845.2378</ele>
        <time>2020-01-27 14:56:26</time>
      </trkpt>
      <trkpt lat="45.56449" lon="6.58248">
        <ele>1843.429</ele>
        <time>2020-01-27 14:56:27</time>
      </trkpt>
      <trkpt lat="45.56449" lon="6.58256">
        <ele>1842.4272</ele>
        <time>2020-01-27 14:56:29</time>
      </trkpt>
      <trkpt lat="45.56447" lon="6.58259">
        <ele>1843.8997</ele>
        <time>2020-01-27 14:56:31</time>
      </trkpt>
      <trkpt lat="45.56447" lon="6.58258">
        <ele>1844.3213</ele>
        <time>2020-01-27 14:56:32</time>
      </trkpt>
      <trkpt lat="45.56447" lon="6.58256">
        <ele>1845.019</ele>
        <time>2020-01-27 14:57:05</time>
      </trkpt>
      <trkpt lat="45.56446" lon="6.58256">
        <ele>1844.7266</ele>
        <time>2020-01-27 14:57:17</time>
      </trkpt>
      <trkpt lat="45.56444" lon="6.58257">
        <ele>1844.3564</ele>
        <time>2020-01-27 14:57:18</time>
      </trkpt>
      <trkpt lat="45.56443" lon="6.58258">
        <ele>1845.6367</ele>
        <time>2020-01-27 14:57:19</time>
      </trkpt>
      <trkpt lat="45.56441" lon="6.58262">
        <ele>1844.3716</ele>
        <time>2020-01-27 14:57:21</time>
      </trkpt>
      <trkpt lat="45.5644" lon="6.58265">
        <ele>1841.2214</ele>
        <time>2020-01-27 14:57:22</time>
      </trkpt>
      <trkpt lat="45.56438" lon="6.58269">
        <ele>1840.8726</ele>
        <time>2020-01-27 14:57:23</time>
      </trkpt>
      <trkpt lat="45.56436" lon="6.5827">
        <ele>1839.8667</ele>
        <time>2020-01-27 14:57:24</time>
      </trkpt>
      <trkpt lat="45.56432" lon="6.5827">
        <ele>1839.0942</ele>
        <time>2020-01-27 14:57:25</time>
      </trkpt>
      <trkpt lat="45.56429" lon="6.5827">
        <ele>1838.5962</ele>
        <time>2020-01-27 14:57:26</time>
      </trkpt>
      <trkpt lat="45.56427" lon="6.58272">
        <ele>1837.2627</ele>
        <time>2020-01-27 14:57:27</time>
      </trkpt>
      <trkpt lat="45.56425" lon="6.58274">
        <ele>1837.1943</ele>
        <time>2020-01-27 14:57:28</time>
      </trkpt>
      <trkpt lat="45.56423" lon="6.58283">
        <ele>1833.637</ele>
        <time>2020-01-27 14:57:32</time>
      </trkpt>
      <trkpt lat="45.5642" lon="6.58289">
        <ele>1832.9263</ele>
        <time>2020-01-27 14:57:34</time>
      </trkpt>
      <trkpt lat="45.56419" lon="6.58293">
        <ele>1832.0337</ele>
        <time>2020-01-27 14:57:35</time>
      </trkpt>
      <trkpt lat="45.56419" lon="6.583">
        <ele>1832.1475</ele>
        <time>2020-01-27 14:57:37</time>
      </trkpt>
      <trkpt lat="45.56419" lon="6.58302">
        <ele>1831.0928</ele>
        <time>2020-01-27 14:57:39</time>
      </trkpt>
      <trkpt lat="45.56418" lon="6.58303">
        <ele>1828.9495</ele>
        <time>2020-01-27 14:57:43</time>
      </trkpt>
      <trkpt lat="45.56416" lon="6.58305">
        <ele>1827.366</ele>
        <time>2020-01-27 14:57:46</time>
      </trkpt>
      <trkpt lat="45.56415" lon="6.58304">
        <ele>1826.9924</ele>
        <time>2020-01-27 14:57:48</time>
      </trkpt>
      <trkpt lat="45.56414" lon="6.58303">
        <ele>1825.9155</ele>
        <time>2020-01-27 14:57:50</time>
      </trkpt>
      <trkpt lat="45.56413" lon="6.58299">
        <ele>1824.6284</ele>
        <time>2020-01-27 14:57:54</time>
      </trkpt>
      <trkpt lat="45.56414" lon="6.58299">
        <ele>1822.217</ele>
        <time>2020-01-27 14:58:24</time>
      </trkpt>
      <trkpt lat="45.56414" lon="6.58299">
        <ele>1822.2668</ele>
        <time>2020-01-27 14:58:25</time>
      </trkpt>
      <trkpt lat="45.56414" lon="6.58299">
        <ele>1822.5479</ele>
        <time>2020-01-27 14:58:26</time>
      </trkpt>
      <trkpt lat="45.56413" lon="6.58297">
        <ele>1822.6665</ele>
        <time>2020-01-27 14:58:45</time>
      </trkpt>
      <trkpt lat="45.56413" lon="6.58296">
        <ele>1822.3657</ele>
        <time>2020-01-27 14:58:46</time>
      </trkpt>
      <trkpt lat="45.56413" lon="6.58296">
        <ele>1822.8135</ele>
        <time>2020-01-27 14:58:47</time>
      </trkpt>
      <trkpt lat="45.56413" lon="6.58296">
        <ele>1822.9258</ele>
        <time>2020-01-27 14:58:48</time>
      </trkpt>
      <trkpt lat="45.56412" lon="6.58297">
        <ele>1822.533</ele>
        <time>2020-01-27 14:58:55</time>
      </trkpt>
      <trkpt lat="45.56413" lon="6.58297">
        <ele>1823.9468</ele>
        <time>2020-01-27 14:58:57</time>
      </trkpt>
      <trkpt lat="45.56413" lon="6.58297">
        <ele>1823.2129</ele>
        <time>2020-01-27 14:59:02</time>
      </trkpt>
      <trkpt lat="45.56413" lon="6.58296">
        <ele>1824.0356</ele>
        <time>2020-01-27 14:59:03</time>
      </trkpt>
      <trkpt lat="45.56413" lon="6.58295">
        <ele>1823.3042</ele>
        <time>2020-01-27 14:59:04</time>
      </trkpt>
      <trkpt lat="45.56413" lon="6.58294">
        <ele>1822.7554</ele>
        <time>2020-01-27 14:59:07</time>
      </trkpt>
      <trkpt lat="45.56411" lon="6.58294">
        <ele>1818.158</ele>
        <time>2020-01-27 14:59:11</time>
      </trkpt>
      <trkpt lat="45.56411" lon="6.58294">
        <ele>1817.814</ele>
        <time>2020-01-27 14:59:14</time>
      </trkpt>
      <trkpt lat="45.56411" lon="6.58294">
        <ele>1818.312</ele>
        <time>2020-01-27 14:59:15</time>
      </trkpt>
      <trkpt lat="45.56411" lon="6.58295">
        <ele>1818.2144</ele>
        <time>2020-01-27 14:59:27</time>
      </trkpt>
      <trkpt lat="45.56411" lon="6.58296">
        <ele>1819.2952</ele>
        <time>2020-01-27 14:59:29</time>
      </trkpt>
      <trkpt lat="45.56412" lon="6.58297">
        <ele>1820.8865</ele>
        <time>2020-01-27 15:00:45</time>
      </trkpt>
      <trkpt lat="45.56411" lon="6.58294">
        <ele>1819.9175</ele>
        <time>2020-01-27 15:04:01</time>
      </trkpt>
      <trkpt lat="45.5641" lon="6.58295">
        <ele>1823.2134</ele>
        <time>2020-01-27 15:09:38</time>
      </trkpt>
      <trkpt lat="45.5641" lon="6.58295">
        <ele>1823.2817</ele>
        <time>2020-01-27 15:10:34</time>
      </trkpt>
      <trkpt lat="45.56411" lon="6.58294">
        <ele>1823.6985</ele>
        <time>2020-01-27 15:10:39</time>
      </trkpt>
      <trkpt lat="45.56411" lon="6.58294">
        <ele>1822.5085</ele>
        <time>2020-01-27 15:10:40</time>
      </trkpt>
      <trkpt lat="45.56412" lon="6.58295">
        <ele>1823.013</ele>
        <time>2020-01-27 15:10:41</time>
      </trkpt>
      <trkpt lat="45.56413" lon="6.58295">
        <ele>1825.4766</ele>
        <time>2020-01-27 15:11:11</time>
      </trkpt>
      <trkpt lat="45.56413" lon="6.58295">
        <ele>1825.5171</ele>
        <time>2020-01-27 15:11:44</time>
      </trkpt>
      <trkpt lat="45.56413" lon="6.58295">
        <ele>1825.3706</ele>
        <time>2020-01-27 15:11:46</time>
      </trkpt>
      <trkpt lat="45.56413" lon="6.58296">
        <ele>1825.7993</ele>
        <time>2020-01-27 15:11:47</time>
      </trkpt>
      <trkpt lat="45.56413" lon="6.58296">
        <ele>1825.9658</ele>
        <time>2020-01-27 15:11:49</time>
      </trkpt>
      <trkpt lat="45.56414" lon="6.58298">
        <ele>1825.6895</ele>
        <time>2020-01-27 15:11:52</time>
      </trkpt>
      <trkpt lat="45.56415" lon="6.58297">
        <ele>1823.8608</ele>
        <time>2020-01-27 15:12:23</time>
      </trkpt>
      <trkpt lat="45.56415" lon="6.58297">
        <ele>1823.8784</ele>
        <time>2020-01-27 15:12:54</time>
      </trkpt>
      <trkpt lat="45.56415" lon="6.58297">
        <ele>1823.9214</ele>
        <time>2020-01-27 15:13:27</time>
      </trkpt>
      <trkpt lat="45.56415" lon="6.58297">
        <ele>1823.9233</ele>
        <time>2020-01-27 15:14:02</time>
      </trkpt>
      <trkpt lat="45.56415" lon="6.58297">
        <ele>1823.9092</ele>
        <time>2020-01-27 15:14:44</time>
      </trkpt>
      <trkpt lat="45.56414" lon="6.58298">
        <ele>1824.4778</ele>
        <time>2020-01-27 15:15:03</time>
      </trkpt>
      <trkpt lat="45.56414" lon="6.58299">
        <ele>1825.0972</ele>
        <time>2020-01-27 15:15:04</time>
      </trkpt>
      <trkpt lat="45.56411" lon="6.58305">
        <ele>1822.9814</ele>
        <time>2020-01-27 15:15:08</time>
      </trkpt>
      <trkpt lat="45.5641" lon="6.58308">
        <ele>1823.0015</ele>
        <time>2020-01-27 15:15:09</time>
      </trkpt>
      <trkpt lat="45.5641" lon="6.58324">
        <ele>1819.4331</ele>
        <time>2020-01-27 15:15:13</time>
      </trkpt>
      <trkpt lat="45.56406" lon="6.58345">
        <ele>1818.719</ele>
        <time>2020-01-27 15:15:18</time>
      </trkpt>
      <trkpt lat="45.564" lon="6.58364">
        <ele>1817.5635</ele>
        <time>2020-01-27 15:15:23</time>
      </trkpt>
      <trkpt lat="45.56396" lon="6.58377">
        <ele>1817.602</ele>
        <time>2020-01-27 15:15:26</time>
      </trkpt>
      <trkpt lat="45.56393" lon="6.58387">
        <ele>1817.7615</ele>
        <time>2020-01-27 15:15:28</time>
      </trkpt>
      <trkpt lat="45.56391" lon="6.58391">
        <ele>1815.5874</ele>
        <time>2020-01-27 15:15:29</time>
      </trkpt>
      <trkpt lat="45.56388" lon="6.584">
        <ele>1815.4009</ele>
        <time>2020-01-27 15:15:31</time>
      </trkpt>
      <trkpt lat="45.56384" lon="6.58414">
        <ele>1813.0549</ele>
        <time>2020-01-27 15:15:34</time>
      </trkpt>
      <trkpt lat="45.56367" lon="6.58467">
        <ele>1806.5142</ele>
        <time>2020-01-27 15:15:47</time>
      </trkpt>
      <trkpt lat="45.56365" lon="6.58471">
        <ele>1805.9604</ele>
        <time>2020-01-27 15:15:48</time>
      </trkpt>
      <trkpt lat="45.56359" lon="6.58487">
        <ele>1804.9966</ele>
        <time>2020-01-27 15:15:52</time>
      </trkpt>
      <trkpt lat="45.5635" lon="6.58505">
        <ele>1803.6775</ele>
        <time>2020-01-27 15:15:58</time>
      </trkpt>
      <trkpt lat="45.5635" lon="6.58508">
        <ele>1803.4355</ele>
        <time>2020-01-27 15:15:59</time>
      </trkpt>
      <trkpt lat="45.56349" lon="6.58512">
        <ele>1802.3115</ele>
        <time>2020-01-27 15:16:01</time>
      </trkpt>
      <trkpt lat="45.5635" lon="6.58517">
        <ele>1801.0156</ele>
        <time>2020-01-27 15:16:03</time>
      </trkpt>
      <trkpt lat="45.56354" lon="6.58528">
        <ele>1799.269</ele>
        <time>2020-01-27 15:16:06</time>
      </trkpt>
      <trkpt lat="45.56359" lon="6.58537">
        <ele>1798.2212</ele>
        <time>2020-01-27 15:16:09</time>
      </trkpt>
      <trkpt lat="45.56369" lon="6.58553">
        <ele>1800.4316</ele>
        <time>2020-01-27 15:16:14</time>
      </trkpt>
      <trkpt lat="45.56387" lon="6.58589">
        <ele>1799.5186</ele>
        <time>2020-01-27 15:16:23</time>
      </trkpt>
      <trkpt lat="45.56438" lon="6.5867">
        <ele>1792.186</ele>
        <time>2020-01-27 15:16:50</time>
      </trkpt>
      <trkpt lat="45.56438" lon="6.58671">
        <ele>1792.4282</ele>
        <time>2020-01-27 15:16:52</time>
      </trkpt>
      <trkpt lat="45.56441" lon="6.58675">
        <ele>1793.9019</ele>
        <time>2020-01-27 15:17:11</time>
      </trkpt>
      <trkpt lat="45.5644" lon="6.58676">
        <ele>1793.9683</ele>
        <time>2020-01-27 15:17:12</time>
      </trkpt>
      <trkpt lat="45.5644" lon="6.58676">
        <ele>1793.614</ele>
        <time>2020-01-27 15:17:19</time>
      </trkpt>
      <trkpt lat="45.56439" lon="6.58681">
        <ele>1793.8076</ele>
        <time>2020-01-27 15:17:22</time>
      </trkpt>
      <trkpt lat="45.56436" lon="6.58693">
        <ele>1795.4287</ele>
        <time>2020-01-27 15:17:26</time>
      </trkpt>
      <trkpt lat="45.56435" lon="6.58695">
        <ele>1792.7466</ele>
        <time>2020-01-27 15:17:27</time>
      </trkpt>
      <trkpt lat="45.56433" lon="6.58698">
        <ele>1791.364</ele>
        <time>2020-01-27 15:17:28</time>
      </trkpt>
      <trkpt lat="45.56429" lon="6.58702">
        <ele>1789.9292</ele>
        <time>2020-01-27 15:17:30</time>
      </trkpt>
      <trkpt lat="45.56427" lon="6.58703">
        <ele>1788.4485</ele>
        <time>2020-01-27 15:17:31</time>
      </trkpt>
      <trkpt lat="45.56425" lon="6.58704">
        <ele>1788.6746</ele>
        <time>2020-01-27 15:17:32</time>
      </trkpt>
      <trkpt lat="45.56417" lon="6.58707">
        <ele>1787.4729</ele>
        <time>2020-01-27 15:17:35</time>
      </trkpt>
      <trkpt lat="45.56415" lon="6.58711">
        <ele>1787.2646</ele>
        <time>2020-01-27 15:17:36</time>
      </trkpt>
      <trkpt lat="45.56411" lon="6.58716">
        <ele>1786.6597</ele>
        <time>2020-01-27 15:17:38</time>
      </trkpt>
      <trkpt lat="45.56409" lon="6.58718">
        <ele>1785.685</ele>
        <time>2020-01-27 15:17:39</time>
      </trkpt>
      <trkpt lat="45.56403" lon="6.5872">
        <ele>1786.3865</ele>
        <time>2020-01-27 15:17:41</time>
      </trkpt>
      <trkpt lat="45.56386" lon="6.58726">
        <ele>1783.5854</ele>
        <time>2020-01-27 15:17:46</time>
      </trkpt>
      <trkpt lat="45.5638" lon="6.58732">
        <ele>1782.6729</ele>
        <time>2020-01-27 15:17:48</time>
      </trkpt>
      <trkpt lat="45.56376" lon="6.58739">
        <ele>1782.6133</ele>
        <time>2020-01-27 15:17:50</time>
      </trkpt>
      <trkpt lat="45.56374" lon="6.58742">
        <ele>1783.1436</ele>
        <time>2020-01-27 15:17:51</time>
      </trkpt>
      <trkpt lat="45.56371" lon="6.58746">
        <ele>1782.7473</ele>
        <time>2020-01-27 15:17:53</time>
      </trkpt>
      <trkpt lat="45.56366" lon="6.58748">
        <ele>1781.9075</ele>
        <time>2020-01-27 15:17:55</time>
      </trkpt>
      <trkpt lat="45.56365" lon="6.58748">
        <ele>1781.7676</ele>
        <time>2020-01-27 15:17:56</time>
      </trkpt>
      <trkpt lat="45.56364" lon="6.58748">
        <ele>1781.3545</ele>
        <time>2020-01-27 15:17:57</time>
      </trkpt>
      <trkpt lat="45.56364" lon="6.58747">
        <ele>1781.2368</ele>
        <time>2020-01-27 15:17:58</time>
      </trkpt>
      <trkpt lat="45.56364" lon="6.58746">
        <ele>1781.6633</ele>
        <time>2020-01-27 15:17:59</time>
      </trkpt>
      <trkpt lat="45.56364" lon="6.58745">
        <ele>1781.3511</ele>
        <time>2020-01-27 15:18:00</time>
      </trkpt>
      <trkpt lat="45.56364" lon="6.58744">
        <ele>1781.8359</ele>
        <time>2020-01-27 15:18:01</time>
      </trkpt>
      <trkpt lat="45.56365" lon="6.58743">
        <ele>1781.9478</ele>
        <time>2020-01-27 15:18:02</time>
      </trkpt>
      <trkpt lat="45.56364" lon="6.5874">
        <ele>1779.8096</ele>
        <time>2020-01-27 15:18:03</time>
      </trkpt>
      <trkpt lat="45.56363" lon="6.58738">
        <ele>1778.2153</ele>
        <time>2020-01-27 15:18:04</time>
      </trkpt>
      <trkpt lat="45.56359" lon="6.58736">
        <ele>1774.5586</ele>
        <time>2020-01-27 15:18:07</time>
      </trkpt>
      <trkpt lat="45.56356" lon="6.58733">
        <ele>1774.4814</ele>
        <time>2020-01-27 15:18:09</time>
      </trkpt>
      <trkpt lat="45.56356" lon="6.58731">
        <ele>1774.4233</ele>
        <time>2020-01-27 15:18:10</time>
      </trkpt>
      <trkpt lat="45.56361" lon="6.58721">
        <ele>1772.2148</ele>
        <time>2020-01-27 15:18:14</time>
      </trkpt>
      <trkpt lat="45.5636" lon="6.58718">
        <ele>1769.4336</ele>
        <time>2020-01-27 15:18:15</time>
      </trkpt>
      <trkpt lat="45.56357" lon="6.58715">
        <ele>1764.9307</ele>
        <time>2020-01-27 15:18:17</time>
      </trkpt>
      <trkpt lat="45.56351" lon="6.58713">
        <ele>1763.708</ele>
        <time>2020-01-27 15:18:21</time>
      </trkpt>
      <trkpt lat="45.5635" lon="6.5871">
        <ele>1762.5957</ele>
        <time>2020-01-27 15:18:22</time>
      </trkpt>
      <trkpt lat="45.56351" lon="6.58705">
        <ele>1760.8906</ele>
        <time>2020-01-27 15:18:23</time>
      </trkpt>
      <trkpt lat="45.56354" lon="6.58679">
        <ele>1757.8699</ele>
        <time>2020-01-27 15:18:29</time>
      </trkpt>
      <trkpt lat="45.56355" lon="6.58673">
        <ele>1757.4287</ele>
        <time>2020-01-27 15:18:33</time>
      </trkpt>
      <trkpt lat="45.56355" lon="6.58674">
        <ele>1757.6699</ele>
        <time>2020-01-27 15:18:36</time>
      </trkpt>
      <trkpt lat="45.56352" lon="6.58673">
        <ele>1757.0994</ele>
        <time>2020-01-27 15:18:38</time>
      </trkpt>
      <trkpt lat="45.56348" lon="6.5867">
        <ele>1756.4902</ele>
        <time>2020-01-27 15:18:40</time>
      </trkpt>
      <trkpt lat="45.56344" lon="6.58667">
        <ele>1755.0112</ele>
        <time>2020-01-27 15:18:43</time>
      </trkpt>
      <trkpt lat="45.56343" lon="6.58667">
        <ele>1755.6287</ele>
        <time>2020-01-27 15:18:44</time>
      </trkpt>
      <trkpt lat="45.56342" lon="6.5867">
        <ele>1755.5723</ele>
        <time>2020-01-27 15:18:45</time>
      </trkpt>
      <trkpt lat="45.56339" lon="6.58681">
        <ele>1753.623</ele>
        <time>2020-01-27 15:18:48</time>
      </trkpt>
      <trkpt lat="45.56334" lon="6.58686">
        <ele>1751.7358</ele>
        <time>2020-01-27 15:18:51</time>
      </trkpt>
      <trkpt lat="45.56332" lon="6.58684">
        <ele>1750.6064</ele>
        <time>2020-01-27 15:18:52</time>
      </trkpt>
      <trkpt lat="45.56329" lon="6.58675">
        <ele>1746.9314</ele>
        <time>2020-01-27 15:18:54</time>
      </trkpt>
      <trkpt lat="45.56327" lon="6.58672">
        <ele>1744.7134</ele>
        <time>2020-01-27 15:18:55</time>
      </trkpt>
      <trkpt lat="45.56323" lon="6.58672">
        <ele>1744.1069</ele>
        <time>2020-01-27 15:18:57</time>
      </trkpt>
      <trkpt lat="45.56322" lon="6.58672">
        <ele>1741.7432</ele>
        <time>2020-01-27 15:18:58</time>
      </trkpt>
      <trkpt lat="45.5632" lon="6.5867">
        <ele>1740.7117</ele>
        <time>2020-01-27 15:18:59</time>
      </trkpt>
      <trkpt lat="45.56316" lon="6.58666">
        <ele>1739.8296</ele>
        <time>2020-01-27 15:19:01</time>
      </trkpt>
      <trkpt lat="45.56314" lon="6.58666">
        <ele>1737.2405</ele>
        <time>2020-01-27 15:19:02</time>
      </trkpt>
      <trkpt lat="45.5631" lon="6.58665">
        <ele>1735.648</ele>
        <time>2020-01-27 15:19:04</time>
      </trkpt>
      <trkpt lat="45.56308" lon="6.58662">
        <ele>1734.1265</ele>
        <time>2020-01-27 15:19:05</time>
      </trkpt>
      <trkpt lat="45.56306" lon="6.5866">
        <ele>1733.9619</ele>
        <time>2020-01-27 15:19:06</time>
      </trkpt>
      <trkpt lat="45.56304" lon="6.58661">
        <ele>1733.564</ele>
        <time>2020-01-27 15:19:07</time>
      </trkpt>
      <trkpt lat="45.56303" lon="6.58664">
        <ele>1733.6611</ele>
        <time>2020-01-27 15:19:08</time>
      </trkpt>
      <trkpt lat="45.56302" lon="6.58668">
        <ele>1733.6531</ele>
        <time>2020-01-27 15:19:09</time>
      </trkpt>
      <trkpt lat="45.56301" lon="6.58671">
        <ele>1733.2378</ele>
        <time>2020-01-27 15:19:10</time>
      </trkpt>
      <trkpt lat="45.56298" lon="6.58672">
        <ele>1731.9688</ele>
        <time>2020-01-27 15:19:12</time>
      </trkpt>
      <trkpt lat="45.56296" lon="6.58669">
        <ele>1729.6187</ele>
        <time>2020-01-27 15:19:13</time>
      </trkpt>
      <trkpt lat="45.56293" lon="6.58666">
        <ele>1728.0374</ele>
        <time>2020-01-27 15:19:15</time>
      </trkpt>
      <trkpt lat="45.56292" lon="6.58667">
        <ele>1728.0701</ele>
        <time>2020-01-27 15:19:16</time>
      </trkpt>
      <trkpt lat="45.56291" lon="6.58668">
        <ele>1727.1948</ele>
        <time>2020-01-27 15:19:17</time>
      </trkpt>
      <trkpt lat="45.56288" lon="6.58673">
        <ele>1722.6187</ele>
        <time>2020-01-27 15:19:19</time>
      </trkpt>
      <trkpt lat="45.56286" lon="6.58679">
        <ele>1721.7971</ele>
        <time>2020-01-27 15:19:21</time>
      </trkpt>
      <trkpt lat="45.56283" lon="6.58683">
        <ele>1717.6191</ele>
        <time>2020-01-27 15:19:23</time>
      </trkpt>
      <trkpt lat="45.56281" lon="6.58682">
        <ele>1718.3501</ele>
        <time>2020-01-27 15:19:24</time>
      </trkpt>
      <trkpt lat="45.5628" lon="6.58679">
        <ele>1718.4077</ele>
        <time>2020-01-27 15:19:25</time>
      </trkpt>
      <trkpt lat="45.56278" lon="6.5867">
        <ele>1720.1624</ele>
        <time>2020-01-27 15:19:28</time>
      </trkpt>
      <trkpt lat="45.56276" lon="6.58669">
        <ele>1720.1602</ele>
        <time>2020-01-27 15:19:29</time>
      </trkpt>
      <trkpt lat="45.56272" lon="6.58673">
        <ele>1718.2566</ele>
        <time>2020-01-27 15:19:31</time>
      </trkpt>
      <trkpt lat="45.56272" lon="6.58675">
        <ele>1716.4475</ele>
        <time>2020-01-27 15:19:33</time>
      </trkpt>
      <trkpt lat="45.56273" lon="6.58675">
        <ele>1715.9619</ele>
        <time>2020-01-27 15:19:40</time>
      </trkpt>
      <trkpt lat="45.56272" lon="6.58674">
        <ele>1716.627</ele>
        <time>2020-01-27 15:19:41</time>
      </trkpt>
      <trkpt lat="45.56271" lon="6.58673">
        <ele>1716.4663</ele>
        <time>2020-01-27 15:19:42</time>
      </trkpt>
      <trkpt lat="45.5627" lon="6.58669">
        <ele>1716.8696</ele>
        <time>2020-01-27 15:19:43</time>
      </trkpt>
      <trkpt lat="45.56269" lon="6.58666">
        <ele>1715.9688</ele>
        <time>2020-01-27 15:19:44</time>
      </trkpt>
      <trkpt lat="45.56268" lon="6.58659">
        <ele>1713.2134</ele>
        <time>2020-01-27 15:19:46</time>
      </trkpt>
      <trkpt lat="45.56264" lon="6.58637">
        <ele>1710.7109</ele>
        <time>2020-01-27 15:19:51</time>
      </trkpt>
      <trkpt lat="45.56263" lon="6.58634">
        <ele>1711.7241</ele>
        <time>2020-01-27 15:19:52</time>
      </trkpt>
      <trkpt lat="45.56262" lon="6.58633">
        <ele>1712.3574</ele>
        <time>2020-01-27 15:19:53</time>
      </trkpt>
      <trkpt lat="45.56256" lon="6.58636">
        <ele>1710.9478</ele>
        <time>2020-01-27 15:19:57</time>
      </trkpt>
      <trkpt lat="45.56253" lon="6.58636">
        <ele>1710.2573</ele>
        <time>2020-01-27 15:19:58</time>
      </trkpt>
      <trkpt lat="45.56251" lon="6.58635">
        <ele>1709.5117</ele>
        <time>2020-01-27 15:19:59</time>
      </trkpt>
      <trkpt lat="45.56247" lon="6.58632">
        <ele>1706.5471</ele>
        <time>2020-01-27 15:20:01</time>
      </trkpt>
      <trkpt lat="45.56246" lon="6.5863">
        <ele>1706.6228</ele>
        <time>2020-01-27 15:20:02</time>
      </trkpt>
      <trkpt lat="45.56244" lon="6.58628">
        <ele>1705.4277</ele>
        <time>2020-01-27 15:20:03</time>
      </trkpt>
      <trkpt lat="45.56243" lon="6.58625">
        <ele>1704.3804</ele>
        <time>2020-01-27 15:20:04</time>
      </trkpt>
      <trkpt lat="45.56241" lon="6.58623">
        <ele>1704.2988</ele>
        <time>2020-01-27 15:20:05</time>
      </trkpt>
      <trkpt lat="45.5624" lon="6.58624">
        <ele>1704.0713</ele>
        <time>2020-01-27 15:20:06</time>
      </trkpt>
      <trkpt lat="45.56237" lon="6.58629">
        <ele>1704.0315</ele>
        <time>2020-01-27 15:20:07</time>
      </trkpt>
      <trkpt lat="45.56234" lon="6.58636">
        <ele>1701.9565</ele>
        <time>2020-01-27 15:20:09</time>
      </trkpt>
      <trkpt lat="45.56233" lon="6.58638">
        <ele>1702.335</ele>
        <time>2020-01-27 15:20:10</time>
      </trkpt>
      <trkpt lat="45.56231" lon="6.58639">
        <ele>1702.7627</ele>
        <time>2020-01-27 15:20:14</time>
      </trkpt>
      <trkpt lat="45.56229" lon="6.58636">
        <ele>1701.5747</ele>
        <time>2020-01-27 15:20:16</time>
      </trkpt>
      <trkpt lat="45.56228" lon="6.58633">
        <ele>1701.4878</ele>
        <time>2020-01-27 15:20:17</time>
      </trkpt>
      <trkpt lat="45.56227" lon="6.5863">
        <ele>1700.9751</ele>
        <time>2020-01-27 15:20:18</time>
      </trkpt>
      <trkpt lat="45.56226" lon="6.58624">
        <ele>1698.834</ele>
        <time>2020-01-27 15:20:20</time>
      </trkpt>
      <trkpt lat="45.56221" lon="6.58616">
        <ele>1697.3721</ele>
        <time>2020-01-27 15:20:23</time>
      </trkpt>
      <trkpt lat="45.56216" lon="6.58612">
        <ele>1694.469</ele>
        <time>2020-01-27 15:20:25</time>
      </trkpt>
      <trkpt lat="45.56214" lon="6.58611">
        <ele>1692.8779</ele>
        <time>2020-01-27 15:20:27</time>
      </trkpt>
      <trkpt lat="45.56213" lon="6.5861">
        <ele>1693.6284</ele>
        <time>2020-01-27 15:20:28</time>
      </trkpt>
      <trkpt lat="45.56213" lon="6.58612">
        <ele>1694.0574</ele>
        <time>2020-01-27 15:20:39</time>
      </trkpt>
      <trkpt lat="45.56213" lon="6.58612">
        <ele>1694.3574</ele>
        <time>2020-01-27 15:20:40</time>
      </trkpt>
      <trkpt lat="45.56214" lon="6.58613">
        <ele>1693.8022</ele>
        <time>2020-01-27 15:20:43</time>
      </trkpt>
      <trkpt lat="45.56214" lon="6.58613">
        <ele>1693.6787</ele>
        <time>2020-01-27 15:20:44</time>
      </trkpt>
      <trkpt lat="45.56212" lon="6.58616">
        <ele>1694.44</ele>
        <time>2020-01-27 15:21:02</time>
      </trkpt>
      <trkpt lat="45.56209" lon="6.58615">
        <ele>1693.623</ele>
        <time>2020-01-27 15:21:04</time>
      </trkpt>
      <trkpt lat="45.56208" lon="6.58615">
        <ele>1694.3882</ele>
        <time>2020-01-27 15:21:05</time>
      </trkpt>
      <trkpt lat="45.56205" lon="6.58616">
        <ele>1693.8425</ele>
        <time>2020-01-27 15:21:06</time>
      </trkpt>
      <trkpt lat="45.56203" lon="6.58618">
        <ele>1691.0127</ele>
        <time>2020-01-27 15:21:07</time>
      </trkpt>
      <trkpt lat="45.56202" lon="6.58622">
        <ele>1690.988</ele>
        <time>2020-01-27 15:21:08</time>
      </trkpt>
      <trkpt lat="45.56201" lon="6.58626">
        <ele>1689.5737</ele>
        <time>2020-01-27 15:21:09</time>
      </trkpt>
      <trkpt lat="45.562" lon="6.58635">
        <ele>1690.5801</ele>
        <time>2020-01-27 15:21:11</time>
      </trkpt>
      <trkpt lat="45.56197" lon="6.58646">
        <ele>1690.7144</ele>
        <time>2020-01-27 15:21:14</time>
      </trkpt>
      <trkpt lat="45.56195" lon="6.58649">
        <ele>1691.9966</ele>
        <time>2020-01-27 15:21:15</time>
      </trkpt>
      <trkpt lat="45.56193" lon="6.58651">
        <ele>1691.918</ele>
        <time>2020-01-27 15:21:16</time>
      </trkpt>
      <trkpt lat="45.56192" lon="6.58651">
        <ele>1692.4453</ele>
        <time>2020-01-27 15:21:17</time>
      </trkpt>
      <trkpt lat="45.5619" lon="6.58651">
        <ele>1692.4302</ele>
        <time>2020-01-27 15:21:18</time>
      </trkpt>
      <trkpt lat="45.56188" lon="6.5865">
        <ele>1693.1104</ele>
        <time>2020-01-27 15:21:19</time>
      </trkpt>
      <trkpt lat="45.56187" lon="6.58648">
        <ele>1693.2854</ele>
        <time>2020-01-27 15:21:20</time>
      </trkpt>
      <trkpt lat="45.56185" lon="6.58645">
        <ele>1693.7427</ele>
        <time>2020-01-27 15:21:21</time>
      </trkpt>
      <trkpt lat="45.56185" lon="6.58641">
        <ele>1693.4883</ele>
        <time>2020-01-27 15:21:22</time>
      </trkpt>
      <trkpt lat="45.56186" lon="6.58637">
        <ele>1693.4116</ele>
        <time>2020-01-27 15:21:23</time>
      </trkpt>
      <trkpt lat="45.56187" lon="6.58632">
        <ele>1693.4722</ele>
        <time>2020-01-27 15:21:24</time>
      </trkpt>
      <trkpt lat="45.56187" lon="6.58622">
        <ele>1694.2188</ele>
        <time>2020-01-27 15:21:26</time>
      </trkpt>
      <trkpt lat="45.56186" lon="6.58619">
        <ele>1694.8403</ele>
        <time>2020-01-27 15:21:27</time>
      </trkpt>
      <trkpt lat="45.56183" lon="6.58617">
        <ele>1694.3887</ele>
        <time>2020-01-27 15:21:28</time>
      </trkpt>
      <trkpt lat="45.5618" lon="6.58618">
        <ele>1692.5068</ele>
        <time>2020-01-27 15:21:29</time>
      </trkpt>
      <trkpt lat="45.56178" lon="6.58621">
        <ele>1693.2478</ele>
        <time>2020-01-27 15:21:30</time>
      </trkpt>
      <trkpt lat="45.56176" lon="6.58626">
        <ele>1693.0874</ele>
        <time>2020-01-27 15:21:31</time>
      </trkpt>
      <trkpt lat="45.56172" lon="6.58636">
        <ele>1695.2788</ele>
        <time>2020-01-27 15:21:33</time>
      </trkpt>
      <trkpt lat="45.56168" lon="6.58639">
        <ele>1695.4282</ele>
        <time>2020-01-27 15:21:34</time>
      </trkpt>
      <trkpt lat="45.56165" lon="6.58639">
        <ele>1696.2715</ele>
        <time>2020-01-27 15:21:35</time>
      </trkpt>
      <trkpt lat="45.56161" lon="6.58626">
        <ele>1696.5479</ele>
        <time>2020-01-27 15:21:36</time>
      </trkpt>
      <trkpt lat="45.56157" lon="6.58624">
        <ele>1696.968</ele>
        <time>2020-01-27 15:21:37</time>
      </trkpt>
      <trkpt lat="45.56154" lon="6.58626">
        <ele>1696.9492</ele>
        <time>2020-01-27 15:21:38</time>
      </trkpt>
      <trkpt lat="45.56152" lon="6.5863">
        <ele>1697.4868</ele>
        <time>2020-01-27 15:21:39</time>
      </trkpt>
      <trkpt lat="45.5615" lon="6.58634">
        <ele>1697.7881</ele>
        <time>2020-01-27 15:21:40</time>
      </trkpt>
      <trkpt lat="45.56149" lon="6.58635">
        <ele>1695.7856</ele>
        <time>2020-01-27 15:21:41</time>
      </trkpt>
      <trkpt lat="45.56145" lon="6.58634">
        <ele>1696.4805</ele>
        <time>2020-01-27 15:21:42</time>
      </trkpt>
      <trkpt lat="45.56141" lon="6.58628">
        <ele>1696.5332</ele>
        <time>2020-01-27 15:21:44</time>
      </trkpt>
      <trkpt lat="45.56141" lon="6.58625">
        <ele>1695.8735</ele>
        <time>2020-01-27 15:21:45</time>
      </trkpt>
      <trkpt lat="45.5614" lon="6.58616">
        <ele>1695.0154</ele>
        <time>2020-01-27 15:21:47</time>
      </trkpt>
      <trkpt lat="45.56139" lon="6.58612">
        <ele>1695.52</ele>
        <time>2020-01-27 15:21:48</time>
      </trkpt>
      <trkpt lat="45.56136" lon="6.58609">
        <ele>1698.2515</ele>
        <time>2020-01-27 15:21:50</time>
      </trkpt>
      <trkpt lat="45.56135" lon="6.58609">
        <ele>1696.9595</ele>
        <time>2020-01-27 15:21:53</time>
      </trkpt>
      <trkpt lat="45.56133" lon="6.58607">
        <ele>1694.3145</ele>
        <time>2020-01-27 15:21:54</time>
      </trkpt>
      <trkpt lat="45.56129" lon="6.58607">
        <ele>1692.0339</ele>
        <time>2020-01-27 15:21:55</time>
      </trkpt>
      <trkpt lat="45.56122" lon="6.58608">
        <ele>1687.2725</ele>
        <time>2020-01-27 15:21:57</time>
      </trkpt>
      <trkpt lat="45.5612" lon="6.58611">
        <ele>1686.1855</ele>
        <time>2020-01-27 15:21:58</time>
      </trkpt>
      <trkpt lat="45.56118" lon="6.58613">
        <ele>1684.2378</ele>
        <time>2020-01-27 15:21:59</time>
      </trkpt>
      <trkpt lat="45.56117" lon="6.58616">
        <ele>1683.5283</ele>
        <time>2020-01-27 15:22:00</time>
      </trkpt>
      <trkpt lat="45.56119" lon="6.58618">
        <ele>1677.4922</ele>
        <time>2020-01-27 15:22:02</time>
      </trkpt>
      <trkpt lat="45.56118" lon="6.58619">
        <ele>1674.5483</ele>
        <time>2020-01-27 15:22:39</time>
      </trkpt>
      <trkpt lat="45.56118" lon="6.5862">
        <ele>1674.8647</ele>
        <time>2020-01-27 15:22:46</time>
      </trkpt>
      <trkpt lat="45.56117" lon="6.5862">
        <ele>1674.429</ele>
        <time>2020-01-27 15:22:47</time>
      </trkpt>
      <trkpt lat="45.56116" lon="6.58621">
        <ele>1674.8486</ele>
        <time>2020-01-27 15:22:48</time>
      </trkpt>
      <trkpt lat="45.56114" lon="6.5862">
        <ele>1673.3271</ele>
        <time>2020-01-27 15:22:49</time>
      </trkpt>
      <trkpt lat="45.56112" lon="6.58621">
        <ele>1670.7358</ele>
        <time>2020-01-27 15:22:51</time>
      </trkpt>
      <trkpt lat="45.56111" lon="6.58626">
        <ele>1666.9346</ele>
        <time>2020-01-27 15:23:22</time>
      </trkpt>
      <trkpt lat="45.56109" lon="6.58626">
        <ele>1666.3196</ele>
        <time>2020-01-27 15:23:23</time>
      </trkpt>
      <trkpt lat="45.56107" lon="6.58627">
        <ele>1666.1133</ele>
        <time>2020-01-27 15:23:24</time>
      </trkpt>
      <trkpt lat="45.56104" lon="6.58628">
        <ele>1666.6218</ele>
        <time>2020-01-27 15:23:25</time>
      </trkpt>
      <trkpt lat="45.56099" lon="6.58629">
        <ele>1666.6846</ele>
        <time>2020-01-27 15:23:27</time>
      </trkpt>
      <trkpt lat="45.56096" lon="6.5863">
        <ele>1667.0576</ele>
        <time>2020-01-27 15:23:28</time>
      </trkpt>
      <trkpt lat="45.56091" lon="6.58632">
        <ele>1666.7769</ele>
        <time>2020-01-27 15:23:30</time>
      </trkpt>
      <trkpt lat="45.56088" lon="6.58633">
        <ele>1668.1489</ele>
        <time>2020-01-27 15:23:31</time>
      </trkpt>
      <trkpt lat="45.56086" lon="6.58634">
        <ele>1669.0234</ele>
        <time>2020-01-27 15:23:32</time>
      </trkpt>
      <trkpt lat="45.56078" lon="6.5864">
        <ele>1669.8289</ele>
        <time>2020-01-27 15:23:35</time>
      </trkpt>
      <trkpt lat="45.56072" lon="6.58645">
        <ele>1670.4365</ele>
        <time>2020-01-27 15:23:37</time>
      </trkpt>
      <trkpt lat="45.5607" lon="6.58649">
        <ele>1667.2632</ele>
        <time>2020-01-27 15:23:38</time>
      </trkpt>
      <trkpt lat="45.56047" lon="6.58689">
        <ele>1663.6484</ele>
        <time>2020-01-27 15:23:48</time>
      </trkpt>
      <trkpt lat="45.56032" lon="6.58714">
        <ele>1662.1951</ele>
        <time>2020-01-27 15:23:55</time>
      </trkpt>
      <trkpt lat="45.56027" lon="6.5872">
        <ele>1661.1157</ele>
        <time>2020-01-27 15:23:57</time>
      </trkpt>
      <trkpt lat="45.56006" lon="6.58741">
        <ele>1661.4419</ele>
        <time>2020-01-27 15:24:05</time>
      </trkpt>
      <trkpt lat="45.55994" lon="6.58749">
        <ele>1660.0417</ele>
        <time>2020-01-27 15:24:09</time>
      </trkpt>
      <trkpt lat="45.55967" lon="6.58766">
        <ele>1661.2593</ele>
        <time>2020-01-27 15:24:18</time>
      </trkpt>
      <trkpt lat="45.55964" lon="6.5877">
        <ele>1660.6318</ele>
        <time>2020-01-27 15:24:19</time>
      </trkpt>
      <trkpt lat="45.5596" lon="6.58775">
        <ele>1660.1802</ele>
        <time>2020-01-27 15:24:21</time>
      </trkpt>
      <trkpt lat="45.55956" lon="6.58776">
        <ele>1659.0874</ele>
        <time>2020-01-27 15:24:22</time>
      </trkpt>
      <trkpt lat="45.55953" lon="6.58778">
        <ele>1658.9268</ele>
        <time>2020-01-27 15:24:23</time>
      </trkpt>
      <trkpt lat="45.55943" lon="6.58788">
        <ele>1657.3433</ele>
        <time>2020-01-27 15:24:27</time>
      </trkpt>
      <trkpt lat="45.55941" lon="6.58789">
        <ele>1658.0542</ele>
        <time>2020-01-27 15:24:28</time>
      </trkpt>
      <trkpt lat="45.55933" lon="6.58793">
        <ele>1655.4224</ele>
        <time>2020-01-27 15:24:31</time>
      </trkpt>
      <trkpt lat="45.55931" lon="6.58796">
        <ele>1655.9753</ele>
        <time>2020-01-27 15:24:32</time>
      </trkpt>
      <trkpt lat="45.55929" lon="6.58799">
        <ele>1655.5103</ele>
        <time>2020-01-27 15:24:33</time>
      </trkpt>
      <trkpt lat="45.55921" lon="6.58807">
        <ele>1652.5869</ele>
        <time>2020-01-27 15:24:37</time>
      </trkpt>
      <trkpt lat="45.55919" lon="6.58809">
        <ele>1651.5684</ele>
        <time>2020-01-27 15:24:38</time>
      </trkpt>
      <trkpt lat="45.5591" lon="6.58818">
        <ele>1653.2185</ele>
        <time>2020-01-27 15:24:42</time>
      </trkpt>
      <trkpt lat="45.55896" lon="6.58834">
        <ele>1651.7058</ele>
        <time>2020-01-27 15:24:49</time>
      </trkpt>
      <trkpt lat="45.55888" lon="6.58844">
        <ele>1647.9763</ele>
        <time>2020-01-27 15:24:54</time>
      </trkpt>
      <trkpt lat="45.55882" lon="6.58859">
        <ele>1645.2056</ele>
        <time>2020-01-27 15:24:58</time>
      </trkpt>
      <trkpt lat="45.55881" lon="6.58863">
        <ele>1645.0259</ele>
        <time>2020-01-27 15:24:59</time>
      </trkpt>
      <trkpt lat="45.5588" lon="6.58867">
        <ele>1642.8306</ele>
        <time>2020-01-27 15:25:00</time>
      </trkpt>
      <trkpt lat="45.5588" lon="6.58875">
        <ele>1642.8818</ele>
        <time>2020-01-27 15:25:02</time>
      </trkpt>
      <trkpt lat="45.55879" lon="6.5888">
        <ele>1644.0571</ele>
        <time>2020-01-27 15:25:04</time>
      </trkpt>
      <trkpt lat="45.55879" lon="6.58882">
        <ele>1643.7764</ele>
        <time>2020-01-27 15:25:05</time>
      </trkpt>
      <trkpt lat="45.55877" lon="6.58886">
        <ele>1645.1997</ele>
        <time>2020-01-27 15:25:10</time>
      </trkpt>
      <trkpt lat="45.55875" lon="6.58888">
        <ele>1646.1694</ele>
        <time>2020-01-27 15:25:11</time>
      </trkpt>
      <trkpt lat="45.55866" lon="6.58898">
        <ele>1647.2017</ele>
        <time>2020-01-27 15:25:15</time>
      </trkpt>
      <trkpt lat="45.55859" lon="6.58904">
        <ele>1648.1113</ele>
        <time>2020-01-27 15:25:18</time>
      </trkpt>
      <trkpt lat="45.55854" lon="6.58907">
        <ele>1648.499</ele>
        <time>2020-01-27 15:25:20</time>
      </trkpt>
      <trkpt lat="45.55848" lon="6.58909">
        <ele>1646.5444</ele>
        <time>2020-01-27 15:25:22</time>
      </trkpt>
      <trkpt lat="45.55838" lon="6.58914">
        <ele>1644.6985</ele>
        <time>2020-01-27 15:25:25</time>
      </trkpt>
      <trkpt lat="45.5583" lon="6.5892">
        <ele>1643.7466</ele>
        <time>2020-01-27 15:25:28</time>
      </trkpt>
      <trkpt lat="45.55825" lon="6.58927">
        <ele>1640.1738</ele>
        <time>2020-01-27 15:25:30</time>
      </trkpt>
      <trkpt lat="45.55823" lon="6.58932">
        <ele>1639.9058</ele>
        <time>2020-01-27 15:25:31</time>
      </trkpt>
      <trkpt lat="45.55823" lon="6.58937">
        <ele>1634.647</ele>
        <time>2020-01-27 15:25:32</time>
      </trkpt>
      <trkpt lat="45.55826" lon="6.58951">
        <ele>1631.7275</ele>
        <time>2020-01-27 15:25:35</time>
      </trkpt>
      <trkpt lat="45.55831" lon="6.58968">
        <ele>1632.2554</ele>
        <time>2020-01-27 15:25:41</time>
      </trkpt>
      <trkpt lat="45.55834" lon="6.5897">
        <ele>1627.866</ele>
        <time>2020-01-27 15:25:51</time>
      </trkpt>
      <trkpt lat="45.55834" lon="6.58971">
        <ele>1626.6465</ele>
        <time>2020-01-27 15:25:54</time>
      </trkpt>
      <trkpt lat="45.55836" lon="6.58972">
        <ele>1628.2883</ele>
        <time>2020-01-27 15:26:08</time>
      </trkpt>
      <trkpt lat="45.55836" lon="6.58972">
        <ele>1627.3728</ele>
        <time>2020-01-27 15:26:09</time>
      </trkpt>
      <trkpt lat="45.55838" lon="6.58975">
        <ele>1626.602</ele>
        <time>2020-01-27 15:26:13</time>
      </trkpt>
      <trkpt lat="45.55857" lon="6.59011">
        <ele>1623.6765</ele>
        <time>2020-01-27 15:26:27</time>
      </trkpt>
      <trkpt lat="45.55866" lon="6.59025">
        <ele>1619.3914</ele>
        <time>2020-01-27 15:26:32</time>
      </trkpt>
      <trkpt lat="45.55873" lon="6.5904">
        <ele>1616.3394</ele>
        <time>2020-01-27 15:26:37</time>
      </trkpt>
      <trkpt lat="45.55883" lon="6.59085">
        <ele>1610.898</ele>
        <time>2020-01-27 15:26:48</time>
      </trkpt>
      <trkpt lat="45.55884" lon="6.591">
        <ele>1611.1748</ele>
        <time>2020-01-27 15:26:51</time>
      </trkpt>
      <trkpt lat="45.55886" lon="6.59122">
        <ele>1605.2368</ele>
        <time>2020-01-27 15:26:56</time>
      </trkpt>
      <trkpt lat="45.55887" lon="6.59127">
        <ele>1605.4543</ele>
        <time>2020-01-27 15:26:57</time>
      </trkpt>
      <trkpt lat="45.55895" lon="6.59151">
        <ele>1605.581</ele>
        <time>2020-01-27 15:27:03</time>
      </trkpt>
      <trkpt lat="45.55895" lon="6.59156">
        <ele>1606.207</ele>
        <time>2020-01-27 15:27:04</time>
      </trkpt>
      <trkpt lat="45.55894" lon="6.59163">
        <ele>1605.3269</ele>
        <time>2020-01-27 15:27:06</time>
      </trkpt>
      <trkpt lat="45.55893" lon="6.59167">
        <ele>1605.1826</ele>
        <time>2020-01-27 15:27:07</time>
      </trkpt>
      <trkpt lat="45.55888" lon="6.59183">
        <ele>1607.5469</ele>
        <time>2020-01-27 15:27:12</time>
      </trkpt>
      <trkpt lat="45.55888" lon="6.59189">
        <ele>1609.2295</ele>
        <time>2020-01-27 15:27:15</time>
      </trkpt>
      <trkpt lat="45.55886" lon="6.59196">
        <ele>1608.5867</ele>
        <time>2020-01-27 15:27:18</time>
      </trkpt>
      <trkpt lat="45.55889" lon="6.59198">
        <ele>1607.2275</ele>
        <time>2020-01-27 15:27:41</time>
      </trkpt>
      <trkpt lat="45.55888" lon="6.59205">
        <ele>1607.561</ele>
        <time>2020-01-27 15:27:44</time>
      </trkpt>
      <trkpt lat="45.55885" lon="6.59216">
        <ele>1609.0557</ele>
        <time>2020-01-27 15:27:48</time>
      </trkpt>
      <trkpt lat="45.5588" lon="6.59232">
        <ele>1607.6287</ele>
        <time>2020-01-27 15:27:53</time>
      </trkpt>
      <trkpt lat="45.55878" lon="6.5925">
        <ele>1604.4836</ele>
        <time>2020-01-27 15:27:58</time>
      </trkpt>
      <trkpt lat="45.55878" lon="6.59274">
        <ele>1602.71</ele>
        <time>2020-01-27 15:28:04</time>
      </trkpt>
      <trkpt lat="45.5588" lon="6.59281">
        <ele>1602.9336</ele>
        <time>2020-01-27 15:28:06</time>
      </trkpt>
      <trkpt lat="45.55881" lon="6.59291">
        <ele>1598.8091</ele>
        <time>2020-01-27 15:28:08</time>
      </trkpt>
      <trkpt lat="45.55881" lon="6.593">
        <ele>1597.9961</ele>
        <time>2020-01-27 15:28:10</time>
      </trkpt>
      <trkpt lat="45.55879" lon="6.59318">
        <ele>1597.6836</ele>
        <time>2020-01-27 15:28:14</time>
      </trkpt>
      <trkpt lat="45.55873" lon="6.59337">
        <ele>1596.8013</ele>
        <time>2020-01-27 15:28:20</time>
      </trkpt>
      <trkpt lat="45.55871" lon="6.59341">
        <ele>1597.3335</ele>
        <time>2020-01-27 15:28:22</time>
      </trkpt>
      <trkpt lat="45.5587" lon="6.59343">
        <ele>1594.4478</ele>
        <time>2020-01-27 15:28:23</time>
      </trkpt>
      <trkpt lat="45.5587" lon="6.59346">
        <ele>1594.7048</ele>
        <time>2020-01-27 15:28:24</time>
      </trkpt>
      <trkpt lat="45.5587" lon="6.59354">
        <ele>1593.6143</ele>
        <time>2020-01-27 15:28:26</time>
      </trkpt>
      <trkpt lat="45.55872" lon="6.5936">
        <ele>1591.9453</ele>
        <time>2020-01-27 15:28:28</time>
      </trkpt>
      <trkpt lat="45.55872" lon="6.59366">
        <ele>1592.9116</ele>
        <time>2020-01-27 15:28:30</time>
      </trkpt>
      <trkpt lat="45.55873" lon="6.5937">
        <ele>1591.9492</ele>
        <time>2020-01-27 15:28:31</time>
      </trkpt>
      <trkpt lat="45.55873" lon="6.59389">
        <ele>1589.76</ele>
        <time>2020-01-27 15:28:36</time>
      </trkpt>
      <trkpt lat="45.55872" lon="6.59392">
        <ele>1590.2715</ele>
        <time>2020-01-27 15:28:37</time>
      </trkpt>
      <trkpt lat="45.55869" lon="6.59394">
        <ele>1588.2119</ele>
        <time>2020-01-27 15:28:39</time>
      </trkpt>
      <trkpt lat="45.55867" lon="6.59393">
        <ele>1585.2998</ele>
        <time>2020-01-27 15:28:40</time>
      </trkpt>
      <trkpt lat="45.55866" lon="6.59391">
        <ele>1585.5251</ele>
        <time>2020-01-27 15:28:41</time>
      </trkpt>
      <trkpt lat="45.55866" lon="6.59389">
        <ele>1584.3975</ele>
        <time>2020-01-27 15:28:42</time>
      </trkpt>
      <trkpt lat="45.55866" lon="6.59386">
        <ele>1584.6123</ele>
        <time>2020-01-27 15:28:43</time>
      </trkpt>
      <trkpt lat="45.55866" lon="6.59385">
        <ele>1584.0303</ele>
        <time>2020-01-27 15:28:44</time>
      </trkpt>
      <trkpt lat="45.55867" lon="6.59384">
        <ele>1585.0142</ele>
        <time>2020-01-27 15:28:47</time>
      </trkpt>
      <trkpt lat="45.55867" lon="6.59384">
        <ele>1584.5542</ele>
        <time>2020-01-27 15:28:49</time>
      </trkpt>
      <trkpt lat="45.55867" lon="6.59382">
        <ele>1587.241</ele>
        <time>2020-01-27 15:28:51</time>
      </trkpt>
      <trkpt lat="45.55867" lon="6.5938">
        <ele>1585.9805</ele>
        <time>2020-01-27 15:28:52</time>
      </trkpt>
      <trkpt lat="45.55868" lon="6.59369">
        <ele>1585.1841</ele>
        <time>2020-01-27 15:28:56</time>
      </trkpt>
      <trkpt lat="45.55868" lon="6.59366">
        <ele>1584.029</ele>
        <time>2020-01-27 15:28:57</time>
      </trkpt>
      <trkpt lat="45.55868" lon="6.59363">
        <ele>1584.3474</ele>
        <time>2020-01-27 15:28:58</time>
      </trkpt>
      <trkpt lat="45.55867" lon="6.5935">
        <ele>1578.9224</ele>
        <time>2020-01-27 15:29:01</time>
      </trkpt>
      <trkpt lat="45.55866" lon="6.59337">
        <ele>1574.3794</ele>
        <time>2020-01-27 15:29:04</time>
      </trkpt>
      <trkpt lat="45.55863" lon="6.59325">
        <ele>1576.2583</ele>
        <time>2020-01-27 15:29:07</time>
      </trkpt>
      <trkpt lat="45.55854" lon="6.59291">
        <ele>1570.6111</ele>
        <time>2020-01-27 15:29:17</time>
      </trkpt>
      <trkpt lat="45.55852" lon="6.59288">
        <ele>1571.1025</ele>
        <time>2020-01-27 15:29:18</time>
      </trkpt>
      <trkpt lat="45.55851" lon="6.59284">
        <ele>1570.0073</ele>
        <time>2020-01-27 15:29:19</time>
      </trkpt>
      <trkpt lat="45.55848" lon="6.59279">
        <ele>1571.2944</ele>
        <time>2020-01-27 15:29:21</time>
      </trkpt>
      <trkpt lat="45.55846" lon="6.59276">
        <ele>1571.7725</ele>
        <time>2020-01-27 15:29:22</time>
      </trkpt>
      <trkpt lat="45.55844" lon="6.5927">
        <ele>1571.2759</ele>
        <time>2020-01-27 15:29:24</time>
      </trkpt>
      <trkpt lat="45.55843" lon="6.59265">
        <ele>1571.3765</ele>
        <time>2020-01-27 15:29:25</time>
      </trkpt>
      <trkpt lat="45.55842" lon="6.59255">
        <ele>1571.4204</ele>
        <time>2020-01-27 15:29:28</time>
      </trkpt>
      <trkpt lat="45.55842" lon="6.59251">
        <ele>1572.145</ele>
        <time>2020-01-27 15:29:29</time>
      </trkpt>
      <trkpt lat="45.55844" lon="6.59245">
        <ele>1572.7441</ele>
        <time>2020-01-27 15:29:31</time>
      </trkpt>
      <trkpt lat="45.55845" lon="6.59232">
        <ele>1568.8682</ele>
        <time>2020-01-27 15:29:34</time>
      </trkpt>
      <trkpt lat="45.55843" lon="6.59222">
        <ele>1567.3965</ele>
        <time>2020-01-27 15:29:37</time>
      </trkpt>
      <trkpt lat="45.55842" lon="6.59211">
        <ele>1566.3599</ele>
        <time>2020-01-27 15:29:40</time>
      </trkpt>
      <trkpt lat="45.55838" lon="6.59189">
        <ele>1565.292</ele>
        <time>2020-01-27 15:29:47</time>
      </trkpt>
      <trkpt lat="45.55837" lon="6.59177">
        <ele>1567.0251</ele>
        <time>2020-01-27 15:29:51</time>
      </trkpt>
      <trkpt lat="45.55835" lon="6.59174">
        <ele>1567.0068</ele>
        <time>2020-01-27 15:29:52</time>
      </trkpt>
      <trkpt lat="45.55828" lon="6.59163">
        <ele>1568.5444</ele>
        <time>2020-01-27 15:29:56</time>
      </trkpt>
      <trkpt lat="45.55826" lon="6.59161">
        <ele>1569.6221</ele>
        <time>2020-01-27 15:29:57</time>
      </trkpt>
      <trkpt lat="45.55822" lon="6.59156">
        <ele>1567.4492</ele>
        <time>2020-01-27 15:29:59</time>
      </trkpt>
      <trkpt lat="45.55821" lon="6.59151">
        <ele>1566.9946</ele>
        <time>2020-01-27 15:30:00</time>
      </trkpt>
      <trkpt lat="45.55821" lon="6.59147">
        <ele>1565.9502</ele>
        <time>2020-01-27 15:30:01</time>
      </trkpt>
      <trkpt lat="45.55819" lon="6.59137">
        <ele>1563.0264</ele>
        <time>2020-01-27 15:30:03</time>
      </trkpt>
      <trkpt lat="45.55815" lon="6.59131">
        <ele>1563.0806</ele>
        <time>2020-01-27 15:30:05</time>
      </trkpt>
      <trkpt lat="45.55812" lon="6.59131">
        <ele>1563.2842</ele>
        <time>2020-01-27 15:30:06</time>
      </trkpt>
      <trkpt lat="45.5581" lon="6.59133">
        <ele>1561.8584</ele>
        <time>2020-01-27 15:30:07</time>
      </trkpt>
      <trkpt lat="45.55807" lon="6.5914">
        <ele>1561.6763</ele>
        <time>2020-01-27 15:30:09</time>
      </trkpt>
      <trkpt lat="45.55807" lon="6.59143">
        <ele>1561.7451</ele>
        <time>2020-01-27 15:30:10</time>
      </trkpt>
      <trkpt lat="45.55808" lon="6.59152">
        <ele>1562.4705</ele>
        <time>2020-01-27 15:30:13</time>
      </trkpt>
      <trkpt lat="45.55809" lon="6.59155">
        <ele>1561.8855</ele>
        <time>2020-01-27 15:30:14</time>
      </trkpt>
      <trkpt lat="45.5581" lon="6.59159">
        <ele>1561.4204</ele>
        <time>2020-01-27 15:30:15</time>
      </trkpt>
      <trkpt lat="45.55813" lon="6.59165">
        <ele>1562.7446</ele>
        <time>2020-01-27 15:30:17</time>
      </trkpt>
      <trkpt lat="45.55815" lon="6.59173">
        <ele>1560.3538</ele>
        <time>2020-01-27 15:30:19</time>
      </trkpt>
      <trkpt lat="45.55816" lon="6.5918">
        <ele>1560.7012</ele>
        <time>2020-01-27 15:30:21</time>
      </trkpt>
      <trkpt lat="45.55816" lon="6.59184">
        <ele>1561.0425</ele>
        <time>2020-01-27 15:30:22</time>
      </trkpt>
      <trkpt lat="45.55816" lon="6.59187">
        <ele>1560.4976</ele>
        <time>2020-01-27 15:30:23</time>
      </trkpt>
      <trkpt lat="45.55814" lon="6.59196">
        <ele>1560.6055</ele>
        <time>2020-01-27 15:30:27</time>
      </trkpt>
      <trkpt lat="45.55814" lon="6.59198">
        <ele>1559.9971</ele>
        <time>2020-01-27 15:30:28</time>
      </trkpt>
      <trkpt lat="45.55813" lon="6.59205">
        <ele>1559.4197</ele>
        <time>2020-01-27 15:30:30</time>
      </trkpt>
      <trkpt lat="45.55811" lon="6.59213">
        <ele>1560.3403</ele>
        <time>2020-01-27 15:30:33</time>
      </trkpt>
      <trkpt lat="45.5581" lon="6.59214">
        <ele>1559.2402</ele>
        <time>2020-01-27 15:30:34</time>
      </trkpt>
      <trkpt lat="45.55807" lon="6.5922">
        <ele>1561.6777</ele>
        <time>2020-01-27 15:30:56</time>
      </trkpt>
      <trkpt lat="45.55807" lon="6.59222">
        <ele>1562.1396</ele>
        <time>2020-01-27 15:30:57</time>
      </trkpt>
      <trkpt lat="45.55805" lon="6.59224">
        <ele>1564.0581</ele>
        <time>2020-01-27 15:30:59</time>
      </trkpt>
      <trkpt lat="45.55796" lon="6.59265">
        <ele>1558.2368</ele>
        <time>2020-01-27 15:31:10</time>
      </trkpt>
      <trkpt lat="45.55795" lon="6.59271">
        <ele>1554.9805</ele>
        <time>2020-01-27 15:31:12</time>
      </trkpt>
      <trkpt lat="45.55795" lon="6.59289">
        <ele>1551.5222</ele>
        <time>2020-01-27 15:31:16</time>
      </trkpt>
      <trkpt lat="45.55794" lon="6.593">
        <ele>1551.8877</ele>
        <time>2020-01-27 15:31:19</time>
      </trkpt>
      <trkpt lat="45.55787" lon="6.59337">
        <ele>1546.8108</ele>
        <time>2020-01-27 15:31:28</time>
      </trkpt>
      <trkpt lat="45.55788" lon="6.59341">
        <ele>1546.3583</ele>
        <time>2020-01-27 15:31:29</time>
      </trkpt>
      <trkpt lat="45.55792" lon="6.59364">
        <ele>1541.7191</ele>
        <time>2020-01-27 15:31:35</time>
      </trkpt>
      <trkpt lat="45.55792" lon="6.59372">
        <ele>1541.7236</ele>
        <time>2020-01-27 15:31:37</time>
      </trkpt>
      <trkpt lat="45.55793" lon="6.59378">
        <ele>1541.8894</ele>
        <time>2020-01-27 15:31:39</time>
      </trkpt>
      <trkpt lat="45.55795" lon="6.59388">
        <ele>1540.5996</ele>
        <time>2020-01-27 15:31:42</time>
      </trkpt>
      <trkpt lat="45.55795" lon="6.59391">
        <ele>1539.3337</ele>
        <time>2020-01-27 15:31:43</time>
      </trkpt>
      <trkpt lat="45.55795" lon="6.59394">
        <ele>1540.2046</ele>
        <time>2020-01-27 15:31:44</time>
      </trkpt>
      <trkpt lat="45.55796" lon="6.59402">
        <ele>1540.9169</ele>
        <time>2020-01-27 15:31:47</time>
      </trkpt>
      <trkpt lat="45.55796" lon="6.59409">
        <ele>1538.9492</ele>
        <time>2020-01-27 15:31:49</time>
      </trkpt>
      <trkpt lat="45.55793" lon="6.59419">
        <ele>1539.8196</ele>
        <time>2020-01-27 15:31:53</time>
      </trkpt>
      <trkpt lat="45.55795" lon="6.59426">
        <ele>1535.8661</ele>
        <time>2020-01-27 15:32:12</time>
      </trkpt>
      <trkpt lat="45.55795" lon="6.59428">
        <ele>1535.1433</ele>
        <time>2020-01-27 15:32:13</time>
      </trkpt>
      <trkpt lat="45.55795" lon="6.5944">
        <ele>1536.177</ele>
        <time>2020-01-27 15:32:17</time>
      </trkpt>
      <trkpt lat="45.55795" lon="6.59454">
        <ele>1534.7668</ele>
        <time>2020-01-27 15:32:22</time>
      </trkpt>
      <trkpt lat="45.55797" lon="6.59483">
        <ele>1531.226</ele>
        <time>2020-01-27 15:32:30</time>
      </trkpt>
      <trkpt lat="45.55797" lon="6.59497">
        <ele>1531.1743</ele>
        <time>2020-01-27 15:32:34</time>
      </trkpt>
      <trkpt lat="45.55796" lon="6.59501">
        <ele>1531.7773</ele>
        <time>2020-01-27 15:32:35</time>
      </trkpt>
      <trkpt lat="45.55794" lon="6.59506">
        <ele>1530.3942</ele>
        <time>2020-01-27 15:32:37</time>
      </trkpt>
      <trkpt lat="45.55792" lon="6.59514">
        <ele>1529.0508</ele>
        <time>2020-01-27 15:32:40</time>
      </trkpt>
      <trkpt lat="45.5579" lon="6.59518">
        <ele>1529.7505</ele>
        <time>2020-01-27 15:32:42</time>
      </trkpt>
      <trkpt lat="45.55788" lon="6.5952">
        <ele>1529.4232</ele>
        <time>2020-01-27 15:32:44</time>
      </trkpt>
      <trkpt lat="45.55788" lon="6.59521">
        <ele>1528.5682</ele>
        <time>2020-01-27 15:32:46</time>
      </trkpt>
      <trkpt lat="45.55789" lon="6.59522">
        <ele>1528.1859</ele>
        <time>2020-01-27 15:32:51</time>
      </trkpt>
      <trkpt lat="45.55789" lon="6.59522">
        <ele>1528.3489</ele>
        <time>2020-01-27 15:32:52</time>
      </trkpt>
      <trkpt lat="45.55788" lon="6.59527">
        <ele>1526.1338</ele>
        <time>2020-01-27 15:33:23</time>
      </trkpt>
      <trkpt lat="45.55787" lon="6.59528">
        <ele>1526.8246</ele>
        <time>2020-01-27 15:33:28</time>
      </trkpt>
      <trkpt lat="45.55787" lon="6.59531">
        <ele>1526.093</ele>
        <time>2020-01-27 15:33:29</time>
      </trkpt>
      <trkpt lat="45.55787" lon="6.59535">
        <ele>1526.588</ele>
        <time>2020-01-27 15:33:30</time>
      </trkpt>
      <trkpt lat="45.55787" lon="6.59537">
        <ele>1526.4897</ele>
        <time>2020-01-27 15:33:31</time>
      </trkpt>
      <trkpt lat="45.55787" lon="6.59539">
        <ele>1526.5204</ele>
        <time>2020-01-27 15:33:32</time>
      </trkpt>
      <trkpt lat="45.55787" lon="6.59541">
        <ele>1526.4622</ele>
        <time>2020-01-27 15:33:33</time>
      </trkpt>
      <trkpt lat="45.55787" lon="6.59546">
        <ele>1525.6786</ele>
        <time>2020-01-27 15:33:36</time>
      </trkpt>
      <trkpt lat="45.55786" lon="6.59548">
        <ele>1524.062</ele>
        <time>2020-01-27 15:33:38</time>
      </trkpt>
      <trkpt lat="45.55786" lon="6.5955">
        <ele>1522.4713</ele>
        <time>2020-01-27 15:33:39</time>
      </trkpt>
      <trkpt lat="45.55785" lon="6.59555">
        <ele>1521.4233</ele>
        <time>2020-01-27 15:33:42</time>
      </trkpt>
      <trkpt lat="45.55785" lon="6.59556">
        <ele>1521.6055</ele>
        <time>2020-01-27 15:33:43</time>
      </trkpt>
      <trkpt lat="45.55785" lon="6.59566">
        <ele>1520.8097</ele>
        <time>2020-01-27 15:33:49</time>
      </trkpt>
      <trkpt lat="45.55786" lon="6.59571">
        <ele>1519.4977</ele>
        <time>2020-01-27 15:34:04</time>
      </trkpt>
      <trkpt lat="45.55788" lon="6.59609">
        <ele>1516.0549</ele>
        <time>2020-01-27 15:34:14</time>
      </trkpt>
      <trkpt lat="45.55787" lon="6.59638">
        <ele>1514.3585</ele>
        <time>2020-01-27 15:34:22</time>
      </trkpt>
      <trkpt lat="45.55788" lon="6.59646">
        <ele>1512.646</ele>
        <time>2020-01-27 15:34:24</time>
      </trkpt>
      <trkpt lat="45.5579" lon="6.59654">
        <ele>1512.0101</ele>
        <time>2020-01-27 15:34:26</time>
      </trkpt>
      <trkpt lat="45.55802" lon="6.59691">
        <ele>1511.1738</ele>
        <time>2020-01-27 15:34:37</time>
      </trkpt>
      <trkpt lat="45.55811" lon="6.59703">
        <ele>1509.7626</ele>
        <time>2020-01-27 15:34:41</time>
      </trkpt>
      <trkpt lat="45.55816" lon="6.5971">
        <ele>1510.086</ele>
        <time>2020-01-27 15:34:44</time>
      </trkpt>
      <trkpt lat="45.5582" lon="6.59719">
        <ele>1509.8358</ele>
        <time>2020-01-27 15:34:47</time>
      </trkpt>
      <trkpt lat="45.55822" lon="6.59727">
        <ele>1509.6248</ele>
        <time>2020-01-27 15:34:49</time>
      </trkpt>
      <trkpt lat="45.55822" lon="6.59739">
        <ele>1508.8887</ele>
        <time>2020-01-27 15:34:57</time>
      </trkpt>
      <trkpt lat="45.55823" lon="6.59739">
        <ele>1507.3542</ele>
        <time>2020-01-27 15:35:00</time>
      </trkpt>
      <trkpt lat="45.55824" lon="6.59739">
        <ele>1508.8196</ele>
        <time>2020-01-27 15:35:01</time>
      </trkpt>
      <trkpt lat="45.55825" lon="6.59741">
        <ele>1509.7821</ele>
        <time>2020-01-27 15:35:03</time>
      </trkpt>
      <trkpt lat="45.55824" lon="6.59741">
        <ele>1508.2458</ele>
        <time>2020-01-27 15:35:05</time>
      </trkpt>
      <trkpt lat="45.55824" lon="6.59742">
        <ele>1507.67</ele>
        <time>2020-01-27 15:35:27</time>
      </trkpt>
      <trkpt lat="45.55824" lon="6.59743">
        <ele>1508.5669</ele>
        <time>2020-01-27 15:35:28</time>
      </trkpt>
      <trkpt lat="45.55821" lon="6.59744">
        <ele>1507.6166</ele>
        <time>2020-01-27 15:35:46</time>
      </trkpt>
      <trkpt lat="45.55821" lon="6.59742">
        <ele>1505.9463</ele>
        <time>2020-01-27 15:35:48</time>
      </trkpt>
      <trkpt lat="45.5582" lon="6.59741">
        <ele>1507.0802</ele>
        <time>2020-01-27 15:35:50</time>
      </trkpt>
      <trkpt lat="45.55818" lon="6.59741">
        <ele>1501.0309</ele>
        <time>2020-01-27 15:35:52</time>
      </trkpt>
      <trkpt lat="45.55816" lon="6.59741">
        <ele>1498.5813</ele>
        <time>2020-01-27 15:35:53</time>
      </trkpt>
      <trkpt lat="45.55815" lon="6.59739">
        <ele>1498.0643</ele>
        <time>2020-01-27 15:35:54</time>
      </trkpt>
      <trkpt lat="45.55813" lon="6.59733">
        <ele>1496.9913</ele>
        <time>2020-01-27 15:35:56</time>
      </trkpt>
      <trkpt lat="45.55812" lon="6.59727">
        <ele>1497.0612</ele>
        <time>2020-01-27 15:35:58</time>
      </trkpt>
      <trkpt lat="45.55811" lon="6.59723">
        <ele>1497.4457</ele>
        <time>2020-01-27 15:35:59</time>
      </trkpt>
      <trkpt lat="45.5581" lon="6.59714">
        <ele>1499.246</ele>
        <time>2020-01-27 15:36:02</time>
      </trkpt>
      <trkpt lat="45.55808" lon="6.59712">
        <ele>1501.1852</ele>
        <time>2020-01-27 15:36:03</time>
      </trkpt>
      <trkpt lat="45.55806" lon="6.59711">
        <ele>1502.9658</ele>
        <time>2020-01-27 15:36:04</time>
      </trkpt>
      <trkpt lat="45.55796" lon="6.59708">
        <ele>1504.5863</ele>
        <time>2020-01-27 15:36:08</time>
      </trkpt>
      <trkpt lat="45.55795" lon="6.59707">
        <ele>1501.773</ele>
        <time>2020-01-27 15:36:09</time>
      </trkpt>
      <trkpt lat="45.55793" lon="6.59705">
        <ele>1503.3724</ele>
        <time>2020-01-27 15:36:10</time>
      </trkpt>
      <trkpt lat="45.55791" lon="6.59704">
        <ele>1503.5781</ele>
        <time>2020-01-27 15:36:11</time>
      </trkpt>
      <trkpt lat="45.55789" lon="6.59702">
        <ele>1504.4674</ele>
        <time>2020-01-27 15:36:12</time>
      </trkpt>
      <trkpt lat="45.5578" lon="6.59696">
        <ele>1499.8171</ele>
        <time>2020-01-27 15:36:16</time>
      </trkpt>
      <trkpt lat="45.55774" lon="6.59686">
        <ele>1497.3715</ele>
        <time>2020-01-27 15:36:19</time>
      </trkpt>
      <trkpt lat="45.55754" lon="6.59657">
        <ele>1492.2786</ele>
        <time>2020-01-27 15:36:27</time>
      </trkpt>
      <trkpt lat="45.55748" lon="6.59648">
        <ele>1491.5475</ele>
        <time>2020-01-27 15:36:30</time>
      </trkpt>
      <trkpt lat="45.55746" lon="6.5965">
        <ele>1492.1517</ele>
        <time>2020-01-27 15:36:31</time>
      </trkpt>
      <trkpt lat="45.55744" lon="6.59653">
        <ele>1492.329</ele>
        <time>2020-01-27 15:36:32</time>
      </trkpt>
      <trkpt lat="45.55744" lon="6.5967">
        <ele>1492.1736</ele>
        <time>2020-01-27 15:36:36</time>
      </trkpt>
      <trkpt lat="45.55745" lon="6.59682">
        <ele>1492.3248</ele>
        <time>2020-01-27 15:36:40</time>
      </trkpt>
      <trkpt lat="45.55744" lon="6.5969">
        <ele>1490.0697</ele>
        <time>2020-01-27 15:36:43</time>
      </trkpt>
      <trkpt lat="45.55746" lon="6.59701">
        <ele>1490.8264</ele>
        <time>2020-01-27 15:36:47</time>
      </trkpt>
      <trkpt lat="45.55752" lon="6.59712">
        <ele>1489.2535</ele>
        <time>2020-01-27 15:37:01</time>
      </trkpt>
      <trkpt lat="45.5575" lon="6.59714">
        <ele>1488.4316</ele>
        <time>2020-01-27 15:37:14</time>
      </trkpt>
      <trkpt lat="45.5575" lon="6.59716">
        <ele>1486.3558</ele>
        <time>2020-01-27 15:37:17</time>
      </trkpt>
      <trkpt lat="45.55751" lon="6.59717">
        <ele>1486.6024</ele>
        <time>2020-01-27 15:37:18</time>
      </trkpt>
      <trkpt lat="45.55751" lon="6.59718">
        <ele>1486.8237</ele>
        <time>2020-01-27 15:37:19</time>
      </trkpt>
      <trkpt lat="45.55751" lon="6.59718">
        <ele>1487.5621</ele>
        <time>2020-01-27 15:37:20</time>
      </trkpt>
      <trkpt lat="45.55751" lon="6.59719">
        <ele>1488.7562</ele>
        <time>2020-01-27 15:37:21</time>
      </trkpt>
      <trkpt lat="45.55752" lon="6.5972">
        <ele>1490.7163</ele>
        <time>2020-01-27 15:37:24</time>
      </trkpt>
      <trkpt lat="45.55755" lon="6.5972">
        <ele>1488.6698</ele>
        <time>2020-01-27 15:37:27</time>
      </trkpt>
      <trkpt lat="45.55756" lon="6.59721">
        <ele>1488.7496</ele>
        <time>2020-01-27 15:37:28</time>
      </trkpt>
      <trkpt lat="45.55755" lon="6.59723">
        <ele>1489.2352</ele>
        <time>2020-01-27 15:37:29</time>
      </trkpt>
      <trkpt lat="45.55756" lon="6.59726">
        <ele>1488.872</ele>
        <time>2020-01-27 15:37:31</time>
      </trkpt>
      <trkpt lat="45.55756" lon="6.59729">
        <ele>1489.037</ele>
        <time>2020-01-27 15:37:33</time>
      </trkpt>
      <trkpt lat="45.55756" lon="6.59731">
        <ele>1489.923</ele>
        <time>2020-01-27 15:37:34</time>
      </trkpt>
      <trkpt lat="45.55756" lon="6.59738">
        <ele>1489.327</ele>
        <time>2020-01-27 15:37:37</time>
      </trkpt>
      <trkpt lat="45.55757" lon="6.59742">
        <ele>1487.0492</ele>
        <time>2020-01-27 15:37:39</time>
      </trkpt>
      <trkpt lat="45.55758" lon="6.59746">
        <ele>1486.0167</ele>
        <time>2020-01-27 15:37:41</time>
      </trkpt>
      <trkpt lat="45.55758" lon="6.59753">
        <ele>1486.3345</ele>
        <time>2020-01-27 15:37:43</time>
      </trkpt>
      <trkpt lat="45.55757" lon="6.59763">
        <ele>1487.9172</ele>
        <time>2020-01-27 15:37:46</time>
      </trkpt>
      <trkpt lat="45.55757" lon="6.59796">
        <ele>1485.7292</ele>
        <time>2020-01-27 15:37:57</time>
      </trkpt>
      <trkpt lat="45.55757" lon="6.59799">
        <ele>1488.0532</ele>
        <time>2020-01-27 15:37:58</time>
      </trkpt>
      <trkpt lat="45.55756" lon="6.59801">
        <ele>1487.7916</ele>
        <time>2020-01-27 15:37:59</time>
      </trkpt>
      <trkpt lat="45.55751" lon="6.59833">
        <ele>1483.68</ele>
        <time>2020-01-27 15:38:10</time>
      </trkpt>
      <trkpt lat="45.55751" lon="6.59854">
        <ele>1482.5393</ele>
        <time>2020-01-27 15:38:15</time>
      </trkpt>
      <trkpt lat="45.55753" lon="6.59904">
        <ele>1478.164</ele>
        <time>2020-01-27 15:38:25</time>
      </trkpt>
      <trkpt lat="45.55758" lon="6.59922">
        <ele>1476.461</ele>
        <time>2020-01-27 15:38:30</time>
      </trkpt>
      <trkpt lat="45.55762" lon="6.59936">
        <ele>1474.4438</ele>
        <time>2020-01-27 15:38:34</time>
      </trkpt>
      <trkpt lat="45.55764" lon="6.5994">
        <ele>1474.5698</ele>
        <time>2020-01-27 15:38:35</time>
      </trkpt>
      <trkpt lat="45.55785" lon="6.59982">
        <ele>1470.3943</ele>
        <time>2020-01-27 15:38:47</time>
      </trkpt>
      <trkpt lat="45.55787" lon="6.59991">
        <ele>1470.9521</ele>
        <time>2020-01-27 15:38:50</time>
      </trkpt>
      <trkpt lat="45.55794" lon="6.60009">
        <ele>1469.6718</ele>
        <time>2020-01-27 15:38:55</time>
      </trkpt>
      <trkpt lat="45.55795" lon="6.60012">
        <ele>1469.755</ele>
        <time>2020-01-27 15:38:56</time>
      </trkpt>
      <trkpt lat="45.55797" lon="6.60022">
        <ele>1467.1989</ele>
        <time>2020-01-27 15:38:59</time>
      </trkpt>
      <trkpt lat="45.55799" lon="6.60033">
        <ele>1467.2468</ele>
        <time>2020-01-27 15:39:03</time>
      </trkpt>
      <trkpt lat="45.55802" lon="6.6004">
        <ele>1467.7375</ele>
        <time>2020-01-27 15:39:09</time>
      </trkpt>
      <trkpt lat="45.55804" lon="6.6004">
        <ele>1467.1742</ele>
        <time>2020-01-27 15:39:12</time>
      </trkpt>
      <trkpt lat="45.55804" lon="6.6004">
        <ele>1467.7279</ele>
        <time>2020-01-27 15:39:13</time>
      </trkpt>
      <trkpt lat="45.55804" lon="6.60043">
        <ele>1465.6223</ele>
        <time>2020-01-27 15:39:23</time>
      </trkpt>
      <trkpt lat="45.55805" lon="6.60044">
        <ele>1465.2761</ele>
        <time>2020-01-27 15:39:25</time>
      </trkpt>
      <trkpt lat="45.55806" lon="6.60045">
        <ele>1467.8041</ele>
        <time>2020-01-27 15:39:29</time>
      </trkpt>
      <trkpt lat="45.55807" lon="6.60047">
        <ele>1465.6758</ele>
        <time>2020-01-27 15:39:34</time>
      </trkpt>
      <trkpt lat="45.55809" lon="6.60049">
        <ele>1462.4497</ele>
        <time>2020-01-27 15:39:36</time>
      </trkpt>
      <trkpt lat="45.55812" lon="6.6005">
        <ele>1462.3005</ele>
        <time>2020-01-27 15:39:38</time>
      </trkpt>
      <trkpt lat="45.55816" lon="6.6005">
        <ele>1462.3828</ele>
        <time>2020-01-27 15:39:40</time>
      </trkpt>
      <trkpt lat="45.55819" lon="6.60052">
        <ele>1461.3718</ele>
        <time>2020-01-27 15:39:42</time>
      </trkpt>
      <trkpt lat="45.55827" lon="6.60059">
        <ele>1462.736</ele>
        <time>2020-01-27 15:39:46</time>
      </trkpt>
      <trkpt lat="45.5583" lon="6.60063">
        <ele>1461.0349</ele>
        <time>2020-01-27 15:39:48</time>
      </trkpt>
      <trkpt lat="45.55836" lon="6.60072">
        <ele>1462.0646</ele>
        <time>2020-01-27 15:39:52</time>
      </trkpt>
      <trkpt lat="45.55838" lon="6.60073">
        <ele>1461.6459</ele>
        <time>2020-01-27 15:39:53</time>
      </trkpt>
      <trkpt lat="45.5584" lon="6.60075">
        <ele>1460.3384</ele>
        <time>2020-01-27 15:39:54</time>
      </trkpt>
      <trkpt lat="45.55842" lon="6.60078">
        <ele>1459.3658</ele>
        <time>2020-01-27 15:39:55</time>
      </trkpt>
      <trkpt lat="45.55845" lon="6.60084">
        <ele>1459.2587</ele>
        <time>2020-01-27 15:39:57</time>
      </trkpt>
      <trkpt lat="45.55854" lon="6.60097">
        <ele>1457.22</ele>
        <time>2020-01-27 15:40:01</time>
      </trkpt>
      <trkpt lat="45.55865" lon="6.60111">
        <ele>1454.2192</ele>
        <time>2020-01-27 15:40:05</time>
      </trkpt>
      <trkpt lat="45.55885" lon="6.60135">
        <ele>1456.4961</ele>
        <time>2020-01-27 15:40:12</time>
      </trkpt>
      <trkpt lat="45.55922" lon="6.60195">
        <ele>1457.0344</ele>
        <time>2020-01-27 15:40:30</time>
      </trkpt>
      <trkpt lat="45.5593" lon="6.60221">
        <ele>1453.8763</ele>
        <time>2020-01-27 15:40:42</time>
      </trkpt>
      <trkpt lat="45.55931" lon="6.60223">
        <ele>1453.6342</ele>
        <time>2020-01-27 15:41:13</time>
      </trkpt>
      <trkpt lat="45.55931" lon="6.60224">
        <ele>1453.2733</ele>
        <time>2020-01-27 15:41:42</time>
      </trkpt>
      <trkpt lat="45.55931" lon="6.60226">
        <ele>1454.2576</ele>
        <time>2020-01-27 15:41:43</time>
      </trkpt>
      <trkpt lat="45.55931" lon="6.60227">
        <ele>1454.7313</ele>
        <time>2020-01-27 15:41:44</time>
      </trkpt>
      <trkpt lat="45.55932" lon="6.60228">
        <ele>1454.8098</ele>
        <time>2020-01-27 15:41:45</time>
      </trkpt>
      <trkpt lat="45.55932" lon="6.60229">
        <ele>1454.7826</ele>
        <time>2020-01-27 15:41:46</time>
      </trkpt>
      <trkpt lat="45.55933" lon="6.60229">
        <ele>1454.1869</ele>
        <time>2020-01-27 15:41:47</time>
      </trkpt>
      <trkpt lat="45.55933" lon="6.6023">
        <ele>1453.4677</ele>
        <time>2020-01-27 15:41:51</time>
      </trkpt>
      <trkpt lat="45.55932" lon="6.60231">
        <ele>1453.1665</ele>
        <time>2020-01-27 15:41:53</time>
      </trkpt>
      <trkpt lat="45.55932" lon="6.60231">
        <ele>1453.1316</ele>
        <time>2020-01-27 15:41:54</time>
      </trkpt>
      <trkpt lat="45.55933" lon="6.60232">
        <ele>1452.2952</ele>
        <time>2020-01-27 15:41:55</time>
      </trkpt>
      <trkpt lat="45.55933" lon="6.60233">
        <ele>1452.6898</ele>
        <time>2020-01-27 15:41:57</time>
      </trkpt>
      <trkpt lat="45.55933" lon="6.60236">
        <ele>1453.1356</ele>
        <time>2020-01-27 15:41:59</time>
      </trkpt>
      <trkpt lat="45.55937" lon="6.60248">
        <ele>1445.6738</ele>
        <time>2020-01-27 15:42:05</time>
      </trkpt>
      <trkpt lat="45.55938" lon="6.6025">
        <ele>1445.19</ele>
        <time>2020-01-27 15:42:07</time>
      </trkpt>
      <trkpt lat="45.55941" lon="6.60253">
        <ele>1440.0798</ele>
        <time>2020-01-27 15:42:26</time>
      </trkpt>
      <trkpt lat="45.55944" lon="6.60265">
        <ele>1442.7753</ele>
        <time>2020-01-27 15:42:34</time>
      </trkpt>
      <trkpt lat="45.55945" lon="6.60268">
        <ele>1445.4954</ele>
        <time>2020-01-27 15:42:38</time>
      </trkpt>
      <trkpt lat="45.55945" lon="6.60268">
        <ele>1445.0951</ele>
        <time>2020-01-27 15:42:39</time>
      </trkpt>
      <trkpt lat="45.55946" lon="6.60268">
        <ele>1445.4789</ele>
        <time>2020-01-27 15:42:40</time>
      </trkpt>
      <trkpt lat="45.55946" lon="6.60271">
        <ele>1444.672</ele>
        <time>2020-01-27 15:42:42</time>
      </trkpt>
      <trkpt lat="45.55947" lon="6.60272">
        <ele>1444.8247</ele>
        <time>2020-01-27 15:42:43</time>
      </trkpt>
      <trkpt lat="45.55948" lon="6.60272">
        <ele>1445.3604</ele>
        <time>2020-01-27 15:42:44</time>
      </trkpt>
      <trkpt lat="45.55949" lon="6.60273">
        <ele>1445.0151</ele>
        <time>2020-01-27 15:42:46</time>
      </trkpt>
      <trkpt lat="45.55949" lon="6.60274">
        <ele>1445.5243</ele>
        <time>2020-01-27 15:42:47</time>
      </trkpt>
      <trkpt lat="45.55951" lon="6.60281">
        <ele>1444.5054</ele>
        <time>2020-01-27 15:42:52</time>
      </trkpt>
      <trkpt lat="45.55951" lon="6.60283">
        <ele>1443.7827</ele>
        <time>2020-01-27 15:42:53</time>
      </trkpt>
      <trkpt lat="45.55951" lon="6.60285">
        <ele>1442.7506</ele>
        <time>2020-01-27 15:42:54</time>
      </trkpt>
      <trkpt lat="45.55954" lon="6.60296">
        <ele>1442.0948</ele>
        <time>2020-01-27 15:43:00</time>
      </trkpt>
      <trkpt lat="45.55954" lon="6.60298">
        <ele>1443.0612</ele>
        <time>2020-01-27 15:43:01</time>
      </trkpt>
      <trkpt lat="45.55958" lon="6.60311">
        <ele>1439.9746</ele>
        <time>2020-01-27 15:43:09</time>
      </trkpt>
      <trkpt lat="45.55959" lon="6.60317">
        <ele>1437.8112</ele>
        <time>2020-01-27 15:43:12</time>
      </trkpt>
      <trkpt lat="45.55959" lon="6.60323">
        <ele>1437.409</ele>
        <time>2020-01-27 15:43:16</time>
      </trkpt>
      <trkpt lat="45.55961" lon="6.60325">
        <ele>1436.2747</ele>
        <time>2020-01-27 15:43:18</time>
      </trkpt>
      <trkpt lat="45.55964" lon="6.60327">
        <ele>1436.47</ele>
        <time>2020-01-27 15:43:21</time>
      </trkpt>
      <trkpt lat="45.55972" lon="6.60337">
        <ele>1436.7317</ele>
        <time>2020-01-27 15:43:29</time>
      </trkpt>
      <trkpt lat="45.55974" lon="6.60348">
        <ele>1433.6698</ele>
        <time>2020-01-27 15:43:35</time>
      </trkpt>
      <trkpt lat="45.55976" lon="6.60351">
        <ele>1432.2618</ele>
        <time>2020-01-27 15:43:37</time>
      </trkpt>
      <trkpt lat="45.55977" lon="6.60355">
        <ele>1432.4216</ele>
        <time>2020-01-27 15:43:39</time>
      </trkpt>
      <trkpt lat="45.55978" lon="6.6036">
        <ele>1436.43</ele>
        <time>2020-01-27 15:43:45</time>
      </trkpt>
      <trkpt lat="45.55978" lon="6.6036">
        <ele>1436.6948</ele>
        <time>2020-01-27 15:43:46</time>
      </trkpt>
      <trkpt lat="45.55978" lon="6.60361">
        <ele>1436.9386</ele>
        <time>2020-01-27 15:43:47</time>
      </trkpt>
      <trkpt lat="45.55978" lon="6.60362">
        <ele>1436.896</ele>
        <time>2020-01-27 15:43:48</time>
      </trkpt>
      <trkpt lat="45.55978" lon="6.60363">
        <ele>1436.3473</ele>
        <time>2020-01-27 15:43:49</time>
      </trkpt>
      <trkpt lat="45.55979" lon="6.60364">
        <ele>1436.402</ele>
        <time>2020-01-27 15:43:50</time>
      </trkpt>
      <trkpt lat="45.55979" lon="6.60367">
        <ele>1436.626</ele>
        <time>2020-01-27 15:43:52</time>
      </trkpt>
      <trkpt lat="45.55978" lon="6.60369">
        <ele>1436.0887</ele>
        <time>2020-01-27 15:43:53</time>
      </trkpt>
      <trkpt lat="45.55978" lon="6.60371">
        <ele>1436.2045</ele>
        <time>2020-01-27 15:43:54</time>
      </trkpt>
      <trkpt lat="45.55979" lon="6.60372">
        <ele>1435.6946</ele>
        <time>2020-01-27 15:43:55</time>
      </trkpt>
      <trkpt lat="45.5598" lon="6.60373">
        <ele>1435.3253</ele>
        <time>2020-01-27 15:43:56</time>
      </trkpt>
      <trkpt lat="45.55982" lon="6.60374">
        <ele>1435.715</ele>
        <time>2020-01-27 15:44:26</time>
      </trkpt>
      <trkpt lat="45.55982" lon="6.60375">
        <ele>1435.4489</ele>
        <time>2020-01-27 15:44:56</time>
      </trkpt>
      <trkpt lat="45.55983" lon="6.60375">
        <ele>1435.7443</ele>
        <time>2020-01-27 15:45:00</time>
      </trkpt>
      <trkpt lat="45.55985" lon="6.60381">
        <ele>1437.9178</ele>
        <time>2020-01-27 15:45:03</time>
      </trkpt>
      <trkpt lat="45.55987" lon="6.60384">
        <ele>1437.4696</ele>
        <time>2020-01-27 15:45:04</time>
      </trkpt>
      <trkpt lat="45.56008" lon="6.60408">
        <ele>1432.4097</ele>
        <time>2020-01-27 15:45:13</time>
      </trkpt>
      <trkpt lat="45.56026" lon="6.60426">
        <ele>1433.4674</ele>
        <time>2020-01-27 15:45:21</time>
      </trkpt>
      <trkpt lat="45.56055" lon="6.6047">
        <ele>1428.8177</ele>
        <time>2020-01-27 15:45:34</time>
      </trkpt>
      <trkpt lat="45.56059" lon="6.60484">
        <ele>1427.3964</ele>
        <time>2020-01-27 15:45:37</time>
      </trkpt>
      <trkpt lat="45.56061" lon="6.60504">
        <ele>1426.7703</ele>
        <time>2020-01-27 15:45:40</time>
      </trkpt>
      <trkpt lat="45.56061" lon="6.60528">
        <ele>1422.5503</ele>
        <time>2020-01-27 15:45:44</time>
      </trkpt>
      <trkpt lat="45.5606" lon="6.60533">
        <ele>1422.6436</ele>
        <time>2020-01-27 15:45:45</time>
      </trkpt>
      <trkpt lat="45.56056" lon="6.60544">
        <ele>1419.9208</ele>
        <time>2020-01-27 15:45:48</time>
      </trkpt>
      <trkpt lat="45.5605" lon="6.60555">
        <ele>1416.861</ele>
        <time>2020-01-27 15:45:52</time>
      </trkpt>
      <trkpt lat="45.56047" lon="6.60561">
        <ele>1417.0812</ele>
        <time>2020-01-27 15:45:54</time>
      </trkpt>
      <trkpt lat="45.56037" lon="6.60571">
        <ele>1417.6803</ele>
        <time>2020-01-27 15:45:58</time>
      </trkpt>
      <trkpt lat="45.56031" lon="6.60578">
        <ele>1417.1748</ele>
        <time>2020-01-27 15:46:01</time>
      </trkpt>
      <trkpt lat="45.5603" lon="6.60581">
        <ele>1417.3914</ele>
        <time>2020-01-27 15:46:02</time>
      </trkpt>
      <trkpt lat="45.56029" lon="6.60584">
        <ele>1416.3888</ele>
        <time>2020-01-27 15:46:03</time>
      </trkpt>
      <trkpt lat="45.56029" lon="6.60595">
        <ele>1417.3252</ele>
        <time>2020-01-27 15:46:06</time>
      </trkpt>
      <trkpt lat="45.56034" lon="6.6061">
        <ele>1415.2156</ele>
        <time>2020-01-27 15:46:10</time>
      </trkpt>
      <trkpt lat="45.56036" lon="6.60613">
        <ele>1414.84</ele>
        <time>2020-01-27 15:46:11</time>
      </trkpt>
      <trkpt lat="45.56046" lon="6.6063">
        <ele>1414.5764</ele>
        <time>2020-01-27 15:46:17</time>
      </trkpt>
      <trkpt lat="45.56078" lon="6.60691">
        <ele>1410.1995</ele>
        <time>2020-01-27 15:46:41</time>
      </trkpt>
      <trkpt lat="45.56079" lon="6.6069">
        <ele>1411.6737</ele>
        <time>2020-01-27 15:47:00</time>
      </trkpt>
      <trkpt lat="45.56079" lon="6.60689">
        <ele>1412.67</ele>
        <time>2020-01-27 15:47:03</time>
      </trkpt>
      <trkpt lat="45.56079" lon="6.60689">
        <ele>1412.8427</ele>
        <time>2020-01-27 15:47:41</time>
      </trkpt>
      <trkpt lat="45.56079" lon="6.60689">
        <ele>1412.8667</ele>
        <time>2020-01-27 15:48:28</time>
      </trkpt>
      <trkpt lat="45.56078" lon="6.6069">
        <ele>1412.6864</ele>
        <time>2020-01-27 15:48:31</time>
      </trkpt>
      <trkpt lat="45.56078" lon="6.60692">
        <ele>1410.8293</ele>
        <time>2020-01-27 15:48:32</time>
      </trkpt>
      <trkpt lat="45.56079" lon="6.60695">
        <ele>1410.4017</ele>
        <time>2020-01-27 15:48:33</time>
      </trkpt>
      <trkpt lat="45.56083" lon="6.60703">
        <ele>1409.0502</ele>
        <time>2020-01-27 15:48:35</time>
      </trkpt>
      <trkpt lat="45.56084" lon="6.60705">
        <ele>1409.5186</ele>
        <time>2020-01-27 15:48:36</time>
      </trkpt>
      <trkpt lat="45.56084" lon="6.60705">
        <ele>1410.6056</ele>
        <time>2020-01-27 15:48:37</time>
      </trkpt>
      <trkpt lat="45.56085" lon="6.60706">
        <ele>1407.2827</ele>
        <time>2020-01-27 15:48:43</time>
      </trkpt>
      <trkpt lat="45.56086" lon="6.60707">
        <ele>1406.471</ele>
        <time>2020-01-27 15:48:44</time>
      </trkpt>
      <trkpt lat="45.56101" lon="6.60716">
        <ele>1406.5133</ele>
        <time>2020-01-27 15:48:54</time>
      </trkpt>
      <trkpt lat="45.56108" lon="6.6072">
        <ele>1404.5841</ele>
        <time>2020-01-27 15:48:58</time>
      </trkpt>
      <trkpt lat="45.5611" lon="6.60722">
        <ele>1404.5714</ele>
        <time>2020-01-27 15:48:59</time>
      </trkpt>
      <trkpt lat="45.56113" lon="6.60724">
        <ele>1403.8021</ele>
        <time>2020-01-27 15:49:03</time>
      </trkpt>
      <trkpt lat="45.56115" lon="6.60723">
        <ele>1400.8741</ele>
        <time>2020-01-27 15:49:09</time>
      </trkpt>
      <trkpt lat="45.56117" lon="6.60724">
        <ele>1402.0138</ele>
        <time>2020-01-27 15:49:13</time>
      </trkpt>
      <trkpt lat="45.56117" lon="6.60724">
        <ele>1402.4834</ele>
        <time>2020-01-27 15:49:15</time>
      </trkpt>
      <trkpt lat="45.56115" lon="6.60725">
        <ele>1402.093</ele>
        <time>2020-01-27 15:49:17</time>
      </trkpt>
      <trkpt lat="45.56109" lon="6.60726">
        <ele>1401.3214</ele>
        <time>2020-01-27 15:49:21</time>
      </trkpt>
      <trkpt lat="45.56103" lon="6.60725">
        <ele>1400.4253</ele>
        <time>2020-01-27 15:49:28</time>
      </trkpt>
      <trkpt lat="45.56102" lon="6.60725">
        <ele>1399.398</ele>
        <time>2020-01-27 15:49:29</time>
      </trkpt>
      <trkpt lat="45.561" lon="6.60724">
        <ele>1399.7094</ele>
        <time>2020-01-27 15:49:31</time>
      </trkpt>
      <trkpt lat="45.56097" lon="6.60724">
        <ele>1399.9386</ele>
        <time>2020-01-27 15:49:33</time>
      </trkpt>
      <trkpt lat="45.56095" lon="6.60726">
        <ele>1401.4796</ele>
        <time>2020-01-27 15:49:37</time>
      </trkpt>
      <trkpt lat="45.56093" lon="6.60729">
        <ele>1401.6206</ele>
        <time>2020-01-27 15:49:40</time>
      </trkpt>
      <trkpt lat="45.5609" lon="6.60734">
        <ele>1400.3314</ele>
        <time>2020-01-27 15:50:13</time>
      </trkpt>
      <trkpt lat="45.5609" lon="6.60734">
        <ele>1400.2869</ele>
        <time>2020-01-27 15:50:45</time>
      </trkpt>
      <trkpt lat="45.5609" lon="6.60734">
        <ele>1400.611</ele>
        <time>2020-01-27 15:50:57</time>
      </trkpt>
      <trkpt lat="45.56089" lon="6.60733">
        <ele>1400.8151</ele>
        <time>2020-01-27 15:50:58</time>
      </trkpt>
      <trkpt lat="45.56088" lon="6.60733">
        <ele>1400.5194</ele>
        <time>2020-01-27 15:50:59</time>
      </trkpt>
      <trkpt lat="45.56086" lon="6.60733">
        <ele>1401.103</ele>
        <time>2020-01-27 15:51:01</time>
      </trkpt>
      <trkpt lat="45.56081" lon="6.60733">
        <ele>1400.4668</ele>
        <time>2020-01-27 15:51:06</time>
      </trkpt>
      <trkpt lat="45.5608" lon="6.60732">
        <ele>1399.8734</ele>
        <time>2020-01-27 15:51:07</time>
      </trkpt>
      <trkpt lat="45.56079" lon="6.60732">
        <ele>1399.0138</ele>
        <time>2020-01-27 15:51:08</time>
      </trkpt>
      <trkpt lat="45.56076" lon="6.60731">
        <ele>1397.964</ele>
        <time>2020-01-27 15:51:10</time>
      </trkpt>
      <trkpt lat="45.56072" lon="6.60731">
        <ele>1396.5192</ele>
        <time>2020-01-27 15:51:12</time>
      </trkpt>
      <trkpt lat="45.5606" lon="6.60731">
        <ele>1393.4896</ele>
        <time>2020-01-27 15:51:19</time>
      </trkpt>
      <trkpt lat="45.56059" lon="6.60729">
        <ele>1391.4504</ele>
        <time>2020-01-27 15:51:20</time>
      </trkpt>
      <trkpt lat="45.56056" lon="6.60726">
        <ele>1389.7522</ele>
        <time>2020-01-27 15:51:23</time>
      </trkpt>
      <trkpt lat="45.56044" lon="6.60718">
        <ele>1390.2329</ele>
        <time>2020-01-27 15:51:34</time>
      </trkpt>
      <trkpt lat="45.5604" lon="6.60715">
        <ele>1389.673</ele>
        <time>2020-01-27 15:51:38</time>
      </trkpt>
      <trkpt lat="45.56038" lon="6.60714">
        <ele>1389.9548</ele>
        <time>2020-01-27 15:51:40</time>
      </trkpt>
      <trkpt lat="45.56034" lon="6.60711">
        <ele>1391.5448</ele>
        <time>2020-01-27 15:51:43</time>
      </trkpt>
      <trkpt lat="45.56026" lon="6.60698">
        <ele>1394.5148</ele>
        <time>2020-01-27 15:51:53</time>
      </trkpt>
      <trkpt lat="45.56024" lon="6.60698">
        <ele>1394.2543</ele>
        <time>2020-01-27 15:51:54</time>
      </trkpt>
      <trkpt lat="45.5602" lon="6.60696">
        <ele>1396.0435</ele>
        <time>2020-01-27 15:51:58</time>
      </trkpt>
      <trkpt lat="45.56019" lon="6.60695">
        <ele>1394.9138</ele>
        <time>2020-01-27 15:51:59</time>
      </trkpt>
      <trkpt lat="45.56019" lon="6.60694">
        <ele>1395.5873</ele>
        <time>2020-01-27 15:52:00</time>
      </trkpt>
      <trkpt lat="45.56016" lon="6.60684">
        <ele>1394.4263</ele>
        <time>2020-01-27 15:52:06</time>
      </trkpt>
      <trkpt lat="45.56015" lon="6.60683">
        <ele>1395.817</ele>
        <time>2020-01-27 15:52:07</time>
      </trkpt>
      <trkpt lat="45.56008" lon="6.60678">
        <ele>1397.8787</ele>
        <time>2020-01-27 15:52:13</time>
      </trkpt>
      <trkpt lat="45.55988" lon="6.60663">
        <ele>1391.9031</ele>
        <time>2020-01-27 15:52:29</time>
      </trkpt>
      <trkpt lat="45.55985" lon="6.60661">
        <ele>1391.1895</ele>
        <time>2020-01-27 15:52:31</time>
      </trkpt>
      <trkpt lat="45.55983" lon="6.60661">
        <ele>1390.3707</ele>
        <time>2020-01-27 15:52:32</time>
      </trkpt>
      <trkpt lat="45.55979" lon="6.60659">
        <ele>1390.3652</ele>
        <time>2020-01-27 15:52:35</time>
      </trkpt>
      <trkpt lat="45.55978" lon="6.60657">
        <ele>1391.6141</ele>
        <time>2020-01-27 15:52:37</time>
      </trkpt>
      <trkpt lat="45.55978" lon="6.60654">
        <ele>1390.9288</ele>
        <time>2020-01-27 15:52:40</time>
      </trkpt>
      <trkpt lat="45.55977" lon="6.60654">
        <ele>1390.2297</ele>
        <time>2020-01-27 15:52:41</time>
      </trkpt>
      <trkpt lat="45.55975" lon="6.60653">
        <ele>1390.3154</ele>
        <time>2020-01-27 15:52:42</time>
      </trkpt>
      <trkpt lat="45.55973" lon="6.60652">
        <ele>1390.4666</ele>
        <time>2020-01-27 15:52:44</time>
      </trkpt>
      <trkpt lat="45.55973" lon="6.6065">
        <ele>1390.7905</ele>
        <time>2020-01-27 15:52:45</time>
      </trkpt>
      <trkpt lat="45.55973" lon="6.60648">
        <ele>1390.8286</ele>
        <time>2020-01-27 15:52:46</time>
      </trkpt>
      <trkpt lat="45.55973" lon="6.60646">
        <ele>1390.2231</ele>
        <time>2020-01-27 15:52:47</time>
      </trkpt>
      <trkpt lat="45.55973" lon="6.60639">
        <ele>1393.5302</ele>
        <time>2020-01-27 15:52:51</time>
      </trkpt>
      <trkpt lat="45.55972" lon="6.60636">
        <ele>1394.5885</ele>
        <time>2020-01-27 15:52:53</time>
      </trkpt>
      <trkpt lat="45.55971" lon="6.60636">
        <ele>1393.6919</ele>
        <time>2020-01-27 15:52:54</time>
      </trkpt>
      <trkpt lat="45.5597" lon="6.60635">
        <ele>1393.5302</ele>
        <time>2020-01-27 15:52:55</time>
      </trkpt>
      <trkpt lat="45.55967" lon="6.60635">
        <ele>1393.4894</ele>
        <time>2020-01-27 15:52:57</time>
      </trkpt>
      <trkpt lat="45.55966" lon="6.60634">
        <ele>1393.4688</ele>
        <time>2020-01-27 15:52:58</time>
      </trkpt>
      <trkpt lat="45.55965" lon="6.60632">
        <ele>1393.9105</ele>
        <time>2020-01-27 15:53:00</time>
      </trkpt>
      <trkpt lat="45.55964" lon="6.60631">
        <ele>1395.3492</ele>
        <time>2020-01-27 15:53:01</time>
      </trkpt>
      <trkpt lat="45.55963" lon="6.6063">
        <ele>1395.1702</ele>
        <time>2020-01-27 15:53:02</time>
      </trkpt>
      <trkpt lat="45.55963" lon="6.60628">
        <ele>1396.7273</ele>
        <time>2020-01-27 15:53:04</time>
      </trkpt>
      <trkpt lat="45.55963" lon="6.60627">
        <ele>1396.052</ele>
        <time>2020-01-27 15:53:05</time>
      </trkpt>
      <trkpt lat="45.5596" lon="6.60621">
        <ele>1391.6178</ele>
        <time>2020-01-27 15:53:10</time>
      </trkpt>
      <trkpt lat="45.55959" lon="6.60619">
        <ele>1391.5051</ele>
        <time>2020-01-27 15:53:11</time>
      </trkpt>
      <trkpt lat="45.55958" lon="6.60618">
        <ele>1390.4343</ele>
        <time>2020-01-27 15:53:12</time>
      </trkpt>
      <trkpt lat="45.55955" lon="6.60617">
        <ele>1389.2573</ele>
        <time>2020-01-27 15:53:14</time>
      </trkpt>
      <trkpt lat="45.55922" lon="6.60601">
        <ele>1383.8064</ele>
        <time>2020-01-27 15:53:38</time>
      </trkpt>
      <trkpt lat="45.5592" lon="6.606">
        <ele>1383.1323</ele>
        <time>2020-01-27 15:53:40</time>
      </trkpt>
      <trkpt lat="45.55913" lon="6.60597">
        <ele>1380.9241</ele>
        <time>2020-01-27 15:53:45</time>
      </trkpt>
      <trkpt lat="45.55911" lon="6.60596">
        <ele>1380.6487</ele>
        <time>2020-01-27 15:53:47</time>
      </trkpt>
      <trkpt lat="45.55909" lon="6.60595">
        <ele>1381.6064</ele>
        <time>2020-01-27 15:53:49</time>
      </trkpt>
      <trkpt lat="45.55902" lon="6.60592">
        <ele>1376.9452</ele>
        <time>2020-01-27 15:53:54</time>
      </trkpt>
      <trkpt lat="45.559" lon="6.60591">
        <ele>1376.4218</ele>
        <time>2020-01-27 15:53:56</time>
      </trkpt>
      <trkpt lat="45.55897" lon="6.60589">
        <ele>1374.5208</ele>
        <time>2020-01-27 15:53:59</time>
      </trkpt>
      <trkpt lat="45.55896" lon="6.60588">
        <ele>1374.7592</ele>
        <time>2020-01-27 15:54:00</time>
      </trkpt>
      <trkpt lat="45.55893" lon="6.60587">
        <ele>1374.8522</ele>
        <time>2020-01-27 15:54:03</time>
      </trkpt>
      <trkpt lat="45.5589" lon="6.60585">
        <ele>1373.899</ele>
        <time>2020-01-27 15:54:06</time>
      </trkpt>
      <trkpt lat="45.5588" lon="6.60575">
        <ele>1370.3538</ele>
        <time>2020-01-27 15:54:20</time>
      </trkpt>
      <trkpt lat="45.55878" lon="6.60572">
        <ele>1369.5994</ele>
        <time>2020-01-27 15:54:23</time>
      </trkpt>
      <trkpt lat="45.55876" lon="6.6057">
        <ele>1367.6533</ele>
        <time>2020-01-27 15:54:25</time>
      </trkpt>
      <trkpt lat="45.5587" lon="6.60564">
        <ele>1368.0731</ele>
        <time>2020-01-27 15:54:32</time>
      </trkpt>
      <trkpt lat="45.5587" lon="6.60563">
        <ele>1368.447</ele>
        <time>2020-01-27 15:54:33</time>
      </trkpt>
      <trkpt lat="45.55869" lon="6.60562">
        <ele>1368.856</ele>
        <time>2020-01-27 15:54:34</time>
      </trkpt>
      <trkpt lat="45.55868" lon="6.6056">
        <ele>1368.8809</ele>
        <time>2020-01-27 15:54:36</time>
      </trkpt>
      <trkpt lat="45.55867" lon="6.60559">
        <ele>1368.7715</ele>
        <time>2020-01-27 15:54:38</time>
      </trkpt>
      <trkpt lat="45.55866" lon="6.60558">
        <ele>1369.6818</ele>
        <time>2020-01-27 15:54:39</time>
      </trkpt>
      <trkpt lat="45.55862" lon="6.60555">
        <ele>1371.487</ele>
        <time>2020-01-27 15:54:44</time>
      </trkpt>
      <trkpt lat="45.5586" lon="6.60554">
        <ele>1372.2621</ele>
        <time>2020-01-27 15:54:48</time>
      </trkpt>
      <trkpt lat="45.55858" lon="6.60551">
        <ele>1373.9712</ele>
        <time>2020-01-27 15:54:53</time>
      </trkpt>
      <trkpt lat="45.55858" lon="6.6055">
        <ele>1374.4722</ele>
        <time>2020-01-27 15:54:54</time>
      </trkpt>
      <trkpt lat="45.55859" lon="6.60549">
        <ele>1375.6364</ele>
        <time>2020-01-27 15:54:55</time>
      </trkpt>
      <trkpt lat="45.5586" lon="6.60548">
        <ele>1375.1868</ele>
        <time>2020-01-27 15:54:57</time>
      </trkpt>
      <trkpt lat="45.55859" lon="6.60549">
        <ele>1375.5424</ele>
        <time>2020-01-27 15:55:00</time>
      </trkpt>
      <trkpt lat="45.55859" lon="6.60548">
        <ele>1374.7166</ele>
        <time>2020-01-27 15:55:01</time>
      </trkpt>
      <trkpt lat="45.55858" lon="6.60548">
        <ele>1375.2898</ele>
        <time>2020-01-27 15:55:02</time>
      </trkpt>
      <trkpt lat="45.55855" lon="6.60546">
        <ele>1375.9563</ele>
        <time>2020-01-27 15:55:06</time>
      </trkpt>
      <trkpt lat="45.55853" lon="6.60543">
        <ele>1376.4597</ele>
        <time>2020-01-27 15:55:09</time>
      </trkpt>
      <trkpt lat="45.55849" lon="6.60536">
        <ele>1376.9979</ele>
        <time>2020-01-27 15:55:15</time>
      </trkpt>
      <trkpt lat="45.55849" lon="6.60534">
        <ele>1377.2498</ele>
        <time>2020-01-27 15:55:17</time>
      </trkpt>
      <trkpt lat="45.55848" lon="6.60533">
        <ele>1377.3544</ele>
        <time>2020-01-27 15:55:20</time>
      </trkpt>
      <trkpt lat="45.55848" lon="6.60533">
        <ele>1378.8381</ele>
        <time>2020-01-27 15:55:26</time>
      </trkpt>
      <trkpt lat="45.55847" lon="6.60532">
        <ele>1378.9396</ele>
        <time>2020-01-27 15:55:27</time>
      </trkpt>
      <trkpt lat="45.55847" lon="6.60531">
        <ele>1378.8958</ele>
        <time>2020-01-27 15:55:28</time>
      </trkpt>
      <trkpt lat="45.55847" lon="6.6053">
        <ele>1378.2456</ele>
        <time>2020-01-27 15:55:29</time>
      </trkpt>
      <trkpt lat="45.55847" lon="6.60529">
        <ele>1378.1243</ele>
        <time>2020-01-27 15:55:30</time>
      </trkpt>
      <trkpt lat="45.55846" lon="6.60525">
        <ele>1377.6865</ele>
        <time>2020-01-27 15:55:33</time>
      </trkpt>
      <trkpt lat="45.55846" lon="6.60524">
        <ele>1377.9232</ele>
        <time>2020-01-27 15:55:34</time>
      </trkpt>
      <trkpt lat="45.55845" lon="6.60524">
        <ele>1378.0094</ele>
        <time>2020-01-27 15:55:35</time>
      </trkpt>
      <trkpt lat="45.55845" lon="6.60523">
        <ele>1378.1099</ele>
        <time>2020-01-27 15:55:36</time>
      </trkpt>
      <trkpt lat="45.55844" lon="6.60522">
        <ele>1378.0447</ele>
        <time>2020-01-27 15:55:37</time>
      </trkpt>
      <trkpt lat="45.55844" lon="6.6052">
        <ele>1377.5586</ele>
        <time>2020-01-27 15:55:40</time>
      </trkpt>
      <trkpt lat="45.55843" lon="6.60518">
        <ele>1377.268</ele>
        <time>2020-01-27 15:55:42</time>
      </trkpt>
      <trkpt lat="45.55843" lon="6.60517">
        <ele>1377.1549</ele>
        <time>2020-01-27 15:55:43</time>
      </trkpt>
      <trkpt lat="45.55842" lon="6.60515">
        <ele>1377.1135</ele>
        <time>2020-01-27 15:55:47</time>
      </trkpt>
      <trkpt lat="45.55842" lon="6.60515">
        <ele>1377.9238</ele>
        <time>2020-01-27 15:55:52</time>
      </trkpt>
      <trkpt lat="45.55842" lon="6.60513">
        <ele>1377.5234</ele>
        <time>2020-01-27 15:55:54</time>
      </trkpt>
      <trkpt lat="45.55842" lon="6.60511">
        <ele>1375.6237</ele>
        <time>2020-01-27 15:55:56</time>
      </trkpt>
      <trkpt lat="45.55843" lon="6.60494">
        <ele>1370.2375</ele>
        <time>2020-01-27 15:56:13</time>
      </trkpt>
      <trkpt lat="45.55843" lon="6.6049">
        <ele>1366.6384</ele>
        <time>2020-01-27 15:56:52</time>
      </trkpt>
      <trkpt lat="45.55844" lon="6.60489">
        <ele>1367.1505</ele>
        <time>2020-01-27 15:57:05</time>
      </trkpt>
      <trkpt lat="45.55845" lon="6.60488">
        <ele>1365.4781</ele>
        <time>2020-01-27 15:57:06</time>
      </trkpt>
      <trkpt lat="45.55844" lon="6.60487">
        <ele>1367.9861</ele>
        <time>2020-01-27 15:57:14</time>
      </trkpt>
    </trkseg>
  </trk>
</gpx>